<?xml version="1.0" encoding="UTF-8" standalone="no" ?>
<gpx xmlns="http://www.topografix.com/GPX/1/1" xmlns:xsi="http://www.w3.org/2001/XMLSchema-instance" xsi:schemaLocation="http://www.topografix.com/GPX/1/1 http://www.topografix.com/GPX/1/1/gpx.xsd" version="1.1" creator="VisuGPX - https://www.visugpx.com">
  <metadata>
    <name>E-NE-Malakoff Beaujoire Carquefou Voie Verte St Mars Désert Oudon EV6 Sud Primil</name>
    <desc><![CDATA[E-NE-Malakoff Beaujoire Carquefou Voie Verte St Mars Désert Oudon EV6 Sud Primil]]></desc>
  </metadata>
  <trk>
    <name><![CDATA[2021-01-10 12:32 +01:00]]></name>
    <trkseg>
      <trkpt lat="47.16773" lon="-1.62653">
        <ele>68</ele>
        <time>2021-01-10T11:32:27.000Z</time>
      </trkpt>
      <trkpt lat="47.16782" lon="-1.62648">
        <ele>73</ele>
        <time>2021-01-10T11:35:09.000Z</time>
      </trkpt>
      <trkpt lat="47.16792" lon="-1.62649">
        <ele>72</ele>
        <time>2021-01-10T11:35:19.000Z</time>
      </trkpt>
      <trkpt lat="47.16798" lon="-1.62639">
        <ele>71</ele>
        <time>2021-01-10T11:35:21.000Z</time>
      </trkpt>
      <trkpt lat="47.16805" lon="-1.62627">
        <ele>71</ele>
        <time>2021-01-10T11:35:23.000Z</time>
      </trkpt>
      <trkpt lat="47.16812" lon="-1.62614">
        <ele>69</ele>
        <time>2021-01-10T11:35:25.000Z</time>
      </trkpt>
      <trkpt lat="47.1682" lon="-1.62602">
        <ele>68</ele>
        <time>2021-01-10T11:35:27.000Z</time>
      </trkpt>
      <trkpt lat="47.16826" lon="-1.62591">
        <ele>68</ele>
        <time>2021-01-10T11:35:29.000Z</time>
      </trkpt>
      <trkpt lat="47.16831" lon="-1.62578">
        <ele>68</ele>
        <time>2021-01-10T11:35:31.000Z</time>
      </trkpt>
      <trkpt lat="47.16826" lon="-1.62564">
        <ele>68</ele>
        <time>2021-01-10T11:35:33.000Z</time>
      </trkpt>
      <trkpt lat="47.16815" lon="-1.62553">
        <ele>68</ele>
        <time>2021-01-10T11:35:35.000Z</time>
      </trkpt>
      <trkpt lat="47.16804" lon="-1.62545">
        <ele>69</ele>
        <time>2021-01-10T11:35:37.000Z</time>
      </trkpt>
      <trkpt lat="47.16793" lon="-1.62539">
        <ele>68</ele>
        <time>2021-01-10T11:35:39.000Z</time>
      </trkpt>
      <trkpt lat="47.16782" lon="-1.62532">
        <ele>68</ele>
        <time>2021-01-10T11:35:41.000Z</time>
      </trkpt>
      <trkpt lat="47.1677" lon="-1.62525">
        <ele>69</ele>
        <time>2021-01-10T11:35:43.000Z</time>
      </trkpt>
      <trkpt lat="47.16759" lon="-1.62518">
        <ele>69</ele>
        <time>2021-01-10T11:35:45.000Z</time>
      </trkpt>
      <trkpt lat="47.16748" lon="-1.62513">
        <ele>69</ele>
        <time>2021-01-10T11:35:47.000Z</time>
      </trkpt>
      <trkpt lat="47.16737" lon="-1.62508">
        <ele>69</ele>
        <time>2021-01-10T11:35:49.000Z</time>
      </trkpt>
      <trkpt lat="47.16726" lon="-1.62503">
        <ele>69</ele>
        <time>2021-01-10T11:35:51.000Z</time>
      </trkpt>
      <trkpt lat="47.16716" lon="-1.62498">
        <ele>68</ele>
        <time>2021-01-10T11:35:53.000Z</time>
      </trkpt>
      <trkpt lat="47.16712" lon="-1.62484">
        <ele>68</ele>
        <time>2021-01-10T11:35:55.000Z</time>
      </trkpt>
      <trkpt lat="47.16713" lon="-1.62465">
        <ele>68</ele>
        <time>2021-01-10T11:35:57.000Z</time>
      </trkpt>
      <trkpt lat="47.16715" lon="-1.62448">
        <ele>68</ele>
        <time>2021-01-10T11:35:59.000Z</time>
      </trkpt>
      <trkpt lat="47.16718" lon="-1.62431">
        <ele>69</ele>
        <time>2021-01-10T11:36:01.000Z</time>
      </trkpt>
      <trkpt lat="47.16723" lon="-1.62415">
        <ele>69</ele>
        <time>2021-01-10T11:36:03.000Z</time>
      </trkpt>
      <trkpt lat="47.16728" lon="-1.62397">
        <ele>69</ele>
        <time>2021-01-10T11:36:05.000Z</time>
      </trkpt>
      <trkpt lat="47.16733" lon="-1.62381">
        <ele>69</ele>
        <time>2021-01-10T11:36:07.000Z</time>
      </trkpt>
      <trkpt lat="47.1674" lon="-1.62366">
        <ele>69</ele>
        <time>2021-01-10T11:36:09.000Z</time>
      </trkpt>
      <trkpt lat="47.16748" lon="-1.62356">
        <ele>69</ele>
        <time>2021-01-10T11:36:11.000Z</time>
      </trkpt>
      <trkpt lat="47.16757" lon="-1.62346">
        <ele>69</ele>
        <time>2021-01-10T11:36:13.000Z</time>
      </trkpt>
      <trkpt lat="47.16768" lon="-1.62339">
        <ele>69</ele>
        <time>2021-01-10T11:36:15.000Z</time>
      </trkpt>
      <trkpt lat="47.16779" lon="-1.62332">
        <ele>69</ele>
        <time>2021-01-10T11:36:17.000Z</time>
      </trkpt>
      <trkpt lat="47.1679" lon="-1.62327">
        <ele>69</ele>
        <time>2021-01-10T11:36:19.000Z</time>
      </trkpt>
      <trkpt lat="47.16802" lon="-1.6232">
        <ele>70</ele>
        <time>2021-01-10T11:36:21.000Z</time>
      </trkpt>
      <trkpt lat="47.16812" lon="-1.62313">
        <ele>69</ele>
        <time>2021-01-10T11:36:23.000Z</time>
      </trkpt>
      <trkpt lat="47.16822" lon="-1.62304">
        <ele>69</ele>
        <time>2021-01-10T11:36:25.000Z</time>
      </trkpt>
      <trkpt lat="47.16832" lon="-1.62295">
        <ele>69</ele>
        <time>2021-01-10T11:36:27.000Z</time>
      </trkpt>
      <trkpt lat="47.16842" lon="-1.62284">
        <ele>70</ele>
        <time>2021-01-10T11:36:29.000Z</time>
      </trkpt>
      <trkpt lat="47.16851" lon="-1.62273">
        <ele>70</ele>
        <time>2021-01-10T11:36:31.000Z</time>
      </trkpt>
      <trkpt lat="47.16861" lon="-1.62262">
        <ele>70</ele>
        <time>2021-01-10T11:36:33.000Z</time>
      </trkpt>
      <trkpt lat="47.16869" lon="-1.62251">
        <ele>70</ele>
        <time>2021-01-10T11:36:35.000Z</time>
      </trkpt>
      <trkpt lat="47.16879" lon="-1.62239">
        <ele>71</ele>
        <time>2021-01-10T11:36:37.000Z</time>
      </trkpt>
      <trkpt lat="47.16888" lon="-1.62228">
        <ele>71</ele>
        <time>2021-01-10T11:36:39.000Z</time>
      </trkpt>
      <trkpt lat="47.16897" lon="-1.62216">
        <ele>71</ele>
        <time>2021-01-10T11:36:41.000Z</time>
      </trkpt>
      <trkpt lat="47.16905" lon="-1.62204">
        <ele>71</ele>
        <time>2021-01-10T11:36:43.000Z</time>
      </trkpt>
      <trkpt lat="47.16914" lon="-1.6219">
        <ele>71</ele>
        <time>2021-01-10T11:36:45.000Z</time>
      </trkpt>
      <trkpt lat="47.16922" lon="-1.62176">
        <ele>71</ele>
        <time>2021-01-10T11:36:47.000Z</time>
      </trkpt>
      <trkpt lat="47.16929" lon="-1.62161">
        <ele>71</ele>
        <time>2021-01-10T11:36:49.000Z</time>
      </trkpt>
      <trkpt lat="47.16937" lon="-1.62147">
        <ele>71</ele>
        <time>2021-01-10T11:36:51.000Z</time>
      </trkpt>
      <trkpt lat="47.16944" lon="-1.62133">
        <ele>71</ele>
        <time>2021-01-10T11:36:53.000Z</time>
      </trkpt>
      <trkpt lat="47.16952" lon="-1.62119">
        <ele>72</ele>
        <time>2021-01-10T11:36:55.000Z</time>
      </trkpt>
      <trkpt lat="47.16959" lon="-1.62104">
        <ele>71</ele>
        <time>2021-01-10T11:36:57.000Z</time>
      </trkpt>
      <trkpt lat="47.16966" lon="-1.6209">
        <ele>72</ele>
        <time>2021-01-10T11:36:59.000Z</time>
      </trkpt>
      <trkpt lat="47.16974" lon="-1.62075">
        <ele>71</ele>
        <time>2021-01-10T11:37:01.000Z</time>
      </trkpt>
      <trkpt lat="47.16981" lon="-1.62061">
        <ele>71</ele>
        <time>2021-01-10T11:37:03.000Z</time>
      </trkpt>
      <trkpt lat="47.16989" lon="-1.62047">
        <ele>71</ele>
        <time>2021-01-10T11:37:05.000Z</time>
      </trkpt>
      <trkpt lat="47.16997" lon="-1.62033">
        <ele>71</ele>
        <time>2021-01-10T11:37:07.000Z</time>
      </trkpt>
      <trkpt lat="47.17005" lon="-1.62021">
        <ele>72</ele>
        <time>2021-01-10T11:37:09.000Z</time>
      </trkpt>
      <trkpt lat="47.17013" lon="-1.62008">
        <ele>72</ele>
        <time>2021-01-10T11:37:11.000Z</time>
      </trkpt>
      <trkpt lat="47.17021" lon="-1.61997">
        <ele>72</ele>
        <time>2021-01-10T11:37:13.000Z</time>
      </trkpt>
      <trkpt lat="47.1703" lon="-1.61985">
        <ele>72</ele>
        <time>2021-01-10T11:37:15.000Z</time>
      </trkpt>
      <trkpt lat="47.17038" lon="-1.61972">
        <ele>72</ele>
        <time>2021-01-10T11:37:17.000Z</time>
      </trkpt>
      <trkpt lat="47.17046" lon="-1.6196">
        <ele>72</ele>
        <time>2021-01-10T11:37:19.000Z</time>
      </trkpt>
      <trkpt lat="47.17054" lon="-1.61949">
        <ele>72</ele>
        <time>2021-01-10T11:37:21.000Z</time>
      </trkpt>
      <trkpt lat="47.17063" lon="-1.61938">
        <ele>72</ele>
        <time>2021-01-10T11:37:23.000Z</time>
      </trkpt>
      <trkpt lat="47.17072" lon="-1.61927">
        <ele>72</ele>
        <time>2021-01-10T11:37:25.000Z</time>
      </trkpt>
      <trkpt lat="47.17081" lon="-1.61918">
        <ele>72</ele>
        <time>2021-01-10T11:37:27.000Z</time>
      </trkpt>
      <trkpt lat="47.17091" lon="-1.61908">
        <ele>72</ele>
        <time>2021-01-10T11:37:29.000Z</time>
      </trkpt>
      <trkpt lat="47.17101" lon="-1.61899">
        <ele>72</ele>
        <time>2021-01-10T11:37:31.000Z</time>
      </trkpt>
      <trkpt lat="47.17111" lon="-1.61889">
        <ele>72</ele>
        <time>2021-01-10T11:37:33.000Z</time>
      </trkpt>
      <trkpt lat="47.1712" lon="-1.6188">
        <ele>72</ele>
        <time>2021-01-10T11:37:35.000Z</time>
      </trkpt>
      <trkpt lat="47.1713" lon="-1.6187">
        <ele>72</ele>
        <time>2021-01-10T11:37:37.000Z</time>
      </trkpt>
      <trkpt lat="47.17139" lon="-1.61862">
        <ele>72</ele>
        <time>2021-01-10T11:37:39.000Z</time>
      </trkpt>
      <trkpt lat="47.17149" lon="-1.61852">
        <ele>72</ele>
        <time>2021-01-10T11:37:41.000Z</time>
      </trkpt>
      <trkpt lat="47.17159" lon="-1.61843">
        <ele>72</ele>
        <time>2021-01-10T11:37:43.000Z</time>
      </trkpt>
      <trkpt lat="47.17168" lon="-1.61834">
        <ele>72</ele>
        <time>2021-01-10T11:37:45.000Z</time>
      </trkpt>
      <trkpt lat="47.17177" lon="-1.61825">
        <ele>72</ele>
        <time>2021-01-10T11:37:47.000Z</time>
      </trkpt>
      <trkpt lat="47.17187" lon="-1.61815">
        <ele>72</ele>
        <time>2021-01-10T11:37:49.000Z</time>
      </trkpt>
      <trkpt lat="47.17197" lon="-1.61804">
        <ele>72</ele>
        <time>2021-01-10T11:37:51.000Z</time>
      </trkpt>
      <trkpt lat="47.17206" lon="-1.61795">
        <ele>72</ele>
        <time>2021-01-10T11:37:53.000Z</time>
      </trkpt>
      <trkpt lat="47.17215" lon="-1.61784">
        <ele>72</ele>
        <time>2021-01-10T11:37:55.000Z</time>
      </trkpt>
      <trkpt lat="47.17221" lon="-1.6177">
        <ele>72</ele>
        <time>2021-01-10T11:37:57.000Z</time>
      </trkpt>
      <trkpt lat="47.17226" lon="-1.61756">
        <ele>72</ele>
        <time>2021-01-10T11:37:59.000Z</time>
      </trkpt>
      <trkpt lat="47.17234" lon="-1.61744">
        <ele>72</ele>
        <time>2021-01-10T11:38:01.000Z</time>
      </trkpt>
      <trkpt lat="47.17242" lon="-1.61733">
        <ele>73</ele>
        <time>2021-01-10T11:38:03.000Z</time>
      </trkpt>
      <trkpt lat="47.17249" lon="-1.61721">
        <ele>72</ele>
        <time>2021-01-10T11:38:05.000Z</time>
      </trkpt>
      <trkpt lat="47.17256" lon="-1.61707">
        <ele>73</ele>
        <time>2021-01-10T11:38:07.000Z</time>
      </trkpt>
      <trkpt lat="47.17261" lon="-1.61694">
        <ele>74</ele>
        <time>2021-01-10T11:38:09.000Z</time>
      </trkpt>
      <trkpt lat="47.17268" lon="-1.6168">
        <ele>74</ele>
        <time>2021-01-10T11:38:11.000Z</time>
      </trkpt>
      <trkpt lat="47.17275" lon="-1.61666">
        <ele>75</ele>
        <time>2021-01-10T11:38:13.000Z</time>
      </trkpt>
      <trkpt lat="47.17282" lon="-1.61653">
        <ele>75</ele>
        <time>2021-01-10T11:38:15.000Z</time>
      </trkpt>
      <trkpt lat="47.17289" lon="-1.61641">
        <ele>75</ele>
        <time>2021-01-10T11:38:17.000Z</time>
      </trkpt>
      <trkpt lat="47.17296" lon="-1.61628">
        <ele>76</ele>
        <time>2021-01-10T11:38:19.000Z</time>
      </trkpt>
      <trkpt lat="47.17303" lon="-1.61616">
        <ele>76</ele>
        <time>2021-01-10T11:38:21.000Z</time>
      </trkpt>
      <trkpt lat="47.17312" lon="-1.61603">
        <ele>77</ele>
        <time>2021-01-10T11:38:23.000Z</time>
      </trkpt>
      <trkpt lat="47.1732" lon="-1.61592">
        <ele>77</ele>
        <time>2021-01-10T11:38:25.000Z</time>
      </trkpt>
      <trkpt lat="47.17328" lon="-1.61581">
        <ele>77</ele>
        <time>2021-01-10T11:38:27.000Z</time>
      </trkpt>
      <trkpt lat="47.17336" lon="-1.61571">
        <ele>77</ele>
        <time>2021-01-10T11:38:29.000Z</time>
      </trkpt>
      <trkpt lat="47.17345" lon="-1.61561">
        <ele>76</ele>
        <time>2021-01-10T11:38:31.000Z</time>
      </trkpt>
      <trkpt lat="47.17354" lon="-1.61551">
        <ele>76</ele>
        <time>2021-01-10T11:38:33.000Z</time>
      </trkpt>
      <trkpt lat="47.17363" lon="-1.61542">
        <ele>76</ele>
        <time>2021-01-10T11:38:35.000Z</time>
      </trkpt>
      <trkpt lat="47.17372" lon="-1.61533">
        <ele>75</ele>
        <time>2021-01-10T11:38:37.000Z</time>
      </trkpt>
      <trkpt lat="47.17381" lon="-1.61524">
        <ele>74</ele>
        <time>2021-01-10T11:38:39.000Z</time>
      </trkpt>
      <trkpt lat="47.17391" lon="-1.61516">
        <ele>73</ele>
        <time>2021-01-10T11:38:41.000Z</time>
      </trkpt>
      <trkpt lat="47.17401" lon="-1.61507">
        <ele>74</ele>
        <time>2021-01-10T11:38:43.000Z</time>
      </trkpt>
      <trkpt lat="47.17412" lon="-1.61499">
        <ele>73</ele>
        <time>2021-01-10T11:38:45.000Z</time>
      </trkpt>
      <trkpt lat="47.17423" lon="-1.61491">
        <ele>72</ele>
        <time>2021-01-10T11:38:47.000Z</time>
      </trkpt>
      <trkpt lat="47.17434" lon="-1.61484">
        <ele>72</ele>
        <time>2021-01-10T11:38:49.000Z</time>
      </trkpt>
      <trkpt lat="47.17446" lon="-1.61477">
        <ele>71</ele>
        <time>2021-01-10T11:38:51.000Z</time>
      </trkpt>
      <trkpt lat="47.17457" lon="-1.61472">
        <ele>71</ele>
        <time>2021-01-10T11:38:53.000Z</time>
      </trkpt>
      <trkpt lat="47.17469" lon="-1.61466">
        <ele>70</ele>
        <time>2021-01-10T11:38:55.000Z</time>
      </trkpt>
      <trkpt lat="47.1748" lon="-1.61461">
        <ele>70</ele>
        <time>2021-01-10T11:38:57.000Z</time>
      </trkpt>
      <trkpt lat="47.17492" lon="-1.61457">
        <ele>68</ele>
        <time>2021-01-10T11:38:59.000Z</time>
      </trkpt>
      <trkpt lat="47.17502" lon="-1.61452">
        <ele>68</ele>
        <time>2021-01-10T11:39:01.000Z</time>
      </trkpt>
      <trkpt lat="47.17511" lon="-1.61445">
        <ele>67</ele>
        <time>2021-01-10T11:39:03.000Z</time>
      </trkpt>
      <trkpt lat="47.17513" lon="-1.61429">
        <ele>66</ele>
        <time>2021-01-10T11:39:05.000Z</time>
      </trkpt>
      <trkpt lat="47.17516" lon="-1.6141">
        <ele>66</ele>
        <time>2021-01-10T11:39:07.000Z</time>
      </trkpt>
      <trkpt lat="47.17521" lon="-1.6139">
        <ele>65</ele>
        <time>2021-01-10T11:39:09.000Z</time>
      </trkpt>
      <trkpt lat="47.17525" lon="-1.61372">
        <ele>64</ele>
        <time>2021-01-10T11:39:11.000Z</time>
      </trkpt>
      <trkpt lat="47.17528" lon="-1.61354">
        <ele>64</ele>
        <time>2021-01-10T11:39:13.000Z</time>
      </trkpt>
      <trkpt lat="47.17524" lon="-1.61337">
        <ele>65</ele>
        <time>2021-01-10T11:39:15.000Z</time>
      </trkpt>
      <trkpt lat="47.1752" lon="-1.61318">
        <ele>65</ele>
        <time>2021-01-10T11:39:17.000Z</time>
      </trkpt>
      <trkpt lat="47.1752" lon="-1.613">
        <ele>64</ele>
        <time>2021-01-10T11:39:19.000Z</time>
      </trkpt>
      <trkpt lat="47.17515" lon="-1.61285">
        <ele>64</ele>
        <time>2021-01-10T11:39:21.000Z</time>
      </trkpt>
      <trkpt lat="47.17508" lon="-1.61271">
        <ele>64</ele>
        <time>2021-01-10T11:39:23.000Z</time>
      </trkpt>
      <trkpt lat="47.175" lon="-1.61255">
        <ele>64</ele>
        <time>2021-01-10T11:39:25.000Z</time>
      </trkpt>
      <trkpt lat="47.17493" lon="-1.61239">
        <ele>64</ele>
        <time>2021-01-10T11:39:27.000Z</time>
      </trkpt>
      <trkpt lat="47.17487" lon="-1.61223">
        <ele>64</ele>
        <time>2021-01-10T11:39:29.000Z</time>
      </trkpt>
      <trkpt lat="47.1748" lon="-1.61207">
        <ele>64</ele>
        <time>2021-01-10T11:39:31.000Z</time>
      </trkpt>
      <trkpt lat="47.17474" lon="-1.61191">
        <ele>64</ele>
        <time>2021-01-10T11:39:33.000Z</time>
      </trkpt>
      <trkpt lat="47.17467" lon="-1.61175">
        <ele>65</ele>
        <time>2021-01-10T11:39:35.000Z</time>
      </trkpt>
      <trkpt lat="47.17461" lon="-1.6116">
        <ele>64</ele>
        <time>2021-01-10T11:39:37.000Z</time>
      </trkpt>
      <trkpt lat="47.17455" lon="-1.61144">
        <ele>64</ele>
        <time>2021-01-10T11:39:39.000Z</time>
      </trkpt>
      <trkpt lat="47.17448" lon="-1.61129">
        <ele>63</ele>
        <time>2021-01-10T11:39:41.000Z</time>
      </trkpt>
      <trkpt lat="47.17443" lon="-1.61113">
        <ele>63</ele>
        <time>2021-01-10T11:39:43.000Z</time>
      </trkpt>
      <trkpt lat="47.1744" lon="-1.61094">
        <ele>63</ele>
        <time>2021-01-10T11:39:45.000Z</time>
      </trkpt>
      <trkpt lat="47.17433" lon="-1.61076">
        <ele>63</ele>
        <time>2021-01-10T11:39:47.000Z</time>
      </trkpt>
      <trkpt lat="47.17426" lon="-1.61058">
        <ele>62</ele>
        <time>2021-01-10T11:39:49.000Z</time>
      </trkpt>
      <trkpt lat="47.17422" lon="-1.61042">
        <ele>63</ele>
        <time>2021-01-10T11:39:51.000Z</time>
      </trkpt>
      <trkpt lat="47.17421" lon="-1.61028">
        <ele>62</ele>
        <time>2021-01-10T11:39:53.000Z</time>
      </trkpt>
      <trkpt lat="47.17428" lon="-1.61018">
        <ele>63</ele>
        <time>2021-01-10T11:39:56.000Z</time>
      </trkpt>
      <trkpt lat="47.17434" lon="-1.61032">
        <ele>62</ele>
        <time>2021-01-10T11:39:59.000Z</time>
      </trkpt>
      <trkpt lat="47.17438" lon="-1.61047">
        <ele>61</ele>
        <time>2021-01-10T11:40:01.000Z</time>
      </trkpt>
      <trkpt lat="47.17445" lon="-1.61062">
        <ele>62</ele>
        <time>2021-01-10T11:40:03.000Z</time>
      </trkpt>
      <trkpt lat="47.17452" lon="-1.61075">
        <ele>61</ele>
        <time>2021-01-10T11:40:05.000Z</time>
      </trkpt>
      <trkpt lat="47.17461" lon="-1.61087">
        <ele>60</ele>
        <time>2021-01-10T11:40:07.000Z</time>
      </trkpt>
      <trkpt lat="47.17473" lon="-1.61097">
        <ele>60</ele>
        <time>2021-01-10T11:40:09.000Z</time>
      </trkpt>
      <trkpt lat="47.17485" lon="-1.61103">
        <ele>61</ele>
        <time>2021-01-10T11:40:11.000Z</time>
      </trkpt>
      <trkpt lat="47.17498" lon="-1.61104">
        <ele>61</ele>
        <time>2021-01-10T11:40:13.000Z</time>
      </trkpt>
      <trkpt lat="47.17511" lon="-1.61101">
        <ele>60</ele>
        <time>2021-01-10T11:40:15.000Z</time>
      </trkpt>
      <trkpt lat="47.17522" lon="-1.61093">
        <ele>60</ele>
        <time>2021-01-10T11:40:17.000Z</time>
      </trkpt>
      <trkpt lat="47.17533" lon="-1.61084">
        <ele>59</ele>
        <time>2021-01-10T11:40:19.000Z</time>
      </trkpt>
      <trkpt lat="47.17543" lon="-1.61075">
        <ele>58</ele>
        <time>2021-01-10T11:40:21.000Z</time>
      </trkpt>
      <trkpt lat="47.17552" lon="-1.61065">
        <ele>57</ele>
        <time>2021-01-10T11:40:23.000Z</time>
      </trkpt>
      <trkpt lat="47.17562" lon="-1.61056">
        <ele>57</ele>
        <time>2021-01-10T11:40:25.000Z</time>
      </trkpt>
      <trkpt lat="47.17573" lon="-1.61047">
        <ele>57</ele>
        <time>2021-01-10T11:40:27.000Z</time>
      </trkpt>
      <trkpt lat="47.17584" lon="-1.61036">
        <ele>57</ele>
        <time>2021-01-10T11:40:29.000Z</time>
      </trkpt>
      <trkpt lat="47.17596" lon="-1.61027">
        <ele>57</ele>
        <time>2021-01-10T11:40:31.000Z</time>
      </trkpt>
      <trkpt lat="47.17608" lon="-1.61017">
        <ele>57</ele>
        <time>2021-01-10T11:40:33.000Z</time>
      </trkpt>
      <trkpt lat="47.1762" lon="-1.61006">
        <ele>56</ele>
        <time>2021-01-10T11:40:35.000Z</time>
      </trkpt>
      <trkpt lat="47.17631" lon="-1.60995">
        <ele>55</ele>
        <time>2021-01-10T11:40:37.000Z</time>
      </trkpt>
      <trkpt lat="47.17643" lon="-1.60985">
        <ele>55</ele>
        <time>2021-01-10T11:40:39.000Z</time>
      </trkpt>
      <trkpt lat="47.17654" lon="-1.60975">
        <ele>54</ele>
        <time>2021-01-10T11:40:41.000Z</time>
      </trkpt>
      <trkpt lat="47.17666" lon="-1.6097">
        <ele>55</ele>
        <time>2021-01-10T11:40:43.000Z</time>
      </trkpt>
      <trkpt lat="47.17679" lon="-1.60969">
        <ele>55</ele>
        <time>2021-01-10T11:40:45.000Z</time>
      </trkpt>
      <trkpt lat="47.17691" lon="-1.60971">
        <ele>56</ele>
        <time>2021-01-10T11:40:47.000Z</time>
      </trkpt>
      <trkpt lat="47.17703" lon="-1.60967">
        <ele>56</ele>
        <time>2021-01-10T11:40:49.000Z</time>
      </trkpt>
      <trkpt lat="47.17714" lon="-1.6096">
        <ele>56</ele>
        <time>2021-01-10T11:40:51.000Z</time>
      </trkpt>
      <trkpt lat="47.17726" lon="-1.60952">
        <ele>56</ele>
        <time>2021-01-10T11:40:53.000Z</time>
      </trkpt>
      <trkpt lat="47.17738" lon="-1.60944">
        <ele>56</ele>
        <time>2021-01-10T11:40:55.000Z</time>
      </trkpt>
      <trkpt lat="47.17748" lon="-1.60934">
        <ele>57</ele>
        <time>2021-01-10T11:40:57.000Z</time>
      </trkpt>
      <trkpt lat="47.17759" lon="-1.60926">
        <ele>57</ele>
        <time>2021-01-10T11:40:59.000Z</time>
      </trkpt>
      <trkpt lat="47.1777" lon="-1.60918">
        <ele>57</ele>
        <time>2021-01-10T11:41:01.000Z</time>
      </trkpt>
      <trkpt lat="47.17782" lon="-1.6091">
        <ele>57</ele>
        <time>2021-01-10T11:41:03.000Z</time>
      </trkpt>
      <trkpt lat="47.17794" lon="-1.60902">
        <ele>58</ele>
        <time>2021-01-10T11:41:05.000Z</time>
      </trkpt>
      <trkpt lat="47.17805" lon="-1.60892">
        <ele>58</ele>
        <time>2021-01-10T11:41:07.000Z</time>
      </trkpt>
      <trkpt lat="47.17815" lon="-1.60882">
        <ele>57</ele>
        <time>2021-01-10T11:41:09.000Z</time>
      </trkpt>
      <trkpt lat="47.17824" lon="-1.6087">
        <ele>57</ele>
        <time>2021-01-10T11:41:11.000Z</time>
      </trkpt>
      <trkpt lat="47.17832" lon="-1.60856">
        <ele>57</ele>
        <time>2021-01-10T11:41:13.000Z</time>
      </trkpt>
      <trkpt lat="47.17839" lon="-1.60841">
        <ele>57</ele>
        <time>2021-01-10T11:41:15.000Z</time>
      </trkpt>
      <trkpt lat="47.17844" lon="-1.60825">
        <ele>57</ele>
        <time>2021-01-10T11:41:17.000Z</time>
      </trkpt>
      <trkpt lat="47.17849" lon="-1.60808">
        <ele>57</ele>
        <time>2021-01-10T11:41:19.000Z</time>
      </trkpt>
      <trkpt lat="47.17853" lon="-1.60791">
        <ele>57</ele>
        <time>2021-01-10T11:41:21.000Z</time>
      </trkpt>
      <trkpt lat="47.17857" lon="-1.60772">
        <ele>57</ele>
        <time>2021-01-10T11:41:23.000Z</time>
      </trkpt>
      <trkpt lat="47.1786" lon="-1.60754">
        <ele>57</ele>
        <time>2021-01-10T11:41:25.000Z</time>
      </trkpt>
      <trkpt lat="47.17864" lon="-1.60737">
        <ele>57</ele>
        <time>2021-01-10T11:41:27.000Z</time>
      </trkpt>
      <trkpt lat="47.17867" lon="-1.60719">
        <ele>58</ele>
        <time>2021-01-10T11:41:29.000Z</time>
      </trkpt>
      <trkpt lat="47.17871" lon="-1.60702">
        <ele>57</ele>
        <time>2021-01-10T11:41:31.000Z</time>
      </trkpt>
      <trkpt lat="47.17876" lon="-1.60685">
        <ele>57</ele>
        <time>2021-01-10T11:41:33.000Z</time>
      </trkpt>
      <trkpt lat="47.17881" lon="-1.60669">
        <ele>57</ele>
        <time>2021-01-10T11:41:35.000Z</time>
      </trkpt>
      <trkpt lat="47.17886" lon="-1.60653">
        <ele>56</ele>
        <time>2021-01-10T11:41:37.000Z</time>
      </trkpt>
      <trkpt lat="47.17891" lon="-1.60638">
        <ele>56</ele>
        <time>2021-01-10T11:41:39.000Z</time>
      </trkpt>
      <trkpt lat="47.17896" lon="-1.60623">
        <ele>57</ele>
        <time>2021-01-10T11:41:41.000Z</time>
      </trkpt>
      <trkpt lat="47.179" lon="-1.60608">
        <ele>57</ele>
        <time>2021-01-10T11:41:43.000Z</time>
      </trkpt>
      <trkpt lat="47.17904" lon="-1.60595">
        <ele>57</ele>
        <time>2021-01-10T11:41:45.000Z</time>
      </trkpt>
      <trkpt lat="47.1791" lon="-1.60586">
        <ele>57</ele>
        <time>2021-01-10T11:41:47.000Z</time>
      </trkpt>
      <trkpt lat="47.17919" lon="-1.60583">
        <ele>58</ele>
        <time>2021-01-10T11:41:49.000Z</time>
      </trkpt>
      <trkpt lat="47.17929" lon="-1.60583">
        <ele>59</ele>
        <time>2021-01-10T11:41:51.000Z</time>
      </trkpt>
      <trkpt lat="47.17941" lon="-1.6058">
        <ele>59</ele>
        <time>2021-01-10T11:41:53.000Z</time>
      </trkpt>
      <trkpt lat="47.17954" lon="-1.60575">
        <ele>59</ele>
        <time>2021-01-10T11:41:55.000Z</time>
      </trkpt>
      <trkpt lat="47.17965" lon="-1.60569">
        <ele>58</ele>
        <time>2021-01-10T11:41:57.000Z</time>
      </trkpt>
      <trkpt lat="47.17977" lon="-1.60563">
        <ele>58</ele>
        <time>2021-01-10T11:41:59.000Z</time>
      </trkpt>
      <trkpt lat="47.17988" lon="-1.60559">
        <ele>58</ele>
        <time>2021-01-10T11:42:01.000Z</time>
      </trkpt>
      <trkpt lat="47.18001" lon="-1.60555">
        <ele>57</ele>
        <time>2021-01-10T11:42:03.000Z</time>
      </trkpt>
      <trkpt lat="47.18016" lon="-1.60551">
        <ele>57</ele>
        <time>2021-01-10T11:42:05.000Z</time>
      </trkpt>
      <trkpt lat="47.18029" lon="-1.60552">
        <ele>57</ele>
        <time>2021-01-10T11:42:07.000Z</time>
      </trkpt>
      <trkpt lat="47.18042" lon="-1.60557">
        <ele>57</ele>
        <time>2021-01-10T11:42:09.000Z</time>
      </trkpt>
      <trkpt lat="47.18054" lon="-1.60563">
        <ele>58</ele>
        <time>2021-01-10T11:42:11.000Z</time>
      </trkpt>
      <trkpt lat="47.18066" lon="-1.60569">
        <ele>57</ele>
        <time>2021-01-10T11:42:13.000Z</time>
      </trkpt>
      <trkpt lat="47.18078" lon="-1.60576">
        <ele>57</ele>
        <time>2021-01-10T11:42:15.000Z</time>
      </trkpt>
      <trkpt lat="47.1809" lon="-1.60582">
        <ele>58</ele>
        <time>2021-01-10T11:42:17.000Z</time>
      </trkpt>
      <trkpt lat="47.18101" lon="-1.60588">
        <ele>58</ele>
        <time>2021-01-10T11:42:19.000Z</time>
      </trkpt>
      <trkpt lat="47.18114" lon="-1.60592">
        <ele>58</ele>
        <time>2021-01-10T11:42:21.000Z</time>
      </trkpt>
      <trkpt lat="47.18126" lon="-1.60596">
        <ele>59</ele>
        <time>2021-01-10T11:42:23.000Z</time>
      </trkpt>
      <trkpt lat="47.18137" lon="-1.60599">
        <ele>59</ele>
        <time>2021-01-10T11:42:25.000Z</time>
      </trkpt>
      <trkpt lat="47.18148" lon="-1.606">
        <ele>59</ele>
        <time>2021-01-10T11:42:27.000Z</time>
      </trkpt>
      <trkpt lat="47.1816" lon="-1.60602">
        <ele>58</ele>
        <time>2021-01-10T11:42:29.000Z</time>
      </trkpt>
      <trkpt lat="47.18172" lon="-1.60601">
        <ele>58</ele>
        <time>2021-01-10T11:42:31.000Z</time>
      </trkpt>
      <trkpt lat="47.18182" lon="-1.60599">
        <ele>58</ele>
        <time>2021-01-10T11:42:33.000Z</time>
      </trkpt>
      <trkpt lat="47.1819" lon="-1.60586">
        <ele>57</ele>
        <time>2021-01-10T11:42:36.000Z</time>
      </trkpt>
      <trkpt lat="47.18197" lon="-1.60571">
        <ele>56</ele>
        <time>2021-01-10T11:42:39.000Z</time>
      </trkpt>
      <trkpt lat="47.18208" lon="-1.60567">
        <ele>56</ele>
        <time>2021-01-10T11:42:41.000Z</time>
      </trkpt>
      <trkpt lat="47.18219" lon="-1.60561">
        <ele>56</ele>
        <time>2021-01-10T11:42:43.000Z</time>
      </trkpt>
      <trkpt lat="47.18231" lon="-1.60555">
        <ele>56</ele>
        <time>2021-01-10T11:42:45.000Z</time>
      </trkpt>
      <trkpt lat="47.18243" lon="-1.60548">
        <ele>57</ele>
        <time>2021-01-10T11:42:47.000Z</time>
      </trkpt>
      <trkpt lat="47.18254" lon="-1.60539">
        <ele>58</ele>
        <time>2021-01-10T11:42:49.000Z</time>
      </trkpt>
      <trkpt lat="47.18265" lon="-1.6053">
        <ele>57</ele>
        <time>2021-01-10T11:42:51.000Z</time>
      </trkpt>
      <trkpt lat="47.18276" lon="-1.6052">
        <ele>57</ele>
        <time>2021-01-10T11:42:53.000Z</time>
      </trkpt>
      <trkpt lat="47.18286" lon="-1.60509">
        <ele>56</ele>
        <time>2021-01-10T11:42:55.000Z</time>
      </trkpt>
      <trkpt lat="47.18296" lon="-1.60499">
        <ele>56</ele>
        <time>2021-01-10T11:42:57.000Z</time>
      </trkpt>
      <trkpt lat="47.18305" lon="-1.60488">
        <ele>56</ele>
        <time>2021-01-10T11:42:59.000Z</time>
      </trkpt>
      <trkpt lat="47.18315" lon="-1.60477">
        <ele>56</ele>
        <time>2021-01-10T11:43:01.000Z</time>
      </trkpt>
      <trkpt lat="47.18325" lon="-1.60465">
        <ele>56</ele>
        <time>2021-01-10T11:43:03.000Z</time>
      </trkpt>
      <trkpt lat="47.18334" lon="-1.60454">
        <ele>56</ele>
        <time>2021-01-10T11:43:05.000Z</time>
      </trkpt>
      <trkpt lat="47.18343" lon="-1.60443">
        <ele>56</ele>
        <time>2021-01-10T11:43:07.000Z</time>
      </trkpt>
      <trkpt lat="47.18353" lon="-1.60432">
        <ele>55</ele>
        <time>2021-01-10T11:43:09.000Z</time>
      </trkpt>
      <trkpt lat="47.18362" lon="-1.6042">
        <ele>56</ele>
        <time>2021-01-10T11:43:11.000Z</time>
      </trkpt>
      <trkpt lat="47.18371" lon="-1.60409">
        <ele>56</ele>
        <time>2021-01-10T11:43:13.000Z</time>
      </trkpt>
      <trkpt lat="47.1838" lon="-1.60397">
        <ele>56</ele>
        <time>2021-01-10T11:43:15.000Z</time>
      </trkpt>
      <trkpt lat="47.18388" lon="-1.60385">
        <ele>56</ele>
        <time>2021-01-10T11:43:17.000Z</time>
      </trkpt>
      <trkpt lat="47.18397" lon="-1.60374">
        <ele>56</ele>
        <time>2021-01-10T11:43:19.000Z</time>
      </trkpt>
      <trkpt lat="47.18406" lon="-1.60362">
        <ele>56</ele>
        <time>2021-01-10T11:43:21.000Z</time>
      </trkpt>
      <trkpt lat="47.18414" lon="-1.60351">
        <ele>56</ele>
        <time>2021-01-10T11:43:23.000Z</time>
      </trkpt>
      <trkpt lat="47.18423" lon="-1.60338">
        <ele>56</ele>
        <time>2021-01-10T11:43:25.000Z</time>
      </trkpt>
      <trkpt lat="47.18431" lon="-1.60326">
        <ele>56</ele>
        <time>2021-01-10T11:43:27.000Z</time>
      </trkpt>
      <trkpt lat="47.18439" lon="-1.60312">
        <ele>56</ele>
        <time>2021-01-10T11:43:29.000Z</time>
      </trkpt>
      <trkpt lat="47.18447" lon="-1.60299">
        <ele>56</ele>
        <time>2021-01-10T11:43:31.000Z</time>
      </trkpt>
      <trkpt lat="47.18455" lon="-1.60286">
        <ele>56</ele>
        <time>2021-01-10T11:43:33.000Z</time>
      </trkpt>
      <trkpt lat="47.18463" lon="-1.60272">
        <ele>56</ele>
        <time>2021-01-10T11:43:35.000Z</time>
      </trkpt>
      <trkpt lat="47.18471" lon="-1.60259">
        <ele>56</ele>
        <time>2021-01-10T11:43:37.000Z</time>
      </trkpt>
      <trkpt lat="47.18478" lon="-1.60245">
        <ele>56</ele>
        <time>2021-01-10T11:43:39.000Z</time>
      </trkpt>
      <trkpt lat="47.18485" lon="-1.60231">
        <ele>56</ele>
        <time>2021-01-10T11:43:41.000Z</time>
      </trkpt>
      <trkpt lat="47.18493" lon="-1.60217">
        <ele>56</ele>
        <time>2021-01-10T11:43:43.000Z</time>
      </trkpt>
      <trkpt lat="47.185" lon="-1.60203">
        <ele>56</ele>
        <time>2021-01-10T11:43:45.000Z</time>
      </trkpt>
      <trkpt lat="47.18508" lon="-1.60189">
        <ele>56</ele>
        <time>2021-01-10T11:43:47.000Z</time>
      </trkpt>
      <trkpt lat="47.18515" lon="-1.60175">
        <ele>56</ele>
        <time>2021-01-10T11:43:49.000Z</time>
      </trkpt>
      <trkpt lat="47.18522" lon="-1.60161">
        <ele>56</ele>
        <time>2021-01-10T11:43:51.000Z</time>
      </trkpt>
      <trkpt lat="47.18528" lon="-1.60147">
        <ele>56</ele>
        <time>2021-01-10T11:43:53.000Z</time>
      </trkpt>
      <trkpt lat="47.18535" lon="-1.60133">
        <ele>56</ele>
        <time>2021-01-10T11:43:55.000Z</time>
      </trkpt>
      <trkpt lat="47.18541" lon="-1.60118">
        <ele>56</ele>
        <time>2021-01-10T11:43:57.000Z</time>
      </trkpt>
      <trkpt lat="47.18547" lon="-1.60102">
        <ele>57</ele>
        <time>2021-01-10T11:43:59.000Z</time>
      </trkpt>
      <trkpt lat="47.18553" lon="-1.60088">
        <ele>57</ele>
        <time>2021-01-10T11:44:01.000Z</time>
      </trkpt>
      <trkpt lat="47.18559" lon="-1.60073">
        <ele>57</ele>
        <time>2021-01-10T11:44:03.000Z</time>
      </trkpt>
      <trkpt lat="47.18565" lon="-1.60058">
        <ele>57</ele>
        <time>2021-01-10T11:44:05.000Z</time>
      </trkpt>
      <trkpt lat="47.1857" lon="-1.60043">
        <ele>57</ele>
        <time>2021-01-10T11:44:07.000Z</time>
      </trkpt>
      <trkpt lat="47.18576" lon="-1.60028">
        <ele>57</ele>
        <time>2021-01-10T11:44:09.000Z</time>
      </trkpt>
      <trkpt lat="47.18581" lon="-1.60012">
        <ele>57</ele>
        <time>2021-01-10T11:44:11.000Z</time>
      </trkpt>
      <trkpt lat="47.18587" lon="-1.59997">
        <ele>57</ele>
        <time>2021-01-10T11:44:13.000Z</time>
      </trkpt>
      <trkpt lat="47.18591" lon="-1.59981">
        <ele>56</ele>
        <time>2021-01-10T11:44:15.000Z</time>
      </trkpt>
      <trkpt lat="47.18596" lon="-1.59966">
        <ele>56</ele>
        <time>2021-01-10T11:44:17.000Z</time>
      </trkpt>
      <trkpt lat="47.18601" lon="-1.5995">
        <ele>55</ele>
        <time>2021-01-10T11:44:19.000Z</time>
      </trkpt>
      <trkpt lat="47.18606" lon="-1.59933">
        <ele>55</ele>
        <time>2021-01-10T11:44:21.000Z</time>
      </trkpt>
      <trkpt lat="47.1861" lon="-1.59916">
        <ele>56</ele>
        <time>2021-01-10T11:44:23.000Z</time>
      </trkpt>
      <trkpt lat="47.18615" lon="-1.59901">
        <ele>56</ele>
        <time>2021-01-10T11:44:25.000Z</time>
      </trkpt>
      <trkpt lat="47.18619" lon="-1.59885">
        <ele>56</ele>
        <time>2021-01-10T11:44:27.000Z</time>
      </trkpt>
      <trkpt lat="47.18622" lon="-1.59869">
        <ele>56</ele>
        <time>2021-01-10T11:44:29.000Z</time>
      </trkpt>
      <trkpt lat="47.18621" lon="-1.59853">
        <ele>55</ele>
        <time>2021-01-10T11:44:31.000Z</time>
      </trkpt>
      <trkpt lat="47.18617" lon="-1.59838">
        <ele>55</ele>
        <time>2021-01-10T11:44:33.000Z</time>
      </trkpt>
      <trkpt lat="47.1862" lon="-1.59823">
        <ele>56</ele>
        <time>2021-01-10T11:44:35.000Z</time>
      </trkpt>
      <trkpt lat="47.18626" lon="-1.59813">
        <ele>56</ele>
        <time>2021-01-10T11:44:37.000Z</time>
      </trkpt>
      <trkpt lat="47.18629" lon="-1.598">
        <ele>56</ele>
        <time>2021-01-10T11:44:40.000Z</time>
      </trkpt>
      <trkpt lat="47.18632" lon="-1.59786">
        <ele>56</ele>
        <time>2021-01-10T11:44:42.000Z</time>
      </trkpt>
      <trkpt lat="47.18638" lon="-1.5977">
        <ele>56</ele>
        <time>2021-01-10T11:44:44.000Z</time>
      </trkpt>
      <trkpt lat="47.18647" lon="-1.59757">
        <ele>56</ele>
        <time>2021-01-10T11:44:46.000Z</time>
      </trkpt>
      <trkpt lat="47.18653" lon="-1.59743">
        <ele>56</ele>
        <time>2021-01-10T11:44:48.000Z</time>
      </trkpt>
      <trkpt lat="47.18656" lon="-1.59726">
        <ele>56</ele>
        <time>2021-01-10T11:44:50.000Z</time>
      </trkpt>
      <trkpt lat="47.18659" lon="-1.59709">
        <ele>56</ele>
        <time>2021-01-10T11:44:52.000Z</time>
      </trkpt>
      <trkpt lat="47.18662" lon="-1.59691">
        <ele>56</ele>
        <time>2021-01-10T11:44:54.000Z</time>
      </trkpt>
      <trkpt lat="47.18665" lon="-1.59675">
        <ele>57</ele>
        <time>2021-01-10T11:44:56.000Z</time>
      </trkpt>
      <trkpt lat="47.1867" lon="-1.59659">
        <ele>57</ele>
        <time>2021-01-10T11:44:58.000Z</time>
      </trkpt>
      <trkpt lat="47.18673" lon="-1.59642">
        <ele>57</ele>
        <time>2021-01-10T11:45:00.000Z</time>
      </trkpt>
      <trkpt lat="47.18676" lon="-1.59626">
        <ele>57</ele>
        <time>2021-01-10T11:45:02.000Z</time>
      </trkpt>
      <trkpt lat="47.18677" lon="-1.59609">
        <ele>57</ele>
        <time>2021-01-10T11:45:04.000Z</time>
      </trkpt>
      <trkpt lat="47.18679" lon="-1.59593">
        <ele>56</ele>
        <time>2021-01-10T11:45:06.000Z</time>
      </trkpt>
      <trkpt lat="47.18681" lon="-1.59576">
        <ele>57</ele>
        <time>2021-01-10T11:45:08.000Z</time>
      </trkpt>
      <trkpt lat="47.18683" lon="-1.5956">
        <ele>57</ele>
        <time>2021-01-10T11:45:10.000Z</time>
      </trkpt>
      <trkpt lat="47.18685" lon="-1.59543">
        <ele>57</ele>
        <time>2021-01-10T11:45:12.000Z</time>
      </trkpt>
      <trkpt lat="47.18686" lon="-1.59527">
        <ele>57</ele>
        <time>2021-01-10T11:45:14.000Z</time>
      </trkpt>
      <trkpt lat="47.18689" lon="-1.5951">
        <ele>57</ele>
        <time>2021-01-10T11:45:16.000Z</time>
      </trkpt>
      <trkpt lat="47.18691" lon="-1.59494">
        <ele>57</ele>
        <time>2021-01-10T11:45:18.000Z</time>
      </trkpt>
      <trkpt lat="47.18693" lon="-1.59477">
        <ele>57</ele>
        <time>2021-01-10T11:45:20.000Z</time>
      </trkpt>
      <trkpt lat="47.18695" lon="-1.59461">
        <ele>57</ele>
        <time>2021-01-10T11:45:22.000Z</time>
      </trkpt>
      <trkpt lat="47.18697" lon="-1.59444">
        <ele>57</ele>
        <time>2021-01-10T11:45:24.000Z</time>
      </trkpt>
      <trkpt lat="47.18699" lon="-1.59426">
        <ele>56</ele>
        <time>2021-01-10T11:45:26.000Z</time>
      </trkpt>
      <trkpt lat="47.18701" lon="-1.59411">
        <ele>56</ele>
        <time>2021-01-10T11:45:28.000Z</time>
      </trkpt>
      <trkpt lat="47.18702" lon="-1.59394">
        <ele>56</ele>
        <time>2021-01-10T11:45:30.000Z</time>
      </trkpt>
      <trkpt lat="47.18704" lon="-1.59377">
        <ele>56</ele>
        <time>2021-01-10T11:45:32.000Z</time>
      </trkpt>
      <trkpt lat="47.18706" lon="-1.5936">
        <ele>56</ele>
        <time>2021-01-10T11:45:34.000Z</time>
      </trkpt>
      <trkpt lat="47.18708" lon="-1.59344">
        <ele>56</ele>
        <time>2021-01-10T11:45:36.000Z</time>
      </trkpt>
      <trkpt lat="47.18709" lon="-1.59327">
        <ele>56</ele>
        <time>2021-01-10T11:45:38.000Z</time>
      </trkpt>
      <trkpt lat="47.18711" lon="-1.59311">
        <ele>56</ele>
        <time>2021-01-10T11:45:40.000Z</time>
      </trkpt>
      <trkpt lat="47.18713" lon="-1.59294">
        <ele>56</ele>
        <time>2021-01-10T11:45:42.000Z</time>
      </trkpt>
      <trkpt lat="47.18715" lon="-1.59277">
        <ele>55</ele>
        <time>2021-01-10T11:45:44.000Z</time>
      </trkpt>
      <trkpt lat="47.18717" lon="-1.5926">
        <ele>55</ele>
        <time>2021-01-10T11:45:46.000Z</time>
      </trkpt>
      <trkpt lat="47.18718" lon="-1.59244">
        <ele>55</ele>
        <time>2021-01-10T11:45:48.000Z</time>
      </trkpt>
      <trkpt lat="47.1872" lon="-1.59229">
        <ele>55</ele>
        <time>2021-01-10T11:45:50.000Z</time>
      </trkpt>
      <trkpt lat="47.18722" lon="-1.59213">
        <ele>55</ele>
        <time>2021-01-10T11:45:52.000Z</time>
      </trkpt>
      <trkpt lat="47.18723" lon="-1.59197">
        <ele>55</ele>
        <time>2021-01-10T11:45:54.000Z</time>
      </trkpt>
      <trkpt lat="47.18725" lon="-1.59182">
        <ele>55</ele>
        <time>2021-01-10T11:45:56.000Z</time>
      </trkpt>
      <trkpt lat="47.18727" lon="-1.59165">
        <ele>55</ele>
        <time>2021-01-10T11:45:58.000Z</time>
      </trkpt>
      <trkpt lat="47.18729" lon="-1.59149">
        <ele>55</ele>
        <time>2021-01-10T11:46:00.000Z</time>
      </trkpt>
      <trkpt lat="47.1873" lon="-1.59132">
        <ele>55</ele>
        <time>2021-01-10T11:46:02.000Z</time>
      </trkpt>
      <trkpt lat="47.18732" lon="-1.59116">
        <ele>56</ele>
        <time>2021-01-10T11:46:04.000Z</time>
      </trkpt>
      <trkpt lat="47.18734" lon="-1.591">
        <ele>56</ele>
        <time>2021-01-10T11:46:06.000Z</time>
      </trkpt>
      <trkpt lat="47.18736" lon="-1.59083">
        <ele>56</ele>
        <time>2021-01-10T11:46:08.000Z</time>
      </trkpt>
      <trkpt lat="47.18738" lon="-1.59066">
        <ele>55</ele>
        <time>2021-01-10T11:46:10.000Z</time>
      </trkpt>
      <trkpt lat="47.1874" lon="-1.59049">
        <ele>55</ele>
        <time>2021-01-10T11:46:12.000Z</time>
      </trkpt>
      <trkpt lat="47.18741" lon="-1.59032">
        <ele>56</ele>
        <time>2021-01-10T11:46:14.000Z</time>
      </trkpt>
      <trkpt lat="47.18743" lon="-1.59015">
        <ele>56</ele>
        <time>2021-01-10T11:46:16.000Z</time>
      </trkpt>
      <trkpt lat="47.18745" lon="-1.58999">
        <ele>56</ele>
        <time>2021-01-10T11:46:18.000Z</time>
      </trkpt>
      <trkpt lat="47.18747" lon="-1.58983">
        <ele>56</ele>
        <time>2021-01-10T11:46:20.000Z</time>
      </trkpt>
      <trkpt lat="47.18749" lon="-1.58967">
        <ele>56</ele>
        <time>2021-01-10T11:46:22.000Z</time>
      </trkpt>
      <trkpt lat="47.1875" lon="-1.5895">
        <ele>57</ele>
        <time>2021-01-10T11:46:24.000Z</time>
      </trkpt>
      <trkpt lat="47.18752" lon="-1.58934">
        <ele>57</ele>
        <time>2021-01-10T11:46:26.000Z</time>
      </trkpt>
      <trkpt lat="47.18754" lon="-1.58919">
        <ele>57</ele>
        <time>2021-01-10T11:46:28.000Z</time>
      </trkpt>
      <trkpt lat="47.18756" lon="-1.58903">
        <ele>57</ele>
        <time>2021-01-10T11:46:30.000Z</time>
      </trkpt>
      <trkpt lat="47.18757" lon="-1.58888">
        <ele>57</ele>
        <time>2021-01-10T11:46:32.000Z</time>
      </trkpt>
      <trkpt lat="47.18759" lon="-1.58873">
        <ele>57</ele>
        <time>2021-01-10T11:46:34.000Z</time>
      </trkpt>
      <trkpt lat="47.1876" lon="-1.58857">
        <ele>57</ele>
        <time>2021-01-10T11:46:36.000Z</time>
      </trkpt>
      <trkpt lat="47.18763" lon="-1.58841">
        <ele>57</ele>
        <time>2021-01-10T11:46:38.000Z</time>
      </trkpt>
      <trkpt lat="47.18765" lon="-1.58825">
        <ele>57</ele>
        <time>2021-01-10T11:46:40.000Z</time>
      </trkpt>
      <trkpt lat="47.18765" lon="-1.58809">
        <ele>56</ele>
        <time>2021-01-10T11:46:42.000Z</time>
      </trkpt>
      <trkpt lat="47.18764" lon="-1.58791">
        <ele>57</ele>
        <time>2021-01-10T11:46:44.000Z</time>
      </trkpt>
      <trkpt lat="47.18762" lon="-1.58776">
        <ele>57</ele>
        <time>2021-01-10T11:46:46.000Z</time>
      </trkpt>
      <trkpt lat="47.18758" lon="-1.5876">
        <ele>58</ele>
        <time>2021-01-10T11:46:48.000Z</time>
      </trkpt>
      <trkpt lat="47.18758" lon="-1.58743">
        <ele>56</ele>
        <time>2021-01-10T11:46:50.000Z</time>
      </trkpt>
      <trkpt lat="47.18762" lon="-1.58726">
        <ele>56</ele>
        <time>2021-01-10T11:46:52.000Z</time>
      </trkpt>
      <trkpt lat="47.1877" lon="-1.58713">
        <ele>55</ele>
        <time>2021-01-10T11:46:54.000Z</time>
      </trkpt>
      <trkpt lat="47.18778" lon="-1.58702">
        <ele>55</ele>
        <time>2021-01-10T11:46:56.000Z</time>
      </trkpt>
      <trkpt lat="47.18784" lon="-1.58688">
        <ele>55</ele>
        <time>2021-01-10T11:46:58.000Z</time>
      </trkpt>
      <trkpt lat="47.18789" lon="-1.58672">
        <ele>55</ele>
        <time>2021-01-10T11:47:00.000Z</time>
      </trkpt>
      <trkpt lat="47.18792" lon="-1.58657">
        <ele>55</ele>
        <time>2021-01-10T11:47:02.000Z</time>
      </trkpt>
      <trkpt lat="47.18797" lon="-1.58641">
        <ele>55</ele>
        <time>2021-01-10T11:47:04.000Z</time>
      </trkpt>
      <trkpt lat="47.18801" lon="-1.58624">
        <ele>55</ele>
        <time>2021-01-10T11:47:06.000Z</time>
      </trkpt>
      <trkpt lat="47.18805" lon="-1.58608">
        <ele>55</ele>
        <time>2021-01-10T11:47:08.000Z</time>
      </trkpt>
      <trkpt lat="47.1881" lon="-1.58593">
        <ele>55</ele>
        <time>2021-01-10T11:47:10.000Z</time>
      </trkpt>
      <trkpt lat="47.18813" lon="-1.58577">
        <ele>55</ele>
        <time>2021-01-10T11:47:12.000Z</time>
      </trkpt>
      <trkpt lat="47.18817" lon="-1.58562">
        <ele>55</ele>
        <time>2021-01-10T11:47:14.000Z</time>
      </trkpt>
      <trkpt lat="47.18821" lon="-1.58549">
        <ele>55</ele>
        <time>2021-01-10T11:47:16.000Z</time>
      </trkpt>
      <trkpt lat="47.18824" lon="-1.58535">
        <ele>55</ele>
        <time>2021-01-10T11:47:18.000Z</time>
      </trkpt>
      <trkpt lat="47.18829" lon="-1.5852">
        <ele>55</ele>
        <time>2021-01-10T11:47:20.000Z</time>
      </trkpt>
      <trkpt lat="47.18833" lon="-1.58505">
        <ele>56</ele>
        <time>2021-01-10T11:47:22.000Z</time>
      </trkpt>
      <trkpt lat="47.18838" lon="-1.58489">
        <ele>55</ele>
        <time>2021-01-10T11:47:24.000Z</time>
      </trkpt>
      <trkpt lat="47.18842" lon="-1.58474">
        <ele>55</ele>
        <time>2021-01-10T11:47:26.000Z</time>
      </trkpt>
      <trkpt lat="47.18847" lon="-1.58459">
        <ele>55</ele>
        <time>2021-01-10T11:47:28.000Z</time>
      </trkpt>
      <trkpt lat="47.18851" lon="-1.58443">
        <ele>56</ele>
        <time>2021-01-10T11:47:30.000Z</time>
      </trkpt>
      <trkpt lat="47.18856" lon="-1.58428">
        <ele>56</ele>
        <time>2021-01-10T11:47:32.000Z</time>
      </trkpt>
      <trkpt lat="47.18861" lon="-1.58412">
        <ele>56</ele>
        <time>2021-01-10T11:47:34.000Z</time>
      </trkpt>
      <trkpt lat="47.18865" lon="-1.58396">
        <ele>56</ele>
        <time>2021-01-10T11:47:36.000Z</time>
      </trkpt>
      <trkpt lat="47.1887" lon="-1.58382">
        <ele>56</ele>
        <time>2021-01-10T11:47:38.000Z</time>
      </trkpt>
      <trkpt lat="47.18876" lon="-1.58367">
        <ele>55</ele>
        <time>2021-01-10T11:47:40.000Z</time>
      </trkpt>
      <trkpt lat="47.18881" lon="-1.58352">
        <ele>56</ele>
        <time>2021-01-10T11:47:42.000Z</time>
      </trkpt>
      <trkpt lat="47.18886" lon="-1.58337">
        <ele>56</ele>
        <time>2021-01-10T11:47:44.000Z</time>
      </trkpt>
      <trkpt lat="47.18891" lon="-1.58323">
        <ele>56</ele>
        <time>2021-01-10T11:47:46.000Z</time>
      </trkpt>
      <trkpt lat="47.18896" lon="-1.58308">
        <ele>56</ele>
        <time>2021-01-10T11:47:48.000Z</time>
      </trkpt>
      <trkpt lat="47.18901" lon="-1.58293">
        <ele>56</ele>
        <time>2021-01-10T11:47:50.000Z</time>
      </trkpt>
      <trkpt lat="47.18906" lon="-1.58278">
        <ele>56</ele>
        <time>2021-01-10T11:47:52.000Z</time>
      </trkpt>
      <trkpt lat="47.18911" lon="-1.58262">
        <ele>56</ele>
        <time>2021-01-10T11:47:54.000Z</time>
      </trkpt>
      <trkpt lat="47.18917" lon="-1.58247">
        <ele>56</ele>
        <time>2021-01-10T11:47:56.000Z</time>
      </trkpt>
      <trkpt lat="47.18922" lon="-1.58233">
        <ele>55</ele>
        <time>2021-01-10T11:47:58.000Z</time>
      </trkpt>
      <trkpt lat="47.18927" lon="-1.58217">
        <ele>55</ele>
        <time>2021-01-10T11:48:00.000Z</time>
      </trkpt>
      <trkpt lat="47.18932" lon="-1.58204">
        <ele>55</ele>
        <time>2021-01-10T11:48:02.000Z</time>
      </trkpt>
      <trkpt lat="47.18938" lon="-1.58189">
        <ele>55</ele>
        <time>2021-01-10T11:48:04.000Z</time>
      </trkpt>
      <trkpt lat="47.18942" lon="-1.58173">
        <ele>56</ele>
        <time>2021-01-10T11:48:06.000Z</time>
      </trkpt>
      <trkpt lat="47.18948" lon="-1.58158">
        <ele>56</ele>
        <time>2021-01-10T11:48:08.000Z</time>
      </trkpt>
      <trkpt lat="47.18953" lon="-1.58144">
        <ele>56</ele>
        <time>2021-01-10T11:48:10.000Z</time>
      </trkpt>
      <trkpt lat="47.18958" lon="-1.58129">
        <ele>56</ele>
        <time>2021-01-10T11:48:12.000Z</time>
      </trkpt>
      <trkpt lat="47.18963" lon="-1.58114">
        <ele>56</ele>
        <time>2021-01-10T11:48:14.000Z</time>
      </trkpt>
      <trkpt lat="47.18968" lon="-1.58098">
        <ele>56</ele>
        <time>2021-01-10T11:48:16.000Z</time>
      </trkpt>
      <trkpt lat="47.18973" lon="-1.58085">
        <ele>56</ele>
        <time>2021-01-10T11:48:18.000Z</time>
      </trkpt>
      <trkpt lat="47.18979" lon="-1.58071">
        <ele>56</ele>
        <time>2021-01-10T11:48:20.000Z</time>
      </trkpt>
      <trkpt lat="47.18984" lon="-1.58056">
        <ele>56</ele>
        <time>2021-01-10T11:48:22.000Z</time>
      </trkpt>
      <trkpt lat="47.18989" lon="-1.58042">
        <ele>55</ele>
        <time>2021-01-10T11:48:24.000Z</time>
      </trkpt>
      <trkpt lat="47.18995" lon="-1.58027">
        <ele>56</ele>
        <time>2021-01-10T11:48:26.000Z</time>
      </trkpt>
      <trkpt lat="47.19" lon="-1.58013">
        <ele>55</ele>
        <time>2021-01-10T11:48:28.000Z</time>
      </trkpt>
      <trkpt lat="47.19005" lon="-1.57998">
        <ele>55</ele>
        <time>2021-01-10T11:48:30.000Z</time>
      </trkpt>
      <trkpt lat="47.1901" lon="-1.57985">
        <ele>55</ele>
        <time>2021-01-10T11:48:32.000Z</time>
      </trkpt>
      <trkpt lat="47.19014" lon="-1.57972">
        <ele>56</ele>
        <time>2021-01-10T11:48:34.000Z</time>
      </trkpt>
      <trkpt lat="47.19019" lon="-1.57957">
        <ele>56</ele>
        <time>2021-01-10T11:48:36.000Z</time>
      </trkpt>
      <trkpt lat="47.19025" lon="-1.57942">
        <ele>56</ele>
        <time>2021-01-10T11:48:38.000Z</time>
      </trkpt>
      <trkpt lat="47.1903" lon="-1.57929">
        <ele>56</ele>
        <time>2021-01-10T11:48:40.000Z</time>
      </trkpt>
      <trkpt lat="47.19035" lon="-1.57914">
        <ele>56</ele>
        <time>2021-01-10T11:48:42.000Z</time>
      </trkpt>
      <trkpt lat="47.1904" lon="-1.579">
        <ele>57</ele>
        <time>2021-01-10T11:48:44.000Z</time>
      </trkpt>
      <trkpt lat="47.19045" lon="-1.57886">
        <ele>57</ele>
        <time>2021-01-10T11:48:46.000Z</time>
      </trkpt>
      <trkpt lat="47.19049" lon="-1.57871">
        <ele>57</ele>
        <time>2021-01-10T11:48:48.000Z</time>
      </trkpt>
      <trkpt lat="47.19054" lon="-1.57857">
        <ele>57</ele>
        <time>2021-01-10T11:48:50.000Z</time>
      </trkpt>
      <trkpt lat="47.19059" lon="-1.57842">
        <ele>57</ele>
        <time>2021-01-10T11:48:52.000Z</time>
      </trkpt>
      <trkpt lat="47.19065" lon="-1.57828">
        <ele>57</ele>
        <time>2021-01-10T11:48:54.000Z</time>
      </trkpt>
      <trkpt lat="47.1907" lon="-1.57813">
        <ele>56</ele>
        <time>2021-01-10T11:48:56.000Z</time>
      </trkpt>
      <trkpt lat="47.19075" lon="-1.57799">
        <ele>56</ele>
        <time>2021-01-10T11:48:58.000Z</time>
      </trkpt>
      <trkpt lat="47.19081" lon="-1.57785">
        <ele>56</ele>
        <time>2021-01-10T11:49:00.000Z</time>
      </trkpt>
      <trkpt lat="47.19086" lon="-1.5777">
        <ele>56</ele>
        <time>2021-01-10T11:49:02.000Z</time>
      </trkpt>
      <trkpt lat="47.19091" lon="-1.57755">
        <ele>56</ele>
        <time>2021-01-10T11:49:04.000Z</time>
      </trkpt>
      <trkpt lat="47.19096" lon="-1.57741">
        <ele>56</ele>
        <time>2021-01-10T11:49:06.000Z</time>
      </trkpt>
      <trkpt lat="47.19101" lon="-1.57726">
        <ele>56</ele>
        <time>2021-01-10T11:49:08.000Z</time>
      </trkpt>
      <trkpt lat="47.19107" lon="-1.57711">
        <ele>56</ele>
        <time>2021-01-10T11:49:10.000Z</time>
      </trkpt>
      <trkpt lat="47.19112" lon="-1.57695">
        <ele>56</ele>
        <time>2021-01-10T11:49:12.000Z</time>
      </trkpt>
      <trkpt lat="47.19117" lon="-1.5768">
        <ele>55</ele>
        <time>2021-01-10T11:49:14.000Z</time>
      </trkpt>
      <trkpt lat="47.19123" lon="-1.57665">
        <ele>55</ele>
        <time>2021-01-10T11:49:16.000Z</time>
      </trkpt>
      <trkpt lat="47.19128" lon="-1.5765">
        <ele>55</ele>
        <time>2021-01-10T11:49:18.000Z</time>
      </trkpt>
      <trkpt lat="47.19134" lon="-1.57635">
        <ele>55</ele>
        <time>2021-01-10T11:49:20.000Z</time>
      </trkpt>
      <trkpt lat="47.19139" lon="-1.57619">
        <ele>55</ele>
        <time>2021-01-10T11:49:22.000Z</time>
      </trkpt>
      <trkpt lat="47.19145" lon="-1.57605">
        <ele>55</ele>
        <time>2021-01-10T11:49:24.000Z</time>
      </trkpt>
      <trkpt lat="47.1915" lon="-1.57589">
        <ele>55</ele>
        <time>2021-01-10T11:49:26.000Z</time>
      </trkpt>
      <trkpt lat="47.19156" lon="-1.57574">
        <ele>55</ele>
        <time>2021-01-10T11:49:28.000Z</time>
      </trkpt>
      <trkpt lat="47.1916" lon="-1.57559">
        <ele>55</ele>
        <time>2021-01-10T11:49:30.000Z</time>
      </trkpt>
      <trkpt lat="47.19166" lon="-1.57544">
        <ele>54</ele>
        <time>2021-01-10T11:49:32.000Z</time>
      </trkpt>
      <trkpt lat="47.19171" lon="-1.57528">
        <ele>54</ele>
        <time>2021-01-10T11:49:34.000Z</time>
      </trkpt>
      <trkpt lat="47.19177" lon="-1.57513">
        <ele>54</ele>
        <time>2021-01-10T11:49:36.000Z</time>
      </trkpt>
      <trkpt lat="47.19182" lon="-1.57497">
        <ele>54</ele>
        <time>2021-01-10T11:49:38.000Z</time>
      </trkpt>
      <trkpt lat="47.19187" lon="-1.57481">
        <ele>54</ele>
        <time>2021-01-10T11:49:40.000Z</time>
      </trkpt>
      <trkpt lat="47.19191" lon="-1.57466">
        <ele>54</ele>
        <time>2021-01-10T11:49:42.000Z</time>
      </trkpt>
      <trkpt lat="47.19195" lon="-1.5745">
        <ele>54</ele>
        <time>2021-01-10T11:49:44.000Z</time>
      </trkpt>
      <trkpt lat="47.192" lon="-1.57434">
        <ele>54</ele>
        <time>2021-01-10T11:49:46.000Z</time>
      </trkpt>
      <trkpt lat="47.19205" lon="-1.57419">
        <ele>54</ele>
        <time>2021-01-10T11:49:48.000Z</time>
      </trkpt>
      <trkpt lat="47.19209" lon="-1.57403">
        <ele>54</ele>
        <time>2021-01-10T11:49:50.000Z</time>
      </trkpt>
      <trkpt lat="47.19213" lon="-1.57387">
        <ele>54</ele>
        <time>2021-01-10T11:49:52.000Z</time>
      </trkpt>
      <trkpt lat="47.19217" lon="-1.57372">
        <ele>54</ele>
        <time>2021-01-10T11:49:54.000Z</time>
      </trkpt>
      <trkpt lat="47.19221" lon="-1.57356">
        <ele>54</ele>
        <time>2021-01-10T11:49:56.000Z</time>
      </trkpt>
      <trkpt lat="47.19225" lon="-1.57339">
        <ele>54</ele>
        <time>2021-01-10T11:49:58.000Z</time>
      </trkpt>
      <trkpt lat="47.19228" lon="-1.57322">
        <ele>54</ele>
        <time>2021-01-10T11:50:00.000Z</time>
      </trkpt>
      <trkpt lat="47.19231" lon="-1.57305">
        <ele>55</ele>
        <time>2021-01-10T11:50:02.000Z</time>
      </trkpt>
      <trkpt lat="47.19233" lon="-1.57288">
        <ele>55</ele>
        <time>2021-01-10T11:50:04.000Z</time>
      </trkpt>
      <trkpt lat="47.19236" lon="-1.57271">
        <ele>55</ele>
        <time>2021-01-10T11:50:06.000Z</time>
      </trkpt>
      <trkpt lat="47.19239" lon="-1.57253">
        <ele>55</ele>
        <time>2021-01-10T11:50:08.000Z</time>
      </trkpt>
      <trkpt lat="47.19241" lon="-1.57236">
        <ele>54</ele>
        <time>2021-01-10T11:50:10.000Z</time>
      </trkpt>
      <trkpt lat="47.19243" lon="-1.57219">
        <ele>54</ele>
        <time>2021-01-10T11:50:12.000Z</time>
      </trkpt>
      <trkpt lat="47.19245" lon="-1.57202">
        <ele>54</ele>
        <time>2021-01-10T11:50:14.000Z</time>
      </trkpt>
      <trkpt lat="47.19248" lon="-1.57186">
        <ele>54</ele>
        <time>2021-01-10T11:50:16.000Z</time>
      </trkpt>
      <trkpt lat="47.1925" lon="-1.57168">
        <ele>54</ele>
        <time>2021-01-10T11:50:18.000Z</time>
      </trkpt>
      <trkpt lat="47.19253" lon="-1.57152">
        <ele>54</ele>
        <time>2021-01-10T11:50:20.000Z</time>
      </trkpt>
      <trkpt lat="47.19256" lon="-1.57135">
        <ele>55</ele>
        <time>2021-01-10T11:50:22.000Z</time>
      </trkpt>
      <trkpt lat="47.19258" lon="-1.57117">
        <ele>55</ele>
        <time>2021-01-10T11:50:24.000Z</time>
      </trkpt>
      <trkpt lat="47.19261" lon="-1.57098">
        <ele>55</ele>
        <time>2021-01-10T11:50:26.000Z</time>
      </trkpt>
      <trkpt lat="47.19262" lon="-1.57082">
        <ele>55</ele>
        <time>2021-01-10T11:50:28.000Z</time>
      </trkpt>
      <trkpt lat="47.19259" lon="-1.57066">
        <ele>55</ele>
        <time>2021-01-10T11:50:30.000Z</time>
      </trkpt>
      <trkpt lat="47.19257" lon="-1.5705">
        <ele>56</ele>
        <time>2021-01-10T11:50:32.000Z</time>
      </trkpt>
      <trkpt lat="47.1926" lon="-1.57032">
        <ele>56</ele>
        <time>2021-01-10T11:50:34.000Z</time>
      </trkpt>
      <trkpt lat="47.19267" lon="-1.57018">
        <ele>56</ele>
        <time>2021-01-10T11:50:36.000Z</time>
      </trkpt>
      <trkpt lat="47.19272" lon="-1.57002">
        <ele>56</ele>
        <time>2021-01-10T11:50:38.000Z</time>
      </trkpt>
      <trkpt lat="47.19274" lon="-1.56985">
        <ele>56</ele>
        <time>2021-01-10T11:50:40.000Z</time>
      </trkpt>
      <trkpt lat="47.19276" lon="-1.56968">
        <ele>56</ele>
        <time>2021-01-10T11:50:42.000Z</time>
      </trkpt>
      <trkpt lat="47.19277" lon="-1.56952">
        <ele>56</ele>
        <time>2021-01-10T11:50:44.000Z</time>
      </trkpt>
      <trkpt lat="47.19279" lon="-1.56936">
        <ele>56</ele>
        <time>2021-01-10T11:50:46.000Z</time>
      </trkpt>
      <trkpt lat="47.1928" lon="-1.5692">
        <ele>56</ele>
        <time>2021-01-10T11:50:48.000Z</time>
      </trkpt>
      <trkpt lat="47.19281" lon="-1.56902">
        <ele>56</ele>
        <time>2021-01-10T11:50:50.000Z</time>
      </trkpt>
      <trkpt lat="47.19282" lon="-1.56886">
        <ele>55</ele>
        <time>2021-01-10T11:50:52.000Z</time>
      </trkpt>
      <trkpt lat="47.19283" lon="-1.5687">
        <ele>56</ele>
        <time>2021-01-10T11:50:54.000Z</time>
      </trkpt>
      <trkpt lat="47.19284" lon="-1.56855">
        <ele>56</ele>
        <time>2021-01-10T11:50:56.000Z</time>
      </trkpt>
      <trkpt lat="47.19285" lon="-1.56841">
        <ele>57</ele>
        <time>2021-01-10T11:50:58.000Z</time>
      </trkpt>
      <trkpt lat="47.19286" lon="-1.56825">
        <ele>56</ele>
        <time>2021-01-10T11:51:00.000Z</time>
      </trkpt>
      <trkpt lat="47.19287" lon="-1.5681">
        <ele>57</ele>
        <time>2021-01-10T11:51:02.000Z</time>
      </trkpt>
      <trkpt lat="47.19288" lon="-1.56795">
        <ele>57</ele>
        <time>2021-01-10T11:51:04.000Z</time>
      </trkpt>
      <trkpt lat="47.19289" lon="-1.56781">
        <ele>57</ele>
        <time>2021-01-10T11:51:06.000Z</time>
      </trkpt>
      <trkpt lat="47.19289" lon="-1.56765">
        <ele>57</ele>
        <time>2021-01-10T11:51:08.000Z</time>
      </trkpt>
      <trkpt lat="47.19289" lon="-1.56751">
        <ele>57</ele>
        <time>2021-01-10T11:51:10.000Z</time>
      </trkpt>
      <trkpt lat="47.19288" lon="-1.56735">
        <ele>58</ele>
        <time>2021-01-10T11:51:12.000Z</time>
      </trkpt>
      <trkpt lat="47.19288" lon="-1.56718">
        <ele>57</ele>
        <time>2021-01-10T11:51:14.000Z</time>
      </trkpt>
      <trkpt lat="47.19288" lon="-1.56703">
        <ele>56</ele>
        <time>2021-01-10T11:51:16.000Z</time>
      </trkpt>
      <trkpt lat="47.19287" lon="-1.56687">
        <ele>56</ele>
        <time>2021-01-10T11:51:18.000Z</time>
      </trkpt>
      <trkpt lat="47.19287" lon="-1.5667">
        <ele>56</ele>
        <time>2021-01-10T11:51:20.000Z</time>
      </trkpt>
      <trkpt lat="47.19285" lon="-1.56654">
        <ele>56</ele>
        <time>2021-01-10T11:51:22.000Z</time>
      </trkpt>
      <trkpt lat="47.19284" lon="-1.56638">
        <ele>55</ele>
        <time>2021-01-10T11:51:24.000Z</time>
      </trkpt>
      <trkpt lat="47.19283" lon="-1.56622">
        <ele>56</ele>
        <time>2021-01-10T11:51:26.000Z</time>
      </trkpt>
      <trkpt lat="47.19281" lon="-1.56605">
        <ele>57</ele>
        <time>2021-01-10T11:51:28.000Z</time>
      </trkpt>
      <trkpt lat="47.1928" lon="-1.56589">
        <ele>57</ele>
        <time>2021-01-10T11:51:30.000Z</time>
      </trkpt>
      <trkpt lat="47.19278" lon="-1.56573">
        <ele>57</ele>
        <time>2021-01-10T11:51:32.000Z</time>
      </trkpt>
      <trkpt lat="47.19277" lon="-1.56557">
        <ele>57</ele>
        <time>2021-01-10T11:51:34.000Z</time>
      </trkpt>
      <trkpt lat="47.19276" lon="-1.56541">
        <ele>58</ele>
        <time>2021-01-10T11:51:36.000Z</time>
      </trkpt>
      <trkpt lat="47.19274" lon="-1.56524">
        <ele>57</ele>
        <time>2021-01-10T11:51:38.000Z</time>
      </trkpt>
      <trkpt lat="47.19272" lon="-1.56507">
        <ele>57</ele>
        <time>2021-01-10T11:51:40.000Z</time>
      </trkpt>
      <trkpt lat="47.1927" lon="-1.56491">
        <ele>56</ele>
        <time>2021-01-10T11:51:42.000Z</time>
      </trkpt>
      <trkpt lat="47.19269" lon="-1.56474">
        <ele>56</ele>
        <time>2021-01-10T11:51:44.000Z</time>
      </trkpt>
      <trkpt lat="47.19267" lon="-1.56458">
        <ele>56</ele>
        <time>2021-01-10T11:51:46.000Z</time>
      </trkpt>
      <trkpt lat="47.19265" lon="-1.56442">
        <ele>56</ele>
        <time>2021-01-10T11:51:48.000Z</time>
      </trkpt>
      <trkpt lat="47.19265" lon="-1.56426">
        <ele>56</ele>
        <time>2021-01-10T11:51:50.000Z</time>
      </trkpt>
      <trkpt lat="47.19264" lon="-1.5641">
        <ele>56</ele>
        <time>2021-01-10T11:51:52.000Z</time>
      </trkpt>
      <trkpt lat="47.19263" lon="-1.56393">
        <ele>56</ele>
        <time>2021-01-10T11:51:54.000Z</time>
      </trkpt>
      <trkpt lat="47.19261" lon="-1.56378">
        <ele>56</ele>
        <time>2021-01-10T11:51:56.000Z</time>
      </trkpt>
      <trkpt lat="47.19259" lon="-1.56361">
        <ele>56</ele>
        <time>2021-01-10T11:51:58.000Z</time>
      </trkpt>
      <trkpt lat="47.19255" lon="-1.56346">
        <ele>56</ele>
        <time>2021-01-10T11:52:00.000Z</time>
      </trkpt>
      <trkpt lat="47.1925" lon="-1.56331">
        <ele>56</ele>
        <time>2021-01-10T11:52:02.000Z</time>
      </trkpt>
      <trkpt lat="47.19242" lon="-1.56319">
        <ele>57</ele>
        <time>2021-01-10T11:52:04.000Z</time>
      </trkpt>
      <trkpt lat="47.19235" lon="-1.56306">
        <ele>57</ele>
        <time>2021-01-10T11:52:06.000Z</time>
      </trkpt>
      <trkpt lat="47.19233" lon="-1.5629">
        <ele>57</ele>
        <time>2021-01-10T11:52:08.000Z</time>
      </trkpt>
      <trkpt lat="47.19234" lon="-1.56274">
        <ele>57</ele>
        <time>2021-01-10T11:52:10.000Z</time>
      </trkpt>
      <trkpt lat="47.19239" lon="-1.56258">
        <ele>57</ele>
        <time>2021-01-10T11:52:12.000Z</time>
      </trkpt>
      <trkpt lat="47.19244" lon="-1.56243">
        <ele>57</ele>
        <time>2021-01-10T11:52:14.000Z</time>
      </trkpt>
      <trkpt lat="47.19244" lon="-1.56227">
        <ele>58</ele>
        <time>2021-01-10T11:52:16.000Z</time>
      </trkpt>
      <trkpt lat="47.19243" lon="-1.5621">
        <ele>57</ele>
        <time>2021-01-10T11:52:18.000Z</time>
      </trkpt>
      <trkpt lat="47.19243" lon="-1.56193">
        <ele>57</ele>
        <time>2021-01-10T11:52:20.000Z</time>
      </trkpt>
      <trkpt lat="47.19243" lon="-1.56176">
        <ele>57</ele>
        <time>2021-01-10T11:52:22.000Z</time>
      </trkpt>
      <trkpt lat="47.19243" lon="-1.56159">
        <ele>57</ele>
        <time>2021-01-10T11:52:24.000Z</time>
      </trkpt>
      <trkpt lat="47.19243" lon="-1.56142">
        <ele>57</ele>
        <time>2021-01-10T11:52:26.000Z</time>
      </trkpt>
      <trkpt lat="47.19242" lon="-1.56125">
        <ele>57</ele>
        <time>2021-01-10T11:52:28.000Z</time>
      </trkpt>
      <trkpt lat="47.19242" lon="-1.56108">
        <ele>57</ele>
        <time>2021-01-10T11:52:30.000Z</time>
      </trkpt>
      <trkpt lat="47.19241" lon="-1.56091">
        <ele>57</ele>
        <time>2021-01-10T11:52:32.000Z</time>
      </trkpt>
      <trkpt lat="47.1924" lon="-1.56074">
        <ele>56</ele>
        <time>2021-01-10T11:52:34.000Z</time>
      </trkpt>
      <trkpt lat="47.19239" lon="-1.56057">
        <ele>56</ele>
        <time>2021-01-10T11:52:36.000Z</time>
      </trkpt>
      <trkpt lat="47.19238" lon="-1.5604">
        <ele>57</ele>
        <time>2021-01-10T11:52:38.000Z</time>
      </trkpt>
      <trkpt lat="47.19237" lon="-1.56022">
        <ele>56</ele>
        <time>2021-01-10T11:52:40.000Z</time>
      </trkpt>
      <trkpt lat="47.19235" lon="-1.56006">
        <ele>56</ele>
        <time>2021-01-10T11:52:42.000Z</time>
      </trkpt>
      <trkpt lat="47.19234" lon="-1.55989">
        <ele>56</ele>
        <time>2021-01-10T11:52:44.000Z</time>
      </trkpt>
      <trkpt lat="47.19232" lon="-1.55973">
        <ele>56</ele>
        <time>2021-01-10T11:52:46.000Z</time>
      </trkpt>
      <trkpt lat="47.19229" lon="-1.55956">
        <ele>56</ele>
        <time>2021-01-10T11:52:48.000Z</time>
      </trkpt>
      <trkpt lat="47.19228" lon="-1.5594">
        <ele>56</ele>
        <time>2021-01-10T11:52:50.000Z</time>
      </trkpt>
      <trkpt lat="47.19226" lon="-1.55923">
        <ele>57</ele>
        <time>2021-01-10T11:52:52.000Z</time>
      </trkpt>
      <trkpt lat="47.19225" lon="-1.55907">
        <ele>57</ele>
        <time>2021-01-10T11:52:54.000Z</time>
      </trkpt>
      <trkpt lat="47.19223" lon="-1.55891">
        <ele>57</ele>
        <time>2021-01-10T11:52:56.000Z</time>
      </trkpt>
      <trkpt lat="47.19222" lon="-1.55875">
        <ele>57</ele>
        <time>2021-01-10T11:52:58.000Z</time>
      </trkpt>
      <trkpt lat="47.19221" lon="-1.55858">
        <ele>57</ele>
        <time>2021-01-10T11:53:00.000Z</time>
      </trkpt>
      <trkpt lat="47.1922" lon="-1.55843">
        <ele>56</ele>
        <time>2021-01-10T11:53:02.000Z</time>
      </trkpt>
      <trkpt lat="47.19219" lon="-1.55827">
        <ele>56</ele>
        <time>2021-01-10T11:53:04.000Z</time>
      </trkpt>
      <trkpt lat="47.19219" lon="-1.5581">
        <ele>56</ele>
        <time>2021-01-10T11:53:06.000Z</time>
      </trkpt>
      <trkpt lat="47.19218" lon="-1.55795">
        <ele>57</ele>
        <time>2021-01-10T11:53:08.000Z</time>
      </trkpt>
      <trkpt lat="47.19217" lon="-1.55779">
        <ele>57</ele>
        <time>2021-01-10T11:53:10.000Z</time>
      </trkpt>
      <trkpt lat="47.19216" lon="-1.55763">
        <ele>57</ele>
        <time>2021-01-10T11:53:12.000Z</time>
      </trkpt>
      <trkpt lat="47.19216" lon="-1.55745">
        <ele>58</ele>
        <time>2021-01-10T11:53:14.000Z</time>
      </trkpt>
      <trkpt lat="47.19217" lon="-1.55729">
        <ele>57</ele>
        <time>2021-01-10T11:53:16.000Z</time>
      </trkpt>
      <trkpt lat="47.19218" lon="-1.55713">
        <ele>57</ele>
        <time>2021-01-10T11:53:18.000Z</time>
      </trkpt>
      <trkpt lat="47.19218" lon="-1.55696">
        <ele>57</ele>
        <time>2021-01-10T11:53:20.000Z</time>
      </trkpt>
      <trkpt lat="47.19219" lon="-1.55679">
        <ele>56</ele>
        <time>2021-01-10T11:53:22.000Z</time>
      </trkpt>
      <trkpt lat="47.19219" lon="-1.55663">
        <ele>57</ele>
        <time>2021-01-10T11:53:24.000Z</time>
      </trkpt>
      <trkpt lat="47.19219" lon="-1.55647">
        <ele>56</ele>
        <time>2021-01-10T11:53:26.000Z</time>
      </trkpt>
      <trkpt lat="47.1922" lon="-1.55631">
        <ele>57</ele>
        <time>2021-01-10T11:53:28.000Z</time>
      </trkpt>
      <trkpt lat="47.19222" lon="-1.55614">
        <ele>56</ele>
        <time>2021-01-10T11:53:30.000Z</time>
      </trkpt>
      <trkpt lat="47.19223" lon="-1.55598">
        <ele>56</ele>
        <time>2021-01-10T11:53:32.000Z</time>
      </trkpt>
      <trkpt lat="47.19224" lon="-1.55581">
        <ele>56</ele>
        <time>2021-01-10T11:53:34.000Z</time>
      </trkpt>
      <trkpt lat="47.19226" lon="-1.55564">
        <ele>56</ele>
        <time>2021-01-10T11:53:36.000Z</time>
      </trkpt>
      <trkpt lat="47.19228" lon="-1.55547">
        <ele>56</ele>
        <time>2021-01-10T11:53:38.000Z</time>
      </trkpt>
      <trkpt lat="47.1923" lon="-1.55531">
        <ele>56</ele>
        <time>2021-01-10T11:53:40.000Z</time>
      </trkpt>
      <trkpt lat="47.1923" lon="-1.55515">
        <ele>56</ele>
        <time>2021-01-10T11:53:42.000Z</time>
      </trkpt>
      <trkpt lat="47.19231" lon="-1.55499">
        <ele>56</ele>
        <time>2021-01-10T11:53:44.000Z</time>
      </trkpt>
      <trkpt lat="47.19231" lon="-1.55484">
        <ele>56</ele>
        <time>2021-01-10T11:53:46.000Z</time>
      </trkpt>
      <trkpt lat="47.19229" lon="-1.55468">
        <ele>56</ele>
        <time>2021-01-10T11:53:49.000Z</time>
      </trkpt>
      <trkpt lat="47.19222" lon="-1.55459">
        <ele>55</ele>
        <time>2021-01-10T11:53:51.000Z</time>
      </trkpt>
      <trkpt lat="47.19215" lon="-1.55446">
        <ele>56</ele>
        <time>2021-01-10T11:53:53.000Z</time>
      </trkpt>
      <trkpt lat="47.19213" lon="-1.5543">
        <ele>56</ele>
        <time>2021-01-10T11:53:55.000Z</time>
      </trkpt>
      <trkpt lat="47.19219" lon="-1.55414">
        <ele>56</ele>
        <time>2021-01-10T11:53:57.000Z</time>
      </trkpt>
      <trkpt lat="47.19229" lon="-1.55402">
        <ele>56</ele>
        <time>2021-01-10T11:53:59.000Z</time>
      </trkpt>
      <trkpt lat="47.19237" lon="-1.5539">
        <ele>57</ele>
        <time>2021-01-10T11:54:01.000Z</time>
      </trkpt>
      <trkpt lat="47.19242" lon="-1.55376">
        <ele>57</ele>
        <time>2021-01-10T11:54:03.000Z</time>
      </trkpt>
      <trkpt lat="47.19247" lon="-1.55361">
        <ele>57</ele>
        <time>2021-01-10T11:54:05.000Z</time>
      </trkpt>
      <trkpt lat="47.19252" lon="-1.55346">
        <ele>58</ele>
        <time>2021-01-10T11:54:07.000Z</time>
      </trkpt>
      <trkpt lat="47.19256" lon="-1.5533">
        <ele>58</ele>
        <time>2021-01-10T11:54:09.000Z</time>
      </trkpt>
      <trkpt lat="47.1926" lon="-1.55315">
        <ele>58</ele>
        <time>2021-01-10T11:54:11.000Z</time>
      </trkpt>
      <trkpt lat="47.19264" lon="-1.55299">
        <ele>58</ele>
        <time>2021-01-10T11:54:13.000Z</time>
      </trkpt>
      <trkpt lat="47.19266" lon="-1.55283">
        <ele>58</ele>
        <time>2021-01-10T11:54:15.000Z</time>
      </trkpt>
      <trkpt lat="47.19269" lon="-1.55266">
        <ele>58</ele>
        <time>2021-01-10T11:54:17.000Z</time>
      </trkpt>
      <trkpt lat="47.19273" lon="-1.55251">
        <ele>58</ele>
        <time>2021-01-10T11:54:19.000Z</time>
      </trkpt>
      <trkpt lat="47.19276" lon="-1.55235">
        <ele>58</ele>
        <time>2021-01-10T11:54:21.000Z</time>
      </trkpt>
      <trkpt lat="47.1928" lon="-1.5522">
        <ele>58</ele>
        <time>2021-01-10T11:54:23.000Z</time>
      </trkpt>
      <trkpt lat="47.19285" lon="-1.55205">
        <ele>58</ele>
        <time>2021-01-10T11:54:25.000Z</time>
      </trkpt>
      <trkpt lat="47.19288" lon="-1.55189">
        <ele>58</ele>
        <time>2021-01-10T11:54:27.000Z</time>
      </trkpt>
      <trkpt lat="47.19293" lon="-1.55174">
        <ele>58</ele>
        <time>2021-01-10T11:54:29.000Z</time>
      </trkpt>
      <trkpt lat="47.19296" lon="-1.55159">
        <ele>58</ele>
        <time>2021-01-10T11:54:31.000Z</time>
      </trkpt>
      <trkpt lat="47.193" lon="-1.55144">
        <ele>58</ele>
        <time>2021-01-10T11:54:33.000Z</time>
      </trkpt>
      <trkpt lat="47.19304" lon="-1.55129">
        <ele>59</ele>
        <time>2021-01-10T11:54:35.000Z</time>
      </trkpt>
      <trkpt lat="47.19308" lon="-1.55115">
        <ele>59</ele>
        <time>2021-01-10T11:54:37.000Z</time>
      </trkpt>
      <trkpt lat="47.19312" lon="-1.551">
        <ele>60</ele>
        <time>2021-01-10T11:54:39.000Z</time>
      </trkpt>
      <trkpt lat="47.19316" lon="-1.55086">
        <ele>60</ele>
        <time>2021-01-10T11:54:41.000Z</time>
      </trkpt>
      <trkpt lat="47.19319" lon="-1.55072">
        <ele>61</ele>
        <time>2021-01-10T11:54:43.000Z</time>
      </trkpt>
      <trkpt lat="47.19322" lon="-1.55057">
        <ele>61</ele>
        <time>2021-01-10T11:54:45.000Z</time>
      </trkpt>
      <trkpt lat="47.19326" lon="-1.55042">
        <ele>61</ele>
        <time>2021-01-10T11:54:47.000Z</time>
      </trkpt>
      <trkpt lat="47.1933" lon="-1.55028">
        <ele>62</ele>
        <time>2021-01-10T11:54:49.000Z</time>
      </trkpt>
      <trkpt lat="47.19335" lon="-1.55013">
        <ele>62</ele>
        <time>2021-01-10T11:54:51.000Z</time>
      </trkpt>
      <trkpt lat="47.19338" lon="-1.54998">
        <ele>62</ele>
        <time>2021-01-10T11:54:53.000Z</time>
      </trkpt>
      <trkpt lat="47.19342" lon="-1.54983">
        <ele>62</ele>
        <time>2021-01-10T11:54:55.000Z</time>
      </trkpt>
      <trkpt lat="47.19346" lon="-1.54968">
        <ele>63</ele>
        <time>2021-01-10T11:54:57.000Z</time>
      </trkpt>
      <trkpt lat="47.1935" lon="-1.54955">
        <ele>63</ele>
        <time>2021-01-10T11:54:59.000Z</time>
      </trkpt>
      <trkpt lat="47.19353" lon="-1.54941">
        <ele>63</ele>
        <time>2021-01-10T11:55:01.000Z</time>
      </trkpt>
      <trkpt lat="47.19356" lon="-1.54928">
        <ele>63</ele>
        <time>2021-01-10T11:55:03.000Z</time>
      </trkpt>
      <trkpt lat="47.19359" lon="-1.54914">
        <ele>63</ele>
        <time>2021-01-10T11:55:05.000Z</time>
      </trkpt>
      <trkpt lat="47.19363" lon="-1.54901">
        <ele>63</ele>
        <time>2021-01-10T11:55:07.000Z</time>
      </trkpt>
      <trkpt lat="47.19366" lon="-1.54887">
        <ele>63</ele>
        <time>2021-01-10T11:55:09.000Z</time>
      </trkpt>
      <trkpt lat="47.19368" lon="-1.5487">
        <ele>63</ele>
        <time>2021-01-10T11:55:11.000Z</time>
      </trkpt>
      <trkpt lat="47.19372" lon="-1.54855">
        <ele>63</ele>
        <time>2021-01-10T11:55:13.000Z</time>
      </trkpt>
      <trkpt lat="47.19375" lon="-1.5484">
        <ele>62</ele>
        <time>2021-01-10T11:55:15.000Z</time>
      </trkpt>
      <trkpt lat="47.1938" lon="-1.54825">
        <ele>62</ele>
        <time>2021-01-10T11:55:17.000Z</time>
      </trkpt>
      <trkpt lat="47.19385" lon="-1.54808">
        <ele>62</ele>
        <time>2021-01-10T11:55:19.000Z</time>
      </trkpt>
      <trkpt lat="47.19389" lon="-1.54791">
        <ele>61</ele>
        <time>2021-01-10T11:55:21.000Z</time>
      </trkpt>
      <trkpt lat="47.19393" lon="-1.54773">
        <ele>61</ele>
        <time>2021-01-10T11:55:23.000Z</time>
      </trkpt>
      <trkpt lat="47.19397" lon="-1.54756">
        <ele>61</ele>
        <time>2021-01-10T11:55:25.000Z</time>
      </trkpt>
      <trkpt lat="47.19401" lon="-1.5474">
        <ele>61</ele>
        <time>2021-01-10T11:55:27.000Z</time>
      </trkpt>
      <trkpt lat="47.19404" lon="-1.54724">
        <ele>60</ele>
        <time>2021-01-10T11:55:29.000Z</time>
      </trkpt>
      <trkpt lat="47.19408" lon="-1.54706">
        <ele>60</ele>
        <time>2021-01-10T11:55:31.000Z</time>
      </trkpt>
      <trkpt lat="47.19411" lon="-1.54689">
        <ele>59</ele>
        <time>2021-01-10T11:55:33.000Z</time>
      </trkpt>
      <trkpt lat="47.19417" lon="-1.54673">
        <ele>58</ele>
        <time>2021-01-10T11:55:35.000Z</time>
      </trkpt>
      <trkpt lat="47.19423" lon="-1.54656">
        <ele>59</ele>
        <time>2021-01-10T11:55:37.000Z</time>
      </trkpt>
      <trkpt lat="47.19427" lon="-1.54642">
        <ele>59</ele>
        <time>2021-01-10T11:55:39.000Z</time>
      </trkpt>
      <trkpt lat="47.1943" lon="-1.54627">
        <ele>59</ele>
        <time>2021-01-10T11:55:42.000Z</time>
      </trkpt>
      <trkpt lat="47.19426" lon="-1.5461">
        <ele>58</ele>
        <time>2021-01-10T11:55:47.000Z</time>
      </trkpt>
      <trkpt lat="47.1942" lon="-1.54597">
        <ele>58</ele>
        <time>2021-01-10T11:55:49.000Z</time>
      </trkpt>
      <trkpt lat="47.19422" lon="-1.54581">
        <ele>58</ele>
        <time>2021-01-10T11:55:51.000Z</time>
      </trkpt>
      <trkpt lat="47.19428" lon="-1.54565">
        <ele>58</ele>
        <time>2021-01-10T11:55:53.000Z</time>
      </trkpt>
      <trkpt lat="47.19437" lon="-1.54555">
        <ele>58</ele>
        <time>2021-01-10T11:55:55.000Z</time>
      </trkpt>
      <trkpt lat="47.19447" lon="-1.54547">
        <ele>58</ele>
        <time>2021-01-10T11:55:57.000Z</time>
      </trkpt>
      <trkpt lat="47.19453" lon="-1.54532">
        <ele>57</ele>
        <time>2021-01-10T11:55:59.000Z</time>
      </trkpt>
      <trkpt lat="47.19459" lon="-1.54517">
        <ele>57</ele>
        <time>2021-01-10T11:56:01.000Z</time>
      </trkpt>
      <trkpt lat="47.19464" lon="-1.54502">
        <ele>57</ele>
        <time>2021-01-10T11:56:03.000Z</time>
      </trkpt>
      <trkpt lat="47.19468" lon="-1.54487">
        <ele>57</ele>
        <time>2021-01-10T11:56:05.000Z</time>
      </trkpt>
      <trkpt lat="47.19473" lon="-1.54473">
        <ele>57</ele>
        <time>2021-01-10T11:56:07.000Z</time>
      </trkpt>
      <trkpt lat="47.1948" lon="-1.54461">
        <ele>57</ele>
        <time>2021-01-10T11:56:09.000Z</time>
      </trkpt>
      <trkpt lat="47.19491" lon="-1.54453">
        <ele>58</ele>
        <time>2021-01-10T11:56:11.000Z</time>
      </trkpt>
      <trkpt lat="47.19501" lon="-1.54445">
        <ele>58</ele>
        <time>2021-01-10T11:56:13.000Z</time>
      </trkpt>
      <trkpt lat="47.19511" lon="-1.54438">
        <ele>57</ele>
        <time>2021-01-10T11:56:15.000Z</time>
      </trkpt>
      <trkpt lat="47.19521" lon="-1.5443">
        <ele>57</ele>
        <time>2021-01-10T11:56:17.000Z</time>
      </trkpt>
      <trkpt lat="47.1953" lon="-1.54423">
        <ele>57</ele>
        <time>2021-01-10T11:56:19.000Z</time>
      </trkpt>
      <trkpt lat="47.19539" lon="-1.54416">
        <ele>57</ele>
        <time>2021-01-10T11:56:21.000Z</time>
      </trkpt>
      <trkpt lat="47.19549" lon="-1.54409">
        <ele>57</ele>
        <time>2021-01-10T11:56:23.000Z</time>
      </trkpt>
      <trkpt lat="47.19558" lon="-1.54401">
        <ele>57</ele>
        <time>2021-01-10T11:56:25.000Z</time>
      </trkpt>
      <trkpt lat="47.19568" lon="-1.54393">
        <ele>57</ele>
        <time>2021-01-10T11:56:27.000Z</time>
      </trkpt>
      <trkpt lat="47.19577" lon="-1.54385">
        <ele>56</ele>
        <time>2021-01-10T11:56:29.000Z</time>
      </trkpt>
      <trkpt lat="47.19587" lon="-1.54378">
        <ele>57</ele>
        <time>2021-01-10T11:56:31.000Z</time>
      </trkpt>
      <trkpt lat="47.19597" lon="-1.54369">
        <ele>57</ele>
        <time>2021-01-10T11:56:33.000Z</time>
      </trkpt>
      <trkpt lat="47.19607" lon="-1.54359">
        <ele>57</ele>
        <time>2021-01-10T11:56:35.000Z</time>
      </trkpt>
      <trkpt lat="47.19615" lon="-1.54348">
        <ele>57</ele>
        <time>2021-01-10T11:56:37.000Z</time>
      </trkpt>
      <trkpt lat="47.19624" lon="-1.54337">
        <ele>57</ele>
        <time>2021-01-10T11:56:39.000Z</time>
      </trkpt>
      <trkpt lat="47.19632" lon="-1.54325">
        <ele>57</ele>
        <time>2021-01-10T11:56:41.000Z</time>
      </trkpt>
      <trkpt lat="47.1964" lon="-1.54314">
        <ele>57</ele>
        <time>2021-01-10T11:56:43.000Z</time>
      </trkpt>
      <trkpt lat="47.19648" lon="-1.54304">
        <ele>58</ele>
        <time>2021-01-10T11:56:45.000Z</time>
      </trkpt>
      <trkpt lat="47.19658" lon="-1.54296">
        <ele>59</ele>
        <time>2021-01-10T11:56:47.000Z</time>
      </trkpt>
      <trkpt lat="47.19668" lon="-1.54289">
        <ele>58</ele>
        <time>2021-01-10T11:56:49.000Z</time>
      </trkpt>
      <trkpt lat="47.19678" lon="-1.54281">
        <ele>57</ele>
        <time>2021-01-10T11:56:51.000Z</time>
      </trkpt>
      <trkpt lat="47.19689" lon="-1.54273">
        <ele>57</ele>
        <time>2021-01-10T11:56:53.000Z</time>
      </trkpt>
      <trkpt lat="47.19699" lon="-1.54266">
        <ele>57</ele>
        <time>2021-01-10T11:56:55.000Z</time>
      </trkpt>
      <trkpt lat="47.19709" lon="-1.5426">
        <ele>57</ele>
        <time>2021-01-10T11:56:57.000Z</time>
      </trkpt>
      <trkpt lat="47.19718" lon="-1.54253">
        <ele>56</ele>
        <time>2021-01-10T11:56:59.000Z</time>
      </trkpt>
      <trkpt lat="47.19727" lon="-1.54246">
        <ele>56</ele>
        <time>2021-01-10T11:57:01.000Z</time>
      </trkpt>
      <trkpt lat="47.19737" lon="-1.54239">
        <ele>56</ele>
        <time>2021-01-10T11:57:03.000Z</time>
      </trkpt>
      <trkpt lat="47.19746" lon="-1.5423">
        <ele>57</ele>
        <time>2021-01-10T11:57:05.000Z</time>
      </trkpt>
      <trkpt lat="47.19756" lon="-1.5422">
        <ele>57</ele>
        <time>2021-01-10T11:57:07.000Z</time>
      </trkpt>
      <trkpt lat="47.19769" lon="-1.54217">
        <ele>57</ele>
        <time>2021-01-10T11:57:09.000Z</time>
      </trkpt>
      <trkpt lat="47.19782" lon="-1.54223">
        <ele>58</ele>
        <time>2021-01-10T11:57:11.000Z</time>
      </trkpt>
      <trkpt lat="47.19795" lon="-1.54233">
        <ele>59</ele>
        <time>2021-01-10T11:57:13.000Z</time>
      </trkpt>
      <trkpt lat="47.19806" lon="-1.54244">
        <ele>60</ele>
        <time>2021-01-10T11:57:15.000Z</time>
      </trkpt>
      <trkpt lat="47.19819" lon="-1.54255">
        <ele>61</ele>
        <time>2021-01-10T11:57:17.000Z</time>
      </trkpt>
      <trkpt lat="47.19833" lon="-1.54264">
        <ele>62</ele>
        <time>2021-01-10T11:57:19.000Z</time>
      </trkpt>
      <trkpt lat="47.19846" lon="-1.54273">
        <ele>63</ele>
        <time>2021-01-10T11:57:21.000Z</time>
      </trkpt>
      <trkpt lat="47.19859" lon="-1.54281">
        <ele>64</ele>
        <time>2021-01-10T11:57:23.000Z</time>
      </trkpt>
      <trkpt lat="47.19871" lon="-1.54289">
        <ele>64</ele>
        <time>2021-01-10T11:57:25.000Z</time>
      </trkpt>
      <trkpt lat="47.19883" lon="-1.54298">
        <ele>64</ele>
        <time>2021-01-10T11:57:27.000Z</time>
      </trkpt>
      <trkpt lat="47.19894" lon="-1.54306">
        <ele>65</ele>
        <time>2021-01-10T11:57:29.000Z</time>
      </trkpt>
      <trkpt lat="47.19906" lon="-1.54314">
        <ele>65</ele>
        <time>2021-01-10T11:57:31.000Z</time>
      </trkpt>
      <trkpt lat="47.19917" lon="-1.54321">
        <ele>65</ele>
        <time>2021-01-10T11:57:33.000Z</time>
      </trkpt>
      <trkpt lat="47.19928" lon="-1.54329">
        <ele>65</ele>
        <time>2021-01-10T11:57:35.000Z</time>
      </trkpt>
      <trkpt lat="47.1994" lon="-1.54337">
        <ele>64</ele>
        <time>2021-01-10T11:57:37.000Z</time>
      </trkpt>
      <trkpt lat="47.19951" lon="-1.54345">
        <ele>63</ele>
        <time>2021-01-10T11:57:39.000Z</time>
      </trkpt>
      <trkpt lat="47.19962" lon="-1.54353">
        <ele>63</ele>
        <time>2021-01-10T11:57:41.000Z</time>
      </trkpt>
      <trkpt lat="47.19973" lon="-1.54361">
        <ele>62</ele>
        <time>2021-01-10T11:57:43.000Z</time>
      </trkpt>
      <trkpt lat="47.19983" lon="-1.54367">
        <ele>62</ele>
        <time>2021-01-10T11:57:45.000Z</time>
      </trkpt>
      <trkpt lat="47.19994" lon="-1.54374">
        <ele>62</ele>
        <time>2021-01-10T11:57:47.000Z</time>
      </trkpt>
      <trkpt lat="47.20004" lon="-1.54381">
        <ele>62</ele>
        <time>2021-01-10T11:57:49.000Z</time>
      </trkpt>
      <trkpt lat="47.20013" lon="-1.54386">
        <ele>62</ele>
        <time>2021-01-10T11:57:52.000Z</time>
      </trkpt>
      <trkpt lat="47.20021" lon="-1.5438">
        <ele>62</ele>
        <time>2021-01-10T11:57:56.000Z</time>
      </trkpt>
      <trkpt lat="47.20027" lon="-1.54369">
        <ele>62</ele>
        <time>2021-01-10T11:58:00.000Z</time>
      </trkpt>
      <trkpt lat="47.20031" lon="-1.54352">
        <ele>61</ele>
        <time>2021-01-10T11:58:03.000Z</time>
      </trkpt>
      <trkpt lat="47.20039" lon="-1.54338">
        <ele>60</ele>
        <time>2021-01-10T11:58:05.000Z</time>
      </trkpt>
      <trkpt lat="47.20048" lon="-1.54328">
        <ele>59</ele>
        <time>2021-01-10T11:58:07.000Z</time>
      </trkpt>
      <trkpt lat="47.20048" lon="-1.54314">
        <ele>58</ele>
        <time>2021-01-10T11:58:09.000Z</time>
      </trkpt>
      <trkpt lat="47.20048" lon="-1.54299">
        <ele>59</ele>
        <time>2021-01-10T11:58:11.000Z</time>
      </trkpt>
      <trkpt lat="47.20051" lon="-1.54283">
        <ele>58</ele>
        <time>2021-01-10T11:58:13.000Z</time>
      </trkpt>
      <trkpt lat="47.20057" lon="-1.54266">
        <ele>58</ele>
        <time>2021-01-10T11:58:15.000Z</time>
      </trkpt>
      <trkpt lat="47.20062" lon="-1.54248">
        <ele>59</ele>
        <time>2021-01-10T11:58:17.000Z</time>
      </trkpt>
      <trkpt lat="47.20068" lon="-1.54232">
        <ele>59</ele>
        <time>2021-01-10T11:58:19.000Z</time>
      </trkpt>
      <trkpt lat="47.20073" lon="-1.54215">
        <ele>59</ele>
        <time>2021-01-10T11:58:21.000Z</time>
      </trkpt>
      <trkpt lat="47.20078" lon="-1.54198">
        <ele>59</ele>
        <time>2021-01-10T11:58:23.000Z</time>
      </trkpt>
      <trkpt lat="47.20083" lon="-1.54183">
        <ele>60</ele>
        <time>2021-01-10T11:58:25.000Z</time>
      </trkpt>
      <trkpt lat="47.20088" lon="-1.54168">
        <ele>60</ele>
        <time>2021-01-10T11:58:27.000Z</time>
      </trkpt>
      <trkpt lat="47.20093" lon="-1.54151">
        <ele>61</ele>
        <time>2021-01-10T11:58:29.000Z</time>
      </trkpt>
      <trkpt lat="47.20099" lon="-1.54134">
        <ele>60</ele>
        <time>2021-01-10T11:58:31.000Z</time>
      </trkpt>
      <trkpt lat="47.20104" lon="-1.54118">
        <ele>60</ele>
        <time>2021-01-10T11:58:33.000Z</time>
      </trkpt>
      <trkpt lat="47.2011" lon="-1.54101">
        <ele>59</ele>
        <time>2021-01-10T11:58:35.000Z</time>
      </trkpt>
      <trkpt lat="47.20116" lon="-1.54083">
        <ele>60</ele>
        <time>2021-01-10T11:58:37.000Z</time>
      </trkpt>
      <trkpt lat="47.20121" lon="-1.54065">
        <ele>59</ele>
        <time>2021-01-10T11:58:39.000Z</time>
      </trkpt>
      <trkpt lat="47.20126" lon="-1.54049">
        <ele>59</ele>
        <time>2021-01-10T11:58:41.000Z</time>
      </trkpt>
      <trkpt lat="47.20132" lon="-1.54033">
        <ele>59</ele>
        <time>2021-01-10T11:58:43.000Z</time>
      </trkpt>
      <trkpt lat="47.20137" lon="-1.54017">
        <ele>59</ele>
        <time>2021-01-10T11:58:45.000Z</time>
      </trkpt>
      <trkpt lat="47.20143" lon="-1.54001">
        <ele>58</ele>
        <time>2021-01-10T11:58:47.000Z</time>
      </trkpt>
      <trkpt lat="47.20149" lon="-1.53985">
        <ele>58</ele>
        <time>2021-01-10T11:58:49.000Z</time>
      </trkpt>
      <trkpt lat="47.20154" lon="-1.5397">
        <ele>58</ele>
        <time>2021-01-10T11:58:51.000Z</time>
      </trkpt>
      <trkpt lat="47.20161" lon="-1.53954">
        <ele>57</ele>
        <time>2021-01-10T11:58:53.000Z</time>
      </trkpt>
      <trkpt lat="47.20166" lon="-1.53938">
        <ele>57</ele>
        <time>2021-01-10T11:58:55.000Z</time>
      </trkpt>
      <trkpt lat="47.20171" lon="-1.53923">
        <ele>57</ele>
        <time>2021-01-10T11:58:57.000Z</time>
      </trkpt>
      <trkpt lat="47.20176" lon="-1.53907">
        <ele>56</ele>
        <time>2021-01-10T11:58:59.000Z</time>
      </trkpt>
      <trkpt lat="47.20181" lon="-1.53892">
        <ele>57</ele>
        <time>2021-01-10T11:59:01.000Z</time>
      </trkpt>
      <trkpt lat="47.20187" lon="-1.53877">
        <ele>57</ele>
        <time>2021-01-10T11:59:03.000Z</time>
      </trkpt>
      <trkpt lat="47.20193" lon="-1.53861">
        <ele>57</ele>
        <time>2021-01-10T11:59:05.000Z</time>
      </trkpt>
      <trkpt lat="47.20199" lon="-1.53845">
        <ele>57</ele>
        <time>2021-01-10T11:59:07.000Z</time>
      </trkpt>
      <trkpt lat="47.20204" lon="-1.5383">
        <ele>58</ele>
        <time>2021-01-10T11:59:09.000Z</time>
      </trkpt>
      <trkpt lat="47.2021" lon="-1.53814">
        <ele>57</ele>
        <time>2021-01-10T11:59:11.000Z</time>
      </trkpt>
      <trkpt lat="47.20215" lon="-1.53799">
        <ele>57</ele>
        <time>2021-01-10T11:59:13.000Z</time>
      </trkpt>
      <trkpt lat="47.2022" lon="-1.53784">
        <ele>57</ele>
        <time>2021-01-10T11:59:15.000Z</time>
      </trkpt>
      <trkpt lat="47.20225" lon="-1.53769">
        <ele>57</ele>
        <time>2021-01-10T11:59:17.000Z</time>
      </trkpt>
      <trkpt lat="47.20231" lon="-1.53754">
        <ele>57</ele>
        <time>2021-01-10T11:59:19.000Z</time>
      </trkpt>
      <trkpt lat="47.20238" lon="-1.53738">
        <ele>57</ele>
        <time>2021-01-10T11:59:21.000Z</time>
      </trkpt>
      <trkpt lat="47.20244" lon="-1.53723">
        <ele>57</ele>
        <time>2021-01-10T11:59:23.000Z</time>
      </trkpt>
      <trkpt lat="47.20249" lon="-1.53707">
        <ele>56</ele>
        <time>2021-01-10T11:59:25.000Z</time>
      </trkpt>
      <trkpt lat="47.20257" lon="-1.53692">
        <ele>56</ele>
        <time>2021-01-10T11:59:27.000Z</time>
      </trkpt>
      <trkpt lat="47.20263" lon="-1.53675">
        <ele>57</ele>
        <time>2021-01-10T11:59:29.000Z</time>
      </trkpt>
      <trkpt lat="47.20269" lon="-1.53659">
        <ele>57</ele>
        <time>2021-01-10T11:59:31.000Z</time>
      </trkpt>
      <trkpt lat="47.20275" lon="-1.53644">
        <ele>56</ele>
        <time>2021-01-10T11:59:33.000Z</time>
      </trkpt>
      <trkpt lat="47.20281" lon="-1.53627">
        <ele>56</ele>
        <time>2021-01-10T11:59:35.000Z</time>
      </trkpt>
      <trkpt lat="47.20286" lon="-1.53613">
        <ele>56</ele>
        <time>2021-01-10T11:59:37.000Z</time>
      </trkpt>
      <trkpt lat="47.20293" lon="-1.53597">
        <ele>56</ele>
        <time>2021-01-10T11:59:39.000Z</time>
      </trkpt>
      <trkpt lat="47.203" lon="-1.53581">
        <ele>56</ele>
        <time>2021-01-10T11:59:41.000Z</time>
      </trkpt>
      <trkpt lat="47.20306" lon="-1.53564">
        <ele>55</ele>
        <time>2021-01-10T11:59:43.000Z</time>
      </trkpt>
      <trkpt lat="47.20313" lon="-1.53547">
        <ele>55</ele>
        <time>2021-01-10T11:59:45.000Z</time>
      </trkpt>
      <trkpt lat="47.2032" lon="-1.5353">
        <ele>55</ele>
        <time>2021-01-10T11:59:47.000Z</time>
      </trkpt>
      <trkpt lat="47.20327" lon="-1.53513">
        <ele>55</ele>
        <time>2021-01-10T11:59:49.000Z</time>
      </trkpt>
      <trkpt lat="47.20334" lon="-1.53497">
        <ele>55</ele>
        <time>2021-01-10T11:59:51.000Z</time>
      </trkpt>
      <trkpt lat="47.2034" lon="-1.53482">
        <ele>54</ele>
        <time>2021-01-10T11:59:53.000Z</time>
      </trkpt>
      <trkpt lat="47.20347" lon="-1.53465">
        <ele>55</ele>
        <time>2021-01-10T11:59:55.000Z</time>
      </trkpt>
      <trkpt lat="47.20352" lon="-1.53449">
        <ele>55</ele>
        <time>2021-01-10T11:59:57.000Z</time>
      </trkpt>
      <trkpt lat="47.20359" lon="-1.53433">
        <ele>55</ele>
        <time>2021-01-10T11:59:59.000Z</time>
      </trkpt>
      <trkpt lat="47.20365" lon="-1.53416">
        <ele>56</ele>
        <time>2021-01-10T12:00:01.000Z</time>
      </trkpt>
      <trkpt lat="47.20371" lon="-1.53399">
        <ele>56</ele>
        <time>2021-01-10T12:00:03.000Z</time>
      </trkpt>
      <trkpt lat="47.20378" lon="-1.53383">
        <ele>55</ele>
        <time>2021-01-10T12:00:05.000Z</time>
      </trkpt>
      <trkpt lat="47.20385" lon="-1.53366">
        <ele>55</ele>
        <time>2021-01-10T12:00:07.000Z</time>
      </trkpt>
      <trkpt lat="47.20391" lon="-1.5335">
        <ele>55</ele>
        <time>2021-01-10T12:00:09.000Z</time>
      </trkpt>
      <trkpt lat="47.20397" lon="-1.53335">
        <ele>56</ele>
        <time>2021-01-10T12:00:11.000Z</time>
      </trkpt>
      <trkpt lat="47.20403" lon="-1.53319">
        <ele>56</ele>
        <time>2021-01-10T12:00:13.000Z</time>
      </trkpt>
      <trkpt lat="47.20409" lon="-1.53303">
        <ele>56</ele>
        <time>2021-01-10T12:00:15.000Z</time>
      </trkpt>
      <trkpt lat="47.20416" lon="-1.53287">
        <ele>55</ele>
        <time>2021-01-10T12:00:17.000Z</time>
      </trkpt>
      <trkpt lat="47.20422" lon="-1.53272">
        <ele>55</ele>
        <time>2021-01-10T12:00:19.000Z</time>
      </trkpt>
      <trkpt lat="47.20428" lon="-1.53256">
        <ele>55</ele>
        <time>2021-01-10T12:00:21.000Z</time>
      </trkpt>
      <trkpt lat="47.20434" lon="-1.5324">
        <ele>55</ele>
        <time>2021-01-10T12:00:23.000Z</time>
      </trkpt>
      <trkpt lat="47.20441" lon="-1.53224">
        <ele>55</ele>
        <time>2021-01-10T12:00:25.000Z</time>
      </trkpt>
      <trkpt lat="47.20446" lon="-1.53208">
        <ele>55</ele>
        <time>2021-01-10T12:00:27.000Z</time>
      </trkpt>
      <trkpt lat="47.20451" lon="-1.53193">
        <ele>55</ele>
        <time>2021-01-10T12:00:29.000Z</time>
      </trkpt>
      <trkpt lat="47.20457" lon="-1.53178">
        <ele>55</ele>
        <time>2021-01-10T12:00:31.000Z</time>
      </trkpt>
      <trkpt lat="47.20463" lon="-1.53163">
        <ele>55</ele>
        <time>2021-01-10T12:00:33.000Z</time>
      </trkpt>
      <trkpt lat="47.20469" lon="-1.53147">
        <ele>55</ele>
        <time>2021-01-10T12:00:35.000Z</time>
      </trkpt>
      <trkpt lat="47.20475" lon="-1.53131">
        <ele>55</ele>
        <time>2021-01-10T12:00:37.000Z</time>
      </trkpt>
      <trkpt lat="47.20481" lon="-1.53115">
        <ele>55</ele>
        <time>2021-01-10T12:00:39.000Z</time>
      </trkpt>
      <trkpt lat="47.20488" lon="-1.53099">
        <ele>55</ele>
        <time>2021-01-10T12:00:41.000Z</time>
      </trkpt>
      <trkpt lat="47.20494" lon="-1.53083">
        <ele>55</ele>
        <time>2021-01-10T12:00:43.000Z</time>
      </trkpt>
      <trkpt lat="47.20501" lon="-1.53068">
        <ele>55</ele>
        <time>2021-01-10T12:00:45.000Z</time>
      </trkpt>
      <trkpt lat="47.20507" lon="-1.53052">
        <ele>54</ele>
        <time>2021-01-10T12:00:47.000Z</time>
      </trkpt>
      <trkpt lat="47.20513" lon="-1.53038">
        <ele>55</ele>
        <time>2021-01-10T12:00:49.000Z</time>
      </trkpt>
      <trkpt lat="47.2052" lon="-1.53023">
        <ele>55</ele>
        <time>2021-01-10T12:00:51.000Z</time>
      </trkpt>
      <trkpt lat="47.20526" lon="-1.5301">
        <ele>54</ele>
        <time>2021-01-10T12:00:53.000Z</time>
      </trkpt>
      <trkpt lat="47.20532" lon="-1.52995">
        <ele>55</ele>
        <time>2021-01-10T12:00:55.000Z</time>
      </trkpt>
      <trkpt lat="47.20539" lon="-1.5298">
        <ele>55</ele>
        <time>2021-01-10T12:00:57.000Z</time>
      </trkpt>
      <trkpt lat="47.20545" lon="-1.52965">
        <ele>55</ele>
        <time>2021-01-10T12:00:59.000Z</time>
      </trkpt>
      <trkpt lat="47.20551" lon="-1.52951">
        <ele>54</ele>
        <time>2021-01-10T12:01:01.000Z</time>
      </trkpt>
      <trkpt lat="47.20558" lon="-1.52936">
        <ele>54</ele>
        <time>2021-01-10T12:01:03.000Z</time>
      </trkpt>
      <trkpt lat="47.20565" lon="-1.52921">
        <ele>55</ele>
        <time>2021-01-10T12:01:05.000Z</time>
      </trkpt>
      <trkpt lat="47.20571" lon="-1.52907">
        <ele>55</ele>
        <time>2021-01-10T12:01:07.000Z</time>
      </trkpt>
      <trkpt lat="47.20577" lon="-1.52893">
        <ele>55</ele>
        <time>2021-01-10T12:01:09.000Z</time>
      </trkpt>
      <trkpt lat="47.20583" lon="-1.52878">
        <ele>55</ele>
        <time>2021-01-10T12:01:11.000Z</time>
      </trkpt>
      <trkpt lat="47.20591" lon="-1.52866">
        <ele>55</ele>
        <time>2021-01-10T12:01:13.000Z</time>
      </trkpt>
      <trkpt lat="47.20599" lon="-1.52854">
        <ele>55</ele>
        <time>2021-01-10T12:01:15.000Z</time>
      </trkpt>
      <trkpt lat="47.20605" lon="-1.5284">
        <ele>55</ele>
        <time>2021-01-10T12:01:17.000Z</time>
      </trkpt>
      <trkpt lat="47.20609" lon="-1.52823">
        <ele>54</ele>
        <time>2021-01-10T12:01:19.000Z</time>
      </trkpt>
      <trkpt lat="47.20616" lon="-1.52808">
        <ele>55</ele>
        <time>2021-01-10T12:01:21.000Z</time>
      </trkpt>
      <trkpt lat="47.20624" lon="-1.52794">
        <ele>55</ele>
        <time>2021-01-10T12:01:23.000Z</time>
      </trkpt>
      <trkpt lat="47.20631" lon="-1.5278">
        <ele>55</ele>
        <time>2021-01-10T12:01:25.000Z</time>
      </trkpt>
      <trkpt lat="47.20638" lon="-1.52766">
        <ele>54</ele>
        <time>2021-01-10T12:01:27.000Z</time>
      </trkpt>
      <trkpt lat="47.20645" lon="-1.52752">
        <ele>54</ele>
        <time>2021-01-10T12:01:29.000Z</time>
      </trkpt>
      <trkpt lat="47.20651" lon="-1.52738">
        <ele>55</ele>
        <time>2021-01-10T12:01:31.000Z</time>
      </trkpt>
      <trkpt lat="47.20658" lon="-1.52725">
        <ele>55</ele>
        <time>2021-01-10T12:01:33.000Z</time>
      </trkpt>
      <trkpt lat="47.20665" lon="-1.52711">
        <ele>55</ele>
        <time>2021-01-10T12:01:35.000Z</time>
      </trkpt>
      <trkpt lat="47.20672" lon="-1.52699">
        <ele>55</ele>
        <time>2021-01-10T12:01:37.000Z</time>
      </trkpt>
      <trkpt lat="47.20677" lon="-1.52685">
        <ele>55</ele>
        <time>2021-01-10T12:01:39.000Z</time>
      </trkpt>
      <trkpt lat="47.20682" lon="-1.52671">
        <ele>55</ele>
        <time>2021-01-10T12:01:41.000Z</time>
      </trkpt>
      <trkpt lat="47.2069" lon="-1.52662">
        <ele>54</ele>
        <time>2021-01-10T12:01:43.000Z</time>
      </trkpt>
      <trkpt lat="47.20697" lon="-1.5265">
        <ele>55</ele>
        <time>2021-01-10T12:01:45.000Z</time>
      </trkpt>
      <trkpt lat="47.20708" lon="-1.52648">
        <ele>55</ele>
        <time>2021-01-10T12:01:47.000Z</time>
      </trkpt>
      <trkpt lat="47.2072" lon="-1.52654">
        <ele>55</ele>
        <time>2021-01-10T12:01:49.000Z</time>
      </trkpt>
      <trkpt lat="47.20731" lon="-1.5266">
        <ele>55</ele>
        <time>2021-01-10T12:01:51.000Z</time>
      </trkpt>
      <trkpt lat="47.20742" lon="-1.52667">
        <ele>55</ele>
        <time>2021-01-10T12:01:53.000Z</time>
      </trkpt>
      <trkpt lat="47.20752" lon="-1.52673">
        <ele>55</ele>
        <time>2021-01-10T12:01:55.000Z</time>
      </trkpt>
      <trkpt lat="47.20764" lon="-1.52679">
        <ele>55</ele>
        <time>2021-01-10T12:01:57.000Z</time>
      </trkpt>
      <trkpt lat="47.20775" lon="-1.52684">
        <ele>55</ele>
        <time>2021-01-10T12:01:59.000Z</time>
      </trkpt>
      <trkpt lat="47.20786" lon="-1.52688">
        <ele>56</ele>
        <time>2021-01-10T12:02:01.000Z</time>
      </trkpt>
      <trkpt lat="47.20798" lon="-1.52693">
        <ele>56</ele>
        <time>2021-01-10T12:02:03.000Z</time>
      </trkpt>
      <trkpt lat="47.2081" lon="-1.52698">
        <ele>55</ele>
        <time>2021-01-10T12:02:05.000Z</time>
      </trkpt>
      <trkpt lat="47.20821" lon="-1.52703">
        <ele>55</ele>
        <time>2021-01-10T12:02:07.000Z</time>
      </trkpt>
      <trkpt lat="47.20832" lon="-1.52707">
        <ele>55</ele>
        <time>2021-01-10T12:02:09.000Z</time>
      </trkpt>
      <trkpt lat="47.20842" lon="-1.52714">
        <ele>56</ele>
        <time>2021-01-10T12:02:11.000Z</time>
      </trkpt>
      <trkpt lat="47.20853" lon="-1.52723">
        <ele>56</ele>
        <time>2021-01-10T12:02:13.000Z</time>
      </trkpt>
      <trkpt lat="47.20863" lon="-1.52734">
        <ele>56</ele>
        <time>2021-01-10T12:02:15.000Z</time>
      </trkpt>
      <trkpt lat="47.20872" lon="-1.52746">
        <ele>56</ele>
        <time>2021-01-10T12:02:17.000Z</time>
      </trkpt>
      <trkpt lat="47.20884" lon="-1.52753">
        <ele>56</ele>
        <time>2021-01-10T12:02:19.000Z</time>
      </trkpt>
      <trkpt lat="47.20894" lon="-1.52759">
        <ele>56</ele>
        <time>2021-01-10T12:02:21.000Z</time>
      </trkpt>
      <trkpt lat="47.20905" lon="-1.52764">
        <ele>56</ele>
        <time>2021-01-10T12:02:23.000Z</time>
      </trkpt>
      <trkpt lat="47.20915" lon="-1.52768">
        <ele>56</ele>
        <time>2021-01-10T12:02:25.000Z</time>
      </trkpt>
      <trkpt lat="47.20925" lon="-1.52768">
        <ele>57</ele>
        <time>2021-01-10T12:02:27.000Z</time>
      </trkpt>
      <trkpt lat="47.20935" lon="-1.52759">
        <ele>57</ele>
        <time>2021-01-10T12:02:29.000Z</time>
      </trkpt>
      <trkpt lat="47.20941" lon="-1.52746">
        <ele>56</ele>
        <time>2021-01-10T12:02:31.000Z</time>
      </trkpt>
      <trkpt lat="47.20949" lon="-1.52733">
        <ele>56</ele>
        <time>2021-01-10T12:02:33.000Z</time>
      </trkpt>
      <trkpt lat="47.20957" lon="-1.5272">
        <ele>56</ele>
        <time>2021-01-10T12:02:35.000Z</time>
      </trkpt>
      <trkpt lat="47.20965" lon="-1.52707">
        <ele>57</ele>
        <time>2021-01-10T12:02:37.000Z</time>
      </trkpt>
      <trkpt lat="47.20973" lon="-1.527">
        <ele>57</ele>
        <time>2021-01-10T12:02:39.000Z</time>
      </trkpt>
      <trkpt lat="47.20986" lon="-1.52699">
        <ele>57</ele>
        <time>2021-01-10T12:02:42.000Z</time>
      </trkpt>
      <trkpt lat="47.20997" lon="-1.52706">
        <ele>57</ele>
        <time>2021-01-10T12:02:44.000Z</time>
      </trkpt>
      <trkpt lat="47.21008" lon="-1.52719">
        <ele>56</ele>
        <time>2021-01-10T12:02:46.000Z</time>
      </trkpt>
      <trkpt lat="47.21017" lon="-1.52733">
        <ele>55</ele>
        <time>2021-01-10T12:02:48.000Z</time>
      </trkpt>
      <trkpt lat="47.21026" lon="-1.52744">
        <ele>55</ele>
        <time>2021-01-10T12:02:50.000Z</time>
      </trkpt>
      <trkpt lat="47.21035" lon="-1.52756">
        <ele>55</ele>
        <time>2021-01-10T12:02:52.000Z</time>
      </trkpt>
      <trkpt lat="47.21044" lon="-1.52769">
        <ele>55</ele>
        <time>2021-01-10T12:02:54.000Z</time>
      </trkpt>
      <trkpt lat="47.21054" lon="-1.5278">
        <ele>54</ele>
        <time>2021-01-10T12:02:56.000Z</time>
      </trkpt>
      <trkpt lat="47.21063" lon="-1.52792">
        <ele>54</ele>
        <time>2021-01-10T12:02:58.000Z</time>
      </trkpt>
      <trkpt lat="47.21071" lon="-1.52803">
        <ele>54</ele>
        <time>2021-01-10T12:03:00.000Z</time>
      </trkpt>
      <trkpt lat="47.21082" lon="-1.52812">
        <ele>54</ele>
        <time>2021-01-10T12:03:02.000Z</time>
      </trkpt>
      <trkpt lat="47.21093" lon="-1.5282">
        <ele>54</ele>
        <time>2021-01-10T12:03:04.000Z</time>
      </trkpt>
      <trkpt lat="47.21103" lon="-1.52831">
        <ele>54</ele>
        <time>2021-01-10T12:03:06.000Z</time>
      </trkpt>
      <trkpt lat="47.21113" lon="-1.52843">
        <ele>53</ele>
        <time>2021-01-10T12:03:08.000Z</time>
      </trkpt>
      <trkpt lat="47.21122" lon="-1.52854">
        <ele>54</ele>
        <time>2021-01-10T12:03:10.000Z</time>
      </trkpt>
      <trkpt lat="47.2113" lon="-1.52865">
        <ele>53</ele>
        <time>2021-01-10T12:03:12.000Z</time>
      </trkpt>
      <trkpt lat="47.2114" lon="-1.52873">
        <ele>53</ele>
        <time>2021-01-10T12:03:14.000Z</time>
      </trkpt>
      <trkpt lat="47.21152" lon="-1.52877">
        <ele>53</ele>
        <time>2021-01-10T12:03:16.000Z</time>
      </trkpt>
      <trkpt lat="47.21163" lon="-1.5288">
        <ele>53</ele>
        <time>2021-01-10T12:03:18.000Z</time>
      </trkpt>
      <trkpt lat="47.21174" lon="-1.52883">
        <ele>54</ele>
        <time>2021-01-10T12:03:20.000Z</time>
      </trkpt>
      <trkpt lat="47.21185" lon="-1.52887">
        <ele>54</ele>
        <time>2021-01-10T12:03:22.000Z</time>
      </trkpt>
      <trkpt lat="47.21195" lon="-1.52889">
        <ele>55</ele>
        <time>2021-01-10T12:03:24.000Z</time>
      </trkpt>
      <trkpt lat="47.21206" lon="-1.52892">
        <ele>55</ele>
        <time>2021-01-10T12:03:26.000Z</time>
      </trkpt>
      <trkpt lat="47.21217" lon="-1.52896">
        <ele>56</ele>
        <time>2021-01-10T12:03:28.000Z</time>
      </trkpt>
      <trkpt lat="47.21228" lon="-1.52898">
        <ele>56</ele>
        <time>2021-01-10T12:03:30.000Z</time>
      </trkpt>
      <trkpt lat="47.21239" lon="-1.529">
        <ele>56</ele>
        <time>2021-01-10T12:03:32.000Z</time>
      </trkpt>
      <trkpt lat="47.2125" lon="-1.52904">
        <ele>56</ele>
        <time>2021-01-10T12:03:34.000Z</time>
      </trkpt>
      <trkpt lat="47.21261" lon="-1.52908">
        <ele>56</ele>
        <time>2021-01-10T12:03:36.000Z</time>
      </trkpt>
      <trkpt lat="47.21272" lon="-1.5291">
        <ele>56</ele>
        <time>2021-01-10T12:03:38.000Z</time>
      </trkpt>
      <trkpt lat="47.21282" lon="-1.52914">
        <ele>56</ele>
        <time>2021-01-10T12:03:40.000Z</time>
      </trkpt>
      <trkpt lat="47.21293" lon="-1.52917">
        <ele>56</ele>
        <time>2021-01-10T12:03:42.000Z</time>
      </trkpt>
      <trkpt lat="47.21304" lon="-1.5292">
        <ele>56</ele>
        <time>2021-01-10T12:03:44.000Z</time>
      </trkpt>
      <trkpt lat="47.21315" lon="-1.52923">
        <ele>56</ele>
        <time>2021-01-10T12:03:46.000Z</time>
      </trkpt>
      <trkpt lat="47.21325" lon="-1.52926">
        <ele>55</ele>
        <time>2021-01-10T12:03:48.000Z</time>
      </trkpt>
      <trkpt lat="47.21336" lon="-1.52929">
        <ele>55</ele>
        <time>2021-01-10T12:03:50.000Z</time>
      </trkpt>
      <trkpt lat="47.21348" lon="-1.52931">
        <ele>54</ele>
        <time>2021-01-10T12:03:53.000Z</time>
      </trkpt>
      <trkpt lat="47.21357" lon="-1.52927">
        <ele>55</ele>
        <time>2021-01-10T12:03:55.000Z</time>
      </trkpt>
      <trkpt lat="47.21363" lon="-1.52914">
        <ele>55</ele>
        <time>2021-01-10T12:03:57.000Z</time>
      </trkpt>
      <trkpt lat="47.21363" lon="-1.52896">
        <ele>55</ele>
        <time>2021-01-10T12:03:59.000Z</time>
      </trkpt>
      <trkpt lat="47.21363" lon="-1.52879">
        <ele>55</ele>
        <time>2021-01-10T12:04:01.000Z</time>
      </trkpt>
      <trkpt lat="47.21362" lon="-1.5286">
        <ele>56</ele>
        <time>2021-01-10T12:04:03.000Z</time>
      </trkpt>
      <trkpt lat="47.21363" lon="-1.52843">
        <ele>55</ele>
        <time>2021-01-10T12:04:05.000Z</time>
      </trkpt>
      <trkpt lat="47.21364" lon="-1.52824">
        <ele>55</ele>
        <time>2021-01-10T12:04:07.000Z</time>
      </trkpt>
      <trkpt lat="47.21366" lon="-1.52805">
        <ele>55</ele>
        <time>2021-01-10T12:04:09.000Z</time>
      </trkpt>
      <trkpt lat="47.21369" lon="-1.52786">
        <ele>56</ele>
        <time>2021-01-10T12:04:11.000Z</time>
      </trkpt>
      <trkpt lat="47.21373" lon="-1.52768">
        <ele>56</ele>
        <time>2021-01-10T12:04:13.000Z</time>
      </trkpt>
      <trkpt lat="47.21378" lon="-1.5275">
        <ele>56</ele>
        <time>2021-01-10T12:04:15.000Z</time>
      </trkpt>
      <trkpt lat="47.21382" lon="-1.52732">
        <ele>56</ele>
        <time>2021-01-10T12:04:17.000Z</time>
      </trkpt>
      <trkpt lat="47.21386" lon="-1.52715">
        <ele>56</ele>
        <time>2021-01-10T12:04:19.000Z</time>
      </trkpt>
      <trkpt lat="47.21389" lon="-1.52699">
        <ele>56</ele>
        <time>2021-01-10T12:04:21.000Z</time>
      </trkpt>
      <trkpt lat="47.21393" lon="-1.52684">
        <ele>56</ele>
        <time>2021-01-10T12:04:23.000Z</time>
      </trkpt>
      <trkpt lat="47.21397" lon="-1.52669">
        <ele>56</ele>
        <time>2021-01-10T12:04:25.000Z</time>
      </trkpt>
      <trkpt lat="47.21401" lon="-1.52655">
        <ele>56</ele>
        <time>2021-01-10T12:04:27.000Z</time>
      </trkpt>
      <trkpt lat="47.21406" lon="-1.52639">
        <ele>56</ele>
        <time>2021-01-10T12:04:29.000Z</time>
      </trkpt>
      <trkpt lat="47.2141" lon="-1.52624">
        <ele>56</ele>
        <time>2021-01-10T12:04:31.000Z</time>
      </trkpt>
      <trkpt lat="47.21414" lon="-1.52609">
        <ele>56</ele>
        <time>2021-01-10T12:04:33.000Z</time>
      </trkpt>
      <trkpt lat="47.21419" lon="-1.52593">
        <ele>55</ele>
        <time>2021-01-10T12:04:35.000Z</time>
      </trkpt>
      <trkpt lat="47.21426" lon="-1.52576">
        <ele>55</ele>
        <time>2021-01-10T12:04:37.000Z</time>
      </trkpt>
      <trkpt lat="47.2143" lon="-1.5256">
        <ele>55</ele>
        <time>2021-01-10T12:04:39.000Z</time>
      </trkpt>
      <trkpt lat="47.21434" lon="-1.52544">
        <ele>55</ele>
        <time>2021-01-10T12:04:41.000Z</time>
      </trkpt>
      <trkpt lat="47.21439" lon="-1.52527">
        <ele>54</ele>
        <time>2021-01-10T12:04:43.000Z</time>
      </trkpt>
      <trkpt lat="47.21444" lon="-1.52511">
        <ele>55</ele>
        <time>2021-01-10T12:04:45.000Z</time>
      </trkpt>
      <trkpt lat="47.21449" lon="-1.52495">
        <ele>54</ele>
        <time>2021-01-10T12:04:47.000Z</time>
      </trkpt>
      <trkpt lat="47.21455" lon="-1.52481">
        <ele>54</ele>
        <time>2021-01-10T12:04:49.000Z</time>
      </trkpt>
      <trkpt lat="47.21461" lon="-1.52467">
        <ele>54</ele>
        <time>2021-01-10T12:04:51.000Z</time>
      </trkpt>
      <trkpt lat="47.21468" lon="-1.5245">
        <ele>54</ele>
        <time>2021-01-10T12:04:53.000Z</time>
      </trkpt>
      <trkpt lat="47.21473" lon="-1.52433">
        <ele>54</ele>
        <time>2021-01-10T12:04:55.000Z</time>
      </trkpt>
      <trkpt lat="47.21478" lon="-1.52416">
        <ele>54</ele>
        <time>2021-01-10T12:04:57.000Z</time>
      </trkpt>
      <trkpt lat="47.21482" lon="-1.524">
        <ele>54</ele>
        <time>2021-01-10T12:04:59.000Z</time>
      </trkpt>
      <trkpt lat="47.21487" lon="-1.52384">
        <ele>54</ele>
        <time>2021-01-10T12:05:01.000Z</time>
      </trkpt>
      <trkpt lat="47.21492" lon="-1.52369">
        <ele>55</ele>
        <time>2021-01-10T12:05:03.000Z</time>
      </trkpt>
      <trkpt lat="47.21497" lon="-1.52353">
        <ele>54</ele>
        <time>2021-01-10T12:05:05.000Z</time>
      </trkpt>
      <trkpt lat="47.21502" lon="-1.52337">
        <ele>54</ele>
        <time>2021-01-10T12:05:07.000Z</time>
      </trkpt>
      <trkpt lat="47.21507" lon="-1.52322">
        <ele>54</ele>
        <time>2021-01-10T12:05:09.000Z</time>
      </trkpt>
      <trkpt lat="47.21512" lon="-1.52306">
        <ele>54</ele>
        <time>2021-01-10T12:05:11.000Z</time>
      </trkpt>
      <trkpt lat="47.21517" lon="-1.52289">
        <ele>54</ele>
        <time>2021-01-10T12:05:13.000Z</time>
      </trkpt>
      <trkpt lat="47.21523" lon="-1.52273">
        <ele>54</ele>
        <time>2021-01-10T12:05:15.000Z</time>
      </trkpt>
      <trkpt lat="47.21527" lon="-1.52258">
        <ele>55</ele>
        <time>2021-01-10T12:05:17.000Z</time>
      </trkpt>
      <trkpt lat="47.21532" lon="-1.52242">
        <ele>55</ele>
        <time>2021-01-10T12:05:19.000Z</time>
      </trkpt>
      <trkpt lat="47.21537" lon="-1.52226">
        <ele>55</ele>
        <time>2021-01-10T12:05:21.000Z</time>
      </trkpt>
      <trkpt lat="47.21543" lon="-1.5221">
        <ele>55</ele>
        <time>2021-01-10T12:05:23.000Z</time>
      </trkpt>
      <trkpt lat="47.21548" lon="-1.52194">
        <ele>55</ele>
        <time>2021-01-10T12:05:25.000Z</time>
      </trkpt>
      <trkpt lat="47.21552" lon="-1.52177">
        <ele>55</ele>
        <time>2021-01-10T12:05:27.000Z</time>
      </trkpt>
      <trkpt lat="47.21558" lon="-1.5216">
        <ele>55</ele>
        <time>2021-01-10T12:05:29.000Z</time>
      </trkpt>
      <trkpt lat="47.21563" lon="-1.52144">
        <ele>55</ele>
        <time>2021-01-10T12:05:31.000Z</time>
      </trkpt>
      <trkpt lat="47.21568" lon="-1.5213">
        <ele>55</ele>
        <time>2021-01-10T12:05:33.000Z</time>
      </trkpt>
      <trkpt lat="47.21572" lon="-1.52115">
        <ele>55</ele>
        <time>2021-01-10T12:05:35.000Z</time>
      </trkpt>
      <trkpt lat="47.21577" lon="-1.52101">
        <ele>55</ele>
        <time>2021-01-10T12:05:37.000Z</time>
      </trkpt>
      <trkpt lat="47.21582" lon="-1.52086">
        <ele>55</ele>
        <time>2021-01-10T12:05:39.000Z</time>
      </trkpt>
      <trkpt lat="47.21587" lon="-1.5207">
        <ele>55</ele>
        <time>2021-01-10T12:05:41.000Z</time>
      </trkpt>
      <trkpt lat="47.21592" lon="-1.52055">
        <ele>55</ele>
        <time>2021-01-10T12:05:43.000Z</time>
      </trkpt>
      <trkpt lat="47.21597" lon="-1.52039">
        <ele>54</ele>
        <time>2021-01-10T12:05:45.000Z</time>
      </trkpt>
      <trkpt lat="47.21604" lon="-1.52016">
        <ele>54</ele>
        <time>2021-01-10T12:05:48.000Z</time>
      </trkpt>
      <trkpt lat="47.2161" lon="-1.51999">
        <ele>54</ele>
        <time>2021-01-10T12:05:50.000Z</time>
      </trkpt>
      <trkpt lat="47.21615" lon="-1.51983">
        <ele>54</ele>
        <time>2021-01-10T12:05:52.000Z</time>
      </trkpt>
      <trkpt lat="47.21621" lon="-1.51966">
        <ele>54</ele>
        <time>2021-01-10T12:05:54.000Z</time>
      </trkpt>
      <trkpt lat="47.21626" lon="-1.5195">
        <ele>54</ele>
        <time>2021-01-10T12:05:56.000Z</time>
      </trkpt>
      <trkpt lat="47.21633" lon="-1.51934">
        <ele>55</ele>
        <time>2021-01-10T12:05:58.000Z</time>
      </trkpt>
      <trkpt lat="47.21639" lon="-1.51919">
        <ele>56</ele>
        <time>2021-01-10T12:06:00.000Z</time>
      </trkpt>
      <trkpt lat="47.21643" lon="-1.51904">
        <ele>56</ele>
        <time>2021-01-10T12:06:02.000Z</time>
      </trkpt>
      <trkpt lat="47.21648" lon="-1.51889">
        <ele>56</ele>
        <time>2021-01-10T12:06:04.000Z</time>
      </trkpt>
      <trkpt lat="47.21653" lon="-1.51874">
        <ele>56</ele>
        <time>2021-01-10T12:06:06.000Z</time>
      </trkpt>
      <trkpt lat="47.21659" lon="-1.51858">
        <ele>57</ele>
        <time>2021-01-10T12:06:08.000Z</time>
      </trkpt>
      <trkpt lat="47.21665" lon="-1.51844">
        <ele>57</ele>
        <time>2021-01-10T12:06:10.000Z</time>
      </trkpt>
      <trkpt lat="47.21676" lon="-1.51823">
        <ele>57</ele>
        <time>2021-01-10T12:06:13.000Z</time>
      </trkpt>
      <trkpt lat="47.21682" lon="-1.51809">
        <ele>56</ele>
        <time>2021-01-10T12:06:15.000Z</time>
      </trkpt>
      <trkpt lat="47.21689" lon="-1.51794">
        <ele>56</ele>
        <time>2021-01-10T12:06:17.000Z</time>
      </trkpt>
      <trkpt lat="47.21695" lon="-1.51778">
        <ele>56</ele>
        <time>2021-01-10T12:06:19.000Z</time>
      </trkpt>
      <trkpt lat="47.21702" lon="-1.51763">
        <ele>55</ele>
        <time>2021-01-10T12:06:21.000Z</time>
      </trkpt>
      <trkpt lat="47.21709" lon="-1.51747">
        <ele>55</ele>
        <time>2021-01-10T12:06:23.000Z</time>
      </trkpt>
      <trkpt lat="47.21714" lon="-1.51732">
        <ele>56</ele>
        <time>2021-01-10T12:06:25.000Z</time>
      </trkpt>
      <trkpt lat="47.21721" lon="-1.51717">
        <ele>56</ele>
        <time>2021-01-10T12:06:27.000Z</time>
      </trkpt>
      <trkpt lat="47.21727" lon="-1.51702">
        <ele>56</ele>
        <time>2021-01-10T12:06:29.000Z</time>
      </trkpt>
      <trkpt lat="47.21733" lon="-1.51687">
        <ele>56</ele>
        <time>2021-01-10T12:06:31.000Z</time>
      </trkpt>
      <trkpt lat="47.21738" lon="-1.51673">
        <ele>55</ele>
        <time>2021-01-10T12:06:33.000Z</time>
      </trkpt>
      <trkpt lat="47.21747" lon="-1.51651">
        <ele>55</ele>
        <time>2021-01-10T12:06:36.000Z</time>
      </trkpt>
      <trkpt lat="47.21753" lon="-1.51637">
        <ele>55</ele>
        <time>2021-01-10T12:06:38.000Z</time>
      </trkpt>
      <trkpt lat="47.21761" lon="-1.51616">
        <ele>55</ele>
        <time>2021-01-10T12:06:41.000Z</time>
      </trkpt>
      <trkpt lat="47.21768" lon="-1.51603">
        <ele>55</ele>
        <time>2021-01-10T12:06:43.000Z</time>
      </trkpt>
      <trkpt lat="47.21777" lon="-1.51592">
        <ele>55</ele>
        <time>2021-01-10T12:06:45.000Z</time>
      </trkpt>
      <trkpt lat="47.21786" lon="-1.51582">
        <ele>55</ele>
        <time>2021-01-10T12:06:47.000Z</time>
      </trkpt>
      <trkpt lat="47.21796" lon="-1.51574">
        <ele>55</ele>
        <time>2021-01-10T12:06:49.000Z</time>
      </trkpt>
      <trkpt lat="47.21805" lon="-1.51565">
        <ele>55</ele>
        <time>2021-01-10T12:06:51.000Z</time>
      </trkpt>
      <trkpt lat="47.21815" lon="-1.51556">
        <ele>55</ele>
        <time>2021-01-10T12:06:53.000Z</time>
      </trkpt>
      <trkpt lat="47.21826" lon="-1.51554">
        <ele>55</ele>
        <time>2021-01-10T12:06:55.000Z</time>
      </trkpt>
      <trkpt lat="47.21838" lon="-1.51558">
        <ele>56</ele>
        <time>2021-01-10T12:06:57.000Z</time>
      </trkpt>
      <trkpt lat="47.21848" lon="-1.51564">
        <ele>56</ele>
        <time>2021-01-10T12:06:59.000Z</time>
      </trkpt>
      <trkpt lat="47.2186" lon="-1.51567">
        <ele>56</ele>
        <time>2021-01-10T12:07:01.000Z</time>
      </trkpt>
      <trkpt lat="47.21871" lon="-1.5157">
        <ele>57</ele>
        <time>2021-01-10T12:07:03.000Z</time>
      </trkpt>
      <trkpt lat="47.21883" lon="-1.51574">
        <ele>57</ele>
        <time>2021-01-10T12:07:05.000Z</time>
      </trkpt>
      <trkpt lat="47.21894" lon="-1.51578">
        <ele>57</ele>
        <time>2021-01-10T12:07:07.000Z</time>
      </trkpt>
      <trkpt lat="47.21905" lon="-1.51583">
        <ele>58</ele>
        <time>2021-01-10T12:07:09.000Z</time>
      </trkpt>
      <trkpt lat="47.21917" lon="-1.5159">
        <ele>59</ele>
        <time>2021-01-10T12:07:11.000Z</time>
      </trkpt>
      <trkpt lat="47.21936" lon="-1.51598">
        <ele>59</ele>
        <time>2021-01-10T12:07:14.000Z</time>
      </trkpt>
      <trkpt lat="47.21953" lon="-1.51608">
        <ele>58</ele>
        <time>2021-01-10T12:07:17.000Z</time>
      </trkpt>
      <trkpt lat="47.21965" lon="-1.51615">
        <ele>57</ele>
        <time>2021-01-10T12:07:19.000Z</time>
      </trkpt>
      <trkpt lat="47.21977" lon="-1.5162">
        <ele>57</ele>
        <time>2021-01-10T12:07:21.000Z</time>
      </trkpt>
      <trkpt lat="47.21989" lon="-1.51627">
        <ele>57</ele>
        <time>2021-01-10T12:07:23.000Z</time>
      </trkpt>
      <trkpt lat="47.22001" lon="-1.51633">
        <ele>57</ele>
        <time>2021-01-10T12:07:25.000Z</time>
      </trkpt>
      <trkpt lat="47.22012" lon="-1.51639">
        <ele>57</ele>
        <time>2021-01-10T12:07:27.000Z</time>
      </trkpt>
      <trkpt lat="47.22028" lon="-1.51646">
        <ele>58</ele>
        <time>2021-01-10T12:07:30.000Z</time>
      </trkpt>
      <trkpt lat="47.22044" lon="-1.51654">
        <ele>58</ele>
        <time>2021-01-10T12:07:33.000Z</time>
      </trkpt>
      <trkpt lat="47.22054" lon="-1.51658">
        <ele>59</ele>
        <time>2021-01-10T12:07:35.000Z</time>
      </trkpt>
      <trkpt lat="47.22065" lon="-1.51663">
        <ele>59</ele>
        <time>2021-01-10T12:07:37.000Z</time>
      </trkpt>
      <trkpt lat="47.22075" lon="-1.51669">
        <ele>59</ele>
        <time>2021-01-10T12:07:39.000Z</time>
      </trkpt>
      <trkpt lat="47.22085" lon="-1.51674">
        <ele>60</ele>
        <time>2021-01-10T12:07:41.000Z</time>
      </trkpt>
      <trkpt lat="47.22096" lon="-1.5168">
        <ele>60</ele>
        <time>2021-01-10T12:07:43.000Z</time>
      </trkpt>
      <trkpt lat="47.22105" lon="-1.51687">
        <ele>60</ele>
        <time>2021-01-10T12:07:45.000Z</time>
      </trkpt>
      <trkpt lat="47.22116" lon="-1.51694">
        <ele>60</ele>
        <time>2021-01-10T12:07:47.000Z</time>
      </trkpt>
      <trkpt lat="47.22126" lon="-1.51701">
        <ele>61</ele>
        <time>2021-01-10T12:07:49.000Z</time>
      </trkpt>
      <trkpt lat="47.22136" lon="-1.51708">
        <ele>62</ele>
        <time>2021-01-10T12:07:51.000Z</time>
      </trkpt>
      <trkpt lat="47.22146" lon="-1.51714">
        <ele>62</ele>
        <time>2021-01-10T12:07:53.000Z</time>
      </trkpt>
      <trkpt lat="47.22161" lon="-1.51724">
        <ele>63</ele>
        <time>2021-01-10T12:07:56.000Z</time>
      </trkpt>
      <trkpt lat="47.2217" lon="-1.51731">
        <ele>64</ele>
        <time>2021-01-10T12:07:58.000Z</time>
      </trkpt>
      <trkpt lat="47.2218" lon="-1.51738">
        <ele>64</ele>
        <time>2021-01-10T12:08:00.000Z</time>
      </trkpt>
      <trkpt lat="47.22189" lon="-1.51745">
        <ele>65</ele>
        <time>2021-01-10T12:08:02.000Z</time>
      </trkpt>
      <trkpt lat="47.22198" lon="-1.51753">
        <ele>65</ele>
        <time>2021-01-10T12:08:04.000Z</time>
      </trkpt>
      <trkpt lat="47.22208" lon="-1.5176">
        <ele>66</ele>
        <time>2021-01-10T12:08:06.000Z</time>
      </trkpt>
      <trkpt lat="47.22217" lon="-1.51769">
        <ele>66</ele>
        <time>2021-01-10T12:08:08.000Z</time>
      </trkpt>
      <trkpt lat="47.22226" lon="-1.51777">
        <ele>66</ele>
        <time>2021-01-10T12:08:10.000Z</time>
      </trkpt>
      <trkpt lat="47.22237" lon="-1.51788">
        <ele>65</ele>
        <time>2021-01-10T12:08:12.000Z</time>
      </trkpt>
      <trkpt lat="47.22248" lon="-1.51799">
        <ele>64</ele>
        <time>2021-01-10T12:08:14.000Z</time>
      </trkpt>
      <trkpt lat="47.2226" lon="-1.51811">
        <ele>63</ele>
        <time>2021-01-10T12:08:16.000Z</time>
      </trkpt>
      <trkpt lat="47.22271" lon="-1.51824">
        <ele>62</ele>
        <time>2021-01-10T12:08:18.000Z</time>
      </trkpt>
      <trkpt lat="47.22283" lon="-1.51837">
        <ele>60</ele>
        <time>2021-01-10T12:08:20.000Z</time>
      </trkpt>
      <trkpt lat="47.22296" lon="-1.5185">
        <ele>59</ele>
        <time>2021-01-10T12:08:22.000Z</time>
      </trkpt>
      <trkpt lat="47.22312" lon="-1.5187">
        <ele>58</ele>
        <time>2021-01-10T12:08:25.000Z</time>
      </trkpt>
      <trkpt lat="47.22322" lon="-1.51884">
        <ele>59</ele>
        <time>2021-01-10T12:08:27.000Z</time>
      </trkpt>
      <trkpt lat="47.22331" lon="-1.51897">
        <ele>59</ele>
        <time>2021-01-10T12:08:29.000Z</time>
      </trkpt>
      <trkpt lat="47.22339" lon="-1.51909">
        <ele>59</ele>
        <time>2021-01-10T12:08:31.000Z</time>
      </trkpt>
      <trkpt lat="47.22347" lon="-1.5192">
        <ele>59</ele>
        <time>2021-01-10T12:08:33.000Z</time>
      </trkpt>
      <trkpt lat="47.2236" lon="-1.51936">
        <ele>59</ele>
        <time>2021-01-10T12:08:36.000Z</time>
      </trkpt>
      <trkpt lat="47.22368" lon="-1.51947">
        <ele>58</ele>
        <time>2021-01-10T12:08:38.000Z</time>
      </trkpt>
      <trkpt lat="47.22376" lon="-1.51957">
        <ele>58</ele>
        <time>2021-01-10T12:08:40.000Z</time>
      </trkpt>
      <trkpt lat="47.22384" lon="-1.51969">
        <ele>58</ele>
        <time>2021-01-10T12:08:42.000Z</time>
      </trkpt>
      <trkpt lat="47.22391" lon="-1.51981">
        <ele>58</ele>
        <time>2021-01-10T12:08:44.000Z</time>
      </trkpt>
      <trkpt lat="47.22399" lon="-1.51993">
        <ele>59</ele>
        <time>2021-01-10T12:08:46.000Z</time>
      </trkpt>
      <trkpt lat="47.22408" lon="-1.52006">
        <ele>60</ele>
        <time>2021-01-10T12:08:48.000Z</time>
      </trkpt>
      <trkpt lat="47.22416" lon="-1.52019">
        <ele>61</ele>
        <time>2021-01-10T12:08:50.000Z</time>
      </trkpt>
      <trkpt lat="47.22424" lon="-1.52032">
        <ele>62</ele>
        <time>2021-01-10T12:08:52.000Z</time>
      </trkpt>
      <trkpt lat="47.22433" lon="-1.52043">
        <ele>62</ele>
        <time>2021-01-10T12:08:54.000Z</time>
      </trkpt>
      <trkpt lat="47.22442" lon="-1.52056">
        <ele>62</ele>
        <time>2021-01-10T12:08:56.000Z</time>
      </trkpt>
      <trkpt lat="47.2245" lon="-1.52069">
        <ele>62</ele>
        <time>2021-01-10T12:08:58.000Z</time>
      </trkpt>
      <trkpt lat="47.22458" lon="-1.5208">
        <ele>62</ele>
        <time>2021-01-10T12:09:00.000Z</time>
      </trkpt>
      <trkpt lat="47.22466" lon="-1.52091">
        <ele>62</ele>
        <time>2021-01-10T12:09:02.000Z</time>
      </trkpt>
      <trkpt lat="47.22473" lon="-1.52101">
        <ele>61</ele>
        <time>2021-01-10T12:09:04.000Z</time>
      </trkpt>
      <trkpt lat="47.22482" lon="-1.52114">
        <ele>61</ele>
        <time>2021-01-10T12:09:07.000Z</time>
      </trkpt>
      <trkpt lat="47.22489" lon="-1.52124">
        <ele>61</ele>
        <time>2021-01-10T12:09:09.000Z</time>
      </trkpt>
      <trkpt lat="47.22497" lon="-1.52135">
        <ele>62</ele>
        <time>2021-01-10T12:09:11.000Z</time>
      </trkpt>
      <trkpt lat="47.22506" lon="-1.52146">
        <ele>62</ele>
        <time>2021-01-10T12:09:13.000Z</time>
      </trkpt>
      <trkpt lat="47.22514" lon="-1.52159">
        <ele>61</ele>
        <time>2021-01-10T12:09:15.000Z</time>
      </trkpt>
      <trkpt lat="47.22523" lon="-1.5217">
        <ele>61</ele>
        <time>2021-01-10T12:09:17.000Z</time>
      </trkpt>
      <trkpt lat="47.22531" lon="-1.52183">
        <ele>60</ele>
        <time>2021-01-10T12:09:19.000Z</time>
      </trkpt>
      <trkpt lat="47.22544" lon="-1.52201">
        <ele>60</ele>
        <time>2021-01-10T12:09:22.000Z</time>
      </trkpt>
      <trkpt lat="47.22553" lon="-1.52213">
        <ele>60</ele>
        <time>2021-01-10T12:09:24.000Z</time>
      </trkpt>
      <trkpt lat="47.22563" lon="-1.52225">
        <ele>60</ele>
        <time>2021-01-10T12:09:26.000Z</time>
      </trkpt>
      <trkpt lat="47.22571" lon="-1.52236">
        <ele>59</ele>
        <time>2021-01-10T12:09:28.000Z</time>
      </trkpt>
      <trkpt lat="47.2258" lon="-1.52248">
        <ele>59</ele>
        <time>2021-01-10T12:09:30.000Z</time>
      </trkpt>
      <trkpt lat="47.2259" lon="-1.52253">
        <ele>59</ele>
        <time>2021-01-10T12:09:32.000Z</time>
      </trkpt>
      <trkpt lat="47.226" lon="-1.52245">
        <ele>59</ele>
        <time>2021-01-10T12:09:34.000Z</time>
      </trkpt>
      <trkpt lat="47.22609" lon="-1.52238">
        <ele>59</ele>
        <time>2021-01-10T12:09:36.000Z</time>
      </trkpt>
      <trkpt lat="47.2262" lon="-1.52245">
        <ele>60</ele>
        <time>2021-01-10T12:09:38.000Z</time>
      </trkpt>
      <trkpt lat="47.22628" lon="-1.5226">
        <ele>60</ele>
        <time>2021-01-10T12:09:40.000Z</time>
      </trkpt>
      <trkpt lat="47.2263" lon="-1.52277">
        <ele>59</ele>
        <time>2021-01-10T12:09:42.000Z</time>
      </trkpt>
      <trkpt lat="47.22625" lon="-1.52293">
        <ele>60</ele>
        <time>2021-01-10T12:09:44.000Z</time>
      </trkpt>
      <trkpt lat="47.22628" lon="-1.5231">
        <ele>60</ele>
        <time>2021-01-10T12:09:46.000Z</time>
      </trkpt>
      <trkpt lat="47.22634" lon="-1.52325">
        <ele>61</ele>
        <time>2021-01-10T12:09:48.000Z</time>
      </trkpt>
      <trkpt lat="47.22643" lon="-1.52337">
        <ele>61</ele>
        <time>2021-01-10T12:09:50.000Z</time>
      </trkpt>
      <trkpt lat="47.22651" lon="-1.52349">
        <ele>61</ele>
        <time>2021-01-10T12:09:52.000Z</time>
      </trkpt>
      <trkpt lat="47.2266" lon="-1.5236">
        <ele>61</ele>
        <time>2021-01-10T12:09:54.000Z</time>
      </trkpt>
      <trkpt lat="47.22668" lon="-1.52371">
        <ele>61</ele>
        <time>2021-01-10T12:09:56.000Z</time>
      </trkpt>
      <trkpt lat="47.22677" lon="-1.52383">
        <ele>61</ele>
        <time>2021-01-10T12:09:58.000Z</time>
      </trkpt>
      <trkpt lat="47.22685" lon="-1.52396">
        <ele>61</ele>
        <time>2021-01-10T12:10:00.000Z</time>
      </trkpt>
      <trkpt lat="47.22693" lon="-1.52408">
        <ele>61</ele>
        <time>2021-01-10T12:10:02.000Z</time>
      </trkpt>
      <trkpt lat="47.22702" lon="-1.52419">
        <ele>62</ele>
        <time>2021-01-10T12:10:04.000Z</time>
      </trkpt>
      <trkpt lat="47.22711" lon="-1.52431">
        <ele>61</ele>
        <time>2021-01-10T12:10:06.000Z</time>
      </trkpt>
      <trkpt lat="47.2272" lon="-1.52442">
        <ele>61</ele>
        <time>2021-01-10T12:10:08.000Z</time>
      </trkpt>
      <trkpt lat="47.22729" lon="-1.52453">
        <ele>60</ele>
        <time>2021-01-10T12:10:10.000Z</time>
      </trkpt>
      <trkpt lat="47.22739" lon="-1.52464">
        <ele>60</ele>
        <time>2021-01-10T12:10:12.000Z</time>
      </trkpt>
      <trkpt lat="47.22748" lon="-1.52475">
        <ele>60</ele>
        <time>2021-01-10T12:10:14.000Z</time>
      </trkpt>
      <trkpt lat="47.22757" lon="-1.52487">
        <ele>60</ele>
        <time>2021-01-10T12:10:16.000Z</time>
      </trkpt>
      <trkpt lat="47.22767" lon="-1.52501">
        <ele>59</ele>
        <time>2021-01-10T12:10:18.000Z</time>
      </trkpt>
      <trkpt lat="47.22775" lon="-1.52514">
        <ele>57</ele>
        <time>2021-01-10T12:10:20.000Z</time>
      </trkpt>
      <trkpt lat="47.22784" lon="-1.52529">
        <ele>57</ele>
        <time>2021-01-10T12:10:22.000Z</time>
      </trkpt>
      <trkpt lat="47.22793" lon="-1.52541">
        <ele>57</ele>
        <time>2021-01-10T12:10:24.000Z</time>
      </trkpt>
      <trkpt lat="47.22802" lon="-1.52555">
        <ele>57</ele>
        <time>2021-01-10T12:10:26.000Z</time>
      </trkpt>
      <trkpt lat="47.22808" lon="-1.52566">
        <ele>57</ele>
        <time>2021-01-10T12:10:28.000Z</time>
      </trkpt>
      <trkpt lat="47.22816" lon="-1.52576">
        <ele>56</ele>
        <time>2021-01-10T12:10:31.000Z</time>
      </trkpt>
      <trkpt lat="47.22824" lon="-1.52585">
        <ele>56</ele>
        <time>2021-01-10T12:10:38.000Z</time>
      </trkpt>
      <trkpt lat="47.22832" lon="-1.52595">
        <ele>55</ele>
        <time>2021-01-10T12:10:42.000Z</time>
      </trkpt>
      <trkpt lat="47.22841" lon="-1.52609">
        <ele>56</ele>
        <time>2021-01-10T12:10:45.000Z</time>
      </trkpt>
      <trkpt lat="47.22852" lon="-1.52613">
        <ele>57</ele>
        <time>2021-01-10T12:10:48.000Z</time>
      </trkpt>
      <trkpt lat="47.2286" lon="-1.526">
        <ele>58</ele>
        <time>2021-01-10T12:10:50.000Z</time>
      </trkpt>
      <trkpt lat="47.22869" lon="-1.52587">
        <ele>58</ele>
        <time>2021-01-10T12:10:52.000Z</time>
      </trkpt>
      <trkpt lat="47.22878" lon="-1.52572">
        <ele>58</ele>
        <time>2021-01-10T12:10:54.000Z</time>
      </trkpt>
      <trkpt lat="47.22886" lon="-1.52556">
        <ele>58</ele>
        <time>2021-01-10T12:10:56.000Z</time>
      </trkpt>
      <trkpt lat="47.22895" lon="-1.52543">
        <ele>58</ele>
        <time>2021-01-10T12:10:58.000Z</time>
      </trkpt>
      <trkpt lat="47.22904" lon="-1.52532">
        <ele>57</ele>
        <time>2021-01-10T12:11:00.000Z</time>
      </trkpt>
      <trkpt lat="47.22913" lon="-1.52519">
        <ele>56</ele>
        <time>2021-01-10T12:11:02.000Z</time>
      </trkpt>
      <trkpt lat="47.22923" lon="-1.52506">
        <ele>55</ele>
        <time>2021-01-10T12:11:04.000Z</time>
      </trkpt>
      <trkpt lat="47.22932" lon="-1.52495">
        <ele>55</ele>
        <time>2021-01-10T12:11:06.000Z</time>
      </trkpt>
      <trkpt lat="47.22942" lon="-1.52484">
        <ele>55</ele>
        <time>2021-01-10T12:11:08.000Z</time>
      </trkpt>
      <trkpt lat="47.2295" lon="-1.52472">
        <ele>54</ele>
        <time>2021-01-10T12:11:10.000Z</time>
      </trkpt>
      <trkpt lat="47.2296" lon="-1.52462">
        <ele>54</ele>
        <time>2021-01-10T12:11:12.000Z</time>
      </trkpt>
      <trkpt lat="47.2297" lon="-1.52452">
        <ele>54</ele>
        <time>2021-01-10T12:11:14.000Z</time>
      </trkpt>
      <trkpt lat="47.22979" lon="-1.52441">
        <ele>55</ele>
        <time>2021-01-10T12:11:16.000Z</time>
      </trkpt>
      <trkpt lat="47.22988" lon="-1.5243">
        <ele>55</ele>
        <time>2021-01-10T12:11:18.000Z</time>
      </trkpt>
      <trkpt lat="47.22997" lon="-1.52418">
        <ele>55</ele>
        <time>2021-01-10T12:11:20.000Z</time>
      </trkpt>
      <trkpt lat="47.23005" lon="-1.52408">
        <ele>55</ele>
        <time>2021-01-10T12:11:22.000Z</time>
      </trkpt>
      <trkpt lat="47.23014" lon="-1.52397">
        <ele>55</ele>
        <time>2021-01-10T12:11:24.000Z</time>
      </trkpt>
      <trkpt lat="47.23023" lon="-1.52385">
        <ele>56</ele>
        <time>2021-01-10T12:11:26.000Z</time>
      </trkpt>
      <trkpt lat="47.23032" lon="-1.52372">
        <ele>55</ele>
        <time>2021-01-10T12:11:28.000Z</time>
      </trkpt>
      <trkpt lat="47.2304" lon="-1.52361">
        <ele>56</ele>
        <time>2021-01-10T12:11:30.000Z</time>
      </trkpt>
      <trkpt lat="47.23048" lon="-1.52349">
        <ele>56</ele>
        <time>2021-01-10T12:11:32.000Z</time>
      </trkpt>
      <trkpt lat="47.23057" lon="-1.52337">
        <ele>56</ele>
        <time>2021-01-10T12:11:34.000Z</time>
      </trkpt>
      <trkpt lat="47.23065" lon="-1.52326">
        <ele>56</ele>
        <time>2021-01-10T12:11:36.000Z</time>
      </trkpt>
      <trkpt lat="47.23072" lon="-1.52315">
        <ele>56</ele>
        <time>2021-01-10T12:11:38.000Z</time>
      </trkpt>
      <trkpt lat="47.23082" lon="-1.52305">
        <ele>57</ele>
        <time>2021-01-10T12:11:40.000Z</time>
      </trkpt>
      <trkpt lat="47.23093" lon="-1.52297">
        <ele>58</ele>
        <time>2021-01-10T12:11:42.000Z</time>
      </trkpt>
      <trkpt lat="47.23103" lon="-1.5229">
        <ele>58</ele>
        <time>2021-01-10T12:11:44.000Z</time>
      </trkpt>
      <trkpt lat="47.23116" lon="-1.52283">
        <ele>59</ele>
        <time>2021-01-10T12:11:46.000Z</time>
      </trkpt>
      <trkpt lat="47.23126" lon="-1.52276">
        <ele>59</ele>
        <time>2021-01-10T12:11:48.000Z</time>
      </trkpt>
      <trkpt lat="47.23136" lon="-1.52269">
        <ele>59</ele>
        <time>2021-01-10T12:11:50.000Z</time>
      </trkpt>
      <trkpt lat="47.23147" lon="-1.52261">
        <ele>59</ele>
        <time>2021-01-10T12:11:52.000Z</time>
      </trkpt>
      <trkpt lat="47.23156" lon="-1.52251">
        <ele>59</ele>
        <time>2021-01-10T12:11:54.000Z</time>
      </trkpt>
      <trkpt lat="47.23166" lon="-1.52244">
        <ele>59</ele>
        <time>2021-01-10T12:11:56.000Z</time>
      </trkpt>
      <trkpt lat="47.23176" lon="-1.52238">
        <ele>59</ele>
        <time>2021-01-10T12:11:58.000Z</time>
      </trkpt>
      <trkpt lat="47.23186" lon="-1.52231">
        <ele>59</ele>
        <time>2021-01-10T12:12:00.000Z</time>
      </trkpt>
      <trkpt lat="47.23196" lon="-1.52225">
        <ele>59</ele>
        <time>2021-01-10T12:12:02.000Z</time>
      </trkpt>
      <trkpt lat="47.23206" lon="-1.52218">
        <ele>60</ele>
        <time>2021-01-10T12:12:04.000Z</time>
      </trkpt>
      <trkpt lat="47.23216" lon="-1.52211">
        <ele>61</ele>
        <time>2021-01-10T12:12:06.000Z</time>
      </trkpt>
      <trkpt lat="47.23226" lon="-1.52203">
        <ele>61</ele>
        <time>2021-01-10T12:12:08.000Z</time>
      </trkpt>
      <trkpt lat="47.23236" lon="-1.52195">
        <ele>61</ele>
        <time>2021-01-10T12:12:10.000Z</time>
      </trkpt>
      <trkpt lat="47.23247" lon="-1.52188">
        <ele>59</ele>
        <time>2021-01-10T12:12:12.000Z</time>
      </trkpt>
      <trkpt lat="47.23259" lon="-1.52183">
        <ele>60</ele>
        <time>2021-01-10T12:12:14.000Z</time>
      </trkpt>
      <trkpt lat="47.23269" lon="-1.52176">
        <ele>60</ele>
        <time>2021-01-10T12:12:16.000Z</time>
      </trkpt>
      <trkpt lat="47.2328" lon="-1.52169">
        <ele>60</ele>
        <time>2021-01-10T12:12:18.000Z</time>
      </trkpt>
      <trkpt lat="47.23292" lon="-1.52161">
        <ele>60</ele>
        <time>2021-01-10T12:12:20.000Z</time>
      </trkpt>
      <trkpt lat="47.23304" lon="-1.52152">
        <ele>60</ele>
        <time>2021-01-10T12:12:22.000Z</time>
      </trkpt>
      <trkpt lat="47.23316" lon="-1.52143">
        <ele>61</ele>
        <time>2021-01-10T12:12:24.000Z</time>
      </trkpt>
      <trkpt lat="47.23328" lon="-1.52134">
        <ele>61</ele>
        <time>2021-01-10T12:12:26.000Z</time>
      </trkpt>
      <trkpt lat="47.2334" lon="-1.52125">
        <ele>60</ele>
        <time>2021-01-10T12:12:28.000Z</time>
      </trkpt>
      <trkpt lat="47.23352" lon="-1.52117">
        <ele>60</ele>
        <time>2021-01-10T12:12:30.000Z</time>
      </trkpt>
      <trkpt lat="47.23363" lon="-1.52108">
        <ele>60</ele>
        <time>2021-01-10T12:12:32.000Z</time>
      </trkpt>
      <trkpt lat="47.23374" lon="-1.521">
        <ele>60</ele>
        <time>2021-01-10T12:12:34.000Z</time>
      </trkpt>
      <trkpt lat="47.23384" lon="-1.52092">
        <ele>60</ele>
        <time>2021-01-10T12:12:36.000Z</time>
      </trkpt>
      <trkpt lat="47.23394" lon="-1.52083">
        <ele>61</ele>
        <time>2021-01-10T12:12:38.000Z</time>
      </trkpt>
      <trkpt lat="47.23404" lon="-1.52072">
        <ele>61</ele>
        <time>2021-01-10T12:12:40.000Z</time>
      </trkpt>
      <trkpt lat="47.23414" lon="-1.52061">
        <ele>60</ele>
        <time>2021-01-10T12:12:42.000Z</time>
      </trkpt>
      <trkpt lat="47.23424" lon="-1.52051">
        <ele>60</ele>
        <time>2021-01-10T12:12:44.000Z</time>
      </trkpt>
      <trkpt lat="47.23433" lon="-1.5204">
        <ele>61</ele>
        <time>2021-01-10T12:12:46.000Z</time>
      </trkpt>
      <trkpt lat="47.23443" lon="-1.52029">
        <ele>61</ele>
        <time>2021-01-10T12:12:48.000Z</time>
      </trkpt>
      <trkpt lat="47.23454" lon="-1.5202">
        <ele>60</ele>
        <time>2021-01-10T12:12:50.000Z</time>
      </trkpt>
      <trkpt lat="47.23464" lon="-1.5201">
        <ele>60</ele>
        <time>2021-01-10T12:12:52.000Z</time>
      </trkpt>
      <trkpt lat="47.23474" lon="-1.51999">
        <ele>60</ele>
        <time>2021-01-10T12:12:54.000Z</time>
      </trkpt>
      <trkpt lat="47.23483" lon="-1.51989">
        <ele>61</ele>
        <time>2021-01-10T12:12:56.000Z</time>
      </trkpt>
      <trkpt lat="47.23492" lon="-1.51978">
        <ele>62</ele>
        <time>2021-01-10T12:12:58.000Z</time>
      </trkpt>
      <trkpt lat="47.23502" lon="-1.51969">
        <ele>62</ele>
        <time>2021-01-10T12:13:00.000Z</time>
      </trkpt>
      <trkpt lat="47.23512" lon="-1.5196">
        <ele>62</ele>
        <time>2021-01-10T12:13:02.000Z</time>
      </trkpt>
      <trkpt lat="47.2352" lon="-1.51948">
        <ele>62</ele>
        <time>2021-01-10T12:13:04.000Z</time>
      </trkpt>
      <trkpt lat="47.23529" lon="-1.51938">
        <ele>62</ele>
        <time>2021-01-10T12:13:06.000Z</time>
      </trkpt>
      <trkpt lat="47.23538" lon="-1.51929">
        <ele>61</ele>
        <time>2021-01-10T12:13:08.000Z</time>
      </trkpt>
      <trkpt lat="47.23548" lon="-1.5192">
        <ele>61</ele>
        <time>2021-01-10T12:13:10.000Z</time>
      </trkpt>
      <trkpt lat="47.23557" lon="-1.5191">
        <ele>62</ele>
        <time>2021-01-10T12:13:12.000Z</time>
      </trkpt>
      <trkpt lat="47.23566" lon="-1.51898">
        <ele>62</ele>
        <time>2021-01-10T12:13:14.000Z</time>
      </trkpt>
      <trkpt lat="47.23574" lon="-1.51886">
        <ele>61</ele>
        <time>2021-01-10T12:13:16.000Z</time>
      </trkpt>
      <trkpt lat="47.23583" lon="-1.51874">
        <ele>61</ele>
        <time>2021-01-10T12:13:18.000Z</time>
      </trkpt>
      <trkpt lat="47.23592" lon="-1.51863">
        <ele>61</ele>
        <time>2021-01-10T12:13:20.000Z</time>
      </trkpt>
      <trkpt lat="47.23601" lon="-1.51853">
        <ele>62</ele>
        <time>2021-01-10T12:13:22.000Z</time>
      </trkpt>
      <trkpt lat="47.23609" lon="-1.51842">
        <ele>62</ele>
        <time>2021-01-10T12:13:24.000Z</time>
      </trkpt>
      <trkpt lat="47.23619" lon="-1.51832">
        <ele>61</ele>
        <time>2021-01-10T12:13:26.000Z</time>
      </trkpt>
      <trkpt lat="47.23628" lon="-1.51822">
        <ele>61</ele>
        <time>2021-01-10T12:13:28.000Z</time>
      </trkpt>
      <trkpt lat="47.23637" lon="-1.51811">
        <ele>60</ele>
        <time>2021-01-10T12:13:30.000Z</time>
      </trkpt>
      <trkpt lat="47.23646" lon="-1.518">
        <ele>60</ele>
        <time>2021-01-10T12:13:32.000Z</time>
      </trkpt>
      <trkpt lat="47.23655" lon="-1.51789">
        <ele>61</ele>
        <time>2021-01-10T12:13:34.000Z</time>
      </trkpt>
      <trkpt lat="47.23664" lon="-1.51778">
        <ele>61</ele>
        <time>2021-01-10T12:13:36.000Z</time>
      </trkpt>
      <trkpt lat="47.23673" lon="-1.51767">
        <ele>61</ele>
        <time>2021-01-10T12:13:38.000Z</time>
      </trkpt>
      <trkpt lat="47.23682" lon="-1.51757">
        <ele>61</ele>
        <time>2021-01-10T12:13:40.000Z</time>
      </trkpt>
      <trkpt lat="47.2369" lon="-1.51746">
        <ele>61</ele>
        <time>2021-01-10T12:13:42.000Z</time>
      </trkpt>
      <trkpt lat="47.23699" lon="-1.51735">
        <ele>62</ele>
        <time>2021-01-10T12:13:44.000Z</time>
      </trkpt>
      <trkpt lat="47.23707" lon="-1.51724">
        <ele>62</ele>
        <time>2021-01-10T12:13:46.000Z</time>
      </trkpt>
      <trkpt lat="47.23714" lon="-1.51713">
        <ele>62</ele>
        <time>2021-01-10T12:13:48.000Z</time>
      </trkpt>
      <trkpt lat="47.23719" lon="-1.517">
        <ele>62</ele>
        <time>2021-01-10T12:13:50.000Z</time>
      </trkpt>
      <trkpt lat="47.23722" lon="-1.51685">
        <ele>62</ele>
        <time>2021-01-10T12:13:52.000Z</time>
      </trkpt>
      <trkpt lat="47.23728" lon="-1.51671">
        <ele>61</ele>
        <time>2021-01-10T12:13:54.000Z</time>
      </trkpt>
      <trkpt lat="47.23737" lon="-1.51662">
        <ele>61</ele>
        <time>2021-01-10T12:13:56.000Z</time>
      </trkpt>
      <trkpt lat="47.23746" lon="-1.5165">
        <ele>61</ele>
        <time>2021-01-10T12:13:58.000Z</time>
      </trkpt>
      <trkpt lat="47.23752" lon="-1.51636">
        <ele>61</ele>
        <time>2021-01-10T12:14:00.000Z</time>
      </trkpt>
      <trkpt lat="47.23759" lon="-1.51623">
        <ele>61</ele>
        <time>2021-01-10T12:14:02.000Z</time>
      </trkpt>
      <trkpt lat="47.23766" lon="-1.51609">
        <ele>61</ele>
        <time>2021-01-10T12:14:04.000Z</time>
      </trkpt>
      <trkpt lat="47.23774" lon="-1.51596">
        <ele>61</ele>
        <time>2021-01-10T12:14:06.000Z</time>
      </trkpt>
      <trkpt lat="47.23781" lon="-1.51583">
        <ele>61</ele>
        <time>2021-01-10T12:14:08.000Z</time>
      </trkpt>
      <trkpt lat="47.23787" lon="-1.51571">
        <ele>61</ele>
        <time>2021-01-10T12:14:10.000Z</time>
      </trkpt>
      <trkpt lat="47.23794" lon="-1.51557">
        <ele>62</ele>
        <time>2021-01-10T12:14:12.000Z</time>
      </trkpt>
      <trkpt lat="47.23799" lon="-1.51541">
        <ele>63</ele>
        <time>2021-01-10T12:14:14.000Z</time>
      </trkpt>
      <trkpt lat="47.23806" lon="-1.51528">
        <ele>63</ele>
        <time>2021-01-10T12:14:16.000Z</time>
      </trkpt>
      <trkpt lat="47.23813" lon="-1.51516">
        <ele>63</ele>
        <time>2021-01-10T12:14:18.000Z</time>
      </trkpt>
      <trkpt lat="47.23821" lon="-1.51504">
        <ele>63</ele>
        <time>2021-01-10T12:14:20.000Z</time>
      </trkpt>
      <trkpt lat="47.23828" lon="-1.51492">
        <ele>63</ele>
        <time>2021-01-10T12:14:22.000Z</time>
      </trkpt>
      <trkpt lat="47.23836" lon="-1.51479">
        <ele>63</ele>
        <time>2021-01-10T12:14:24.000Z</time>
      </trkpt>
      <trkpt lat="47.23844" lon="-1.51467">
        <ele>63</ele>
        <time>2021-01-10T12:14:26.000Z</time>
      </trkpt>
      <trkpt lat="47.23852" lon="-1.51455">
        <ele>62</ele>
        <time>2021-01-10T12:14:28.000Z</time>
      </trkpt>
      <trkpt lat="47.23859" lon="-1.51443">
        <ele>62</ele>
        <time>2021-01-10T12:14:30.000Z</time>
      </trkpt>
      <trkpt lat="47.23868" lon="-1.51432">
        <ele>62</ele>
        <time>2021-01-10T12:14:32.000Z</time>
      </trkpt>
      <trkpt lat="47.23876" lon="-1.5142">
        <ele>63</ele>
        <time>2021-01-10T12:14:34.000Z</time>
      </trkpt>
      <trkpt lat="47.23884" lon="-1.51409">
        <ele>63</ele>
        <time>2021-01-10T12:14:36.000Z</time>
      </trkpt>
      <trkpt lat="47.23893" lon="-1.51398">
        <ele>63</ele>
        <time>2021-01-10T12:14:38.000Z</time>
      </trkpt>
      <trkpt lat="47.23901" lon="-1.51386">
        <ele>63</ele>
        <time>2021-01-10T12:14:40.000Z</time>
      </trkpt>
      <trkpt lat="47.2391" lon="-1.51376">
        <ele>63</ele>
        <time>2021-01-10T12:14:42.000Z</time>
      </trkpt>
      <trkpt lat="47.23919" lon="-1.51365">
        <ele>63</ele>
        <time>2021-01-10T12:14:44.000Z</time>
      </trkpt>
      <trkpt lat="47.23928" lon="-1.51356">
        <ele>64</ele>
        <time>2021-01-10T12:14:46.000Z</time>
      </trkpt>
      <trkpt lat="47.23938" lon="-1.51346">
        <ele>64</ele>
        <time>2021-01-10T12:14:48.000Z</time>
      </trkpt>
      <trkpt lat="47.23946" lon="-1.51337">
        <ele>64</ele>
        <time>2021-01-10T12:14:50.000Z</time>
      </trkpt>
      <trkpt lat="47.23955" lon="-1.51328">
        <ele>64</ele>
        <time>2021-01-10T12:14:52.000Z</time>
      </trkpt>
      <trkpt lat="47.23964" lon="-1.51319">
        <ele>64</ele>
        <time>2021-01-10T12:14:54.000Z</time>
      </trkpt>
      <trkpt lat="47.23971" lon="-1.51309">
        <ele>63</ele>
        <time>2021-01-10T12:14:56.000Z</time>
      </trkpt>
      <trkpt lat="47.2398" lon="-1.51299">
        <ele>63</ele>
        <time>2021-01-10T12:14:58.000Z</time>
      </trkpt>
      <trkpt lat="47.23988" lon="-1.5129">
        <ele>62</ele>
        <time>2021-01-10T12:15:00.000Z</time>
      </trkpt>
      <trkpt lat="47.23997" lon="-1.5128">
        <ele>63</ele>
        <time>2021-01-10T12:15:02.000Z</time>
      </trkpt>
      <trkpt lat="47.24005" lon="-1.5127">
        <ele>62</ele>
        <time>2021-01-10T12:15:04.000Z</time>
      </trkpt>
      <trkpt lat="47.24014" lon="-1.51261">
        <ele>62</ele>
        <time>2021-01-10T12:15:06.000Z</time>
      </trkpt>
      <trkpt lat="47.24019" lon="-1.51249">
        <ele>62</ele>
        <time>2021-01-10T12:15:08.000Z</time>
      </trkpt>
      <trkpt lat="47.2402" lon="-1.51229">
        <ele>61</ele>
        <time>2021-01-10T12:15:11.000Z</time>
      </trkpt>
      <trkpt lat="47.24021" lon="-1.51213">
        <ele>62</ele>
        <time>2021-01-10T12:15:13.000Z</time>
      </trkpt>
      <trkpt lat="47.24027" lon="-1.51199">
        <ele>61</ele>
        <time>2021-01-10T12:15:15.000Z</time>
      </trkpt>
      <trkpt lat="47.24038" lon="-1.51192">
        <ele>62</ele>
        <time>2021-01-10T12:15:17.000Z</time>
      </trkpt>
      <trkpt lat="47.24049" lon="-1.51194">
        <ele>62</ele>
        <time>2021-01-10T12:15:19.000Z</time>
      </trkpt>
      <trkpt lat="47.24058" lon="-1.51202">
        <ele>62</ele>
        <time>2021-01-10T12:15:21.000Z</time>
      </trkpt>
      <trkpt lat="47.24064" lon="-1.51216">
        <ele>62</ele>
        <time>2021-01-10T12:15:23.000Z</time>
      </trkpt>
      <trkpt lat="47.24066" lon="-1.5123">
        <ele>62</ele>
        <time>2021-01-10T12:15:25.000Z</time>
      </trkpt>
      <trkpt lat="47.24062" lon="-1.51246">
        <ele>62</ele>
        <time>2021-01-10T12:15:27.000Z</time>
      </trkpt>
      <trkpt lat="47.24053" lon="-1.5126">
        <ele>63</ele>
        <time>2021-01-10T12:15:29.000Z</time>
      </trkpt>
      <trkpt lat="47.24047" lon="-1.51273">
        <ele>62</ele>
        <time>2021-01-10T12:15:31.000Z</time>
      </trkpt>
      <trkpt lat="47.24051" lon="-1.51289">
        <ele>62</ele>
        <time>2021-01-10T12:15:33.000Z</time>
      </trkpt>
      <trkpt lat="47.2406" lon="-1.51302">
        <ele>62</ele>
        <time>2021-01-10T12:15:35.000Z</time>
      </trkpt>
      <trkpt lat="47.24069" lon="-1.51314">
        <ele>62</ele>
        <time>2021-01-10T12:15:37.000Z</time>
      </trkpt>
      <trkpt lat="47.24076" lon="-1.51327">
        <ele>62</ele>
        <time>2021-01-10T12:15:39.000Z</time>
      </trkpt>
      <trkpt lat="47.24083" lon="-1.5134">
        <ele>62</ele>
        <time>2021-01-10T12:15:41.000Z</time>
      </trkpt>
      <trkpt lat="47.2409" lon="-1.51353">
        <ele>62</ele>
        <time>2021-01-10T12:15:43.000Z</time>
      </trkpt>
      <trkpt lat="47.24096" lon="-1.51367">
        <ele>62</ele>
        <time>2021-01-10T12:15:45.000Z</time>
      </trkpt>
      <trkpt lat="47.24103" lon="-1.5138">
        <ele>61</ele>
        <time>2021-01-10T12:15:47.000Z</time>
      </trkpt>
      <trkpt lat="47.24111" lon="-1.51393">
        <ele>61</ele>
        <time>2021-01-10T12:15:49.000Z</time>
      </trkpt>
      <trkpt lat="47.24118" lon="-1.51407">
        <ele>61</ele>
        <time>2021-01-10T12:15:51.000Z</time>
      </trkpt>
      <trkpt lat="47.24126" lon="-1.5142">
        <ele>61</ele>
        <time>2021-01-10T12:15:53.000Z</time>
      </trkpt>
      <trkpt lat="47.24133" lon="-1.51434">
        <ele>61</ele>
        <time>2021-01-10T12:15:55.000Z</time>
      </trkpt>
      <trkpt lat="47.24141" lon="-1.51448">
        <ele>62</ele>
        <time>2021-01-10T12:15:57.000Z</time>
      </trkpt>
      <trkpt lat="47.24149" lon="-1.51461">
        <ele>62</ele>
        <time>2021-01-10T12:15:59.000Z</time>
      </trkpt>
      <trkpt lat="47.24156" lon="-1.51474">
        <ele>62</ele>
        <time>2021-01-10T12:16:01.000Z</time>
      </trkpt>
      <trkpt lat="47.24164" lon="-1.51488">
        <ele>62</ele>
        <time>2021-01-10T12:16:03.000Z</time>
      </trkpt>
      <trkpt lat="47.24172" lon="-1.515">
        <ele>63</ele>
        <time>2021-01-10T12:16:05.000Z</time>
      </trkpt>
      <trkpt lat="47.24179" lon="-1.51512">
        <ele>63</ele>
        <time>2021-01-10T12:16:07.000Z</time>
      </trkpt>
      <trkpt lat="47.24186" lon="-1.51524">
        <ele>63</ele>
        <time>2021-01-10T12:16:09.000Z</time>
      </trkpt>
      <trkpt lat="47.24194" lon="-1.51536">
        <ele>63</ele>
        <time>2021-01-10T12:16:11.000Z</time>
      </trkpt>
      <trkpt lat="47.24202" lon="-1.51548">
        <ele>64</ele>
        <time>2021-01-10T12:16:13.000Z</time>
      </trkpt>
      <trkpt lat="47.2421" lon="-1.5156">
        <ele>64</ele>
        <time>2021-01-10T12:16:15.000Z</time>
      </trkpt>
      <trkpt lat="47.24218" lon="-1.51572">
        <ele>64</ele>
        <time>2021-01-10T12:16:17.000Z</time>
      </trkpt>
      <trkpt lat="47.24225" lon="-1.51583">
        <ele>64</ele>
        <time>2021-01-10T12:16:19.000Z</time>
      </trkpt>
      <trkpt lat="47.24232" lon="-1.51596">
        <ele>64</ele>
        <time>2021-01-10T12:16:21.000Z</time>
      </trkpt>
      <trkpt lat="47.2424" lon="-1.51608">
        <ele>63</ele>
        <time>2021-01-10T12:16:23.000Z</time>
      </trkpt>
      <trkpt lat="47.24248" lon="-1.51622">
        <ele>62</ele>
        <time>2021-01-10T12:16:25.000Z</time>
      </trkpt>
      <trkpt lat="47.24256" lon="-1.51636">
        <ele>62</ele>
        <time>2021-01-10T12:16:27.000Z</time>
      </trkpt>
      <trkpt lat="47.24264" lon="-1.51649">
        <ele>61</ele>
        <time>2021-01-10T12:16:29.000Z</time>
      </trkpt>
      <trkpt lat="47.24273" lon="-1.51661">
        <ele>62</ele>
        <time>2021-01-10T12:16:31.000Z</time>
      </trkpt>
      <trkpt lat="47.24281" lon="-1.51674">
        <ele>62</ele>
        <time>2021-01-10T12:16:33.000Z</time>
      </trkpt>
      <trkpt lat="47.24289" lon="-1.51687">
        <ele>62</ele>
        <time>2021-01-10T12:16:35.000Z</time>
      </trkpt>
      <trkpt lat="47.24298" lon="-1.51699">
        <ele>63</ele>
        <time>2021-01-10T12:16:37.000Z</time>
      </trkpt>
      <trkpt lat="47.24306" lon="-1.51708">
        <ele>63</ele>
        <time>2021-01-10T12:16:39.000Z</time>
      </trkpt>
      <trkpt lat="47.24315" lon="-1.51716">
        <ele>63</ele>
        <time>2021-01-10T12:16:41.000Z</time>
      </trkpt>
      <trkpt lat="47.24324" lon="-1.51721">
        <ele>62</ele>
        <time>2021-01-10T12:16:43.000Z</time>
      </trkpt>
      <trkpt lat="47.24333" lon="-1.51727">
        <ele>62</ele>
        <time>2021-01-10T12:16:46.000Z</time>
      </trkpt>
      <trkpt lat="47.24343" lon="-1.51726">
        <ele>62</ele>
        <time>2021-01-10T12:16:48.000Z</time>
      </trkpt>
      <trkpt lat="47.24354" lon="-1.51732">
        <ele>63</ele>
        <time>2021-01-10T12:16:50.000Z</time>
      </trkpt>
      <trkpt lat="47.24362" lon="-1.51743">
        <ele>63</ele>
        <time>2021-01-10T12:16:52.000Z</time>
      </trkpt>
      <trkpt lat="47.24371" lon="-1.51753">
        <ele>64</ele>
        <time>2021-01-10T12:16:54.000Z</time>
      </trkpt>
      <trkpt lat="47.24382" lon="-1.51759">
        <ele>64</ele>
        <time>2021-01-10T12:16:56.000Z</time>
      </trkpt>
      <trkpt lat="47.24393" lon="-1.51765">
        <ele>64</ele>
        <time>2021-01-10T12:16:58.000Z</time>
      </trkpt>
      <trkpt lat="47.24403" lon="-1.51771">
        <ele>64</ele>
        <time>2021-01-10T12:17:00.000Z</time>
      </trkpt>
      <trkpt lat="47.24413" lon="-1.51778">
        <ele>65</ele>
        <time>2021-01-10T12:17:02.000Z</time>
      </trkpt>
      <trkpt lat="47.24423" lon="-1.51785">
        <ele>66</ele>
        <time>2021-01-10T12:17:04.000Z</time>
      </trkpt>
      <trkpt lat="47.24434" lon="-1.51791">
        <ele>66</ele>
        <time>2021-01-10T12:17:06.000Z</time>
      </trkpt>
      <trkpt lat="47.24446" lon="-1.51797">
        <ele>65</ele>
        <time>2021-01-10T12:17:08.000Z</time>
      </trkpt>
      <trkpt lat="47.24457" lon="-1.51803">
        <ele>65</ele>
        <time>2021-01-10T12:17:10.000Z</time>
      </trkpt>
      <trkpt lat="47.24468" lon="-1.51807">
        <ele>65</ele>
        <time>2021-01-10T12:17:12.000Z</time>
      </trkpt>
      <trkpt lat="47.24479" lon="-1.51812">
        <ele>65</ele>
        <time>2021-01-10T12:17:14.000Z</time>
      </trkpt>
      <trkpt lat="47.24491" lon="-1.51817">
        <ele>66</ele>
        <time>2021-01-10T12:17:16.000Z</time>
      </trkpt>
      <trkpt lat="47.24502" lon="-1.51822">
        <ele>65</ele>
        <time>2021-01-10T12:17:18.000Z</time>
      </trkpt>
      <trkpt lat="47.24513" lon="-1.51826">
        <ele>65</ele>
        <time>2021-01-10T12:17:20.000Z</time>
      </trkpt>
      <trkpt lat="47.24524" lon="-1.5183">
        <ele>66</ele>
        <time>2021-01-10T12:17:22.000Z</time>
      </trkpt>
      <trkpt lat="47.24534" lon="-1.51834">
        <ele>67</ele>
        <time>2021-01-10T12:17:24.000Z</time>
      </trkpt>
      <trkpt lat="47.24545" lon="-1.51838">
        <ele>67</ele>
        <time>2021-01-10T12:17:26.000Z</time>
      </trkpt>
      <trkpt lat="47.24555" lon="-1.51843">
        <ele>68</ele>
        <time>2021-01-10T12:17:28.000Z</time>
      </trkpt>
      <trkpt lat="47.24566" lon="-1.51847">
        <ele>68</ele>
        <time>2021-01-10T12:17:30.000Z</time>
      </trkpt>
      <trkpt lat="47.24577" lon="-1.51853">
        <ele>68</ele>
        <time>2021-01-10T12:17:32.000Z</time>
      </trkpt>
      <trkpt lat="47.24587" lon="-1.51859">
        <ele>68</ele>
        <time>2021-01-10T12:17:34.000Z</time>
      </trkpt>
      <trkpt lat="47.24598" lon="-1.51865">
        <ele>69</ele>
        <time>2021-01-10T12:17:36.000Z</time>
      </trkpt>
      <trkpt lat="47.24609" lon="-1.5187">
        <ele>69</ele>
        <time>2021-01-10T12:17:38.000Z</time>
      </trkpt>
      <trkpt lat="47.24619" lon="-1.51875">
        <ele>69</ele>
        <time>2021-01-10T12:17:40.000Z</time>
      </trkpt>
      <trkpt lat="47.2463" lon="-1.5188">
        <ele>70</ele>
        <time>2021-01-10T12:17:42.000Z</time>
      </trkpt>
      <trkpt lat="47.24641" lon="-1.51883">
        <ele>69</ele>
        <time>2021-01-10T12:17:44.000Z</time>
      </trkpt>
      <trkpt lat="47.24652" lon="-1.51883">
        <ele>69</ele>
        <time>2021-01-10T12:17:46.000Z</time>
      </trkpt>
      <trkpt lat="47.24661" lon="-1.51878">
        <ele>69</ele>
        <time>2021-01-10T12:17:48.000Z</time>
      </trkpt>
      <trkpt lat="47.24669" lon="-1.51867">
        <ele>68</ele>
        <time>2021-01-10T12:17:50.000Z</time>
      </trkpt>
      <trkpt lat="47.24676" lon="-1.51855">
        <ele>68</ele>
        <time>2021-01-10T12:17:52.000Z</time>
      </trkpt>
      <trkpt lat="47.24684" lon="-1.51843">
        <ele>68</ele>
        <time>2021-01-10T12:17:54.000Z</time>
      </trkpt>
      <trkpt lat="47.24693" lon="-1.51832">
        <ele>68</ele>
        <time>2021-01-10T12:17:56.000Z</time>
      </trkpt>
      <trkpt lat="47.24702" lon="-1.51822">
        <ele>68</ele>
        <time>2021-01-10T12:17:58.000Z</time>
      </trkpt>
      <trkpt lat="47.2471" lon="-1.51812">
        <ele>68</ele>
        <time>2021-01-10T12:18:00.000Z</time>
      </trkpt>
      <trkpt lat="47.24718" lon="-1.518">
        <ele>68</ele>
        <time>2021-01-10T12:18:02.000Z</time>
      </trkpt>
      <trkpt lat="47.24724" lon="-1.51787">
        <ele>68</ele>
        <time>2021-01-10T12:18:04.000Z</time>
      </trkpt>
      <trkpt lat="47.24729" lon="-1.51773">
        <ele>68</ele>
        <time>2021-01-10T12:18:06.000Z</time>
      </trkpt>
      <trkpt lat="47.24734" lon="-1.5176">
        <ele>68</ele>
        <time>2021-01-10T12:18:08.000Z</time>
      </trkpt>
      <trkpt lat="47.2474" lon="-1.51747">
        <ele>68</ele>
        <time>2021-01-10T12:18:10.000Z</time>
      </trkpt>
      <trkpt lat="47.24746" lon="-1.51734">
        <ele>68</ele>
        <time>2021-01-10T12:18:12.000Z</time>
      </trkpt>
      <trkpt lat="47.24752" lon="-1.51721">
        <ele>68</ele>
        <time>2021-01-10T12:18:14.000Z</time>
      </trkpt>
      <trkpt lat="47.24758" lon="-1.51709">
        <ele>68</ele>
        <time>2021-01-10T12:18:16.000Z</time>
      </trkpt>
      <trkpt lat="47.24764" lon="-1.51697">
        <ele>68</ele>
        <time>2021-01-10T12:18:18.000Z</time>
      </trkpt>
      <trkpt lat="47.24771" lon="-1.51684">
        <ele>68</ele>
        <time>2021-01-10T12:18:20.000Z</time>
      </trkpt>
      <trkpt lat="47.24777" lon="-1.51672">
        <ele>68</ele>
        <time>2021-01-10T12:18:22.000Z</time>
      </trkpt>
      <trkpt lat="47.24783" lon="-1.5166">
        <ele>68</ele>
        <time>2021-01-10T12:18:24.000Z</time>
      </trkpt>
      <trkpt lat="47.2479" lon="-1.51648">
        <ele>68</ele>
        <time>2021-01-10T12:18:26.000Z</time>
      </trkpt>
      <trkpt lat="47.24795" lon="-1.51636">
        <ele>68</ele>
        <time>2021-01-10T12:18:28.000Z</time>
      </trkpt>
      <trkpt lat="47.24804" lon="-1.51622">
        <ele>69</ele>
        <time>2021-01-10T12:18:31.000Z</time>
      </trkpt>
      <trkpt lat="47.24814" lon="-1.51618">
        <ele>70</ele>
        <time>2021-01-10T12:18:34.000Z</time>
      </trkpt>
      <trkpt lat="47.24822" lon="-1.51625">
        <ele>70</ele>
        <time>2021-01-10T12:18:36.000Z</time>
      </trkpt>
      <trkpt lat="47.24831" lon="-1.51637">
        <ele>70</ele>
        <time>2021-01-10T12:18:38.000Z</time>
      </trkpt>
      <trkpt lat="47.24838" lon="-1.5165">
        <ele>70</ele>
        <time>2021-01-10T12:18:40.000Z</time>
      </trkpt>
      <trkpt lat="47.24845" lon="-1.51663">
        <ele>71</ele>
        <time>2021-01-10T12:18:42.000Z</time>
      </trkpt>
      <trkpt lat="47.24852" lon="-1.51675">
        <ele>70</ele>
        <time>2021-01-10T12:18:44.000Z</time>
      </trkpt>
      <trkpt lat="47.24859" lon="-1.51686">
        <ele>71</ele>
        <time>2021-01-10T12:18:46.000Z</time>
      </trkpt>
      <trkpt lat="47.24867" lon="-1.51697">
        <ele>71</ele>
        <time>2021-01-10T12:18:48.000Z</time>
      </trkpt>
      <trkpt lat="47.24874" lon="-1.51708">
        <ele>72</ele>
        <time>2021-01-10T12:18:50.000Z</time>
      </trkpt>
      <trkpt lat="47.24881" lon="-1.51719">
        <ele>71</ele>
        <time>2021-01-10T12:18:52.000Z</time>
      </trkpt>
      <trkpt lat="47.24889" lon="-1.51731">
        <ele>70</ele>
        <time>2021-01-10T12:18:54.000Z</time>
      </trkpt>
      <trkpt lat="47.24898" lon="-1.51738">
        <ele>70</ele>
        <time>2021-01-10T12:18:57.000Z</time>
      </trkpt>
      <trkpt lat="47.24907" lon="-1.51743">
        <ele>71</ele>
        <time>2021-01-10T12:19:00.000Z</time>
      </trkpt>
      <trkpt lat="47.24915" lon="-1.51753">
        <ele>72</ele>
        <time>2021-01-10T12:19:02.000Z</time>
      </trkpt>
      <trkpt lat="47.24923" lon="-1.51765">
        <ele>73</ele>
        <time>2021-01-10T12:19:04.000Z</time>
      </trkpt>
      <trkpt lat="47.24932" lon="-1.51773">
        <ele>73</ele>
        <time>2021-01-10T12:19:06.000Z</time>
      </trkpt>
      <trkpt lat="47.24942" lon="-1.51782">
        <ele>74</ele>
        <time>2021-01-10T12:19:08.000Z</time>
      </trkpt>
      <trkpt lat="47.2495" lon="-1.51793">
        <ele>73</ele>
        <time>2021-01-10T12:19:10.000Z</time>
      </trkpt>
      <trkpt lat="47.24958" lon="-1.51806">
        <ele>73</ele>
        <time>2021-01-10T12:19:12.000Z</time>
      </trkpt>
      <trkpt lat="47.24965" lon="-1.51819">
        <ele>73</ele>
        <time>2021-01-10T12:19:14.000Z</time>
      </trkpt>
      <trkpt lat="47.24973" lon="-1.51833">
        <ele>74</ele>
        <time>2021-01-10T12:19:16.000Z</time>
      </trkpt>
      <trkpt lat="47.24981" lon="-1.51845">
        <ele>74</ele>
        <time>2021-01-10T12:19:18.000Z</time>
      </trkpt>
      <trkpt lat="47.24988" lon="-1.51857">
        <ele>73</ele>
        <time>2021-01-10T12:19:20.000Z</time>
      </trkpt>
      <trkpt lat="47.24996" lon="-1.51868">
        <ele>73</ele>
        <time>2021-01-10T12:19:22.000Z</time>
      </trkpt>
      <trkpt lat="47.25003" lon="-1.5188">
        <ele>73</ele>
        <time>2021-01-10T12:19:24.000Z</time>
      </trkpt>
      <trkpt lat="47.25011" lon="-1.51893">
        <ele>73</ele>
        <time>2021-01-10T12:19:26.000Z</time>
      </trkpt>
      <trkpt lat="47.25019" lon="-1.51902">
        <ele>73</ele>
        <time>2021-01-10T12:19:28.000Z</time>
      </trkpt>
      <trkpt lat="47.25027" lon="-1.51906">
        <ele>74</ele>
        <time>2021-01-10T12:19:30.000Z</time>
      </trkpt>
      <trkpt lat="47.25037" lon="-1.51903">
        <ele>74</ele>
        <time>2021-01-10T12:19:32.000Z</time>
      </trkpt>
      <trkpt lat="47.25045" lon="-1.51894">
        <ele>73</ele>
        <time>2021-01-10T12:19:34.000Z</time>
      </trkpt>
      <trkpt lat="47.25053" lon="-1.51884">
        <ele>73</ele>
        <time>2021-01-10T12:19:36.000Z</time>
      </trkpt>
      <trkpt lat="47.25062" lon="-1.51875">
        <ele>73</ele>
        <time>2021-01-10T12:19:38.000Z</time>
      </trkpt>
      <trkpt lat="47.2507" lon="-1.51865">
        <ele>73</ele>
        <time>2021-01-10T12:19:40.000Z</time>
      </trkpt>
      <trkpt lat="47.25078" lon="-1.51857">
        <ele>73</ele>
        <time>2021-01-10T12:19:42.000Z</time>
      </trkpt>
      <trkpt lat="47.25087" lon="-1.51848">
        <ele>73</ele>
        <time>2021-01-10T12:19:44.000Z</time>
      </trkpt>
      <trkpt lat="47.25095" lon="-1.51839">
        <ele>74</ele>
        <time>2021-01-10T12:19:46.000Z</time>
      </trkpt>
      <trkpt lat="47.25104" lon="-1.5183">
        <ele>73</ele>
        <time>2021-01-10T12:19:48.000Z</time>
      </trkpt>
      <trkpt lat="47.25113" lon="-1.5182">
        <ele>74</ele>
        <time>2021-01-10T12:19:50.000Z</time>
      </trkpt>
      <trkpt lat="47.25121" lon="-1.5181">
        <ele>73</ele>
        <time>2021-01-10T12:19:52.000Z</time>
      </trkpt>
      <trkpt lat="47.25129" lon="-1.518">
        <ele>73</ele>
        <time>2021-01-10T12:19:54.000Z</time>
      </trkpt>
      <trkpt lat="47.25137" lon="-1.51789">
        <ele>72</ele>
        <time>2021-01-10T12:19:56.000Z</time>
      </trkpt>
      <trkpt lat="47.25145" lon="-1.51779">
        <ele>72</ele>
        <time>2021-01-10T12:19:58.000Z</time>
      </trkpt>
      <trkpt lat="47.25152" lon="-1.51769">
        <ele>73</ele>
        <time>2021-01-10T12:20:00.000Z</time>
      </trkpt>
      <trkpt lat="47.25158" lon="-1.5176">
        <ele>73</ele>
        <time>2021-01-10T12:20:02.000Z</time>
      </trkpt>
      <trkpt lat="47.25168" lon="-1.51748">
        <ele>73</ele>
        <time>2021-01-10T12:20:05.000Z</time>
      </trkpt>
      <trkpt lat="47.25177" lon="-1.51743">
        <ele>73</ele>
        <time>2021-01-10T12:20:07.000Z</time>
      </trkpt>
      <trkpt lat="47.25186" lon="-1.51737">
        <ele>73</ele>
        <time>2021-01-10T12:20:09.000Z</time>
      </trkpt>
      <trkpt lat="47.25194" lon="-1.51729">
        <ele>73</ele>
        <time>2021-01-10T12:20:11.000Z</time>
      </trkpt>
      <trkpt lat="47.25202" lon="-1.51718">
        <ele>74</ele>
        <time>2021-01-10T12:20:14.000Z</time>
      </trkpt>
      <trkpt lat="47.2521" lon="-1.51708">
        <ele>74</ele>
        <time>2021-01-10T12:20:18.000Z</time>
      </trkpt>
      <trkpt lat="47.2522" lon="-1.51705">
        <ele>75</ele>
        <time>2021-01-10T12:21:12.000Z</time>
      </trkpt>
      <trkpt lat="47.2523" lon="-1.51706">
        <ele>75</ele>
        <time>2021-01-10T12:21:14.000Z</time>
      </trkpt>
      <trkpt lat="47.2524" lon="-1.51712">
        <ele>75</ele>
        <time>2021-01-10T12:21:16.000Z</time>
      </trkpt>
      <trkpt lat="47.25251" lon="-1.51716">
        <ele>75</ele>
        <time>2021-01-10T12:21:18.000Z</time>
      </trkpt>
      <trkpt lat="47.25262" lon="-1.5172">
        <ele>76</ele>
        <time>2021-01-10T12:21:20.000Z</time>
      </trkpt>
      <trkpt lat="47.25273" lon="-1.51726">
        <ele>76</ele>
        <time>2021-01-10T12:21:22.000Z</time>
      </trkpt>
      <trkpt lat="47.25284" lon="-1.51731">
        <ele>77</ele>
        <time>2021-01-10T12:21:24.000Z</time>
      </trkpt>
      <trkpt lat="47.25296" lon="-1.51735">
        <ele>78</ele>
        <time>2021-01-10T12:21:26.000Z</time>
      </trkpt>
      <trkpt lat="47.25308" lon="-1.51737">
        <ele>79</ele>
        <time>2021-01-10T12:21:28.000Z</time>
      </trkpt>
      <trkpt lat="47.25319" lon="-1.51741">
        <ele>80</ele>
        <time>2021-01-10T12:21:30.000Z</time>
      </trkpt>
      <trkpt lat="47.25331" lon="-1.51745">
        <ele>79</ele>
        <time>2021-01-10T12:21:32.000Z</time>
      </trkpt>
      <trkpt lat="47.25342" lon="-1.51748">
        <ele>79</ele>
        <time>2021-01-10T12:21:34.000Z</time>
      </trkpt>
      <trkpt lat="47.25353" lon="-1.51751">
        <ele>79</ele>
        <time>2021-01-10T12:21:36.000Z</time>
      </trkpt>
      <trkpt lat="47.25364" lon="-1.51754">
        <ele>80</ele>
        <time>2021-01-10T12:21:38.000Z</time>
      </trkpt>
      <trkpt lat="47.25375" lon="-1.51758">
        <ele>79</ele>
        <time>2021-01-10T12:21:40.000Z</time>
      </trkpt>
      <trkpt lat="47.25387" lon="-1.51763">
        <ele>79</ele>
        <time>2021-01-10T12:21:42.000Z</time>
      </trkpt>
      <trkpt lat="47.25401" lon="-1.51766">
        <ele>78</ele>
        <time>2021-01-10T12:21:44.000Z</time>
      </trkpt>
      <trkpt lat="47.25414" lon="-1.51765">
        <ele>78</ele>
        <time>2021-01-10T12:21:46.000Z</time>
      </trkpt>
      <trkpt lat="47.25425" lon="-1.51756">
        <ele>78</ele>
        <time>2021-01-10T12:21:48.000Z</time>
      </trkpt>
      <trkpt lat="47.25436" lon="-1.51747">
        <ele>78</ele>
        <time>2021-01-10T12:21:50.000Z</time>
      </trkpt>
      <trkpt lat="47.25447" lon="-1.51738">
        <ele>78</ele>
        <time>2021-01-10T12:21:52.000Z</time>
      </trkpt>
      <trkpt lat="47.25458" lon="-1.5173">
        <ele>78</ele>
        <time>2021-01-10T12:21:54.000Z</time>
      </trkpt>
      <trkpt lat="47.25468" lon="-1.51722">
        <ele>78</ele>
        <time>2021-01-10T12:21:56.000Z</time>
      </trkpt>
      <trkpt lat="47.25478" lon="-1.51714">
        <ele>78</ele>
        <time>2021-01-10T12:21:58.000Z</time>
      </trkpt>
      <trkpt lat="47.25489" lon="-1.51706">
        <ele>78</ele>
        <time>2021-01-10T12:22:00.000Z</time>
      </trkpt>
      <trkpt lat="47.25499" lon="-1.51697">
        <ele>79</ele>
        <time>2021-01-10T12:22:02.000Z</time>
      </trkpt>
      <trkpt lat="47.25509" lon="-1.51688">
        <ele>79</ele>
        <time>2021-01-10T12:22:04.000Z</time>
      </trkpt>
      <trkpt lat="47.25519" lon="-1.5168">
        <ele>78</ele>
        <time>2021-01-10T12:22:06.000Z</time>
      </trkpt>
      <trkpt lat="47.2553" lon="-1.51672">
        <ele>78</ele>
        <time>2021-01-10T12:22:08.000Z</time>
      </trkpt>
      <trkpt lat="47.2554" lon="-1.51662">
        <ele>78</ele>
        <time>2021-01-10T12:22:10.000Z</time>
      </trkpt>
      <trkpt lat="47.25551" lon="-1.51655">
        <ele>78</ele>
        <time>2021-01-10T12:22:12.000Z</time>
      </trkpt>
      <trkpt lat="47.2556" lon="-1.51647">
        <ele>78</ele>
        <time>2021-01-10T12:22:14.000Z</time>
      </trkpt>
      <trkpt lat="47.2557" lon="-1.51638">
        <ele>78</ele>
        <time>2021-01-10T12:22:16.000Z</time>
      </trkpt>
      <trkpt lat="47.2558" lon="-1.51629">
        <ele>78</ele>
        <time>2021-01-10T12:22:18.000Z</time>
      </trkpt>
      <trkpt lat="47.2559" lon="-1.51623">
        <ele>79</ele>
        <time>2021-01-10T12:22:20.000Z</time>
      </trkpt>
      <trkpt lat="47.25601" lon="-1.51615">
        <ele>81</ele>
        <time>2021-01-10T12:22:22.000Z</time>
      </trkpt>
      <trkpt lat="47.25611" lon="-1.51607">
        <ele>81</ele>
        <time>2021-01-10T12:22:24.000Z</time>
      </trkpt>
      <trkpt lat="47.25621" lon="-1.51599">
        <ele>80</ele>
        <time>2021-01-10T12:22:26.000Z</time>
      </trkpt>
      <trkpt lat="47.25631" lon="-1.5159">
        <ele>80</ele>
        <time>2021-01-10T12:22:28.000Z</time>
      </trkpt>
      <trkpt lat="47.2564" lon="-1.5158">
        <ele>80</ele>
        <time>2021-01-10T12:22:30.000Z</time>
      </trkpt>
      <trkpt lat="47.25649" lon="-1.51573">
        <ele>80</ele>
        <time>2021-01-10T12:22:32.000Z</time>
      </trkpt>
      <trkpt lat="47.25658" lon="-1.51566">
        <ele>80</ele>
        <time>2021-01-10T12:22:34.000Z</time>
      </trkpt>
      <trkpt lat="47.25668" lon="-1.51559">
        <ele>80</ele>
        <time>2021-01-10T12:22:36.000Z</time>
      </trkpt>
      <trkpt lat="47.25677" lon="-1.51551">
        <ele>79</ele>
        <time>2021-01-10T12:22:38.000Z</time>
      </trkpt>
      <trkpt lat="47.25686" lon="-1.51543">
        <ele>79</ele>
        <time>2021-01-10T12:22:40.000Z</time>
      </trkpt>
      <trkpt lat="47.25695" lon="-1.51534">
        <ele>79</ele>
        <time>2021-01-10T12:22:42.000Z</time>
      </trkpt>
      <trkpt lat="47.25705" lon="-1.51527">
        <ele>79</ele>
        <time>2021-01-10T12:22:44.000Z</time>
      </trkpt>
      <trkpt lat="47.25714" lon="-1.51519">
        <ele>80</ele>
        <time>2021-01-10T12:22:46.000Z</time>
      </trkpt>
      <trkpt lat="47.25724" lon="-1.51513">
        <ele>80</ele>
        <time>2021-01-10T12:22:48.000Z</time>
      </trkpt>
      <trkpt lat="47.25734" lon="-1.51509">
        <ele>80</ele>
        <time>2021-01-10T12:22:50.000Z</time>
      </trkpt>
      <trkpt lat="47.25745" lon="-1.51506">
        <ele>79</ele>
        <time>2021-01-10T12:22:52.000Z</time>
      </trkpt>
      <trkpt lat="47.25757" lon="-1.51506">
        <ele>80</ele>
        <time>2021-01-10T12:22:54.000Z</time>
      </trkpt>
      <trkpt lat="47.25768" lon="-1.51508">
        <ele>80</ele>
        <time>2021-01-10T12:22:56.000Z</time>
      </trkpt>
      <trkpt lat="47.25779" lon="-1.51509">
        <ele>80</ele>
        <time>2021-01-10T12:22:58.000Z</time>
      </trkpt>
      <trkpt lat="47.2579" lon="-1.51512">
        <ele>80</ele>
        <time>2021-01-10T12:23:00.000Z</time>
      </trkpt>
      <trkpt lat="47.25801" lon="-1.51511">
        <ele>80</ele>
        <time>2021-01-10T12:23:02.000Z</time>
      </trkpt>
      <trkpt lat="47.25811" lon="-1.51505">
        <ele>80</ele>
        <time>2021-01-10T12:23:04.000Z</time>
      </trkpt>
      <trkpt lat="47.25819" lon="-1.51493">
        <ele>80</ele>
        <time>2021-01-10T12:23:06.000Z</time>
      </trkpt>
      <trkpt lat="47.25824" lon="-1.51479">
        <ele>80</ele>
        <time>2021-01-10T12:23:08.000Z</time>
      </trkpt>
      <trkpt lat="47.25827" lon="-1.51463">
        <ele>80</ele>
        <time>2021-01-10T12:23:10.000Z</time>
      </trkpt>
      <trkpt lat="47.2583" lon="-1.51446">
        <ele>80</ele>
        <time>2021-01-10T12:23:12.000Z</time>
      </trkpt>
      <trkpt lat="47.25832" lon="-1.5143">
        <ele>80</ele>
        <time>2021-01-10T12:23:14.000Z</time>
      </trkpt>
      <trkpt lat="47.25836" lon="-1.51412">
        <ele>79</ele>
        <time>2021-01-10T12:23:16.000Z</time>
      </trkpt>
      <trkpt lat="47.2584" lon="-1.51395">
        <ele>79</ele>
        <time>2021-01-10T12:23:18.000Z</time>
      </trkpt>
      <trkpt lat="47.25843" lon="-1.51377">
        <ele>79</ele>
        <time>2021-01-10T12:23:20.000Z</time>
      </trkpt>
      <trkpt lat="47.25847" lon="-1.51361">
        <ele>79</ele>
        <time>2021-01-10T12:23:22.000Z</time>
      </trkpt>
      <trkpt lat="47.25851" lon="-1.51344">
        <ele>79</ele>
        <time>2021-01-10T12:23:24.000Z</time>
      </trkpt>
      <trkpt lat="47.25856" lon="-1.51328">
        <ele>80</ele>
        <time>2021-01-10T12:23:26.000Z</time>
      </trkpt>
      <trkpt lat="47.25861" lon="-1.51311">
        <ele>80</ele>
        <time>2021-01-10T12:23:28.000Z</time>
      </trkpt>
      <trkpt lat="47.25868" lon="-1.51296">
        <ele>81</ele>
        <time>2021-01-10T12:23:30.000Z</time>
      </trkpt>
      <trkpt lat="47.25874" lon="-1.5128">
        <ele>80</ele>
        <time>2021-01-10T12:23:32.000Z</time>
      </trkpt>
      <trkpt lat="47.2588" lon="-1.51265">
        <ele>80</ele>
        <time>2021-01-10T12:23:34.000Z</time>
      </trkpt>
      <trkpt lat="47.25885" lon="-1.51249">
        <ele>80</ele>
        <time>2021-01-10T12:23:36.000Z</time>
      </trkpt>
      <trkpt lat="47.25892" lon="-1.51234">
        <ele>80</ele>
        <time>2021-01-10T12:23:38.000Z</time>
      </trkpt>
      <trkpt lat="47.25899" lon="-1.51217">
        <ele>79</ele>
        <time>2021-01-10T12:23:40.000Z</time>
      </trkpt>
      <trkpt lat="47.25906" lon="-1.51201">
        <ele>79</ele>
        <time>2021-01-10T12:23:42.000Z</time>
      </trkpt>
      <trkpt lat="47.25915" lon="-1.51187">
        <ele>80</ele>
        <time>2021-01-10T12:23:44.000Z</time>
      </trkpt>
      <trkpt lat="47.25924" lon="-1.51173">
        <ele>80</ele>
        <time>2021-01-10T12:23:46.000Z</time>
      </trkpt>
      <trkpt lat="47.25932" lon="-1.51157">
        <ele>80</ele>
        <time>2021-01-10T12:23:48.000Z</time>
      </trkpt>
      <trkpt lat="47.25939" lon="-1.51139">
        <ele>79</ele>
        <time>2021-01-10T12:23:50.000Z</time>
      </trkpt>
      <trkpt lat="47.2594" lon="-1.51119">
        <ele>79</ele>
        <time>2021-01-10T12:23:52.000Z</time>
      </trkpt>
      <trkpt lat="47.25948" lon="-1.51104">
        <ele>79</ele>
        <time>2021-01-10T12:23:54.000Z</time>
      </trkpt>
      <trkpt lat="47.25961" lon="-1.51096">
        <ele>79</ele>
        <time>2021-01-10T12:23:56.000Z</time>
      </trkpt>
      <trkpt lat="47.25972" lon="-1.51083">
        <ele>80</ele>
        <time>2021-01-10T12:23:58.000Z</time>
      </trkpt>
      <trkpt lat="47.25981" lon="-1.51067">
        <ele>79</ele>
        <time>2021-01-10T12:24:00.000Z</time>
      </trkpt>
      <trkpt lat="47.25988" lon="-1.51049">
        <ele>79</ele>
        <time>2021-01-10T12:24:02.000Z</time>
      </trkpt>
      <trkpt lat="47.25995" lon="-1.51033">
        <ele>78</ele>
        <time>2021-01-10T12:24:04.000Z</time>
      </trkpt>
      <trkpt lat="47.26003" lon="-1.51017">
        <ele>78</ele>
        <time>2021-01-10T12:24:06.000Z</time>
      </trkpt>
      <trkpt lat="47.26011" lon="-1.51002">
        <ele>78</ele>
        <time>2021-01-10T12:24:08.000Z</time>
      </trkpt>
      <trkpt lat="47.26019" lon="-1.50987">
        <ele>77</ele>
        <time>2021-01-10T12:24:10.000Z</time>
      </trkpt>
      <trkpt lat="47.26029" lon="-1.50974">
        <ele>76</ele>
        <time>2021-01-10T12:24:12.000Z</time>
      </trkpt>
      <trkpt lat="47.26038" lon="-1.5096">
        <ele>75</ele>
        <time>2021-01-10T12:24:14.000Z</time>
      </trkpt>
      <trkpt lat="47.26047" lon="-1.50948">
        <ele>75</ele>
        <time>2021-01-10T12:24:16.000Z</time>
      </trkpt>
      <trkpt lat="47.26057" lon="-1.50935">
        <ele>75</ele>
        <time>2021-01-10T12:24:18.000Z</time>
      </trkpt>
      <trkpt lat="47.26066" lon="-1.50923">
        <ele>75</ele>
        <time>2021-01-10T12:24:20.000Z</time>
      </trkpt>
      <trkpt lat="47.26076" lon="-1.50911">
        <ele>75</ele>
        <time>2021-01-10T12:24:22.000Z</time>
      </trkpt>
      <trkpt lat="47.26086" lon="-1.509">
        <ele>75</ele>
        <time>2021-01-10T12:24:24.000Z</time>
      </trkpt>
      <trkpt lat="47.26097" lon="-1.50889">
        <ele>75</ele>
        <time>2021-01-10T12:24:26.000Z</time>
      </trkpt>
      <trkpt lat="47.26107" lon="-1.50879">
        <ele>75</ele>
        <time>2021-01-10T12:24:28.000Z</time>
      </trkpt>
      <trkpt lat="47.26117" lon="-1.50869">
        <ele>75</ele>
        <time>2021-01-10T12:24:30.000Z</time>
      </trkpt>
      <trkpt lat="47.26128" lon="-1.5086">
        <ele>75</ele>
        <time>2021-01-10T12:24:32.000Z</time>
      </trkpt>
      <trkpt lat="47.26138" lon="-1.5085">
        <ele>76</ele>
        <time>2021-01-10T12:24:34.000Z</time>
      </trkpt>
      <trkpt lat="47.26149" lon="-1.50842">
        <ele>76</ele>
        <time>2021-01-10T12:24:36.000Z</time>
      </trkpt>
      <trkpt lat="47.2616" lon="-1.50833">
        <ele>76</ele>
        <time>2021-01-10T12:24:38.000Z</time>
      </trkpt>
      <trkpt lat="47.2617" lon="-1.50826">
        <ele>76</ele>
        <time>2021-01-10T12:24:40.000Z</time>
      </trkpt>
      <trkpt lat="47.2618" lon="-1.5082">
        <ele>77</ele>
        <time>2021-01-10T12:24:42.000Z</time>
      </trkpt>
      <trkpt lat="47.26191" lon="-1.50814">
        <ele>77</ele>
        <time>2021-01-10T12:24:44.000Z</time>
      </trkpt>
      <trkpt lat="47.26202" lon="-1.50808">
        <ele>77</ele>
        <time>2021-01-10T12:24:46.000Z</time>
      </trkpt>
      <trkpt lat="47.26212" lon="-1.50802">
        <ele>77</ele>
        <time>2021-01-10T12:24:48.000Z</time>
      </trkpt>
      <trkpt lat="47.26223" lon="-1.50796">
        <ele>77</ele>
        <time>2021-01-10T12:24:50.000Z</time>
      </trkpt>
      <trkpt lat="47.26233" lon="-1.50789">
        <ele>77</ele>
        <time>2021-01-10T12:24:52.000Z</time>
      </trkpt>
      <trkpt lat="47.26243" lon="-1.50783">
        <ele>77</ele>
        <time>2021-01-10T12:24:54.000Z</time>
      </trkpt>
      <trkpt lat="47.26253" lon="-1.50776">
        <ele>77</ele>
        <time>2021-01-10T12:24:56.000Z</time>
      </trkpt>
      <trkpt lat="47.26263" lon="-1.5077">
        <ele>77</ele>
        <time>2021-01-10T12:24:58.000Z</time>
      </trkpt>
      <trkpt lat="47.26273" lon="-1.50764">
        <ele>77</ele>
        <time>2021-01-10T12:25:00.000Z</time>
      </trkpt>
      <trkpt lat="47.26284" lon="-1.50758">
        <ele>78</ele>
        <time>2021-01-10T12:25:02.000Z</time>
      </trkpt>
      <trkpt lat="47.26294" lon="-1.50752">
        <ele>78</ele>
        <time>2021-01-10T12:25:04.000Z</time>
      </trkpt>
      <trkpt lat="47.26304" lon="-1.50746">
        <ele>78</ele>
        <time>2021-01-10T12:25:06.000Z</time>
      </trkpt>
      <trkpt lat="47.26313" lon="-1.50739">
        <ele>78</ele>
        <time>2021-01-10T12:25:08.000Z</time>
      </trkpt>
      <trkpt lat="47.26323" lon="-1.50732">
        <ele>78</ele>
        <time>2021-01-10T12:25:10.000Z</time>
      </trkpt>
      <trkpt lat="47.26332" lon="-1.50726">
        <ele>78</ele>
        <time>2021-01-10T12:25:12.000Z</time>
      </trkpt>
      <trkpt lat="47.26338" lon="-1.50714">
        <ele>77</ele>
        <time>2021-01-10T12:25:14.000Z</time>
      </trkpt>
      <trkpt lat="47.26343" lon="-1.50701">
        <ele>77</ele>
        <time>2021-01-10T12:25:16.000Z</time>
      </trkpt>
      <trkpt lat="47.26353" lon="-1.50695">
        <ele>77</ele>
        <time>2021-01-10T12:25:18.000Z</time>
      </trkpt>
      <trkpt lat="47.26364" lon="-1.50696">
        <ele>78</ele>
        <time>2021-01-10T12:25:20.000Z</time>
      </trkpt>
      <trkpt lat="47.26375" lon="-1.50697">
        <ele>78</ele>
        <time>2021-01-10T12:25:22.000Z</time>
      </trkpt>
      <trkpt lat="47.26386" lon="-1.50692">
        <ele>78</ele>
        <time>2021-01-10T12:25:24.000Z</time>
      </trkpt>
      <trkpt lat="47.26395" lon="-1.50683">
        <ele>78</ele>
        <time>2021-01-10T12:25:26.000Z</time>
      </trkpt>
      <trkpt lat="47.26403" lon="-1.50674">
        <ele>78</ele>
        <time>2021-01-10T12:25:28.000Z</time>
      </trkpt>
      <trkpt lat="47.26412" lon="-1.50665">
        <ele>78</ele>
        <time>2021-01-10T12:25:30.000Z</time>
      </trkpt>
      <trkpt lat="47.2642" lon="-1.50654">
        <ele>78</ele>
        <time>2021-01-10T12:25:32.000Z</time>
      </trkpt>
      <trkpt lat="47.26428" lon="-1.50643">
        <ele>78</ele>
        <time>2021-01-10T12:25:34.000Z</time>
      </trkpt>
      <trkpt lat="47.26435" lon="-1.50633">
        <ele>78</ele>
        <time>2021-01-10T12:25:36.000Z</time>
      </trkpt>
      <trkpt lat="47.26443" lon="-1.50621">
        <ele>78</ele>
        <time>2021-01-10T12:25:38.000Z</time>
      </trkpt>
      <trkpt lat="47.2645" lon="-1.5061">
        <ele>78</ele>
        <time>2021-01-10T12:25:40.000Z</time>
      </trkpt>
      <trkpt lat="47.26458" lon="-1.50599">
        <ele>78</ele>
        <time>2021-01-10T12:25:42.000Z</time>
      </trkpt>
      <trkpt lat="47.26466" lon="-1.50588">
        <ele>78</ele>
        <time>2021-01-10T12:25:44.000Z</time>
      </trkpt>
      <trkpt lat="47.26473" lon="-1.50576">
        <ele>78</ele>
        <time>2021-01-10T12:25:46.000Z</time>
      </trkpt>
      <trkpt lat="47.26481" lon="-1.50564">
        <ele>79</ele>
        <time>2021-01-10T12:25:48.000Z</time>
      </trkpt>
      <trkpt lat="47.26488" lon="-1.50552">
        <ele>78</ele>
        <time>2021-01-10T12:25:50.000Z</time>
      </trkpt>
      <trkpt lat="47.26495" lon="-1.5054">
        <ele>78</ele>
        <time>2021-01-10T12:25:52.000Z</time>
      </trkpt>
      <trkpt lat="47.26503" lon="-1.50529">
        <ele>78</ele>
        <time>2021-01-10T12:25:54.000Z</time>
      </trkpt>
      <trkpt lat="47.26511" lon="-1.50519">
        <ele>78</ele>
        <time>2021-01-10T12:25:56.000Z</time>
      </trkpt>
      <trkpt lat="47.26519" lon="-1.50507">
        <ele>78</ele>
        <time>2021-01-10T12:25:58.000Z</time>
      </trkpt>
      <trkpt lat="47.26526" lon="-1.50496">
        <ele>78</ele>
        <time>2021-01-10T12:26:00.000Z</time>
      </trkpt>
      <trkpt lat="47.26534" lon="-1.50484">
        <ele>77</ele>
        <time>2021-01-10T12:26:02.000Z</time>
      </trkpt>
      <trkpt lat="47.26541" lon="-1.50473">
        <ele>78</ele>
        <time>2021-01-10T12:26:04.000Z</time>
      </trkpt>
      <trkpt lat="47.26549" lon="-1.50461">
        <ele>78</ele>
        <time>2021-01-10T12:26:06.000Z</time>
      </trkpt>
      <trkpt lat="47.26557" lon="-1.5045">
        <ele>79</ele>
        <time>2021-01-10T12:26:08.000Z</time>
      </trkpt>
      <trkpt lat="47.26565" lon="-1.50439">
        <ele>78</ele>
        <time>2021-01-10T12:26:10.000Z</time>
      </trkpt>
      <trkpt lat="47.26573" lon="-1.50427">
        <ele>78</ele>
        <time>2021-01-10T12:26:12.000Z</time>
      </trkpt>
      <trkpt lat="47.26581" lon="-1.50417">
        <ele>78</ele>
        <time>2021-01-10T12:26:14.000Z</time>
      </trkpt>
      <trkpt lat="47.26588" lon="-1.50405">
        <ele>79</ele>
        <time>2021-01-10T12:26:16.000Z</time>
      </trkpt>
      <trkpt lat="47.26596" lon="-1.50394">
        <ele>79</ele>
        <time>2021-01-10T12:26:18.000Z</time>
      </trkpt>
      <trkpt lat="47.26604" lon="-1.50382">
        <ele>79</ele>
        <time>2021-01-10T12:26:20.000Z</time>
      </trkpt>
      <trkpt lat="47.26612" lon="-1.5037">
        <ele>79</ele>
        <time>2021-01-10T12:26:22.000Z</time>
      </trkpt>
      <trkpt lat="47.2662" lon="-1.50358">
        <ele>78</ele>
        <time>2021-01-10T12:26:24.000Z</time>
      </trkpt>
      <trkpt lat="47.26629" lon="-1.50348">
        <ele>78</ele>
        <time>2021-01-10T12:26:26.000Z</time>
      </trkpt>
      <trkpt lat="47.26639" lon="-1.50338">
        <ele>79</ele>
        <time>2021-01-10T12:26:28.000Z</time>
      </trkpt>
      <trkpt lat="47.26649" lon="-1.50327">
        <ele>78</ele>
        <time>2021-01-10T12:26:30.000Z</time>
      </trkpt>
      <trkpt lat="47.26656" lon="-1.50314">
        <ele>78</ele>
        <time>2021-01-10T12:26:32.000Z</time>
      </trkpt>
      <trkpt lat="47.26665" lon="-1.50305">
        <ele>78</ele>
        <time>2021-01-10T12:26:34.000Z</time>
      </trkpt>
      <trkpt lat="47.26676" lon="-1.50299">
        <ele>78</ele>
        <time>2021-01-10T12:26:36.000Z</time>
      </trkpt>
      <trkpt lat="47.26687" lon="-1.50293">
        <ele>78</ele>
        <time>2021-01-10T12:26:38.000Z</time>
      </trkpt>
      <trkpt lat="47.26697" lon="-1.50283">
        <ele>78</ele>
        <time>2021-01-10T12:26:40.000Z</time>
      </trkpt>
      <trkpt lat="47.26707" lon="-1.50275">
        <ele>78</ele>
        <time>2021-01-10T12:26:42.000Z</time>
      </trkpt>
      <trkpt lat="47.26718" lon="-1.50267">
        <ele>78</ele>
        <time>2021-01-10T12:26:44.000Z</time>
      </trkpt>
      <trkpt lat="47.26728" lon="-1.50262">
        <ele>78</ele>
        <time>2021-01-10T12:26:46.000Z</time>
      </trkpt>
      <trkpt lat="47.26739" lon="-1.50255">
        <ele>79</ele>
        <time>2021-01-10T12:26:48.000Z</time>
      </trkpt>
      <trkpt lat="47.26749" lon="-1.50249">
        <ele>79</ele>
        <time>2021-01-10T12:26:50.000Z</time>
      </trkpt>
      <trkpt lat="47.2676" lon="-1.50243">
        <ele>79</ele>
        <time>2021-01-10T12:26:52.000Z</time>
      </trkpt>
      <trkpt lat="47.2677" lon="-1.50235">
        <ele>80</ele>
        <time>2021-01-10T12:26:54.000Z</time>
      </trkpt>
      <trkpt lat="47.2678" lon="-1.50229">
        <ele>80</ele>
        <time>2021-01-10T12:26:56.000Z</time>
      </trkpt>
      <trkpt lat="47.26791" lon="-1.50223">
        <ele>80</ele>
        <time>2021-01-10T12:26:58.000Z</time>
      </trkpt>
      <trkpt lat="47.26801" lon="-1.50216">
        <ele>80</ele>
        <time>2021-01-10T12:27:00.000Z</time>
      </trkpt>
      <trkpt lat="47.26812" lon="-1.50211">
        <ele>80</ele>
        <time>2021-01-10T12:27:02.000Z</time>
      </trkpt>
      <trkpt lat="47.26822" lon="-1.50205">
        <ele>79</ele>
        <time>2021-01-10T12:27:04.000Z</time>
      </trkpt>
      <trkpt lat="47.26832" lon="-1.50199">
        <ele>79</ele>
        <time>2021-01-10T12:27:06.000Z</time>
      </trkpt>
      <trkpt lat="47.26841" lon="-1.50191">
        <ele>79</ele>
        <time>2021-01-10T12:27:08.000Z</time>
      </trkpt>
      <trkpt lat="47.26852" lon="-1.50186">
        <ele>79</ele>
        <time>2021-01-10T12:27:10.000Z</time>
      </trkpt>
      <trkpt lat="47.26863" lon="-1.50181">
        <ele>79</ele>
        <time>2021-01-10T12:27:12.000Z</time>
      </trkpt>
      <trkpt lat="47.26874" lon="-1.50176">
        <ele>79</ele>
        <time>2021-01-10T12:27:14.000Z</time>
      </trkpt>
      <trkpt lat="47.26884" lon="-1.50171">
        <ele>79</ele>
        <time>2021-01-10T12:27:16.000Z</time>
      </trkpt>
      <trkpt lat="47.26895" lon="-1.50168">
        <ele>79</ele>
        <time>2021-01-10T12:27:18.000Z</time>
      </trkpt>
      <trkpt lat="47.26906" lon="-1.50164">
        <ele>79</ele>
        <time>2021-01-10T12:27:20.000Z</time>
      </trkpt>
      <trkpt lat="47.26917" lon="-1.50157">
        <ele>79</ele>
        <time>2021-01-10T12:27:22.000Z</time>
      </trkpt>
      <trkpt lat="47.26926" lon="-1.50146">
        <ele>79</ele>
        <time>2021-01-10T12:27:24.000Z</time>
      </trkpt>
      <trkpt lat="47.26934" lon="-1.5014">
        <ele>78</ele>
        <time>2021-01-10T12:27:26.000Z</time>
      </trkpt>
      <trkpt lat="47.26946" lon="-1.50141">
        <ele>78</ele>
        <time>2021-01-10T12:27:28.000Z</time>
      </trkpt>
      <trkpt lat="47.26959" lon="-1.50139">
        <ele>77</ele>
        <time>2021-01-10T12:27:30.000Z</time>
      </trkpt>
      <trkpt lat="47.2697" lon="-1.50134">
        <ele>77</ele>
        <time>2021-01-10T12:27:32.000Z</time>
      </trkpt>
      <trkpt lat="47.26979" lon="-1.50128">
        <ele>77</ele>
        <time>2021-01-10T12:27:34.000Z</time>
      </trkpt>
      <trkpt lat="47.2699" lon="-1.50121">
        <ele>77</ele>
        <time>2021-01-10T12:27:36.000Z</time>
      </trkpt>
      <trkpt lat="47.27" lon="-1.50114">
        <ele>77</ele>
        <time>2021-01-10T12:27:38.000Z</time>
      </trkpt>
      <trkpt lat="47.27011" lon="-1.50106">
        <ele>77</ele>
        <time>2021-01-10T12:27:40.000Z</time>
      </trkpt>
      <trkpt lat="47.27021" lon="-1.50098">
        <ele>77</ele>
        <time>2021-01-10T12:27:42.000Z</time>
      </trkpt>
      <trkpt lat="47.2703" lon="-1.50089">
        <ele>77</ele>
        <time>2021-01-10T12:27:44.000Z</time>
      </trkpt>
      <trkpt lat="47.2704" lon="-1.50079">
        <ele>77</ele>
        <time>2021-01-10T12:27:46.000Z</time>
      </trkpt>
      <trkpt lat="47.27049" lon="-1.50071">
        <ele>77</ele>
        <time>2021-01-10T12:27:48.000Z</time>
      </trkpt>
      <trkpt lat="47.27059" lon="-1.50064">
        <ele>76</ele>
        <time>2021-01-10T12:27:50.000Z</time>
      </trkpt>
      <trkpt lat="47.27068" lon="-1.50056">
        <ele>76</ele>
        <time>2021-01-10T12:27:52.000Z</time>
      </trkpt>
      <trkpt lat="47.27078" lon="-1.50048">
        <ele>76</ele>
        <time>2021-01-10T12:27:54.000Z</time>
      </trkpt>
      <trkpt lat="47.27088" lon="-1.50039">
        <ele>76</ele>
        <time>2021-01-10T12:27:56.000Z</time>
      </trkpt>
      <trkpt lat="47.27098" lon="-1.50031">
        <ele>76</ele>
        <time>2021-01-10T12:27:58.000Z</time>
      </trkpt>
      <trkpt lat="47.27108" lon="-1.50022">
        <ele>76</ele>
        <time>2021-01-10T12:28:00.000Z</time>
      </trkpt>
      <trkpt lat="47.27117" lon="-1.50014">
        <ele>76</ele>
        <time>2021-01-10T12:28:02.000Z</time>
      </trkpt>
      <trkpt lat="47.27126" lon="-1.50006">
        <ele>76</ele>
        <time>2021-01-10T12:28:04.000Z</time>
      </trkpt>
      <trkpt lat="47.27136" lon="-1.49997">
        <ele>76</ele>
        <time>2021-01-10T12:28:06.000Z</time>
      </trkpt>
      <trkpt lat="47.27147" lon="-1.49989">
        <ele>75</ele>
        <time>2021-01-10T12:28:08.000Z</time>
      </trkpt>
      <trkpt lat="47.27158" lon="-1.49982">
        <ele>74</ele>
        <time>2021-01-10T12:28:10.000Z</time>
      </trkpt>
      <trkpt lat="47.27168" lon="-1.49975">
        <ele>74</ele>
        <time>2021-01-10T12:28:12.000Z</time>
      </trkpt>
      <trkpt lat="47.27178" lon="-1.49966">
        <ele>74</ele>
        <time>2021-01-10T12:28:14.000Z</time>
      </trkpt>
      <trkpt lat="47.27188" lon="-1.49956">
        <ele>75</ele>
        <time>2021-01-10T12:28:16.000Z</time>
      </trkpt>
      <trkpt lat="47.27199" lon="-1.49948">
        <ele>74</ele>
        <time>2021-01-10T12:28:18.000Z</time>
      </trkpt>
      <trkpt lat="47.2721" lon="-1.49939">
        <ele>74</ele>
        <time>2021-01-10T12:28:20.000Z</time>
      </trkpt>
      <trkpt lat="47.2722" lon="-1.49932">
        <ele>74</ele>
        <time>2021-01-10T12:28:22.000Z</time>
      </trkpt>
      <trkpt lat="47.27231" lon="-1.49926">
        <ele>74</ele>
        <time>2021-01-10T12:28:24.000Z</time>
      </trkpt>
      <trkpt lat="47.27242" lon="-1.4992">
        <ele>74</ele>
        <time>2021-01-10T12:28:26.000Z</time>
      </trkpt>
      <trkpt lat="47.27252" lon="-1.49913">
        <ele>74</ele>
        <time>2021-01-10T12:28:28.000Z</time>
      </trkpt>
      <trkpt lat="47.27264" lon="-1.49907">
        <ele>73</ele>
        <time>2021-01-10T12:28:30.000Z</time>
      </trkpt>
      <trkpt lat="47.27276" lon="-1.49902">
        <ele>74</ele>
        <time>2021-01-10T12:28:32.000Z</time>
      </trkpt>
      <trkpt lat="47.27287" lon="-1.49897">
        <ele>74</ele>
        <time>2021-01-10T12:28:34.000Z</time>
      </trkpt>
      <trkpt lat="47.27299" lon="-1.49891">
        <ele>74</ele>
        <time>2021-01-10T12:28:36.000Z</time>
      </trkpt>
      <trkpt lat="47.2731" lon="-1.49885">
        <ele>74</ele>
        <time>2021-01-10T12:28:38.000Z</time>
      </trkpt>
      <trkpt lat="47.27321" lon="-1.49878">
        <ele>74</ele>
        <time>2021-01-10T12:28:40.000Z</time>
      </trkpt>
      <trkpt lat="47.27332" lon="-1.49873">
        <ele>74</ele>
        <time>2021-01-10T12:28:42.000Z</time>
      </trkpt>
      <trkpt lat="47.27343" lon="-1.49868">
        <ele>75</ele>
        <time>2021-01-10T12:28:44.000Z</time>
      </trkpt>
      <trkpt lat="47.27354" lon="-1.49863">
        <ele>75</ele>
        <time>2021-01-10T12:28:46.000Z</time>
      </trkpt>
      <trkpt lat="47.27365" lon="-1.49857">
        <ele>75</ele>
        <time>2021-01-10T12:28:48.000Z</time>
      </trkpt>
      <trkpt lat="47.27377" lon="-1.49852">
        <ele>75</ele>
        <time>2021-01-10T12:28:50.000Z</time>
      </trkpt>
      <trkpt lat="47.27389" lon="-1.49848">
        <ele>75</ele>
        <time>2021-01-10T12:28:52.000Z</time>
      </trkpt>
      <trkpt lat="47.274" lon="-1.49843">
        <ele>75</ele>
        <time>2021-01-10T12:28:54.000Z</time>
      </trkpt>
      <trkpt lat="47.27411" lon="-1.49838">
        <ele>75</ele>
        <time>2021-01-10T12:28:56.000Z</time>
      </trkpt>
      <trkpt lat="47.27422" lon="-1.49833">
        <ele>75</ele>
        <time>2021-01-10T12:28:58.000Z</time>
      </trkpt>
      <trkpt lat="47.27434" lon="-1.49828">
        <ele>75</ele>
        <time>2021-01-10T12:29:00.000Z</time>
      </trkpt>
      <trkpt lat="47.27444" lon="-1.49822">
        <ele>75</ele>
        <time>2021-01-10T12:29:02.000Z</time>
      </trkpt>
      <trkpt lat="47.27455" lon="-1.49816">
        <ele>75</ele>
        <time>2021-01-10T12:29:04.000Z</time>
      </trkpt>
      <trkpt lat="47.27466" lon="-1.49811">
        <ele>75</ele>
        <time>2021-01-10T12:29:06.000Z</time>
      </trkpt>
      <trkpt lat="47.27477" lon="-1.49806">
        <ele>75</ele>
        <time>2021-01-10T12:29:08.000Z</time>
      </trkpt>
      <trkpt lat="47.27488" lon="-1.498">
        <ele>75</ele>
        <time>2021-01-10T12:29:10.000Z</time>
      </trkpt>
      <trkpt lat="47.27498" lon="-1.49793">
        <ele>74</ele>
        <time>2021-01-10T12:29:12.000Z</time>
      </trkpt>
      <trkpt lat="47.27509" lon="-1.49786">
        <ele>74</ele>
        <time>2021-01-10T12:29:14.000Z</time>
      </trkpt>
      <trkpt lat="47.27519" lon="-1.49776">
        <ele>73</ele>
        <time>2021-01-10T12:29:16.000Z</time>
      </trkpt>
      <trkpt lat="47.27529" lon="-1.49766">
        <ele>73</ele>
        <time>2021-01-10T12:29:18.000Z</time>
      </trkpt>
      <trkpt lat="47.27538" lon="-1.49756">
        <ele>73</ele>
        <time>2021-01-10T12:29:20.000Z</time>
      </trkpt>
      <trkpt lat="47.27547" lon="-1.49746">
        <ele>73</ele>
        <time>2021-01-10T12:29:22.000Z</time>
      </trkpt>
      <trkpt lat="47.27556" lon="-1.49735">
        <ele>73</ele>
        <time>2021-01-10T12:29:24.000Z</time>
      </trkpt>
      <trkpt lat="47.27565" lon="-1.49723">
        <ele>73</ele>
        <time>2021-01-10T12:29:26.000Z</time>
      </trkpt>
      <trkpt lat="47.27573" lon="-1.49712">
        <ele>73</ele>
        <time>2021-01-10T12:29:28.000Z</time>
      </trkpt>
      <trkpt lat="47.27581" lon="-1.49702">
        <ele>73</ele>
        <time>2021-01-10T12:29:30.000Z</time>
      </trkpt>
      <trkpt lat="47.2759" lon="-1.49692">
        <ele>73</ele>
        <time>2021-01-10T12:29:32.000Z</time>
      </trkpt>
      <trkpt lat="47.27599" lon="-1.49681">
        <ele>73</ele>
        <time>2021-01-10T12:29:34.000Z</time>
      </trkpt>
      <trkpt lat="47.27607" lon="-1.4967">
        <ele>73</ele>
        <time>2021-01-10T12:29:36.000Z</time>
      </trkpt>
      <trkpt lat="47.27615" lon="-1.4966">
        <ele>73</ele>
        <time>2021-01-10T12:29:38.000Z</time>
      </trkpt>
      <trkpt lat="47.27623" lon="-1.49649">
        <ele>73</ele>
        <time>2021-01-10T12:29:40.000Z</time>
      </trkpt>
      <trkpt lat="47.27631" lon="-1.49638">
        <ele>73</ele>
        <time>2021-01-10T12:29:42.000Z</time>
      </trkpt>
      <trkpt lat="47.27639" lon="-1.49626">
        <ele>74</ele>
        <time>2021-01-10T12:29:44.000Z</time>
      </trkpt>
      <trkpt lat="47.27647" lon="-1.49615">
        <ele>74</ele>
        <time>2021-01-10T12:29:46.000Z</time>
      </trkpt>
      <trkpt lat="47.27655" lon="-1.49604">
        <ele>74</ele>
        <time>2021-01-10T12:29:48.000Z</time>
      </trkpt>
      <trkpt lat="47.27663" lon="-1.49591">
        <ele>74</ele>
        <time>2021-01-10T12:29:50.000Z</time>
      </trkpt>
      <trkpt lat="47.27671" lon="-1.4958">
        <ele>75</ele>
        <time>2021-01-10T12:29:52.000Z</time>
      </trkpt>
      <trkpt lat="47.27678" lon="-1.49568">
        <ele>74</ele>
        <time>2021-01-10T12:29:54.000Z</time>
      </trkpt>
      <trkpt lat="47.27686" lon="-1.49556">
        <ele>74</ele>
        <time>2021-01-10T12:29:56.000Z</time>
      </trkpt>
      <trkpt lat="47.27694" lon="-1.49544">
        <ele>74</ele>
        <time>2021-01-10T12:29:58.000Z</time>
      </trkpt>
      <trkpt lat="47.27702" lon="-1.49534">
        <ele>75</ele>
        <time>2021-01-10T12:30:00.000Z</time>
      </trkpt>
      <trkpt lat="47.2771" lon="-1.49523">
        <ele>74</ele>
        <time>2021-01-10T12:30:02.000Z</time>
      </trkpt>
      <trkpt lat="47.27717" lon="-1.49513">
        <ele>75</ele>
        <time>2021-01-10T12:30:04.000Z</time>
      </trkpt>
      <trkpt lat="47.27725" lon="-1.49501">
        <ele>75</ele>
        <time>2021-01-10T12:30:06.000Z</time>
      </trkpt>
      <trkpt lat="47.27732" lon="-1.4949">
        <ele>75</ele>
        <time>2021-01-10T12:30:08.000Z</time>
      </trkpt>
      <trkpt lat="47.2774" lon="-1.49479">
        <ele>75</ele>
        <time>2021-01-10T12:30:10.000Z</time>
      </trkpt>
      <trkpt lat="47.27748" lon="-1.49467">
        <ele>75</ele>
        <time>2021-01-10T12:30:12.000Z</time>
      </trkpt>
      <trkpt lat="47.27757" lon="-1.49455">
        <ele>75</ele>
        <time>2021-01-10T12:30:14.000Z</time>
      </trkpt>
      <trkpt lat="47.27766" lon="-1.49443">
        <ele>75</ele>
        <time>2021-01-10T12:30:16.000Z</time>
      </trkpt>
      <trkpt lat="47.27775" lon="-1.49433">
        <ele>75</ele>
        <time>2021-01-10T12:30:18.000Z</time>
      </trkpt>
      <trkpt lat="47.27783" lon="-1.49422">
        <ele>75</ele>
        <time>2021-01-10T12:30:20.000Z</time>
      </trkpt>
      <trkpt lat="47.27791" lon="-1.4941">
        <ele>76</ele>
        <time>2021-01-10T12:30:22.000Z</time>
      </trkpt>
      <trkpt lat="47.27798" lon="-1.49397">
        <ele>77</ele>
        <time>2021-01-10T12:30:24.000Z</time>
      </trkpt>
      <trkpt lat="47.27806" lon="-1.49387">
        <ele>78</ele>
        <time>2021-01-10T12:30:26.000Z</time>
      </trkpt>
      <trkpt lat="47.27814" lon="-1.49376">
        <ele>78</ele>
        <time>2021-01-10T12:30:28.000Z</time>
      </trkpt>
      <trkpt lat="47.2782" lon="-1.49364">
        <ele>78</ele>
        <time>2021-01-10T12:30:30.000Z</time>
      </trkpt>
      <trkpt lat="47.27829" lon="-1.49351">
        <ele>77</ele>
        <time>2021-01-10T12:30:32.000Z</time>
      </trkpt>
      <trkpt lat="47.27838" lon="-1.49339">
        <ele>76</ele>
        <time>2021-01-10T12:30:34.000Z</time>
      </trkpt>
      <trkpt lat="47.27847" lon="-1.49329">
        <ele>76</ele>
        <time>2021-01-10T12:30:36.000Z</time>
      </trkpt>
      <trkpt lat="47.27856" lon="-1.49318">
        <ele>75</ele>
        <time>2021-01-10T12:30:38.000Z</time>
      </trkpt>
      <trkpt lat="47.27865" lon="-1.49307">
        <ele>75</ele>
        <time>2021-01-10T12:30:40.000Z</time>
      </trkpt>
      <trkpt lat="47.27874" lon="-1.49298">
        <ele>74</ele>
        <time>2021-01-10T12:30:42.000Z</time>
      </trkpt>
      <trkpt lat="47.27882" lon="-1.49287">
        <ele>73</ele>
        <time>2021-01-10T12:30:44.000Z</time>
      </trkpt>
      <trkpt lat="47.27891" lon="-1.49277">
        <ele>72</ele>
        <time>2021-01-10T12:30:46.000Z</time>
      </trkpt>
      <trkpt lat="47.279" lon="-1.49266">
        <ele>72</ele>
        <time>2021-01-10T12:30:48.000Z</time>
      </trkpt>
      <trkpt lat="47.27909" lon="-1.49255">
        <ele>72</ele>
        <time>2021-01-10T12:30:50.000Z</time>
      </trkpt>
      <trkpt lat="47.27918" lon="-1.49245">
        <ele>72</ele>
        <time>2021-01-10T12:30:52.000Z</time>
      </trkpt>
      <trkpt lat="47.27928" lon="-1.49234">
        <ele>72</ele>
        <time>2021-01-10T12:30:54.000Z</time>
      </trkpt>
      <trkpt lat="47.27937" lon="-1.49223">
        <ele>72</ele>
        <time>2021-01-10T12:30:56.000Z</time>
      </trkpt>
      <trkpt lat="47.27946" lon="-1.49212">
        <ele>72</ele>
        <time>2021-01-10T12:30:58.000Z</time>
      </trkpt>
      <trkpt lat="47.27955" lon="-1.492">
        <ele>72</ele>
        <time>2021-01-10T12:31:00.000Z</time>
      </trkpt>
      <trkpt lat="47.27964" lon="-1.49188">
        <ele>71</ele>
        <time>2021-01-10T12:31:02.000Z</time>
      </trkpt>
      <trkpt lat="47.27973" lon="-1.49178">
        <ele>71</ele>
        <time>2021-01-10T12:31:04.000Z</time>
      </trkpt>
      <trkpt lat="47.27982" lon="-1.49167">
        <ele>71</ele>
        <time>2021-01-10T12:31:06.000Z</time>
      </trkpt>
      <trkpt lat="47.27992" lon="-1.49156">
        <ele>71</ele>
        <time>2021-01-10T12:31:08.000Z</time>
      </trkpt>
      <trkpt lat="47.28001" lon="-1.49144">
        <ele>70</ele>
        <time>2021-01-10T12:31:10.000Z</time>
      </trkpt>
      <trkpt lat="47.28009" lon="-1.49134">
        <ele>71</ele>
        <time>2021-01-10T12:31:12.000Z</time>
      </trkpt>
      <trkpt lat="47.28016" lon="-1.49122">
        <ele>71</ele>
        <time>2021-01-10T12:31:14.000Z</time>
      </trkpt>
      <trkpt lat="47.28025" lon="-1.49111">
        <ele>70</ele>
        <time>2021-01-10T12:31:16.000Z</time>
      </trkpt>
      <trkpt lat="47.28035" lon="-1.49102">
        <ele>70</ele>
        <time>2021-01-10T12:31:18.000Z</time>
      </trkpt>
      <trkpt lat="47.28045" lon="-1.49091">
        <ele>71</ele>
        <time>2021-01-10T12:31:20.000Z</time>
      </trkpt>
      <trkpt lat="47.28053" lon="-1.4908">
        <ele>71</ele>
        <time>2021-01-10T12:31:22.000Z</time>
      </trkpt>
      <trkpt lat="47.28062" lon="-1.49067">
        <ele>71</ele>
        <time>2021-01-10T12:31:24.000Z</time>
      </trkpt>
      <trkpt lat="47.28071" lon="-1.49056">
        <ele>71</ele>
        <time>2021-01-10T12:31:26.000Z</time>
      </trkpt>
      <trkpt lat="47.28079" lon="-1.49045">
        <ele>71</ele>
        <time>2021-01-10T12:31:28.000Z</time>
      </trkpt>
      <trkpt lat="47.28088" lon="-1.49033">
        <ele>71</ele>
        <time>2021-01-10T12:31:30.000Z</time>
      </trkpt>
      <trkpt lat="47.28097" lon="-1.49022">
        <ele>70</ele>
        <time>2021-01-10T12:31:32.000Z</time>
      </trkpt>
      <trkpt lat="47.28106" lon="-1.4901">
        <ele>70</ele>
        <time>2021-01-10T12:31:34.000Z</time>
      </trkpt>
      <trkpt lat="47.28115" lon="-1.48998">
        <ele>70</ele>
        <time>2021-01-10T12:31:36.000Z</time>
      </trkpt>
      <trkpt lat="47.28124" lon="-1.48987">
        <ele>70</ele>
        <time>2021-01-10T12:31:38.000Z</time>
      </trkpt>
      <trkpt lat="47.28134" lon="-1.48975">
        <ele>70</ele>
        <time>2021-01-10T12:31:40.000Z</time>
      </trkpt>
      <trkpt lat="47.28144" lon="-1.48963">
        <ele>70</ele>
        <time>2021-01-10T12:31:42.000Z</time>
      </trkpt>
      <trkpt lat="47.28153" lon="-1.48952">
        <ele>70</ele>
        <time>2021-01-10T12:31:44.000Z</time>
      </trkpt>
      <trkpt lat="47.28163" lon="-1.48942">
        <ele>70</ele>
        <time>2021-01-10T12:31:46.000Z</time>
      </trkpt>
      <trkpt lat="47.28171" lon="-1.48932">
        <ele>69</ele>
        <time>2021-01-10T12:31:48.000Z</time>
      </trkpt>
      <trkpt lat="47.28181" lon="-1.48919">
        <ele>68</ele>
        <time>2021-01-10T12:31:51.000Z</time>
      </trkpt>
      <trkpt lat="47.28189" lon="-1.48909">
        <ele>68</ele>
        <time>2021-01-10T12:31:53.000Z</time>
      </trkpt>
      <trkpt lat="47.28197" lon="-1.48897">
        <ele>68</ele>
        <time>2021-01-10T12:31:55.000Z</time>
      </trkpt>
      <trkpt lat="47.28207" lon="-1.48885">
        <ele>68</ele>
        <time>2021-01-10T12:31:57.000Z</time>
      </trkpt>
      <trkpt lat="47.28216" lon="-1.48873">
        <ele>68</ele>
        <time>2021-01-10T12:31:59.000Z</time>
      </trkpt>
      <trkpt lat="47.28225" lon="-1.48861">
        <ele>68</ele>
        <time>2021-01-10T12:32:01.000Z</time>
      </trkpt>
      <trkpt lat="47.28233" lon="-1.4885">
        <ele>68</ele>
        <time>2021-01-10T12:32:03.000Z</time>
      </trkpt>
      <trkpt lat="47.28241" lon="-1.4884">
        <ele>68</ele>
        <time>2021-01-10T12:32:05.000Z</time>
      </trkpt>
      <trkpt lat="47.2825" lon="-1.4883">
        <ele>68</ele>
        <time>2021-01-10T12:32:07.000Z</time>
      </trkpt>
      <trkpt lat="47.28258" lon="-1.4882">
        <ele>68</ele>
        <time>2021-01-10T12:32:09.000Z</time>
      </trkpt>
      <trkpt lat="47.28266" lon="-1.48809">
        <ele>68</ele>
        <time>2021-01-10T12:32:11.000Z</time>
      </trkpt>
      <trkpt lat="47.28275" lon="-1.48797">
        <ele>68</ele>
        <time>2021-01-10T12:32:13.000Z</time>
      </trkpt>
      <trkpt lat="47.28284" lon="-1.48785">
        <ele>67</ele>
        <time>2021-01-10T12:32:15.000Z</time>
      </trkpt>
      <trkpt lat="47.28291" lon="-1.48772">
        <ele>67</ele>
        <time>2021-01-10T12:32:17.000Z</time>
      </trkpt>
      <trkpt lat="47.28298" lon="-1.48758">
        <ele>67</ele>
        <time>2021-01-10T12:32:19.000Z</time>
      </trkpt>
      <trkpt lat="47.28302" lon="-1.48744">
        <ele>67</ele>
        <time>2021-01-10T12:32:21.000Z</time>
      </trkpt>
      <trkpt lat="47.28306" lon="-1.48729">
        <ele>68</ele>
        <time>2021-01-10T12:32:23.000Z</time>
      </trkpt>
      <trkpt lat="47.2831" lon="-1.48714">
        <ele>67</ele>
        <time>2021-01-10T12:32:25.000Z</time>
      </trkpt>
      <trkpt lat="47.28313" lon="-1.487">
        <ele>67</ele>
        <time>2021-01-10T12:32:27.000Z</time>
      </trkpt>
      <trkpt lat="47.28315" lon="-1.48685">
        <ele>67</ele>
        <time>2021-01-10T12:32:29.000Z</time>
      </trkpt>
      <trkpt lat="47.28315" lon="-1.48671">
        <ele>67</ele>
        <time>2021-01-10T12:32:31.000Z</time>
      </trkpt>
      <trkpt lat="47.28314" lon="-1.48656">
        <ele>67</ele>
        <time>2021-01-10T12:32:33.000Z</time>
      </trkpt>
      <trkpt lat="47.28319" lon="-1.48638">
        <ele>68</ele>
        <time>2021-01-10T12:32:36.000Z</time>
      </trkpt>
      <trkpt lat="47.28326" lon="-1.48626">
        <ele>68</ele>
        <time>2021-01-10T12:32:38.000Z</time>
      </trkpt>
      <trkpt lat="47.28335" lon="-1.48615">
        <ele>68</ele>
        <time>2021-01-10T12:32:40.000Z</time>
      </trkpt>
      <trkpt lat="47.28345" lon="-1.48614">
        <ele>68</ele>
        <time>2021-01-10T12:32:42.000Z</time>
      </trkpt>
      <trkpt lat="47.28354" lon="-1.48618">
        <ele>67</ele>
        <time>2021-01-10T12:32:44.000Z</time>
      </trkpt>
      <trkpt lat="47.28363" lon="-1.48626">
        <ele>68</ele>
        <time>2021-01-10T12:32:46.000Z</time>
      </trkpt>
      <trkpt lat="47.28372" lon="-1.48635">
        <ele>69</ele>
        <time>2021-01-10T12:32:48.000Z</time>
      </trkpt>
      <trkpt lat="47.28383" lon="-1.48641">
        <ele>68</ele>
        <time>2021-01-10T12:32:50.000Z</time>
      </trkpt>
      <trkpt lat="47.28394" lon="-1.4864">
        <ele>69</ele>
        <time>2021-01-10T12:32:52.000Z</time>
      </trkpt>
      <trkpt lat="47.28405" lon="-1.48637">
        <ele>69</ele>
        <time>2021-01-10T12:32:54.000Z</time>
      </trkpt>
      <trkpt lat="47.28415" lon="-1.48632">
        <ele>71</ele>
        <time>2021-01-10T12:32:56.000Z</time>
      </trkpt>
      <trkpt lat="47.28425" lon="-1.48626">
        <ele>71</ele>
        <time>2021-01-10T12:32:58.000Z</time>
      </trkpt>
      <trkpt lat="47.28434" lon="-1.48619">
        <ele>71</ele>
        <time>2021-01-10T12:33:00.000Z</time>
      </trkpt>
      <trkpt lat="47.28442" lon="-1.48612">
        <ele>71</ele>
        <time>2021-01-10T12:33:02.000Z</time>
      </trkpt>
      <trkpt lat="47.2845" lon="-1.48605">
        <ele>71</ele>
        <time>2021-01-10T12:33:04.000Z</time>
      </trkpt>
      <trkpt lat="47.28459" lon="-1.48597">
        <ele>71</ele>
        <time>2021-01-10T12:33:06.000Z</time>
      </trkpt>
      <trkpt lat="47.28468" lon="-1.4859">
        <ele>71</ele>
        <time>2021-01-10T12:33:08.000Z</time>
      </trkpt>
      <trkpt lat="47.28476" lon="-1.48583">
        <ele>71</ele>
        <time>2021-01-10T12:33:10.000Z</time>
      </trkpt>
      <trkpt lat="47.28484" lon="-1.48575">
        <ele>71</ele>
        <time>2021-01-10T12:33:12.000Z</time>
      </trkpt>
      <trkpt lat="47.28493" lon="-1.48568">
        <ele>71</ele>
        <time>2021-01-10T12:33:14.000Z</time>
      </trkpt>
      <trkpt lat="47.28501" lon="-1.48561">
        <ele>71</ele>
        <time>2021-01-10T12:33:16.000Z</time>
      </trkpt>
      <trkpt lat="47.2851" lon="-1.48554">
        <ele>72</ele>
        <time>2021-01-10T12:33:18.000Z</time>
      </trkpt>
      <trkpt lat="47.2852" lon="-1.48547">
        <ele>73</ele>
        <time>2021-01-10T12:33:20.000Z</time>
      </trkpt>
      <trkpt lat="47.28529" lon="-1.4854">
        <ele>73</ele>
        <time>2021-01-10T12:33:22.000Z</time>
      </trkpt>
      <trkpt lat="47.28538" lon="-1.48533">
        <ele>74</ele>
        <time>2021-01-10T12:33:24.000Z</time>
      </trkpt>
      <trkpt lat="47.28547" lon="-1.48526">
        <ele>75</ele>
        <time>2021-01-10T12:33:26.000Z</time>
      </trkpt>
      <trkpt lat="47.28556" lon="-1.48518">
        <ele>75</ele>
        <time>2021-01-10T12:33:28.000Z</time>
      </trkpt>
      <trkpt lat="47.28565" lon="-1.48511">
        <ele>75</ele>
        <time>2021-01-10T12:33:30.000Z</time>
      </trkpt>
      <trkpt lat="47.28574" lon="-1.48505">
        <ele>75</ele>
        <time>2021-01-10T12:33:32.000Z</time>
      </trkpt>
      <trkpt lat="47.28582" lon="-1.48497">
        <ele>75</ele>
        <time>2021-01-10T12:33:34.000Z</time>
      </trkpt>
      <trkpt lat="47.28591" lon="-1.48489">
        <ele>75</ele>
        <time>2021-01-10T12:33:36.000Z</time>
      </trkpt>
      <trkpt lat="47.28601" lon="-1.48482">
        <ele>75</ele>
        <time>2021-01-10T12:33:38.000Z</time>
      </trkpt>
      <trkpt lat="47.28609" lon="-1.48474">
        <ele>76</ele>
        <time>2021-01-10T12:33:40.000Z</time>
      </trkpt>
      <trkpt lat="47.28618" lon="-1.48467">
        <ele>75</ele>
        <time>2021-01-10T12:33:42.000Z</time>
      </trkpt>
      <trkpt lat="47.28626" lon="-1.4846">
        <ele>76</ele>
        <time>2021-01-10T12:33:44.000Z</time>
      </trkpt>
      <trkpt lat="47.28636" lon="-1.48454">
        <ele>76</ele>
        <time>2021-01-10T12:33:46.000Z</time>
      </trkpt>
      <trkpt lat="47.28645" lon="-1.48448">
        <ele>77</ele>
        <time>2021-01-10T12:33:48.000Z</time>
      </trkpt>
      <trkpt lat="47.28655" lon="-1.48443">
        <ele>77</ele>
        <time>2021-01-10T12:33:50.000Z</time>
      </trkpt>
      <trkpt lat="47.28665" lon="-1.48437">
        <ele>77</ele>
        <time>2021-01-10T12:33:52.000Z</time>
      </trkpt>
      <trkpt lat="47.28675" lon="-1.48432">
        <ele>77</ele>
        <time>2021-01-10T12:33:54.000Z</time>
      </trkpt>
      <trkpt lat="47.28685" lon="-1.48427">
        <ele>77</ele>
        <time>2021-01-10T12:33:56.000Z</time>
      </trkpt>
      <trkpt lat="47.28695" lon="-1.48424">
        <ele>77</ele>
        <time>2021-01-10T12:33:58.000Z</time>
      </trkpt>
      <trkpt lat="47.28705" lon="-1.48421">
        <ele>77</ele>
        <time>2021-01-10T12:34:00.000Z</time>
      </trkpt>
      <trkpt lat="47.28715" lon="-1.48418">
        <ele>78</ele>
        <time>2021-01-10T12:34:02.000Z</time>
      </trkpt>
      <trkpt lat="47.28726" lon="-1.48414">
        <ele>78</ele>
        <time>2021-01-10T12:34:04.000Z</time>
      </trkpt>
      <trkpt lat="47.28736" lon="-1.48411">
        <ele>79</ele>
        <time>2021-01-10T12:34:06.000Z</time>
      </trkpt>
      <trkpt lat="47.28746" lon="-1.48408">
        <ele>79</ele>
        <time>2021-01-10T12:34:08.000Z</time>
      </trkpt>
      <trkpt lat="47.28756" lon="-1.48404">
        <ele>79</ele>
        <time>2021-01-10T12:34:10.000Z</time>
      </trkpt>
      <trkpt lat="47.28764" lon="-1.48397">
        <ele>78</ele>
        <time>2021-01-10T12:34:12.000Z</time>
      </trkpt>
      <trkpt lat="47.28769" lon="-1.48385">
        <ele>78</ele>
        <time>2021-01-10T12:34:14.000Z</time>
      </trkpt>
      <trkpt lat="47.2878" lon="-1.48375">
        <ele>79</ele>
        <time>2021-01-10T12:34:17.000Z</time>
      </trkpt>
      <trkpt lat="47.2879" lon="-1.48376">
        <ele>79</ele>
        <time>2021-01-10T12:34:19.000Z</time>
      </trkpt>
      <trkpt lat="47.288" lon="-1.48379">
        <ele>79</ele>
        <time>2021-01-10T12:34:21.000Z</time>
      </trkpt>
      <trkpt lat="47.28809" lon="-1.48388">
        <ele>79</ele>
        <time>2021-01-10T12:34:23.000Z</time>
      </trkpt>
      <trkpt lat="47.28819" lon="-1.48398">
        <ele>79</ele>
        <time>2021-01-10T12:34:25.000Z</time>
      </trkpt>
      <trkpt lat="47.2883" lon="-1.48402">
        <ele>79</ele>
        <time>2021-01-10T12:34:27.000Z</time>
      </trkpt>
      <trkpt lat="47.2884" lon="-1.48406">
        <ele>79</ele>
        <time>2021-01-10T12:34:29.000Z</time>
      </trkpt>
      <trkpt lat="47.28851" lon="-1.4841">
        <ele>79</ele>
        <time>2021-01-10T12:34:31.000Z</time>
      </trkpt>
      <trkpt lat="47.28863" lon="-1.48413">
        <ele>80</ele>
        <time>2021-01-10T12:34:33.000Z</time>
      </trkpt>
      <trkpt lat="47.28874" lon="-1.48419">
        <ele>79</ele>
        <time>2021-01-10T12:34:35.000Z</time>
      </trkpt>
      <trkpt lat="47.28886" lon="-1.48424">
        <ele>79</ele>
        <time>2021-01-10T12:34:37.000Z</time>
      </trkpt>
      <trkpt lat="47.28897" lon="-1.4843">
        <ele>79</ele>
        <time>2021-01-10T12:34:39.000Z</time>
      </trkpt>
      <trkpt lat="47.28908" lon="-1.48437">
        <ele>79</ele>
        <time>2021-01-10T12:34:41.000Z</time>
      </trkpt>
      <trkpt lat="47.28919" lon="-1.48445">
        <ele>79</ele>
        <time>2021-01-10T12:34:43.000Z</time>
      </trkpt>
      <trkpt lat="47.2893" lon="-1.48453">
        <ele>78</ele>
        <time>2021-01-10T12:34:45.000Z</time>
      </trkpt>
      <trkpt lat="47.28941" lon="-1.4846">
        <ele>78</ele>
        <time>2021-01-10T12:34:47.000Z</time>
      </trkpt>
      <trkpt lat="47.28953" lon="-1.48466">
        <ele>77</ele>
        <time>2021-01-10T12:34:49.000Z</time>
      </trkpt>
      <trkpt lat="47.28962" lon="-1.48475">
        <ele>79</ele>
        <time>2021-01-10T12:34:51.000Z</time>
      </trkpt>
      <trkpt lat="47.28973" lon="-1.48485">
        <ele>79</ele>
        <time>2021-01-10T12:34:53.000Z</time>
      </trkpt>
      <trkpt lat="47.28985" lon="-1.48492">
        <ele>79</ele>
        <time>2021-01-10T12:34:55.000Z</time>
      </trkpt>
      <trkpt lat="47.28995" lon="-1.48501">
        <ele>79</ele>
        <time>2021-01-10T12:34:57.000Z</time>
      </trkpt>
      <trkpt lat="47.29006" lon="-1.48509">
        <ele>79</ele>
        <time>2021-01-10T12:34:59.000Z</time>
      </trkpt>
      <trkpt lat="47.29017" lon="-1.48517">
        <ele>79</ele>
        <time>2021-01-10T12:35:01.000Z</time>
      </trkpt>
      <trkpt lat="47.29028" lon="-1.48526">
        <ele>79</ele>
        <time>2021-01-10T12:35:03.000Z</time>
      </trkpt>
      <trkpt lat="47.29039" lon="-1.48534">
        <ele>79</ele>
        <time>2021-01-10T12:35:05.000Z</time>
      </trkpt>
      <trkpt lat="47.2905" lon="-1.48541">
        <ele>80</ele>
        <time>2021-01-10T12:35:07.000Z</time>
      </trkpt>
      <trkpt lat="47.29062" lon="-1.48545">
        <ele>79</ele>
        <time>2021-01-10T12:35:09.000Z</time>
      </trkpt>
      <trkpt lat="47.29073" lon="-1.48556">
        <ele>78</ele>
        <time>2021-01-10T12:35:11.000Z</time>
      </trkpt>
      <trkpt lat="47.29083" lon="-1.48565">
        <ele>78</ele>
        <time>2021-01-10T12:35:13.000Z</time>
      </trkpt>
      <trkpt lat="47.29095" lon="-1.48574">
        <ele>78</ele>
        <time>2021-01-10T12:35:15.000Z</time>
      </trkpt>
      <trkpt lat="47.29106" lon="-1.48582">
        <ele>77</ele>
        <time>2021-01-10T12:35:17.000Z</time>
      </trkpt>
      <trkpt lat="47.29117" lon="-1.48591">
        <ele>77</ele>
        <time>2021-01-10T12:35:19.000Z</time>
      </trkpt>
      <trkpt lat="47.29127" lon="-1.48597">
        <ele>77</ele>
        <time>2021-01-10T12:35:21.000Z</time>
      </trkpt>
      <trkpt lat="47.29138" lon="-1.48605">
        <ele>77</ele>
        <time>2021-01-10T12:35:23.000Z</time>
      </trkpt>
      <trkpt lat="47.29148" lon="-1.48613">
        <ele>77</ele>
        <time>2021-01-10T12:35:25.000Z</time>
      </trkpt>
      <trkpt lat="47.29158" lon="-1.4862">
        <ele>77</ele>
        <time>2021-01-10T12:35:27.000Z</time>
      </trkpt>
      <trkpt lat="47.29169" lon="-1.48629">
        <ele>76</ele>
        <time>2021-01-10T12:35:29.000Z</time>
      </trkpt>
      <trkpt lat="47.2918" lon="-1.48637">
        <ele>76</ele>
        <time>2021-01-10T12:35:31.000Z</time>
      </trkpt>
      <trkpt lat="47.2919" lon="-1.48645">
        <ele>76</ele>
        <time>2021-01-10T12:35:33.000Z</time>
      </trkpt>
      <trkpt lat="47.29201" lon="-1.48653">
        <ele>76</ele>
        <time>2021-01-10T12:35:35.000Z</time>
      </trkpt>
      <trkpt lat="47.29211" lon="-1.48661">
        <ele>76</ele>
        <time>2021-01-10T12:35:37.000Z</time>
      </trkpt>
      <trkpt lat="47.29221" lon="-1.48669">
        <ele>76</ele>
        <time>2021-01-10T12:35:39.000Z</time>
      </trkpt>
      <trkpt lat="47.29231" lon="-1.48676">
        <ele>76</ele>
        <time>2021-01-10T12:35:41.000Z</time>
      </trkpt>
      <trkpt lat="47.29241" lon="-1.48682">
        <ele>75</ele>
        <time>2021-01-10T12:35:43.000Z</time>
      </trkpt>
      <trkpt lat="47.29251" lon="-1.48681">
        <ele>75</ele>
        <time>2021-01-10T12:35:45.000Z</time>
      </trkpt>
      <trkpt lat="47.29264" lon="-1.48678">
        <ele>75</ele>
        <time>2021-01-10T12:35:48.000Z</time>
      </trkpt>
      <trkpt lat="47.29273" lon="-1.48685">
        <ele>76</ele>
        <time>2021-01-10T12:35:50.000Z</time>
      </trkpt>
      <trkpt lat="47.29278" lon="-1.48698">
        <ele>76</ele>
        <time>2021-01-10T12:35:52.000Z</time>
      </trkpt>
      <trkpt lat="47.29281" lon="-1.48715">
        <ele>76</ele>
        <time>2021-01-10T12:35:54.000Z</time>
      </trkpt>
      <trkpt lat="47.29287" lon="-1.48727">
        <ele>76</ele>
        <time>2021-01-10T12:35:56.000Z</time>
      </trkpt>
      <trkpt lat="47.29296" lon="-1.48736">
        <ele>76</ele>
        <time>2021-01-10T12:35:58.000Z</time>
      </trkpt>
      <trkpt lat="47.29305" lon="-1.48743">
        <ele>75</ele>
        <time>2021-01-10T12:36:00.000Z</time>
      </trkpt>
      <trkpt lat="47.29315" lon="-1.4875">
        <ele>75</ele>
        <time>2021-01-10T12:36:02.000Z</time>
      </trkpt>
      <trkpt lat="47.29325" lon="-1.48757">
        <ele>75</ele>
        <time>2021-01-10T12:36:04.000Z</time>
      </trkpt>
      <trkpt lat="47.29334" lon="-1.48763">
        <ele>75</ele>
        <time>2021-01-10T12:36:06.000Z</time>
      </trkpt>
      <trkpt lat="47.29344" lon="-1.4877">
        <ele>75</ele>
        <time>2021-01-10T12:36:08.000Z</time>
      </trkpt>
      <trkpt lat="47.29355" lon="-1.48777">
        <ele>75</ele>
        <time>2021-01-10T12:36:10.000Z</time>
      </trkpt>
      <trkpt lat="47.29366" lon="-1.48782">
        <ele>75</ele>
        <time>2021-01-10T12:36:12.000Z</time>
      </trkpt>
      <trkpt lat="47.29376" lon="-1.48785">
        <ele>75</ele>
        <time>2021-01-10T12:36:14.000Z</time>
      </trkpt>
      <trkpt lat="47.29386" lon="-1.48787">
        <ele>75</ele>
        <time>2021-01-10T12:36:16.000Z</time>
      </trkpt>
      <trkpt lat="47.29397" lon="-1.48786">
        <ele>75</ele>
        <time>2021-01-10T12:36:18.000Z</time>
      </trkpt>
      <trkpt lat="47.29406" lon="-1.48782">
        <ele>75</ele>
        <time>2021-01-10T12:36:20.000Z</time>
      </trkpt>
      <trkpt lat="47.29415" lon="-1.48775">
        <ele>75</ele>
        <time>2021-01-10T12:36:22.000Z</time>
      </trkpt>
      <trkpt lat="47.29424" lon="-1.48767">
        <ele>76</ele>
        <time>2021-01-10T12:36:24.000Z</time>
      </trkpt>
      <trkpt lat="47.29433" lon="-1.48759">
        <ele>77</ele>
        <time>2021-01-10T12:36:26.000Z</time>
      </trkpt>
      <trkpt lat="47.29442" lon="-1.48752">
        <ele>77</ele>
        <time>2021-01-10T12:36:28.000Z</time>
      </trkpt>
      <trkpt lat="47.29452" lon="-1.48745">
        <ele>78</ele>
        <time>2021-01-10T12:36:30.000Z</time>
      </trkpt>
      <trkpt lat="47.29462" lon="-1.48738">
        <ele>79</ele>
        <time>2021-01-10T12:36:32.000Z</time>
      </trkpt>
      <trkpt lat="47.29472" lon="-1.4873">
        <ele>79</ele>
        <time>2021-01-10T12:36:34.000Z</time>
      </trkpt>
      <trkpt lat="47.29481" lon="-1.48722">
        <ele>79</ele>
        <time>2021-01-10T12:36:36.000Z</time>
      </trkpt>
      <trkpt lat="47.29489" lon="-1.48715">
        <ele>79</ele>
        <time>2021-01-10T12:36:38.000Z</time>
      </trkpt>
      <trkpt lat="47.29499" lon="-1.48708">
        <ele>80</ele>
        <time>2021-01-10T12:36:40.000Z</time>
      </trkpt>
      <trkpt lat="47.29508" lon="-1.48701">
        <ele>80</ele>
        <time>2021-01-10T12:36:42.000Z</time>
      </trkpt>
      <trkpt lat="47.29517" lon="-1.48694">
        <ele>80</ele>
        <time>2021-01-10T12:36:44.000Z</time>
      </trkpt>
      <trkpt lat="47.29527" lon="-1.48687">
        <ele>79</ele>
        <time>2021-01-10T12:36:46.000Z</time>
      </trkpt>
      <trkpt lat="47.29536" lon="-1.48681">
        <ele>79</ele>
        <time>2021-01-10T12:36:48.000Z</time>
      </trkpt>
      <trkpt lat="47.29546" lon="-1.48676">
        <ele>78</ele>
        <time>2021-01-10T12:36:50.000Z</time>
      </trkpt>
      <trkpt lat="47.29557" lon="-1.48671">
        <ele>78</ele>
        <time>2021-01-10T12:36:52.000Z</time>
      </trkpt>
      <trkpt lat="47.29568" lon="-1.48668">
        <ele>77</ele>
        <time>2021-01-10T12:36:54.000Z</time>
      </trkpt>
      <trkpt lat="47.29579" lon="-1.48663">
        <ele>77</ele>
        <time>2021-01-10T12:36:56.000Z</time>
      </trkpt>
      <trkpt lat="47.29591" lon="-1.48658">
        <ele>77</ele>
        <time>2021-01-10T12:36:58.000Z</time>
      </trkpt>
      <trkpt lat="47.29603" lon="-1.48653">
        <ele>77</ele>
        <time>2021-01-10T12:37:00.000Z</time>
      </trkpt>
      <trkpt lat="47.29614" lon="-1.48649">
        <ele>77</ele>
        <time>2021-01-10T12:37:02.000Z</time>
      </trkpt>
      <trkpt lat="47.29625" lon="-1.48644">
        <ele>77</ele>
        <time>2021-01-10T12:37:04.000Z</time>
      </trkpt>
      <trkpt lat="47.29634" lon="-1.48637">
        <ele>77</ele>
        <time>2021-01-10T12:37:06.000Z</time>
      </trkpt>
      <trkpt lat="47.29642" lon="-1.48621">
        <ele>77</ele>
        <time>2021-01-10T12:37:09.000Z</time>
      </trkpt>
      <trkpt lat="47.29652" lon="-1.48612">
        <ele>76</ele>
        <time>2021-01-10T12:37:11.000Z</time>
      </trkpt>
      <trkpt lat="47.29661" lon="-1.48599">
        <ele>76</ele>
        <time>2021-01-10T12:37:13.000Z</time>
      </trkpt>
      <trkpt lat="47.29668" lon="-1.48585">
        <ele>76</ele>
        <time>2021-01-10T12:37:15.000Z</time>
      </trkpt>
      <trkpt lat="47.29676" lon="-1.48574">
        <ele>76</ele>
        <time>2021-01-10T12:37:17.000Z</time>
      </trkpt>
      <trkpt lat="47.29686" lon="-1.48571">
        <ele>76</ele>
        <time>2021-01-10T12:37:19.000Z</time>
      </trkpt>
      <trkpt lat="47.29698" lon="-1.48573">
        <ele>75</ele>
        <time>2021-01-10T12:37:21.000Z</time>
      </trkpt>
      <trkpt lat="47.2971" lon="-1.48576">
        <ele>74</ele>
        <time>2021-01-10T12:37:23.000Z</time>
      </trkpt>
      <trkpt lat="47.29722" lon="-1.48579">
        <ele>74</ele>
        <time>2021-01-10T12:37:25.000Z</time>
      </trkpt>
      <trkpt lat="47.29735" lon="-1.48582">
        <ele>73</ele>
        <time>2021-01-10T12:37:27.000Z</time>
      </trkpt>
      <trkpt lat="47.29749" lon="-1.48582">
        <ele>72</ele>
        <time>2021-01-10T12:37:29.000Z</time>
      </trkpt>
      <trkpt lat="47.29761" lon="-1.48572">
        <ele>72</ele>
        <time>2021-01-10T12:37:31.000Z</time>
      </trkpt>
      <trkpt lat="47.29768" lon="-1.48558">
        <ele>72</ele>
        <time>2021-01-10T12:37:33.000Z</time>
      </trkpt>
      <trkpt lat="47.29773" lon="-1.48542">
        <ele>72</ele>
        <time>2021-01-10T12:37:35.000Z</time>
      </trkpt>
      <trkpt lat="47.29777" lon="-1.48526">
        <ele>71</ele>
        <time>2021-01-10T12:37:37.000Z</time>
      </trkpt>
      <trkpt lat="47.29781" lon="-1.48509">
        <ele>71</ele>
        <time>2021-01-10T12:37:39.000Z</time>
      </trkpt>
      <trkpt lat="47.29785" lon="-1.48493">
        <ele>71</ele>
        <time>2021-01-10T12:37:41.000Z</time>
      </trkpt>
      <trkpt lat="47.29789" lon="-1.48477">
        <ele>71</ele>
        <time>2021-01-10T12:37:43.000Z</time>
      </trkpt>
      <trkpt lat="47.29793" lon="-1.48461">
        <ele>71</ele>
        <time>2021-01-10T12:37:45.000Z</time>
      </trkpt>
      <trkpt lat="47.29797" lon="-1.48445">
        <ele>71</ele>
        <time>2021-01-10T12:37:47.000Z</time>
      </trkpt>
      <trkpt lat="47.298" lon="-1.48429">
        <ele>71</ele>
        <time>2021-01-10T12:37:49.000Z</time>
      </trkpt>
      <trkpt lat="47.29805" lon="-1.48413">
        <ele>72</ele>
        <time>2021-01-10T12:37:51.000Z</time>
      </trkpt>
      <trkpt lat="47.2981" lon="-1.48398">
        <ele>72</ele>
        <time>2021-01-10T12:37:53.000Z</time>
      </trkpt>
      <trkpt lat="47.29813" lon="-1.48381">
        <ele>72</ele>
        <time>2021-01-10T12:37:55.000Z</time>
      </trkpt>
      <trkpt lat="47.29818" lon="-1.48364">
        <ele>73</ele>
        <time>2021-01-10T12:37:57.000Z</time>
      </trkpt>
      <trkpt lat="47.29824" lon="-1.48349">
        <ele>73</ele>
        <time>2021-01-10T12:37:59.000Z</time>
      </trkpt>
      <trkpt lat="47.29831" lon="-1.48336">
        <ele>73</ele>
        <time>2021-01-10T12:38:01.000Z</time>
      </trkpt>
      <trkpt lat="47.29839" lon="-1.48323">
        <ele>73</ele>
        <time>2021-01-10T12:38:03.000Z</time>
      </trkpt>
      <trkpt lat="47.29848" lon="-1.48312">
        <ele>73</ele>
        <time>2021-01-10T12:38:05.000Z</time>
      </trkpt>
      <trkpt lat="47.29858" lon="-1.48303">
        <ele>72</ele>
        <time>2021-01-10T12:38:07.000Z</time>
      </trkpt>
      <trkpt lat="47.29868" lon="-1.48295">
        <ele>72</ele>
        <time>2021-01-10T12:38:09.000Z</time>
      </trkpt>
      <trkpt lat="47.29878" lon="-1.48287">
        <ele>72</ele>
        <time>2021-01-10T12:38:11.000Z</time>
      </trkpt>
      <trkpt lat="47.29888" lon="-1.4828">
        <ele>72</ele>
        <time>2021-01-10T12:38:13.000Z</time>
      </trkpt>
      <trkpt lat="47.29898" lon="-1.48273">
        <ele>71</ele>
        <time>2021-01-10T12:38:15.000Z</time>
      </trkpt>
      <trkpt lat="47.29908" lon="-1.48267">
        <ele>71</ele>
        <time>2021-01-10T12:38:17.000Z</time>
      </trkpt>
      <trkpt lat="47.29919" lon="-1.48261">
        <ele>71</ele>
        <time>2021-01-10T12:38:19.000Z</time>
      </trkpt>
      <trkpt lat="47.29929" lon="-1.48254">
        <ele>71</ele>
        <time>2021-01-10T12:38:21.000Z</time>
      </trkpt>
      <trkpt lat="47.29939" lon="-1.48249">
        <ele>71</ele>
        <time>2021-01-10T12:38:23.000Z</time>
      </trkpt>
      <trkpt lat="47.2995" lon="-1.48242">
        <ele>70</ele>
        <time>2021-01-10T12:38:25.000Z</time>
      </trkpt>
      <trkpt lat="47.29961" lon="-1.48235">
        <ele>70</ele>
        <time>2021-01-10T12:38:27.000Z</time>
      </trkpt>
      <trkpt lat="47.29972" lon="-1.48228">
        <ele>70</ele>
        <time>2021-01-10T12:38:29.000Z</time>
      </trkpt>
      <trkpt lat="47.29983" lon="-1.48221">
        <ele>69</ele>
        <time>2021-01-10T12:38:31.000Z</time>
      </trkpt>
      <trkpt lat="47.29993" lon="-1.48213">
        <ele>68</ele>
        <time>2021-01-10T12:38:33.000Z</time>
      </trkpt>
      <trkpt lat="47.30002" lon="-1.482">
        <ele>67</ele>
        <time>2021-01-10T12:38:35.000Z</time>
      </trkpt>
      <trkpt lat="47.30007" lon="-1.48184">
        <ele>67</ele>
        <time>2021-01-10T12:38:37.000Z</time>
      </trkpt>
      <trkpt lat="47.30007" lon="-1.48166">
        <ele>67</ele>
        <time>2021-01-10T12:38:39.000Z</time>
      </trkpt>
      <trkpt lat="47.30007" lon="-1.48148">
        <ele>68</ele>
        <time>2021-01-10T12:38:41.000Z</time>
      </trkpt>
      <trkpt lat="47.30008" lon="-1.48129">
        <ele>68</ele>
        <time>2021-01-10T12:38:43.000Z</time>
      </trkpt>
      <trkpt lat="47.30009" lon="-1.48107">
        <ele>67</ele>
        <time>2021-01-10T12:38:45.000Z</time>
      </trkpt>
      <trkpt lat="47.3001" lon="-1.48085">
        <ele>67</ele>
        <time>2021-01-10T12:38:47.000Z</time>
      </trkpt>
      <trkpt lat="47.30012" lon="-1.48064">
        <ele>66</ele>
        <time>2021-01-10T12:38:49.000Z</time>
      </trkpt>
      <trkpt lat="47.30013" lon="-1.48041">
        <ele>65</ele>
        <time>2021-01-10T12:38:51.000Z</time>
      </trkpt>
      <trkpt lat="47.30014" lon="-1.48019">
        <ele>64</ele>
        <time>2021-01-10T12:38:53.000Z</time>
      </trkpt>
      <trkpt lat="47.30016" lon="-1.47997">
        <ele>64</ele>
        <time>2021-01-10T12:38:55.000Z</time>
      </trkpt>
      <trkpt lat="47.30017" lon="-1.47976">
        <ele>63</ele>
        <time>2021-01-10T12:38:57.000Z</time>
      </trkpt>
      <trkpt lat="47.30018" lon="-1.47956">
        <ele>63</ele>
        <time>2021-01-10T12:38:59.000Z</time>
      </trkpt>
      <trkpt lat="47.3002" lon="-1.47934">
        <ele>63</ele>
        <time>2021-01-10T12:39:01.000Z</time>
      </trkpt>
      <trkpt lat="47.30023" lon="-1.47913">
        <ele>62</ele>
        <time>2021-01-10T12:39:03.000Z</time>
      </trkpt>
      <trkpt lat="47.30026" lon="-1.47891">
        <ele>62</ele>
        <time>2021-01-10T12:39:05.000Z</time>
      </trkpt>
      <trkpt lat="47.3003" lon="-1.47872">
        <ele>61</ele>
        <time>2021-01-10T12:39:07.000Z</time>
      </trkpt>
      <trkpt lat="47.30035" lon="-1.47852">
        <ele>61</ele>
        <time>2021-01-10T12:39:09.000Z</time>
      </trkpt>
      <trkpt lat="47.30039" lon="-1.47832">
        <ele>61</ele>
        <time>2021-01-10T12:39:11.000Z</time>
      </trkpt>
      <trkpt lat="47.30044" lon="-1.47814">
        <ele>60</ele>
        <time>2021-01-10T12:39:13.000Z</time>
      </trkpt>
      <trkpt lat="47.30048" lon="-1.47795">
        <ele>60</ele>
        <time>2021-01-10T12:39:15.000Z</time>
      </trkpt>
      <trkpt lat="47.30052" lon="-1.47779">
        <ele>60</ele>
        <time>2021-01-10T12:39:17.000Z</time>
      </trkpt>
      <trkpt lat="47.30055" lon="-1.47764">
        <ele>61</ele>
        <time>2021-01-10T12:39:19.000Z</time>
      </trkpt>
      <trkpt lat="47.30059" lon="-1.47748">
        <ele>61</ele>
        <time>2021-01-10T12:39:21.000Z</time>
      </trkpt>
      <trkpt lat="47.30062" lon="-1.47732">
        <ele>63</ele>
        <time>2021-01-10T12:39:23.000Z</time>
      </trkpt>
      <trkpt lat="47.30066" lon="-1.47716">
        <ele>63</ele>
        <time>2021-01-10T12:39:25.000Z</time>
      </trkpt>
      <trkpt lat="47.30069" lon="-1.47699">
        <ele>64</ele>
        <time>2021-01-10T12:39:27.000Z</time>
      </trkpt>
      <trkpt lat="47.30073" lon="-1.47684">
        <ele>64</ele>
        <time>2021-01-10T12:39:29.000Z</time>
      </trkpt>
      <trkpt lat="47.30077" lon="-1.47668">
        <ele>64</ele>
        <time>2021-01-10T12:39:31.000Z</time>
      </trkpt>
      <trkpt lat="47.3008" lon="-1.47652">
        <ele>65</ele>
        <time>2021-01-10T12:39:33.000Z</time>
      </trkpt>
      <trkpt lat="47.30083" lon="-1.47637">
        <ele>65</ele>
        <time>2021-01-10T12:39:35.000Z</time>
      </trkpt>
      <trkpt lat="47.30087" lon="-1.47623">
        <ele>65</ele>
        <time>2021-01-10T12:39:37.000Z</time>
      </trkpt>
      <trkpt lat="47.30091" lon="-1.47608">
        <ele>64</ele>
        <time>2021-01-10T12:39:39.000Z</time>
      </trkpt>
      <trkpt lat="47.30094" lon="-1.47593">
        <ele>64</ele>
        <time>2021-01-10T12:39:41.000Z</time>
      </trkpt>
      <trkpt lat="47.30097" lon="-1.47577">
        <ele>63</ele>
        <time>2021-01-10T12:39:43.000Z</time>
      </trkpt>
      <trkpt lat="47.30101" lon="-1.47561">
        <ele>63</ele>
        <time>2021-01-10T12:39:45.000Z</time>
      </trkpt>
      <trkpt lat="47.30102" lon="-1.47547">
        <ele>63</ele>
        <time>2021-01-10T12:39:47.000Z</time>
      </trkpt>
      <trkpt lat="47.30101" lon="-1.47533">
        <ele>62</ele>
        <time>2021-01-10T12:39:50.000Z</time>
      </trkpt>
      <trkpt lat="47.30107" lon="-1.4752">
        <ele>61</ele>
        <time>2021-01-10T12:39:53.000Z</time>
      </trkpt>
      <trkpt lat="47.30117" lon="-1.47513">
        <ele>61</ele>
        <time>2021-01-10T12:39:55.000Z</time>
      </trkpt>
      <trkpt lat="47.30127" lon="-1.47506">
        <ele>61</ele>
        <time>2021-01-10T12:39:57.000Z</time>
      </trkpt>
      <trkpt lat="47.30136" lon="-1.47498">
        <ele>61</ele>
        <time>2021-01-10T12:39:59.000Z</time>
      </trkpt>
      <trkpt lat="47.30145" lon="-1.47488">
        <ele>61</ele>
        <time>2021-01-10T12:40:01.000Z</time>
      </trkpt>
      <trkpt lat="47.30154" lon="-1.47479">
        <ele>61</ele>
        <time>2021-01-10T12:40:03.000Z</time>
      </trkpt>
      <trkpt lat="47.30163" lon="-1.47468">
        <ele>61</ele>
        <time>2021-01-10T12:40:05.000Z</time>
      </trkpt>
      <trkpt lat="47.30172" lon="-1.47458">
        <ele>60</ele>
        <time>2021-01-10T12:40:07.000Z</time>
      </trkpt>
      <trkpt lat="47.30181" lon="-1.47448">
        <ele>61</ele>
        <time>2021-01-10T12:40:09.000Z</time>
      </trkpt>
      <trkpt lat="47.3019" lon="-1.47438">
        <ele>60</ele>
        <time>2021-01-10T12:40:11.000Z</time>
      </trkpt>
      <trkpt lat="47.30199" lon="-1.47428">
        <ele>61</ele>
        <time>2021-01-10T12:40:13.000Z</time>
      </trkpt>
      <trkpt lat="47.30207" lon="-1.47419">
        <ele>61</ele>
        <time>2021-01-10T12:40:15.000Z</time>
      </trkpt>
      <trkpt lat="47.30215" lon="-1.47409">
        <ele>61</ele>
        <time>2021-01-10T12:40:17.000Z</time>
      </trkpt>
      <trkpt lat="47.30223" lon="-1.474">
        <ele>62</ele>
        <time>2021-01-10T12:40:19.000Z</time>
      </trkpt>
      <trkpt lat="47.3023" lon="-1.47391">
        <ele>62</ele>
        <time>2021-01-10T12:40:21.000Z</time>
      </trkpt>
      <trkpt lat="47.30237" lon="-1.47382">
        <ele>62</ele>
        <time>2021-01-10T12:40:23.000Z</time>
      </trkpt>
      <trkpt lat="47.30242" lon="-1.47364">
        <ele>63</ele>
        <time>2021-01-10T12:40:26.000Z</time>
      </trkpt>
      <trkpt lat="47.3024" lon="-1.47351">
        <ele>63</ele>
        <time>2021-01-10T12:40:28.000Z</time>
      </trkpt>
      <trkpt lat="47.30236" lon="-1.47336">
        <ele>64</ele>
        <time>2021-01-10T12:40:30.000Z</time>
      </trkpt>
      <trkpt lat="47.30232" lon="-1.47322">
        <ele>64</ele>
        <time>2021-01-10T12:40:32.000Z</time>
      </trkpt>
      <trkpt lat="47.30227" lon="-1.47307">
        <ele>65</ele>
        <time>2021-01-10T12:40:34.000Z</time>
      </trkpt>
      <trkpt lat="47.30222" lon="-1.47292">
        <ele>64</ele>
        <time>2021-01-10T12:40:36.000Z</time>
      </trkpt>
      <trkpt lat="47.30218" lon="-1.47278">
        <ele>64</ele>
        <time>2021-01-10T12:40:38.000Z</time>
      </trkpt>
      <trkpt lat="47.30212" lon="-1.47263">
        <ele>64</ele>
        <time>2021-01-10T12:40:40.000Z</time>
      </trkpt>
      <trkpt lat="47.30208" lon="-1.47248">
        <ele>65</ele>
        <time>2021-01-10T12:40:42.000Z</time>
      </trkpt>
      <trkpt lat="47.30205" lon="-1.47233">
        <ele>65</ele>
        <time>2021-01-10T12:40:44.000Z</time>
      </trkpt>
      <trkpt lat="47.30203" lon="-1.47217">
        <ele>66</ele>
        <time>2021-01-10T12:40:46.000Z</time>
      </trkpt>
      <trkpt lat="47.30204" lon="-1.47201">
        <ele>65</ele>
        <time>2021-01-10T12:40:48.000Z</time>
      </trkpt>
      <trkpt lat="47.30205" lon="-1.47185">
        <ele>65</ele>
        <time>2021-01-10T12:40:50.000Z</time>
      </trkpt>
      <trkpt lat="47.30208" lon="-1.4717">
        <ele>65</ele>
        <time>2021-01-10T12:40:52.000Z</time>
      </trkpt>
      <trkpt lat="47.3021" lon="-1.47154">
        <ele>66</ele>
        <time>2021-01-10T12:40:54.000Z</time>
      </trkpt>
      <trkpt lat="47.30213" lon="-1.47139">
        <ele>66</ele>
        <time>2021-01-10T12:40:56.000Z</time>
      </trkpt>
      <trkpt lat="47.30216" lon="-1.47123">
        <ele>66</ele>
        <time>2021-01-10T12:40:58.000Z</time>
      </trkpt>
      <trkpt lat="47.30219" lon="-1.47106">
        <ele>66</ele>
        <time>2021-01-10T12:41:00.000Z</time>
      </trkpt>
      <trkpt lat="47.30221" lon="-1.47088">
        <ele>65</ele>
        <time>2021-01-10T12:41:02.000Z</time>
      </trkpt>
      <trkpt lat="47.30223" lon="-1.47069">
        <ele>65</ele>
        <time>2021-01-10T12:41:04.000Z</time>
      </trkpt>
      <trkpt lat="47.30226" lon="-1.4705">
        <ele>64</ele>
        <time>2021-01-10T12:41:06.000Z</time>
      </trkpt>
      <trkpt lat="47.30228" lon="-1.47031">
        <ele>64</ele>
        <time>2021-01-10T12:41:08.000Z</time>
      </trkpt>
      <trkpt lat="47.30231" lon="-1.47013">
        <ele>64</ele>
        <time>2021-01-10T12:41:10.000Z</time>
      </trkpt>
      <trkpt lat="47.30234" lon="-1.46995">
        <ele>64</ele>
        <time>2021-01-10T12:41:12.000Z</time>
      </trkpt>
      <trkpt lat="47.30236" lon="-1.46977">
        <ele>63</ele>
        <time>2021-01-10T12:41:14.000Z</time>
      </trkpt>
      <trkpt lat="47.30239" lon="-1.46958">
        <ele>62</ele>
        <time>2021-01-10T12:41:16.000Z</time>
      </trkpt>
      <trkpt lat="47.30242" lon="-1.4694">
        <ele>62</ele>
        <time>2021-01-10T12:41:18.000Z</time>
      </trkpt>
      <trkpt lat="47.30245" lon="-1.46923">
        <ele>62</ele>
        <time>2021-01-10T12:41:20.000Z</time>
      </trkpt>
      <trkpt lat="47.30248" lon="-1.46906">
        <ele>62</ele>
        <time>2021-01-10T12:41:22.000Z</time>
      </trkpt>
      <trkpt lat="47.30252" lon="-1.46888">
        <ele>62</ele>
        <time>2021-01-10T12:41:24.000Z</time>
      </trkpt>
      <trkpt lat="47.30255" lon="-1.46871">
        <ele>61</ele>
        <time>2021-01-10T12:41:26.000Z</time>
      </trkpt>
      <trkpt lat="47.30257" lon="-1.46854">
        <ele>61</ele>
        <time>2021-01-10T12:41:28.000Z</time>
      </trkpt>
      <trkpt lat="47.3026" lon="-1.46836">
        <ele>61</ele>
        <time>2021-01-10T12:41:30.000Z</time>
      </trkpt>
      <trkpt lat="47.30263" lon="-1.46818">
        <ele>61</ele>
        <time>2021-01-10T12:41:32.000Z</time>
      </trkpt>
      <trkpt lat="47.30265" lon="-1.468">
        <ele>61</ele>
        <time>2021-01-10T12:41:34.000Z</time>
      </trkpt>
      <trkpt lat="47.30268" lon="-1.46783">
        <ele>61</ele>
        <time>2021-01-10T12:41:36.000Z</time>
      </trkpt>
      <trkpt lat="47.30271" lon="-1.46765">
        <ele>61</ele>
        <time>2021-01-10T12:41:38.000Z</time>
      </trkpt>
      <trkpt lat="47.30273" lon="-1.46747">
        <ele>61</ele>
        <time>2021-01-10T12:41:40.000Z</time>
      </trkpt>
      <trkpt lat="47.30275" lon="-1.46728">
        <ele>61</ele>
        <time>2021-01-10T12:41:42.000Z</time>
      </trkpt>
      <trkpt lat="47.30276" lon="-1.46709">
        <ele>61</ele>
        <time>2021-01-10T12:41:44.000Z</time>
      </trkpt>
      <trkpt lat="47.30277" lon="-1.46691">
        <ele>61</ele>
        <time>2021-01-10T12:41:46.000Z</time>
      </trkpt>
      <trkpt lat="47.30278" lon="-1.46673">
        <ele>61</ele>
        <time>2021-01-10T12:41:48.000Z</time>
      </trkpt>
      <trkpt lat="47.30279" lon="-1.46655">
        <ele>60</ele>
        <time>2021-01-10T12:41:50.000Z</time>
      </trkpt>
      <trkpt lat="47.3028" lon="-1.46637">
        <ele>60</ele>
        <time>2021-01-10T12:41:52.000Z</time>
      </trkpt>
      <trkpt lat="47.30281" lon="-1.4662">
        <ele>60</ele>
        <time>2021-01-10T12:41:54.000Z</time>
      </trkpt>
      <trkpt lat="47.30281" lon="-1.46603">
        <ele>60</ele>
        <time>2021-01-10T12:41:56.000Z</time>
      </trkpt>
      <trkpt lat="47.30281" lon="-1.46588">
        <ele>60</ele>
        <time>2021-01-10T12:41:58.000Z</time>
      </trkpt>
      <trkpt lat="47.3028" lon="-1.46572">
        <ele>61</ele>
        <time>2021-01-10T12:42:00.000Z</time>
      </trkpt>
      <trkpt lat="47.30279" lon="-1.46558">
        <ele>61</ele>
        <time>2021-01-10T12:42:02.000Z</time>
      </trkpt>
      <trkpt lat="47.30278" lon="-1.46542">
        <ele>61</ele>
        <time>2021-01-10T12:42:04.000Z</time>
      </trkpt>
      <trkpt lat="47.30277" lon="-1.46527">
        <ele>62</ele>
        <time>2021-01-10T12:42:06.000Z</time>
      </trkpt>
      <trkpt lat="47.30276" lon="-1.46512">
        <ele>63</ele>
        <time>2021-01-10T12:42:08.000Z</time>
      </trkpt>
      <trkpt lat="47.30275" lon="-1.46496">
        <ele>63</ele>
        <time>2021-01-10T12:42:10.000Z</time>
      </trkpt>
      <trkpt lat="47.30274" lon="-1.46481">
        <ele>64</ele>
        <time>2021-01-10T12:42:12.000Z</time>
      </trkpt>
      <trkpt lat="47.30274" lon="-1.46466">
        <ele>64</ele>
        <time>2021-01-10T12:42:14.000Z</time>
      </trkpt>
      <trkpt lat="47.30272" lon="-1.4645">
        <ele>65</ele>
        <time>2021-01-10T12:42:16.000Z</time>
      </trkpt>
      <trkpt lat="47.30271" lon="-1.46434">
        <ele>65</ele>
        <time>2021-01-10T12:42:18.000Z</time>
      </trkpt>
      <trkpt lat="47.3027" lon="-1.46418">
        <ele>66</ele>
        <time>2021-01-10T12:42:20.000Z</time>
      </trkpt>
      <trkpt lat="47.30269" lon="-1.46403">
        <ele>66</ele>
        <time>2021-01-10T12:42:22.000Z</time>
      </trkpt>
      <trkpt lat="47.30268" lon="-1.46388">
        <ele>66</ele>
        <time>2021-01-10T12:42:24.000Z</time>
      </trkpt>
      <trkpt lat="47.30267" lon="-1.46371">
        <ele>66</ele>
        <time>2021-01-10T12:42:26.000Z</time>
      </trkpt>
      <trkpt lat="47.30266" lon="-1.46355">
        <ele>66</ele>
        <time>2021-01-10T12:42:28.000Z</time>
      </trkpt>
      <trkpt lat="47.30265" lon="-1.46339">
        <ele>66</ele>
        <time>2021-01-10T12:42:30.000Z</time>
      </trkpt>
      <trkpt lat="47.30264" lon="-1.46323">
        <ele>66</ele>
        <time>2021-01-10T12:42:32.000Z</time>
      </trkpt>
      <trkpt lat="47.30263" lon="-1.46305">
        <ele>66</ele>
        <time>2021-01-10T12:42:34.000Z</time>
      </trkpt>
      <trkpt lat="47.30263" lon="-1.46289">
        <ele>66</ele>
        <time>2021-01-10T12:42:36.000Z</time>
      </trkpt>
      <trkpt lat="47.30261" lon="-1.46273">
        <ele>66</ele>
        <time>2021-01-10T12:42:38.000Z</time>
      </trkpt>
      <trkpt lat="47.3026" lon="-1.46257">
        <ele>65</ele>
        <time>2021-01-10T12:42:40.000Z</time>
      </trkpt>
      <trkpt lat="47.30259" lon="-1.46242">
        <ele>66</ele>
        <time>2021-01-10T12:42:42.000Z</time>
      </trkpt>
      <trkpt lat="47.30258" lon="-1.46225">
        <ele>66</ele>
        <time>2021-01-10T12:42:44.000Z</time>
      </trkpt>
      <trkpt lat="47.30257" lon="-1.4621">
        <ele>65</ele>
        <time>2021-01-10T12:42:46.000Z</time>
      </trkpt>
      <trkpt lat="47.30256" lon="-1.46194">
        <ele>65</ele>
        <time>2021-01-10T12:42:48.000Z</time>
      </trkpt>
      <trkpt lat="47.30255" lon="-1.46178">
        <ele>65</ele>
        <time>2021-01-10T12:42:50.000Z</time>
      </trkpt>
      <trkpt lat="47.30254" lon="-1.46162">
        <ele>66</ele>
        <time>2021-01-10T12:42:52.000Z</time>
      </trkpt>
      <trkpt lat="47.30254" lon="-1.46146">
        <ele>66</ele>
        <time>2021-01-10T12:42:54.000Z</time>
      </trkpt>
      <trkpt lat="47.30256" lon="-1.4613">
        <ele>66</ele>
        <time>2021-01-10T12:42:56.000Z</time>
      </trkpt>
      <trkpt lat="47.3026" lon="-1.46116">
        <ele>66</ele>
        <time>2021-01-10T12:42:58.000Z</time>
      </trkpt>
      <trkpt lat="47.30267" lon="-1.46102">
        <ele>66</ele>
        <time>2021-01-10T12:43:00.000Z</time>
      </trkpt>
      <trkpt lat="47.30274" lon="-1.4609">
        <ele>66</ele>
        <time>2021-01-10T12:43:02.000Z</time>
      </trkpt>
      <trkpt lat="47.30281" lon="-1.46078">
        <ele>66</ele>
        <time>2021-01-10T12:43:04.000Z</time>
      </trkpt>
      <trkpt lat="47.30288" lon="-1.46065">
        <ele>66</ele>
        <time>2021-01-10T12:43:06.000Z</time>
      </trkpt>
      <trkpt lat="47.30294" lon="-1.46052">
        <ele>66</ele>
        <time>2021-01-10T12:43:08.000Z</time>
      </trkpt>
      <trkpt lat="47.303" lon="-1.46038">
        <ele>66</ele>
        <time>2021-01-10T12:43:10.000Z</time>
      </trkpt>
      <trkpt lat="47.30304" lon="-1.46024">
        <ele>66</ele>
        <time>2021-01-10T12:43:12.000Z</time>
      </trkpt>
      <trkpt lat="47.30308" lon="-1.46009">
        <ele>66</ele>
        <time>2021-01-10T12:43:14.000Z</time>
      </trkpt>
      <trkpt lat="47.3031" lon="-1.45994">
        <ele>66</ele>
        <time>2021-01-10T12:43:16.000Z</time>
      </trkpt>
      <trkpt lat="47.30312" lon="-1.45979">
        <ele>66</ele>
        <time>2021-01-10T12:43:18.000Z</time>
      </trkpt>
      <trkpt lat="47.30314" lon="-1.45963">
        <ele>66</ele>
        <time>2021-01-10T12:43:20.000Z</time>
      </trkpt>
      <trkpt lat="47.30316" lon="-1.45946">
        <ele>66</ele>
        <time>2021-01-10T12:43:22.000Z</time>
      </trkpt>
      <trkpt lat="47.30319" lon="-1.45929">
        <ele>67</ele>
        <time>2021-01-10T12:43:24.000Z</time>
      </trkpt>
      <trkpt lat="47.30322" lon="-1.45912">
        <ele>66</ele>
        <time>2021-01-10T12:43:26.000Z</time>
      </trkpt>
      <trkpt lat="47.30324" lon="-1.45895">
        <ele>66</ele>
        <time>2021-01-10T12:43:28.000Z</time>
      </trkpt>
      <trkpt lat="47.30328" lon="-1.45879">
        <ele>66</ele>
        <time>2021-01-10T12:43:30.000Z</time>
      </trkpt>
      <trkpt lat="47.30331" lon="-1.45863">
        <ele>66</ele>
        <time>2021-01-10T12:43:32.000Z</time>
      </trkpt>
      <trkpt lat="47.30332" lon="-1.45849">
        <ele>66</ele>
        <time>2021-01-10T12:43:34.000Z</time>
      </trkpt>
      <trkpt lat="47.30335" lon="-1.45864">
        <ele>66</ele>
        <time>2021-01-10T12:43:40.000Z</time>
      </trkpt>
      <trkpt lat="47.30337" lon="-1.45882">
        <ele>65</ele>
        <time>2021-01-10T12:43:43.000Z</time>
      </trkpt>
      <trkpt lat="47.30345" lon="-1.45888">
        <ele>65</ele>
        <time>2021-01-10T12:43:45.000Z</time>
      </trkpt>
      <trkpt lat="47.30356" lon="-1.45885">
        <ele>65</ele>
        <time>2021-01-10T12:43:47.000Z</time>
      </trkpt>
      <trkpt lat="47.30367" lon="-1.45883">
        <ele>66</ele>
        <time>2021-01-10T12:43:49.000Z</time>
      </trkpt>
      <trkpt lat="47.30378" lon="-1.45881">
        <ele>66</ele>
        <time>2021-01-10T12:43:51.000Z</time>
      </trkpt>
      <trkpt lat="47.30389" lon="-1.45879">
        <ele>66</ele>
        <time>2021-01-10T12:43:53.000Z</time>
      </trkpt>
      <trkpt lat="47.304" lon="-1.45875">
        <ele>66</ele>
        <time>2021-01-10T12:43:55.000Z</time>
      </trkpt>
      <trkpt lat="47.3041" lon="-1.45868">
        <ele>66</ele>
        <time>2021-01-10T12:43:57.000Z</time>
      </trkpt>
      <trkpt lat="47.30418" lon="-1.45854">
        <ele>66</ele>
        <time>2021-01-10T12:43:59.000Z</time>
      </trkpt>
      <trkpt lat="47.30423" lon="-1.45837">
        <ele>66</ele>
        <time>2021-01-10T12:44:01.000Z</time>
      </trkpt>
      <trkpt lat="47.30426" lon="-1.4582">
        <ele>66</ele>
        <time>2021-01-10T12:44:03.000Z</time>
      </trkpt>
      <trkpt lat="47.30428" lon="-1.45803">
        <ele>66</ele>
        <time>2021-01-10T12:44:05.000Z</time>
      </trkpt>
      <trkpt lat="47.3043" lon="-1.45787">
        <ele>66</ele>
        <time>2021-01-10T12:44:07.000Z</time>
      </trkpt>
      <trkpt lat="47.30432" lon="-1.4577">
        <ele>67</ele>
        <time>2021-01-10T12:44:09.000Z</time>
      </trkpt>
      <trkpt lat="47.30435" lon="-1.45754">
        <ele>67</ele>
        <time>2021-01-10T12:44:11.000Z</time>
      </trkpt>
      <trkpt lat="47.30439" lon="-1.45738">
        <ele>67</ele>
        <time>2021-01-10T12:44:13.000Z</time>
      </trkpt>
      <trkpt lat="47.30442" lon="-1.45722">
        <ele>67</ele>
        <time>2021-01-10T12:44:15.000Z</time>
      </trkpt>
      <trkpt lat="47.30446" lon="-1.45707">
        <ele>67</ele>
        <time>2021-01-10T12:44:17.000Z</time>
      </trkpt>
      <trkpt lat="47.3045" lon="-1.45692">
        <ele>67</ele>
        <time>2021-01-10T12:44:19.000Z</time>
      </trkpt>
      <trkpt lat="47.30455" lon="-1.45678">
        <ele>67</ele>
        <time>2021-01-10T12:44:21.000Z</time>
      </trkpt>
      <trkpt lat="47.3046" lon="-1.45663">
        <ele>66</ele>
        <time>2021-01-10T12:44:23.000Z</time>
      </trkpt>
      <trkpt lat="47.30465" lon="-1.45649">
        <ele>67</ele>
        <time>2021-01-10T12:44:25.000Z</time>
      </trkpt>
      <trkpt lat="47.3047" lon="-1.45634">
        <ele>66</ele>
        <time>2021-01-10T12:44:27.000Z</time>
      </trkpt>
      <trkpt lat="47.30475" lon="-1.4562">
        <ele>67</ele>
        <time>2021-01-10T12:44:29.000Z</time>
      </trkpt>
      <trkpt lat="47.30479" lon="-1.45606">
        <ele>67</ele>
        <time>2021-01-10T12:44:31.000Z</time>
      </trkpt>
      <trkpt lat="47.30485" lon="-1.45592">
        <ele>67</ele>
        <time>2021-01-10T12:44:33.000Z</time>
      </trkpt>
      <trkpt lat="47.3049" lon="-1.45577">
        <ele>68</ele>
        <time>2021-01-10T12:44:35.000Z</time>
      </trkpt>
      <trkpt lat="47.30495" lon="-1.45563">
        <ele>67</ele>
        <time>2021-01-10T12:44:37.000Z</time>
      </trkpt>
      <trkpt lat="47.30499" lon="-1.45549">
        <ele>68</ele>
        <time>2021-01-10T12:44:39.000Z</time>
      </trkpt>
      <trkpt lat="47.30505" lon="-1.45534">
        <ele>68</ele>
        <time>2021-01-10T12:44:41.000Z</time>
      </trkpt>
      <trkpt lat="47.3051" lon="-1.4552">
        <ele>67</ele>
        <time>2021-01-10T12:44:43.000Z</time>
      </trkpt>
      <trkpt lat="47.30515" lon="-1.45507">
        <ele>68</ele>
        <time>2021-01-10T12:44:45.000Z</time>
      </trkpt>
      <trkpt lat="47.30519" lon="-1.45493">
        <ele>68</ele>
        <time>2021-01-10T12:44:47.000Z</time>
      </trkpt>
      <trkpt lat="47.30524" lon="-1.45479">
        <ele>68</ele>
        <time>2021-01-10T12:44:49.000Z</time>
      </trkpt>
      <trkpt lat="47.30528" lon="-1.45466">
        <ele>68</ele>
        <time>2021-01-10T12:44:51.000Z</time>
      </trkpt>
      <trkpt lat="47.30533" lon="-1.45453">
        <ele>68</ele>
        <time>2021-01-10T12:44:53.000Z</time>
      </trkpt>
      <trkpt lat="47.30538" lon="-1.4544">
        <ele>69</ele>
        <time>2021-01-10T12:44:55.000Z</time>
      </trkpt>
      <trkpt lat="47.30543" lon="-1.45427">
        <ele>69</ele>
        <time>2021-01-10T12:44:57.000Z</time>
      </trkpt>
      <trkpt lat="47.30548" lon="-1.45415">
        <ele>69</ele>
        <time>2021-01-10T12:44:59.000Z</time>
      </trkpt>
      <trkpt lat="47.30553" lon="-1.45403">
        <ele>69</ele>
        <time>2021-01-10T12:45:01.000Z</time>
      </trkpt>
      <trkpt lat="47.30559" lon="-1.4539">
        <ele>69</ele>
        <time>2021-01-10T12:45:03.000Z</time>
      </trkpt>
      <trkpt lat="47.30564" lon="-1.45378">
        <ele>69</ele>
        <time>2021-01-10T12:45:05.000Z</time>
      </trkpt>
      <trkpt lat="47.3057" lon="-1.45366">
        <ele>69</ele>
        <time>2021-01-10T12:45:07.000Z</time>
      </trkpt>
      <trkpt lat="47.30577" lon="-1.45353">
        <ele>70</ele>
        <time>2021-01-10T12:45:09.000Z</time>
      </trkpt>
      <trkpt lat="47.30584" lon="-1.45342">
        <ele>70</ele>
        <time>2021-01-10T12:45:11.000Z</time>
      </trkpt>
      <trkpt lat="47.3059" lon="-1.4533">
        <ele>70</ele>
        <time>2021-01-10T12:45:13.000Z</time>
      </trkpt>
      <trkpt lat="47.30597" lon="-1.45319">
        <ele>70</ele>
        <time>2021-01-10T12:45:15.000Z</time>
      </trkpt>
      <trkpt lat="47.30603" lon="-1.45307">
        <ele>70</ele>
        <time>2021-01-10T12:45:17.000Z</time>
      </trkpt>
      <trkpt lat="47.3061" lon="-1.45294">
        <ele>71</ele>
        <time>2021-01-10T12:45:19.000Z</time>
      </trkpt>
      <trkpt lat="47.30616" lon="-1.45283">
        <ele>71</ele>
        <time>2021-01-10T12:45:21.000Z</time>
      </trkpt>
      <trkpt lat="47.30621" lon="-1.45271">
        <ele>71</ele>
        <time>2021-01-10T12:45:23.000Z</time>
      </trkpt>
      <trkpt lat="47.30627" lon="-1.4526">
        <ele>71</ele>
        <time>2021-01-10T12:45:25.000Z</time>
      </trkpt>
      <trkpt lat="47.30632" lon="-1.45249">
        <ele>71</ele>
        <time>2021-01-10T12:45:27.000Z</time>
      </trkpt>
      <trkpt lat="47.30637" lon="-1.45237">
        <ele>71</ele>
        <time>2021-01-10T12:45:29.000Z</time>
      </trkpt>
      <trkpt lat="47.30645" lon="-1.45222">
        <ele>71</ele>
        <time>2021-01-10T12:45:32.000Z</time>
      </trkpt>
      <trkpt lat="47.30652" lon="-1.45205">
        <ele>71</ele>
        <time>2021-01-10T12:45:35.000Z</time>
      </trkpt>
      <trkpt lat="47.30658" lon="-1.45194">
        <ele>71</ele>
        <time>2021-01-10T12:45:37.000Z</time>
      </trkpt>
      <trkpt lat="47.30663" lon="-1.45183">
        <ele>72</ele>
        <time>2021-01-10T12:45:39.000Z</time>
      </trkpt>
      <trkpt lat="47.3067" lon="-1.45173">
        <ele>72</ele>
        <time>2021-01-10T12:45:41.000Z</time>
      </trkpt>
      <trkpt lat="47.30678" lon="-1.45162">
        <ele>73</ele>
        <time>2021-01-10T12:45:44.000Z</time>
      </trkpt>
      <trkpt lat="47.30685" lon="-1.45153">
        <ele>73</ele>
        <time>2021-01-10T12:45:47.000Z</time>
      </trkpt>
      <trkpt lat="47.30694" lon="-1.45145">
        <ele>74</ele>
        <time>2021-01-10T12:45:50.000Z</time>
      </trkpt>
      <trkpt lat="47.30703" lon="-1.45139">
        <ele>74</ele>
        <time>2021-01-10T12:45:53.000Z</time>
      </trkpt>
      <trkpt lat="47.30713" lon="-1.45134">
        <ele>75</ele>
        <time>2021-01-10T12:45:56.000Z</time>
      </trkpt>
      <trkpt lat="47.30722" lon="-1.45128">
        <ele>76</ele>
        <time>2021-01-10T12:45:59.000Z</time>
      </trkpt>
      <trkpt lat="47.30731" lon="-1.45123">
        <ele>77</ele>
        <time>2021-01-10T12:46:02.000Z</time>
      </trkpt>
      <trkpt lat="47.30741" lon="-1.45117">
        <ele>78</ele>
        <time>2021-01-10T12:46:05.000Z</time>
      </trkpt>
      <trkpt lat="47.30752" lon="-1.45112">
        <ele>78</ele>
        <time>2021-01-10T12:46:08.000Z</time>
      </trkpt>
      <trkpt lat="47.30761" lon="-1.45106">
        <ele>79</ele>
        <time>2021-01-10T12:46:11.000Z</time>
      </trkpt>
      <trkpt lat="47.3077" lon="-1.45099">
        <ele>79</ele>
        <time>2021-01-10T12:46:14.000Z</time>
      </trkpt>
      <trkpt lat="47.30779" lon="-1.45091">
        <ele>80</ele>
        <time>2021-01-10T12:46:17.000Z</time>
      </trkpt>
      <trkpt lat="47.30786" lon="-1.45081">
        <ele>80</ele>
        <time>2021-01-10T12:46:20.000Z</time>
      </trkpt>
      <trkpt lat="47.30794" lon="-1.45069">
        <ele>81</ele>
        <time>2021-01-10T12:46:23.000Z</time>
      </trkpt>
      <trkpt lat="47.30803" lon="-1.45053">
        <ele>81</ele>
        <time>2021-01-10T12:46:27.000Z</time>
      </trkpt>
      <trkpt lat="47.30809" lon="-1.45041">
        <ele>81</ele>
        <time>2021-01-10T12:46:30.000Z</time>
      </trkpt>
      <trkpt lat="47.30815" lon="-1.45029">
        <ele>82</ele>
        <time>2021-01-10T12:46:33.000Z</time>
      </trkpt>
      <trkpt lat="47.30821" lon="-1.45018">
        <ele>82</ele>
        <time>2021-01-10T12:46:36.000Z</time>
      </trkpt>
      <trkpt lat="47.30828" lon="-1.45006">
        <ele>82</ele>
        <time>2021-01-10T12:46:39.000Z</time>
      </trkpt>
      <trkpt lat="47.30834" lon="-1.44994">
        <ele>83</ele>
        <time>2021-01-10T12:46:42.000Z</time>
      </trkpt>
      <trkpt lat="47.3084" lon="-1.44983">
        <ele>83</ele>
        <time>2021-01-10T12:46:45.000Z</time>
      </trkpt>
      <trkpt lat="47.30846" lon="-1.4497">
        <ele>84</ele>
        <time>2021-01-10T12:46:48.000Z</time>
      </trkpt>
      <trkpt lat="47.30853" lon="-1.44958">
        <ele>85</ele>
        <time>2021-01-10T12:46:51.000Z</time>
      </trkpt>
      <trkpt lat="47.30859" lon="-1.44946">
        <ele>86</ele>
        <time>2021-01-10T12:46:54.000Z</time>
      </trkpt>
      <trkpt lat="47.30866" lon="-1.44935">
        <ele>86</ele>
        <time>2021-01-10T12:46:57.000Z</time>
      </trkpt>
      <trkpt lat="47.30873" lon="-1.44923">
        <ele>87</ele>
        <time>2021-01-10T12:47:00.000Z</time>
      </trkpt>
      <trkpt lat="47.30879" lon="-1.44911">
        <ele>87</ele>
        <time>2021-01-10T12:47:03.000Z</time>
      </trkpt>
      <trkpt lat="47.30886" lon="-1.44901">
        <ele>87</ele>
        <time>2021-01-10T12:47:06.000Z</time>
      </trkpt>
      <trkpt lat="47.30894" lon="-1.44891">
        <ele>88</ele>
        <time>2021-01-10T12:47:09.000Z</time>
      </trkpt>
      <trkpt lat="47.30902" lon="-1.44881">
        <ele>89</ele>
        <time>2021-01-10T12:47:12.000Z</time>
      </trkpt>
      <trkpt lat="47.3091" lon="-1.44872">
        <ele>89</ele>
        <time>2021-01-10T12:47:15.000Z</time>
      </trkpt>
      <trkpt lat="47.30918" lon="-1.44863">
        <ele>90</ele>
        <time>2021-01-10T12:47:18.000Z</time>
      </trkpt>
      <trkpt lat="47.30926" lon="-1.44852">
        <ele>90</ele>
        <time>2021-01-10T12:47:21.000Z</time>
      </trkpt>
      <trkpt lat="47.30933" lon="-1.44842">
        <ele>91</ele>
        <time>2021-01-10T12:47:24.000Z</time>
      </trkpt>
      <trkpt lat="47.30939" lon="-1.4483">
        <ele>91</ele>
        <time>2021-01-10T12:47:27.000Z</time>
      </trkpt>
      <trkpt lat="47.30945" lon="-1.44816">
        <ele>91</ele>
        <time>2021-01-10T12:47:30.000Z</time>
      </trkpt>
      <trkpt lat="47.3095" lon="-1.448">
        <ele>93</ele>
        <time>2021-01-10T12:47:33.000Z</time>
      </trkpt>
      <trkpt lat="47.30954" lon="-1.44785">
        <ele>93</ele>
        <time>2021-01-10T12:47:36.000Z</time>
      </trkpt>
      <trkpt lat="47.30957" lon="-1.4477">
        <ele>93</ele>
        <time>2021-01-10T12:47:39.000Z</time>
      </trkpt>
      <trkpt lat="47.30961" lon="-1.44755">
        <ele>94</ele>
        <time>2021-01-10T12:47:42.000Z</time>
      </trkpt>
      <trkpt lat="47.30965" lon="-1.4474">
        <ele>94</ele>
        <time>2021-01-10T12:47:45.000Z</time>
      </trkpt>
      <trkpt lat="47.30968" lon="-1.44724">
        <ele>94</ele>
        <time>2021-01-10T12:47:48.000Z</time>
      </trkpt>
      <trkpt lat="47.30972" lon="-1.44709">
        <ele>96</ele>
        <time>2021-01-10T12:47:51.000Z</time>
      </trkpt>
      <trkpt lat="47.30976" lon="-1.44695">
        <ele>96</ele>
        <time>2021-01-10T12:47:54.000Z</time>
      </trkpt>
      <trkpt lat="47.30979" lon="-1.44681">
        <ele>97</ele>
        <time>2021-01-10T12:47:57.000Z</time>
      </trkpt>
      <trkpt lat="47.30982" lon="-1.44667">
        <ele>97</ele>
        <time>2021-01-10T12:48:00.000Z</time>
      </trkpt>
      <trkpt lat="47.30986" lon="-1.44652">
        <ele>97</ele>
        <time>2021-01-10T12:48:03.000Z</time>
      </trkpt>
      <trkpt lat="47.30991" lon="-1.44633">
        <ele>98</ele>
        <time>2021-01-10T12:48:07.000Z</time>
      </trkpt>
      <trkpt lat="47.30996" lon="-1.4462">
        <ele>98</ele>
        <time>2021-01-10T12:48:10.000Z</time>
      </trkpt>
      <trkpt lat="47.31" lon="-1.44607">
        <ele>98</ele>
        <time>2021-01-10T12:48:13.000Z</time>
      </trkpt>
      <trkpt lat="47.31006" lon="-1.44593">
        <ele>99</ele>
        <time>2021-01-10T12:48:16.000Z</time>
      </trkpt>
      <trkpt lat="47.31012" lon="-1.4458">
        <ele>99</ele>
        <time>2021-01-10T12:48:19.000Z</time>
      </trkpt>
      <trkpt lat="47.31018" lon="-1.44569">
        <ele>100</ele>
        <time>2021-01-10T12:48:22.000Z</time>
      </trkpt>
      <trkpt lat="47.31025" lon="-1.44558">
        <ele>100</ele>
        <time>2021-01-10T12:48:25.000Z</time>
      </trkpt>
      <trkpt lat="47.31034" lon="-1.44544">
        <ele>100</ele>
        <time>2021-01-10T12:48:29.000Z</time>
      </trkpt>
      <trkpt lat="47.31044" lon="-1.44531">
        <ele>101</ele>
        <time>2021-01-10T12:48:33.000Z</time>
      </trkpt>
      <trkpt lat="47.31055" lon="-1.44517">
        <ele>101</ele>
        <time>2021-01-10T12:48:37.000Z</time>
      </trkpt>
      <trkpt lat="47.31062" lon="-1.44507">
        <ele>101</ele>
        <time>2021-01-10T12:48:40.000Z</time>
      </trkpt>
      <trkpt lat="47.3107" lon="-1.44496">
        <ele>103</ele>
        <time>2021-01-10T12:48:43.000Z</time>
      </trkpt>
      <trkpt lat="47.31079" lon="-1.44486">
        <ele>103</ele>
        <time>2021-01-10T12:48:46.000Z</time>
      </trkpt>
      <trkpt lat="47.31091" lon="-1.44472">
        <ele>104</ele>
        <time>2021-01-10T12:48:50.000Z</time>
      </trkpt>
      <trkpt lat="47.31099" lon="-1.44462">
        <ele>104</ele>
        <time>2021-01-10T12:48:53.000Z</time>
      </trkpt>
      <trkpt lat="47.31107" lon="-1.44452">
        <ele>105</ele>
        <time>2021-01-10T12:48:56.000Z</time>
      </trkpt>
      <trkpt lat="47.31115" lon="-1.44442">
        <ele>105</ele>
        <time>2021-01-10T12:48:59.000Z</time>
      </trkpt>
      <trkpt lat="47.31123" lon="-1.44432">
        <ele>105</ele>
        <time>2021-01-10T12:49:02.000Z</time>
      </trkpt>
      <trkpt lat="47.31131" lon="-1.44422">
        <ele>105</ele>
        <time>2021-01-10T12:49:05.000Z</time>
      </trkpt>
      <trkpt lat="47.31138" lon="-1.44412">
        <ele>106</ele>
        <time>2021-01-10T12:49:08.000Z</time>
      </trkpt>
      <trkpt lat="47.31146" lon="-1.44402">
        <ele>106</ele>
        <time>2021-01-10T12:49:11.000Z</time>
      </trkpt>
      <trkpt lat="47.31154" lon="-1.44392">
        <ele>107</ele>
        <time>2021-01-10T12:49:14.000Z</time>
      </trkpt>
      <trkpt lat="47.31162" lon="-1.44382">
        <ele>107</ele>
        <time>2021-01-10T12:49:17.000Z</time>
      </trkpt>
      <trkpt lat="47.3117" lon="-1.44372">
        <ele>107</ele>
        <time>2021-01-10T12:49:20.000Z</time>
      </trkpt>
      <trkpt lat="47.31179" lon="-1.44362">
        <ele>107</ele>
        <time>2021-01-10T12:49:23.000Z</time>
      </trkpt>
      <trkpt lat="47.31189" lon="-1.44351">
        <ele>108</ele>
        <time>2021-01-10T12:49:26.000Z</time>
      </trkpt>
      <trkpt lat="47.31196" lon="-1.44341">
        <ele>109</ele>
        <time>2021-01-10T12:49:29.000Z</time>
      </trkpt>
      <trkpt lat="47.31205" lon="-1.44328">
        <ele>109</ele>
        <time>2021-01-10T12:49:32.000Z</time>
      </trkpt>
      <trkpt lat="47.31212" lon="-1.44317">
        <ele>109</ele>
        <time>2021-01-10T12:49:35.000Z</time>
      </trkpt>
      <trkpt lat="47.31221" lon="-1.44304">
        <ele>110</ele>
        <time>2021-01-10T12:49:38.000Z</time>
      </trkpt>
      <trkpt lat="47.31227" lon="-1.44292">
        <ele>110</ele>
        <time>2021-01-10T12:49:41.000Z</time>
      </trkpt>
      <trkpt lat="47.31233" lon="-1.44277">
        <ele>110</ele>
        <time>2021-01-10T12:49:44.000Z</time>
      </trkpt>
      <trkpt lat="47.31238" lon="-1.44262">
        <ele>111</ele>
        <time>2021-01-10T12:49:47.000Z</time>
      </trkpt>
      <trkpt lat="47.31244" lon="-1.44246">
        <ele>111</ele>
        <time>2021-01-10T12:49:50.000Z</time>
      </trkpt>
      <trkpt lat="47.3125" lon="-1.4423">
        <ele>111</ele>
        <time>2021-01-10T12:49:53.000Z</time>
      </trkpt>
      <trkpt lat="47.31254" lon="-1.44219">
        <ele>111</ele>
        <time>2021-01-10T12:49:55.000Z</time>
      </trkpt>
      <trkpt lat="47.31258" lon="-1.44206">
        <ele>111</ele>
        <time>2021-01-10T12:49:57.000Z</time>
      </trkpt>
      <trkpt lat="47.31266" lon="-1.44189">
        <ele>111</ele>
        <time>2021-01-10T12:50:00.000Z</time>
      </trkpt>
      <trkpt lat="47.31272" lon="-1.44171">
        <ele>111</ele>
        <time>2021-01-10T12:50:03.000Z</time>
      </trkpt>
      <trkpt lat="47.3128" lon="-1.44153">
        <ele>112</ele>
        <time>2021-01-10T12:50:06.000Z</time>
      </trkpt>
      <trkpt lat="47.31284" lon="-1.44141">
        <ele>113</ele>
        <time>2021-01-10T12:50:08.000Z</time>
      </trkpt>
      <trkpt lat="47.31289" lon="-1.44129">
        <ele>113</ele>
        <time>2021-01-10T12:50:10.000Z</time>
      </trkpt>
      <trkpt lat="47.31294" lon="-1.44117">
        <ele>113</ele>
        <time>2021-01-10T12:50:12.000Z</time>
      </trkpt>
      <trkpt lat="47.31299" lon="-1.44105">
        <ele>113</ele>
        <time>2021-01-10T12:50:14.000Z</time>
      </trkpt>
      <trkpt lat="47.31303" lon="-1.44092">
        <ele>114</ele>
        <time>2021-01-10T12:50:16.000Z</time>
      </trkpt>
      <trkpt lat="47.31308" lon="-1.4408">
        <ele>113</ele>
        <time>2021-01-10T12:50:18.000Z</time>
      </trkpt>
      <trkpt lat="47.31313" lon="-1.44067">
        <ele>113</ele>
        <time>2021-01-10T12:50:20.000Z</time>
      </trkpt>
      <trkpt lat="47.31318" lon="-1.44055">
        <ele>114</ele>
        <time>2021-01-10T12:50:22.000Z</time>
      </trkpt>
      <trkpt lat="47.31323" lon="-1.44042">
        <ele>114</ele>
        <time>2021-01-10T12:50:24.000Z</time>
      </trkpt>
      <trkpt lat="47.31327" lon="-1.44029">
        <ele>114</ele>
        <time>2021-01-10T12:50:26.000Z</time>
      </trkpt>
      <trkpt lat="47.31331" lon="-1.44016">
        <ele>114</ele>
        <time>2021-01-10T12:50:28.000Z</time>
      </trkpt>
      <trkpt lat="47.31335" lon="-1.44002">
        <ele>114</ele>
        <time>2021-01-10T12:50:30.000Z</time>
      </trkpt>
      <trkpt lat="47.31338" lon="-1.43988">
        <ele>114</ele>
        <time>2021-01-10T12:50:32.000Z</time>
      </trkpt>
      <trkpt lat="47.31341" lon="-1.43973">
        <ele>114</ele>
        <time>2021-01-10T12:50:34.000Z</time>
      </trkpt>
      <trkpt lat="47.31343" lon="-1.43958">
        <ele>114</ele>
        <time>2021-01-10T12:50:36.000Z</time>
      </trkpt>
      <trkpt lat="47.31344" lon="-1.43943">
        <ele>114</ele>
        <time>2021-01-10T12:50:38.000Z</time>
      </trkpt>
      <trkpt lat="47.31346" lon="-1.43927">
        <ele>114</ele>
        <time>2021-01-10T12:50:40.000Z</time>
      </trkpt>
      <trkpt lat="47.31348" lon="-1.43912">
        <ele>114</ele>
        <time>2021-01-10T12:50:42.000Z</time>
      </trkpt>
      <trkpt lat="47.31349" lon="-1.43898">
        <ele>115</ele>
        <time>2021-01-10T12:50:44.000Z</time>
      </trkpt>
      <trkpt lat="47.31351" lon="-1.43884">
        <ele>115</ele>
        <time>2021-01-10T12:50:46.000Z</time>
      </trkpt>
      <trkpt lat="47.31352" lon="-1.43869">
        <ele>114</ele>
        <time>2021-01-10T12:50:48.000Z</time>
      </trkpt>
      <trkpt lat="47.31354" lon="-1.43855">
        <ele>115</ele>
        <time>2021-01-10T12:50:50.000Z</time>
      </trkpt>
      <trkpt lat="47.31355" lon="-1.43841">
        <ele>115</ele>
        <time>2021-01-10T12:50:52.000Z</time>
      </trkpt>
      <trkpt lat="47.31357" lon="-1.43826">
        <ele>115</ele>
        <time>2021-01-10T12:50:54.000Z</time>
      </trkpt>
      <trkpt lat="47.31358" lon="-1.43813">
        <ele>116</ele>
        <time>2021-01-10T12:50:56.000Z</time>
      </trkpt>
      <trkpt lat="47.3136" lon="-1.43794">
        <ele>116</ele>
        <time>2021-01-10T12:50:59.000Z</time>
      </trkpt>
      <trkpt lat="47.31362" lon="-1.43777">
        <ele>116</ele>
        <time>2021-01-10T12:51:02.000Z</time>
      </trkpt>
      <trkpt lat="47.31368" lon="-1.43764">
        <ele>116</ele>
        <time>2021-01-10T12:51:06.000Z</time>
      </trkpt>
      <trkpt lat="47.31379" lon="-1.43766">
        <ele>116</ele>
        <time>2021-01-10T12:51:09.000Z</time>
      </trkpt>
      <trkpt lat="47.31389" lon="-1.43771">
        <ele>116</ele>
        <time>2021-01-10T12:51:11.000Z</time>
      </trkpt>
      <trkpt lat="47.31399" lon="-1.43778">
        <ele>116</ele>
        <time>2021-01-10T12:51:13.000Z</time>
      </trkpt>
      <trkpt lat="47.31409" lon="-1.43784">
        <ele>117</ele>
        <time>2021-01-10T12:51:15.000Z</time>
      </trkpt>
      <trkpt lat="47.3142" lon="-1.4379">
        <ele>117</ele>
        <time>2021-01-10T12:51:17.000Z</time>
      </trkpt>
      <trkpt lat="47.31431" lon="-1.43796">
        <ele>117</ele>
        <time>2021-01-10T12:51:19.000Z</time>
      </trkpt>
      <trkpt lat="47.31442" lon="-1.43802">
        <ele>117</ele>
        <time>2021-01-10T12:51:21.000Z</time>
      </trkpt>
      <trkpt lat="47.31452" lon="-1.43808">
        <ele>117</ele>
        <time>2021-01-10T12:51:23.000Z</time>
      </trkpt>
      <trkpt lat="47.31462" lon="-1.43814">
        <ele>117</ele>
        <time>2021-01-10T12:51:25.000Z</time>
      </trkpt>
      <trkpt lat="47.31472" lon="-1.4382">
        <ele>117</ele>
        <time>2021-01-10T12:51:27.000Z</time>
      </trkpt>
      <trkpt lat="47.31483" lon="-1.43825">
        <ele>117</ele>
        <time>2021-01-10T12:51:29.000Z</time>
      </trkpt>
      <trkpt lat="47.31493" lon="-1.43831">
        <ele>118</ele>
        <time>2021-01-10T12:51:31.000Z</time>
      </trkpt>
      <trkpt lat="47.31503" lon="-1.43836">
        <ele>117</ele>
        <time>2021-01-10T12:51:33.000Z</time>
      </trkpt>
      <trkpt lat="47.31514" lon="-1.43837">
        <ele>117</ele>
        <time>2021-01-10T12:51:35.000Z</time>
      </trkpt>
      <trkpt lat="47.31525" lon="-1.43834">
        <ele>117</ele>
        <time>2021-01-10T12:51:37.000Z</time>
      </trkpt>
      <trkpt lat="47.31536" lon="-1.43829">
        <ele>118</ele>
        <time>2021-01-10T12:51:39.000Z</time>
      </trkpt>
      <trkpt lat="47.31546" lon="-1.43823">
        <ele>118</ele>
        <time>2021-01-10T12:51:41.000Z</time>
      </trkpt>
      <trkpt lat="47.31556" lon="-1.43819">
        <ele>117</ele>
        <time>2021-01-10T12:51:43.000Z</time>
      </trkpt>
      <trkpt lat="47.31566" lon="-1.43814">
        <ele>118</ele>
        <time>2021-01-10T12:51:45.000Z</time>
      </trkpt>
      <trkpt lat="47.31576" lon="-1.43809">
        <ele>118</ele>
        <time>2021-01-10T12:51:47.000Z</time>
      </trkpt>
      <trkpt lat="47.31586" lon="-1.43804">
        <ele>118</ele>
        <time>2021-01-10T12:51:49.000Z</time>
      </trkpt>
      <trkpt lat="47.31598" lon="-1.43799">
        <ele>118</ele>
        <time>2021-01-10T12:51:51.000Z</time>
      </trkpt>
      <trkpt lat="47.31608" lon="-1.43794">
        <ele>118</ele>
        <time>2021-01-10T12:51:53.000Z</time>
      </trkpt>
      <trkpt lat="47.31618" lon="-1.43789">
        <ele>118</ele>
        <time>2021-01-10T12:51:55.000Z</time>
      </trkpt>
      <trkpt lat="47.31628" lon="-1.43785">
        <ele>118</ele>
        <time>2021-01-10T12:51:57.000Z</time>
      </trkpt>
      <trkpt lat="47.31639" lon="-1.4378">
        <ele>118</ele>
        <time>2021-01-10T12:51:59.000Z</time>
      </trkpt>
      <trkpt lat="47.3165" lon="-1.43775">
        <ele>118</ele>
        <time>2021-01-10T12:52:01.000Z</time>
      </trkpt>
      <trkpt lat="47.3166" lon="-1.4377">
        <ele>118</ele>
        <time>2021-01-10T12:52:03.000Z</time>
      </trkpt>
      <trkpt lat="47.3167" lon="-1.43765">
        <ele>117</ele>
        <time>2021-01-10T12:52:05.000Z</time>
      </trkpt>
      <trkpt lat="47.3168" lon="-1.4376">
        <ele>117</ele>
        <time>2021-01-10T12:52:07.000Z</time>
      </trkpt>
      <trkpt lat="47.3169" lon="-1.43756">
        <ele>118</ele>
        <time>2021-01-10T12:52:09.000Z</time>
      </trkpt>
      <trkpt lat="47.317" lon="-1.43751">
        <ele>118</ele>
        <time>2021-01-10T12:52:11.000Z</time>
      </trkpt>
      <trkpt lat="47.3171" lon="-1.43746">
        <ele>117</ele>
        <time>2021-01-10T12:52:13.000Z</time>
      </trkpt>
      <trkpt lat="47.31721" lon="-1.43741">
        <ele>117</ele>
        <time>2021-01-10T12:52:15.000Z</time>
      </trkpt>
      <trkpt lat="47.31731" lon="-1.43736">
        <ele>117</ele>
        <time>2021-01-10T12:52:17.000Z</time>
      </trkpt>
      <trkpt lat="47.31742" lon="-1.43731">
        <ele>117</ele>
        <time>2021-01-10T12:52:19.000Z</time>
      </trkpt>
      <trkpt lat="47.31753" lon="-1.43726">
        <ele>116</ele>
        <time>2021-01-10T12:52:21.000Z</time>
      </trkpt>
      <trkpt lat="47.31763" lon="-1.43722">
        <ele>116</ele>
        <time>2021-01-10T12:52:23.000Z</time>
      </trkpt>
      <trkpt lat="47.31774" lon="-1.43717">
        <ele>116</ele>
        <time>2021-01-10T12:52:25.000Z</time>
      </trkpt>
      <trkpt lat="47.31785" lon="-1.43712">
        <ele>116</ele>
        <time>2021-01-10T12:52:27.000Z</time>
      </trkpt>
      <trkpt lat="47.31795" lon="-1.43706">
        <ele>116</ele>
        <time>2021-01-10T12:52:29.000Z</time>
      </trkpt>
      <trkpt lat="47.31806" lon="-1.43701">
        <ele>116</ele>
        <time>2021-01-10T12:52:31.000Z</time>
      </trkpt>
      <trkpt lat="47.31816" lon="-1.43696">
        <ele>116</ele>
        <time>2021-01-10T12:52:33.000Z</time>
      </trkpt>
      <trkpt lat="47.31827" lon="-1.43692">
        <ele>115</ele>
        <time>2021-01-10T12:52:35.000Z</time>
      </trkpt>
      <trkpt lat="47.31838" lon="-1.43686">
        <ele>115</ele>
        <time>2021-01-10T12:52:37.000Z</time>
      </trkpt>
      <trkpt lat="47.31849" lon="-1.43681">
        <ele>115</ele>
        <time>2021-01-10T12:52:39.000Z</time>
      </trkpt>
      <trkpt lat="47.31859" lon="-1.43676">
        <ele>116</ele>
        <time>2021-01-10T12:52:41.000Z</time>
      </trkpt>
      <trkpt lat="47.3187" lon="-1.4367">
        <ele>115</ele>
        <time>2021-01-10T12:52:43.000Z</time>
      </trkpt>
      <trkpt lat="47.31881" lon="-1.43665">
        <ele>115</ele>
        <time>2021-01-10T12:52:45.000Z</time>
      </trkpt>
      <trkpt lat="47.31893" lon="-1.4366">
        <ele>115</ele>
        <time>2021-01-10T12:52:47.000Z</time>
      </trkpt>
      <trkpt lat="47.31904" lon="-1.43654">
        <ele>114</ele>
        <time>2021-01-10T12:52:49.000Z</time>
      </trkpt>
      <trkpt lat="47.31916" lon="-1.43648">
        <ele>114</ele>
        <time>2021-01-10T12:52:51.000Z</time>
      </trkpt>
      <trkpt lat="47.31928" lon="-1.43643">
        <ele>113</ele>
        <time>2021-01-10T12:52:53.000Z</time>
      </trkpt>
      <trkpt lat="47.3194" lon="-1.43638">
        <ele>112</ele>
        <time>2021-01-10T12:52:55.000Z</time>
      </trkpt>
      <trkpt lat="47.31953" lon="-1.43633">
        <ele>112</ele>
        <time>2021-01-10T12:52:57.000Z</time>
      </trkpt>
      <trkpt lat="47.31965" lon="-1.43627">
        <ele>111</ele>
        <time>2021-01-10T12:52:59.000Z</time>
      </trkpt>
      <trkpt lat="47.31977" lon="-1.43623">
        <ele>111</ele>
        <time>2021-01-10T12:53:01.000Z</time>
      </trkpt>
      <trkpt lat="47.31989" lon="-1.43619">
        <ele>111</ele>
        <time>2021-01-10T12:53:03.000Z</time>
      </trkpt>
      <trkpt lat="47.32002" lon="-1.43618">
        <ele>110</ele>
        <time>2021-01-10T12:53:05.000Z</time>
      </trkpt>
      <trkpt lat="47.32015" lon="-1.43616">
        <ele>110</ele>
        <time>2021-01-10T12:53:07.000Z</time>
      </trkpt>
      <trkpt lat="47.32027" lon="-1.43614">
        <ele>109</ele>
        <time>2021-01-10T12:53:09.000Z</time>
      </trkpt>
      <trkpt lat="47.32041" lon="-1.43613">
        <ele>109</ele>
        <time>2021-01-10T12:53:11.000Z</time>
      </trkpt>
      <trkpt lat="47.32054" lon="-1.43612">
        <ele>108</ele>
        <time>2021-01-10T12:53:13.000Z</time>
      </trkpt>
      <trkpt lat="47.32068" lon="-1.43611">
        <ele>108</ele>
        <time>2021-01-10T12:53:15.000Z</time>
      </trkpt>
      <trkpt lat="47.32081" lon="-1.4361">
        <ele>108</ele>
        <time>2021-01-10T12:53:17.000Z</time>
      </trkpt>
      <trkpt lat="47.32094" lon="-1.43609">
        <ele>108</ele>
        <time>2021-01-10T12:53:19.000Z</time>
      </trkpt>
      <trkpt lat="47.32106" lon="-1.43611">
        <ele>108</ele>
        <time>2021-01-10T12:53:21.000Z</time>
      </trkpt>
      <trkpt lat="47.32118" lon="-1.43615">
        <ele>108</ele>
        <time>2021-01-10T12:53:23.000Z</time>
      </trkpt>
      <trkpt lat="47.3213" lon="-1.4362">
        <ele>108</ele>
        <time>2021-01-10T12:53:25.000Z</time>
      </trkpt>
      <trkpt lat="47.32141" lon="-1.43623">
        <ele>109</ele>
        <time>2021-01-10T12:53:27.000Z</time>
      </trkpt>
      <trkpt lat="47.32152" lon="-1.43627">
        <ele>109</ele>
        <time>2021-01-10T12:53:29.000Z</time>
      </trkpt>
      <trkpt lat="47.32163" lon="-1.4363">
        <ele>110</ele>
        <time>2021-01-10T12:53:31.000Z</time>
      </trkpt>
      <trkpt lat="47.32174" lon="-1.43633">
        <ele>110</ele>
        <time>2021-01-10T12:53:33.000Z</time>
      </trkpt>
      <trkpt lat="47.32185" lon="-1.43636">
        <ele>111</ele>
        <time>2021-01-10T12:53:35.000Z</time>
      </trkpt>
      <trkpt lat="47.32196" lon="-1.43639">
        <ele>112</ele>
        <time>2021-01-10T12:53:37.000Z</time>
      </trkpt>
      <trkpt lat="47.32207" lon="-1.43642">
        <ele>112</ele>
        <time>2021-01-10T12:53:39.000Z</time>
      </trkpt>
      <trkpt lat="47.32219" lon="-1.43645">
        <ele>113</ele>
        <time>2021-01-10T12:53:41.000Z</time>
      </trkpt>
      <trkpt lat="47.32231" lon="-1.43648">
        <ele>114</ele>
        <time>2021-01-10T12:53:43.000Z</time>
      </trkpt>
      <trkpt lat="47.32243" lon="-1.4365">
        <ele>114</ele>
        <time>2021-01-10T12:53:45.000Z</time>
      </trkpt>
      <trkpt lat="47.32254" lon="-1.43653">
        <ele>114</ele>
        <time>2021-01-10T12:53:47.000Z</time>
      </trkpt>
      <trkpt lat="47.32267" lon="-1.43656">
        <ele>114</ele>
        <time>2021-01-10T12:53:49.000Z</time>
      </trkpt>
      <trkpt lat="47.32278" lon="-1.43658">
        <ele>114</ele>
        <time>2021-01-10T12:53:51.000Z</time>
      </trkpt>
      <trkpt lat="47.32289" lon="-1.43661">
        <ele>114</ele>
        <time>2021-01-10T12:53:53.000Z</time>
      </trkpt>
      <trkpt lat="47.323" lon="-1.43663">
        <ele>115</ele>
        <time>2021-01-10T12:53:55.000Z</time>
      </trkpt>
      <trkpt lat="47.32311" lon="-1.43665">
        <ele>115</ele>
        <time>2021-01-10T12:53:57.000Z</time>
      </trkpt>
      <trkpt lat="47.32323" lon="-1.43667">
        <ele>116</ele>
        <time>2021-01-10T12:53:59.000Z</time>
      </trkpt>
      <trkpt lat="47.32335" lon="-1.43669">
        <ele>116</ele>
        <time>2021-01-10T12:54:01.000Z</time>
      </trkpt>
      <trkpt lat="47.32346" lon="-1.43673">
        <ele>116</ele>
        <time>2021-01-10T12:54:03.000Z</time>
      </trkpt>
      <trkpt lat="47.32358" lon="-1.43676">
        <ele>115</ele>
        <time>2021-01-10T12:54:05.000Z</time>
      </trkpt>
      <trkpt lat="47.32369" lon="-1.43679">
        <ele>115</ele>
        <time>2021-01-10T12:54:07.000Z</time>
      </trkpt>
      <trkpt lat="47.3238" lon="-1.43682">
        <ele>115</ele>
        <time>2021-01-10T12:54:09.000Z</time>
      </trkpt>
      <trkpt lat="47.32392" lon="-1.43685">
        <ele>115</ele>
        <time>2021-01-10T12:54:11.000Z</time>
      </trkpt>
      <trkpt lat="47.32402" lon="-1.43688">
        <ele>115</ele>
        <time>2021-01-10T12:54:13.000Z</time>
      </trkpt>
      <trkpt lat="47.32413" lon="-1.43693">
        <ele>115</ele>
        <time>2021-01-10T12:54:15.000Z</time>
      </trkpt>
      <trkpt lat="47.32423" lon="-1.43697">
        <ele>116</ele>
        <time>2021-01-10T12:54:17.000Z</time>
      </trkpt>
      <trkpt lat="47.32434" lon="-1.43702">
        <ele>116</ele>
        <time>2021-01-10T12:54:19.000Z</time>
      </trkpt>
      <trkpt lat="47.32444" lon="-1.43709">
        <ele>115</ele>
        <time>2021-01-10T12:54:21.000Z</time>
      </trkpt>
      <trkpt lat="47.32453" lon="-1.43718">
        <ele>116</ele>
        <time>2021-01-10T12:54:23.000Z</time>
      </trkpt>
      <trkpt lat="47.32462" lon="-1.43727">
        <ele>116</ele>
        <time>2021-01-10T12:54:25.000Z</time>
      </trkpt>
      <trkpt lat="47.32472" lon="-1.43735">
        <ele>116</ele>
        <time>2021-01-10T12:54:27.000Z</time>
      </trkpt>
      <trkpt lat="47.32482" lon="-1.43743">
        <ele>116</ele>
        <time>2021-01-10T12:54:29.000Z</time>
      </trkpt>
      <trkpt lat="47.3249" lon="-1.43752">
        <ele>117</ele>
        <time>2021-01-10T12:54:31.000Z</time>
      </trkpt>
      <trkpt lat="47.32499" lon="-1.43764">
        <ele>117</ele>
        <time>2021-01-10T12:54:33.000Z</time>
      </trkpt>
      <trkpt lat="47.32508" lon="-1.43776">
        <ele>117</ele>
        <time>2021-01-10T12:54:35.000Z</time>
      </trkpt>
      <trkpt lat="47.32516" lon="-1.4379">
        <ele>117</ele>
        <time>2021-01-10T12:54:37.000Z</time>
      </trkpt>
      <trkpt lat="47.32523" lon="-1.43804">
        <ele>116</ele>
        <time>2021-01-10T12:54:39.000Z</time>
      </trkpt>
      <trkpt lat="47.3253" lon="-1.43819">
        <ele>116</ele>
        <time>2021-01-10T12:54:41.000Z</time>
      </trkpt>
      <trkpt lat="47.32536" lon="-1.43834">
        <ele>116</ele>
        <time>2021-01-10T12:54:43.000Z</time>
      </trkpt>
      <trkpt lat="47.32542" lon="-1.43849">
        <ele>116</ele>
        <time>2021-01-10T12:54:45.000Z</time>
      </trkpt>
      <trkpt lat="47.32549" lon="-1.43863">
        <ele>115</ele>
        <time>2021-01-10T12:54:47.000Z</time>
      </trkpt>
      <trkpt lat="47.32555" lon="-1.43876">
        <ele>116</ele>
        <time>2021-01-10T12:54:49.000Z</time>
      </trkpt>
      <trkpt lat="47.32562" lon="-1.4389">
        <ele>115</ele>
        <time>2021-01-10T12:54:51.000Z</time>
      </trkpt>
      <trkpt lat="47.32568" lon="-1.43904">
        <ele>115</ele>
        <time>2021-01-10T12:54:53.000Z</time>
      </trkpt>
      <trkpt lat="47.32572" lon="-1.43919">
        <ele>115</ele>
        <time>2021-01-10T12:54:55.000Z</time>
      </trkpt>
      <trkpt lat="47.32571" lon="-1.43936">
        <ele>116</ele>
        <time>2021-01-10T12:54:57.000Z</time>
      </trkpt>
      <trkpt lat="47.32568" lon="-1.43953">
        <ele>117</ele>
        <time>2021-01-10T12:54:59.000Z</time>
      </trkpt>
      <trkpt lat="47.32565" lon="-1.43972">
        <ele>117</ele>
        <time>2021-01-10T12:55:01.000Z</time>
      </trkpt>
      <trkpt lat="47.32562" lon="-1.4399">
        <ele>117</ele>
        <time>2021-01-10T12:55:03.000Z</time>
      </trkpt>
      <trkpt lat="47.32559" lon="-1.44008">
        <ele>118</ele>
        <time>2021-01-10T12:55:05.000Z</time>
      </trkpt>
      <trkpt lat="47.32556" lon="-1.44026">
        <ele>118</ele>
        <time>2021-01-10T12:55:07.000Z</time>
      </trkpt>
      <trkpt lat="47.32553" lon="-1.44043">
        <ele>118</ele>
        <time>2021-01-10T12:55:09.000Z</time>
      </trkpt>
      <trkpt lat="47.32551" lon="-1.4406">
        <ele>118</ele>
        <time>2021-01-10T12:55:11.000Z</time>
      </trkpt>
      <trkpt lat="47.32548" lon="-1.44077">
        <ele>118</ele>
        <time>2021-01-10T12:55:13.000Z</time>
      </trkpt>
      <trkpt lat="47.32545" lon="-1.44094">
        <ele>118</ele>
        <time>2021-01-10T12:55:15.000Z</time>
      </trkpt>
      <trkpt lat="47.32543" lon="-1.44112">
        <ele>118</ele>
        <time>2021-01-10T12:55:17.000Z</time>
      </trkpt>
      <trkpt lat="47.3254" lon="-1.44129">
        <ele>118</ele>
        <time>2021-01-10T12:55:19.000Z</time>
      </trkpt>
      <trkpt lat="47.32538" lon="-1.44146">
        <ele>118</ele>
        <time>2021-01-10T12:55:21.000Z</time>
      </trkpt>
      <trkpt lat="47.32536" lon="-1.44163">
        <ele>118</ele>
        <time>2021-01-10T12:55:23.000Z</time>
      </trkpt>
      <trkpt lat="47.32534" lon="-1.4418">
        <ele>118</ele>
        <time>2021-01-10T12:55:25.000Z</time>
      </trkpt>
      <trkpt lat="47.32531" lon="-1.44197">
        <ele>118</ele>
        <time>2021-01-10T12:55:27.000Z</time>
      </trkpt>
      <trkpt lat="47.32529" lon="-1.44214">
        <ele>117</ele>
        <time>2021-01-10T12:55:29.000Z</time>
      </trkpt>
      <trkpt lat="47.32526" lon="-1.44232">
        <ele>117</ele>
        <time>2021-01-10T12:55:31.000Z</time>
      </trkpt>
      <trkpt lat="47.32524" lon="-1.44251">
        <ele>117</ele>
        <time>2021-01-10T12:55:33.000Z</time>
      </trkpt>
      <trkpt lat="47.32522" lon="-1.44269">
        <ele>117</ele>
        <time>2021-01-10T12:55:35.000Z</time>
      </trkpt>
      <trkpt lat="47.3252" lon="-1.44287">
        <ele>117</ele>
        <time>2021-01-10T12:55:37.000Z</time>
      </trkpt>
      <trkpt lat="47.32519" lon="-1.44305">
        <ele>117</ele>
        <time>2021-01-10T12:55:39.000Z</time>
      </trkpt>
      <trkpt lat="47.32518" lon="-1.44323">
        <ele>117</ele>
        <time>2021-01-10T12:55:41.000Z</time>
      </trkpt>
      <trkpt lat="47.32516" lon="-1.4434">
        <ele>118</ele>
        <time>2021-01-10T12:55:43.000Z</time>
      </trkpt>
      <trkpt lat="47.32514" lon="-1.44358">
        <ele>117</ele>
        <time>2021-01-10T12:55:45.000Z</time>
      </trkpt>
      <trkpt lat="47.32512" lon="-1.44377">
        <ele>117</ele>
        <time>2021-01-10T12:55:47.000Z</time>
      </trkpt>
      <trkpt lat="47.32511" lon="-1.44395">
        <ele>117</ele>
        <time>2021-01-10T12:55:49.000Z</time>
      </trkpt>
      <trkpt lat="47.32509" lon="-1.44413">
        <ele>117</ele>
        <time>2021-01-10T12:55:51.000Z</time>
      </trkpt>
      <trkpt lat="47.32507" lon="-1.44431">
        <ele>117</ele>
        <time>2021-01-10T12:55:53.000Z</time>
      </trkpt>
      <trkpt lat="47.32505" lon="-1.44449">
        <ele>117</ele>
        <time>2021-01-10T12:55:55.000Z</time>
      </trkpt>
      <trkpt lat="47.32503" lon="-1.44468">
        <ele>118</ele>
        <time>2021-01-10T12:55:57.000Z</time>
      </trkpt>
      <trkpt lat="47.32501" lon="-1.44486">
        <ele>118</ele>
        <time>2021-01-10T12:55:59.000Z</time>
      </trkpt>
      <trkpt lat="47.32499" lon="-1.44505">
        <ele>117</ele>
        <time>2021-01-10T12:56:01.000Z</time>
      </trkpt>
      <trkpt lat="47.32497" lon="-1.44524">
        <ele>117</ele>
        <time>2021-01-10T12:56:03.000Z</time>
      </trkpt>
      <trkpt lat="47.32495" lon="-1.44543">
        <ele>117</ele>
        <time>2021-01-10T12:56:05.000Z</time>
      </trkpt>
      <trkpt lat="47.32493" lon="-1.44563">
        <ele>116</ele>
        <time>2021-01-10T12:56:07.000Z</time>
      </trkpt>
      <trkpt lat="47.32491" lon="-1.44583">
        <ele>116</ele>
        <time>2021-01-10T12:56:09.000Z</time>
      </trkpt>
      <trkpt lat="47.32489" lon="-1.44603">
        <ele>115</ele>
        <time>2021-01-10T12:56:11.000Z</time>
      </trkpt>
      <trkpt lat="47.32487" lon="-1.44623">
        <ele>115</ele>
        <time>2021-01-10T12:56:13.000Z</time>
      </trkpt>
      <trkpt lat="47.32485" lon="-1.44642">
        <ele>116</ele>
        <time>2021-01-10T12:56:15.000Z</time>
      </trkpt>
      <trkpt lat="47.32484" lon="-1.4466">
        <ele>115</ele>
        <time>2021-01-10T12:56:17.000Z</time>
      </trkpt>
      <trkpt lat="47.32483" lon="-1.44678">
        <ele>116</ele>
        <time>2021-01-10T12:56:19.000Z</time>
      </trkpt>
      <trkpt lat="47.32482" lon="-1.44695">
        <ele>116</ele>
        <time>2021-01-10T12:56:21.000Z</time>
      </trkpt>
      <trkpt lat="47.32484" lon="-1.4471">
        <ele>116</ele>
        <time>2021-01-10T12:56:23.000Z</time>
      </trkpt>
      <trkpt lat="47.32495" lon="-1.44719">
        <ele>117</ele>
        <time>2021-01-10T12:56:25.000Z</time>
      </trkpt>
      <trkpt lat="47.32507" lon="-1.44727">
        <ele>117</ele>
        <time>2021-01-10T12:56:27.000Z</time>
      </trkpt>
      <trkpt lat="47.32519" lon="-1.44736">
        <ele>116</ele>
        <time>2021-01-10T12:56:29.000Z</time>
      </trkpt>
      <trkpt lat="47.32531" lon="-1.44744">
        <ele>117</ele>
        <time>2021-01-10T12:56:31.000Z</time>
      </trkpt>
      <trkpt lat="47.32542" lon="-1.44753">
        <ele>117</ele>
        <time>2021-01-10T12:56:33.000Z</time>
      </trkpt>
      <trkpt lat="47.32554" lon="-1.44762">
        <ele>117</ele>
        <time>2021-01-10T12:56:35.000Z</time>
      </trkpt>
      <trkpt lat="47.32566" lon="-1.44771">
        <ele>117</ele>
        <time>2021-01-10T12:56:37.000Z</time>
      </trkpt>
      <trkpt lat="47.32577" lon="-1.44779">
        <ele>117</ele>
        <time>2021-01-10T12:56:39.000Z</time>
      </trkpt>
      <trkpt lat="47.32588" lon="-1.44788">
        <ele>117</ele>
        <time>2021-01-10T12:56:41.000Z</time>
      </trkpt>
      <trkpt lat="47.32599" lon="-1.44796">
        <ele>117</ele>
        <time>2021-01-10T12:56:43.000Z</time>
      </trkpt>
      <trkpt lat="47.3261" lon="-1.44804">
        <ele>117</ele>
        <time>2021-01-10T12:56:45.000Z</time>
      </trkpt>
      <trkpt lat="47.32622" lon="-1.44813">
        <ele>117</ele>
        <time>2021-01-10T12:56:47.000Z</time>
      </trkpt>
      <trkpt lat="47.32633" lon="-1.44821">
        <ele>116</ele>
        <time>2021-01-10T12:56:49.000Z</time>
      </trkpt>
      <trkpt lat="47.32643" lon="-1.44829">
        <ele>117</ele>
        <time>2021-01-10T12:56:51.000Z</time>
      </trkpt>
      <trkpt lat="47.32654" lon="-1.44837">
        <ele>117</ele>
        <time>2021-01-10T12:56:53.000Z</time>
      </trkpt>
      <trkpt lat="47.32664" lon="-1.44846">
        <ele>116</ele>
        <time>2021-01-10T12:56:55.000Z</time>
      </trkpt>
      <trkpt lat="47.32675" lon="-1.44854">
        <ele>116</ele>
        <time>2021-01-10T12:56:57.000Z</time>
      </trkpt>
      <trkpt lat="47.32685" lon="-1.44859">
        <ele>116</ele>
        <time>2021-01-10T12:56:59.000Z</time>
      </trkpt>
      <trkpt lat="47.32696" lon="-1.44854">
        <ele>116</ele>
        <time>2021-01-10T12:57:01.000Z</time>
      </trkpt>
      <trkpt lat="47.32707" lon="-1.44844">
        <ele>116</ele>
        <time>2021-01-10T12:57:03.000Z</time>
      </trkpt>
      <trkpt lat="47.32716" lon="-1.44836">
        <ele>116</ele>
        <time>2021-01-10T12:57:05.000Z</time>
      </trkpt>
      <trkpt lat="47.32727" lon="-1.44829">
        <ele>116</ele>
        <time>2021-01-10T12:57:07.000Z</time>
      </trkpt>
      <trkpt lat="47.32737" lon="-1.44821">
        <ele>116</ele>
        <time>2021-01-10T12:57:09.000Z</time>
      </trkpt>
      <trkpt lat="47.32747" lon="-1.44812">
        <ele>116</ele>
        <time>2021-01-10T12:57:11.000Z</time>
      </trkpt>
      <trkpt lat="47.32757" lon="-1.44804">
        <ele>117</ele>
        <time>2021-01-10T12:57:13.000Z</time>
      </trkpt>
      <trkpt lat="47.32767" lon="-1.44795">
        <ele>117</ele>
        <time>2021-01-10T12:57:15.000Z</time>
      </trkpt>
      <trkpt lat="47.32778" lon="-1.44787">
        <ele>117</ele>
        <time>2021-01-10T12:57:17.000Z</time>
      </trkpt>
      <trkpt lat="47.32788" lon="-1.44779">
        <ele>117</ele>
        <time>2021-01-10T12:57:19.000Z</time>
      </trkpt>
      <trkpt lat="47.32798" lon="-1.4477">
        <ele>117</ele>
        <time>2021-01-10T12:57:21.000Z</time>
      </trkpt>
      <trkpt lat="47.32808" lon="-1.44761">
        <ele>117</ele>
        <time>2021-01-10T12:57:23.000Z</time>
      </trkpt>
      <trkpt lat="47.32818" lon="-1.44753">
        <ele>116</ele>
        <time>2021-01-10T12:57:25.000Z</time>
      </trkpt>
      <trkpt lat="47.32829" lon="-1.44745">
        <ele>117</ele>
        <time>2021-01-10T12:57:27.000Z</time>
      </trkpt>
      <trkpt lat="47.32839" lon="-1.44739">
        <ele>117</ele>
        <time>2021-01-10T12:57:29.000Z</time>
      </trkpt>
      <trkpt lat="47.3285" lon="-1.44732">
        <ele>117</ele>
        <time>2021-01-10T12:57:31.000Z</time>
      </trkpt>
      <trkpt lat="47.3286" lon="-1.44724">
        <ele>118</ele>
        <time>2021-01-10T12:57:33.000Z</time>
      </trkpt>
      <trkpt lat="47.32871" lon="-1.44717">
        <ele>118</ele>
        <time>2021-01-10T12:57:35.000Z</time>
      </trkpt>
      <trkpt lat="47.32882" lon="-1.4471">
        <ele>118</ele>
        <time>2021-01-10T12:57:37.000Z</time>
      </trkpt>
      <trkpt lat="47.32892" lon="-1.44703">
        <ele>118</ele>
        <time>2021-01-10T12:57:39.000Z</time>
      </trkpt>
      <trkpt lat="47.32903" lon="-1.44697">
        <ele>117</ele>
        <time>2021-01-10T12:57:41.000Z</time>
      </trkpt>
      <trkpt lat="47.32913" lon="-1.4469">
        <ele>117</ele>
        <time>2021-01-10T12:57:43.000Z</time>
      </trkpt>
      <trkpt lat="47.32924" lon="-1.44683">
        <ele>117</ele>
        <time>2021-01-10T12:57:45.000Z</time>
      </trkpt>
      <trkpt lat="47.32935" lon="-1.44677">
        <ele>117</ele>
        <time>2021-01-10T12:57:47.000Z</time>
      </trkpt>
      <trkpt lat="47.32945" lon="-1.4467">
        <ele>117</ele>
        <time>2021-01-10T12:57:49.000Z</time>
      </trkpt>
      <trkpt lat="47.32956" lon="-1.44662">
        <ele>118</ele>
        <time>2021-01-10T12:57:51.000Z</time>
      </trkpt>
      <trkpt lat="47.32967" lon="-1.44654">
        <ele>118</ele>
        <time>2021-01-10T12:57:53.000Z</time>
      </trkpt>
      <trkpt lat="47.32976" lon="-1.44644">
        <ele>118</ele>
        <time>2021-01-10T12:57:55.000Z</time>
      </trkpt>
      <trkpt lat="47.32986" lon="-1.44634">
        <ele>118</ele>
        <time>2021-01-10T12:57:57.000Z</time>
      </trkpt>
      <trkpt lat="47.32996" lon="-1.44626">
        <ele>118</ele>
        <time>2021-01-10T12:57:59.000Z</time>
      </trkpt>
      <trkpt lat="47.33005" lon="-1.44617">
        <ele>117</ele>
        <time>2021-01-10T12:58:01.000Z</time>
      </trkpt>
      <trkpt lat="47.33014" lon="-1.44609">
        <ele>117</ele>
        <time>2021-01-10T12:58:03.000Z</time>
      </trkpt>
      <trkpt lat="47.33024" lon="-1.44599">
        <ele>117</ele>
        <time>2021-01-10T12:58:05.000Z</time>
      </trkpt>
      <trkpt lat="47.33034" lon="-1.4459">
        <ele>117</ele>
        <time>2021-01-10T12:58:07.000Z</time>
      </trkpt>
      <trkpt lat="47.33044" lon="-1.4458">
        <ele>117</ele>
        <time>2021-01-10T12:58:09.000Z</time>
      </trkpt>
      <trkpt lat="47.33053" lon="-1.4457">
        <ele>117</ele>
        <time>2021-01-10T12:58:11.000Z</time>
      </trkpt>
      <trkpt lat="47.33062" lon="-1.4456">
        <ele>117</ele>
        <time>2021-01-10T12:58:13.000Z</time>
      </trkpt>
      <trkpt lat="47.33072" lon="-1.4455">
        <ele>118</ele>
        <time>2021-01-10T12:58:15.000Z</time>
      </trkpt>
      <trkpt lat="47.33081" lon="-1.44542">
        <ele>117</ele>
        <time>2021-01-10T12:58:17.000Z</time>
      </trkpt>
      <trkpt lat="47.33089" lon="-1.44532">
        <ele>117</ele>
        <time>2021-01-10T12:58:20.000Z</time>
      </trkpt>
      <trkpt lat="47.33081" lon="-1.44544">
        <ele>119</ele>
        <time>2021-01-10T13:00:30.000Z</time>
      </trkpt>
      <trkpt lat="47.33072" lon="-1.44553">
        <ele>118</ele>
        <time>2021-01-10T13:00:32.000Z</time>
      </trkpt>
      <trkpt lat="47.33061" lon="-1.44563">
        <ele>118</ele>
        <time>2021-01-10T13:00:34.000Z</time>
      </trkpt>
      <trkpt lat="47.33051" lon="-1.44575">
        <ele>118</ele>
        <time>2021-01-10T13:00:36.000Z</time>
      </trkpt>
      <trkpt lat="47.33041" lon="-1.44585">
        <ele>118</ele>
        <time>2021-01-10T13:00:38.000Z</time>
      </trkpt>
      <trkpt lat="47.33031" lon="-1.44595">
        <ele>118</ele>
        <time>2021-01-10T13:00:40.000Z</time>
      </trkpt>
      <trkpt lat="47.3302" lon="-1.44605">
        <ele>118</ele>
        <time>2021-01-10T13:00:42.000Z</time>
      </trkpt>
      <trkpt lat="47.3301" lon="-1.44615">
        <ele>119</ele>
        <time>2021-01-10T13:00:44.000Z</time>
      </trkpt>
      <trkpt lat="47.33" lon="-1.44625">
        <ele>119</ele>
        <time>2021-01-10T13:00:46.000Z</time>
      </trkpt>
      <trkpt lat="47.3299" lon="-1.44635">
        <ele>118</ele>
        <time>2021-01-10T13:00:48.000Z</time>
      </trkpt>
      <trkpt lat="47.3298" lon="-1.44645">
        <ele>119</ele>
        <time>2021-01-10T13:00:50.000Z</time>
      </trkpt>
      <trkpt lat="47.32969" lon="-1.44656">
        <ele>119</ele>
        <time>2021-01-10T13:00:52.000Z</time>
      </trkpt>
      <trkpt lat="47.32957" lon="-1.44664">
        <ele>119</ele>
        <time>2021-01-10T13:00:54.000Z</time>
      </trkpt>
      <trkpt lat="47.32946" lon="-1.44673">
        <ele>119</ele>
        <time>2021-01-10T13:00:56.000Z</time>
      </trkpt>
      <trkpt lat="47.32934" lon="-1.44681">
        <ele>119</ele>
        <time>2021-01-10T13:00:58.000Z</time>
      </trkpt>
      <trkpt lat="47.32923" lon="-1.44688">
        <ele>119</ele>
        <time>2021-01-10T13:01:00.000Z</time>
      </trkpt>
      <trkpt lat="47.32911" lon="-1.44695">
        <ele>118</ele>
        <time>2021-01-10T13:01:02.000Z</time>
      </trkpt>
      <trkpt lat="47.329" lon="-1.44702">
        <ele>118</ele>
        <time>2021-01-10T13:01:04.000Z</time>
      </trkpt>
      <trkpt lat="47.32888" lon="-1.44708">
        <ele>118</ele>
        <time>2021-01-10T13:01:06.000Z</time>
      </trkpt>
      <trkpt lat="47.32876" lon="-1.44715">
        <ele>117</ele>
        <time>2021-01-10T13:01:08.000Z</time>
      </trkpt>
      <trkpt lat="47.32865" lon="-1.44723">
        <ele>117</ele>
        <time>2021-01-10T13:01:10.000Z</time>
      </trkpt>
      <trkpt lat="47.32853" lon="-1.44731">
        <ele>117</ele>
        <time>2021-01-10T13:01:12.000Z</time>
      </trkpt>
      <trkpt lat="47.32841" lon="-1.44739">
        <ele>117</ele>
        <time>2021-01-10T13:01:14.000Z</time>
      </trkpt>
      <trkpt lat="47.3283" lon="-1.44748">
        <ele>118</ele>
        <time>2021-01-10T13:01:16.000Z</time>
      </trkpt>
      <trkpt lat="47.32819" lon="-1.44757">
        <ele>117</ele>
        <time>2021-01-10T13:01:18.000Z</time>
      </trkpt>
      <trkpt lat="47.32808" lon="-1.44766">
        <ele>117</ele>
        <time>2021-01-10T13:01:20.000Z</time>
      </trkpt>
      <trkpt lat="47.32797" lon="-1.44775">
        <ele>117</ele>
        <time>2021-01-10T13:01:22.000Z</time>
      </trkpt>
      <trkpt lat="47.32785" lon="-1.44785">
        <ele>117</ele>
        <time>2021-01-10T13:01:24.000Z</time>
      </trkpt>
      <trkpt lat="47.32774" lon="-1.44793">
        <ele>117</ele>
        <time>2021-01-10T13:01:26.000Z</time>
      </trkpt>
      <trkpt lat="47.32762" lon="-1.44802">
        <ele>117</ele>
        <time>2021-01-10T13:01:28.000Z</time>
      </trkpt>
      <trkpt lat="47.32751" lon="-1.4481">
        <ele>116</ele>
        <time>2021-01-10T13:01:30.000Z</time>
      </trkpt>
      <trkpt lat="47.3274" lon="-1.44819">
        <ele>116</ele>
        <time>2021-01-10T13:01:32.000Z</time>
      </trkpt>
      <trkpt lat="47.3273" lon="-1.44829">
        <ele>116</ele>
        <time>2021-01-10T13:01:34.000Z</time>
      </trkpt>
      <trkpt lat="47.32719" lon="-1.44838">
        <ele>116</ele>
        <time>2021-01-10T13:01:36.000Z</time>
      </trkpt>
      <trkpt lat="47.32708" lon="-1.44845">
        <ele>116</ele>
        <time>2021-01-10T13:01:38.000Z</time>
      </trkpt>
      <trkpt lat="47.32698" lon="-1.44854">
        <ele>116</ele>
        <time>2021-01-10T13:01:40.000Z</time>
      </trkpt>
      <trkpt lat="47.32697" lon="-1.4487">
        <ele>115</ele>
        <time>2021-01-10T13:01:42.000Z</time>
      </trkpt>
      <trkpt lat="47.32705" lon="-1.44882">
        <ele>114</ele>
        <time>2021-01-10T13:01:44.000Z</time>
      </trkpt>
      <trkpt lat="47.32715" lon="-1.44887">
        <ele>114</ele>
        <time>2021-01-10T13:01:46.000Z</time>
      </trkpt>
      <trkpt lat="47.32727" lon="-1.44895">
        <ele>115</ele>
        <time>2021-01-10T13:01:48.000Z</time>
      </trkpt>
      <trkpt lat="47.32737" lon="-1.44901">
        <ele>116</ele>
        <time>2021-01-10T13:01:50.000Z</time>
      </trkpt>
      <trkpt lat="47.32748" lon="-1.44909">
        <ele>116</ele>
        <time>2021-01-10T13:01:52.000Z</time>
      </trkpt>
      <trkpt lat="47.32759" lon="-1.44916">
        <ele>117</ele>
        <time>2021-01-10T13:01:54.000Z</time>
      </trkpt>
      <trkpt lat="47.3277" lon="-1.44925">
        <ele>117</ele>
        <time>2021-01-10T13:01:56.000Z</time>
      </trkpt>
      <trkpt lat="47.32781" lon="-1.44933">
        <ele>117</ele>
        <time>2021-01-10T13:01:58.000Z</time>
      </trkpt>
      <trkpt lat="47.32793" lon="-1.44942">
        <ele>117</ele>
        <time>2021-01-10T13:02:00.000Z</time>
      </trkpt>
      <trkpt lat="47.32804" lon="-1.4495">
        <ele>117</ele>
        <time>2021-01-10T13:02:02.000Z</time>
      </trkpt>
      <trkpt lat="47.32814" lon="-1.44958">
        <ele>117</ele>
        <time>2021-01-10T13:02:04.000Z</time>
      </trkpt>
      <trkpt lat="47.32825" lon="-1.44966">
        <ele>117</ele>
        <time>2021-01-10T13:02:06.000Z</time>
      </trkpt>
      <trkpt lat="47.32836" lon="-1.44975">
        <ele>117</ele>
        <time>2021-01-10T13:02:08.000Z</time>
      </trkpt>
      <trkpt lat="47.32847" lon="-1.44983">
        <ele>116</ele>
        <time>2021-01-10T13:02:10.000Z</time>
      </trkpt>
      <trkpt lat="47.32858" lon="-1.44992">
        <ele>116</ele>
        <time>2021-01-10T13:02:12.000Z</time>
      </trkpt>
      <trkpt lat="47.3287" lon="-1.45001">
        <ele>116</ele>
        <time>2021-01-10T13:02:14.000Z</time>
      </trkpt>
      <trkpt lat="47.3288" lon="-1.45009">
        <ele>116</ele>
        <time>2021-01-10T13:02:16.000Z</time>
      </trkpt>
      <trkpt lat="47.32892" lon="-1.45018">
        <ele>116</ele>
        <time>2021-01-10T13:02:18.000Z</time>
      </trkpt>
      <trkpt lat="47.32902" lon="-1.45027">
        <ele>116</ele>
        <time>2021-01-10T13:02:20.000Z</time>
      </trkpt>
      <trkpt lat="47.32913" lon="-1.45035">
        <ele>116</ele>
        <time>2021-01-10T13:02:22.000Z</time>
      </trkpt>
      <trkpt lat="47.32925" lon="-1.45042">
        <ele>116</ele>
        <time>2021-01-10T13:02:24.000Z</time>
      </trkpt>
      <trkpt lat="47.32936" lon="-1.4505">
        <ele>116</ele>
        <time>2021-01-10T13:02:26.000Z</time>
      </trkpt>
      <trkpt lat="47.32947" lon="-1.45058">
        <ele>116</ele>
        <time>2021-01-10T13:02:28.000Z</time>
      </trkpt>
      <trkpt lat="47.32957" lon="-1.45066">
        <ele>116</ele>
        <time>2021-01-10T13:02:30.000Z</time>
      </trkpt>
      <trkpt lat="47.32968" lon="-1.45075">
        <ele>116</ele>
        <time>2021-01-10T13:02:32.000Z</time>
      </trkpt>
      <trkpt lat="47.32979" lon="-1.45083">
        <ele>116</ele>
        <time>2021-01-10T13:02:34.000Z</time>
      </trkpt>
      <trkpt lat="47.3299" lon="-1.45091">
        <ele>116</ele>
        <time>2021-01-10T13:02:36.000Z</time>
      </trkpt>
      <trkpt lat="47.33001" lon="-1.45099">
        <ele>116</ele>
        <time>2021-01-10T13:02:38.000Z</time>
      </trkpt>
      <trkpt lat="47.33012" lon="-1.45106">
        <ele>116</ele>
        <time>2021-01-10T13:02:40.000Z</time>
      </trkpt>
      <trkpt lat="47.33023" lon="-1.45113">
        <ele>117</ele>
        <time>2021-01-10T13:02:42.000Z</time>
      </trkpt>
      <trkpt lat="47.33034" lon="-1.45119">
        <ele>116</ele>
        <time>2021-01-10T13:02:44.000Z</time>
      </trkpt>
      <trkpt lat="47.33045" lon="-1.45124">
        <ele>117</ele>
        <time>2021-01-10T13:02:46.000Z</time>
      </trkpt>
      <trkpt lat="47.33056" lon="-1.45131">
        <ele>116</ele>
        <time>2021-01-10T13:02:48.000Z</time>
      </trkpt>
      <trkpt lat="47.33068" lon="-1.45138">
        <ele>116</ele>
        <time>2021-01-10T13:02:50.000Z</time>
      </trkpt>
      <trkpt lat="47.33079" lon="-1.45143">
        <ele>116</ele>
        <time>2021-01-10T13:02:52.000Z</time>
      </trkpt>
      <trkpt lat="47.3309" lon="-1.4515">
        <ele>116</ele>
        <time>2021-01-10T13:02:54.000Z</time>
      </trkpt>
      <trkpt lat="47.33102" lon="-1.45156">
        <ele>116</ele>
        <time>2021-01-10T13:02:56.000Z</time>
      </trkpt>
      <trkpt lat="47.33113" lon="-1.45162">
        <ele>116</ele>
        <time>2021-01-10T13:02:58.000Z</time>
      </trkpt>
      <trkpt lat="47.33125" lon="-1.45169">
        <ele>115</ele>
        <time>2021-01-10T13:03:00.000Z</time>
      </trkpt>
      <trkpt lat="47.33136" lon="-1.45176">
        <ele>115</ele>
        <time>2021-01-10T13:03:02.000Z</time>
      </trkpt>
      <trkpt lat="47.33148" lon="-1.45183">
        <ele>115</ele>
        <time>2021-01-10T13:03:04.000Z</time>
      </trkpt>
      <trkpt lat="47.33159" lon="-1.4519">
        <ele>115</ele>
        <time>2021-01-10T13:03:06.000Z</time>
      </trkpt>
      <trkpt lat="47.3317" lon="-1.45196">
        <ele>114</ele>
        <time>2021-01-10T13:03:08.000Z</time>
      </trkpt>
      <trkpt lat="47.33182" lon="-1.45202">
        <ele>114</ele>
        <time>2021-01-10T13:03:10.000Z</time>
      </trkpt>
      <trkpt lat="47.33193" lon="-1.45208">
        <ele>114</ele>
        <time>2021-01-10T13:03:12.000Z</time>
      </trkpt>
      <trkpt lat="47.33204" lon="-1.45214">
        <ele>113</ele>
        <time>2021-01-10T13:03:14.000Z</time>
      </trkpt>
      <trkpt lat="47.33215" lon="-1.45221">
        <ele>113</ele>
        <time>2021-01-10T13:03:16.000Z</time>
      </trkpt>
      <trkpt lat="47.33227" lon="-1.45227">
        <ele>113</ele>
        <time>2021-01-10T13:03:18.000Z</time>
      </trkpt>
      <trkpt lat="47.33238" lon="-1.45233">
        <ele>112</ele>
        <time>2021-01-10T13:03:20.000Z</time>
      </trkpt>
      <trkpt lat="47.3325" lon="-1.45239">
        <ele>112</ele>
        <time>2021-01-10T13:03:22.000Z</time>
      </trkpt>
      <trkpt lat="47.33261" lon="-1.45246">
        <ele>112</ele>
        <time>2021-01-10T13:03:24.000Z</time>
      </trkpt>
      <trkpt lat="47.33273" lon="-1.45252">
        <ele>112</ele>
        <time>2021-01-10T13:03:26.000Z</time>
      </trkpt>
      <trkpt lat="47.33284" lon="-1.45257">
        <ele>112</ele>
        <time>2021-01-10T13:03:28.000Z</time>
      </trkpt>
      <trkpt lat="47.33296" lon="-1.45263">
        <ele>111</ele>
        <time>2021-01-10T13:03:30.000Z</time>
      </trkpt>
      <trkpt lat="47.33307" lon="-1.4527">
        <ele>112</ele>
        <time>2021-01-10T13:03:32.000Z</time>
      </trkpt>
      <trkpt lat="47.33318" lon="-1.45275">
        <ele>112</ele>
        <time>2021-01-10T13:03:34.000Z</time>
      </trkpt>
      <trkpt lat="47.33329" lon="-1.45282">
        <ele>112</ele>
        <time>2021-01-10T13:03:36.000Z</time>
      </trkpt>
      <trkpt lat="47.3334" lon="-1.45288">
        <ele>112</ele>
        <time>2021-01-10T13:03:38.000Z</time>
      </trkpt>
      <trkpt lat="47.33352" lon="-1.45294">
        <ele>112</ele>
        <time>2021-01-10T13:03:40.000Z</time>
      </trkpt>
      <trkpt lat="47.33363" lon="-1.45301">
        <ele>113</ele>
        <time>2021-01-10T13:03:42.000Z</time>
      </trkpt>
      <trkpt lat="47.33374" lon="-1.45307">
        <ele>113</ele>
        <time>2021-01-10T13:03:44.000Z</time>
      </trkpt>
      <trkpt lat="47.33384" lon="-1.45313">
        <ele>113</ele>
        <time>2021-01-10T13:03:46.000Z</time>
      </trkpt>
      <trkpt lat="47.33395" lon="-1.45319">
        <ele>113</ele>
        <time>2021-01-10T13:03:48.000Z</time>
      </trkpt>
      <trkpt lat="47.33406" lon="-1.45325">
        <ele>112</ele>
        <time>2021-01-10T13:03:50.000Z</time>
      </trkpt>
      <trkpt lat="47.33416" lon="-1.45331">
        <ele>112</ele>
        <time>2021-01-10T13:03:52.000Z</time>
      </trkpt>
      <trkpt lat="47.33427" lon="-1.45337">
        <ele>111</ele>
        <time>2021-01-10T13:03:54.000Z</time>
      </trkpt>
      <trkpt lat="47.33437" lon="-1.45341">
        <ele>111</ele>
        <time>2021-01-10T13:03:56.000Z</time>
      </trkpt>
      <trkpt lat="47.33448" lon="-1.45342">
        <ele>110</ele>
        <time>2021-01-10T13:03:58.000Z</time>
      </trkpt>
      <trkpt lat="47.3346" lon="-1.45337">
        <ele>110</ele>
        <time>2021-01-10T13:04:00.000Z</time>
      </trkpt>
      <trkpt lat="47.33472" lon="-1.45333">
        <ele>110</ele>
        <time>2021-01-10T13:04:02.000Z</time>
      </trkpt>
      <trkpt lat="47.33483" lon="-1.45328">
        <ele>109</ele>
        <time>2021-01-10T13:04:04.000Z</time>
      </trkpt>
      <trkpt lat="47.33494" lon="-1.45323">
        <ele>109</ele>
        <time>2021-01-10T13:04:06.000Z</time>
      </trkpt>
      <trkpt lat="47.33505" lon="-1.45318">
        <ele>109</ele>
        <time>2021-01-10T13:04:08.000Z</time>
      </trkpt>
      <trkpt lat="47.33516" lon="-1.45313">
        <ele>109</ele>
        <time>2021-01-10T13:04:10.000Z</time>
      </trkpt>
      <trkpt lat="47.33528" lon="-1.45308">
        <ele>109</ele>
        <time>2021-01-10T13:04:12.000Z</time>
      </trkpt>
      <trkpt lat="47.33539" lon="-1.45304">
        <ele>108</ele>
        <time>2021-01-10T13:04:14.000Z</time>
      </trkpt>
      <trkpt lat="47.3355" lon="-1.45299">
        <ele>109</ele>
        <time>2021-01-10T13:04:16.000Z</time>
      </trkpt>
      <trkpt lat="47.33562" lon="-1.45294">
        <ele>108</ele>
        <time>2021-01-10T13:04:18.000Z</time>
      </trkpt>
      <trkpt lat="47.33574" lon="-1.45289">
        <ele>108</ele>
        <time>2021-01-10T13:04:20.000Z</time>
      </trkpt>
      <trkpt lat="47.33585" lon="-1.45285">
        <ele>108</ele>
        <time>2021-01-10T13:04:22.000Z</time>
      </trkpt>
      <trkpt lat="47.33596" lon="-1.4528">
        <ele>108</ele>
        <time>2021-01-10T13:04:24.000Z</time>
      </trkpt>
      <trkpt lat="47.33606" lon="-1.45276">
        <ele>107</ele>
        <time>2021-01-10T13:04:26.000Z</time>
      </trkpt>
      <trkpt lat="47.33617" lon="-1.45271">
        <ele>107</ele>
        <time>2021-01-10T13:04:28.000Z</time>
      </trkpt>
      <trkpt lat="47.33627" lon="-1.45266">
        <ele>107</ele>
        <time>2021-01-10T13:04:30.000Z</time>
      </trkpt>
      <trkpt lat="47.33638" lon="-1.45262">
        <ele>107</ele>
        <time>2021-01-10T13:04:32.000Z</time>
      </trkpt>
      <trkpt lat="47.3365" lon="-1.45257">
        <ele>106</ele>
        <time>2021-01-10T13:04:34.000Z</time>
      </trkpt>
      <trkpt lat="47.33662" lon="-1.45252">
        <ele>106</ele>
        <time>2021-01-10T13:04:36.000Z</time>
      </trkpt>
      <trkpt lat="47.33673" lon="-1.45247">
        <ele>106</ele>
        <time>2021-01-10T13:04:38.000Z</time>
      </trkpt>
      <trkpt lat="47.33685" lon="-1.45242">
        <ele>106</ele>
        <time>2021-01-10T13:04:40.000Z</time>
      </trkpt>
      <trkpt lat="47.33697" lon="-1.45237">
        <ele>105</ele>
        <time>2021-01-10T13:04:42.000Z</time>
      </trkpt>
      <trkpt lat="47.33708" lon="-1.45233">
        <ele>105</ele>
        <time>2021-01-10T13:04:44.000Z</time>
      </trkpt>
      <trkpt lat="47.33719" lon="-1.45228">
        <ele>105</ele>
        <time>2021-01-10T13:04:46.000Z</time>
      </trkpt>
      <trkpt lat="47.33731" lon="-1.45223">
        <ele>105</ele>
        <time>2021-01-10T13:04:48.000Z</time>
      </trkpt>
      <trkpt lat="47.33742" lon="-1.45217">
        <ele>105</ele>
        <time>2021-01-10T13:04:50.000Z</time>
      </trkpt>
      <trkpt lat="47.33754" lon="-1.45213">
        <ele>104</ele>
        <time>2021-01-10T13:04:52.000Z</time>
      </trkpt>
      <trkpt lat="47.33765" lon="-1.45207">
        <ele>104</ele>
        <time>2021-01-10T13:04:54.000Z</time>
      </trkpt>
      <trkpt lat="47.33776" lon="-1.452">
        <ele>104</ele>
        <time>2021-01-10T13:04:56.000Z</time>
      </trkpt>
      <trkpt lat="47.33787" lon="-1.45191">
        <ele>104</ele>
        <time>2021-01-10T13:04:58.000Z</time>
      </trkpt>
      <trkpt lat="47.33797" lon="-1.45179">
        <ele>103</ele>
        <time>2021-01-10T13:05:00.000Z</time>
      </trkpt>
      <trkpt lat="47.33805" lon="-1.45167">
        <ele>103</ele>
        <time>2021-01-10T13:05:02.000Z</time>
      </trkpt>
      <trkpt lat="47.33813" lon="-1.45153">
        <ele>102</ele>
        <time>2021-01-10T13:05:04.000Z</time>
      </trkpt>
      <trkpt lat="47.33821" lon="-1.45147">
        <ele>103</ele>
        <time>2021-01-10T13:05:07.000Z</time>
      </trkpt>
      <trkpt lat="47.33825" lon="-1.45163">
        <ele>104</ele>
        <time>2021-01-10T13:05:10.000Z</time>
      </trkpt>
      <trkpt lat="47.33833" lon="-1.45169">
        <ele>103</ele>
        <time>2021-01-10T13:05:13.000Z</time>
      </trkpt>
      <trkpt lat="47.3384" lon="-1.45157">
        <ele>103</ele>
        <time>2021-01-10T13:05:16.000Z</time>
      </trkpt>
      <trkpt lat="47.3385" lon="-1.45148">
        <ele>103</ele>
        <time>2021-01-10T13:05:19.000Z</time>
      </trkpt>
      <trkpt lat="47.33859" lon="-1.45136">
        <ele>103</ele>
        <time>2021-01-10T13:05:21.000Z</time>
      </trkpt>
      <trkpt lat="47.33867" lon="-1.45126">
        <ele>103</ele>
        <time>2021-01-10T13:05:23.000Z</time>
      </trkpt>
      <trkpt lat="47.33876" lon="-1.45113">
        <ele>103</ele>
        <time>2021-01-10T13:05:25.000Z</time>
      </trkpt>
      <trkpt lat="47.33885" lon="-1.45101">
        <ele>103</ele>
        <time>2021-01-10T13:05:27.000Z</time>
      </trkpt>
      <trkpt lat="47.33894" lon="-1.45088">
        <ele>102</ele>
        <time>2021-01-10T13:05:29.000Z</time>
      </trkpt>
      <trkpt lat="47.33903" lon="-1.45076">
        <ele>102</ele>
        <time>2021-01-10T13:05:31.000Z</time>
      </trkpt>
      <trkpt lat="47.33913" lon="-1.45063">
        <ele>102</ele>
        <time>2021-01-10T13:05:33.000Z</time>
      </trkpt>
      <trkpt lat="47.33922" lon="-1.45051">
        <ele>102</ele>
        <time>2021-01-10T13:05:35.000Z</time>
      </trkpt>
      <trkpt lat="47.33931" lon="-1.45038">
        <ele>102</ele>
        <time>2021-01-10T13:05:37.000Z</time>
      </trkpt>
      <trkpt lat="47.33941" lon="-1.45025">
        <ele>101</ele>
        <time>2021-01-10T13:05:39.000Z</time>
      </trkpt>
      <trkpt lat="47.3395" lon="-1.45012">
        <ele>101</ele>
        <time>2021-01-10T13:05:41.000Z</time>
      </trkpt>
      <trkpt lat="47.33959" lon="-1.45">
        <ele>101</ele>
        <time>2021-01-10T13:05:43.000Z</time>
      </trkpt>
      <trkpt lat="47.33969" lon="-1.44987">
        <ele>102</ele>
        <time>2021-01-10T13:05:45.000Z</time>
      </trkpt>
      <trkpt lat="47.33978" lon="-1.44975">
        <ele>101</ele>
        <time>2021-01-10T13:05:47.000Z</time>
      </trkpt>
      <trkpt lat="47.33987" lon="-1.44963">
        <ele>100</ele>
        <time>2021-01-10T13:05:49.000Z</time>
      </trkpt>
      <trkpt lat="47.33996" lon="-1.4495">
        <ele>100</ele>
        <time>2021-01-10T13:05:51.000Z</time>
      </trkpt>
      <trkpt lat="47.34006" lon="-1.44937">
        <ele>100</ele>
        <time>2021-01-10T13:05:53.000Z</time>
      </trkpt>
      <trkpt lat="47.34015" lon="-1.44924">
        <ele>101</ele>
        <time>2021-01-10T13:05:55.000Z</time>
      </trkpt>
      <trkpt lat="47.34024" lon="-1.44911">
        <ele>100</ele>
        <time>2021-01-10T13:05:57.000Z</time>
      </trkpt>
      <trkpt lat="47.34033" lon="-1.44898">
        <ele>100</ele>
        <time>2021-01-10T13:05:59.000Z</time>
      </trkpt>
      <trkpt lat="47.34042" lon="-1.44886">
        <ele>99</ele>
        <time>2021-01-10T13:06:01.000Z</time>
      </trkpt>
      <trkpt lat="47.34051" lon="-1.44874">
        <ele>99</ele>
        <time>2021-01-10T13:06:03.000Z</time>
      </trkpt>
      <trkpt lat="47.3406" lon="-1.44862">
        <ele>99</ele>
        <time>2021-01-10T13:06:05.000Z</time>
      </trkpt>
      <trkpt lat="47.34069" lon="-1.44849">
        <ele>99</ele>
        <time>2021-01-10T13:06:07.000Z</time>
      </trkpt>
      <trkpt lat="47.34078" lon="-1.44837">
        <ele>99</ele>
        <time>2021-01-10T13:06:09.000Z</time>
      </trkpt>
      <trkpt lat="47.34087" lon="-1.44825">
        <ele>98</ele>
        <time>2021-01-10T13:06:11.000Z</time>
      </trkpt>
      <trkpt lat="47.34095" lon="-1.44813">
        <ele>98</ele>
        <time>2021-01-10T13:06:13.000Z</time>
      </trkpt>
      <trkpt lat="47.34105" lon="-1.448">
        <ele>98</ele>
        <time>2021-01-10T13:06:15.000Z</time>
      </trkpt>
      <trkpt lat="47.34115" lon="-1.44786">
        <ele>98</ele>
        <time>2021-01-10T13:06:17.000Z</time>
      </trkpt>
      <trkpt lat="47.34124" lon="-1.44773">
        <ele>98</ele>
        <time>2021-01-10T13:06:19.000Z</time>
      </trkpt>
      <trkpt lat="47.34133" lon="-1.4476">
        <ele>98</ele>
        <time>2021-01-10T13:06:21.000Z</time>
      </trkpt>
      <trkpt lat="47.34143" lon="-1.44748">
        <ele>98</ele>
        <time>2021-01-10T13:06:23.000Z</time>
      </trkpt>
      <trkpt lat="47.34153" lon="-1.44735">
        <ele>99</ele>
        <time>2021-01-10T13:06:25.000Z</time>
      </trkpt>
      <trkpt lat="47.34163" lon="-1.44721">
        <ele>98</ele>
        <time>2021-01-10T13:06:27.000Z</time>
      </trkpt>
      <trkpt lat="47.34172" lon="-1.44709">
        <ele>99</ele>
        <time>2021-01-10T13:06:29.000Z</time>
      </trkpt>
      <trkpt lat="47.34181" lon="-1.44696">
        <ele>98</ele>
        <time>2021-01-10T13:06:31.000Z</time>
      </trkpt>
      <trkpt lat="47.34191" lon="-1.44683">
        <ele>99</ele>
        <time>2021-01-10T13:06:33.000Z</time>
      </trkpt>
      <trkpt lat="47.342" lon="-1.4467">
        <ele>98</ele>
        <time>2021-01-10T13:06:35.000Z</time>
      </trkpt>
      <trkpt lat="47.34209" lon="-1.44657">
        <ele>99</ele>
        <time>2021-01-10T13:06:37.000Z</time>
      </trkpt>
      <trkpt lat="47.34219" lon="-1.44644">
        <ele>99</ele>
        <time>2021-01-10T13:06:39.000Z</time>
      </trkpt>
      <trkpt lat="47.34228" lon="-1.44632">
        <ele>98</ele>
        <time>2021-01-10T13:06:41.000Z</time>
      </trkpt>
      <trkpt lat="47.34237" lon="-1.44619">
        <ele>99</ele>
        <time>2021-01-10T13:06:43.000Z</time>
      </trkpt>
      <trkpt lat="47.34246" lon="-1.44607">
        <ele>98</ele>
        <time>2021-01-10T13:06:45.000Z</time>
      </trkpt>
      <trkpt lat="47.34256" lon="-1.44594">
        <ele>98</ele>
        <time>2021-01-10T13:06:47.000Z</time>
      </trkpt>
      <trkpt lat="47.34265" lon="-1.44581">
        <ele>98</ele>
        <time>2021-01-10T13:06:49.000Z</time>
      </trkpt>
      <trkpt lat="47.34274" lon="-1.44568">
        <ele>98</ele>
        <time>2021-01-10T13:06:51.000Z</time>
      </trkpt>
      <trkpt lat="47.34283" lon="-1.44556">
        <ele>99</ele>
        <time>2021-01-10T13:06:53.000Z</time>
      </trkpt>
      <trkpt lat="47.34292" lon="-1.44543">
        <ele>99</ele>
        <time>2021-01-10T13:06:55.000Z</time>
      </trkpt>
      <trkpt lat="47.34301" lon="-1.44531">
        <ele>100</ele>
        <time>2021-01-10T13:06:57.000Z</time>
      </trkpt>
      <trkpt lat="47.34309" lon="-1.44519">
        <ele>100</ele>
        <time>2021-01-10T13:06:59.000Z</time>
      </trkpt>
      <trkpt lat="47.34318" lon="-1.44508">
        <ele>100</ele>
        <time>2021-01-10T13:07:01.000Z</time>
      </trkpt>
      <trkpt lat="47.34326" lon="-1.44496">
        <ele>100</ele>
        <time>2021-01-10T13:07:03.000Z</time>
      </trkpt>
      <trkpt lat="47.34335" lon="-1.44484">
        <ele>100</ele>
        <time>2021-01-10T13:07:05.000Z</time>
      </trkpt>
      <trkpt lat="47.34345" lon="-1.44471">
        <ele>100</ele>
        <time>2021-01-10T13:07:07.000Z</time>
      </trkpt>
      <trkpt lat="47.34354" lon="-1.44459">
        <ele>99</ele>
        <time>2021-01-10T13:07:09.000Z</time>
      </trkpt>
      <trkpt lat="47.34363" lon="-1.44446">
        <ele>99</ele>
        <time>2021-01-10T13:07:11.000Z</time>
      </trkpt>
      <trkpt lat="47.34372" lon="-1.44433">
        <ele>99</ele>
        <time>2021-01-10T13:07:13.000Z</time>
      </trkpt>
      <trkpt lat="47.34381" lon="-1.44421">
        <ele>99</ele>
        <time>2021-01-10T13:07:15.000Z</time>
      </trkpt>
      <trkpt lat="47.3439" lon="-1.44408">
        <ele>99</ele>
        <time>2021-01-10T13:07:17.000Z</time>
      </trkpt>
      <trkpt lat="47.344" lon="-1.44396">
        <ele>99</ele>
        <time>2021-01-10T13:07:19.000Z</time>
      </trkpt>
      <trkpt lat="47.34408" lon="-1.44383">
        <ele>98</ele>
        <time>2021-01-10T13:07:21.000Z</time>
      </trkpt>
      <trkpt lat="47.34417" lon="-1.44371">
        <ele>98</ele>
        <time>2021-01-10T13:07:23.000Z</time>
      </trkpt>
      <trkpt lat="47.34425" lon="-1.44359">
        <ele>98</ele>
        <time>2021-01-10T13:07:25.000Z</time>
      </trkpt>
      <trkpt lat="47.34434" lon="-1.44346">
        <ele>98</ele>
        <time>2021-01-10T13:07:27.000Z</time>
      </trkpt>
      <trkpt lat="47.34442" lon="-1.44332">
        <ele>98</ele>
        <time>2021-01-10T13:07:29.000Z</time>
      </trkpt>
      <trkpt lat="47.34449" lon="-1.44318">
        <ele>99</ele>
        <time>2021-01-10T13:07:31.000Z</time>
      </trkpt>
      <trkpt lat="47.34457" lon="-1.44305">
        <ele>98</ele>
        <time>2021-01-10T13:07:33.000Z</time>
      </trkpt>
      <trkpt lat="47.34464" lon="-1.44292">
        <ele>98</ele>
        <time>2021-01-10T13:07:35.000Z</time>
      </trkpt>
      <trkpt lat="47.34471" lon="-1.44279">
        <ele>98</ele>
        <time>2021-01-10T13:07:37.000Z</time>
      </trkpt>
      <trkpt lat="47.34478" lon="-1.44266">
        <ele>99</ele>
        <time>2021-01-10T13:07:39.000Z</time>
      </trkpt>
      <trkpt lat="47.34485" lon="-1.44251">
        <ele>99</ele>
        <time>2021-01-10T13:07:41.000Z</time>
      </trkpt>
      <trkpt lat="47.34491" lon="-1.44238">
        <ele>98</ele>
        <time>2021-01-10T13:07:43.000Z</time>
      </trkpt>
      <trkpt lat="47.34497" lon="-1.44225">
        <ele>98</ele>
        <time>2021-01-10T13:07:45.000Z</time>
      </trkpt>
      <trkpt lat="47.34503" lon="-1.44212">
        <ele>99</ele>
        <time>2021-01-10T13:07:47.000Z</time>
      </trkpt>
      <trkpt lat="47.34509" lon="-1.44198">
        <ele>99</ele>
        <time>2021-01-10T13:07:49.000Z</time>
      </trkpt>
      <trkpt lat="47.34515" lon="-1.44184">
        <ele>99</ele>
        <time>2021-01-10T13:07:51.000Z</time>
      </trkpt>
      <trkpt lat="47.34522" lon="-1.44169">
        <ele>100</ele>
        <time>2021-01-10T13:07:53.000Z</time>
      </trkpt>
      <trkpt lat="47.34527" lon="-1.44155">
        <ele>100</ele>
        <time>2021-01-10T13:07:55.000Z</time>
      </trkpt>
      <trkpt lat="47.34533" lon="-1.44141">
        <ele>100</ele>
        <time>2021-01-10T13:07:57.000Z</time>
      </trkpt>
      <trkpt lat="47.34539" lon="-1.44127">
        <ele>100</ele>
        <time>2021-01-10T13:07:59.000Z</time>
      </trkpt>
      <trkpt lat="47.34544" lon="-1.44112">
        <ele>100</ele>
        <time>2021-01-10T13:08:01.000Z</time>
      </trkpt>
      <trkpt lat="47.34549" lon="-1.44097">
        <ele>100</ele>
        <time>2021-01-10T13:08:03.000Z</time>
      </trkpt>
      <trkpt lat="47.34553" lon="-1.44081">
        <ele>100</ele>
        <time>2021-01-10T13:08:05.000Z</time>
      </trkpt>
      <trkpt lat="47.34558" lon="-1.44066">
        <ele>100</ele>
        <time>2021-01-10T13:08:07.000Z</time>
      </trkpt>
      <trkpt lat="47.34564" lon="-1.44051">
        <ele>100</ele>
        <time>2021-01-10T13:08:09.000Z</time>
      </trkpt>
      <trkpt lat="47.34569" lon="-1.44035">
        <ele>100</ele>
        <time>2021-01-10T13:08:11.000Z</time>
      </trkpt>
      <trkpt lat="47.34573" lon="-1.44019">
        <ele>101</ele>
        <time>2021-01-10T13:08:13.000Z</time>
      </trkpt>
      <trkpt lat="47.34579" lon="-1.44003">
        <ele>101</ele>
        <time>2021-01-10T13:08:15.000Z</time>
      </trkpt>
      <trkpt lat="47.34583" lon="-1.43988">
        <ele>102</ele>
        <time>2021-01-10T13:08:17.000Z</time>
      </trkpt>
      <trkpt lat="47.34588" lon="-1.43972">
        <ele>102</ele>
        <time>2021-01-10T13:08:19.000Z</time>
      </trkpt>
      <trkpt lat="47.34592" lon="-1.43955">
        <ele>103</ele>
        <time>2021-01-10T13:08:21.000Z</time>
      </trkpt>
      <trkpt lat="47.34597" lon="-1.43939">
        <ele>103</ele>
        <time>2021-01-10T13:08:23.000Z</time>
      </trkpt>
      <trkpt lat="47.346" lon="-1.43922">
        <ele>103</ele>
        <time>2021-01-10T13:08:25.000Z</time>
      </trkpt>
      <trkpt lat="47.34604" lon="-1.43906">
        <ele>103</ele>
        <time>2021-01-10T13:08:27.000Z</time>
      </trkpt>
      <trkpt lat="47.34607" lon="-1.4389">
        <ele>103</ele>
        <time>2021-01-10T13:08:29.000Z</time>
      </trkpt>
      <trkpt lat="47.34609" lon="-1.43874">
        <ele>103</ele>
        <time>2021-01-10T13:08:31.000Z</time>
      </trkpt>
      <trkpt lat="47.34612" lon="-1.43857">
        <ele>103</ele>
        <time>2021-01-10T13:08:33.000Z</time>
      </trkpt>
      <trkpt lat="47.34614" lon="-1.43841">
        <ele>103</ele>
        <time>2021-01-10T13:08:35.000Z</time>
      </trkpt>
      <trkpt lat="47.34617" lon="-1.43824">
        <ele>103</ele>
        <time>2021-01-10T13:08:37.000Z</time>
      </trkpt>
      <trkpt lat="47.34619" lon="-1.43808">
        <ele>103</ele>
        <time>2021-01-10T13:08:39.000Z</time>
      </trkpt>
      <trkpt lat="47.34622" lon="-1.43792">
        <ele>103</ele>
        <time>2021-01-10T13:08:41.000Z</time>
      </trkpt>
      <trkpt lat="47.34624" lon="-1.43776">
        <ele>103</ele>
        <time>2021-01-10T13:08:43.000Z</time>
      </trkpt>
      <trkpt lat="47.34625" lon="-1.43759">
        <ele>103</ele>
        <time>2021-01-10T13:08:45.000Z</time>
      </trkpt>
      <trkpt lat="47.34627" lon="-1.43742">
        <ele>103</ele>
        <time>2021-01-10T13:08:47.000Z</time>
      </trkpt>
      <trkpt lat="47.34628" lon="-1.43725">
        <ele>103</ele>
        <time>2021-01-10T13:08:49.000Z</time>
      </trkpt>
      <trkpt lat="47.3463" lon="-1.43708">
        <ele>102</ele>
        <time>2021-01-10T13:08:51.000Z</time>
      </trkpt>
      <trkpt lat="47.34631" lon="-1.43691">
        <ele>102</ele>
        <time>2021-01-10T13:08:53.000Z</time>
      </trkpt>
      <trkpt lat="47.34632" lon="-1.43675">
        <ele>102</ele>
        <time>2021-01-10T13:08:55.000Z</time>
      </trkpt>
      <trkpt lat="47.34633" lon="-1.43658">
        <ele>102</ele>
        <time>2021-01-10T13:08:57.000Z</time>
      </trkpt>
      <trkpt lat="47.34634" lon="-1.43643">
        <ele>102</ele>
        <time>2021-01-10T13:08:59.000Z</time>
      </trkpt>
      <trkpt lat="47.34635" lon="-1.43627">
        <ele>102</ele>
        <time>2021-01-10T13:09:01.000Z</time>
      </trkpt>
      <trkpt lat="47.34636" lon="-1.4361">
        <ele>102</ele>
        <time>2021-01-10T13:09:03.000Z</time>
      </trkpt>
      <trkpt lat="47.34635" lon="-1.43595">
        <ele>103</ele>
        <time>2021-01-10T13:09:05.000Z</time>
      </trkpt>
      <trkpt lat="47.34636" lon="-1.43578">
        <ele>103</ele>
        <time>2021-01-10T13:09:07.000Z</time>
      </trkpt>
      <trkpt lat="47.34636" lon="-1.43561">
        <ele>103</ele>
        <time>2021-01-10T13:09:09.000Z</time>
      </trkpt>
      <trkpt lat="47.34636" lon="-1.43546">
        <ele>103</ele>
        <time>2021-01-10T13:09:11.000Z</time>
      </trkpt>
      <trkpt lat="47.34637" lon="-1.43533">
        <ele>104</ele>
        <time>2021-01-10T13:09:13.000Z</time>
      </trkpt>
      <trkpt lat="47.34635" lon="-1.43519">
        <ele>105</ele>
        <time>2021-01-10T13:09:16.000Z</time>
      </trkpt>
      <trkpt lat="47.34636" lon="-1.43501">
        <ele>105</ele>
        <time>2021-01-10T13:09:20.000Z</time>
      </trkpt>
      <trkpt lat="47.34635" lon="-1.43487">
        <ele>105</ele>
        <time>2021-01-10T13:09:23.000Z</time>
      </trkpt>
      <trkpt lat="47.34635" lon="-1.43469">
        <ele>105</ele>
        <time>2021-01-10T13:09:27.000Z</time>
      </trkpt>
      <trkpt lat="47.34633" lon="-1.43451">
        <ele>106</ele>
        <time>2021-01-10T13:09:30.000Z</time>
      </trkpt>
      <trkpt lat="47.34632" lon="-1.43436">
        <ele>106</ele>
        <time>2021-01-10T13:09:32.000Z</time>
      </trkpt>
      <trkpt lat="47.34632" lon="-1.4342">
        <ele>106</ele>
        <time>2021-01-10T13:09:34.000Z</time>
      </trkpt>
      <trkpt lat="47.3463" lon="-1.43404">
        <ele>106</ele>
        <time>2021-01-10T13:09:36.000Z</time>
      </trkpt>
      <trkpt lat="47.34629" lon="-1.43387">
        <ele>106</ele>
        <time>2021-01-10T13:09:38.000Z</time>
      </trkpt>
      <trkpt lat="47.34627" lon="-1.43371">
        <ele>106</ele>
        <time>2021-01-10T13:09:40.000Z</time>
      </trkpt>
      <trkpt lat="47.34625" lon="-1.43354">
        <ele>106</ele>
        <time>2021-01-10T13:09:42.000Z</time>
      </trkpt>
      <trkpt lat="47.34625" lon="-1.43337">
        <ele>106</ele>
        <time>2021-01-10T13:09:44.000Z</time>
      </trkpt>
      <trkpt lat="47.34623" lon="-1.43319">
        <ele>106</ele>
        <time>2021-01-10T13:09:46.000Z</time>
      </trkpt>
      <trkpt lat="47.34622" lon="-1.43303">
        <ele>106</ele>
        <time>2021-01-10T13:09:48.000Z</time>
      </trkpt>
      <trkpt lat="47.34621" lon="-1.43286">
        <ele>107</ele>
        <time>2021-01-10T13:09:50.000Z</time>
      </trkpt>
      <trkpt lat="47.3462" lon="-1.43269">
        <ele>107</ele>
        <time>2021-01-10T13:09:52.000Z</time>
      </trkpt>
      <trkpt lat="47.34619" lon="-1.43253">
        <ele>106</ele>
        <time>2021-01-10T13:09:54.000Z</time>
      </trkpt>
      <trkpt lat="47.34617" lon="-1.43236">
        <ele>107</ele>
        <time>2021-01-10T13:09:56.000Z</time>
      </trkpt>
      <trkpt lat="47.34616" lon="-1.43219">
        <ele>107</ele>
        <time>2021-01-10T13:09:58.000Z</time>
      </trkpt>
      <trkpt lat="47.34616" lon="-1.43203">
        <ele>107</ele>
        <time>2021-01-10T13:10:00.000Z</time>
      </trkpt>
      <trkpt lat="47.34614" lon="-1.43185">
        <ele>107</ele>
        <time>2021-01-10T13:10:02.000Z</time>
      </trkpt>
      <trkpt lat="47.34614" lon="-1.43168">
        <ele>108</ele>
        <time>2021-01-10T13:10:04.000Z</time>
      </trkpt>
      <trkpt lat="47.34613" lon="-1.43152">
        <ele>108</ele>
        <time>2021-01-10T13:10:06.000Z</time>
      </trkpt>
      <trkpt lat="47.34611" lon="-1.43135">
        <ele>108</ele>
        <time>2021-01-10T13:10:08.000Z</time>
      </trkpt>
      <trkpt lat="47.3461" lon="-1.43118">
        <ele>109</ele>
        <time>2021-01-10T13:10:10.000Z</time>
      </trkpt>
      <trkpt lat="47.34608" lon="-1.43101">
        <ele>110</ele>
        <time>2021-01-10T13:10:12.000Z</time>
      </trkpt>
      <trkpt lat="47.34607" lon="-1.43084">
        <ele>111</ele>
        <time>2021-01-10T13:10:14.000Z</time>
      </trkpt>
      <trkpt lat="47.34606" lon="-1.43067">
        <ele>111</ele>
        <time>2021-01-10T13:10:16.000Z</time>
      </trkpt>
      <trkpt lat="47.34605" lon="-1.4305">
        <ele>111</ele>
        <time>2021-01-10T13:10:18.000Z</time>
      </trkpt>
      <trkpt lat="47.34604" lon="-1.43033">
        <ele>110</ele>
        <time>2021-01-10T13:10:20.000Z</time>
      </trkpt>
      <trkpt lat="47.34603" lon="-1.43017">
        <ele>111</ele>
        <time>2021-01-10T13:10:22.000Z</time>
      </trkpt>
      <trkpt lat="47.34602" lon="-1.43001">
        <ele>111</ele>
        <time>2021-01-10T13:10:24.000Z</time>
      </trkpt>
      <trkpt lat="47.34601" lon="-1.42983">
        <ele>112</ele>
        <time>2021-01-10T13:10:26.000Z</time>
      </trkpt>
      <trkpt lat="47.34601" lon="-1.42966">
        <ele>112</ele>
        <time>2021-01-10T13:10:28.000Z</time>
      </trkpt>
      <trkpt lat="47.34599" lon="-1.4295">
        <ele>112</ele>
        <time>2021-01-10T13:10:30.000Z</time>
      </trkpt>
      <trkpt lat="47.34597" lon="-1.42933">
        <ele>113</ele>
        <time>2021-01-10T13:10:32.000Z</time>
      </trkpt>
      <trkpt lat="47.34595" lon="-1.42918">
        <ele>113</ele>
        <time>2021-01-10T13:10:34.000Z</time>
      </trkpt>
      <trkpt lat="47.34593" lon="-1.42901">
        <ele>113</ele>
        <time>2021-01-10T13:10:36.000Z</time>
      </trkpt>
      <trkpt lat="47.34591" lon="-1.42885">
        <ele>113</ele>
        <time>2021-01-10T13:10:38.000Z</time>
      </trkpt>
      <trkpt lat="47.34591" lon="-1.42868">
        <ele>113</ele>
        <time>2021-01-10T13:10:40.000Z</time>
      </trkpt>
      <trkpt lat="47.3459" lon="-1.4285">
        <ele>112</ele>
        <time>2021-01-10T13:10:42.000Z</time>
      </trkpt>
      <trkpt lat="47.34589" lon="-1.42832">
        <ele>112</ele>
        <time>2021-01-10T13:10:44.000Z</time>
      </trkpt>
      <trkpt lat="47.34588" lon="-1.42815">
        <ele>112</ele>
        <time>2021-01-10T13:10:46.000Z</time>
      </trkpt>
      <trkpt lat="47.34587" lon="-1.42797">
        <ele>112</ele>
        <time>2021-01-10T13:10:48.000Z</time>
      </trkpt>
      <trkpt lat="47.34586" lon="-1.4278">
        <ele>112</ele>
        <time>2021-01-10T13:10:50.000Z</time>
      </trkpt>
      <trkpt lat="47.34586" lon="-1.42765">
        <ele>111</ele>
        <time>2021-01-10T13:10:52.000Z</time>
      </trkpt>
      <trkpt lat="47.34586" lon="-1.42752">
        <ele>112</ele>
        <time>2021-01-10T13:10:54.000Z</time>
      </trkpt>
      <trkpt lat="47.34587" lon="-1.42738">
        <ele>112</ele>
        <time>2021-01-10T13:10:57.000Z</time>
      </trkpt>
      <trkpt lat="47.34587" lon="-1.42724">
        <ele>112</ele>
        <time>2021-01-10T13:11:06.000Z</time>
      </trkpt>
      <trkpt lat="47.34585" lon="-1.42708">
        <ele>112</ele>
        <time>2021-01-10T13:11:14.000Z</time>
      </trkpt>
      <trkpt lat="47.34582" lon="-1.42694">
        <ele>111</ele>
        <time>2021-01-10T13:11:17.000Z</time>
      </trkpt>
      <trkpt lat="47.34582" lon="-1.42681">
        <ele>112</ele>
        <time>2021-01-10T13:11:19.000Z</time>
      </trkpt>
      <trkpt lat="47.34581" lon="-1.42665">
        <ele>112</ele>
        <time>2021-01-10T13:11:21.000Z</time>
      </trkpt>
      <trkpt lat="47.34579" lon="-1.4265">
        <ele>113</ele>
        <time>2021-01-10T13:11:23.000Z</time>
      </trkpt>
      <trkpt lat="47.34579" lon="-1.42632">
        <ele>113</ele>
        <time>2021-01-10T13:11:25.000Z</time>
      </trkpt>
      <trkpt lat="47.34578" lon="-1.42613">
        <ele>113</ele>
        <time>2021-01-10T13:11:27.000Z</time>
      </trkpt>
      <trkpt lat="47.34576" lon="-1.42596">
        <ele>113</ele>
        <time>2021-01-10T13:11:29.000Z</time>
      </trkpt>
      <trkpt lat="47.34575" lon="-1.42581">
        <ele>113</ele>
        <time>2021-01-10T13:11:31.000Z</time>
      </trkpt>
      <trkpt lat="47.34573" lon="-1.42564">
        <ele>113</ele>
        <time>2021-01-10T13:11:33.000Z</time>
      </trkpt>
      <trkpt lat="47.34572" lon="-1.42548">
        <ele>113</ele>
        <time>2021-01-10T13:11:35.000Z</time>
      </trkpt>
      <trkpt lat="47.34571" lon="-1.42531">
        <ele>113</ele>
        <time>2021-01-10T13:11:37.000Z</time>
      </trkpt>
      <trkpt lat="47.3457" lon="-1.42515">
        <ele>113</ele>
        <time>2021-01-10T13:11:39.000Z</time>
      </trkpt>
      <trkpt lat="47.34568" lon="-1.42499">
        <ele>113</ele>
        <time>2021-01-10T13:11:41.000Z</time>
      </trkpt>
      <trkpt lat="47.34566" lon="-1.42482">
        <ele>113</ele>
        <time>2021-01-10T13:11:43.000Z</time>
      </trkpt>
      <trkpt lat="47.34565" lon="-1.42465">
        <ele>114</ele>
        <time>2021-01-10T13:11:45.000Z</time>
      </trkpt>
      <trkpt lat="47.34564" lon="-1.42449">
        <ele>114</ele>
        <time>2021-01-10T13:11:47.000Z</time>
      </trkpt>
      <trkpt lat="47.34563" lon="-1.42433">
        <ele>114</ele>
        <time>2021-01-10T13:11:49.000Z</time>
      </trkpt>
      <trkpt lat="47.34562" lon="-1.42416">
        <ele>114</ele>
        <time>2021-01-10T13:11:51.000Z</time>
      </trkpt>
      <trkpt lat="47.3456" lon="-1.424">
        <ele>114</ele>
        <time>2021-01-10T13:11:53.000Z</time>
      </trkpt>
      <trkpt lat="47.34559" lon="-1.42383">
        <ele>115</ele>
        <time>2021-01-10T13:11:55.000Z</time>
      </trkpt>
      <trkpt lat="47.34558" lon="-1.42367">
        <ele>115</ele>
        <time>2021-01-10T13:11:57.000Z</time>
      </trkpt>
      <trkpt lat="47.34557" lon="-1.42351">
        <ele>114</ele>
        <time>2021-01-10T13:11:59.000Z</time>
      </trkpt>
      <trkpt lat="47.34556" lon="-1.42333">
        <ele>113</ele>
        <time>2021-01-10T13:12:01.000Z</time>
      </trkpt>
      <trkpt lat="47.34555" lon="-1.42317">
        <ele>113</ele>
        <time>2021-01-10T13:12:03.000Z</time>
      </trkpt>
      <trkpt lat="47.34553" lon="-1.42301">
        <ele>113</ele>
        <time>2021-01-10T13:12:05.000Z</time>
      </trkpt>
      <trkpt lat="47.34552" lon="-1.42285">
        <ele>113</ele>
        <time>2021-01-10T13:12:07.000Z</time>
      </trkpt>
      <trkpt lat="47.3455" lon="-1.42269">
        <ele>113</ele>
        <time>2021-01-10T13:12:09.000Z</time>
      </trkpt>
      <trkpt lat="47.34549" lon="-1.42251">
        <ele>113</ele>
        <time>2021-01-10T13:12:11.000Z</time>
      </trkpt>
      <trkpt lat="47.34548" lon="-1.42233">
        <ele>113</ele>
        <time>2021-01-10T13:12:13.000Z</time>
      </trkpt>
      <trkpt lat="47.34547" lon="-1.42215">
        <ele>114</ele>
        <time>2021-01-10T13:12:15.000Z</time>
      </trkpt>
      <trkpt lat="47.34546" lon="-1.42197">
        <ele>114</ele>
        <time>2021-01-10T13:12:17.000Z</time>
      </trkpt>
      <trkpt lat="47.34545" lon="-1.4218">
        <ele>114</ele>
        <time>2021-01-10T13:12:19.000Z</time>
      </trkpt>
      <trkpt lat="47.34544" lon="-1.42162">
        <ele>114</ele>
        <time>2021-01-10T13:12:21.000Z</time>
      </trkpt>
      <trkpt lat="47.34543" lon="-1.42146">
        <ele>114</ele>
        <time>2021-01-10T13:12:23.000Z</time>
      </trkpt>
      <trkpt lat="47.34542" lon="-1.42129">
        <ele>114</ele>
        <time>2021-01-10T13:12:25.000Z</time>
      </trkpt>
      <trkpt lat="47.34541" lon="-1.42112">
        <ele>115</ele>
        <time>2021-01-10T13:12:27.000Z</time>
      </trkpt>
      <trkpt lat="47.3454" lon="-1.42096">
        <ele>115</ele>
        <time>2021-01-10T13:12:29.000Z</time>
      </trkpt>
      <trkpt lat="47.34539" lon="-1.4208">
        <ele>115</ele>
        <time>2021-01-10T13:12:31.000Z</time>
      </trkpt>
      <trkpt lat="47.34539" lon="-1.42065">
        <ele>115</ele>
        <time>2021-01-10T13:12:33.000Z</time>
      </trkpt>
      <trkpt lat="47.34542" lon="-1.42047">
        <ele>115</ele>
        <time>2021-01-10T13:12:36.000Z</time>
      </trkpt>
      <trkpt lat="47.34543" lon="-1.42033">
        <ele>115</ele>
        <time>2021-01-10T13:12:38.000Z</time>
      </trkpt>
      <trkpt lat="47.34543" lon="-1.42019">
        <ele>116</ele>
        <time>2021-01-10T13:12:40.000Z</time>
      </trkpt>
      <trkpt lat="47.34545" lon="-1.42003">
        <ele>116</ele>
        <time>2021-01-10T13:12:43.000Z</time>
      </trkpt>
      <trkpt lat="47.34544" lon="-1.41985">
        <ele>116</ele>
        <time>2021-01-10T13:12:46.000Z</time>
      </trkpt>
      <trkpt lat="47.34545" lon="-1.41969">
        <ele>116</ele>
        <time>2021-01-10T13:12:48.000Z</time>
      </trkpt>
      <trkpt lat="47.34546" lon="-1.41953">
        <ele>116</ele>
        <time>2021-01-10T13:12:50.000Z</time>
      </trkpt>
      <trkpt lat="47.34546" lon="-1.41936">
        <ele>116</ele>
        <time>2021-01-10T13:12:52.000Z</time>
      </trkpt>
      <trkpt lat="47.34546" lon="-1.41919">
        <ele>116</ele>
        <time>2021-01-10T13:12:54.000Z</time>
      </trkpt>
      <trkpt lat="47.34548" lon="-1.41904">
        <ele>116</ele>
        <time>2021-01-10T13:12:56.000Z</time>
      </trkpt>
      <trkpt lat="47.34549" lon="-1.41887">
        <ele>116</ele>
        <time>2021-01-10T13:12:58.000Z</time>
      </trkpt>
      <trkpt lat="47.3455" lon="-1.41871">
        <ele>116</ele>
        <time>2021-01-10T13:13:00.000Z</time>
      </trkpt>
      <trkpt lat="47.34551" lon="-1.41854">
        <ele>115</ele>
        <time>2021-01-10T13:13:02.000Z</time>
      </trkpt>
      <trkpt lat="47.34553" lon="-1.41838">
        <ele>114</ele>
        <time>2021-01-10T13:13:04.000Z</time>
      </trkpt>
      <trkpt lat="47.34555" lon="-1.41822">
        <ele>114</ele>
        <time>2021-01-10T13:13:06.000Z</time>
      </trkpt>
      <trkpt lat="47.34556" lon="-1.41806">
        <ele>114</ele>
        <time>2021-01-10T13:13:08.000Z</time>
      </trkpt>
      <trkpt lat="47.34559" lon="-1.41789">
        <ele>113</ele>
        <time>2021-01-10T13:13:10.000Z</time>
      </trkpt>
      <trkpt lat="47.3456" lon="-1.41773">
        <ele>113</ele>
        <time>2021-01-10T13:13:12.000Z</time>
      </trkpt>
      <trkpt lat="47.34562" lon="-1.41757">
        <ele>112</ele>
        <time>2021-01-10T13:13:14.000Z</time>
      </trkpt>
      <trkpt lat="47.34564" lon="-1.41742">
        <ele>113</ele>
        <time>2021-01-10T13:13:16.000Z</time>
      </trkpt>
      <trkpt lat="47.34567" lon="-1.41725">
        <ele>113</ele>
        <time>2021-01-10T13:13:18.000Z</time>
      </trkpt>
      <trkpt lat="47.34571" lon="-1.41707">
        <ele>114</ele>
        <time>2021-01-10T13:13:20.000Z</time>
      </trkpt>
      <trkpt lat="47.34574" lon="-1.41691">
        <ele>114</ele>
        <time>2021-01-10T13:13:22.000Z</time>
      </trkpt>
      <trkpt lat="47.34577" lon="-1.41675">
        <ele>113</ele>
        <time>2021-01-10T13:13:24.000Z</time>
      </trkpt>
      <trkpt lat="47.3458" lon="-1.41659">
        <ele>113</ele>
        <time>2021-01-10T13:13:26.000Z</time>
      </trkpt>
      <trkpt lat="47.34583" lon="-1.41644">
        <ele>114</ele>
        <time>2021-01-10T13:13:28.000Z</time>
      </trkpt>
      <trkpt lat="47.34587" lon="-1.41629">
        <ele>114</ele>
        <time>2021-01-10T13:13:30.000Z</time>
      </trkpt>
      <trkpt lat="47.34591" lon="-1.41612">
        <ele>114</ele>
        <time>2021-01-10T13:13:32.000Z</time>
      </trkpt>
      <trkpt lat="47.34595" lon="-1.41595">
        <ele>115</ele>
        <time>2021-01-10T13:13:34.000Z</time>
      </trkpt>
      <trkpt lat="47.346" lon="-1.41578">
        <ele>116</ele>
        <time>2021-01-10T13:13:36.000Z</time>
      </trkpt>
      <trkpt lat="47.34604" lon="-1.41561">
        <ele>116</ele>
        <time>2021-01-10T13:13:38.000Z</time>
      </trkpt>
      <trkpt lat="47.34609" lon="-1.41545">
        <ele>116</ele>
        <time>2021-01-10T13:13:40.000Z</time>
      </trkpt>
      <trkpt lat="47.34614" lon="-1.41529">
        <ele>117</ele>
        <time>2021-01-10T13:13:42.000Z</time>
      </trkpt>
      <trkpt lat="47.34619" lon="-1.41513">
        <ele>117</ele>
        <time>2021-01-10T13:13:44.000Z</time>
      </trkpt>
      <trkpt lat="47.34625" lon="-1.41497">
        <ele>117</ele>
        <time>2021-01-10T13:13:46.000Z</time>
      </trkpt>
      <trkpt lat="47.3463" lon="-1.41482">
        <ele>117</ele>
        <time>2021-01-10T13:13:48.000Z</time>
      </trkpt>
      <trkpt lat="47.34635" lon="-1.41466">
        <ele>117</ele>
        <time>2021-01-10T13:13:50.000Z</time>
      </trkpt>
      <trkpt lat="47.3464" lon="-1.4145">
        <ele>117</ele>
        <time>2021-01-10T13:13:52.000Z</time>
      </trkpt>
      <trkpt lat="47.34645" lon="-1.41434">
        <ele>117</ele>
        <time>2021-01-10T13:13:54.000Z</time>
      </trkpt>
      <trkpt lat="47.34651" lon="-1.41418">
        <ele>117</ele>
        <time>2021-01-10T13:13:56.000Z</time>
      </trkpt>
      <trkpt lat="47.34656" lon="-1.41403">
        <ele>117</ele>
        <time>2021-01-10T13:13:58.000Z</time>
      </trkpt>
      <trkpt lat="47.34661" lon="-1.41388">
        <ele>116</ele>
        <time>2021-01-10T13:14:00.000Z</time>
      </trkpt>
      <trkpt lat="47.34667" lon="-1.41374">
        <ele>116</ele>
        <time>2021-01-10T13:14:02.000Z</time>
      </trkpt>
      <trkpt lat="47.34673" lon="-1.41359">
        <ele>116</ele>
        <time>2021-01-10T13:14:04.000Z</time>
      </trkpt>
      <trkpt lat="47.34679" lon="-1.41345">
        <ele>115</ele>
        <time>2021-01-10T13:14:06.000Z</time>
      </trkpt>
      <trkpt lat="47.34685" lon="-1.41332">
        <ele>115</ele>
        <time>2021-01-10T13:14:08.000Z</time>
      </trkpt>
      <trkpt lat="47.34691" lon="-1.41318">
        <ele>114</ele>
        <time>2021-01-10T13:14:10.000Z</time>
      </trkpt>
      <trkpt lat="47.34698" lon="-1.41304">
        <ele>114</ele>
        <time>2021-01-10T13:14:12.000Z</time>
      </trkpt>
      <trkpt lat="47.34705" lon="-1.41291">
        <ele>114</ele>
        <time>2021-01-10T13:14:14.000Z</time>
      </trkpt>
      <trkpt lat="47.34711" lon="-1.41278">
        <ele>114</ele>
        <time>2021-01-10T13:14:16.000Z</time>
      </trkpt>
      <trkpt lat="47.34719" lon="-1.41267">
        <ele>114</ele>
        <time>2021-01-10T13:14:18.000Z</time>
      </trkpt>
      <trkpt lat="47.34726" lon="-1.41258">
        <ele>114</ele>
        <time>2021-01-10T13:14:20.000Z</time>
      </trkpt>
      <trkpt lat="47.34731" lon="-1.41245">
        <ele>114</ele>
        <time>2021-01-10T13:14:22.000Z</time>
      </trkpt>
      <trkpt lat="47.34737" lon="-1.41232">
        <ele>114</ele>
        <time>2021-01-10T13:14:24.000Z</time>
      </trkpt>
      <trkpt lat="47.34742" lon="-1.41219">
        <ele>115</ele>
        <time>2021-01-10T13:14:26.000Z</time>
      </trkpt>
      <trkpt lat="47.34749" lon="-1.41207">
        <ele>115</ele>
        <time>2021-01-10T13:14:28.000Z</time>
      </trkpt>
      <trkpt lat="47.34756" lon="-1.41192">
        <ele>115</ele>
        <time>2021-01-10T13:14:31.000Z</time>
      </trkpt>
      <trkpt lat="47.34766" lon="-1.41178">
        <ele>115</ele>
        <time>2021-01-10T13:14:34.000Z</time>
      </trkpt>
      <trkpt lat="47.34774" lon="-1.41165">
        <ele>115</ele>
        <time>2021-01-10T13:14:36.000Z</time>
      </trkpt>
      <trkpt lat="47.34781" lon="-1.41152">
        <ele>115</ele>
        <time>2021-01-10T13:14:38.000Z</time>
      </trkpt>
      <trkpt lat="47.34789" lon="-1.41139">
        <ele>115</ele>
        <time>2021-01-10T13:14:40.000Z</time>
      </trkpt>
      <trkpt lat="47.34797" lon="-1.41127">
        <ele>115</ele>
        <time>2021-01-10T13:14:42.000Z</time>
      </trkpt>
      <trkpt lat="47.34806" lon="-1.41114">
        <ele>115</ele>
        <time>2021-01-10T13:14:44.000Z</time>
      </trkpt>
      <trkpt lat="47.34814" lon="-1.41102">
        <ele>115</ele>
        <time>2021-01-10T13:14:46.000Z</time>
      </trkpt>
      <trkpt lat="47.34822" lon="-1.4109">
        <ele>115</ele>
        <time>2021-01-10T13:14:48.000Z</time>
      </trkpt>
      <trkpt lat="47.34831" lon="-1.41078">
        <ele>115</ele>
        <time>2021-01-10T13:14:50.000Z</time>
      </trkpt>
      <trkpt lat="47.34839" lon="-1.41066">
        <ele>115</ele>
        <time>2021-01-10T13:14:52.000Z</time>
      </trkpt>
      <trkpt lat="47.34848" lon="-1.41055">
        <ele>116</ele>
        <time>2021-01-10T13:14:54.000Z</time>
      </trkpt>
      <trkpt lat="47.34857" lon="-1.41044">
        <ele>116</ele>
        <time>2021-01-10T13:14:56.000Z</time>
      </trkpt>
      <trkpt lat="47.34866" lon="-1.41033">
        <ele>116</ele>
        <time>2021-01-10T13:14:58.000Z</time>
      </trkpt>
      <trkpt lat="47.34874" lon="-1.41023">
        <ele>116</ele>
        <time>2021-01-10T13:15:00.000Z</time>
      </trkpt>
      <trkpt lat="47.34882" lon="-1.41013">
        <ele>116</ele>
        <time>2021-01-10T13:15:02.000Z</time>
      </trkpt>
      <trkpt lat="47.34891" lon="-1.41002">
        <ele>116</ele>
        <time>2021-01-10T13:15:04.000Z</time>
      </trkpt>
      <trkpt lat="47.349" lon="-1.40991">
        <ele>116</ele>
        <time>2021-01-10T13:15:06.000Z</time>
      </trkpt>
      <trkpt lat="47.34911" lon="-1.4098">
        <ele>117</ele>
        <time>2021-01-10T13:15:08.000Z</time>
      </trkpt>
      <trkpt lat="47.34921" lon="-1.40969">
        <ele>117</ele>
        <time>2021-01-10T13:15:10.000Z</time>
      </trkpt>
      <trkpt lat="47.3493" lon="-1.40959">
        <ele>117</ele>
        <time>2021-01-10T13:15:12.000Z</time>
      </trkpt>
      <trkpt lat="47.3494" lon="-1.4095">
        <ele>118</ele>
        <time>2021-01-10T13:15:14.000Z</time>
      </trkpt>
      <trkpt lat="47.34949" lon="-1.4094">
        <ele>118</ele>
        <time>2021-01-10T13:15:16.000Z</time>
      </trkpt>
      <trkpt lat="47.34957" lon="-1.4093">
        <ele>117</ele>
        <time>2021-01-10T13:15:18.000Z</time>
      </trkpt>
      <trkpt lat="47.34967" lon="-1.40919">
        <ele>117</ele>
        <time>2021-01-10T13:15:20.000Z</time>
      </trkpt>
      <trkpt lat="47.34976" lon="-1.40908">
        <ele>118</ele>
        <time>2021-01-10T13:15:22.000Z</time>
      </trkpt>
      <trkpt lat="47.34985" lon="-1.40897">
        <ele>118</ele>
        <time>2021-01-10T13:15:24.000Z</time>
      </trkpt>
      <trkpt lat="47.34994" lon="-1.40886">
        <ele>118</ele>
        <time>2021-01-10T13:15:26.000Z</time>
      </trkpt>
      <trkpt lat="47.35003" lon="-1.40876">
        <ele>118</ele>
        <time>2021-01-10T13:15:28.000Z</time>
      </trkpt>
      <trkpt lat="47.35013" lon="-1.40866">
        <ele>118</ele>
        <time>2021-01-10T13:15:30.000Z</time>
      </trkpt>
      <trkpt lat="47.35022" lon="-1.40856">
        <ele>118</ele>
        <time>2021-01-10T13:15:32.000Z</time>
      </trkpt>
      <trkpt lat="47.35032" lon="-1.40845">
        <ele>118</ele>
        <time>2021-01-10T13:15:34.000Z</time>
      </trkpt>
      <trkpt lat="47.35041" lon="-1.40835">
        <ele>119</ele>
        <time>2021-01-10T13:15:36.000Z</time>
      </trkpt>
      <trkpt lat="47.3505" lon="-1.40823">
        <ele>119</ele>
        <time>2021-01-10T13:15:38.000Z</time>
      </trkpt>
      <trkpt lat="47.3506" lon="-1.40813">
        <ele>120</ele>
        <time>2021-01-10T13:15:40.000Z</time>
      </trkpt>
      <trkpt lat="47.35069" lon="-1.40801">
        <ele>121</ele>
        <time>2021-01-10T13:15:42.000Z</time>
      </trkpt>
      <trkpt lat="47.35078" lon="-1.4079">
        <ele>121</ele>
        <time>2021-01-10T13:15:44.000Z</time>
      </trkpt>
      <trkpt lat="47.35087" lon="-1.40779">
        <ele>121</ele>
        <time>2021-01-10T13:15:46.000Z</time>
      </trkpt>
      <trkpt lat="47.35097" lon="-1.40768">
        <ele>121</ele>
        <time>2021-01-10T13:15:48.000Z</time>
      </trkpt>
      <trkpt lat="47.35105" lon="-1.40758">
        <ele>121</ele>
        <time>2021-01-10T13:15:50.000Z</time>
      </trkpt>
      <trkpt lat="47.35115" lon="-1.40748">
        <ele>121</ele>
        <time>2021-01-10T13:15:52.000Z</time>
      </trkpt>
      <trkpt lat="47.35123" lon="-1.40737">
        <ele>121</ele>
        <time>2021-01-10T13:15:54.000Z</time>
      </trkpt>
      <trkpt lat="47.35132" lon="-1.40726">
        <ele>121</ele>
        <time>2021-01-10T13:15:56.000Z</time>
      </trkpt>
      <trkpt lat="47.35141" lon="-1.40716">
        <ele>121</ele>
        <time>2021-01-10T13:15:58.000Z</time>
      </trkpt>
      <trkpt lat="47.3515" lon="-1.40706">
        <ele>121</ele>
        <time>2021-01-10T13:16:00.000Z</time>
      </trkpt>
      <trkpt lat="47.35159" lon="-1.40695">
        <ele>121</ele>
        <time>2021-01-10T13:16:02.000Z</time>
      </trkpt>
      <trkpt lat="47.35168" lon="-1.40684">
        <ele>120</ele>
        <time>2021-01-10T13:16:04.000Z</time>
      </trkpt>
      <trkpt lat="47.35177" lon="-1.40673">
        <ele>120</ele>
        <time>2021-01-10T13:16:06.000Z</time>
      </trkpt>
      <trkpt lat="47.35186" lon="-1.40662">
        <ele>120</ele>
        <time>2021-01-10T13:16:08.000Z</time>
      </trkpt>
      <trkpt lat="47.35195" lon="-1.40651">
        <ele>120</ele>
        <time>2021-01-10T13:16:10.000Z</time>
      </trkpt>
      <trkpt lat="47.35204" lon="-1.40641">
        <ele>120</ele>
        <time>2021-01-10T13:16:12.000Z</time>
      </trkpt>
      <trkpt lat="47.35213" lon="-1.4063">
        <ele>120</ele>
        <time>2021-01-10T13:16:14.000Z</time>
      </trkpt>
      <trkpt lat="47.35222" lon="-1.4062">
        <ele>120</ele>
        <time>2021-01-10T13:16:16.000Z</time>
      </trkpt>
      <trkpt lat="47.3523" lon="-1.40609">
        <ele>119</ele>
        <time>2021-01-10T13:16:18.000Z</time>
      </trkpt>
      <trkpt lat="47.35239" lon="-1.406">
        <ele>120</ele>
        <time>2021-01-10T13:16:20.000Z</time>
      </trkpt>
      <trkpt lat="47.35246" lon="-1.40591">
        <ele>120</ele>
        <time>2021-01-10T13:16:22.000Z</time>
      </trkpt>
      <trkpt lat="47.35253" lon="-1.40581">
        <ele>120</ele>
        <time>2021-01-10T13:16:25.000Z</time>
      </trkpt>
      <trkpt lat="47.35263" lon="-1.4057">
        <ele>119</ele>
        <time>2021-01-10T13:16:29.000Z</time>
      </trkpt>
      <trkpt lat="47.35273" lon="-1.40559">
        <ele>119</ele>
        <time>2021-01-10T13:16:32.000Z</time>
      </trkpt>
      <trkpt lat="47.35281" lon="-1.40551">
        <ele>120</ele>
        <time>2021-01-10T13:16:34.000Z</time>
      </trkpt>
      <trkpt lat="47.3529" lon="-1.40539">
        <ele>119</ele>
        <time>2021-01-10T13:16:37.000Z</time>
      </trkpt>
      <trkpt lat="47.35298" lon="-1.40531">
        <ele>120</ele>
        <time>2021-01-10T13:16:39.000Z</time>
      </trkpt>
      <trkpt lat="47.35306" lon="-1.40523">
        <ele>120</ele>
        <time>2021-01-10T13:16:41.000Z</time>
      </trkpt>
      <trkpt lat="47.35315" lon="-1.40513">
        <ele>119</ele>
        <time>2021-01-10T13:16:43.000Z</time>
      </trkpt>
      <trkpt lat="47.35324" lon="-1.40503">
        <ele>119</ele>
        <time>2021-01-10T13:16:45.000Z</time>
      </trkpt>
      <trkpt lat="47.35333" lon="-1.40492">
        <ele>120</ele>
        <time>2021-01-10T13:16:47.000Z</time>
      </trkpt>
      <trkpt lat="47.35341" lon="-1.40481">
        <ele>120</ele>
        <time>2021-01-10T13:16:49.000Z</time>
      </trkpt>
      <trkpt lat="47.35349" lon="-1.40472">
        <ele>120</ele>
        <time>2021-01-10T13:16:51.000Z</time>
      </trkpt>
      <trkpt lat="47.35359" lon="-1.40461">
        <ele>121</ele>
        <time>2021-01-10T13:16:53.000Z</time>
      </trkpt>
      <trkpt lat="47.35367" lon="-1.40451">
        <ele>120</ele>
        <time>2021-01-10T13:16:55.000Z</time>
      </trkpt>
      <trkpt lat="47.35376" lon="-1.4044">
        <ele>120</ele>
        <time>2021-01-10T13:16:57.000Z</time>
      </trkpt>
      <trkpt lat="47.35384" lon="-1.4043">
        <ele>120</ele>
        <time>2021-01-10T13:16:59.000Z</time>
      </trkpt>
      <trkpt lat="47.35391" lon="-1.40419">
        <ele>120</ele>
        <time>2021-01-10T13:17:01.000Z</time>
      </trkpt>
      <trkpt lat="47.354" lon="-1.40408">
        <ele>120</ele>
        <time>2021-01-10T13:17:03.000Z</time>
      </trkpt>
      <trkpt lat="47.3541" lon="-1.40398">
        <ele>120</ele>
        <time>2021-01-10T13:17:05.000Z</time>
      </trkpt>
      <trkpt lat="47.3542" lon="-1.40388">
        <ele>119</ele>
        <time>2021-01-10T13:17:07.000Z</time>
      </trkpt>
      <trkpt lat="47.35428" lon="-1.40376">
        <ele>119</ele>
        <time>2021-01-10T13:17:09.000Z</time>
      </trkpt>
      <trkpt lat="47.35437" lon="-1.40365">
        <ele>118</ele>
        <time>2021-01-10T13:17:11.000Z</time>
      </trkpt>
      <trkpt lat="47.35447" lon="-1.40354">
        <ele>117</ele>
        <time>2021-01-10T13:17:13.000Z</time>
      </trkpt>
      <trkpt lat="47.35457" lon="-1.40343">
        <ele>117</ele>
        <time>2021-01-10T13:17:15.000Z</time>
      </trkpt>
      <trkpt lat="47.35466" lon="-1.40331">
        <ele>117</ele>
        <time>2021-01-10T13:17:17.000Z</time>
      </trkpt>
      <trkpt lat="47.35476" lon="-1.4032">
        <ele>118</ele>
        <time>2021-01-10T13:17:19.000Z</time>
      </trkpt>
      <trkpt lat="47.35485" lon="-1.40309">
        <ele>117</ele>
        <time>2021-01-10T13:17:21.000Z</time>
      </trkpt>
      <trkpt lat="47.35495" lon="-1.40298">
        <ele>118</ele>
        <time>2021-01-10T13:17:23.000Z</time>
      </trkpt>
      <trkpt lat="47.35504" lon="-1.40287">
        <ele>118</ele>
        <time>2021-01-10T13:17:25.000Z</time>
      </trkpt>
      <trkpt lat="47.35512" lon="-1.40277">
        <ele>118</ele>
        <time>2021-01-10T13:17:27.000Z</time>
      </trkpt>
      <trkpt lat="47.3552" lon="-1.40268">
        <ele>118</ele>
        <time>2021-01-10T13:17:29.000Z</time>
      </trkpt>
      <trkpt lat="47.35527" lon="-1.4026">
        <ele>118</ele>
        <time>2021-01-10T13:17:31.000Z</time>
      </trkpt>
      <trkpt lat="47.35539" lon="-1.40249">
        <ele>119</ele>
        <time>2021-01-10T13:17:34.000Z</time>
      </trkpt>
      <trkpt lat="47.35546" lon="-1.40238">
        <ele>118</ele>
        <time>2021-01-10T13:17:37.000Z</time>
      </trkpt>
      <trkpt lat="47.35556" lon="-1.40229">
        <ele>119</ele>
        <time>2021-01-10T13:17:41.000Z</time>
      </trkpt>
      <trkpt lat="47.35563" lon="-1.40217">
        <ele>119</ele>
        <time>2021-01-10T13:17:44.000Z</time>
      </trkpt>
      <trkpt lat="47.35573" lon="-1.40208">
        <ele>121</ele>
        <time>2021-01-10T13:17:47.000Z</time>
      </trkpt>
      <trkpt lat="47.35581" lon="-1.40199">
        <ele>121</ele>
        <time>2021-01-10T13:17:49.000Z</time>
      </trkpt>
      <trkpt lat="47.3559" lon="-1.4019">
        <ele>121</ele>
        <time>2021-01-10T13:17:51.000Z</time>
      </trkpt>
      <trkpt lat="47.356" lon="-1.40179">
        <ele>121</ele>
        <time>2021-01-10T13:17:53.000Z</time>
      </trkpt>
      <trkpt lat="47.35608" lon="-1.40168">
        <ele>120</ele>
        <time>2021-01-10T13:17:55.000Z</time>
      </trkpt>
      <trkpt lat="47.35618" lon="-1.40157">
        <ele>120</ele>
        <time>2021-01-10T13:17:57.000Z</time>
      </trkpt>
      <trkpt lat="47.35627" lon="-1.40147">
        <ele>120</ele>
        <time>2021-01-10T13:17:59.000Z</time>
      </trkpt>
      <trkpt lat="47.35636" lon="-1.40136">
        <ele>120</ele>
        <time>2021-01-10T13:18:01.000Z</time>
      </trkpt>
      <trkpt lat="47.35645" lon="-1.40125">
        <ele>121</ele>
        <time>2021-01-10T13:18:03.000Z</time>
      </trkpt>
      <trkpt lat="47.35654" lon="-1.40114">
        <ele>121</ele>
        <time>2021-01-10T13:18:05.000Z</time>
      </trkpt>
      <trkpt lat="47.35663" lon="-1.40104">
        <ele>121</ele>
        <time>2021-01-10T13:18:07.000Z</time>
      </trkpt>
      <trkpt lat="47.35671" lon="-1.40094">
        <ele>121</ele>
        <time>2021-01-10T13:18:09.000Z</time>
      </trkpt>
      <trkpt lat="47.3568" lon="-1.40084">
        <ele>121</ele>
        <time>2021-01-10T13:18:11.000Z</time>
      </trkpt>
      <trkpt lat="47.35688" lon="-1.40073">
        <ele>121</ele>
        <time>2021-01-10T13:18:13.000Z</time>
      </trkpt>
      <trkpt lat="47.35698" lon="-1.40063">
        <ele>121</ele>
        <time>2021-01-10T13:18:15.000Z</time>
      </trkpt>
      <trkpt lat="47.35708" lon="-1.40052">
        <ele>121</ele>
        <time>2021-01-10T13:18:17.000Z</time>
      </trkpt>
      <trkpt lat="47.35718" lon="-1.40041">
        <ele>120</ele>
        <time>2021-01-10T13:18:19.000Z</time>
      </trkpt>
      <trkpt lat="47.35727" lon="-1.40031">
        <ele>120</ele>
        <time>2021-01-10T13:18:21.000Z</time>
      </trkpt>
      <trkpt lat="47.35735" lon="-1.4002">
        <ele>120</ele>
        <time>2021-01-10T13:18:23.000Z</time>
      </trkpt>
      <trkpt lat="47.35744" lon="-1.40009">
        <ele>121</ele>
        <time>2021-01-10T13:18:25.000Z</time>
      </trkpt>
      <trkpt lat="47.35752" lon="-1.39998">
        <ele>121</ele>
        <time>2021-01-10T13:18:27.000Z</time>
      </trkpt>
      <trkpt lat="47.35761" lon="-1.39987">
        <ele>122</ele>
        <time>2021-01-10T13:18:29.000Z</time>
      </trkpt>
      <trkpt lat="47.3577" lon="-1.39978">
        <ele>122</ele>
        <time>2021-01-10T13:18:31.000Z</time>
      </trkpt>
      <trkpt lat="47.3578" lon="-1.39968">
        <ele>122</ele>
        <time>2021-01-10T13:18:33.000Z</time>
      </trkpt>
      <trkpt lat="47.35789" lon="-1.39957">
        <ele>122</ele>
        <time>2021-01-10T13:18:35.000Z</time>
      </trkpt>
      <trkpt lat="47.35798" lon="-1.39946">
        <ele>122</ele>
        <time>2021-01-10T13:18:37.000Z</time>
      </trkpt>
      <trkpt lat="47.35806" lon="-1.39935">
        <ele>122</ele>
        <time>2021-01-10T13:18:39.000Z</time>
      </trkpt>
      <trkpt lat="47.35815" lon="-1.39925">
        <ele>121</ele>
        <time>2021-01-10T13:18:41.000Z</time>
      </trkpt>
      <trkpt lat="47.35824" lon="-1.39914">
        <ele>121</ele>
        <time>2021-01-10T13:18:43.000Z</time>
      </trkpt>
      <trkpt lat="47.35833" lon="-1.39904">
        <ele>121</ele>
        <time>2021-01-10T13:18:45.000Z</time>
      </trkpt>
      <trkpt lat="47.35843" lon="-1.39893">
        <ele>121</ele>
        <time>2021-01-10T13:18:47.000Z</time>
      </trkpt>
      <trkpt lat="47.35852" lon="-1.39882">
        <ele>120</ele>
        <time>2021-01-10T13:18:49.000Z</time>
      </trkpt>
      <trkpt lat="47.35861" lon="-1.39871">
        <ele>120</ele>
        <time>2021-01-10T13:18:51.000Z</time>
      </trkpt>
      <trkpt lat="47.35871" lon="-1.3986">
        <ele>120</ele>
        <time>2021-01-10T13:18:53.000Z</time>
      </trkpt>
      <trkpt lat="47.35881" lon="-1.39849">
        <ele>121</ele>
        <time>2021-01-10T13:18:55.000Z</time>
      </trkpt>
      <trkpt lat="47.3589" lon="-1.39837">
        <ele>120</ele>
        <time>2021-01-10T13:18:57.000Z</time>
      </trkpt>
      <trkpt lat="47.35898" lon="-1.39825">
        <ele>119</ele>
        <time>2021-01-10T13:18:59.000Z</time>
      </trkpt>
      <trkpt lat="47.35907" lon="-1.39815">
        <ele>119</ele>
        <time>2021-01-10T13:19:01.000Z</time>
      </trkpt>
      <trkpt lat="47.35916" lon="-1.39804">
        <ele>119</ele>
        <time>2021-01-10T13:19:03.000Z</time>
      </trkpt>
      <trkpt lat="47.35925" lon="-1.39793">
        <ele>119</ele>
        <time>2021-01-10T13:19:05.000Z</time>
      </trkpt>
      <trkpt lat="47.35934" lon="-1.39782">
        <ele>118</ele>
        <time>2021-01-10T13:19:07.000Z</time>
      </trkpt>
      <trkpt lat="47.35944" lon="-1.3977">
        <ele>118</ele>
        <time>2021-01-10T13:19:09.000Z</time>
      </trkpt>
      <trkpt lat="47.35954" lon="-1.39758">
        <ele>118</ele>
        <time>2021-01-10T13:19:11.000Z</time>
      </trkpt>
      <trkpt lat="47.35964" lon="-1.39747">
        <ele>118</ele>
        <time>2021-01-10T13:19:13.000Z</time>
      </trkpt>
      <trkpt lat="47.35974" lon="-1.39736">
        <ele>117</ele>
        <time>2021-01-10T13:19:15.000Z</time>
      </trkpt>
      <trkpt lat="47.35984" lon="-1.39724">
        <ele>116</ele>
        <time>2021-01-10T13:19:17.000Z</time>
      </trkpt>
      <trkpt lat="47.35993" lon="-1.39713">
        <ele>116</ele>
        <time>2021-01-10T13:19:19.000Z</time>
      </trkpt>
      <trkpt lat="47.36003" lon="-1.397">
        <ele>116</ele>
        <time>2021-01-10T13:19:21.000Z</time>
      </trkpt>
      <trkpt lat="47.36015" lon="-1.3969">
        <ele>115</ele>
        <time>2021-01-10T13:19:23.000Z</time>
      </trkpt>
      <trkpt lat="47.36026" lon="-1.39677">
        <ele>116</ele>
        <time>2021-01-10T13:19:25.000Z</time>
      </trkpt>
      <trkpt lat="47.36035" lon="-1.39666">
        <ele>116</ele>
        <time>2021-01-10T13:19:27.000Z</time>
      </trkpt>
      <trkpt lat="47.36041" lon="-1.39656">
        <ele>117</ele>
        <time>2021-01-10T13:19:29.000Z</time>
      </trkpt>
      <trkpt lat="47.36049" lon="-1.39649">
        <ele>117</ele>
        <time>2021-01-10T13:19:31.000Z</time>
      </trkpt>
      <trkpt lat="47.36058" lon="-1.39638">
        <ele>117</ele>
        <time>2021-01-10T13:19:34.000Z</time>
      </trkpt>
      <trkpt lat="47.36068" lon="-1.39628">
        <ele>117</ele>
        <time>2021-01-10T13:19:37.000Z</time>
      </trkpt>
      <trkpt lat="47.36078" lon="-1.39617">
        <ele>117</ele>
        <time>2021-01-10T13:19:39.000Z</time>
      </trkpt>
      <trkpt lat="47.36088" lon="-1.39606">
        <ele>118</ele>
        <time>2021-01-10T13:19:41.000Z</time>
      </trkpt>
      <trkpt lat="47.36098" lon="-1.39595">
        <ele>118</ele>
        <time>2021-01-10T13:19:43.000Z</time>
      </trkpt>
      <trkpt lat="47.36109" lon="-1.39583">
        <ele>118</ele>
        <time>2021-01-10T13:19:45.000Z</time>
      </trkpt>
      <trkpt lat="47.3612" lon="-1.39571">
        <ele>118</ele>
        <time>2021-01-10T13:19:47.000Z</time>
      </trkpt>
      <trkpt lat="47.36131" lon="-1.39559">
        <ele>118</ele>
        <time>2021-01-10T13:19:49.000Z</time>
      </trkpt>
      <trkpt lat="47.3614" lon="-1.39548">
        <ele>117</ele>
        <time>2021-01-10T13:19:51.000Z</time>
      </trkpt>
      <trkpt lat="47.3615" lon="-1.39536">
        <ele>118</ele>
        <time>2021-01-10T13:19:53.000Z</time>
      </trkpt>
      <trkpt lat="47.36161" lon="-1.39524">
        <ele>118</ele>
        <time>2021-01-10T13:19:55.000Z</time>
      </trkpt>
      <trkpt lat="47.36171" lon="-1.39512">
        <ele>118</ele>
        <time>2021-01-10T13:19:57.000Z</time>
      </trkpt>
      <trkpt lat="47.36181" lon="-1.39501">
        <ele>118</ele>
        <time>2021-01-10T13:19:59.000Z</time>
      </trkpt>
      <trkpt lat="47.36191" lon="-1.39489">
        <ele>118</ele>
        <time>2021-01-10T13:20:01.000Z</time>
      </trkpt>
      <trkpt lat="47.36202" lon="-1.39476">
        <ele>117</ele>
        <time>2021-01-10T13:20:03.000Z</time>
      </trkpt>
      <trkpt lat="47.36212" lon="-1.39464">
        <ele>117</ele>
        <time>2021-01-10T13:20:05.000Z</time>
      </trkpt>
      <trkpt lat="47.36222" lon="-1.39453">
        <ele>117</ele>
        <time>2021-01-10T13:20:07.000Z</time>
      </trkpt>
      <trkpt lat="47.36232" lon="-1.39441">
        <ele>116</ele>
        <time>2021-01-10T13:20:09.000Z</time>
      </trkpt>
      <trkpt lat="47.36242" lon="-1.3943">
        <ele>116</ele>
        <time>2021-01-10T13:20:11.000Z</time>
      </trkpt>
      <trkpt lat="47.36252" lon="-1.39418">
        <ele>116</ele>
        <time>2021-01-10T13:20:13.000Z</time>
      </trkpt>
      <trkpt lat="47.36262" lon="-1.39406">
        <ele>115</ele>
        <time>2021-01-10T13:20:15.000Z</time>
      </trkpt>
      <trkpt lat="47.36271" lon="-1.39395">
        <ele>116</ele>
        <time>2021-01-10T13:20:17.000Z</time>
      </trkpt>
      <trkpt lat="47.3628" lon="-1.39384">
        <ele>116</ele>
        <time>2021-01-10T13:20:19.000Z</time>
      </trkpt>
      <trkpt lat="47.36289" lon="-1.39373">
        <ele>116</ele>
        <time>2021-01-10T13:20:21.000Z</time>
      </trkpt>
      <trkpt lat="47.36297" lon="-1.39363">
        <ele>116</ele>
        <time>2021-01-10T13:20:23.000Z</time>
      </trkpt>
      <trkpt lat="47.36304" lon="-1.39353">
        <ele>116</ele>
        <time>2021-01-10T13:20:25.000Z</time>
      </trkpt>
      <trkpt lat="47.36311" lon="-1.39343">
        <ele>116</ele>
        <time>2021-01-10T13:20:28.000Z</time>
      </trkpt>
      <trkpt lat="47.36319" lon="-1.39334">
        <ele>116</ele>
        <time>2021-01-10T13:20:31.000Z</time>
      </trkpt>
      <trkpt lat="47.3633" lon="-1.39323">
        <ele>116</ele>
        <time>2021-01-10T13:20:34.000Z</time>
      </trkpt>
      <trkpt lat="47.36339" lon="-1.39313">
        <ele>116</ele>
        <time>2021-01-10T13:20:36.000Z</time>
      </trkpt>
      <trkpt lat="47.36349" lon="-1.39301">
        <ele>116</ele>
        <time>2021-01-10T13:20:38.000Z</time>
      </trkpt>
      <trkpt lat="47.36358" lon="-1.3929">
        <ele>116</ele>
        <time>2021-01-10T13:20:40.000Z</time>
      </trkpt>
      <trkpt lat="47.36368" lon="-1.39279">
        <ele>116</ele>
        <time>2021-01-10T13:20:42.000Z</time>
      </trkpt>
      <trkpt lat="47.36378" lon="-1.39268">
        <ele>116</ele>
        <time>2021-01-10T13:20:44.000Z</time>
      </trkpt>
      <trkpt lat="47.36388" lon="-1.39256">
        <ele>116</ele>
        <time>2021-01-10T13:20:46.000Z</time>
      </trkpt>
      <trkpt lat="47.36398" lon="-1.39245">
        <ele>115</ele>
        <time>2021-01-10T13:20:48.000Z</time>
      </trkpt>
      <trkpt lat="47.36408" lon="-1.39234">
        <ele>115</ele>
        <time>2021-01-10T13:20:50.000Z</time>
      </trkpt>
      <trkpt lat="47.36417" lon="-1.39223">
        <ele>115</ele>
        <time>2021-01-10T13:20:52.000Z</time>
      </trkpt>
      <trkpt lat="47.36425" lon="-1.39212">
        <ele>115</ele>
        <time>2021-01-10T13:20:54.000Z</time>
      </trkpt>
      <trkpt lat="47.36435" lon="-1.39201">
        <ele>115</ele>
        <time>2021-01-10T13:20:56.000Z</time>
      </trkpt>
      <trkpt lat="47.36445" lon="-1.39191">
        <ele>114</ele>
        <time>2021-01-10T13:20:58.000Z</time>
      </trkpt>
      <trkpt lat="47.36455" lon="-1.3918">
        <ele>114</ele>
        <time>2021-01-10T13:21:00.000Z</time>
      </trkpt>
      <trkpt lat="47.36464" lon="-1.3917">
        <ele>114</ele>
        <time>2021-01-10T13:21:02.000Z</time>
      </trkpt>
      <trkpt lat="47.36473" lon="-1.39159">
        <ele>115</ele>
        <time>2021-01-10T13:21:04.000Z</time>
      </trkpt>
      <trkpt lat="47.36483" lon="-1.39148">
        <ele>115</ele>
        <time>2021-01-10T13:21:06.000Z</time>
      </trkpt>
      <trkpt lat="47.36493" lon="-1.39136">
        <ele>115</ele>
        <time>2021-01-10T13:21:08.000Z</time>
      </trkpt>
      <trkpt lat="47.36503" lon="-1.39125">
        <ele>114</ele>
        <time>2021-01-10T13:21:10.000Z</time>
      </trkpt>
      <trkpt lat="47.36512" lon="-1.39115">
        <ele>115</ele>
        <time>2021-01-10T13:21:12.000Z</time>
      </trkpt>
      <trkpt lat="47.36522" lon="-1.39104">
        <ele>114</ele>
        <time>2021-01-10T13:21:14.000Z</time>
      </trkpt>
      <trkpt lat="47.36531" lon="-1.39092">
        <ele>115</ele>
        <time>2021-01-10T13:21:16.000Z</time>
      </trkpt>
      <trkpt lat="47.3654" lon="-1.39081">
        <ele>115</ele>
        <time>2021-01-10T13:21:18.000Z</time>
      </trkpt>
      <trkpt lat="47.36548" lon="-1.3907">
        <ele>114</ele>
        <time>2021-01-10T13:21:20.000Z</time>
      </trkpt>
      <trkpt lat="47.36557" lon="-1.39059">
        <ele>114</ele>
        <time>2021-01-10T13:21:22.000Z</time>
      </trkpt>
      <trkpt lat="47.36566" lon="-1.39048">
        <ele>114</ele>
        <time>2021-01-10T13:21:24.000Z</time>
      </trkpt>
      <trkpt lat="47.36575" lon="-1.39036">
        <ele>114</ele>
        <time>2021-01-10T13:21:26.000Z</time>
      </trkpt>
      <trkpt lat="47.36585" lon="-1.39025">
        <ele>116</ele>
        <time>2021-01-10T13:21:28.000Z</time>
      </trkpt>
      <trkpt lat="47.36593" lon="-1.39014">
        <ele>115</ele>
        <time>2021-01-10T13:21:30.000Z</time>
      </trkpt>
      <trkpt lat="47.366" lon="-1.39005">
        <ele>115</ele>
        <time>2021-01-10T13:21:32.000Z</time>
      </trkpt>
      <trkpt lat="47.36608" lon="-1.38994">
        <ele>114</ele>
        <time>2021-01-10T13:21:35.000Z</time>
      </trkpt>
      <trkpt lat="47.36617" lon="-1.38987">
        <ele>115</ele>
        <time>2021-01-10T13:21:39.000Z</time>
      </trkpt>
      <trkpt lat="47.36627" lon="-1.3898">
        <ele>114</ele>
        <time>2021-01-10T13:21:42.000Z</time>
      </trkpt>
      <trkpt lat="47.36635" lon="-1.38973">
        <ele>115</ele>
        <time>2021-01-10T13:21:44.000Z</time>
      </trkpt>
      <trkpt lat="47.36645" lon="-1.38961">
        <ele>114</ele>
        <time>2021-01-10T13:21:47.000Z</time>
      </trkpt>
      <trkpt lat="47.36655" lon="-1.38951">
        <ele>115</ele>
        <time>2021-01-10T13:21:49.000Z</time>
      </trkpt>
      <trkpt lat="47.36664" lon="-1.38939">
        <ele>115</ele>
        <time>2021-01-10T13:21:51.000Z</time>
      </trkpt>
      <trkpt lat="47.36675" lon="-1.38927">
        <ele>115</ele>
        <time>2021-01-10T13:21:53.000Z</time>
      </trkpt>
      <trkpt lat="47.36686" lon="-1.38914">
        <ele>115</ele>
        <time>2021-01-10T13:21:55.000Z</time>
      </trkpt>
      <trkpt lat="47.36699" lon="-1.38901">
        <ele>115</ele>
        <time>2021-01-10T13:21:57.000Z</time>
      </trkpt>
      <trkpt lat="47.3671" lon="-1.38887">
        <ele>114</ele>
        <time>2021-01-10T13:21:59.000Z</time>
      </trkpt>
      <trkpt lat="47.36723" lon="-1.38875">
        <ele>114</ele>
        <time>2021-01-10T13:22:01.000Z</time>
      </trkpt>
      <trkpt lat="47.36735" lon="-1.38862">
        <ele>114</ele>
        <time>2021-01-10T13:22:03.000Z</time>
      </trkpt>
      <trkpt lat="47.36747" lon="-1.3885">
        <ele>114</ele>
        <time>2021-01-10T13:22:05.000Z</time>
      </trkpt>
      <trkpt lat="47.36759" lon="-1.38839">
        <ele>114</ele>
        <time>2021-01-10T13:22:07.000Z</time>
      </trkpt>
      <trkpt lat="47.36771" lon="-1.38826">
        <ele>113</ele>
        <time>2021-01-10T13:22:09.000Z</time>
      </trkpt>
      <trkpt lat="47.36783" lon="-1.38814">
        <ele>114</ele>
        <time>2021-01-10T13:22:11.000Z</time>
      </trkpt>
      <trkpt lat="47.36796" lon="-1.38803">
        <ele>114</ele>
        <time>2021-01-10T13:22:13.000Z</time>
      </trkpt>
      <trkpt lat="47.36808" lon="-1.38792">
        <ele>113</ele>
        <time>2021-01-10T13:22:15.000Z</time>
      </trkpt>
      <trkpt lat="47.3682" lon="-1.38781">
        <ele>113</ele>
        <time>2021-01-10T13:22:17.000Z</time>
      </trkpt>
      <trkpt lat="47.36833" lon="-1.3877">
        <ele>113</ele>
        <time>2021-01-10T13:22:19.000Z</time>
      </trkpt>
      <trkpt lat="47.36845" lon="-1.3876">
        <ele>113</ele>
        <time>2021-01-10T13:22:21.000Z</time>
      </trkpt>
      <trkpt lat="47.36858" lon="-1.3875">
        <ele>113</ele>
        <time>2021-01-10T13:22:23.000Z</time>
      </trkpt>
      <trkpt lat="47.36871" lon="-1.38739">
        <ele>113</ele>
        <time>2021-01-10T13:22:25.000Z</time>
      </trkpt>
      <trkpt lat="47.36884" lon="-1.38729">
        <ele>113</ele>
        <time>2021-01-10T13:22:27.000Z</time>
      </trkpt>
      <trkpt lat="47.36896" lon="-1.38719">
        <ele>113</ele>
        <time>2021-01-10T13:22:29.000Z</time>
      </trkpt>
      <trkpt lat="47.36909" lon="-1.38709">
        <ele>112</ele>
        <time>2021-01-10T13:22:31.000Z</time>
      </trkpt>
      <trkpt lat="47.36921" lon="-1.38699">
        <ele>112</ele>
        <time>2021-01-10T13:22:33.000Z</time>
      </trkpt>
      <trkpt lat="47.36934" lon="-1.3869">
        <ele>112</ele>
        <time>2021-01-10T13:22:35.000Z</time>
      </trkpt>
      <trkpt lat="47.36946" lon="-1.3868">
        <ele>112</ele>
        <time>2021-01-10T13:22:37.000Z</time>
      </trkpt>
      <trkpt lat="47.36959" lon="-1.38673">
        <ele>112</ele>
        <time>2021-01-10T13:22:39.000Z</time>
      </trkpt>
      <trkpt lat="47.36972" lon="-1.38664">
        <ele>112</ele>
        <time>2021-01-10T13:22:41.000Z</time>
      </trkpt>
      <trkpt lat="47.36984" lon="-1.38655">
        <ele>112</ele>
        <time>2021-01-10T13:22:43.000Z</time>
      </trkpt>
      <trkpt lat="47.36997" lon="-1.38647">
        <ele>112</ele>
        <time>2021-01-10T13:22:45.000Z</time>
      </trkpt>
      <trkpt lat="47.3701" lon="-1.38638">
        <ele>112</ele>
        <time>2021-01-10T13:22:47.000Z</time>
      </trkpt>
      <trkpt lat="47.37022" lon="-1.38628">
        <ele>112</ele>
        <time>2021-01-10T13:22:49.000Z</time>
      </trkpt>
      <trkpt lat="47.37034" lon="-1.3862">
        <ele>112</ele>
        <time>2021-01-10T13:22:51.000Z</time>
      </trkpt>
      <trkpt lat="47.37047" lon="-1.38612">
        <ele>113</ele>
        <time>2021-01-10T13:22:53.000Z</time>
      </trkpt>
      <trkpt lat="47.3706" lon="-1.38603">
        <ele>113</ele>
        <time>2021-01-10T13:22:55.000Z</time>
      </trkpt>
      <trkpt lat="47.37073" lon="-1.38595">
        <ele>114</ele>
        <time>2021-01-10T13:22:57.000Z</time>
      </trkpt>
      <trkpt lat="47.37084" lon="-1.38587">
        <ele>113</ele>
        <time>2021-01-10T13:22:59.000Z</time>
      </trkpt>
      <trkpt lat="47.37095" lon="-1.38581">
        <ele>113</ele>
        <time>2021-01-10T13:23:01.000Z</time>
      </trkpt>
      <trkpt lat="47.37107" lon="-1.38575">
        <ele>113</ele>
        <time>2021-01-10T13:23:03.000Z</time>
      </trkpt>
      <trkpt lat="47.37119" lon="-1.38569">
        <ele>113</ele>
        <time>2021-01-10T13:23:05.000Z</time>
      </trkpt>
      <trkpt lat="47.3713" lon="-1.38564">
        <ele>113</ele>
        <time>2021-01-10T13:23:07.000Z</time>
      </trkpt>
      <trkpt lat="47.3714" lon="-1.38558">
        <ele>113</ele>
        <time>2021-01-10T13:23:09.000Z</time>
      </trkpt>
      <trkpt lat="47.3715" lon="-1.38552">
        <ele>112</ele>
        <time>2021-01-10T13:23:11.000Z</time>
      </trkpt>
      <trkpt lat="47.37159" lon="-1.38546">
        <ele>113</ele>
        <time>2021-01-10T13:23:13.000Z</time>
      </trkpt>
      <trkpt lat="47.3717" lon="-1.38538">
        <ele>112</ele>
        <time>2021-01-10T13:23:16.000Z</time>
      </trkpt>
      <trkpt lat="47.37179" lon="-1.3853">
        <ele>112</ele>
        <time>2021-01-10T13:23:19.000Z</time>
      </trkpt>
      <trkpt lat="47.37177" lon="-1.38511">
        <ele>111</ele>
        <time>2021-01-10T13:23:23.000Z</time>
      </trkpt>
      <trkpt lat="47.37171" lon="-1.38494">
        <ele>111</ele>
        <time>2021-01-10T13:23:25.000Z</time>
      </trkpt>
      <trkpt lat="47.37165" lon="-1.38477">
        <ele>111</ele>
        <time>2021-01-10T13:23:27.000Z</time>
      </trkpt>
      <trkpt lat="47.37159" lon="-1.3846">
        <ele>110</ele>
        <time>2021-01-10T13:23:29.000Z</time>
      </trkpt>
      <trkpt lat="47.37153" lon="-1.38441">
        <ele>111</ele>
        <time>2021-01-10T13:23:31.000Z</time>
      </trkpt>
      <trkpt lat="47.37147" lon="-1.38424">
        <ele>111</ele>
        <time>2021-01-10T13:23:33.000Z</time>
      </trkpt>
      <trkpt lat="47.37142" lon="-1.38407">
        <ele>110</ele>
        <time>2021-01-10T13:23:35.000Z</time>
      </trkpt>
      <trkpt lat="47.37139" lon="-1.38388">
        <ele>110</ele>
        <time>2021-01-10T13:23:37.000Z</time>
      </trkpt>
      <trkpt lat="47.37138" lon="-1.38369">
        <ele>111</ele>
        <time>2021-01-10T13:23:39.000Z</time>
      </trkpt>
      <trkpt lat="47.37139" lon="-1.38351">
        <ele>111</ele>
        <time>2021-01-10T13:23:41.000Z</time>
      </trkpt>
      <trkpt lat="47.37141" lon="-1.38332">
        <ele>110</ele>
        <time>2021-01-10T13:23:43.000Z</time>
      </trkpt>
      <trkpt lat="47.37144" lon="-1.38313">
        <ele>110</ele>
        <time>2021-01-10T13:23:45.000Z</time>
      </trkpt>
      <trkpt lat="47.37147" lon="-1.38293">
        <ele>109</ele>
        <time>2021-01-10T13:23:47.000Z</time>
      </trkpt>
      <trkpt lat="47.37152" lon="-1.38274">
        <ele>109</ele>
        <time>2021-01-10T13:23:49.000Z</time>
      </trkpt>
      <trkpt lat="47.37156" lon="-1.38257">
        <ele>108</ele>
        <time>2021-01-10T13:23:51.000Z</time>
      </trkpt>
      <trkpt lat="47.37161" lon="-1.38239">
        <ele>107</ele>
        <time>2021-01-10T13:23:53.000Z</time>
      </trkpt>
      <trkpt lat="47.37166" lon="-1.38219">
        <ele>107</ele>
        <time>2021-01-10T13:23:55.000Z</time>
      </trkpt>
      <trkpt lat="47.3717" lon="-1.38201">
        <ele>107</ele>
        <time>2021-01-10T13:23:57.000Z</time>
      </trkpt>
      <trkpt lat="47.37175" lon="-1.38183">
        <ele>107</ele>
        <time>2021-01-10T13:23:59.000Z</time>
      </trkpt>
      <trkpt lat="47.3718" lon="-1.38164">
        <ele>107</ele>
        <time>2021-01-10T13:24:01.000Z</time>
      </trkpt>
      <trkpt lat="47.37185" lon="-1.38145">
        <ele>107</ele>
        <time>2021-01-10T13:24:03.000Z</time>
      </trkpt>
      <trkpt lat="47.3719" lon="-1.38125">
        <ele>107</ele>
        <time>2021-01-10T13:24:05.000Z</time>
      </trkpt>
      <trkpt lat="47.37195" lon="-1.38107">
        <ele>107</ele>
        <time>2021-01-10T13:24:07.000Z</time>
      </trkpt>
      <trkpt lat="47.37199" lon="-1.38088">
        <ele>108</ele>
        <time>2021-01-10T13:24:09.000Z</time>
      </trkpt>
      <trkpt lat="47.37203" lon="-1.3807">
        <ele>108</ele>
        <time>2021-01-10T13:24:11.000Z</time>
      </trkpt>
      <trkpt lat="47.37208" lon="-1.38051">
        <ele>108</ele>
        <time>2021-01-10T13:24:13.000Z</time>
      </trkpt>
      <trkpt lat="47.37212" lon="-1.38033">
        <ele>108</ele>
        <time>2021-01-10T13:24:15.000Z</time>
      </trkpt>
      <trkpt lat="47.37216" lon="-1.38015">
        <ele>108</ele>
        <time>2021-01-10T13:24:17.000Z</time>
      </trkpt>
      <trkpt lat="47.37221" lon="-1.37998">
        <ele>108</ele>
        <time>2021-01-10T13:24:19.000Z</time>
      </trkpt>
      <trkpt lat="47.37225" lon="-1.3798">
        <ele>108</ele>
        <time>2021-01-10T13:24:21.000Z</time>
      </trkpt>
      <trkpt lat="47.37229" lon="-1.37961">
        <ele>108</ele>
        <time>2021-01-10T13:24:23.000Z</time>
      </trkpt>
      <trkpt lat="47.37233" lon="-1.37943">
        <ele>108</ele>
        <time>2021-01-10T13:24:25.000Z</time>
      </trkpt>
      <trkpt lat="47.37237" lon="-1.37923">
        <ele>108</ele>
        <time>2021-01-10T13:24:27.000Z</time>
      </trkpt>
      <trkpt lat="47.3724" lon="-1.37903">
        <ele>108</ele>
        <time>2021-01-10T13:24:29.000Z</time>
      </trkpt>
      <trkpt lat="47.37243" lon="-1.37884">
        <ele>108</ele>
        <time>2021-01-10T13:24:31.000Z</time>
      </trkpt>
      <trkpt lat="47.37246" lon="-1.37864">
        <ele>108</ele>
        <time>2021-01-10T13:24:33.000Z</time>
      </trkpt>
      <trkpt lat="47.3725" lon="-1.37845">
        <ele>108</ele>
        <time>2021-01-10T13:24:35.000Z</time>
      </trkpt>
      <trkpt lat="47.37254" lon="-1.37826">
        <ele>108</ele>
        <time>2021-01-10T13:24:37.000Z</time>
      </trkpt>
      <trkpt lat="47.37257" lon="-1.37807">
        <ele>108</ele>
        <time>2021-01-10T13:24:39.000Z</time>
      </trkpt>
      <trkpt lat="47.3726" lon="-1.37789">
        <ele>107</ele>
        <time>2021-01-10T13:24:41.000Z</time>
      </trkpt>
      <trkpt lat="47.37263" lon="-1.3777">
        <ele>107</ele>
        <time>2021-01-10T13:24:43.000Z</time>
      </trkpt>
      <trkpt lat="47.37267" lon="-1.37751">
        <ele>107</ele>
        <time>2021-01-10T13:24:45.000Z</time>
      </trkpt>
      <trkpt lat="47.37271" lon="-1.37733">
        <ele>107</ele>
        <time>2021-01-10T13:24:47.000Z</time>
      </trkpt>
      <trkpt lat="47.37274" lon="-1.37714">
        <ele>106</ele>
        <time>2021-01-10T13:24:49.000Z</time>
      </trkpt>
      <trkpt lat="47.37277" lon="-1.37696">
        <ele>105</ele>
        <time>2021-01-10T13:24:51.000Z</time>
      </trkpt>
      <trkpt lat="47.3728" lon="-1.37677">
        <ele>105</ele>
        <time>2021-01-10T13:24:53.000Z</time>
      </trkpt>
      <trkpt lat="47.37284" lon="-1.37658">
        <ele>105</ele>
        <time>2021-01-10T13:24:55.000Z</time>
      </trkpt>
      <trkpt lat="47.37287" lon="-1.37639">
        <ele>105</ele>
        <time>2021-01-10T13:24:57.000Z</time>
      </trkpt>
      <trkpt lat="47.3729" lon="-1.37621">
        <ele>105</ele>
        <time>2021-01-10T13:24:59.000Z</time>
      </trkpt>
      <trkpt lat="47.37293" lon="-1.37602">
        <ele>105</ele>
        <time>2021-01-10T13:25:01.000Z</time>
      </trkpt>
      <trkpt lat="47.37296" lon="-1.37582">
        <ele>105</ele>
        <time>2021-01-10T13:25:03.000Z</time>
      </trkpt>
      <trkpt lat="47.373" lon="-1.37563">
        <ele>104</ele>
        <time>2021-01-10T13:25:05.000Z</time>
      </trkpt>
      <trkpt lat="47.37302" lon="-1.37543">
        <ele>105</ele>
        <time>2021-01-10T13:25:07.000Z</time>
      </trkpt>
      <trkpt lat="47.37303" lon="-1.37525">
        <ele>104</ele>
        <time>2021-01-10T13:25:09.000Z</time>
      </trkpt>
      <trkpt lat="47.37305" lon="-1.37506">
        <ele>104</ele>
        <time>2021-01-10T13:25:11.000Z</time>
      </trkpt>
      <trkpt lat="47.37307" lon="-1.37487">
        <ele>104</ele>
        <time>2021-01-10T13:25:13.000Z</time>
      </trkpt>
      <trkpt lat="47.37309" lon="-1.37468">
        <ele>103</ele>
        <time>2021-01-10T13:25:15.000Z</time>
      </trkpt>
      <trkpt lat="47.37311" lon="-1.37448">
        <ele>103</ele>
        <time>2021-01-10T13:25:17.000Z</time>
      </trkpt>
      <trkpt lat="47.37312" lon="-1.37427">
        <ele>103</ele>
        <time>2021-01-10T13:25:19.000Z</time>
      </trkpt>
      <trkpt lat="47.37314" lon="-1.37407">
        <ele>102</ele>
        <time>2021-01-10T13:25:21.000Z</time>
      </trkpt>
      <trkpt lat="47.37316" lon="-1.37387">
        <ele>102</ele>
        <time>2021-01-10T13:25:23.000Z</time>
      </trkpt>
      <trkpt lat="47.37318" lon="-1.37367">
        <ele>102</ele>
        <time>2021-01-10T13:25:25.000Z</time>
      </trkpt>
      <trkpt lat="47.3732" lon="-1.37347">
        <ele>102</ele>
        <time>2021-01-10T13:25:27.000Z</time>
      </trkpt>
      <trkpt lat="47.37323" lon="-1.37326">
        <ele>101</ele>
        <time>2021-01-10T13:25:29.000Z</time>
      </trkpt>
      <trkpt lat="47.37327" lon="-1.37306">
        <ele>101</ele>
        <time>2021-01-10T13:25:31.000Z</time>
      </trkpt>
      <trkpt lat="47.37331" lon="-1.37286">
        <ele>100</ele>
        <time>2021-01-10T13:25:33.000Z</time>
      </trkpt>
      <trkpt lat="47.37338" lon="-1.37267">
        <ele>100</ele>
        <time>2021-01-10T13:25:35.000Z</time>
      </trkpt>
      <trkpt lat="47.37345" lon="-1.37249">
        <ele>99</ele>
        <time>2021-01-10T13:25:37.000Z</time>
      </trkpt>
      <trkpt lat="47.37353" lon="-1.37233">
        <ele>99</ele>
        <time>2021-01-10T13:25:39.000Z</time>
      </trkpt>
      <trkpt lat="47.37362" lon="-1.37216">
        <ele>98</ele>
        <time>2021-01-10T13:25:41.000Z</time>
      </trkpt>
      <trkpt lat="47.37371" lon="-1.372">
        <ele>98</ele>
        <time>2021-01-10T13:25:43.000Z</time>
      </trkpt>
      <trkpt lat="47.37379" lon="-1.37184">
        <ele>98</ele>
        <time>2021-01-10T13:25:45.000Z</time>
      </trkpt>
      <trkpt lat="47.37388" lon="-1.37167">
        <ele>97</ele>
        <time>2021-01-10T13:25:47.000Z</time>
      </trkpt>
      <trkpt lat="47.37394" lon="-1.37149">
        <ele>97</ele>
        <time>2021-01-10T13:25:49.000Z</time>
      </trkpt>
      <trkpt lat="47.37397" lon="-1.3713">
        <ele>97</ele>
        <time>2021-01-10T13:25:51.000Z</time>
      </trkpt>
      <trkpt lat="47.37398" lon="-1.37111">
        <ele>97</ele>
        <time>2021-01-10T13:25:53.000Z</time>
      </trkpt>
      <trkpt lat="47.37397" lon="-1.37092">
        <ele>98</ele>
        <time>2021-01-10T13:25:55.000Z</time>
      </trkpt>
      <trkpt lat="47.37395" lon="-1.37075">
        <ele>98</ele>
        <time>2021-01-10T13:25:57.000Z</time>
      </trkpt>
      <trkpt lat="47.37394" lon="-1.37058">
        <ele>98</ele>
        <time>2021-01-10T13:25:59.000Z</time>
      </trkpt>
      <trkpt lat="47.37393" lon="-1.37041">
        <ele>98</ele>
        <time>2021-01-10T13:26:01.000Z</time>
      </trkpt>
      <trkpt lat="47.37392" lon="-1.37025">
        <ele>99</ele>
        <time>2021-01-10T13:26:03.000Z</time>
      </trkpt>
      <trkpt lat="47.3739" lon="-1.3701">
        <ele>99</ele>
        <time>2021-01-10T13:26:05.000Z</time>
      </trkpt>
      <trkpt lat="47.37389" lon="-1.36995">
        <ele>99</ele>
        <time>2021-01-10T13:26:07.000Z</time>
      </trkpt>
      <trkpt lat="47.37389" lon="-1.36979">
        <ele>99</ele>
        <time>2021-01-10T13:26:09.000Z</time>
      </trkpt>
      <trkpt lat="47.37388" lon="-1.36963">
        <ele>99</ele>
        <time>2021-01-10T13:26:11.000Z</time>
      </trkpt>
      <trkpt lat="47.37387" lon="-1.36947">
        <ele>99</ele>
        <time>2021-01-10T13:26:13.000Z</time>
      </trkpt>
      <trkpt lat="47.37388" lon="-1.36931">
        <ele>99</ele>
        <time>2021-01-10T13:26:15.000Z</time>
      </trkpt>
      <trkpt lat="47.3739" lon="-1.36915">
        <ele>100</ele>
        <time>2021-01-10T13:26:17.000Z</time>
      </trkpt>
      <trkpt lat="47.37394" lon="-1.36898">
        <ele>101</ele>
        <time>2021-01-10T13:26:19.000Z</time>
      </trkpt>
      <trkpt lat="47.37399" lon="-1.36882">
        <ele>102</ele>
        <time>2021-01-10T13:26:21.000Z</time>
      </trkpt>
      <trkpt lat="47.37401" lon="-1.36865">
        <ele>103</ele>
        <time>2021-01-10T13:26:23.000Z</time>
      </trkpt>
      <trkpt lat="47.37401" lon="-1.36848">
        <ele>104</ele>
        <time>2021-01-10T13:26:25.000Z</time>
      </trkpt>
      <trkpt lat="47.37399" lon="-1.36831">
        <ele>104</ele>
        <time>2021-01-10T13:26:27.000Z</time>
      </trkpt>
      <trkpt lat="47.37397" lon="-1.36815">
        <ele>105</ele>
        <time>2021-01-10T13:26:29.000Z</time>
      </trkpt>
      <trkpt lat="47.37395" lon="-1.36797">
        <ele>105</ele>
        <time>2021-01-10T13:26:31.000Z</time>
      </trkpt>
      <trkpt lat="47.37394" lon="-1.36779">
        <ele>106</ele>
        <time>2021-01-10T13:26:33.000Z</time>
      </trkpt>
      <trkpt lat="47.37392" lon="-1.36762">
        <ele>106</ele>
        <time>2021-01-10T13:26:35.000Z</time>
      </trkpt>
      <trkpt lat="47.3739" lon="-1.36746">
        <ele>106</ele>
        <time>2021-01-10T13:26:37.000Z</time>
      </trkpt>
      <trkpt lat="47.37388" lon="-1.3673">
        <ele>107</ele>
        <time>2021-01-10T13:26:39.000Z</time>
      </trkpt>
      <trkpt lat="47.37386" lon="-1.36713">
        <ele>108</ele>
        <time>2021-01-10T13:26:41.000Z</time>
      </trkpt>
      <trkpt lat="47.37384" lon="-1.36696">
        <ele>108</ele>
        <time>2021-01-10T13:26:43.000Z</time>
      </trkpt>
      <trkpt lat="47.37382" lon="-1.36679">
        <ele>109</ele>
        <time>2021-01-10T13:26:45.000Z</time>
      </trkpt>
      <trkpt lat="47.3738" lon="-1.36662">
        <ele>109</ele>
        <time>2021-01-10T13:26:47.000Z</time>
      </trkpt>
      <trkpt lat="47.37377" lon="-1.36644">
        <ele>109</ele>
        <time>2021-01-10T13:26:49.000Z</time>
      </trkpt>
      <trkpt lat="47.37375" lon="-1.36626">
        <ele>109</ele>
        <time>2021-01-10T13:26:51.000Z</time>
      </trkpt>
      <trkpt lat="47.37373" lon="-1.36608">
        <ele>109</ele>
        <time>2021-01-10T13:26:53.000Z</time>
      </trkpt>
      <trkpt lat="47.37371" lon="-1.36591">
        <ele>109</ele>
        <time>2021-01-10T13:26:55.000Z</time>
      </trkpt>
      <trkpt lat="47.37369" lon="-1.36574">
        <ele>109</ele>
        <time>2021-01-10T13:26:57.000Z</time>
      </trkpt>
      <trkpt lat="47.37368" lon="-1.36556">
        <ele>109</ele>
        <time>2021-01-10T13:26:59.000Z</time>
      </trkpt>
      <trkpt lat="47.37365" lon="-1.36538">
        <ele>109</ele>
        <time>2021-01-10T13:27:01.000Z</time>
      </trkpt>
      <trkpt lat="47.37363" lon="-1.36522">
        <ele>109</ele>
        <time>2021-01-10T13:27:03.000Z</time>
      </trkpt>
      <trkpt lat="47.37361" lon="-1.36505">
        <ele>109</ele>
        <time>2021-01-10T13:27:05.000Z</time>
      </trkpt>
      <trkpt lat="47.37359" lon="-1.36488">
        <ele>109</ele>
        <time>2021-01-10T13:27:07.000Z</time>
      </trkpt>
      <trkpt lat="47.37357" lon="-1.36471">
        <ele>110</ele>
        <time>2021-01-10T13:27:09.000Z</time>
      </trkpt>
      <trkpt lat="47.37355" lon="-1.36454">
        <ele>109</ele>
        <time>2021-01-10T13:27:11.000Z</time>
      </trkpt>
      <trkpt lat="47.37353" lon="-1.36437">
        <ele>109</ele>
        <time>2021-01-10T13:27:13.000Z</time>
      </trkpt>
      <trkpt lat="47.37351" lon="-1.3642">
        <ele>109</ele>
        <time>2021-01-10T13:27:15.000Z</time>
      </trkpt>
      <trkpt lat="47.37349" lon="-1.36403">
        <ele>109</ele>
        <time>2021-01-10T13:27:17.000Z</time>
      </trkpt>
      <trkpt lat="47.37347" lon="-1.36385">
        <ele>109</ele>
        <time>2021-01-10T13:27:19.000Z</time>
      </trkpt>
      <trkpt lat="47.37344" lon="-1.36367">
        <ele>109</ele>
        <time>2021-01-10T13:27:21.000Z</time>
      </trkpt>
      <trkpt lat="47.37342" lon="-1.3635">
        <ele>109</ele>
        <time>2021-01-10T13:27:23.000Z</time>
      </trkpt>
      <trkpt lat="47.3734" lon="-1.36334">
        <ele>109</ele>
        <time>2021-01-10T13:27:25.000Z</time>
      </trkpt>
      <trkpt lat="47.37337" lon="-1.36316">
        <ele>109</ele>
        <time>2021-01-10T13:27:27.000Z</time>
      </trkpt>
      <trkpt lat="47.37336" lon="-1.36298">
        <ele>109</ele>
        <time>2021-01-10T13:27:29.000Z</time>
      </trkpt>
      <trkpt lat="47.37333" lon="-1.3628">
        <ele>109</ele>
        <time>2021-01-10T13:27:31.000Z</time>
      </trkpt>
      <trkpt lat="47.37331" lon="-1.36263">
        <ele>108</ele>
        <time>2021-01-10T13:27:33.000Z</time>
      </trkpt>
      <trkpt lat="47.37329" lon="-1.36245">
        <ele>108</ele>
        <time>2021-01-10T13:27:35.000Z</time>
      </trkpt>
      <trkpt lat="47.37327" lon="-1.36227">
        <ele>108</ele>
        <time>2021-01-10T13:27:37.000Z</time>
      </trkpt>
      <trkpt lat="47.37325" lon="-1.36208">
        <ele>108</ele>
        <time>2021-01-10T13:27:39.000Z</time>
      </trkpt>
      <trkpt lat="47.37322" lon="-1.36189">
        <ele>108</ele>
        <time>2021-01-10T13:27:41.000Z</time>
      </trkpt>
      <trkpt lat="47.37321" lon="-1.36172">
        <ele>108</ele>
        <time>2021-01-10T13:27:43.000Z</time>
      </trkpt>
      <trkpt lat="47.37319" lon="-1.36154">
        <ele>108</ele>
        <time>2021-01-10T13:27:45.000Z</time>
      </trkpt>
      <trkpt lat="47.37316" lon="-1.36136">
        <ele>108</ele>
        <time>2021-01-10T13:27:47.000Z</time>
      </trkpt>
      <trkpt lat="47.37314" lon="-1.36119">
        <ele>108</ele>
        <time>2021-01-10T13:27:49.000Z</time>
      </trkpt>
      <trkpt lat="47.37312" lon="-1.36101">
        <ele>108</ele>
        <time>2021-01-10T13:27:51.000Z</time>
      </trkpt>
      <trkpt lat="47.3731" lon="-1.36083">
        <ele>108</ele>
        <time>2021-01-10T13:27:53.000Z</time>
      </trkpt>
      <trkpt lat="47.37307" lon="-1.36065">
        <ele>108</ele>
        <time>2021-01-10T13:27:55.000Z</time>
      </trkpt>
      <trkpt lat="47.37305" lon="-1.36047">
        <ele>108</ele>
        <time>2021-01-10T13:27:57.000Z</time>
      </trkpt>
      <trkpt lat="47.37303" lon="-1.3603">
        <ele>108</ele>
        <time>2021-01-10T13:27:59.000Z</time>
      </trkpt>
      <trkpt lat="47.37301" lon="-1.36012">
        <ele>108</ele>
        <time>2021-01-10T13:28:01.000Z</time>
      </trkpt>
      <trkpt lat="47.37298" lon="-1.35994">
        <ele>108</ele>
        <time>2021-01-10T13:28:03.000Z</time>
      </trkpt>
      <trkpt lat="47.37296" lon="-1.35975">
        <ele>108</ele>
        <time>2021-01-10T13:28:05.000Z</time>
      </trkpt>
      <trkpt lat="47.37294" lon="-1.35958">
        <ele>108</ele>
        <time>2021-01-10T13:28:07.000Z</time>
      </trkpt>
      <trkpt lat="47.37292" lon="-1.35941">
        <ele>108</ele>
        <time>2021-01-10T13:28:09.000Z</time>
      </trkpt>
      <trkpt lat="47.37289" lon="-1.35924">
        <ele>107</ele>
        <time>2021-01-10T13:28:11.000Z</time>
      </trkpt>
      <trkpt lat="47.37287" lon="-1.35906">
        <ele>107</ele>
        <time>2021-01-10T13:28:13.000Z</time>
      </trkpt>
      <trkpt lat="47.37285" lon="-1.35889">
        <ele>107</ele>
        <time>2021-01-10T13:28:15.000Z</time>
      </trkpt>
      <trkpt lat="47.37283" lon="-1.35871">
        <ele>107</ele>
        <time>2021-01-10T13:28:17.000Z</time>
      </trkpt>
      <trkpt lat="47.3728" lon="-1.35853">
        <ele>107</ele>
        <time>2021-01-10T13:28:19.000Z</time>
      </trkpt>
      <trkpt lat="47.37275" lon="-1.35834">
        <ele>107</ele>
        <time>2021-01-10T13:28:21.000Z</time>
      </trkpt>
      <trkpt lat="47.37271" lon="-1.35817">
        <ele>107</ele>
        <time>2021-01-10T13:28:23.000Z</time>
      </trkpt>
      <trkpt lat="47.37266" lon="-1.35801">
        <ele>107</ele>
        <time>2021-01-10T13:28:25.000Z</time>
      </trkpt>
      <trkpt lat="47.37261" lon="-1.35784">
        <ele>106</ele>
        <time>2021-01-10T13:28:27.000Z</time>
      </trkpt>
      <trkpt lat="47.37255" lon="-1.35768">
        <ele>106</ele>
        <time>2021-01-10T13:28:29.000Z</time>
      </trkpt>
      <trkpt lat="47.37249" lon="-1.35742">
        <ele>106</ele>
        <time>2021-01-10T13:28:32.000Z</time>
      </trkpt>
      <trkpt lat="47.37242" lon="-1.35717">
        <ele>105</ele>
        <time>2021-01-10T13:28:35.000Z</time>
      </trkpt>
      <trkpt lat="47.37237" lon="-1.357">
        <ele>104</ele>
        <time>2021-01-10T13:28:37.000Z</time>
      </trkpt>
      <trkpt lat="47.37232" lon="-1.35682">
        <ele>104</ele>
        <time>2021-01-10T13:28:39.000Z</time>
      </trkpt>
      <trkpt lat="47.37227" lon="-1.35665">
        <ele>104</ele>
        <time>2021-01-10T13:28:41.000Z</time>
      </trkpt>
      <trkpt lat="47.37222" lon="-1.35647">
        <ele>103</ele>
        <time>2021-01-10T13:28:43.000Z</time>
      </trkpt>
      <trkpt lat="47.37216" lon="-1.35628">
        <ele>103</ele>
        <time>2021-01-10T13:28:45.000Z</time>
      </trkpt>
      <trkpt lat="47.37211" lon="-1.35609">
        <ele>102</ele>
        <time>2021-01-10T13:28:47.000Z</time>
      </trkpt>
      <trkpt lat="47.37206" lon="-1.3559">
        <ele>101</ele>
        <time>2021-01-10T13:28:49.000Z</time>
      </trkpt>
      <trkpt lat="47.372" lon="-1.35571">
        <ele>101</ele>
        <time>2021-01-10T13:28:51.000Z</time>
      </trkpt>
      <trkpt lat="47.37194" lon="-1.3555">
        <ele>100</ele>
        <time>2021-01-10T13:28:53.000Z</time>
      </trkpt>
      <trkpt lat="47.37184" lon="-1.35519">
        <ele>99</ele>
        <time>2021-01-10T13:28:56.000Z</time>
      </trkpt>
      <trkpt lat="47.37178" lon="-1.35497">
        <ele>98</ele>
        <time>2021-01-10T13:28:58.000Z</time>
      </trkpt>
      <trkpt lat="47.37175" lon="-1.35484">
        <ele>97</ele>
        <time>2021-01-10T13:28:59.000Z</time>
      </trkpt>
      <trkpt lat="47.37171" lon="-1.35472">
        <ele>97</ele>
        <time>2021-01-10T13:29:00.000Z</time>
      </trkpt>
      <trkpt lat="47.37168" lon="-1.35459">
        <ele>96</ele>
        <time>2021-01-10T13:29:01.000Z</time>
      </trkpt>
      <trkpt lat="47.37162" lon="-1.35436">
        <ele>96</ele>
        <time>2021-01-10T13:29:03.000Z</time>
      </trkpt>
      <trkpt lat="47.37153" lon="-1.35408">
        <ele>98</ele>
        <time>2021-01-10T13:29:06.000Z</time>
      </trkpt>
      <trkpt lat="47.37149" lon="-1.35393">
        <ele>99</ele>
        <time>2021-01-10T13:29:08.000Z</time>
      </trkpt>
      <trkpt lat="47.37145" lon="-1.35379">
        <ele>100</ele>
        <time>2021-01-10T13:29:10.000Z</time>
      </trkpt>
      <trkpt lat="47.37142" lon="-1.35366">
        <ele>101</ele>
        <time>2021-01-10T13:29:12.000Z</time>
      </trkpt>
      <trkpt lat="47.37134" lon="-1.35349">
        <ele>101</ele>
        <time>2021-01-10T13:29:16.000Z</time>
      </trkpt>
      <trkpt lat="47.37124" lon="-1.35347">
        <ele>100</ele>
        <time>2021-01-10T13:29:18.000Z</time>
      </trkpt>
      <trkpt lat="47.37113" lon="-1.35344">
        <ele>101</ele>
        <time>2021-01-10T13:29:20.000Z</time>
      </trkpt>
      <trkpt lat="47.371" lon="-1.35342">
        <ele>102</ele>
        <time>2021-01-10T13:29:22.000Z</time>
      </trkpt>
      <trkpt lat="47.37087" lon="-1.3534">
        <ele>102</ele>
        <time>2021-01-10T13:29:24.000Z</time>
      </trkpt>
      <trkpt lat="47.37075" lon="-1.35338">
        <ele>102</ele>
        <time>2021-01-10T13:29:26.000Z</time>
      </trkpt>
      <trkpt lat="47.37062" lon="-1.35334">
        <ele>102</ele>
        <time>2021-01-10T13:29:28.000Z</time>
      </trkpt>
      <trkpt lat="47.37049" lon="-1.35333">
        <ele>102</ele>
        <time>2021-01-10T13:29:30.000Z</time>
      </trkpt>
      <trkpt lat="47.37036" lon="-1.35331">
        <ele>102</ele>
        <time>2021-01-10T13:29:32.000Z</time>
      </trkpt>
      <trkpt lat="47.37024" lon="-1.35329">
        <ele>103</ele>
        <time>2021-01-10T13:29:34.000Z</time>
      </trkpt>
      <trkpt lat="47.37011" lon="-1.35327">
        <ele>103</ele>
        <time>2021-01-10T13:29:36.000Z</time>
      </trkpt>
      <trkpt lat="47.36999" lon="-1.35324">
        <ele>103</ele>
        <time>2021-01-10T13:29:38.000Z</time>
      </trkpt>
      <trkpt lat="47.3698" lon="-1.3532">
        <ele>103</ele>
        <time>2021-01-10T13:29:41.000Z</time>
      </trkpt>
      <trkpt lat="47.36968" lon="-1.35318">
        <ele>104</ele>
        <time>2021-01-10T13:29:43.000Z</time>
      </trkpt>
      <trkpt lat="47.36955" lon="-1.35315">
        <ele>104</ele>
        <time>2021-01-10T13:29:45.000Z</time>
      </trkpt>
      <trkpt lat="47.36942" lon="-1.35312">
        <ele>104</ele>
        <time>2021-01-10T13:29:47.000Z</time>
      </trkpt>
      <trkpt lat="47.3693" lon="-1.3531">
        <ele>104</ele>
        <time>2021-01-10T13:29:49.000Z</time>
      </trkpt>
      <trkpt lat="47.36918" lon="-1.35308">
        <ele>104</ele>
        <time>2021-01-10T13:29:51.000Z</time>
      </trkpt>
      <trkpt lat="47.36906" lon="-1.35306">
        <ele>104</ele>
        <time>2021-01-10T13:29:53.000Z</time>
      </trkpt>
      <trkpt lat="47.36894" lon="-1.35303">
        <ele>104</ele>
        <time>2021-01-10T13:29:55.000Z</time>
      </trkpt>
      <trkpt lat="47.36881" lon="-1.353">
        <ele>104</ele>
        <time>2021-01-10T13:29:57.000Z</time>
      </trkpt>
      <trkpt lat="47.36868" lon="-1.35298">
        <ele>104</ele>
        <time>2021-01-10T13:29:59.000Z</time>
      </trkpt>
      <trkpt lat="47.36856" lon="-1.35295">
        <ele>103</ele>
        <time>2021-01-10T13:30:01.000Z</time>
      </trkpt>
      <trkpt lat="47.36843" lon="-1.35292">
        <ele>104</ele>
        <time>2021-01-10T13:30:03.000Z</time>
      </trkpt>
      <trkpt lat="47.3683" lon="-1.35289">
        <ele>104</ele>
        <time>2021-01-10T13:30:05.000Z</time>
      </trkpt>
      <trkpt lat="47.3681" lon="-1.35285">
        <ele>103</ele>
        <time>2021-01-10T13:30:08.000Z</time>
      </trkpt>
      <trkpt lat="47.36797" lon="-1.35283">
        <ele>103</ele>
        <time>2021-01-10T13:30:10.000Z</time>
      </trkpt>
      <trkpt lat="47.36784" lon="-1.35281">
        <ele>103</ele>
        <time>2021-01-10T13:30:12.000Z</time>
      </trkpt>
      <trkpt lat="47.36773" lon="-1.35278">
        <ele>104</ele>
        <time>2021-01-10T13:30:14.000Z</time>
      </trkpt>
      <trkpt lat="47.36762" lon="-1.35275">
        <ele>104</ele>
        <time>2021-01-10T13:30:16.000Z</time>
      </trkpt>
      <trkpt lat="47.36743" lon="-1.3527">
        <ele>103</ele>
        <time>2021-01-10T13:30:19.000Z</time>
      </trkpt>
      <trkpt lat="47.36731" lon="-1.35267">
        <ele>103</ele>
        <time>2021-01-10T13:30:21.000Z</time>
      </trkpt>
      <trkpt lat="47.36718" lon="-1.35265">
        <ele>103</ele>
        <time>2021-01-10T13:30:23.000Z</time>
      </trkpt>
      <trkpt lat="47.36706" lon="-1.35263">
        <ele>103</ele>
        <time>2021-01-10T13:30:25.000Z</time>
      </trkpt>
      <trkpt lat="47.36694" lon="-1.35261">
        <ele>104</ele>
        <time>2021-01-10T13:30:27.000Z</time>
      </trkpt>
      <trkpt lat="47.36682" lon="-1.35259">
        <ele>104</ele>
        <time>2021-01-10T13:30:29.000Z</time>
      </trkpt>
      <trkpt lat="47.3667" lon="-1.35256">
        <ele>104</ele>
        <time>2021-01-10T13:30:31.000Z</time>
      </trkpt>
      <trkpt lat="47.36658" lon="-1.35254">
        <ele>105</ele>
        <time>2021-01-10T13:30:33.000Z</time>
      </trkpt>
      <trkpt lat="47.36645" lon="-1.35252">
        <ele>105</ele>
        <time>2021-01-10T13:30:35.000Z</time>
      </trkpt>
      <trkpt lat="47.36633" lon="-1.35248">
        <ele>104</ele>
        <time>2021-01-10T13:30:37.000Z</time>
      </trkpt>
      <trkpt lat="47.36621" lon="-1.35244">
        <ele>104</ele>
        <time>2021-01-10T13:30:39.000Z</time>
      </trkpt>
      <trkpt lat="47.36609" lon="-1.35242">
        <ele>105</ele>
        <time>2021-01-10T13:30:41.000Z</time>
      </trkpt>
      <trkpt lat="47.36598" lon="-1.3524">
        <ele>105</ele>
        <time>2021-01-10T13:30:43.000Z</time>
      </trkpt>
      <trkpt lat="47.36586" lon="-1.35237">
        <ele>105</ele>
        <time>2021-01-10T13:30:45.000Z</time>
      </trkpt>
      <trkpt lat="47.36574" lon="-1.35234">
        <ele>105</ele>
        <time>2021-01-10T13:30:47.000Z</time>
      </trkpt>
      <trkpt lat="47.36562" lon="-1.35232">
        <ele>106</ele>
        <time>2021-01-10T13:30:49.000Z</time>
      </trkpt>
      <trkpt lat="47.36551" lon="-1.3523">
        <ele>107</ele>
        <time>2021-01-10T13:30:51.000Z</time>
      </trkpt>
      <trkpt lat="47.36539" lon="-1.35228">
        <ele>107</ele>
        <time>2021-01-10T13:30:53.000Z</time>
      </trkpt>
      <trkpt lat="47.36527" lon="-1.35225">
        <ele>107</ele>
        <time>2021-01-10T13:30:55.000Z</time>
      </trkpt>
      <trkpt lat="47.36516" lon="-1.35222">
        <ele>108</ele>
        <time>2021-01-10T13:30:57.000Z</time>
      </trkpt>
      <trkpt lat="47.36505" lon="-1.35218">
        <ele>109</ele>
        <time>2021-01-10T13:30:59.000Z</time>
      </trkpt>
      <trkpt lat="47.36494" lon="-1.35216">
        <ele>109</ele>
        <time>2021-01-10T13:31:01.000Z</time>
      </trkpt>
      <trkpt lat="47.36484" lon="-1.35213">
        <ele>109</ele>
        <time>2021-01-10T13:31:03.000Z</time>
      </trkpt>
      <trkpt lat="47.36476" lon="-1.35206">
        <ele>110</ele>
        <time>2021-01-10T13:31:05.000Z</time>
      </trkpt>
      <trkpt lat="47.36471" lon="-1.35191">
        <ele>111</ele>
        <time>2021-01-10T13:31:07.000Z</time>
      </trkpt>
      <trkpt lat="47.36468" lon="-1.35175">
        <ele>112</ele>
        <time>2021-01-10T13:31:09.000Z</time>
      </trkpt>
      <trkpt lat="47.36466" lon="-1.35157">
        <ele>111</ele>
        <time>2021-01-10T13:31:11.000Z</time>
      </trkpt>
      <trkpt lat="47.36465" lon="-1.3514">
        <ele>111</ele>
        <time>2021-01-10T13:31:13.000Z</time>
      </trkpt>
      <trkpt lat="47.36463" lon="-1.35123">
        <ele>111</ele>
        <time>2021-01-10T13:31:15.000Z</time>
      </trkpt>
      <trkpt lat="47.36461" lon="-1.35107">
        <ele>111</ele>
        <time>2021-01-10T13:31:17.000Z</time>
      </trkpt>
      <trkpt lat="47.36458" lon="-1.3509">
        <ele>111</ele>
        <time>2021-01-10T13:31:19.000Z</time>
      </trkpt>
      <trkpt lat="47.36456" lon="-1.35074">
        <ele>111</ele>
        <time>2021-01-10T13:31:21.000Z</time>
      </trkpt>
      <trkpt lat="47.36455" lon="-1.35057">
        <ele>111</ele>
        <time>2021-01-10T13:31:23.000Z</time>
      </trkpt>
      <trkpt lat="47.36453" lon="-1.35042">
        <ele>111</ele>
        <time>2021-01-10T13:31:25.000Z</time>
      </trkpt>
      <trkpt lat="47.36452" lon="-1.35028">
        <ele>111</ele>
        <time>2021-01-10T13:31:27.000Z</time>
      </trkpt>
      <trkpt lat="47.3645" lon="-1.35014">
        <ele>111</ele>
        <time>2021-01-10T13:31:29.000Z</time>
      </trkpt>
      <trkpt lat="47.36448" lon="-1.35001">
        <ele>111</ele>
        <time>2021-01-10T13:31:31.000Z</time>
      </trkpt>
      <trkpt lat="47.36447" lon="-1.34986">
        <ele>111</ele>
        <time>2021-01-10T13:31:33.000Z</time>
      </trkpt>
      <trkpt lat="47.36446" lon="-1.34971">
        <ele>111</ele>
        <time>2021-01-10T13:31:35.000Z</time>
      </trkpt>
      <trkpt lat="47.36443" lon="-1.34956">
        <ele>111</ele>
        <time>2021-01-10T13:31:37.000Z</time>
      </trkpt>
      <trkpt lat="47.36441" lon="-1.3494">
        <ele>111</ele>
        <time>2021-01-10T13:31:39.000Z</time>
      </trkpt>
      <trkpt lat="47.36439" lon="-1.34925">
        <ele>111</ele>
        <time>2021-01-10T13:31:41.000Z</time>
      </trkpt>
      <trkpt lat="47.36438" lon="-1.3491">
        <ele>111</ele>
        <time>2021-01-10T13:31:43.000Z</time>
      </trkpt>
      <trkpt lat="47.36437" lon="-1.34897">
        <ele>111</ele>
        <time>2021-01-10T13:31:45.000Z</time>
      </trkpt>
      <trkpt lat="47.36435" lon="-1.34884">
        <ele>111</ele>
        <time>2021-01-10T13:31:47.000Z</time>
      </trkpt>
      <trkpt lat="47.36434" lon="-1.3487">
        <ele>111</ele>
        <time>2021-01-10T13:31:49.000Z</time>
      </trkpt>
      <trkpt lat="47.36432" lon="-1.34855">
        <ele>111</ele>
        <time>2021-01-10T13:31:51.000Z</time>
      </trkpt>
      <trkpt lat="47.36431" lon="-1.34839">
        <ele>111</ele>
        <time>2021-01-10T13:31:53.000Z</time>
      </trkpt>
      <trkpt lat="47.3643" lon="-1.34822">
        <ele>111</ele>
        <time>2021-01-10T13:31:55.000Z</time>
      </trkpt>
      <trkpt lat="47.3643" lon="-1.34804">
        <ele>111</ele>
        <time>2021-01-10T13:31:57.000Z</time>
      </trkpt>
      <trkpt lat="47.36429" lon="-1.34786">
        <ele>110</ele>
        <time>2021-01-10T13:31:59.000Z</time>
      </trkpt>
      <trkpt lat="47.36428" lon="-1.34769">
        <ele>110</ele>
        <time>2021-01-10T13:32:01.000Z</time>
      </trkpt>
      <trkpt lat="47.36428" lon="-1.34751">
        <ele>110</ele>
        <time>2021-01-10T13:32:03.000Z</time>
      </trkpt>
      <trkpt lat="47.36427" lon="-1.34734">
        <ele>110</ele>
        <time>2021-01-10T13:32:05.000Z</time>
      </trkpt>
      <trkpt lat="47.36426" lon="-1.34717">
        <ele>110</ele>
        <time>2021-01-10T13:32:07.000Z</time>
      </trkpt>
      <trkpt lat="47.36424" lon="-1.3469">
        <ele>111</ele>
        <time>2021-01-10T13:32:10.000Z</time>
      </trkpt>
      <trkpt lat="47.36424" lon="-1.34673">
        <ele>110</ele>
        <time>2021-01-10T13:32:12.000Z</time>
      </trkpt>
      <trkpt lat="47.36422" lon="-1.34655">
        <ele>110</ele>
        <time>2021-01-10T13:32:14.000Z</time>
      </trkpt>
      <trkpt lat="47.36421" lon="-1.34635">
        <ele>110</ele>
        <time>2021-01-10T13:32:16.000Z</time>
      </trkpt>
      <trkpt lat="47.3642" lon="-1.34616">
        <ele>110</ele>
        <time>2021-01-10T13:32:18.000Z</time>
      </trkpt>
      <trkpt lat="47.36419" lon="-1.34597">
        <ele>111</ele>
        <time>2021-01-10T13:32:20.000Z</time>
      </trkpt>
      <trkpt lat="47.36417" lon="-1.3458">
        <ele>111</ele>
        <time>2021-01-10T13:32:22.000Z</time>
      </trkpt>
      <trkpt lat="47.36416" lon="-1.34561">
        <ele>111</ele>
        <time>2021-01-10T13:32:24.000Z</time>
      </trkpt>
      <trkpt lat="47.36414" lon="-1.34543">
        <ele>111</ele>
        <time>2021-01-10T13:32:26.000Z</time>
      </trkpt>
      <trkpt lat="47.36413" lon="-1.34524">
        <ele>111</ele>
        <time>2021-01-10T13:32:28.000Z</time>
      </trkpt>
      <trkpt lat="47.36412" lon="-1.34504">
        <ele>111</ele>
        <time>2021-01-10T13:32:30.000Z</time>
      </trkpt>
      <trkpt lat="47.36407" lon="-1.34475">
        <ele>110</ele>
        <time>2021-01-10T13:32:33.000Z</time>
      </trkpt>
      <trkpt lat="47.36402" lon="-1.34457">
        <ele>110</ele>
        <time>2021-01-10T13:32:35.000Z</time>
      </trkpt>
      <trkpt lat="47.36397" lon="-1.34438">
        <ele>111</ele>
        <time>2021-01-10T13:32:37.000Z</time>
      </trkpt>
      <trkpt lat="47.36392" lon="-1.34419">
        <ele>110</ele>
        <time>2021-01-10T13:32:39.000Z</time>
      </trkpt>
      <trkpt lat="47.36386" lon="-1.34401">
        <ele>110</ele>
        <time>2021-01-10T13:32:41.000Z</time>
      </trkpt>
      <trkpt lat="47.36379" lon="-1.34382">
        <ele>110</ele>
        <time>2021-01-10T13:32:43.000Z</time>
      </trkpt>
      <trkpt lat="47.36371" lon="-1.34364">
        <ele>109</ele>
        <time>2021-01-10T13:32:45.000Z</time>
      </trkpt>
      <trkpt lat="47.36363" lon="-1.34346">
        <ele>110</ele>
        <time>2021-01-10T13:32:47.000Z</time>
      </trkpt>
      <trkpt lat="47.36354" lon="-1.34328">
        <ele>109</ele>
        <time>2021-01-10T13:32:49.000Z</time>
      </trkpt>
      <trkpt lat="47.36345" lon="-1.34312">
        <ele>109</ele>
        <time>2021-01-10T13:32:51.000Z</time>
      </trkpt>
      <trkpt lat="47.36335" lon="-1.34298">
        <ele>109</ele>
        <time>2021-01-10T13:32:53.000Z</time>
      </trkpt>
      <trkpt lat="47.36324" lon="-1.34284">
        <ele>109</ele>
        <time>2021-01-10T13:32:55.000Z</time>
      </trkpt>
      <trkpt lat="47.36313" lon="-1.34271">
        <ele>108</ele>
        <time>2021-01-10T13:32:57.000Z</time>
      </trkpt>
      <trkpt lat="47.36302" lon="-1.34258">
        <ele>107</ele>
        <time>2021-01-10T13:32:59.000Z</time>
      </trkpt>
      <trkpt lat="47.36291" lon="-1.34245">
        <ele>106</ele>
        <time>2021-01-10T13:33:01.000Z</time>
      </trkpt>
      <trkpt lat="47.3628" lon="-1.3423">
        <ele>106</ele>
        <time>2021-01-10T13:33:03.000Z</time>
      </trkpt>
      <trkpt lat="47.36269" lon="-1.34215">
        <ele>106</ele>
        <time>2021-01-10T13:33:05.000Z</time>
      </trkpt>
      <trkpt lat="47.36258" lon="-1.34199">
        <ele>106</ele>
        <time>2021-01-10T13:33:07.000Z</time>
      </trkpt>
      <trkpt lat="47.36247" lon="-1.34182">
        <ele>105</ele>
        <time>2021-01-10T13:33:09.000Z</time>
      </trkpt>
      <trkpt lat="47.36236" lon="-1.34165">
        <ele>104</ele>
        <time>2021-01-10T13:33:11.000Z</time>
      </trkpt>
      <trkpt lat="47.36225" lon="-1.34145">
        <ele>103</ele>
        <time>2021-01-10T13:33:13.000Z</time>
      </trkpt>
      <trkpt lat="47.36214" lon="-1.34125">
        <ele>101</ele>
        <time>2021-01-10T13:33:15.000Z</time>
      </trkpt>
      <trkpt lat="47.36208" lon="-1.34114">
        <ele>100</ele>
        <time>2021-01-10T13:33:16.000Z</time>
      </trkpt>
      <trkpt lat="47.36202" lon="-1.34103">
        <ele>99</ele>
        <time>2021-01-10T13:33:17.000Z</time>
      </trkpt>
      <trkpt lat="47.36196" lon="-1.34092">
        <ele>99</ele>
        <time>2021-01-10T13:33:18.000Z</time>
      </trkpt>
      <trkpt lat="47.3619" lon="-1.34081">
        <ele>98</ele>
        <time>2021-01-10T13:33:19.000Z</time>
      </trkpt>
      <trkpt lat="47.36184" lon="-1.34069">
        <ele>98</ele>
        <time>2021-01-10T13:33:20.000Z</time>
      </trkpt>
      <trkpt lat="47.36179" lon="-1.34058">
        <ele>98</ele>
        <time>2021-01-10T13:33:21.000Z</time>
      </trkpt>
      <trkpt lat="47.36169" lon="-1.34038">
        <ele>98</ele>
        <time>2021-01-10T13:33:23.000Z</time>
      </trkpt>
      <trkpt lat="47.3616" lon="-1.34023">
        <ele>98</ele>
        <time>2021-01-10T13:33:25.000Z</time>
      </trkpt>
      <trkpt lat="47.36152" lon="-1.3401">
        <ele>97</ele>
        <time>2021-01-10T13:33:27.000Z</time>
      </trkpt>
      <trkpt lat="47.36142" lon="-1.33998">
        <ele>98</ele>
        <time>2021-01-10T13:33:29.000Z</time>
      </trkpt>
      <trkpt lat="47.36132" lon="-1.33988">
        <ele>98</ele>
        <time>2021-01-10T13:33:31.000Z</time>
      </trkpt>
      <trkpt lat="47.3612" lon="-1.33982">
        <ele>99</ele>
        <time>2021-01-10T13:33:33.000Z</time>
      </trkpt>
      <trkpt lat="47.36109" lon="-1.33978">
        <ele>98</ele>
        <time>2021-01-10T13:33:35.000Z</time>
      </trkpt>
      <trkpt lat="47.36097" lon="-1.33975">
        <ele>99</ele>
        <time>2021-01-10T13:33:37.000Z</time>
      </trkpt>
      <trkpt lat="47.36085" lon="-1.33972">
        <ele>99</ele>
        <time>2021-01-10T13:33:39.000Z</time>
      </trkpt>
      <trkpt lat="47.36073" lon="-1.33969">
        <ele>100</ele>
        <time>2021-01-10T13:33:41.000Z</time>
      </trkpt>
      <trkpt lat="47.3606" lon="-1.33965">
        <ele>101</ele>
        <time>2021-01-10T13:33:43.000Z</time>
      </trkpt>
      <trkpt lat="47.36048" lon="-1.33959">
        <ele>102</ele>
        <time>2021-01-10T13:33:45.000Z</time>
      </trkpt>
      <trkpt lat="47.36036" lon="-1.3395">
        <ele>102</ele>
        <time>2021-01-10T13:33:47.000Z</time>
      </trkpt>
      <trkpt lat="47.36025" lon="-1.33939">
        <ele>102</ele>
        <time>2021-01-10T13:33:49.000Z</time>
      </trkpt>
      <trkpt lat="47.36016" lon="-1.33926">
        <ele>103</ele>
        <time>2021-01-10T13:33:51.000Z</time>
      </trkpt>
      <trkpt lat="47.36007" lon="-1.33914">
        <ele>103</ele>
        <time>2021-01-10T13:33:53.000Z</time>
      </trkpt>
      <trkpt lat="47.35998" lon="-1.33901">
        <ele>104</ele>
        <time>2021-01-10T13:33:55.000Z</time>
      </trkpt>
      <trkpt lat="47.35989" lon="-1.33889">
        <ele>105</ele>
        <time>2021-01-10T13:33:57.000Z</time>
      </trkpt>
      <trkpt lat="47.35981" lon="-1.33877">
        <ele>106</ele>
        <time>2021-01-10T13:33:59.000Z</time>
      </trkpt>
      <trkpt lat="47.35972" lon="-1.33866">
        <ele>106</ele>
        <time>2021-01-10T13:34:01.000Z</time>
      </trkpt>
      <trkpt lat="47.35964" lon="-1.33856">
        <ele>106</ele>
        <time>2021-01-10T13:34:03.000Z</time>
      </trkpt>
      <trkpt lat="47.35954" lon="-1.33846">
        <ele>106</ele>
        <time>2021-01-10T13:34:05.000Z</time>
      </trkpt>
      <trkpt lat="47.35944" lon="-1.33837">
        <ele>106</ele>
        <time>2021-01-10T13:34:07.000Z</time>
      </trkpt>
      <trkpt lat="47.35934" lon="-1.33829">
        <ele>107</ele>
        <time>2021-01-10T13:34:09.000Z</time>
      </trkpt>
      <trkpt lat="47.35923" lon="-1.33822">
        <ele>107</ele>
        <time>2021-01-10T13:34:11.000Z</time>
      </trkpt>
      <trkpt lat="47.35913" lon="-1.33815">
        <ele>107</ele>
        <time>2021-01-10T13:34:13.000Z</time>
      </trkpt>
      <trkpt lat="47.35902" lon="-1.33808">
        <ele>108</ele>
        <time>2021-01-10T13:34:15.000Z</time>
      </trkpt>
      <trkpt lat="47.35892" lon="-1.33801">
        <ele>109</ele>
        <time>2021-01-10T13:34:17.000Z</time>
      </trkpt>
      <trkpt lat="47.35881" lon="-1.33793">
        <ele>109</ele>
        <time>2021-01-10T13:34:19.000Z</time>
      </trkpt>
      <trkpt lat="47.35871" lon="-1.33785">
        <ele>109</ele>
        <time>2021-01-10T13:34:21.000Z</time>
      </trkpt>
      <trkpt lat="47.35861" lon="-1.33778">
        <ele>109</ele>
        <time>2021-01-10T13:34:23.000Z</time>
      </trkpt>
      <trkpt lat="47.35851" lon="-1.3377">
        <ele>109</ele>
        <time>2021-01-10T13:34:25.000Z</time>
      </trkpt>
      <trkpt lat="47.3584" lon="-1.33762">
        <ele>109</ele>
        <time>2021-01-10T13:34:27.000Z</time>
      </trkpt>
      <trkpt lat="47.3583" lon="-1.33754">
        <ele>109</ele>
        <time>2021-01-10T13:34:29.000Z</time>
      </trkpt>
      <trkpt lat="47.3582" lon="-1.33746">
        <ele>109</ele>
        <time>2021-01-10T13:34:31.000Z</time>
      </trkpt>
      <trkpt lat="47.35811" lon="-1.33736">
        <ele>109</ele>
        <time>2021-01-10T13:34:33.000Z</time>
      </trkpt>
      <trkpt lat="47.35802" lon="-1.33725">
        <ele>109</ele>
        <time>2021-01-10T13:34:35.000Z</time>
      </trkpt>
      <trkpt lat="47.35794" lon="-1.33713">
        <ele>110</ele>
        <time>2021-01-10T13:34:37.000Z</time>
      </trkpt>
      <trkpt lat="47.35786" lon="-1.337">
        <ele>110</ele>
        <time>2021-01-10T13:34:39.000Z</time>
      </trkpt>
      <trkpt lat="47.3578" lon="-1.33689">
        <ele>111</ele>
        <time>2021-01-10T13:34:41.000Z</time>
      </trkpt>
      <trkpt lat="47.35773" lon="-1.33676">
        <ele>111</ele>
        <time>2021-01-10T13:34:43.000Z</time>
      </trkpt>
      <trkpt lat="47.35766" lon="-1.33663">
        <ele>112</ele>
        <time>2021-01-10T13:34:45.000Z</time>
      </trkpt>
      <trkpt lat="47.35759" lon="-1.33649">
        <ele>113</ele>
        <time>2021-01-10T13:34:47.000Z</time>
      </trkpt>
      <trkpt lat="47.35752" lon="-1.33634">
        <ele>113</ele>
        <time>2021-01-10T13:34:49.000Z</time>
      </trkpt>
      <trkpt lat="47.35744" lon="-1.3362">
        <ele>113</ele>
        <time>2021-01-10T13:34:51.000Z</time>
      </trkpt>
      <trkpt lat="47.35737" lon="-1.33607">
        <ele>113</ele>
        <time>2021-01-10T13:34:53.000Z</time>
      </trkpt>
      <trkpt lat="47.3573" lon="-1.33593">
        <ele>113</ele>
        <time>2021-01-10T13:34:55.000Z</time>
      </trkpt>
      <trkpt lat="47.35724" lon="-1.33578">
        <ele>113</ele>
        <time>2021-01-10T13:34:57.000Z</time>
      </trkpt>
      <trkpt lat="47.35717" lon="-1.33564">
        <ele>114</ele>
        <time>2021-01-10T13:34:59.000Z</time>
      </trkpt>
      <trkpt lat="47.35711" lon="-1.33549">
        <ele>114</ele>
        <time>2021-01-10T13:35:01.000Z</time>
      </trkpt>
      <trkpt lat="47.35705" lon="-1.33536">
        <ele>115</ele>
        <time>2021-01-10T13:35:03.000Z</time>
      </trkpt>
      <trkpt lat="47.35698" lon="-1.33522">
        <ele>115</ele>
        <time>2021-01-10T13:35:05.000Z</time>
      </trkpt>
      <trkpt lat="47.35692" lon="-1.3351">
        <ele>114</ele>
        <time>2021-01-10T13:35:07.000Z</time>
      </trkpt>
      <trkpt lat="47.35684" lon="-1.33494">
        <ele>114</ele>
        <time>2021-01-10T13:35:10.000Z</time>
      </trkpt>
      <trkpt lat="47.3568" lon="-1.3348">
        <ele>114</ele>
        <time>2021-01-10T13:35:14.000Z</time>
      </trkpt>
      <trkpt lat="47.35687" lon="-1.3347">
        <ele>115</ele>
        <time>2021-01-10T13:35:16.000Z</time>
      </trkpt>
      <trkpt lat="47.35697" lon="-1.33462">
        <ele>115</ele>
        <time>2021-01-10T13:35:18.000Z</time>
      </trkpt>
      <trkpt lat="47.35706" lon="-1.33453">
        <ele>116</ele>
        <time>2021-01-10T13:35:20.000Z</time>
      </trkpt>
      <trkpt lat="47.35717" lon="-1.33444">
        <ele>116</ele>
        <time>2021-01-10T13:35:22.000Z</time>
      </trkpt>
      <trkpt lat="47.35727" lon="-1.33433">
        <ele>115</ele>
        <time>2021-01-10T13:35:24.000Z</time>
      </trkpt>
      <trkpt lat="47.35738" lon="-1.33422">
        <ele>115</ele>
        <time>2021-01-10T13:35:26.000Z</time>
      </trkpt>
      <trkpt lat="47.35749" lon="-1.33411">
        <ele>115</ele>
        <time>2021-01-10T13:35:28.000Z</time>
      </trkpt>
      <trkpt lat="47.35759" lon="-1.334">
        <ele>115</ele>
        <time>2021-01-10T13:35:30.000Z</time>
      </trkpt>
      <trkpt lat="47.35771" lon="-1.33388">
        <ele>114</ele>
        <time>2021-01-10T13:35:32.000Z</time>
      </trkpt>
      <trkpt lat="47.35782" lon="-1.33376">
        <ele>114</ele>
        <time>2021-01-10T13:35:34.000Z</time>
      </trkpt>
      <trkpt lat="47.35792" lon="-1.33364">
        <ele>113</ele>
        <time>2021-01-10T13:35:36.000Z</time>
      </trkpt>
      <trkpt lat="47.35803" lon="-1.33353">
        <ele>112</ele>
        <time>2021-01-10T13:35:38.000Z</time>
      </trkpt>
      <trkpt lat="47.35814" lon="-1.33341">
        <ele>112</ele>
        <time>2021-01-10T13:35:40.000Z</time>
      </trkpt>
      <trkpt lat="47.35824" lon="-1.3333">
        <ele>112</ele>
        <time>2021-01-10T13:35:42.000Z</time>
      </trkpt>
      <trkpt lat="47.35835" lon="-1.33318">
        <ele>112</ele>
        <time>2021-01-10T13:35:44.000Z</time>
      </trkpt>
      <trkpt lat="47.35846" lon="-1.33308">
        <ele>112</ele>
        <time>2021-01-10T13:35:46.000Z</time>
      </trkpt>
      <trkpt lat="47.35857" lon="-1.33298">
        <ele>112</ele>
        <time>2021-01-10T13:35:48.000Z</time>
      </trkpt>
      <trkpt lat="47.35866" lon="-1.33288">
        <ele>112</ele>
        <time>2021-01-10T13:35:50.000Z</time>
      </trkpt>
      <trkpt lat="47.35875" lon="-1.33278">
        <ele>113</ele>
        <time>2021-01-10T13:35:52.000Z</time>
      </trkpt>
      <trkpt lat="47.35884" lon="-1.33269">
        <ele>113</ele>
        <time>2021-01-10T13:35:54.000Z</time>
      </trkpt>
      <trkpt lat="47.35893" lon="-1.33259">
        <ele>113</ele>
        <time>2021-01-10T13:35:56.000Z</time>
      </trkpt>
      <trkpt lat="47.35903" lon="-1.33249">
        <ele>114</ele>
        <time>2021-01-10T13:35:58.000Z</time>
      </trkpt>
      <trkpt lat="47.35912" lon="-1.3324">
        <ele>114</ele>
        <time>2021-01-10T13:36:00.000Z</time>
      </trkpt>
      <trkpt lat="47.35921" lon="-1.3323">
        <ele>114</ele>
        <time>2021-01-10T13:36:02.000Z</time>
      </trkpt>
      <trkpt lat="47.35931" lon="-1.3322">
        <ele>114</ele>
        <time>2021-01-10T13:36:04.000Z</time>
      </trkpt>
      <trkpt lat="47.3594" lon="-1.3321">
        <ele>114</ele>
        <time>2021-01-10T13:36:06.000Z</time>
      </trkpt>
      <trkpt lat="47.35949" lon="-1.33201">
        <ele>114</ele>
        <time>2021-01-10T13:36:08.000Z</time>
      </trkpt>
      <trkpt lat="47.35958" lon="-1.33192">
        <ele>114</ele>
        <time>2021-01-10T13:36:10.000Z</time>
      </trkpt>
      <trkpt lat="47.35966" lon="-1.33182">
        <ele>113</ele>
        <time>2021-01-10T13:36:12.000Z</time>
      </trkpt>
      <trkpt lat="47.35975" lon="-1.33173">
        <ele>113</ele>
        <time>2021-01-10T13:36:14.000Z</time>
      </trkpt>
      <trkpt lat="47.35983" lon="-1.33165">
        <ele>113</ele>
        <time>2021-01-10T13:36:16.000Z</time>
      </trkpt>
      <trkpt lat="47.35992" lon="-1.33155">
        <ele>113</ele>
        <time>2021-01-10T13:36:18.000Z</time>
      </trkpt>
      <trkpt lat="47.36001" lon="-1.33146">
        <ele>113</ele>
        <time>2021-01-10T13:36:20.000Z</time>
      </trkpt>
      <trkpt lat="47.36009" lon="-1.33136">
        <ele>113</ele>
        <time>2021-01-10T13:36:22.000Z</time>
      </trkpt>
      <trkpt lat="47.36018" lon="-1.33128">
        <ele>113</ele>
        <time>2021-01-10T13:36:24.000Z</time>
      </trkpt>
      <trkpt lat="47.36028" lon="-1.33118">
        <ele>112</ele>
        <time>2021-01-10T13:36:26.000Z</time>
      </trkpt>
      <trkpt lat="47.36037" lon="-1.33109">
        <ele>112</ele>
        <time>2021-01-10T13:36:28.000Z</time>
      </trkpt>
      <trkpt lat="47.36047" lon="-1.33099">
        <ele>112</ele>
        <time>2021-01-10T13:36:30.000Z</time>
      </trkpt>
      <trkpt lat="47.36055" lon="-1.33089">
        <ele>112</ele>
        <time>2021-01-10T13:36:32.000Z</time>
      </trkpt>
      <trkpt lat="47.36065" lon="-1.33079">
        <ele>112</ele>
        <time>2021-01-10T13:36:34.000Z</time>
      </trkpt>
      <trkpt lat="47.36074" lon="-1.3307">
        <ele>112</ele>
        <time>2021-01-10T13:36:36.000Z</time>
      </trkpt>
      <trkpt lat="47.36083" lon="-1.33061">
        <ele>112</ele>
        <time>2021-01-10T13:36:38.000Z</time>
      </trkpt>
      <trkpt lat="47.36091" lon="-1.33052">
        <ele>111</ele>
        <time>2021-01-10T13:36:40.000Z</time>
      </trkpt>
      <trkpt lat="47.361" lon="-1.33043">
        <ele>111</ele>
        <time>2021-01-10T13:36:42.000Z</time>
      </trkpt>
      <trkpt lat="47.36109" lon="-1.33033">
        <ele>111</ele>
        <time>2021-01-10T13:36:44.000Z</time>
      </trkpt>
      <trkpt lat="47.36118" lon="-1.33025">
        <ele>111</ele>
        <time>2021-01-10T13:36:46.000Z</time>
      </trkpt>
      <trkpt lat="47.36127" lon="-1.33015">
        <ele>112</ele>
        <time>2021-01-10T13:36:48.000Z</time>
      </trkpt>
      <trkpt lat="47.36135" lon="-1.33006">
        <ele>112</ele>
        <time>2021-01-10T13:36:50.000Z</time>
      </trkpt>
      <trkpt lat="47.36144" lon="-1.32997">
        <ele>112</ele>
        <time>2021-01-10T13:36:52.000Z</time>
      </trkpt>
      <trkpt lat="47.36153" lon="-1.32988">
        <ele>112</ele>
        <time>2021-01-10T13:36:54.000Z</time>
      </trkpt>
      <trkpt lat="47.36162" lon="-1.3298">
        <ele>112</ele>
        <time>2021-01-10T13:36:56.000Z</time>
      </trkpt>
      <trkpt lat="47.3617" lon="-1.32971">
        <ele>112</ele>
        <time>2021-01-10T13:36:58.000Z</time>
      </trkpt>
      <trkpt lat="47.36179" lon="-1.32963">
        <ele>111</ele>
        <time>2021-01-10T13:37:00.000Z</time>
      </trkpt>
      <trkpt lat="47.36188" lon="-1.32954">
        <ele>111</ele>
        <time>2021-01-10T13:37:02.000Z</time>
      </trkpt>
      <trkpt lat="47.36197" lon="-1.32945">
        <ele>111</ele>
        <time>2021-01-10T13:37:04.000Z</time>
      </trkpt>
      <trkpt lat="47.36207" lon="-1.32937">
        <ele>111</ele>
        <time>2021-01-10T13:37:06.000Z</time>
      </trkpt>
      <trkpt lat="47.36216" lon="-1.32928">
        <ele>111</ele>
        <time>2021-01-10T13:37:08.000Z</time>
      </trkpt>
      <trkpt lat="47.36225" lon="-1.32919">
        <ele>111</ele>
        <time>2021-01-10T13:37:10.000Z</time>
      </trkpt>
      <trkpt lat="47.36233" lon="-1.3291">
        <ele>111</ele>
        <time>2021-01-10T13:37:12.000Z</time>
      </trkpt>
      <trkpt lat="47.36242" lon="-1.329">
        <ele>111</ele>
        <time>2021-01-10T13:37:14.000Z</time>
      </trkpt>
      <trkpt lat="47.36251" lon="-1.32891">
        <ele>111</ele>
        <time>2021-01-10T13:37:16.000Z</time>
      </trkpt>
      <trkpt lat="47.3626" lon="-1.32881">
        <ele>110</ele>
        <time>2021-01-10T13:37:18.000Z</time>
      </trkpt>
      <trkpt lat="47.3627" lon="-1.32872">
        <ele>110</ele>
        <time>2021-01-10T13:37:20.000Z</time>
      </trkpt>
      <trkpt lat="47.36279" lon="-1.32862">
        <ele>110</ele>
        <time>2021-01-10T13:37:22.000Z</time>
      </trkpt>
      <trkpt lat="47.36289" lon="-1.32853">
        <ele>110</ele>
        <time>2021-01-10T13:37:24.000Z</time>
      </trkpt>
      <trkpt lat="47.36299" lon="-1.32843">
        <ele>110</ele>
        <time>2021-01-10T13:37:26.000Z</time>
      </trkpt>
      <trkpt lat="47.36309" lon="-1.32833">
        <ele>109</ele>
        <time>2021-01-10T13:37:28.000Z</time>
      </trkpt>
      <trkpt lat="47.36319" lon="-1.32823">
        <ele>109</ele>
        <time>2021-01-10T13:37:30.000Z</time>
      </trkpt>
      <trkpt lat="47.36328" lon="-1.32813">
        <ele>108</ele>
        <time>2021-01-10T13:37:32.000Z</time>
      </trkpt>
      <trkpt lat="47.36338" lon="-1.32803">
        <ele>108</ele>
        <time>2021-01-10T13:37:34.000Z</time>
      </trkpt>
      <trkpt lat="47.36348" lon="-1.32793">
        <ele>108</ele>
        <time>2021-01-10T13:37:36.000Z</time>
      </trkpt>
      <trkpt lat="47.36358" lon="-1.32783">
        <ele>107</ele>
        <time>2021-01-10T13:37:38.000Z</time>
      </trkpt>
      <trkpt lat="47.36368" lon="-1.32773">
        <ele>107</ele>
        <time>2021-01-10T13:37:40.000Z</time>
      </trkpt>
      <trkpt lat="47.36378" lon="-1.32763">
        <ele>106</ele>
        <time>2021-01-10T13:37:42.000Z</time>
      </trkpt>
      <trkpt lat="47.36389" lon="-1.32752">
        <ele>106</ele>
        <time>2021-01-10T13:37:44.000Z</time>
      </trkpt>
      <trkpt lat="47.364" lon="-1.32741">
        <ele>105</ele>
        <time>2021-01-10T13:37:46.000Z</time>
      </trkpt>
      <trkpt lat="47.3641" lon="-1.3273">
        <ele>105</ele>
        <time>2021-01-10T13:37:48.000Z</time>
      </trkpt>
      <trkpt lat="47.36421" lon="-1.32718">
        <ele>104</ele>
        <time>2021-01-10T13:37:50.000Z</time>
      </trkpt>
      <trkpt lat="47.36433" lon="-1.32707">
        <ele>104</ele>
        <time>2021-01-10T13:37:52.000Z</time>
      </trkpt>
      <trkpt lat="47.36443" lon="-1.32696">
        <ele>103</ele>
        <time>2021-01-10T13:37:54.000Z</time>
      </trkpt>
      <trkpt lat="47.36453" lon="-1.32687">
        <ele>103</ele>
        <time>2021-01-10T13:37:56.000Z</time>
      </trkpt>
      <trkpt lat="47.36461" lon="-1.32678">
        <ele>103</ele>
        <time>2021-01-10T13:37:58.000Z</time>
      </trkpt>
      <trkpt lat="47.3647" lon="-1.32671">
        <ele>104</ele>
        <time>2021-01-10T13:38:00.000Z</time>
      </trkpt>
      <trkpt lat="47.36481" lon="-1.3266">
        <ele>104</ele>
        <time>2021-01-10T13:38:03.000Z</time>
      </trkpt>
      <trkpt lat="47.36492" lon="-1.32649">
        <ele>105</ele>
        <time>2021-01-10T13:38:06.000Z</time>
      </trkpt>
      <trkpt lat="47.36502" lon="-1.32638">
        <ele>106</ele>
        <time>2021-01-10T13:38:09.000Z</time>
      </trkpt>
      <trkpt lat="47.36512" lon="-1.32628">
        <ele>106</ele>
        <time>2021-01-10T13:38:12.000Z</time>
      </trkpt>
      <trkpt lat="47.36522" lon="-1.32617">
        <ele>107</ele>
        <time>2021-01-10T13:38:15.000Z</time>
      </trkpt>
      <trkpt lat="47.36533" lon="-1.32606">
        <ele>108</ele>
        <time>2021-01-10T13:38:18.000Z</time>
      </trkpt>
      <trkpt lat="47.36541" lon="-1.32599">
        <ele>109</ele>
        <time>2021-01-10T13:38:20.000Z</time>
      </trkpt>
      <trkpt lat="47.36549" lon="-1.32591">
        <ele>110</ele>
        <time>2021-01-10T13:38:22.000Z</time>
      </trkpt>
      <trkpt lat="47.36557" lon="-1.32583">
        <ele>110</ele>
        <time>2021-01-10T13:38:24.000Z</time>
      </trkpt>
      <trkpt lat="47.36568" lon="-1.32572">
        <ele>110</ele>
        <time>2021-01-10T13:38:27.000Z</time>
      </trkpt>
      <trkpt lat="47.36579" lon="-1.32561">
        <ele>110</ele>
        <time>2021-01-10T13:38:30.000Z</time>
      </trkpt>
      <trkpt lat="47.36586" lon="-1.32553">
        <ele>109</ele>
        <time>2021-01-10T13:38:32.000Z</time>
      </trkpt>
      <trkpt lat="47.36595" lon="-1.32546">
        <ele>110</ele>
        <time>2021-01-10T13:38:34.000Z</time>
      </trkpt>
      <trkpt lat="47.36603" lon="-1.32538">
        <ele>110</ele>
        <time>2021-01-10T13:38:36.000Z</time>
      </trkpt>
      <trkpt lat="47.36611" lon="-1.3253">
        <ele>110</ele>
        <time>2021-01-10T13:38:38.000Z</time>
      </trkpt>
      <trkpt lat="47.36619" lon="-1.32521">
        <ele>110</ele>
        <time>2021-01-10T13:38:40.000Z</time>
      </trkpt>
      <trkpt lat="47.36627" lon="-1.32513">
        <ele>110</ele>
        <time>2021-01-10T13:38:42.000Z</time>
      </trkpt>
      <trkpt lat="47.36636" lon="-1.32505">
        <ele>109</ele>
        <time>2021-01-10T13:38:44.000Z</time>
      </trkpt>
      <trkpt lat="47.36645" lon="-1.32495">
        <ele>109</ele>
        <time>2021-01-10T13:38:46.000Z</time>
      </trkpt>
      <trkpt lat="47.36653" lon="-1.32487">
        <ele>109</ele>
        <time>2021-01-10T13:38:48.000Z</time>
      </trkpt>
      <trkpt lat="47.36663" lon="-1.32478">
        <ele>108</ele>
        <time>2021-01-10T13:38:50.000Z</time>
      </trkpt>
      <trkpt lat="47.36672" lon="-1.32468">
        <ele>109</ele>
        <time>2021-01-10T13:38:52.000Z</time>
      </trkpt>
      <trkpt lat="47.36681" lon="-1.3246">
        <ele>109</ele>
        <time>2021-01-10T13:38:54.000Z</time>
      </trkpt>
      <trkpt lat="47.3669" lon="-1.32451">
        <ele>108</ele>
        <time>2021-01-10T13:38:56.000Z</time>
      </trkpt>
      <trkpt lat="47.36699" lon="-1.32441">
        <ele>108</ele>
        <time>2021-01-10T13:38:58.000Z</time>
      </trkpt>
      <trkpt lat="47.36707" lon="-1.32432">
        <ele>108</ele>
        <time>2021-01-10T13:39:00.000Z</time>
      </trkpt>
      <trkpt lat="47.36716" lon="-1.32423">
        <ele>108</ele>
        <time>2021-01-10T13:39:02.000Z</time>
      </trkpt>
      <trkpt lat="47.36725" lon="-1.32413">
        <ele>109</ele>
        <time>2021-01-10T13:39:04.000Z</time>
      </trkpt>
      <trkpt lat="47.36734" lon="-1.32404">
        <ele>109</ele>
        <time>2021-01-10T13:39:06.000Z</time>
      </trkpt>
      <trkpt lat="47.36743" lon="-1.32396">
        <ele>109</ele>
        <time>2021-01-10T13:39:08.000Z</time>
      </trkpt>
      <trkpt lat="47.36752" lon="-1.32387">
        <ele>108</ele>
        <time>2021-01-10T13:39:10.000Z</time>
      </trkpt>
      <trkpt lat="47.36761" lon="-1.32378">
        <ele>108</ele>
        <time>2021-01-10T13:39:12.000Z</time>
      </trkpt>
      <trkpt lat="47.36771" lon="-1.32369">
        <ele>108</ele>
        <time>2021-01-10T13:39:14.000Z</time>
      </trkpt>
      <trkpt lat="47.3678" lon="-1.3236">
        <ele>108</ele>
        <time>2021-01-10T13:39:16.000Z</time>
      </trkpt>
      <trkpt lat="47.3679" lon="-1.32351">
        <ele>108</ele>
        <time>2021-01-10T13:39:18.000Z</time>
      </trkpt>
      <trkpt lat="47.368" lon="-1.32341">
        <ele>109</ele>
        <time>2021-01-10T13:39:20.000Z</time>
      </trkpt>
      <trkpt lat="47.36809" lon="-1.32331">
        <ele>108</ele>
        <time>2021-01-10T13:39:22.000Z</time>
      </trkpt>
      <trkpt lat="47.36818" lon="-1.32322">
        <ele>108</ele>
        <time>2021-01-10T13:39:24.000Z</time>
      </trkpt>
      <trkpt lat="47.36828" lon="-1.32312">
        <ele>108</ele>
        <time>2021-01-10T13:39:26.000Z</time>
      </trkpt>
      <trkpt lat="47.36837" lon="-1.32301">
        <ele>108</ele>
        <time>2021-01-10T13:39:28.000Z</time>
      </trkpt>
      <trkpt lat="47.36847" lon="-1.32292">
        <ele>108</ele>
        <time>2021-01-10T13:39:30.000Z</time>
      </trkpt>
      <trkpt lat="47.36856" lon="-1.32283">
        <ele>108</ele>
        <time>2021-01-10T13:39:32.000Z</time>
      </trkpt>
      <trkpt lat="47.36867" lon="-1.32273">
        <ele>108</ele>
        <time>2021-01-10T13:39:34.000Z</time>
      </trkpt>
      <trkpt lat="47.36877" lon="-1.32263">
        <ele>108</ele>
        <time>2021-01-10T13:39:36.000Z</time>
      </trkpt>
      <trkpt lat="47.36886" lon="-1.32254">
        <ele>108</ele>
        <time>2021-01-10T13:39:38.000Z</time>
      </trkpt>
      <trkpt lat="47.36896" lon="-1.32244">
        <ele>107</ele>
        <time>2021-01-10T13:39:40.000Z</time>
      </trkpt>
      <trkpt lat="47.36906" lon="-1.32233">
        <ele>107</ele>
        <time>2021-01-10T13:39:42.000Z</time>
      </trkpt>
      <trkpt lat="47.36916" lon="-1.32223">
        <ele>107</ele>
        <time>2021-01-10T13:39:44.000Z</time>
      </trkpt>
      <trkpt lat="47.36926" lon="-1.32213">
        <ele>107</ele>
        <time>2021-01-10T13:39:46.000Z</time>
      </trkpt>
      <trkpt lat="47.36936" lon="-1.32204">
        <ele>107</ele>
        <time>2021-01-10T13:39:48.000Z</time>
      </trkpt>
      <trkpt lat="47.36946" lon="-1.32194">
        <ele>107</ele>
        <time>2021-01-10T13:39:50.000Z</time>
      </trkpt>
      <trkpt lat="47.36957" lon="-1.32184">
        <ele>107</ele>
        <time>2021-01-10T13:39:52.000Z</time>
      </trkpt>
      <trkpt lat="47.36967" lon="-1.32173">
        <ele>107</ele>
        <time>2021-01-10T13:39:54.000Z</time>
      </trkpt>
      <trkpt lat="47.36978" lon="-1.32163">
        <ele>106</ele>
        <time>2021-01-10T13:39:56.000Z</time>
      </trkpt>
      <trkpt lat="47.36988" lon="-1.32153">
        <ele>105</ele>
        <time>2021-01-10T13:39:58.000Z</time>
      </trkpt>
      <trkpt lat="47.36998" lon="-1.32143">
        <ele>104</ele>
        <time>2021-01-10T13:40:00.000Z</time>
      </trkpt>
      <trkpt lat="47.37009" lon="-1.32133">
        <ele>103</ele>
        <time>2021-01-10T13:40:02.000Z</time>
      </trkpt>
      <trkpt lat="47.37019" lon="-1.32123">
        <ele>102</ele>
        <time>2021-01-10T13:40:04.000Z</time>
      </trkpt>
      <trkpt lat="47.37029" lon="-1.32112">
        <ele>102</ele>
        <time>2021-01-10T13:40:06.000Z</time>
      </trkpt>
      <trkpt lat="47.3704" lon="-1.32102">
        <ele>102</ele>
        <time>2021-01-10T13:40:08.000Z</time>
      </trkpt>
      <trkpt lat="47.3705" lon="-1.32091">
        <ele>101</ele>
        <time>2021-01-10T13:40:10.000Z</time>
      </trkpt>
      <trkpt lat="47.37061" lon="-1.3208">
        <ele>100</ele>
        <time>2021-01-10T13:40:12.000Z</time>
      </trkpt>
      <trkpt lat="47.37072" lon="-1.3207">
        <ele>100</ele>
        <time>2021-01-10T13:40:14.000Z</time>
      </trkpt>
      <trkpt lat="47.37082" lon="-1.3206">
        <ele>100</ele>
        <time>2021-01-10T13:40:16.000Z</time>
      </trkpt>
      <trkpt lat="47.37092" lon="-1.32049">
        <ele>99</ele>
        <time>2021-01-10T13:40:18.000Z</time>
      </trkpt>
      <trkpt lat="47.37103" lon="-1.3204">
        <ele>99</ele>
        <time>2021-01-10T13:40:20.000Z</time>
      </trkpt>
      <trkpt lat="47.37113" lon="-1.32028">
        <ele>98</ele>
        <time>2021-01-10T13:40:22.000Z</time>
      </trkpt>
      <trkpt lat="47.37124" lon="-1.32018">
        <ele>97</ele>
        <time>2021-01-10T13:40:24.000Z</time>
      </trkpt>
      <trkpt lat="47.37134" lon="-1.32007">
        <ele>97</ele>
        <time>2021-01-10T13:40:26.000Z</time>
      </trkpt>
      <trkpt lat="47.37146" lon="-1.31997">
        <ele>96</ele>
        <time>2021-01-10T13:40:28.000Z</time>
      </trkpt>
      <trkpt lat="47.37156" lon="-1.31986">
        <ele>96</ele>
        <time>2021-01-10T13:40:30.000Z</time>
      </trkpt>
      <trkpt lat="47.37166" lon="-1.31975">
        <ele>95</ele>
        <time>2021-01-10T13:40:32.000Z</time>
      </trkpt>
      <trkpt lat="47.37177" lon="-1.31966">
        <ele>95</ele>
        <time>2021-01-10T13:40:34.000Z</time>
      </trkpt>
      <trkpt lat="47.37187" lon="-1.31955">
        <ele>94</ele>
        <time>2021-01-10T13:40:36.000Z</time>
      </trkpt>
      <trkpt lat="47.37197" lon="-1.31946">
        <ele>93</ele>
        <time>2021-01-10T13:40:38.000Z</time>
      </trkpt>
      <trkpt lat="47.37206" lon="-1.31937">
        <ele>93</ele>
        <time>2021-01-10T13:40:40.000Z</time>
      </trkpt>
      <trkpt lat="47.37214" lon="-1.31928">
        <ele>93</ele>
        <time>2021-01-10T13:40:42.000Z</time>
      </trkpt>
      <trkpt lat="47.37222" lon="-1.3192">
        <ele>93</ele>
        <time>2021-01-10T13:40:44.000Z</time>
      </trkpt>
      <trkpt lat="47.37228" lon="-1.31908">
        <ele>93</ele>
        <time>2021-01-10T13:40:47.000Z</time>
      </trkpt>
      <trkpt lat="47.37224" lon="-1.31894">
        <ele>93</ele>
        <time>2021-01-10T13:40:51.000Z</time>
      </trkpt>
      <trkpt lat="47.37213" lon="-1.3189">
        <ele>95</ele>
        <time>2021-01-10T13:43:26.000Z</time>
      </trkpt>
      <trkpt lat="47.372" lon="-1.31889">
        <ele>96</ele>
        <time>2021-01-10T13:43:29.000Z</time>
      </trkpt>
      <trkpt lat="47.37187" lon="-1.31886">
        <ele>97</ele>
        <time>2021-01-10T13:43:32.000Z</time>
      </trkpt>
      <trkpt lat="47.37176" lon="-1.31879">
        <ele>97</ele>
        <time>2021-01-10T13:43:34.000Z</time>
      </trkpt>
      <trkpt lat="47.37169" lon="-1.31865">
        <ele>97</ele>
        <time>2021-01-10T13:43:36.000Z</time>
      </trkpt>
      <trkpt lat="47.37163" lon="-1.31849">
        <ele>97</ele>
        <time>2021-01-10T13:43:38.000Z</time>
      </trkpt>
      <trkpt lat="47.3716" lon="-1.31832">
        <ele>98</ele>
        <time>2021-01-10T13:43:40.000Z</time>
      </trkpt>
      <trkpt lat="47.37156" lon="-1.31816">
        <ele>99</ele>
        <time>2021-01-10T13:43:42.000Z</time>
      </trkpt>
      <trkpt lat="47.37151" lon="-1.318">
        <ele>99</ele>
        <time>2021-01-10T13:43:44.000Z</time>
      </trkpt>
      <trkpt lat="47.37143" lon="-1.31788">
        <ele>99</ele>
        <time>2021-01-10T13:43:46.000Z</time>
      </trkpt>
      <trkpt lat="47.37133" lon="-1.31778">
        <ele>99</ele>
        <time>2021-01-10T13:43:48.000Z</time>
      </trkpt>
      <trkpt lat="47.37123" lon="-1.3177">
        <ele>99</ele>
        <time>2021-01-10T13:43:50.000Z</time>
      </trkpt>
      <trkpt lat="47.37111" lon="-1.31765">
        <ele>99</ele>
        <time>2021-01-10T13:43:52.000Z</time>
      </trkpt>
      <trkpt lat="47.37099" lon="-1.31758">
        <ele>99</ele>
        <time>2021-01-10T13:43:54.000Z</time>
      </trkpt>
      <trkpt lat="47.37088" lon="-1.31751">
        <ele>99</ele>
        <time>2021-01-10T13:43:56.000Z</time>
      </trkpt>
      <trkpt lat="47.37077" lon="-1.31743">
        <ele>99</ele>
        <time>2021-01-10T13:43:58.000Z</time>
      </trkpt>
      <trkpt lat="47.37065" lon="-1.31734">
        <ele>99</ele>
        <time>2021-01-10T13:44:00.000Z</time>
      </trkpt>
      <trkpt lat="47.37055" lon="-1.31726">
        <ele>99</ele>
        <time>2021-01-10T13:44:02.000Z</time>
      </trkpt>
      <trkpt lat="47.37045" lon="-1.31717">
        <ele>99</ele>
        <time>2021-01-10T13:44:04.000Z</time>
      </trkpt>
      <trkpt lat="47.37033" lon="-1.31708">
        <ele>99</ele>
        <time>2021-01-10T13:44:06.000Z</time>
      </trkpt>
      <trkpt lat="47.37022" lon="-1.31701">
        <ele>99</ele>
        <time>2021-01-10T13:44:08.000Z</time>
      </trkpt>
      <trkpt lat="47.37011" lon="-1.31693">
        <ele>99</ele>
        <time>2021-01-10T13:44:10.000Z</time>
      </trkpt>
      <trkpt lat="47.37" lon="-1.31687">
        <ele>99</ele>
        <time>2021-01-10T13:44:12.000Z</time>
      </trkpt>
      <trkpt lat="47.36988" lon="-1.31681">
        <ele>99</ele>
        <time>2021-01-10T13:44:14.000Z</time>
      </trkpt>
      <trkpt lat="47.36976" lon="-1.31675">
        <ele>98</ele>
        <time>2021-01-10T13:44:16.000Z</time>
      </trkpt>
      <trkpt lat="47.36965" lon="-1.31668">
        <ele>98</ele>
        <time>2021-01-10T13:44:18.000Z</time>
      </trkpt>
      <trkpt lat="47.36952" lon="-1.31661">
        <ele>97</ele>
        <time>2021-01-10T13:44:20.000Z</time>
      </trkpt>
      <trkpt lat="47.36941" lon="-1.31655">
        <ele>98</ele>
        <time>2021-01-10T13:44:22.000Z</time>
      </trkpt>
      <trkpt lat="47.3693" lon="-1.31647">
        <ele>98</ele>
        <time>2021-01-10T13:44:24.000Z</time>
      </trkpt>
      <trkpt lat="47.36921" lon="-1.31636">
        <ele>98</ele>
        <time>2021-01-10T13:44:26.000Z</time>
      </trkpt>
      <trkpt lat="47.36913" lon="-1.31623">
        <ele>99</ele>
        <time>2021-01-10T13:44:28.000Z</time>
      </trkpt>
      <trkpt lat="47.36908" lon="-1.31609">
        <ele>99</ele>
        <time>2021-01-10T13:44:30.000Z</time>
      </trkpt>
      <trkpt lat="47.36904" lon="-1.31594">
        <ele>100</ele>
        <time>2021-01-10T13:44:32.000Z</time>
      </trkpt>
      <trkpt lat="47.36902" lon="-1.31578">
        <ele>100</ele>
        <time>2021-01-10T13:44:34.000Z</time>
      </trkpt>
      <trkpt lat="47.369" lon="-1.31561">
        <ele>101</ele>
        <time>2021-01-10T13:44:36.000Z</time>
      </trkpt>
      <trkpt lat="47.36898" lon="-1.31545">
        <ele>102</ele>
        <time>2021-01-10T13:44:38.000Z</time>
      </trkpt>
      <trkpt lat="47.36897" lon="-1.31528">
        <ele>102</ele>
        <time>2021-01-10T13:44:40.000Z</time>
      </trkpt>
      <trkpt lat="47.36895" lon="-1.31511">
        <ele>103</ele>
        <time>2021-01-10T13:44:42.000Z</time>
      </trkpt>
      <trkpt lat="47.36893" lon="-1.31494">
        <ele>103</ele>
        <time>2021-01-10T13:44:44.000Z</time>
      </trkpt>
      <trkpt lat="47.36892" lon="-1.31477">
        <ele>103</ele>
        <time>2021-01-10T13:44:46.000Z</time>
      </trkpt>
      <trkpt lat="47.36891" lon="-1.31461">
        <ele>103</ele>
        <time>2021-01-10T13:44:48.000Z</time>
      </trkpt>
      <trkpt lat="47.3689" lon="-1.31443">
        <ele>103</ele>
        <time>2021-01-10T13:44:50.000Z</time>
      </trkpt>
      <trkpt lat="47.36888" lon="-1.31426">
        <ele>104</ele>
        <time>2021-01-10T13:44:52.000Z</time>
      </trkpt>
      <trkpt lat="47.36886" lon="-1.31409">
        <ele>104</ele>
        <time>2021-01-10T13:44:54.000Z</time>
      </trkpt>
      <trkpt lat="47.36885" lon="-1.31394">
        <ele>104</ele>
        <time>2021-01-10T13:44:56.000Z</time>
      </trkpt>
      <trkpt lat="47.36883" lon="-1.31377">
        <ele>105</ele>
        <time>2021-01-10T13:44:58.000Z</time>
      </trkpt>
      <trkpt lat="47.36883" lon="-1.31361">
        <ele>105</ele>
        <time>2021-01-10T13:45:00.000Z</time>
      </trkpt>
      <trkpt lat="47.36881" lon="-1.31345">
        <ele>105</ele>
        <time>2021-01-10T13:45:02.000Z</time>
      </trkpt>
      <trkpt lat="47.36879" lon="-1.31329">
        <ele>106</ele>
        <time>2021-01-10T13:45:04.000Z</time>
      </trkpt>
      <trkpt lat="47.36877" lon="-1.31313">
        <ele>106</ele>
        <time>2021-01-10T13:45:06.000Z</time>
      </trkpt>
      <trkpt lat="47.36875" lon="-1.31297">
        <ele>107</ele>
        <time>2021-01-10T13:45:08.000Z</time>
      </trkpt>
      <trkpt lat="47.36874" lon="-1.31282">
        <ele>107</ele>
        <time>2021-01-10T13:45:10.000Z</time>
      </trkpt>
      <trkpt lat="47.36872" lon="-1.31266">
        <ele>106</ele>
        <time>2021-01-10T13:45:12.000Z</time>
      </trkpt>
      <trkpt lat="47.36871" lon="-1.31249">
        <ele>107</ele>
        <time>2021-01-10T13:45:14.000Z</time>
      </trkpt>
      <trkpt lat="47.36869" lon="-1.31233">
        <ele>108</ele>
        <time>2021-01-10T13:45:16.000Z</time>
      </trkpt>
      <trkpt lat="47.36866" lon="-1.31216">
        <ele>107</ele>
        <time>2021-01-10T13:45:18.000Z</time>
      </trkpt>
      <trkpt lat="47.36865" lon="-1.312">
        <ele>107</ele>
        <time>2021-01-10T13:45:20.000Z</time>
      </trkpt>
      <trkpt lat="47.36863" lon="-1.31184">
        <ele>108</ele>
        <time>2021-01-10T13:45:22.000Z</time>
      </trkpt>
      <trkpt lat="47.36861" lon="-1.31169">
        <ele>109</ele>
        <time>2021-01-10T13:45:24.000Z</time>
      </trkpt>
      <trkpt lat="47.3686" lon="-1.31153">
        <ele>109</ele>
        <time>2021-01-10T13:45:26.000Z</time>
      </trkpt>
      <trkpt lat="47.36859" lon="-1.31136">
        <ele>109</ele>
        <time>2021-01-10T13:45:28.000Z</time>
      </trkpt>
      <trkpt lat="47.36857" lon="-1.3112">
        <ele>110</ele>
        <time>2021-01-10T13:45:30.000Z</time>
      </trkpt>
      <trkpt lat="47.36855" lon="-1.31104">
        <ele>110</ele>
        <time>2021-01-10T13:45:32.000Z</time>
      </trkpt>
      <trkpt lat="47.36853" lon="-1.31089">
        <ele>110</ele>
        <time>2021-01-10T13:45:34.000Z</time>
      </trkpt>
      <trkpt lat="47.36849" lon="-1.31073">
        <ele>110</ele>
        <time>2021-01-10T13:45:36.000Z</time>
      </trkpt>
      <trkpt lat="47.36841" lon="-1.31061">
        <ele>110</ele>
        <time>2021-01-10T13:45:38.000Z</time>
      </trkpt>
      <trkpt lat="47.3683" lon="-1.31053">
        <ele>110</ele>
        <time>2021-01-10T13:45:40.000Z</time>
      </trkpt>
      <trkpt lat="47.36819" lon="-1.3105">
        <ele>110</ele>
        <time>2021-01-10T13:45:42.000Z</time>
      </trkpt>
      <trkpt lat="47.36808" lon="-1.3105">
        <ele>110</ele>
        <time>2021-01-10T13:45:44.000Z</time>
      </trkpt>
      <trkpt lat="47.36797" lon="-1.31053">
        <ele>110</ele>
        <time>2021-01-10T13:45:46.000Z</time>
      </trkpt>
      <trkpt lat="47.36785" lon="-1.31055">
        <ele>109</ele>
        <time>2021-01-10T13:45:48.000Z</time>
      </trkpt>
      <trkpt lat="47.36773" lon="-1.31056">
        <ele>109</ele>
        <time>2021-01-10T13:45:50.000Z</time>
      </trkpt>
      <trkpt lat="47.36761" lon="-1.31059">
        <ele>108</ele>
        <time>2021-01-10T13:45:52.000Z</time>
      </trkpt>
      <trkpt lat="47.3675" lon="-1.31065">
        <ele>108</ele>
        <time>2021-01-10T13:45:54.000Z</time>
      </trkpt>
      <trkpt lat="47.36739" lon="-1.31073">
        <ele>107</ele>
        <time>2021-01-10T13:45:56.000Z</time>
      </trkpt>
      <trkpt lat="47.36728" lon="-1.31082">
        <ele>108</ele>
        <time>2021-01-10T13:45:58.000Z</time>
      </trkpt>
      <trkpt lat="47.36717" lon="-1.31091">
        <ele>108</ele>
        <time>2021-01-10T13:46:00.000Z</time>
      </trkpt>
      <trkpt lat="47.36708" lon="-1.31101">
        <ele>108</ele>
        <time>2021-01-10T13:46:02.000Z</time>
      </trkpt>
      <trkpt lat="47.36699" lon="-1.31113">
        <ele>107</ele>
        <time>2021-01-10T13:46:04.000Z</time>
      </trkpt>
      <trkpt lat="47.36689" lon="-1.31124">
        <ele>108</ele>
        <time>2021-01-10T13:46:06.000Z</time>
      </trkpt>
      <trkpt lat="47.3668" lon="-1.31135">
        <ele>108</ele>
        <time>2021-01-10T13:46:08.000Z</time>
      </trkpt>
      <trkpt lat="47.36669" lon="-1.31144">
        <ele>108</ele>
        <time>2021-01-10T13:46:10.000Z</time>
      </trkpt>
      <trkpt lat="47.36659" lon="-1.31152">
        <ele>109</ele>
        <time>2021-01-10T13:46:12.000Z</time>
      </trkpt>
      <trkpt lat="47.36647" lon="-1.3116">
        <ele>109</ele>
        <time>2021-01-10T13:46:14.000Z</time>
      </trkpt>
      <trkpt lat="47.36637" lon="-1.31167">
        <ele>109</ele>
        <time>2021-01-10T13:46:16.000Z</time>
      </trkpt>
      <trkpt lat="47.36626" lon="-1.31175">
        <ele>109</ele>
        <time>2021-01-10T13:46:18.000Z</time>
      </trkpt>
      <trkpt lat="47.36614" lon="-1.31182">
        <ele>109</ele>
        <time>2021-01-10T13:46:20.000Z</time>
      </trkpt>
      <trkpt lat="47.36603" lon="-1.31189">
        <ele>109</ele>
        <time>2021-01-10T13:46:22.000Z</time>
      </trkpt>
      <trkpt lat="47.36593" lon="-1.31196">
        <ele>110</ele>
        <time>2021-01-10T13:46:24.000Z</time>
      </trkpt>
      <trkpt lat="47.36581" lon="-1.31203">
        <ele>110</ele>
        <time>2021-01-10T13:46:26.000Z</time>
      </trkpt>
      <trkpt lat="47.3657" lon="-1.31211">
        <ele>110</ele>
        <time>2021-01-10T13:46:28.000Z</time>
      </trkpt>
      <trkpt lat="47.3656" lon="-1.31219">
        <ele>110</ele>
        <time>2021-01-10T13:46:30.000Z</time>
      </trkpt>
      <trkpt lat="47.3655" lon="-1.31226">
        <ele>111</ele>
        <time>2021-01-10T13:46:32.000Z</time>
      </trkpt>
      <trkpt lat="47.36539" lon="-1.31233">
        <ele>111</ele>
        <time>2021-01-10T13:46:34.000Z</time>
      </trkpt>
      <trkpt lat="47.36528" lon="-1.31241">
        <ele>111</ele>
        <time>2021-01-10T13:46:36.000Z</time>
      </trkpt>
      <trkpt lat="47.36518" lon="-1.31248">
        <ele>111</ele>
        <time>2021-01-10T13:46:38.000Z</time>
      </trkpt>
      <trkpt lat="47.36507" lon="-1.31253">
        <ele>111</ele>
        <time>2021-01-10T13:46:40.000Z</time>
      </trkpt>
      <trkpt lat="47.36497" lon="-1.31257">
        <ele>112</ele>
        <time>2021-01-10T13:46:42.000Z</time>
      </trkpt>
      <trkpt lat="47.36486" lon="-1.31262">
        <ele>112</ele>
        <time>2021-01-10T13:46:44.000Z</time>
      </trkpt>
      <trkpt lat="47.36474" lon="-1.31265">
        <ele>113</ele>
        <time>2021-01-10T13:46:46.000Z</time>
      </trkpt>
      <trkpt lat="47.36462" lon="-1.31268">
        <ele>113</ele>
        <time>2021-01-10T13:46:48.000Z</time>
      </trkpt>
      <trkpt lat="47.3645" lon="-1.3127">
        <ele>114</ele>
        <time>2021-01-10T13:46:50.000Z</time>
      </trkpt>
      <trkpt lat="47.36439" lon="-1.31271">
        <ele>114</ele>
        <time>2021-01-10T13:46:52.000Z</time>
      </trkpt>
      <trkpt lat="47.36427" lon="-1.3127">
        <ele>114</ele>
        <time>2021-01-10T13:46:54.000Z</time>
      </trkpt>
      <trkpt lat="47.36416" lon="-1.3127">
        <ele>114</ele>
        <time>2021-01-10T13:46:56.000Z</time>
      </trkpt>
      <trkpt lat="47.36405" lon="-1.3127">
        <ele>114</ele>
        <time>2021-01-10T13:46:58.000Z</time>
      </trkpt>
      <trkpt lat="47.36393" lon="-1.31268">
        <ele>114</ele>
        <time>2021-01-10T13:47:00.000Z</time>
      </trkpt>
      <trkpt lat="47.36383" lon="-1.31268">
        <ele>114</ele>
        <time>2021-01-10T13:47:02.000Z</time>
      </trkpt>
      <trkpt lat="47.36371" lon="-1.31266">
        <ele>114</ele>
        <time>2021-01-10T13:47:04.000Z</time>
      </trkpt>
      <trkpt lat="47.36359" lon="-1.31265">
        <ele>114</ele>
        <time>2021-01-10T13:47:06.000Z</time>
      </trkpt>
      <trkpt lat="47.36348" lon="-1.31264">
        <ele>114</ele>
        <time>2021-01-10T13:47:08.000Z</time>
      </trkpt>
      <trkpt lat="47.36336" lon="-1.31264">
        <ele>114</ele>
        <time>2021-01-10T13:47:10.000Z</time>
      </trkpt>
      <trkpt lat="47.36324" lon="-1.31266">
        <ele>114</ele>
        <time>2021-01-10T13:47:12.000Z</time>
      </trkpt>
      <trkpt lat="47.36312" lon="-1.31269">
        <ele>114</ele>
        <time>2021-01-10T13:47:14.000Z</time>
      </trkpt>
      <trkpt lat="47.363" lon="-1.31275">
        <ele>113</ele>
        <time>2021-01-10T13:47:16.000Z</time>
      </trkpt>
      <trkpt lat="47.36289" lon="-1.31282">
        <ele>113</ele>
        <time>2021-01-10T13:47:18.000Z</time>
      </trkpt>
      <trkpt lat="47.36278" lon="-1.31292">
        <ele>114</ele>
        <time>2021-01-10T13:47:20.000Z</time>
      </trkpt>
      <trkpt lat="47.36269" lon="-1.31304">
        <ele>114</ele>
        <time>2021-01-10T13:47:22.000Z</time>
      </trkpt>
      <trkpt lat="47.3626" lon="-1.31317">
        <ele>114</ele>
        <time>2021-01-10T13:47:24.000Z</time>
      </trkpt>
      <trkpt lat="47.36252" lon="-1.31332">
        <ele>114</ele>
        <time>2021-01-10T13:47:26.000Z</time>
      </trkpt>
      <trkpt lat="47.36245" lon="-1.31347">
        <ele>114</ele>
        <time>2021-01-10T13:47:28.000Z</time>
      </trkpt>
      <trkpt lat="47.36239" lon="-1.31363">
        <ele>114</ele>
        <time>2021-01-10T13:47:30.000Z</time>
      </trkpt>
      <trkpt lat="47.36233" lon="-1.31379">
        <ele>115</ele>
        <time>2021-01-10T13:47:32.000Z</time>
      </trkpt>
      <trkpt lat="47.36228" lon="-1.31396">
        <ele>115</ele>
        <time>2021-01-10T13:47:34.000Z</time>
      </trkpt>
      <trkpt lat="47.36222" lon="-1.31413">
        <ele>115</ele>
        <time>2021-01-10T13:47:36.000Z</time>
      </trkpt>
      <trkpt lat="47.36215" lon="-1.31429">
        <ele>116</ele>
        <time>2021-01-10T13:47:38.000Z</time>
      </trkpt>
      <trkpt lat="47.36208" lon="-1.31443">
        <ele>116</ele>
        <time>2021-01-10T13:47:40.000Z</time>
      </trkpt>
      <trkpt lat="47.362" lon="-1.31457">
        <ele>116</ele>
        <time>2021-01-10T13:47:42.000Z</time>
      </trkpt>
      <trkpt lat="47.36189" lon="-1.31469">
        <ele>116</ele>
        <time>2021-01-10T13:47:44.000Z</time>
      </trkpt>
      <trkpt lat="47.36178" lon="-1.31479">
        <ele>116</ele>
        <time>2021-01-10T13:47:46.000Z</time>
      </trkpt>
      <trkpt lat="47.36167" lon="-1.31488">
        <ele>117</ele>
        <time>2021-01-10T13:47:48.000Z</time>
      </trkpt>
      <trkpt lat="47.36155" lon="-1.31495">
        <ele>117</ele>
        <time>2021-01-10T13:47:50.000Z</time>
      </trkpt>
      <trkpt lat="47.36142" lon="-1.31502">
        <ele>116</ele>
        <time>2021-01-10T13:47:52.000Z</time>
      </trkpt>
      <trkpt lat="47.3613" lon="-1.31508">
        <ele>116</ele>
        <time>2021-01-10T13:47:54.000Z</time>
      </trkpt>
      <trkpt lat="47.36118" lon="-1.31512">
        <ele>116</ele>
        <time>2021-01-10T13:47:56.000Z</time>
      </trkpt>
      <trkpt lat="47.36105" lon="-1.31517">
        <ele>116</ele>
        <time>2021-01-10T13:47:58.000Z</time>
      </trkpt>
      <trkpt lat="47.36093" lon="-1.31521">
        <ele>116</ele>
        <time>2021-01-10T13:48:00.000Z</time>
      </trkpt>
      <trkpt lat="47.36081" lon="-1.31525">
        <ele>116</ele>
        <time>2021-01-10T13:48:02.000Z</time>
      </trkpt>
      <trkpt lat="47.36069" lon="-1.3153">
        <ele>116</ele>
        <time>2021-01-10T13:48:04.000Z</time>
      </trkpt>
      <trkpt lat="47.36058" lon="-1.31533">
        <ele>116</ele>
        <time>2021-01-10T13:48:06.000Z</time>
      </trkpt>
      <trkpt lat="47.36048" lon="-1.31529">
        <ele>116</ele>
        <time>2021-01-10T13:48:08.000Z</time>
      </trkpt>
      <trkpt lat="47.36042" lon="-1.31515">
        <ele>116</ele>
        <time>2021-01-10T13:48:10.000Z</time>
      </trkpt>
      <trkpt lat="47.36046" lon="-1.31498">
        <ele>117</ele>
        <time>2021-01-10T13:48:12.000Z</time>
      </trkpt>
      <trkpt lat="47.36051" lon="-1.31481">
        <ele>118</ele>
        <time>2021-01-10T13:48:14.000Z</time>
      </trkpt>
      <trkpt lat="47.36052" lon="-1.31462">
        <ele>117</ele>
        <time>2021-01-10T13:48:16.000Z</time>
      </trkpt>
      <trkpt lat="47.36053" lon="-1.31443">
        <ele>117</ele>
        <time>2021-01-10T13:48:18.000Z</time>
      </trkpt>
      <trkpt lat="47.36054" lon="-1.31424">
        <ele>117</ele>
        <time>2021-01-10T13:48:20.000Z</time>
      </trkpt>
      <trkpt lat="47.36055" lon="-1.31405">
        <ele>117</ele>
        <time>2021-01-10T13:48:22.000Z</time>
      </trkpt>
      <trkpt lat="47.36056" lon="-1.31387">
        <ele>118</ele>
        <time>2021-01-10T13:48:24.000Z</time>
      </trkpt>
      <trkpt lat="47.36057" lon="-1.31368">
        <ele>118</ele>
        <time>2021-01-10T13:48:26.000Z</time>
      </trkpt>
      <trkpt lat="47.36058" lon="-1.31349">
        <ele>118</ele>
        <time>2021-01-10T13:48:28.000Z</time>
      </trkpt>
      <trkpt lat="47.36058" lon="-1.31331">
        <ele>117</ele>
        <time>2021-01-10T13:48:30.000Z</time>
      </trkpt>
      <trkpt lat="47.36058" lon="-1.31312">
        <ele>117</ele>
        <time>2021-01-10T13:48:32.000Z</time>
      </trkpt>
      <trkpt lat="47.36057" lon="-1.31293">
        <ele>117</ele>
        <time>2021-01-10T13:48:34.000Z</time>
      </trkpt>
      <trkpt lat="47.36056" lon="-1.31274">
        <ele>118</ele>
        <time>2021-01-10T13:48:36.000Z</time>
      </trkpt>
      <trkpt lat="47.36054" lon="-1.31256">
        <ele>118</ele>
        <time>2021-01-10T13:48:38.000Z</time>
      </trkpt>
      <trkpt lat="47.36053" lon="-1.31237">
        <ele>118</ele>
        <time>2021-01-10T13:48:40.000Z</time>
      </trkpt>
      <trkpt lat="47.3605" lon="-1.3122">
        <ele>118</ele>
        <time>2021-01-10T13:48:42.000Z</time>
      </trkpt>
      <trkpt lat="47.36047" lon="-1.31203">
        <ele>119</ele>
        <time>2021-01-10T13:48:44.000Z</time>
      </trkpt>
      <trkpt lat="47.36043" lon="-1.31185">
        <ele>119</ele>
        <time>2021-01-10T13:48:46.000Z</time>
      </trkpt>
      <trkpt lat="47.3604" lon="-1.31168">
        <ele>119</ele>
        <time>2021-01-10T13:48:48.000Z</time>
      </trkpt>
      <trkpt lat="47.36035" lon="-1.31151">
        <ele>118</ele>
        <time>2021-01-10T13:48:50.000Z</time>
      </trkpt>
      <trkpt lat="47.36031" lon="-1.31133">
        <ele>118</ele>
        <time>2021-01-10T13:48:52.000Z</time>
      </trkpt>
      <trkpt lat="47.36027" lon="-1.31116">
        <ele>118</ele>
        <time>2021-01-10T13:48:54.000Z</time>
      </trkpt>
      <trkpt lat="47.36022" lon="-1.31099">
        <ele>118</ele>
        <time>2021-01-10T13:48:56.000Z</time>
      </trkpt>
      <trkpt lat="47.36017" lon="-1.31083">
        <ele>118</ele>
        <time>2021-01-10T13:48:58.000Z</time>
      </trkpt>
      <trkpt lat="47.36011" lon="-1.31067">
        <ele>118</ele>
        <time>2021-01-10T13:49:00.000Z</time>
      </trkpt>
      <trkpt lat="47.36005" lon="-1.3105">
        <ele>118</ele>
        <time>2021-01-10T13:49:02.000Z</time>
      </trkpt>
      <trkpt lat="47.36" lon="-1.31035">
        <ele>118</ele>
        <time>2021-01-10T13:49:04.000Z</time>
      </trkpt>
      <trkpt lat="47.35995" lon="-1.31019">
        <ele>118</ele>
        <time>2021-01-10T13:49:06.000Z</time>
      </trkpt>
      <trkpt lat="47.35989" lon="-1.31002">
        <ele>118</ele>
        <time>2021-01-10T13:49:08.000Z</time>
      </trkpt>
      <trkpt lat="47.35984" lon="-1.30985">
        <ele>118</ele>
        <time>2021-01-10T13:49:10.000Z</time>
      </trkpt>
      <trkpt lat="47.35977" lon="-1.30967">
        <ele>118</ele>
        <time>2021-01-10T13:49:12.000Z</time>
      </trkpt>
      <trkpt lat="47.35972" lon="-1.3095">
        <ele>118</ele>
        <time>2021-01-10T13:49:14.000Z</time>
      </trkpt>
      <trkpt lat="47.35966" lon="-1.30933">
        <ele>117</ele>
        <time>2021-01-10T13:49:16.000Z</time>
      </trkpt>
      <trkpt lat="47.3596" lon="-1.30916">
        <ele>117</ele>
        <time>2021-01-10T13:49:18.000Z</time>
      </trkpt>
      <trkpt lat="47.35955" lon="-1.30898">
        <ele>116</ele>
        <time>2021-01-10T13:49:20.000Z</time>
      </trkpt>
      <trkpt lat="47.3595" lon="-1.30881">
        <ele>117</ele>
        <time>2021-01-10T13:49:22.000Z</time>
      </trkpt>
      <trkpt lat="47.35944" lon="-1.30864">
        <ele>117</ele>
        <time>2021-01-10T13:49:24.000Z</time>
      </trkpt>
      <trkpt lat="47.35938" lon="-1.30848">
        <ele>117</ele>
        <time>2021-01-10T13:49:26.000Z</time>
      </trkpt>
      <trkpt lat="47.35933" lon="-1.30832">
        <ele>117</ele>
        <time>2021-01-10T13:49:28.000Z</time>
      </trkpt>
      <trkpt lat="47.35927" lon="-1.30816">
        <ele>116</ele>
        <time>2021-01-10T13:49:30.000Z</time>
      </trkpt>
      <trkpt lat="47.3592" lon="-1.308">
        <ele>116</ele>
        <time>2021-01-10T13:49:32.000Z</time>
      </trkpt>
      <trkpt lat="47.35914" lon="-1.30783">
        <ele>116</ele>
        <time>2021-01-10T13:49:34.000Z</time>
      </trkpt>
      <trkpt lat="47.35908" lon="-1.30766">
        <ele>116</ele>
        <time>2021-01-10T13:49:36.000Z</time>
      </trkpt>
      <trkpt lat="47.35901" lon="-1.3075">
        <ele>115</ele>
        <time>2021-01-10T13:49:38.000Z</time>
      </trkpt>
      <trkpt lat="47.35894" lon="-1.30733">
        <ele>114</ele>
        <time>2021-01-10T13:49:40.000Z</time>
      </trkpt>
      <trkpt lat="47.35888" lon="-1.30717">
        <ele>114</ele>
        <time>2021-01-10T13:49:42.000Z</time>
      </trkpt>
      <trkpt lat="47.35881" lon="-1.307">
        <ele>114</ele>
        <time>2021-01-10T13:49:44.000Z</time>
      </trkpt>
      <trkpt lat="47.35875" lon="-1.30684">
        <ele>114</ele>
        <time>2021-01-10T13:49:46.000Z</time>
      </trkpt>
      <trkpt lat="47.35868" lon="-1.30667">
        <ele>113</ele>
        <time>2021-01-10T13:49:48.000Z</time>
      </trkpt>
      <trkpt lat="47.35861" lon="-1.30651">
        <ele>113</ele>
        <time>2021-01-10T13:49:50.000Z</time>
      </trkpt>
      <trkpt lat="47.35854" lon="-1.30634">
        <ele>113</ele>
        <time>2021-01-10T13:49:52.000Z</time>
      </trkpt>
      <trkpt lat="47.35848" lon="-1.30617">
        <ele>113</ele>
        <time>2021-01-10T13:49:54.000Z</time>
      </trkpt>
      <trkpt lat="47.35842" lon="-1.30601">
        <ele>113</ele>
        <time>2021-01-10T13:49:56.000Z</time>
      </trkpt>
      <trkpt lat="47.35836" lon="-1.30584">
        <ele>112</ele>
        <time>2021-01-10T13:49:58.000Z</time>
      </trkpt>
      <trkpt lat="47.3583" lon="-1.30568">
        <ele>112</ele>
        <time>2021-01-10T13:50:00.000Z</time>
      </trkpt>
      <trkpt lat="47.35823" lon="-1.30552">
        <ele>112</ele>
        <time>2021-01-10T13:50:02.000Z</time>
      </trkpt>
      <trkpt lat="47.35817" lon="-1.30535">
        <ele>111</ele>
        <time>2021-01-10T13:50:04.000Z</time>
      </trkpt>
      <trkpt lat="47.3581" lon="-1.30519">
        <ele>111</ele>
        <time>2021-01-10T13:50:06.000Z</time>
      </trkpt>
      <trkpt lat="47.35803" lon="-1.30504">
        <ele>111</ele>
        <time>2021-01-10T13:50:08.000Z</time>
      </trkpt>
      <trkpt lat="47.35797" lon="-1.3049">
        <ele>110</ele>
        <time>2021-01-10T13:50:10.000Z</time>
      </trkpt>
      <trkpt lat="47.35792" lon="-1.30477">
        <ele>111</ele>
        <time>2021-01-10T13:50:12.000Z</time>
      </trkpt>
      <trkpt lat="47.35786" lon="-1.30463">
        <ele>111</ele>
        <time>2021-01-10T13:50:14.000Z</time>
      </trkpt>
      <trkpt lat="47.3578" lon="-1.30448">
        <ele>112</ele>
        <time>2021-01-10T13:50:16.000Z</time>
      </trkpt>
      <trkpt lat="47.35773" lon="-1.30434">
        <ele>112</ele>
        <time>2021-01-10T13:50:18.000Z</time>
      </trkpt>
      <trkpt lat="47.35766" lon="-1.30418">
        <ele>112</ele>
        <time>2021-01-10T13:50:20.000Z</time>
      </trkpt>
      <trkpt lat="47.35758" lon="-1.30405">
        <ele>111</ele>
        <time>2021-01-10T13:50:22.000Z</time>
      </trkpt>
      <trkpt lat="47.3575" lon="-1.30391">
        <ele>111</ele>
        <time>2021-01-10T13:50:24.000Z</time>
      </trkpt>
      <trkpt lat="47.35743" lon="-1.30377">
        <ele>111</ele>
        <time>2021-01-10T13:50:26.000Z</time>
      </trkpt>
      <trkpt lat="47.35736" lon="-1.30364">
        <ele>111</ele>
        <time>2021-01-10T13:50:28.000Z</time>
      </trkpt>
      <trkpt lat="47.35728" lon="-1.30352">
        <ele>111</ele>
        <time>2021-01-10T13:50:30.000Z</time>
      </trkpt>
      <trkpt lat="47.35719" lon="-1.30342">
        <ele>111</ele>
        <time>2021-01-10T13:50:33.000Z</time>
      </trkpt>
      <trkpt lat="47.35715" lon="-1.30327">
        <ele>111</ele>
        <time>2021-01-10T13:51:59.000Z</time>
      </trkpt>
      <trkpt lat="47.35707" lon="-1.30315">
        <ele>112</ele>
        <time>2021-01-10T13:52:02.000Z</time>
      </trkpt>
      <trkpt lat="47.357" lon="-1.30305">
        <ele>111</ele>
        <time>2021-01-10T13:52:04.000Z</time>
      </trkpt>
      <trkpt lat="47.35692" lon="-1.30294">
        <ele>111</ele>
        <time>2021-01-10T13:52:06.000Z</time>
      </trkpt>
      <trkpt lat="47.35684" lon="-1.30283">
        <ele>111</ele>
        <time>2021-01-10T13:52:08.000Z</time>
      </trkpt>
      <trkpt lat="47.35675" lon="-1.30271">
        <ele>111</ele>
        <time>2021-01-10T13:52:10.000Z</time>
      </trkpt>
      <trkpt lat="47.35665" lon="-1.30262">
        <ele>111</ele>
        <time>2021-01-10T13:52:12.000Z</time>
      </trkpt>
      <trkpt lat="47.35653" lon="-1.30255">
        <ele>111</ele>
        <time>2021-01-10T13:52:14.000Z</time>
      </trkpt>
      <trkpt lat="47.35641" lon="-1.30246">
        <ele>111</ele>
        <time>2021-01-10T13:52:16.000Z</time>
      </trkpt>
      <trkpt lat="47.3563" lon="-1.30238">
        <ele>111</ele>
        <time>2021-01-10T13:52:18.000Z</time>
      </trkpt>
      <trkpt lat="47.35619" lon="-1.30232">
        <ele>111</ele>
        <time>2021-01-10T13:52:20.000Z</time>
      </trkpt>
      <trkpt lat="47.35609" lon="-1.30225">
        <ele>111</ele>
        <time>2021-01-10T13:52:22.000Z</time>
      </trkpt>
      <trkpt lat="47.35599" lon="-1.30217">
        <ele>111</ele>
        <time>2021-01-10T13:52:24.000Z</time>
      </trkpt>
      <trkpt lat="47.35589" lon="-1.30209">
        <ele>112</ele>
        <time>2021-01-10T13:52:26.000Z</time>
      </trkpt>
      <trkpt lat="47.35578" lon="-1.302">
        <ele>111</ele>
        <time>2021-01-10T13:52:28.000Z</time>
      </trkpt>
      <trkpt lat="47.35568" lon="-1.30191">
        <ele>111</ele>
        <time>2021-01-10T13:52:30.000Z</time>
      </trkpt>
      <trkpt lat="47.35557" lon="-1.30182">
        <ele>111</ele>
        <time>2021-01-10T13:52:32.000Z</time>
      </trkpt>
      <trkpt lat="47.35547" lon="-1.30173">
        <ele>112</ele>
        <time>2021-01-10T13:52:34.000Z</time>
      </trkpt>
      <trkpt lat="47.35536" lon="-1.30164">
        <ele>112</ele>
        <time>2021-01-10T13:52:36.000Z</time>
      </trkpt>
      <trkpt lat="47.35526" lon="-1.30154">
        <ele>112</ele>
        <time>2021-01-10T13:52:38.000Z</time>
      </trkpt>
      <trkpt lat="47.35515" lon="-1.30144">
        <ele>112</ele>
        <time>2021-01-10T13:52:40.000Z</time>
      </trkpt>
      <trkpt lat="47.35504" lon="-1.30135">
        <ele>112</ele>
        <time>2021-01-10T13:52:42.000Z</time>
      </trkpt>
      <trkpt lat="47.35492" lon="-1.30124">
        <ele>113</ele>
        <time>2021-01-10T13:52:44.000Z</time>
      </trkpt>
      <trkpt lat="47.35481" lon="-1.30114">
        <ele>113</ele>
        <time>2021-01-10T13:52:46.000Z</time>
      </trkpt>
      <trkpt lat="47.35469" lon="-1.30105">
        <ele>113</ele>
        <time>2021-01-10T13:52:48.000Z</time>
      </trkpt>
      <trkpt lat="47.35457" lon="-1.30096">
        <ele>113</ele>
        <time>2021-01-10T13:52:50.000Z</time>
      </trkpt>
      <trkpt lat="47.35446" lon="-1.3009">
        <ele>113</ele>
        <time>2021-01-10T13:52:52.000Z</time>
      </trkpt>
      <trkpt lat="47.35434" lon="-1.30083">
        <ele>113</ele>
        <time>2021-01-10T13:52:54.000Z</time>
      </trkpt>
      <trkpt lat="47.35422" lon="-1.30077">
        <ele>113</ele>
        <time>2021-01-10T13:52:56.000Z</time>
      </trkpt>
      <trkpt lat="47.3541" lon="-1.3007">
        <ele>113</ele>
        <time>2021-01-10T13:52:58.000Z</time>
      </trkpt>
      <trkpt lat="47.35397" lon="-1.30064">
        <ele>113</ele>
        <time>2021-01-10T13:53:00.000Z</time>
      </trkpt>
      <trkpt lat="47.35385" lon="-1.30058">
        <ele>113</ele>
        <time>2021-01-10T13:53:02.000Z</time>
      </trkpt>
      <trkpt lat="47.35373" lon="-1.30052">
        <ele>113</ele>
        <time>2021-01-10T13:53:04.000Z</time>
      </trkpt>
      <trkpt lat="47.35361" lon="-1.30047">
        <ele>113</ele>
        <time>2021-01-10T13:53:06.000Z</time>
      </trkpt>
      <trkpt lat="47.35348" lon="-1.30043">
        <ele>113</ele>
        <time>2021-01-10T13:53:08.000Z</time>
      </trkpt>
      <trkpt lat="47.35336" lon="-1.30038">
        <ele>113</ele>
        <time>2021-01-10T13:53:10.000Z</time>
      </trkpt>
      <trkpt lat="47.35324" lon="-1.30033">
        <ele>113</ele>
        <time>2021-01-10T13:53:12.000Z</time>
      </trkpt>
      <trkpt lat="47.35312" lon="-1.30028">
        <ele>113</ele>
        <time>2021-01-10T13:53:14.000Z</time>
      </trkpt>
      <trkpt lat="47.353" lon="-1.30023">
        <ele>113</ele>
        <time>2021-01-10T13:53:16.000Z</time>
      </trkpt>
      <trkpt lat="47.35288" lon="-1.30018">
        <ele>114</ele>
        <time>2021-01-10T13:53:18.000Z</time>
      </trkpt>
      <trkpt lat="47.35276" lon="-1.30012">
        <ele>114</ele>
        <time>2021-01-10T13:53:20.000Z</time>
      </trkpt>
      <trkpt lat="47.35264" lon="-1.30007">
        <ele>115</ele>
        <time>2021-01-10T13:53:22.000Z</time>
      </trkpt>
      <trkpt lat="47.35252" lon="-1.30002">
        <ele>115</ele>
        <time>2021-01-10T13:53:24.000Z</time>
      </trkpt>
      <trkpt lat="47.3524" lon="-1.29996">
        <ele>114</ele>
        <time>2021-01-10T13:53:26.000Z</time>
      </trkpt>
      <trkpt lat="47.35229" lon="-1.2999">
        <ele>114</ele>
        <time>2021-01-10T13:53:28.000Z</time>
      </trkpt>
      <trkpt lat="47.35217" lon="-1.29984">
        <ele>114</ele>
        <time>2021-01-10T13:53:30.000Z</time>
      </trkpt>
      <trkpt lat="47.35205" lon="-1.29979">
        <ele>114</ele>
        <time>2021-01-10T13:53:32.000Z</time>
      </trkpt>
      <trkpt lat="47.35194" lon="-1.29975">
        <ele>114</ele>
        <time>2021-01-10T13:53:34.000Z</time>
      </trkpt>
      <trkpt lat="47.35182" lon="-1.2997">
        <ele>114</ele>
        <time>2021-01-10T13:53:36.000Z</time>
      </trkpt>
      <trkpt lat="47.35172" lon="-1.29963">
        <ele>115</ele>
        <time>2021-01-10T13:53:38.000Z</time>
      </trkpt>
      <trkpt lat="47.35168" lon="-1.29947">
        <ele>115</ele>
        <time>2021-01-10T13:53:40.000Z</time>
      </trkpt>
      <trkpt lat="47.35163" lon="-1.29931">
        <ele>114</ele>
        <time>2021-01-10T13:53:42.000Z</time>
      </trkpt>
      <trkpt lat="47.35156" lon="-1.29917">
        <ele>114</ele>
        <time>2021-01-10T13:53:44.000Z</time>
      </trkpt>
      <trkpt lat="47.35146" lon="-1.29903">
        <ele>115</ele>
        <time>2021-01-10T13:53:46.000Z</time>
      </trkpt>
      <trkpt lat="47.35137" lon="-1.29891">
        <ele>114</ele>
        <time>2021-01-10T13:53:48.000Z</time>
      </trkpt>
      <trkpt lat="47.35128" lon="-1.29878">
        <ele>114</ele>
        <time>2021-01-10T13:53:50.000Z</time>
      </trkpt>
      <trkpt lat="47.35119" lon="-1.29864">
        <ele>114</ele>
        <time>2021-01-10T13:53:52.000Z</time>
      </trkpt>
      <trkpt lat="47.35111" lon="-1.2985">
        <ele>114</ele>
        <time>2021-01-10T13:53:54.000Z</time>
      </trkpt>
      <trkpt lat="47.35103" lon="-1.29836">
        <ele>113</ele>
        <time>2021-01-10T13:53:56.000Z</time>
      </trkpt>
      <trkpt lat="47.35094" lon="-1.29822">
        <ele>113</ele>
        <time>2021-01-10T13:53:58.000Z</time>
      </trkpt>
      <trkpt lat="47.35087" lon="-1.29807">
        <ele>113</ele>
        <time>2021-01-10T13:54:00.000Z</time>
      </trkpt>
      <trkpt lat="47.35078" lon="-1.29793">
        <ele>113</ele>
        <time>2021-01-10T13:54:02.000Z</time>
      </trkpt>
      <trkpt lat="47.35069" lon="-1.29779">
        <ele>112</ele>
        <time>2021-01-10T13:54:04.000Z</time>
      </trkpt>
      <trkpt lat="47.3506" lon="-1.29765">
        <ele>112</ele>
        <time>2021-01-10T13:54:06.000Z</time>
      </trkpt>
      <trkpt lat="47.35051" lon="-1.29751">
        <ele>112</ele>
        <time>2021-01-10T13:54:08.000Z</time>
      </trkpt>
      <trkpt lat="47.35042" lon="-1.29736">
        <ele>112</ele>
        <time>2021-01-10T13:54:10.000Z</time>
      </trkpt>
      <trkpt lat="47.35034" lon="-1.29721">
        <ele>112</ele>
        <time>2021-01-10T13:54:12.000Z</time>
      </trkpt>
      <trkpt lat="47.35027" lon="-1.29705">
        <ele>111</ele>
        <time>2021-01-10T13:54:14.000Z</time>
      </trkpt>
      <trkpt lat="47.3502" lon="-1.29689">
        <ele>111</ele>
        <time>2021-01-10T13:54:16.000Z</time>
      </trkpt>
      <trkpt lat="47.35014" lon="-1.29673">
        <ele>111</ele>
        <time>2021-01-10T13:54:18.000Z</time>
      </trkpt>
      <trkpt lat="47.35008" lon="-1.29657">
        <ele>111</ele>
        <time>2021-01-10T13:54:20.000Z</time>
      </trkpt>
      <trkpt lat="47.35001" lon="-1.29642">
        <ele>111</ele>
        <time>2021-01-10T13:54:22.000Z</time>
      </trkpt>
      <trkpt lat="47.34994" lon="-1.29627">
        <ele>111</ele>
        <time>2021-01-10T13:54:24.000Z</time>
      </trkpt>
      <trkpt lat="47.34986" lon="-1.29612">
        <ele>111</ele>
        <time>2021-01-10T13:54:26.000Z</time>
      </trkpt>
      <trkpt lat="47.34978" lon="-1.29599">
        <ele>112</ele>
        <time>2021-01-10T13:54:28.000Z</time>
      </trkpt>
      <trkpt lat="47.34969" lon="-1.29584">
        <ele>113</ele>
        <time>2021-01-10T13:54:30.000Z</time>
      </trkpt>
      <trkpt lat="47.34961" lon="-1.2957">
        <ele>113</ele>
        <time>2021-01-10T13:54:32.000Z</time>
      </trkpt>
      <trkpt lat="47.34951" lon="-1.29557">
        <ele>113</ele>
        <time>2021-01-10T13:54:34.000Z</time>
      </trkpt>
      <trkpt lat="47.34942" lon="-1.29543">
        <ele>113</ele>
        <time>2021-01-10T13:54:36.000Z</time>
      </trkpt>
      <trkpt lat="47.34934" lon="-1.2953">
        <ele>113</ele>
        <time>2021-01-10T13:54:38.000Z</time>
      </trkpt>
      <trkpt lat="47.34924" lon="-1.29516">
        <ele>113</ele>
        <time>2021-01-10T13:54:40.000Z</time>
      </trkpt>
      <trkpt lat="47.34915" lon="-1.29504">
        <ele>113</ele>
        <time>2021-01-10T13:54:42.000Z</time>
      </trkpt>
      <trkpt lat="47.34907" lon="-1.29492">
        <ele>113</ele>
        <time>2021-01-10T13:54:44.000Z</time>
      </trkpt>
      <trkpt lat="47.34898" lon="-1.29479">
        <ele>113</ele>
        <time>2021-01-10T13:54:46.000Z</time>
      </trkpt>
      <trkpt lat="47.34888" lon="-1.29468">
        <ele>113</ele>
        <time>2021-01-10T13:54:48.000Z</time>
      </trkpt>
      <trkpt lat="47.34879" lon="-1.29455">
        <ele>113</ele>
        <time>2021-01-10T13:54:50.000Z</time>
      </trkpt>
      <trkpt lat="47.3487" lon="-1.29442">
        <ele>113</ele>
        <time>2021-01-10T13:54:52.000Z</time>
      </trkpt>
      <trkpt lat="47.34862" lon="-1.2943">
        <ele>112</ele>
        <time>2021-01-10T13:54:54.000Z</time>
      </trkpt>
      <trkpt lat="47.34852" lon="-1.29416">
        <ele>111</ele>
        <time>2021-01-10T13:54:56.000Z</time>
      </trkpt>
      <trkpt lat="47.34843" lon="-1.29402">
        <ele>111</ele>
        <time>2021-01-10T13:54:58.000Z</time>
      </trkpt>
      <trkpt lat="47.34835" lon="-1.29388">
        <ele>111</ele>
        <time>2021-01-10T13:55:00.000Z</time>
      </trkpt>
      <trkpt lat="47.34826" lon="-1.29374">
        <ele>111</ele>
        <time>2021-01-10T13:55:02.000Z</time>
      </trkpt>
      <trkpt lat="47.34818" lon="-1.29359">
        <ele>110</ele>
        <time>2021-01-10T13:55:04.000Z</time>
      </trkpt>
      <trkpt lat="47.34808" lon="-1.29347">
        <ele>110</ele>
        <time>2021-01-10T13:55:06.000Z</time>
      </trkpt>
      <trkpt lat="47.34796" lon="-1.29334">
        <ele>109</ele>
        <time>2021-01-10T13:55:08.000Z</time>
      </trkpt>
      <trkpt lat="47.34784" lon="-1.29321">
        <ele>108</ele>
        <time>2021-01-10T13:55:10.000Z</time>
      </trkpt>
      <trkpt lat="47.3477" lon="-1.29309">
        <ele>106</ele>
        <time>2021-01-10T13:55:12.000Z</time>
      </trkpt>
      <trkpt lat="47.34754" lon="-1.29297">
        <ele>104</ele>
        <time>2021-01-10T13:55:14.000Z</time>
      </trkpt>
      <trkpt lat="47.34739" lon="-1.29287">
        <ele>102</ele>
        <time>2021-01-10T13:55:16.000Z</time>
      </trkpt>
      <trkpt lat="47.34725" lon="-1.29282">
        <ele>100</ele>
        <time>2021-01-10T13:55:18.000Z</time>
      </trkpt>
      <trkpt lat="47.34716" lon="-1.29276">
        <ele>99</ele>
        <time>2021-01-10T13:55:19.000Z</time>
      </trkpt>
      <trkpt lat="47.34707" lon="-1.29268">
        <ele>97</ele>
        <time>2021-01-10T13:55:20.000Z</time>
      </trkpt>
      <trkpt lat="47.34698" lon="-1.29259">
        <ele>94</ele>
        <time>2021-01-10T13:55:21.000Z</time>
      </trkpt>
      <trkpt lat="47.34689" lon="-1.2925">
        <ele>93</ele>
        <time>2021-01-10T13:55:22.000Z</time>
      </trkpt>
      <trkpt lat="47.34681" lon="-1.29242">
        <ele>91</ele>
        <time>2021-01-10T13:55:23.000Z</time>
      </trkpt>
      <trkpt lat="47.34666" lon="-1.29227">
        <ele>89</ele>
        <time>2021-01-10T13:55:25.000Z</time>
      </trkpt>
      <trkpt lat="47.34658" lon="-1.29219">
        <ele>87</ele>
        <time>2021-01-10T13:55:26.000Z</time>
      </trkpt>
      <trkpt lat="47.34651" lon="-1.29211">
        <ele>86</ele>
        <time>2021-01-10T13:55:27.000Z</time>
      </trkpt>
      <trkpt lat="47.34643" lon="-1.29203">
        <ele>84</ele>
        <time>2021-01-10T13:55:28.000Z</time>
      </trkpt>
      <trkpt lat="47.3463" lon="-1.2919">
        <ele>82</ele>
        <time>2021-01-10T13:55:30.000Z</time>
      </trkpt>
      <trkpt lat="47.34619" lon="-1.29181">
        <ele>80</ele>
        <time>2021-01-10T13:55:32.000Z</time>
      </trkpt>
      <trkpt lat="47.34608" lon="-1.29166">
        <ele>78</ele>
        <time>2021-01-10T13:55:34.000Z</time>
      </trkpt>
      <trkpt lat="47.34599" lon="-1.2915">
        <ele>76</ele>
        <time>2021-01-10T13:55:36.000Z</time>
      </trkpt>
      <trkpt lat="47.34593" lon="-1.29138">
        <ele>75</ele>
        <time>2021-01-10T13:55:38.000Z</time>
      </trkpt>
      <trkpt lat="47.34584" lon="-1.2913">
        <ele>73</ele>
        <time>2021-01-10T13:55:41.000Z</time>
      </trkpt>
      <trkpt lat="47.34574" lon="-1.29138">
        <ele>71</ele>
        <time>2021-01-10T13:55:44.000Z</time>
      </trkpt>
      <trkpt lat="47.34563" lon="-1.29137">
        <ele>71</ele>
        <time>2021-01-10T13:55:49.000Z</time>
      </trkpt>
      <trkpt lat="47.34554" lon="-1.29129">
        <ele>72</ele>
        <time>2021-01-10T13:55:52.000Z</time>
      </trkpt>
      <trkpt lat="47.34545" lon="-1.29116">
        <ele>72</ele>
        <time>2021-01-10T13:55:55.000Z</time>
      </trkpt>
      <trkpt lat="47.34538" lon="-1.29104">
        <ele>71</ele>
        <time>2021-01-10T13:55:57.000Z</time>
      </trkpt>
      <trkpt lat="47.34529" lon="-1.29094">
        <ele>71</ele>
        <time>2021-01-10T13:55:59.000Z</time>
      </trkpt>
      <trkpt lat="47.34522" lon="-1.29085">
        <ele>71</ele>
        <time>2021-01-10T13:56:01.000Z</time>
      </trkpt>
      <trkpt lat="47.34516" lon="-1.29075">
        <ele>70</ele>
        <time>2021-01-10T13:56:03.000Z</time>
      </trkpt>
      <trkpt lat="47.34508" lon="-1.29063">
        <ele>69</ele>
        <time>2021-01-10T13:56:06.000Z</time>
      </trkpt>
      <trkpt lat="47.34497" lon="-1.29051">
        <ele>69</ele>
        <time>2021-01-10T13:56:09.000Z</time>
      </trkpt>
      <trkpt lat="47.34488" lon="-1.29043">
        <ele>68</ele>
        <time>2021-01-10T13:56:11.000Z</time>
      </trkpt>
      <trkpt lat="47.3448" lon="-1.29035">
        <ele>67</ele>
        <time>2021-01-10T13:56:14.000Z</time>
      </trkpt>
      <trkpt lat="47.34475" lon="-1.29021">
        <ele>66</ele>
        <time>2021-01-10T13:56:19.000Z</time>
      </trkpt>
      <trkpt lat="47.3448" lon="-1.29009">
        <ele>65</ele>
        <time>2021-01-10T13:56:21.000Z</time>
      </trkpt>
      <trkpt lat="47.34485" lon="-1.28997">
        <ele>64</ele>
        <time>2021-01-10T13:56:23.000Z</time>
      </trkpt>
      <trkpt lat="47.34491" lon="-1.28986">
        <ele>63</ele>
        <time>2021-01-10T13:56:25.000Z</time>
      </trkpt>
      <trkpt lat="47.34497" lon="-1.28972">
        <ele>63</ele>
        <time>2021-01-10T13:56:27.000Z</time>
      </trkpt>
      <trkpt lat="47.34504" lon="-1.2896">
        <ele>63</ele>
        <time>2021-01-10T13:56:29.000Z</time>
      </trkpt>
      <trkpt lat="47.34511" lon="-1.28948">
        <ele>62</ele>
        <time>2021-01-10T13:56:31.000Z</time>
      </trkpt>
      <trkpt lat="47.34518" lon="-1.28937">
        <ele>62</ele>
        <time>2021-01-10T13:56:33.000Z</time>
      </trkpt>
      <trkpt lat="47.34526" lon="-1.28924">
        <ele>61</ele>
        <time>2021-01-10T13:56:35.000Z</time>
      </trkpt>
      <trkpt lat="47.34533" lon="-1.28911">
        <ele>60</ele>
        <time>2021-01-10T13:56:37.000Z</time>
      </trkpt>
      <trkpt lat="47.3454" lon="-1.28897">
        <ele>60</ele>
        <time>2021-01-10T13:56:39.000Z</time>
      </trkpt>
      <trkpt lat="47.34546" lon="-1.28883">
        <ele>59</ele>
        <time>2021-01-10T13:56:41.000Z</time>
      </trkpt>
      <trkpt lat="47.34552" lon="-1.28868">
        <ele>58</ele>
        <time>2021-01-10T13:56:43.000Z</time>
      </trkpt>
      <trkpt lat="47.34555" lon="-1.2885">
        <ele>57</ele>
        <time>2021-01-10T13:56:45.000Z</time>
      </trkpt>
      <trkpt lat="47.34558" lon="-1.28831">
        <ele>57</ele>
        <time>2021-01-10T13:56:47.000Z</time>
      </trkpt>
      <trkpt lat="47.34562" lon="-1.28812">
        <ele>56</ele>
        <time>2021-01-10T13:56:49.000Z</time>
      </trkpt>
      <trkpt lat="47.34567" lon="-1.28793">
        <ele>56</ele>
        <time>2021-01-10T13:56:51.000Z</time>
      </trkpt>
      <trkpt lat="47.34572" lon="-1.28774">
        <ele>56</ele>
        <time>2021-01-10T13:56:53.000Z</time>
      </trkpt>
      <trkpt lat="47.34577" lon="-1.28756">
        <ele>56</ele>
        <time>2021-01-10T13:56:55.000Z</time>
      </trkpt>
      <trkpt lat="47.34583" lon="-1.28739">
        <ele>55</ele>
        <time>2021-01-10T13:56:57.000Z</time>
      </trkpt>
      <trkpt lat="47.34588" lon="-1.28722">
        <ele>55</ele>
        <time>2021-01-10T13:56:59.000Z</time>
      </trkpt>
      <trkpt lat="47.34594" lon="-1.28705">
        <ele>55</ele>
        <time>2021-01-10T13:57:01.000Z</time>
      </trkpt>
      <trkpt lat="47.34599" lon="-1.28687">
        <ele>54</ele>
        <time>2021-01-10T13:57:03.000Z</time>
      </trkpt>
      <trkpt lat="47.34607" lon="-1.28671">
        <ele>54</ele>
        <time>2021-01-10T13:57:05.000Z</time>
      </trkpt>
      <trkpt lat="47.34613" lon="-1.28655">
        <ele>54</ele>
        <time>2021-01-10T13:57:07.000Z</time>
      </trkpt>
      <trkpt lat="47.34619" lon="-1.2864">
        <ele>55</ele>
        <time>2021-01-10T13:57:09.000Z</time>
      </trkpt>
      <trkpt lat="47.34627" lon="-1.2863">
        <ele>57</ele>
        <time>2021-01-10T13:57:11.000Z</time>
      </trkpt>
      <trkpt lat="47.34634" lon="-1.2862">
        <ele>58</ele>
        <time>2021-01-10T13:57:13.000Z</time>
      </trkpt>
      <trkpt lat="47.34642" lon="-1.28606">
        <ele>58</ele>
        <time>2021-01-10T13:57:16.000Z</time>
      </trkpt>
      <trkpt lat="47.3464" lon="-1.28589">
        <ele>58</ele>
        <time>2021-01-10T13:57:19.000Z</time>
      </trkpt>
      <trkpt lat="47.3463" lon="-1.28581">
        <ele>58</ele>
        <time>2021-01-10T13:57:21.000Z</time>
      </trkpt>
      <trkpt lat="47.34617" lon="-1.28571">
        <ele>58</ele>
        <time>2021-01-10T13:57:23.000Z</time>
      </trkpt>
      <trkpt lat="47.34605" lon="-1.28561">
        <ele>59</ele>
        <time>2021-01-10T13:57:25.000Z</time>
      </trkpt>
      <trkpt lat="47.34593" lon="-1.2855">
        <ele>59</ele>
        <time>2021-01-10T13:57:27.000Z</time>
      </trkpt>
      <trkpt lat="47.34581" lon="-1.28539">
        <ele>59</ele>
        <time>2021-01-10T13:57:29.000Z</time>
      </trkpt>
      <trkpt lat="47.34569" lon="-1.28529">
        <ele>59</ele>
        <time>2021-01-10T13:57:31.000Z</time>
      </trkpt>
      <trkpt lat="47.34557" lon="-1.28516">
        <ele>59</ele>
        <time>2021-01-10T13:57:33.000Z</time>
      </trkpt>
      <trkpt lat="47.34547" lon="-1.28503">
        <ele>59</ele>
        <time>2021-01-10T13:57:35.000Z</time>
      </trkpt>
      <trkpt lat="47.34538" lon="-1.28488">
        <ele>60</ele>
        <time>2021-01-10T13:57:37.000Z</time>
      </trkpt>
      <trkpt lat="47.3453" lon="-1.28471">
        <ele>60</ele>
        <time>2021-01-10T13:57:39.000Z</time>
      </trkpt>
      <trkpt lat="47.34522" lon="-1.28453">
        <ele>59</ele>
        <time>2021-01-10T13:57:41.000Z</time>
      </trkpt>
      <trkpt lat="47.34517" lon="-1.28433">
        <ele>60</ele>
        <time>2021-01-10T13:57:43.000Z</time>
      </trkpt>
      <trkpt lat="47.34512" lon="-1.28415">
        <ele>60</ele>
        <time>2021-01-10T13:57:45.000Z</time>
      </trkpt>
      <trkpt lat="47.34508" lon="-1.28395">
        <ele>60</ele>
        <time>2021-01-10T13:57:47.000Z</time>
      </trkpt>
      <trkpt lat="47.34505" lon="-1.28376">
        <ele>61</ele>
        <time>2021-01-10T13:57:49.000Z</time>
      </trkpt>
      <trkpt lat="47.34504" lon="-1.28356">
        <ele>61</ele>
        <time>2021-01-10T13:57:51.000Z</time>
      </trkpt>
      <trkpt lat="47.34503" lon="-1.28337">
        <ele>61</ele>
        <time>2021-01-10T13:57:53.000Z</time>
      </trkpt>
      <trkpt lat="47.34504" lon="-1.28316">
        <ele>60</ele>
        <time>2021-01-10T13:57:55.000Z</time>
      </trkpt>
      <trkpt lat="47.34505" lon="-1.28295">
        <ele>60</ele>
        <time>2021-01-10T13:57:57.000Z</time>
      </trkpt>
      <trkpt lat="47.34507" lon="-1.28273">
        <ele>61</ele>
        <time>2021-01-10T13:57:59.000Z</time>
      </trkpt>
      <trkpt lat="47.3451" lon="-1.28253">
        <ele>61</ele>
        <time>2021-01-10T13:58:01.000Z</time>
      </trkpt>
      <trkpt lat="47.34513" lon="-1.28233">
        <ele>61</ele>
        <time>2021-01-10T13:58:03.000Z</time>
      </trkpt>
      <trkpt lat="47.34515" lon="-1.28214">
        <ele>61</ele>
        <time>2021-01-10T13:58:05.000Z</time>
      </trkpt>
      <trkpt lat="47.34517" lon="-1.28194">
        <ele>61</ele>
        <time>2021-01-10T13:58:07.000Z</time>
      </trkpt>
      <trkpt lat="47.34518" lon="-1.28174">
        <ele>61</ele>
        <time>2021-01-10T13:58:09.000Z</time>
      </trkpt>
      <trkpt lat="47.34518" lon="-1.28155">
        <ele>61</ele>
        <time>2021-01-10T13:58:11.000Z</time>
      </trkpt>
      <trkpt lat="47.34516" lon="-1.28137">
        <ele>62</ele>
        <time>2021-01-10T13:58:13.000Z</time>
      </trkpt>
      <trkpt lat="47.34513" lon="-1.2812">
        <ele>62</ele>
        <time>2021-01-10T13:58:15.000Z</time>
      </trkpt>
      <trkpt lat="47.34511" lon="-1.28104">
        <ele>63</ele>
        <time>2021-01-10T13:58:17.000Z</time>
      </trkpt>
      <trkpt lat="47.34507" lon="-1.28089">
        <ele>63</ele>
        <time>2021-01-10T13:58:19.000Z</time>
      </trkpt>
      <trkpt lat="47.34504" lon="-1.28075">
        <ele>64</ele>
        <time>2021-01-10T13:58:21.000Z</time>
      </trkpt>
      <trkpt lat="47.34499" lon="-1.2806">
        <ele>64</ele>
        <time>2021-01-10T13:58:23.000Z</time>
      </trkpt>
      <trkpt lat="47.34494" lon="-1.28047">
        <ele>64</ele>
        <time>2021-01-10T13:58:25.000Z</time>
      </trkpt>
      <trkpt lat="47.34487" lon="-1.28033">
        <ele>65</ele>
        <time>2021-01-10T13:58:27.000Z</time>
      </trkpt>
      <trkpt lat="47.34481" lon="-1.28021">
        <ele>65</ele>
        <time>2021-01-10T13:58:29.000Z</time>
      </trkpt>
      <trkpt lat="47.34474" lon="-1.28008">
        <ele>66</ele>
        <time>2021-01-10T13:58:31.000Z</time>
      </trkpt>
      <trkpt lat="47.34466" lon="-1.27996">
        <ele>66</ele>
        <time>2021-01-10T13:58:33.000Z</time>
      </trkpt>
      <trkpt lat="47.34457" lon="-1.27986">
        <ele>65</ele>
        <time>2021-01-10T13:58:35.000Z</time>
      </trkpt>
      <trkpt lat="47.34449" lon="-1.27977">
        <ele>65</ele>
        <time>2021-01-10T13:58:37.000Z</time>
      </trkpt>
      <trkpt lat="47.34439" lon="-1.2797">
        <ele>65</ele>
        <time>2021-01-10T13:58:39.000Z</time>
      </trkpt>
      <trkpt lat="47.34429" lon="-1.27963">
        <ele>65</ele>
        <time>2021-01-10T13:58:41.000Z</time>
      </trkpt>
      <trkpt lat="47.34418" lon="-1.27956">
        <ele>64</ele>
        <time>2021-01-10T13:58:43.000Z</time>
      </trkpt>
      <trkpt lat="47.34406" lon="-1.2795">
        <ele>64</ele>
        <time>2021-01-10T13:58:45.000Z</time>
      </trkpt>
      <trkpt lat="47.34394" lon="-1.27945">
        <ele>64</ele>
        <time>2021-01-10T13:58:47.000Z</time>
      </trkpt>
      <trkpt lat="47.34383" lon="-1.2794">
        <ele>63</ele>
        <time>2021-01-10T13:58:49.000Z</time>
      </trkpt>
      <trkpt lat="47.34372" lon="-1.27935">
        <ele>63</ele>
        <time>2021-01-10T13:58:51.000Z</time>
      </trkpt>
      <trkpt lat="47.34361" lon="-1.27932">
        <ele>63</ele>
        <time>2021-01-10T13:58:53.000Z</time>
      </trkpt>
      <trkpt lat="47.34348" lon="-1.27927">
        <ele>63</ele>
        <time>2021-01-10T13:58:55.000Z</time>
      </trkpt>
      <trkpt lat="47.34335" lon="-1.27923">
        <ele>62</ele>
        <time>2021-01-10T13:58:57.000Z</time>
      </trkpt>
      <trkpt lat="47.34322" lon="-1.27919">
        <ele>62</ele>
        <time>2021-01-10T13:58:59.000Z</time>
      </trkpt>
      <trkpt lat="47.34309" lon="-1.27916">
        <ele>62</ele>
        <time>2021-01-10T13:59:01.000Z</time>
      </trkpt>
      <trkpt lat="47.34296" lon="-1.27912">
        <ele>62</ele>
        <time>2021-01-10T13:59:03.000Z</time>
      </trkpt>
      <trkpt lat="47.34282" lon="-1.27908">
        <ele>62</ele>
        <time>2021-01-10T13:59:05.000Z</time>
      </trkpt>
      <trkpt lat="47.34269" lon="-1.27904">
        <ele>62</ele>
        <time>2021-01-10T13:59:07.000Z</time>
      </trkpt>
      <trkpt lat="47.34256" lon="-1.27899">
        <ele>62</ele>
        <time>2021-01-10T13:59:09.000Z</time>
      </trkpt>
      <trkpt lat="47.34243" lon="-1.27895">
        <ele>62</ele>
        <time>2021-01-10T13:59:11.000Z</time>
      </trkpt>
      <trkpt lat="47.34229" lon="-1.27891">
        <ele>62</ele>
        <time>2021-01-10T13:59:13.000Z</time>
      </trkpt>
      <trkpt lat="47.34215" lon="-1.27887">
        <ele>62</ele>
        <time>2021-01-10T13:59:15.000Z</time>
      </trkpt>
      <trkpt lat="47.34202" lon="-1.27883">
        <ele>62</ele>
        <time>2021-01-10T13:59:17.000Z</time>
      </trkpt>
      <trkpt lat="47.34189" lon="-1.27879">
        <ele>62</ele>
        <time>2021-01-10T13:59:19.000Z</time>
      </trkpt>
      <trkpt lat="47.34176" lon="-1.27874">
        <ele>62</ele>
        <time>2021-01-10T13:59:21.000Z</time>
      </trkpt>
      <trkpt lat="47.34162" lon="-1.27869">
        <ele>62</ele>
        <time>2021-01-10T13:59:23.000Z</time>
      </trkpt>
      <trkpt lat="47.34148" lon="-1.27865">
        <ele>61</ele>
        <time>2021-01-10T13:59:25.000Z</time>
      </trkpt>
      <trkpt lat="47.34134" lon="-1.27861">
        <ele>61</ele>
        <time>2021-01-10T13:59:27.000Z</time>
      </trkpt>
      <trkpt lat="47.34121" lon="-1.27856">
        <ele>61</ele>
        <time>2021-01-10T13:59:29.000Z</time>
      </trkpt>
      <trkpt lat="47.34107" lon="-1.27852">
        <ele>60</ele>
        <time>2021-01-10T13:59:31.000Z</time>
      </trkpt>
      <trkpt lat="47.34092" lon="-1.27847">
        <ele>61</ele>
        <time>2021-01-10T13:59:33.000Z</time>
      </trkpt>
      <trkpt lat="47.34078" lon="-1.27842">
        <ele>61</ele>
        <time>2021-01-10T13:59:35.000Z</time>
      </trkpt>
      <trkpt lat="47.34063" lon="-1.27839">
        <ele>60</ele>
        <time>2021-01-10T13:59:37.000Z</time>
      </trkpt>
      <trkpt lat="47.34049" lon="-1.27834">
        <ele>61</ele>
        <time>2021-01-10T13:59:39.000Z</time>
      </trkpt>
      <trkpt lat="47.34035" lon="-1.27829">
        <ele>61</ele>
        <time>2021-01-10T13:59:41.000Z</time>
      </trkpt>
      <trkpt lat="47.34021" lon="-1.27826">
        <ele>60</ele>
        <time>2021-01-10T13:59:43.000Z</time>
      </trkpt>
      <trkpt lat="47.34007" lon="-1.27821">
        <ele>60</ele>
        <time>2021-01-10T13:59:45.000Z</time>
      </trkpt>
      <trkpt lat="47.33993" lon="-1.27817">
        <ele>60</ele>
        <time>2021-01-10T13:59:47.000Z</time>
      </trkpt>
      <trkpt lat="47.33979" lon="-1.27813">
        <ele>60</ele>
        <time>2021-01-10T13:59:49.000Z</time>
      </trkpt>
      <trkpt lat="47.33966" lon="-1.27809">
        <ele>60</ele>
        <time>2021-01-10T13:59:51.000Z</time>
      </trkpt>
      <trkpt lat="47.33951" lon="-1.27804">
        <ele>60</ele>
        <time>2021-01-10T13:59:53.000Z</time>
      </trkpt>
      <trkpt lat="47.33937" lon="-1.278">
        <ele>60</ele>
        <time>2021-01-10T13:59:55.000Z</time>
      </trkpt>
      <trkpt lat="47.33923" lon="-1.27796">
        <ele>59</ele>
        <time>2021-01-10T13:59:57.000Z</time>
      </trkpt>
      <trkpt lat="47.3391" lon="-1.27792">
        <ele>59</ele>
        <time>2021-01-10T13:59:59.000Z</time>
      </trkpt>
      <trkpt lat="47.33895" lon="-1.27787">
        <ele>59</ele>
        <time>2021-01-10T14:00:01.000Z</time>
      </trkpt>
      <trkpt lat="47.33882" lon="-1.27783">
        <ele>59</ele>
        <time>2021-01-10T14:00:03.000Z</time>
      </trkpt>
      <trkpt lat="47.33869" lon="-1.27779">
        <ele>59</ele>
        <time>2021-01-10T14:00:05.000Z</time>
      </trkpt>
      <trkpt lat="47.33854" lon="-1.27775">
        <ele>59</ele>
        <time>2021-01-10T14:00:07.000Z</time>
      </trkpt>
      <trkpt lat="47.33841" lon="-1.2777">
        <ele>59</ele>
        <time>2021-01-10T14:00:09.000Z</time>
      </trkpt>
      <trkpt lat="47.33827" lon="-1.27766">
        <ele>58</ele>
        <time>2021-01-10T14:00:11.000Z</time>
      </trkpt>
      <trkpt lat="47.33814" lon="-1.27762">
        <ele>58</ele>
        <time>2021-01-10T14:00:13.000Z</time>
      </trkpt>
      <trkpt lat="47.338" lon="-1.27757">
        <ele>58</ele>
        <time>2021-01-10T14:00:15.000Z</time>
      </trkpt>
      <trkpt lat="47.33787" lon="-1.27753">
        <ele>57</ele>
        <time>2021-01-10T14:00:17.000Z</time>
      </trkpt>
      <trkpt lat="47.33773" lon="-1.27748">
        <ele>57</ele>
        <time>2021-01-10T14:00:19.000Z</time>
      </trkpt>
      <trkpt lat="47.3376" lon="-1.27742">
        <ele>57</ele>
        <time>2021-01-10T14:00:21.000Z</time>
      </trkpt>
      <trkpt lat="47.3375" lon="-1.27734">
        <ele>57</ele>
        <time>2021-01-10T14:00:23.000Z</time>
      </trkpt>
      <trkpt lat="47.33738" lon="-1.27737">
        <ele>56</ele>
        <time>2021-01-10T14:00:28.000Z</time>
      </trkpt>
      <trkpt lat="47.33745" lon="-1.27751">
        <ele>55</ele>
        <time>2021-01-10T14:00:31.000Z</time>
      </trkpt>
      <trkpt lat="47.33756" lon="-1.27755">
        <ele>55</ele>
        <time>2021-01-10T14:00:33.000Z</time>
      </trkpt>
      <trkpt lat="47.33768" lon="-1.27758">
        <ele>55</ele>
        <time>2021-01-10T14:00:35.000Z</time>
      </trkpt>
      <trkpt lat="47.33779" lon="-1.27763">
        <ele>54</ele>
        <time>2021-01-10T14:00:37.000Z</time>
      </trkpt>
      <trkpt lat="47.33791" lon="-1.27766">
        <ele>54</ele>
        <time>2021-01-10T14:00:39.000Z</time>
      </trkpt>
      <trkpt lat="47.33803" lon="-1.2777">
        <ele>54</ele>
        <time>2021-01-10T14:00:41.000Z</time>
      </trkpt>
      <trkpt lat="47.33814" lon="-1.27774">
        <ele>54</ele>
        <time>2021-01-10T14:00:43.000Z</time>
      </trkpt>
      <trkpt lat="47.33826" lon="-1.27777">
        <ele>54</ele>
        <time>2021-01-10T14:00:45.000Z</time>
      </trkpt>
      <trkpt lat="47.33836" lon="-1.2778">
        <ele>55</ele>
        <time>2021-01-10T14:00:47.000Z</time>
      </trkpt>
      <trkpt lat="47.33846" lon="-1.27784">
        <ele>55</ele>
        <time>2021-01-10T14:00:49.000Z</time>
      </trkpt>
      <trkpt lat="47.33856" lon="-1.27787">
        <ele>56</ele>
        <time>2021-01-10T14:00:51.000Z</time>
      </trkpt>
      <trkpt lat="47.33866" lon="-1.2779">
        <ele>56</ele>
        <time>2021-01-10T14:00:53.000Z</time>
      </trkpt>
      <trkpt lat="47.33875" lon="-1.27798">
        <ele>57</ele>
        <time>2021-01-10T14:00:56.000Z</time>
      </trkpt>
      <trkpt lat="47.33876" lon="-1.27817">
        <ele>57</ele>
        <time>2021-01-10T14:00:59.000Z</time>
      </trkpt>
      <trkpt lat="47.33875" lon="-1.27834">
        <ele>56</ele>
        <time>2021-01-10T14:01:01.000Z</time>
      </trkpt>
      <trkpt lat="47.33875" lon="-1.27851">
        <ele>57</ele>
        <time>2021-01-10T14:01:03.000Z</time>
      </trkpt>
      <trkpt lat="47.33874" lon="-1.27868">
        <ele>57</ele>
        <time>2021-01-10T14:01:05.000Z</time>
      </trkpt>
      <trkpt lat="47.33874" lon="-1.27884">
        <ele>57</ele>
        <time>2021-01-10T14:01:07.000Z</time>
      </trkpt>
      <trkpt lat="47.33874" lon="-1.27901">
        <ele>57</ele>
        <time>2021-01-10T14:01:09.000Z</time>
      </trkpt>
      <trkpt lat="47.33874" lon="-1.27919">
        <ele>56</ele>
        <time>2021-01-10T14:01:11.000Z</time>
      </trkpt>
      <trkpt lat="47.33873" lon="-1.27937">
        <ele>56</ele>
        <time>2021-01-10T14:01:13.000Z</time>
      </trkpt>
      <trkpt lat="47.33874" lon="-1.27956">
        <ele>56</ele>
        <time>2021-01-10T14:01:15.000Z</time>
      </trkpt>
      <trkpt lat="47.33873" lon="-1.27973">
        <ele>56</ele>
        <time>2021-01-10T14:01:17.000Z</time>
      </trkpt>
      <trkpt lat="47.33873" lon="-1.27991">
        <ele>56</ele>
        <time>2021-01-10T14:01:19.000Z</time>
      </trkpt>
      <trkpt lat="47.33872" lon="-1.28008">
        <ele>57</ele>
        <time>2021-01-10T14:01:21.000Z</time>
      </trkpt>
      <trkpt lat="47.3387" lon="-1.28025">
        <ele>57</ele>
        <time>2021-01-10T14:01:23.000Z</time>
      </trkpt>
      <trkpt lat="47.33868" lon="-1.28043">
        <ele>57</ele>
        <time>2021-01-10T14:01:25.000Z</time>
      </trkpt>
      <trkpt lat="47.33865" lon="-1.2806">
        <ele>57</ele>
        <time>2021-01-10T14:01:27.000Z</time>
      </trkpt>
      <trkpt lat="47.33864" lon="-1.28077">
        <ele>57</ele>
        <time>2021-01-10T14:01:29.000Z</time>
      </trkpt>
      <trkpt lat="47.33862" lon="-1.28094">
        <ele>57</ele>
        <time>2021-01-10T14:01:31.000Z</time>
      </trkpt>
      <trkpt lat="47.33861" lon="-1.28111">
        <ele>57</ele>
        <time>2021-01-10T14:01:33.000Z</time>
      </trkpt>
      <trkpt lat="47.33858" lon="-1.28129">
        <ele>57</ele>
        <time>2021-01-10T14:01:35.000Z</time>
      </trkpt>
      <trkpt lat="47.33857" lon="-1.28148">
        <ele>57</ele>
        <time>2021-01-10T14:01:37.000Z</time>
      </trkpt>
      <trkpt lat="47.33854" lon="-1.28166">
        <ele>57</ele>
        <time>2021-01-10T14:01:39.000Z</time>
      </trkpt>
      <trkpt lat="47.33852" lon="-1.28186">
        <ele>57</ele>
        <time>2021-01-10T14:01:41.000Z</time>
      </trkpt>
      <trkpt lat="47.33849" lon="-1.28205">
        <ele>57</ele>
        <time>2021-01-10T14:01:43.000Z</time>
      </trkpt>
      <trkpt lat="47.33846" lon="-1.28226">
        <ele>58</ele>
        <time>2021-01-10T14:01:45.000Z</time>
      </trkpt>
      <trkpt lat="47.33843" lon="-1.28243">
        <ele>58</ele>
        <time>2021-01-10T14:01:47.000Z</time>
      </trkpt>
      <trkpt lat="47.3384" lon="-1.28259">
        <ele>58</ele>
        <time>2021-01-10T14:01:49.000Z</time>
      </trkpt>
      <trkpt lat="47.33837" lon="-1.28275">
        <ele>57</ele>
        <time>2021-01-10T14:01:51.000Z</time>
      </trkpt>
      <trkpt lat="47.33834" lon="-1.28292">
        <ele>57</ele>
        <time>2021-01-10T14:01:53.000Z</time>
      </trkpt>
      <trkpt lat="47.33831" lon="-1.28308">
        <ele>57</ele>
        <time>2021-01-10T14:01:55.000Z</time>
      </trkpt>
      <trkpt lat="47.33828" lon="-1.28324">
        <ele>57</ele>
        <time>2021-01-10T14:01:57.000Z</time>
      </trkpt>
      <trkpt lat="47.33825" lon="-1.2834">
        <ele>57</ele>
        <time>2021-01-10T14:01:59.000Z</time>
      </trkpt>
      <trkpt lat="47.33823" lon="-1.28357">
        <ele>56</ele>
        <time>2021-01-10T14:02:01.000Z</time>
      </trkpt>
      <trkpt lat="47.3382" lon="-1.28374">
        <ele>56</ele>
        <time>2021-01-10T14:02:03.000Z</time>
      </trkpt>
      <trkpt lat="47.33819" lon="-1.28391">
        <ele>56</ele>
        <time>2021-01-10T14:02:05.000Z</time>
      </trkpt>
      <trkpt lat="47.33816" lon="-1.28408">
        <ele>55</ele>
        <time>2021-01-10T14:02:07.000Z</time>
      </trkpt>
      <trkpt lat="47.33814" lon="-1.28426">
        <ele>55</ele>
        <time>2021-01-10T14:02:09.000Z</time>
      </trkpt>
      <trkpt lat="47.33812" lon="-1.28445">
        <ele>55</ele>
        <time>2021-01-10T14:02:11.000Z</time>
      </trkpt>
      <trkpt lat="47.3381" lon="-1.28463">
        <ele>55</ele>
        <time>2021-01-10T14:02:13.000Z</time>
      </trkpt>
      <trkpt lat="47.33808" lon="-1.28479">
        <ele>55</ele>
        <time>2021-01-10T14:02:15.000Z</time>
      </trkpt>
      <trkpt lat="47.33806" lon="-1.28496">
        <ele>54</ele>
        <time>2021-01-10T14:02:17.000Z</time>
      </trkpt>
      <trkpt lat="47.33804" lon="-1.28514">
        <ele>54</ele>
        <time>2021-01-10T14:02:19.000Z</time>
      </trkpt>
      <trkpt lat="47.33803" lon="-1.2853">
        <ele>54</ele>
        <time>2021-01-10T14:02:21.000Z</time>
      </trkpt>
      <trkpt lat="47.33806" lon="-1.28542">
        <ele>55</ele>
        <time>2021-01-10T14:02:23.000Z</time>
      </trkpt>
      <trkpt lat="47.33814" lon="-1.28555">
        <ele>56</ele>
        <time>2021-01-10T14:02:25.000Z</time>
      </trkpt>
      <trkpt lat="47.33816" lon="-1.28573">
        <ele>57</ele>
        <time>2021-01-10T14:02:27.000Z</time>
      </trkpt>
      <trkpt lat="47.33808" lon="-1.28585">
        <ele>56</ele>
        <time>2021-01-10T14:02:29.000Z</time>
      </trkpt>
      <trkpt lat="47.33802" lon="-1.28596">
        <ele>57</ele>
        <time>2021-01-10T14:02:31.000Z</time>
      </trkpt>
      <trkpt lat="47.33797" lon="-1.2861">
        <ele>57</ele>
        <time>2021-01-10T14:02:33.000Z</time>
      </trkpt>
      <trkpt lat="47.33794" lon="-1.28624">
        <ele>57</ele>
        <time>2021-01-10T14:02:35.000Z</time>
      </trkpt>
      <trkpt lat="47.33792" lon="-1.2864">
        <ele>57</ele>
        <time>2021-01-10T14:02:37.000Z</time>
      </trkpt>
      <trkpt lat="47.33791" lon="-1.28656">
        <ele>57</ele>
        <time>2021-01-10T14:02:39.000Z</time>
      </trkpt>
      <trkpt lat="47.33789" lon="-1.28672">
        <ele>57</ele>
        <time>2021-01-10T14:02:41.000Z</time>
      </trkpt>
      <trkpt lat="47.33784" lon="-1.28689">
        <ele>56</ele>
        <time>2021-01-10T14:02:43.000Z</time>
      </trkpt>
      <trkpt lat="47.3378" lon="-1.28708">
        <ele>56</ele>
        <time>2021-01-10T14:02:45.000Z</time>
      </trkpt>
      <trkpt lat="47.33779" lon="-1.28727">
        <ele>55</ele>
        <time>2021-01-10T14:02:47.000Z</time>
      </trkpt>
      <trkpt lat="47.33779" lon="-1.28745">
        <ele>56</ele>
        <time>2021-01-10T14:02:49.000Z</time>
      </trkpt>
      <trkpt lat="47.33779" lon="-1.28763">
        <ele>55</ele>
        <time>2021-01-10T14:02:51.000Z</time>
      </trkpt>
      <trkpt lat="47.33777" lon="-1.28781">
        <ele>55</ele>
        <time>2021-01-10T14:02:53.000Z</time>
      </trkpt>
      <trkpt lat="47.33774" lon="-1.28799">
        <ele>55</ele>
        <time>2021-01-10T14:02:55.000Z</time>
      </trkpt>
      <trkpt lat="47.33773" lon="-1.28816">
        <ele>56</ele>
        <time>2021-01-10T14:02:57.000Z</time>
      </trkpt>
      <trkpt lat="47.33774" lon="-1.28835">
        <ele>56</ele>
        <time>2021-01-10T14:02:59.000Z</time>
      </trkpt>
      <trkpt lat="47.33775" lon="-1.28854">
        <ele>56</ele>
        <time>2021-01-10T14:03:01.000Z</time>
      </trkpt>
      <trkpt lat="47.33776" lon="-1.28872">
        <ele>56</ele>
        <time>2021-01-10T14:03:03.000Z</time>
      </trkpt>
      <trkpt lat="47.33772" lon="-1.28891">
        <ele>56</ele>
        <time>2021-01-10T14:03:05.000Z</time>
      </trkpt>
      <trkpt lat="47.33765" lon="-1.28908">
        <ele>56</ele>
        <time>2021-01-10T14:03:07.000Z</time>
      </trkpt>
      <trkpt lat="47.33763" lon="-1.28926">
        <ele>56</ele>
        <time>2021-01-10T14:03:09.000Z</time>
      </trkpt>
      <trkpt lat="47.33761" lon="-1.28943">
        <ele>56</ele>
        <time>2021-01-10T14:03:11.000Z</time>
      </trkpt>
      <trkpt lat="47.33762" lon="-1.28962">
        <ele>56</ele>
        <time>2021-01-10T14:03:13.000Z</time>
      </trkpt>
      <trkpt lat="47.33761" lon="-1.28981">
        <ele>56</ele>
        <time>2021-01-10T14:03:15.000Z</time>
      </trkpt>
      <trkpt lat="47.33762" lon="-1.28999">
        <ele>56</ele>
        <time>2021-01-10T14:03:17.000Z</time>
      </trkpt>
      <trkpt lat="47.33762" lon="-1.29019">
        <ele>57</ele>
        <time>2021-01-10T14:03:19.000Z</time>
      </trkpt>
      <trkpt lat="47.3376" lon="-1.29039">
        <ele>57</ele>
        <time>2021-01-10T14:03:21.000Z</time>
      </trkpt>
      <trkpt lat="47.33759" lon="-1.29061">
        <ele>57</ele>
        <time>2021-01-10T14:03:23.000Z</time>
      </trkpt>
      <trkpt lat="47.33758" lon="-1.2908">
        <ele>56</ele>
        <time>2021-01-10T14:03:25.000Z</time>
      </trkpt>
      <trkpt lat="47.33756" lon="-1.29099">
        <ele>56</ele>
        <time>2021-01-10T14:03:27.000Z</time>
      </trkpt>
      <trkpt lat="47.33755" lon="-1.29118">
        <ele>56</ele>
        <time>2021-01-10T14:03:29.000Z</time>
      </trkpt>
      <trkpt lat="47.33755" lon="-1.29136">
        <ele>57</ele>
        <time>2021-01-10T14:03:31.000Z</time>
      </trkpt>
      <trkpt lat="47.33753" lon="-1.29154">
        <ele>58</ele>
        <time>2021-01-10T14:03:33.000Z</time>
      </trkpt>
      <trkpt lat="47.33749" lon="-1.29173">
        <ele>57</ele>
        <time>2021-01-10T14:03:35.000Z</time>
      </trkpt>
      <trkpt lat="47.33744" lon="-1.29191">
        <ele>56</ele>
        <time>2021-01-10T14:03:37.000Z</time>
      </trkpt>
      <trkpt lat="47.3374" lon="-1.29208">
        <ele>57</ele>
        <time>2021-01-10T14:03:39.000Z</time>
      </trkpt>
      <trkpt lat="47.33735" lon="-1.29223">
        <ele>56</ele>
        <time>2021-01-10T14:03:41.000Z</time>
      </trkpt>
      <trkpt lat="47.33733" lon="-1.29239">
        <ele>56</ele>
        <time>2021-01-10T14:03:43.000Z</time>
      </trkpt>
      <trkpt lat="47.33728" lon="-1.29257">
        <ele>56</ele>
        <time>2021-01-10T14:03:45.000Z</time>
      </trkpt>
      <trkpt lat="47.33724" lon="-1.29275">
        <ele>56</ele>
        <time>2021-01-10T14:03:47.000Z</time>
      </trkpt>
      <trkpt lat="47.33719" lon="-1.29292">
        <ele>55</ele>
        <time>2021-01-10T14:03:49.000Z</time>
      </trkpt>
      <trkpt lat="47.33714" lon="-1.29309">
        <ele>55</ele>
        <time>2021-01-10T14:03:51.000Z</time>
      </trkpt>
      <trkpt lat="47.3371" lon="-1.29326">
        <ele>55</ele>
        <time>2021-01-10T14:03:53.000Z</time>
      </trkpt>
      <trkpt lat="47.33705" lon="-1.29343">
        <ele>54</ele>
        <time>2021-01-10T14:03:55.000Z</time>
      </trkpt>
      <trkpt lat="47.33699" lon="-1.2936">
        <ele>54</ele>
        <time>2021-01-10T14:03:57.000Z</time>
      </trkpt>
      <trkpt lat="47.33694" lon="-1.29376">
        <ele>53</ele>
        <time>2021-01-10T14:03:59.000Z</time>
      </trkpt>
      <trkpt lat="47.33688" lon="-1.29393">
        <ele>53</ele>
        <time>2021-01-10T14:04:01.000Z</time>
      </trkpt>
      <trkpt lat="47.33682" lon="-1.29409">
        <ele>53</ele>
        <time>2021-01-10T14:04:03.000Z</time>
      </trkpt>
      <trkpt lat="47.33676" lon="-1.29425">
        <ele>52</ele>
        <time>2021-01-10T14:04:05.000Z</time>
      </trkpt>
      <trkpt lat="47.33669" lon="-1.2944">
        <ele>52</ele>
        <time>2021-01-10T14:04:07.000Z</time>
      </trkpt>
      <trkpt lat="47.33663" lon="-1.29454">
        <ele>52</ele>
        <time>2021-01-10T14:04:09.000Z</time>
      </trkpt>
      <trkpt lat="47.33659" lon="-1.2947">
        <ele>52</ele>
        <time>2021-01-10T14:04:11.000Z</time>
      </trkpt>
      <trkpt lat="47.33657" lon="-1.29488">
        <ele>51</ele>
        <time>2021-01-10T14:04:13.000Z</time>
      </trkpt>
      <trkpt lat="47.33653" lon="-1.29505">
        <ele>52</ele>
        <time>2021-01-10T14:04:15.000Z</time>
      </trkpt>
      <trkpt lat="47.3365" lon="-1.29522">
        <ele>52</ele>
        <time>2021-01-10T14:04:17.000Z</time>
      </trkpt>
      <trkpt lat="47.33647" lon="-1.29537">
        <ele>52</ele>
        <time>2021-01-10T14:04:20.000Z</time>
      </trkpt>
      <trkpt lat="47.33637" lon="-1.29547">
        <ele>53</ele>
        <time>2021-01-10T14:04:24.000Z</time>
      </trkpt>
      <trkpt lat="47.33626" lon="-1.29547">
        <ele>54</ele>
        <time>2021-01-10T14:04:27.000Z</time>
      </trkpt>
      <trkpt lat="47.33615" lon="-1.29541">
        <ele>55</ele>
        <time>2021-01-10T14:04:30.000Z</time>
      </trkpt>
      <trkpt lat="47.33604" lon="-1.29532">
        <ele>55</ele>
        <time>2021-01-10T14:04:33.000Z</time>
      </trkpt>
      <trkpt lat="47.33594" lon="-1.29523">
        <ele>55</ele>
        <time>2021-01-10T14:04:36.000Z</time>
      </trkpt>
      <trkpt lat="47.33583" lon="-1.29511">
        <ele>55</ele>
        <time>2021-01-10T14:04:39.000Z</time>
      </trkpt>
      <trkpt lat="47.33574" lon="-1.29505">
        <ele>55</ele>
        <time>2021-01-10T14:04:41.000Z</time>
      </trkpt>
      <trkpt lat="47.33565" lon="-1.29497">
        <ele>54</ele>
        <time>2021-01-10T14:04:43.000Z</time>
      </trkpt>
      <trkpt lat="47.33556" lon="-1.29491">
        <ele>54</ele>
        <time>2021-01-10T14:04:45.000Z</time>
      </trkpt>
      <trkpt lat="47.33546" lon="-1.29485">
        <ele>54</ele>
        <time>2021-01-10T14:04:47.000Z</time>
      </trkpt>
      <trkpt lat="47.33537" lon="-1.29478">
        <ele>54</ele>
        <time>2021-01-10T14:04:49.000Z</time>
      </trkpt>
      <trkpt lat="47.33527" lon="-1.29471">
        <ele>54</ele>
        <time>2021-01-10T14:04:51.000Z</time>
      </trkpt>
      <trkpt lat="47.33517" lon="-1.29463">
        <ele>54</ele>
        <time>2021-01-10T14:04:53.000Z</time>
      </trkpt>
      <trkpt lat="47.33507" lon="-1.29454">
        <ele>54</ele>
        <time>2021-01-10T14:04:55.000Z</time>
      </trkpt>
      <trkpt lat="47.33498" lon="-1.29447">
        <ele>55</ele>
        <time>2021-01-10T14:04:57.000Z</time>
      </trkpt>
      <trkpt lat="47.33488" lon="-1.29439">
        <ele>55</ele>
        <time>2021-01-10T14:04:59.000Z</time>
      </trkpt>
      <trkpt lat="47.33479" lon="-1.29431">
        <ele>55</ele>
        <time>2021-01-10T14:05:01.000Z</time>
      </trkpt>
      <trkpt lat="47.33469" lon="-1.29423">
        <ele>55</ele>
        <time>2021-01-10T14:05:03.000Z</time>
      </trkpt>
      <trkpt lat="47.3346" lon="-1.29415">
        <ele>54</ele>
        <time>2021-01-10T14:05:05.000Z</time>
      </trkpt>
      <trkpt lat="47.33451" lon="-1.29407">
        <ele>54</ele>
        <time>2021-01-10T14:05:07.000Z</time>
      </trkpt>
      <trkpt lat="47.33442" lon="-1.294">
        <ele>53</ele>
        <time>2021-01-10T14:05:09.000Z</time>
      </trkpt>
      <trkpt lat="47.33434" lon="-1.29394">
        <ele>53</ele>
        <time>2021-01-10T14:05:11.000Z</time>
      </trkpt>
      <trkpt lat="47.33423" lon="-1.29386">
        <ele>52</ele>
        <time>2021-01-10T14:05:14.000Z</time>
      </trkpt>
      <trkpt lat="47.33413" lon="-1.2938">
        <ele>52</ele>
        <time>2021-01-10T14:05:17.000Z</time>
      </trkpt>
      <trkpt lat="47.33407" lon="-1.29366">
        <ele>53</ele>
        <time>2021-01-10T14:05:20.000Z</time>
      </trkpt>
      <trkpt lat="47.33405" lon="-1.29351">
        <ele>52</ele>
        <time>2021-01-10T14:05:22.000Z</time>
      </trkpt>
      <trkpt lat="47.334" lon="-1.29336">
        <ele>53</ele>
        <time>2021-01-10T14:05:24.000Z</time>
      </trkpt>
      <trkpt lat="47.33394" lon="-1.29322">
        <ele>53</ele>
        <time>2021-01-10T14:05:26.000Z</time>
      </trkpt>
      <trkpt lat="47.33387" lon="-1.2931">
        <ele>53</ele>
        <time>2021-01-10T14:05:28.000Z</time>
      </trkpt>
      <trkpt lat="47.33381" lon="-1.29297">
        <ele>52</ele>
        <time>2021-01-10T14:05:30.000Z</time>
      </trkpt>
      <trkpt lat="47.33374" lon="-1.29285">
        <ele>51</ele>
        <time>2021-01-10T14:05:32.000Z</time>
      </trkpt>
      <trkpt lat="47.33367" lon="-1.29272">
        <ele>51</ele>
        <time>2021-01-10T14:05:34.000Z</time>
      </trkpt>
      <trkpt lat="47.33359" lon="-1.29259">
        <ele>50</ele>
        <time>2021-01-10T14:05:36.000Z</time>
      </trkpt>
      <trkpt lat="47.3335" lon="-1.29247">
        <ele>50</ele>
        <time>2021-01-10T14:05:38.000Z</time>
      </trkpt>
      <trkpt lat="47.3334" lon="-1.29237">
        <ele>50</ele>
        <time>2021-01-10T14:05:40.000Z</time>
      </trkpt>
      <trkpt lat="47.33329" lon="-1.29229">
        <ele>49</ele>
        <time>2021-01-10T14:05:42.000Z</time>
      </trkpt>
      <trkpt lat="47.33318" lon="-1.2922">
        <ele>49</ele>
        <time>2021-01-10T14:05:44.000Z</time>
      </trkpt>
      <trkpt lat="47.33306" lon="-1.29212">
        <ele>48</ele>
        <time>2021-01-10T14:05:46.000Z</time>
      </trkpt>
      <trkpt lat="47.33295" lon="-1.29203">
        <ele>48</ele>
        <time>2021-01-10T14:05:48.000Z</time>
      </trkpt>
      <trkpt lat="47.33284" lon="-1.29194">
        <ele>47</ele>
        <time>2021-01-10T14:05:50.000Z</time>
      </trkpt>
      <trkpt lat="47.33273" lon="-1.29186">
        <ele>47</ele>
        <time>2021-01-10T14:05:52.000Z</time>
      </trkpt>
      <trkpt lat="47.33262" lon="-1.29179">
        <ele>47</ele>
        <time>2021-01-10T14:05:54.000Z</time>
      </trkpt>
      <trkpt lat="47.33251" lon="-1.29173">
        <ele>48</ele>
        <time>2021-01-10T14:05:56.000Z</time>
      </trkpt>
      <trkpt lat="47.33241" lon="-1.29168">
        <ele>49</ele>
        <time>2021-01-10T14:05:58.000Z</time>
      </trkpt>
      <trkpt lat="47.33231" lon="-1.29162">
        <ele>50</ele>
        <time>2021-01-10T14:06:00.000Z</time>
      </trkpt>
      <trkpt lat="47.33221" lon="-1.29155">
        <ele>50</ele>
        <time>2021-01-10T14:06:02.000Z</time>
      </trkpt>
      <trkpt lat="47.3321" lon="-1.29149">
        <ele>50</ele>
        <time>2021-01-10T14:06:04.000Z</time>
      </trkpt>
      <trkpt lat="47.332" lon="-1.29147">
        <ele>50</ele>
        <time>2021-01-10T14:06:06.000Z</time>
      </trkpt>
      <trkpt lat="47.3319" lon="-1.29152">
        <ele>51</ele>
        <time>2021-01-10T14:06:08.000Z</time>
      </trkpt>
      <trkpt lat="47.33182" lon="-1.29162">
        <ele>51</ele>
        <time>2021-01-10T14:06:10.000Z</time>
      </trkpt>
      <trkpt lat="47.33173" lon="-1.29172">
        <ele>51</ele>
        <time>2021-01-10T14:06:12.000Z</time>
      </trkpt>
      <trkpt lat="47.3317" lon="-1.29187">
        <ele>50</ele>
        <time>2021-01-10T14:06:14.000Z</time>
      </trkpt>
      <trkpt lat="47.33169" lon="-1.29203">
        <ele>50</ele>
        <time>2021-01-10T14:06:16.000Z</time>
      </trkpt>
      <trkpt lat="47.33167" lon="-1.29218">
        <ele>51</ele>
        <time>2021-01-10T14:06:18.000Z</time>
      </trkpt>
      <trkpt lat="47.3316" lon="-1.29225">
        <ele>51</ele>
        <time>2021-01-10T14:06:20.000Z</time>
      </trkpt>
      <trkpt lat="47.33152" lon="-1.29234">
        <ele>51</ele>
        <time>2021-01-10T14:06:22.000Z</time>
      </trkpt>
      <trkpt lat="47.33146" lon="-1.29246">
        <ele>52</ele>
        <time>2021-01-10T14:06:24.000Z</time>
      </trkpt>
      <trkpt lat="47.3314" lon="-1.29259">
        <ele>53</ele>
        <time>2021-01-10T14:06:26.000Z</time>
      </trkpt>
      <trkpt lat="47.33134" lon="-1.29273">
        <ele>55</ele>
        <time>2021-01-10T14:06:28.000Z</time>
      </trkpt>
      <trkpt lat="47.3313" lon="-1.29287">
        <ele>55</ele>
        <time>2021-01-10T14:06:30.000Z</time>
      </trkpt>
      <trkpt lat="47.33128" lon="-1.29303">
        <ele>54</ele>
        <time>2021-01-10T14:06:32.000Z</time>
      </trkpt>
      <trkpt lat="47.33128" lon="-1.2932">
        <ele>54</ele>
        <time>2021-01-10T14:06:34.000Z</time>
      </trkpt>
      <trkpt lat="47.33134" lon="-1.29334">
        <ele>54</ele>
        <time>2021-01-10T14:06:36.000Z</time>
      </trkpt>
      <trkpt lat="47.33145" lon="-1.29343">
        <ele>54</ele>
        <time>2021-01-10T14:06:38.000Z</time>
      </trkpt>
      <trkpt lat="47.33151" lon="-1.29356">
        <ele>54</ele>
        <time>2021-01-10T14:06:40.000Z</time>
      </trkpt>
      <trkpt lat="47.33147" lon="-1.29372">
        <ele>53</ele>
        <time>2021-01-10T14:06:42.000Z</time>
      </trkpt>
      <trkpt lat="47.3314" lon="-1.29387">
        <ele>53</ele>
        <time>2021-01-10T14:06:44.000Z</time>
      </trkpt>
      <trkpt lat="47.33131" lon="-1.29401">
        <ele>54</ele>
        <time>2021-01-10T14:06:46.000Z</time>
      </trkpt>
      <trkpt lat="47.33122" lon="-1.29415">
        <ele>55</ele>
        <time>2021-01-10T14:06:48.000Z</time>
      </trkpt>
      <trkpt lat="47.33113" lon="-1.29428">
        <ele>54</ele>
        <time>2021-01-10T14:06:50.000Z</time>
      </trkpt>
      <trkpt lat="47.33104" lon="-1.29441">
        <ele>55</ele>
        <time>2021-01-10T14:06:52.000Z</time>
      </trkpt>
      <trkpt lat="47.33095" lon="-1.29454">
        <ele>55</ele>
        <time>2021-01-10T14:06:54.000Z</time>
      </trkpt>
      <trkpt lat="47.33086" lon="-1.29468">
        <ele>55</ele>
        <time>2021-01-10T14:06:56.000Z</time>
      </trkpt>
      <trkpt lat="47.33077" lon="-1.29482">
        <ele>55</ele>
        <time>2021-01-10T14:06:58.000Z</time>
      </trkpt>
      <trkpt lat="47.33067" lon="-1.29495">
        <ele>55</ele>
        <time>2021-01-10T14:07:00.000Z</time>
      </trkpt>
      <trkpt lat="47.33059" lon="-1.29509">
        <ele>55</ele>
        <time>2021-01-10T14:07:02.000Z</time>
      </trkpt>
      <trkpt lat="47.33051" lon="-1.29523">
        <ele>55</ele>
        <time>2021-01-10T14:07:04.000Z</time>
      </trkpt>
      <trkpt lat="47.33042" lon="-1.29537">
        <ele>55</ele>
        <time>2021-01-10T14:07:06.000Z</time>
      </trkpt>
      <trkpt lat="47.33034" lon="-1.2955">
        <ele>56</ele>
        <time>2021-01-10T14:07:08.000Z</time>
      </trkpt>
      <trkpt lat="47.33025" lon="-1.29564">
        <ele>56</ele>
        <time>2021-01-10T14:07:10.000Z</time>
      </trkpt>
      <trkpt lat="47.33018" lon="-1.29578">
        <ele>56</ele>
        <time>2021-01-10T14:07:12.000Z</time>
      </trkpt>
      <trkpt lat="47.33011" lon="-1.29591">
        <ele>56</ele>
        <time>2021-01-10T14:07:14.000Z</time>
      </trkpt>
      <trkpt lat="47.33004" lon="-1.29607">
        <ele>55</ele>
        <time>2021-01-10T14:07:16.000Z</time>
      </trkpt>
      <trkpt lat="47.32997" lon="-1.29622">
        <ele>54</ele>
        <time>2021-01-10T14:07:18.000Z</time>
      </trkpt>
      <trkpt lat="47.32989" lon="-1.29637">
        <ele>54</ele>
        <time>2021-01-10T14:07:20.000Z</time>
      </trkpt>
      <trkpt lat="47.32981" lon="-1.29651">
        <ele>54</ele>
        <time>2021-01-10T14:07:22.000Z</time>
      </trkpt>
      <trkpt lat="47.32972" lon="-1.29666">
        <ele>55</ele>
        <time>2021-01-10T14:07:24.000Z</time>
      </trkpt>
      <trkpt lat="47.32963" lon="-1.29679">
        <ele>55</ele>
        <time>2021-01-10T14:07:26.000Z</time>
      </trkpt>
      <trkpt lat="47.32955" lon="-1.29693">
        <ele>55</ele>
        <time>2021-01-10T14:07:28.000Z</time>
      </trkpt>
      <trkpt lat="47.32946" lon="-1.29706">
        <ele>55</ele>
        <time>2021-01-10T14:07:30.000Z</time>
      </trkpt>
      <trkpt lat="47.32937" lon="-1.29719">
        <ele>56</ele>
        <time>2021-01-10T14:07:32.000Z</time>
      </trkpt>
      <trkpt lat="47.3293" lon="-1.29732">
        <ele>56</ele>
        <time>2021-01-10T14:07:34.000Z</time>
      </trkpt>
      <trkpt lat="47.32923" lon="-1.29746">
        <ele>56</ele>
        <time>2021-01-10T14:07:36.000Z</time>
      </trkpt>
      <trkpt lat="47.32916" lon="-1.29761">
        <ele>56</ele>
        <time>2021-01-10T14:07:38.000Z</time>
      </trkpt>
      <trkpt lat="47.32908" lon="-1.29775">
        <ele>55</ele>
        <time>2021-01-10T14:07:40.000Z</time>
      </trkpt>
      <trkpt lat="47.329" lon="-1.29789">
        <ele>55</ele>
        <time>2021-01-10T14:07:42.000Z</time>
      </trkpt>
      <trkpt lat="47.32891" lon="-1.29802">
        <ele>55</ele>
        <time>2021-01-10T14:07:44.000Z</time>
      </trkpt>
      <trkpt lat="47.32883" lon="-1.29817">
        <ele>55</ele>
        <time>2021-01-10T14:07:46.000Z</time>
      </trkpt>
      <trkpt lat="47.32875" lon="-1.29832">
        <ele>54</ele>
        <time>2021-01-10T14:07:48.000Z</time>
      </trkpt>
      <trkpt lat="47.32866" lon="-1.29846">
        <ele>53</ele>
        <time>2021-01-10T14:07:50.000Z</time>
      </trkpt>
      <trkpt lat="47.32857" lon="-1.29861">
        <ele>53</ele>
        <time>2021-01-10T14:07:52.000Z</time>
      </trkpt>
      <trkpt lat="47.32849" lon="-1.29876">
        <ele>54</ele>
        <time>2021-01-10T14:07:54.000Z</time>
      </trkpt>
      <trkpt lat="47.32841" lon="-1.29891">
        <ele>54</ele>
        <time>2021-01-10T14:07:56.000Z</time>
      </trkpt>
      <trkpt lat="47.32832" lon="-1.29906">
        <ele>54</ele>
        <time>2021-01-10T14:07:58.000Z</time>
      </trkpt>
      <trkpt lat="47.32825" lon="-1.29921">
        <ele>53</ele>
        <time>2021-01-10T14:08:00.000Z</time>
      </trkpt>
      <trkpt lat="47.32818" lon="-1.29936">
        <ele>53</ele>
        <time>2021-01-10T14:08:02.000Z</time>
      </trkpt>
      <trkpt lat="47.32809" lon="-1.29952">
        <ele>53</ele>
        <time>2021-01-10T14:08:04.000Z</time>
      </trkpt>
      <trkpt lat="47.32801" lon="-1.29968">
        <ele>53</ele>
        <time>2021-01-10T14:08:06.000Z</time>
      </trkpt>
      <trkpt lat="47.32793" lon="-1.29984">
        <ele>53</ele>
        <time>2021-01-10T14:08:08.000Z</time>
      </trkpt>
      <trkpt lat="47.32785" lon="-1.29999">
        <ele>52</ele>
        <time>2021-01-10T14:08:10.000Z</time>
      </trkpt>
      <trkpt lat="47.32777" lon="-1.30015">
        <ele>52</ele>
        <time>2021-01-10T14:08:12.000Z</time>
      </trkpt>
      <trkpt lat="47.32769" lon="-1.30031">
        <ele>52</ele>
        <time>2021-01-10T14:08:14.000Z</time>
      </trkpt>
      <trkpt lat="47.3276" lon="-1.30047">
        <ele>52</ele>
        <time>2021-01-10T14:08:16.000Z</time>
      </trkpt>
      <trkpt lat="47.32752" lon="-1.30062">
        <ele>52</ele>
        <time>2021-01-10T14:08:18.000Z</time>
      </trkpt>
      <trkpt lat="47.32744" lon="-1.30078">
        <ele>52</ele>
        <time>2021-01-10T14:08:20.000Z</time>
      </trkpt>
      <trkpt lat="47.32736" lon="-1.30094">
        <ele>53</ele>
        <time>2021-01-10T14:08:22.000Z</time>
      </trkpt>
      <trkpt lat="47.32728" lon="-1.30109">
        <ele>53</ele>
        <time>2021-01-10T14:08:24.000Z</time>
      </trkpt>
      <trkpt lat="47.32719" lon="-1.30124">
        <ele>53</ele>
        <time>2021-01-10T14:08:26.000Z</time>
      </trkpt>
      <trkpt lat="47.3271" lon="-1.30137">
        <ele>53</ele>
        <time>2021-01-10T14:08:28.000Z</time>
      </trkpt>
      <trkpt lat="47.32702" lon="-1.3015">
        <ele>52</ele>
        <time>2021-01-10T14:08:30.000Z</time>
      </trkpt>
      <trkpt lat="47.32693" lon="-1.30163">
        <ele>52</ele>
        <time>2021-01-10T14:08:32.000Z</time>
      </trkpt>
      <trkpt lat="47.32685" lon="-1.30177">
        <ele>52</ele>
        <time>2021-01-10T14:08:34.000Z</time>
      </trkpt>
      <trkpt lat="47.32676" lon="-1.3019">
        <ele>52</ele>
        <time>2021-01-10T14:08:36.000Z</time>
      </trkpt>
      <trkpt lat="47.32668" lon="-1.30204">
        <ele>52</ele>
        <time>2021-01-10T14:08:38.000Z</time>
      </trkpt>
      <trkpt lat="47.3266" lon="-1.30218">
        <ele>52</ele>
        <time>2021-01-10T14:08:40.000Z</time>
      </trkpt>
      <trkpt lat="47.32652" lon="-1.30231">
        <ele>52</ele>
        <time>2021-01-10T14:08:42.000Z</time>
      </trkpt>
      <trkpt lat="47.32643" lon="-1.30244">
        <ele>52</ele>
        <time>2021-01-10T14:08:44.000Z</time>
      </trkpt>
      <trkpt lat="47.32639" lon="-1.30257">
        <ele>52</ele>
        <time>2021-01-10T14:08:46.000Z</time>
      </trkpt>
      <trkpt lat="47.32644" lon="-1.30273">
        <ele>53</ele>
        <time>2021-01-10T14:08:48.000Z</time>
      </trkpt>
      <trkpt lat="47.32651" lon="-1.30288">
        <ele>53</ele>
        <time>2021-01-10T14:08:50.000Z</time>
      </trkpt>
      <trkpt lat="47.32658" lon="-1.30304">
        <ele>55</ele>
        <time>2021-01-10T14:08:52.000Z</time>
      </trkpt>
      <trkpt lat="47.32665" lon="-1.3032">
        <ele>54</ele>
        <time>2021-01-10T14:08:54.000Z</time>
      </trkpt>
      <trkpt lat="47.32671" lon="-1.30335">
        <ele>54</ele>
        <time>2021-01-10T14:08:56.000Z</time>
      </trkpt>
      <trkpt lat="47.32677" lon="-1.3035">
        <ele>54</ele>
        <time>2021-01-10T14:08:58.000Z</time>
      </trkpt>
      <trkpt lat="47.32683" lon="-1.30367">
        <ele>54</ele>
        <time>2021-01-10T14:09:00.000Z</time>
      </trkpt>
      <trkpt lat="47.32686" lon="-1.30385">
        <ele>55</ele>
        <time>2021-01-10T14:09:02.000Z</time>
      </trkpt>
      <trkpt lat="47.32685" lon="-1.30404">
        <ele>55</ele>
        <time>2021-01-10T14:09:04.000Z</time>
      </trkpt>
      <trkpt lat="47.32681" lon="-1.30421">
        <ele>55</ele>
        <time>2021-01-10T14:09:06.000Z</time>
      </trkpt>
      <trkpt lat="47.32676" lon="-1.30438">
        <ele>55</ele>
        <time>2021-01-10T14:09:08.000Z</time>
      </trkpt>
      <trkpt lat="47.32669" lon="-1.30456">
        <ele>54</ele>
        <time>2021-01-10T14:09:10.000Z</time>
      </trkpt>
      <trkpt lat="47.32662" lon="-1.30471">
        <ele>55</ele>
        <time>2021-01-10T14:09:12.000Z</time>
      </trkpt>
      <trkpt lat="47.32655" lon="-1.30486">
        <ele>55</ele>
        <time>2021-01-10T14:09:14.000Z</time>
      </trkpt>
      <trkpt lat="47.32648" lon="-1.30502">
        <ele>55</ele>
        <time>2021-01-10T14:09:16.000Z</time>
      </trkpt>
      <trkpt lat="47.32642" lon="-1.30516">
        <ele>54</ele>
        <time>2021-01-10T14:09:18.000Z</time>
      </trkpt>
      <trkpt lat="47.32635" lon="-1.30531">
        <ele>54</ele>
        <time>2021-01-10T14:09:20.000Z</time>
      </trkpt>
      <trkpt lat="47.32628" lon="-1.30546">
        <ele>54</ele>
        <time>2021-01-10T14:09:22.000Z</time>
      </trkpt>
      <trkpt lat="47.32621" lon="-1.30563">
        <ele>54</ele>
        <time>2021-01-10T14:09:24.000Z</time>
      </trkpt>
      <trkpt lat="47.32614" lon="-1.30578">
        <ele>54</ele>
        <time>2021-01-10T14:09:26.000Z</time>
      </trkpt>
      <trkpt lat="47.32607" lon="-1.30594">
        <ele>54</ele>
        <time>2021-01-10T14:09:28.000Z</time>
      </trkpt>
      <trkpt lat="47.32601" lon="-1.30609">
        <ele>54</ele>
        <time>2021-01-10T14:09:30.000Z</time>
      </trkpt>
      <trkpt lat="47.32594" lon="-1.30624">
        <ele>53</ele>
        <time>2021-01-10T14:09:32.000Z</time>
      </trkpt>
      <trkpt lat="47.32587" lon="-1.30639">
        <ele>54</ele>
        <time>2021-01-10T14:09:34.000Z</time>
      </trkpt>
      <trkpt lat="47.3258" lon="-1.30655">
        <ele>54</ele>
        <time>2021-01-10T14:09:36.000Z</time>
      </trkpt>
      <trkpt lat="47.32573" lon="-1.30671">
        <ele>54</ele>
        <time>2021-01-10T14:09:38.000Z</time>
      </trkpt>
      <trkpt lat="47.32566" lon="-1.30687">
        <ele>54</ele>
        <time>2021-01-10T14:09:40.000Z</time>
      </trkpt>
      <trkpt lat="47.32559" lon="-1.30702">
        <ele>53</ele>
        <time>2021-01-10T14:09:42.000Z</time>
      </trkpt>
      <trkpt lat="47.32552" lon="-1.30718">
        <ele>53</ele>
        <time>2021-01-10T14:09:44.000Z</time>
      </trkpt>
      <trkpt lat="47.32546" lon="-1.30734">
        <ele>53</ele>
        <time>2021-01-10T14:09:46.000Z</time>
      </trkpt>
      <trkpt lat="47.32539" lon="-1.30749">
        <ele>53</ele>
        <time>2021-01-10T14:09:48.000Z</time>
      </trkpt>
      <trkpt lat="47.32532" lon="-1.30766">
        <ele>53</ele>
        <time>2021-01-10T14:09:50.000Z</time>
      </trkpt>
      <trkpt lat="47.32526" lon="-1.30781">
        <ele>54</ele>
        <time>2021-01-10T14:09:52.000Z</time>
      </trkpt>
      <trkpt lat="47.3252" lon="-1.30797">
        <ele>54</ele>
        <time>2021-01-10T14:09:54.000Z</time>
      </trkpt>
      <trkpt lat="47.32514" lon="-1.30812">
        <ele>53</ele>
        <time>2021-01-10T14:09:56.000Z</time>
      </trkpt>
      <trkpt lat="47.32505" lon="-1.30836">
        <ele>53</ele>
        <time>2021-01-10T14:09:59.000Z</time>
      </trkpt>
      <trkpt lat="47.32497" lon="-1.30859">
        <ele>52</ele>
        <time>2021-01-10T14:10:02.000Z</time>
      </trkpt>
      <trkpt lat="47.32491" lon="-1.30875">
        <ele>53</ele>
        <time>2021-01-10T14:10:04.000Z</time>
      </trkpt>
      <trkpt lat="47.32482" lon="-1.30899">
        <ele>53</ele>
        <time>2021-01-10T14:10:07.000Z</time>
      </trkpt>
      <trkpt lat="47.32477" lon="-1.30914">
        <ele>53</ele>
        <time>2021-01-10T14:10:09.000Z</time>
      </trkpt>
      <trkpt lat="47.32471" lon="-1.30931">
        <ele>53</ele>
        <time>2021-01-10T14:10:11.000Z</time>
      </trkpt>
      <trkpt lat="47.32465" lon="-1.30947">
        <ele>52</ele>
        <time>2021-01-10T14:10:13.000Z</time>
      </trkpt>
      <trkpt lat="47.32459" lon="-1.30963">
        <ele>52</ele>
        <time>2021-01-10T14:10:15.000Z</time>
      </trkpt>
      <trkpt lat="47.32454" lon="-1.3098">
        <ele>52</ele>
        <time>2021-01-10T14:10:17.000Z</time>
      </trkpt>
      <trkpt lat="47.32449" lon="-1.30997">
        <ele>52</ele>
        <time>2021-01-10T14:10:19.000Z</time>
      </trkpt>
      <trkpt lat="47.32444" lon="-1.31015">
        <ele>52</ele>
        <time>2021-01-10T14:10:21.000Z</time>
      </trkpt>
      <trkpt lat="47.3244" lon="-1.31033">
        <ele>53</ele>
        <time>2021-01-10T14:10:23.000Z</time>
      </trkpt>
      <trkpt lat="47.32436" lon="-1.31051">
        <ele>53</ele>
        <time>2021-01-10T14:10:25.000Z</time>
      </trkpt>
      <trkpt lat="47.32429" lon="-1.31077">
        <ele>53</ele>
        <time>2021-01-10T14:10:28.000Z</time>
      </trkpt>
      <trkpt lat="47.32423" lon="-1.31094">
        <ele>53</ele>
        <time>2021-01-10T14:10:30.000Z</time>
      </trkpt>
      <trkpt lat="47.32417" lon="-1.31112">
        <ele>53</ele>
        <time>2021-01-10T14:10:32.000Z</time>
      </trkpt>
      <trkpt lat="47.32408" lon="-1.3114">
        <ele>53</ele>
        <time>2021-01-10T14:10:35.000Z</time>
      </trkpt>
      <trkpt lat="47.324" lon="-1.31168">
        <ele>53</ele>
        <time>2021-01-10T14:10:38.000Z</time>
      </trkpt>
      <trkpt lat="47.32394" lon="-1.31185">
        <ele>53</ele>
        <time>2021-01-10T14:10:40.000Z</time>
      </trkpt>
      <trkpt lat="47.32388" lon="-1.31202">
        <ele>52</ele>
        <time>2021-01-10T14:10:42.000Z</time>
      </trkpt>
      <trkpt lat="47.32382" lon="-1.31221">
        <ele>52</ele>
        <time>2021-01-10T14:10:44.000Z</time>
      </trkpt>
      <trkpt lat="47.32376" lon="-1.31238">
        <ele>52</ele>
        <time>2021-01-10T14:10:46.000Z</time>
      </trkpt>
      <trkpt lat="47.32369" lon="-1.31255">
        <ele>52</ele>
        <time>2021-01-10T14:10:48.000Z</time>
      </trkpt>
      <trkpt lat="47.32361" lon="-1.3127">
        <ele>52</ele>
        <time>2021-01-10T14:10:50.000Z</time>
      </trkpt>
      <trkpt lat="47.32347" lon="-1.31293">
        <ele>53</ele>
        <time>2021-01-10T14:10:53.000Z</time>
      </trkpt>
      <trkpt lat="47.32338" lon="-1.31308">
        <ele>53</ele>
        <time>2021-01-10T14:10:55.000Z</time>
      </trkpt>
      <trkpt lat="47.32329" lon="-1.31322">
        <ele>53</ele>
        <time>2021-01-10T14:10:57.000Z</time>
      </trkpt>
      <trkpt lat="47.32319" lon="-1.31335">
        <ele>53</ele>
        <time>2021-01-10T14:10:59.000Z</time>
      </trkpt>
      <trkpt lat="47.3231" lon="-1.31348">
        <ele>53</ele>
        <time>2021-01-10T14:11:01.000Z</time>
      </trkpt>
      <trkpt lat="47.32295" lon="-1.3137">
        <ele>52</ele>
        <time>2021-01-10T14:11:04.000Z</time>
      </trkpt>
      <trkpt lat="47.32286" lon="-1.31384">
        <ele>52</ele>
        <time>2021-01-10T14:11:06.000Z</time>
      </trkpt>
      <trkpt lat="47.32277" lon="-1.31398">
        <ele>52</ele>
        <time>2021-01-10T14:11:08.000Z</time>
      </trkpt>
      <trkpt lat="47.32268" lon="-1.31412">
        <ele>52</ele>
        <time>2021-01-10T14:11:10.000Z</time>
      </trkpt>
      <trkpt lat="47.32258" lon="-1.31426">
        <ele>53</ele>
        <time>2021-01-10T14:11:12.000Z</time>
      </trkpt>
      <trkpt lat="47.32249" lon="-1.3144">
        <ele>53</ele>
        <time>2021-01-10T14:11:14.000Z</time>
      </trkpt>
      <trkpt lat="47.32239" lon="-1.31454">
        <ele>52</ele>
        <time>2021-01-10T14:11:16.000Z</time>
      </trkpt>
      <trkpt lat="47.32229" lon="-1.31469">
        <ele>52</ele>
        <time>2021-01-10T14:11:18.000Z</time>
      </trkpt>
      <trkpt lat="47.32219" lon="-1.31484">
        <ele>52</ele>
        <time>2021-01-10T14:11:20.000Z</time>
      </trkpt>
      <trkpt lat="47.32205" lon="-1.31506">
        <ele>53</ele>
        <time>2021-01-10T14:11:23.000Z</time>
      </trkpt>
      <trkpt lat="47.32197" lon="-1.3152">
        <ele>53</ele>
        <time>2021-01-10T14:11:25.000Z</time>
      </trkpt>
      <trkpt lat="47.32188" lon="-1.31535">
        <ele>53</ele>
        <time>2021-01-10T14:11:27.000Z</time>
      </trkpt>
      <trkpt lat="47.32179" lon="-1.3155">
        <ele>53</ele>
        <time>2021-01-10T14:11:29.000Z</time>
      </trkpt>
      <trkpt lat="47.3217" lon="-1.31567">
        <ele>53</ele>
        <time>2021-01-10T14:11:31.000Z</time>
      </trkpt>
      <trkpt lat="47.32156" lon="-1.31589">
        <ele>52</ele>
        <time>2021-01-10T14:11:34.000Z</time>
      </trkpt>
      <trkpt lat="47.32147" lon="-1.31603">
        <ele>52</ele>
        <time>2021-01-10T14:11:36.000Z</time>
      </trkpt>
      <trkpt lat="47.32137" lon="-1.31617">
        <ele>52</ele>
        <time>2021-01-10T14:11:38.000Z</time>
      </trkpt>
      <trkpt lat="47.32127" lon="-1.31632">
        <ele>53</ele>
        <time>2021-01-10T14:11:40.000Z</time>
      </trkpt>
      <trkpt lat="47.32118" lon="-1.31647">
        <ele>53</ele>
        <time>2021-01-10T14:11:42.000Z</time>
      </trkpt>
      <trkpt lat="47.32108" lon="-1.31662">
        <ele>53</ele>
        <time>2021-01-10T14:11:44.000Z</time>
      </trkpt>
      <trkpt lat="47.32099" lon="-1.31677">
        <ele>53</ele>
        <time>2021-01-10T14:11:46.000Z</time>
      </trkpt>
      <trkpt lat="47.32091" lon="-1.31691">
        <ele>53</ele>
        <time>2021-01-10T14:11:48.000Z</time>
      </trkpt>
      <trkpt lat="47.32082" lon="-1.31706">
        <ele>53</ele>
        <time>2021-01-10T14:11:50.000Z</time>
      </trkpt>
      <trkpt lat="47.32074" lon="-1.31721">
        <ele>53</ele>
        <time>2021-01-10T14:11:52.000Z</time>
      </trkpt>
      <trkpt lat="47.32067" lon="-1.31736">
        <ele>54</ele>
        <time>2021-01-10T14:11:54.000Z</time>
      </trkpt>
      <trkpt lat="47.3206" lon="-1.31753">
        <ele>54</ele>
        <time>2021-01-10T14:11:56.000Z</time>
      </trkpt>
      <trkpt lat="47.32053" lon="-1.31769">
        <ele>54</ele>
        <time>2021-01-10T14:11:58.000Z</time>
      </trkpt>
      <trkpt lat="47.32047" lon="-1.31786">
        <ele>55</ele>
        <time>2021-01-10T14:12:00.000Z</time>
      </trkpt>
      <trkpt lat="47.32041" lon="-1.31804">
        <ele>54</ele>
        <time>2021-01-10T14:12:02.000Z</time>
      </trkpt>
      <trkpt lat="47.32036" lon="-1.31821">
        <ele>53</ele>
        <time>2021-01-10T14:12:04.000Z</time>
      </trkpt>
      <trkpt lat="47.3203" lon="-1.31837">
        <ele>53</ele>
        <time>2021-01-10T14:12:06.000Z</time>
      </trkpt>
      <trkpt lat="47.3202" lon="-1.31863">
        <ele>53</ele>
        <time>2021-01-10T14:12:09.000Z</time>
      </trkpt>
      <trkpt lat="47.32015" lon="-1.3188">
        <ele>52</ele>
        <time>2021-01-10T14:12:11.000Z</time>
      </trkpt>
      <trkpt lat="47.32009" lon="-1.31897">
        <ele>53</ele>
        <time>2021-01-10T14:12:13.000Z</time>
      </trkpt>
      <trkpt lat="47.32004" lon="-1.31913">
        <ele>53</ele>
        <time>2021-01-10T14:12:15.000Z</time>
      </trkpt>
      <trkpt lat="47.31998" lon="-1.31931">
        <ele>53</ele>
        <time>2021-01-10T14:12:17.000Z</time>
      </trkpt>
      <trkpt lat="47.31991" lon="-1.31948">
        <ele>54</ele>
        <time>2021-01-10T14:12:19.000Z</time>
      </trkpt>
      <trkpt lat="47.31983" lon="-1.31964">
        <ele>54</ele>
        <time>2021-01-10T14:12:21.000Z</time>
      </trkpt>
      <trkpt lat="47.31975" lon="-1.3198">
        <ele>54</ele>
        <time>2021-01-10T14:12:23.000Z</time>
      </trkpt>
      <trkpt lat="47.31967" lon="-1.31995">
        <ele>55</ele>
        <time>2021-01-10T14:12:25.000Z</time>
      </trkpt>
      <trkpt lat="47.31957" lon="-1.32007">
        <ele>55</ele>
        <time>2021-01-10T14:12:27.000Z</time>
      </trkpt>
      <trkpt lat="47.31945" lon="-1.32015">
        <ele>55</ele>
        <time>2021-01-10T14:12:29.000Z</time>
      </trkpt>
      <trkpt lat="47.31932" lon="-1.32017">
        <ele>55</ele>
        <time>2021-01-10T14:12:31.000Z</time>
      </trkpt>
      <trkpt lat="47.31919" lon="-1.32017">
        <ele>55</ele>
        <time>2021-01-10T14:12:33.000Z</time>
      </trkpt>
      <trkpt lat="47.31905" lon="-1.32013">
        <ele>55</ele>
        <time>2021-01-10T14:12:35.000Z</time>
      </trkpt>
      <trkpt lat="47.31892" lon="-1.32007">
        <ele>54</ele>
        <time>2021-01-10T14:12:37.000Z</time>
      </trkpt>
      <trkpt lat="47.31879" lon="-1.32">
        <ele>54</ele>
        <time>2021-01-10T14:12:39.000Z</time>
      </trkpt>
      <trkpt lat="47.31866" lon="-1.31991">
        <ele>54</ele>
        <time>2021-01-10T14:12:41.000Z</time>
      </trkpt>
      <trkpt lat="47.31855" lon="-1.31982">
        <ele>53</ele>
        <time>2021-01-10T14:12:43.000Z</time>
      </trkpt>
      <trkpt lat="47.31843" lon="-1.31975">
        <ele>53</ele>
        <time>2021-01-10T14:12:45.000Z</time>
      </trkpt>
      <trkpt lat="47.31832" lon="-1.31967">
        <ele>52</ele>
        <time>2021-01-10T14:12:47.000Z</time>
      </trkpt>
      <trkpt lat="47.31822" lon="-1.3196">
        <ele>52</ele>
        <time>2021-01-10T14:12:49.000Z</time>
      </trkpt>
      <trkpt lat="47.31813" lon="-1.31955">
        <ele>53</ele>
        <time>2021-01-10T14:12:51.000Z</time>
      </trkpt>
      <trkpt lat="47.31804" lon="-1.31953">
        <ele>52</ele>
        <time>2021-01-10T14:12:53.000Z</time>
      </trkpt>
      <trkpt lat="47.31796" lon="-1.31965">
        <ele>52</ele>
        <time>2021-01-10T14:12:55.000Z</time>
      </trkpt>
      <trkpt lat="47.31789" lon="-1.31983">
        <ele>53</ele>
        <time>2021-01-10T14:12:57.000Z</time>
      </trkpt>
      <trkpt lat="47.31784" lon="-1.32001">
        <ele>53</ele>
        <time>2021-01-10T14:12:59.000Z</time>
      </trkpt>
      <trkpt lat="47.31777" lon="-1.32018">
        <ele>54</ele>
        <time>2021-01-10T14:13:01.000Z</time>
      </trkpt>
      <trkpt lat="47.31772" lon="-1.32033">
        <ele>54</ele>
        <time>2021-01-10T14:13:03.000Z</time>
      </trkpt>
      <trkpt lat="47.31767" lon="-1.32047">
        <ele>54</ele>
        <time>2021-01-10T14:13:05.000Z</time>
      </trkpt>
      <trkpt lat="47.31761" lon="-1.32062">
        <ele>55</ele>
        <time>2021-01-10T14:13:07.000Z</time>
      </trkpt>
      <trkpt lat="47.31755" lon="-1.32077">
        <ele>55</ele>
        <time>2021-01-10T14:13:09.000Z</time>
      </trkpt>
      <trkpt lat="47.3175" lon="-1.32092">
        <ele>55</ele>
        <time>2021-01-10T14:13:11.000Z</time>
      </trkpt>
      <trkpt lat="47.31745" lon="-1.32107">
        <ele>54</ele>
        <time>2021-01-10T14:13:13.000Z</time>
      </trkpt>
      <trkpt lat="47.31739" lon="-1.32122">
        <ele>54</ele>
        <time>2021-01-10T14:13:15.000Z</time>
      </trkpt>
      <trkpt lat="47.31731" lon="-1.32149">
        <ele>53</ele>
        <time>2021-01-10T14:13:18.000Z</time>
      </trkpt>
      <trkpt lat="47.31728" lon="-1.32168">
        <ele>54</ele>
        <time>2021-01-10T14:13:20.000Z</time>
      </trkpt>
      <trkpt lat="47.31726" lon="-1.32186">
        <ele>54</ele>
        <time>2021-01-10T14:13:22.000Z</time>
      </trkpt>
      <trkpt lat="47.31725" lon="-1.32206">
        <ele>54</ele>
        <time>2021-01-10T14:13:24.000Z</time>
      </trkpt>
      <trkpt lat="47.31722" lon="-1.32224">
        <ele>54</ele>
        <time>2021-01-10T14:13:26.000Z</time>
      </trkpt>
      <trkpt lat="47.31719" lon="-1.32242">
        <ele>54</ele>
        <time>2021-01-10T14:13:28.000Z</time>
      </trkpt>
      <trkpt lat="47.31716" lon="-1.3226">
        <ele>55</ele>
        <time>2021-01-10T14:13:30.000Z</time>
      </trkpt>
      <trkpt lat="47.31712" lon="-1.32278">
        <ele>55</ele>
        <time>2021-01-10T14:13:32.000Z</time>
      </trkpt>
      <trkpt lat="47.31708" lon="-1.32296">
        <ele>55</ele>
        <time>2021-01-10T14:13:34.000Z</time>
      </trkpt>
      <trkpt lat="47.31704" lon="-1.32315">
        <ele>54</ele>
        <time>2021-01-10T14:13:36.000Z</time>
      </trkpt>
      <trkpt lat="47.317" lon="-1.32334">
        <ele>55</ele>
        <time>2021-01-10T14:13:38.000Z</time>
      </trkpt>
      <trkpt lat="47.31696" lon="-1.32354">
        <ele>55</ele>
        <time>2021-01-10T14:13:40.000Z</time>
      </trkpt>
      <trkpt lat="47.31693" lon="-1.32374">
        <ele>55</ele>
        <time>2021-01-10T14:13:42.000Z</time>
      </trkpt>
      <trkpt lat="47.3169" lon="-1.32394">
        <ele>55</ele>
        <time>2021-01-10T14:13:44.000Z</time>
      </trkpt>
      <trkpt lat="47.31688" lon="-1.32413">
        <ele>55</ele>
        <time>2021-01-10T14:13:46.000Z</time>
      </trkpt>
      <trkpt lat="47.31686" lon="-1.32431">
        <ele>55</ele>
        <time>2021-01-10T14:13:48.000Z</time>
      </trkpt>
      <trkpt lat="47.31685" lon="-1.32451">
        <ele>54</ele>
        <time>2021-01-10T14:13:50.000Z</time>
      </trkpt>
      <trkpt lat="47.31682" lon="-1.32471">
        <ele>55</ele>
        <time>2021-01-10T14:13:52.000Z</time>
      </trkpt>
      <trkpt lat="47.31678" lon="-1.32489">
        <ele>54</ele>
        <time>2021-01-10T14:13:54.000Z</time>
      </trkpt>
      <trkpt lat="47.31672" lon="-1.32507">
        <ele>54</ele>
        <time>2021-01-10T14:13:56.000Z</time>
      </trkpt>
      <trkpt lat="47.31665" lon="-1.32524">
        <ele>54</ele>
        <time>2021-01-10T14:13:58.000Z</time>
      </trkpt>
      <trkpt lat="47.31657" lon="-1.3254">
        <ele>54</ele>
        <time>2021-01-10T14:14:00.000Z</time>
      </trkpt>
      <trkpt lat="47.31649" lon="-1.32557">
        <ele>54</ele>
        <time>2021-01-10T14:14:02.000Z</time>
      </trkpt>
      <trkpt lat="47.3164" lon="-1.32573">
        <ele>55</ele>
        <time>2021-01-10T14:14:04.000Z</time>
      </trkpt>
      <trkpt lat="47.31632" lon="-1.32588">
        <ele>54</ele>
        <time>2021-01-10T14:14:06.000Z</time>
      </trkpt>
      <trkpt lat="47.31624" lon="-1.32603">
        <ele>55</ele>
        <time>2021-01-10T14:14:08.000Z</time>
      </trkpt>
      <trkpt lat="47.31615" lon="-1.32619">
        <ele>55</ele>
        <time>2021-01-10T14:14:10.000Z</time>
      </trkpt>
      <trkpt lat="47.31605" lon="-1.32635">
        <ele>56</ele>
        <time>2021-01-10T14:14:12.000Z</time>
      </trkpt>
      <trkpt lat="47.31596" lon="-1.32647">
        <ele>55</ele>
        <time>2021-01-10T14:14:14.000Z</time>
      </trkpt>
      <trkpt lat="47.31586" lon="-1.3266">
        <ele>56</ele>
        <time>2021-01-10T14:14:16.000Z</time>
      </trkpt>
      <trkpt lat="47.31576" lon="-1.32674">
        <ele>56</ele>
        <time>2021-01-10T14:14:18.000Z</time>
      </trkpt>
      <trkpt lat="47.31566" lon="-1.32685">
        <ele>56</ele>
        <time>2021-01-10T14:14:20.000Z</time>
      </trkpt>
      <trkpt lat="47.31555" lon="-1.32697">
        <ele>56</ele>
        <time>2021-01-10T14:14:22.000Z</time>
      </trkpt>
      <trkpt lat="47.31545" lon="-1.32711">
        <ele>56</ele>
        <time>2021-01-10T14:14:24.000Z</time>
      </trkpt>
      <trkpt lat="47.31534" lon="-1.32724">
        <ele>55</ele>
        <time>2021-01-10T14:14:26.000Z</time>
      </trkpt>
      <trkpt lat="47.31523" lon="-1.32737">
        <ele>55</ele>
        <time>2021-01-10T14:14:28.000Z</time>
      </trkpt>
      <trkpt lat="47.31511" lon="-1.32751">
        <ele>55</ele>
        <time>2021-01-10T14:14:30.000Z</time>
      </trkpt>
      <trkpt lat="47.315" lon="-1.32765">
        <ele>55</ele>
        <time>2021-01-10T14:14:32.000Z</time>
      </trkpt>
      <trkpt lat="47.31487" lon="-1.32778">
        <ele>54</ele>
        <time>2021-01-10T14:14:34.000Z</time>
      </trkpt>
      <trkpt lat="47.31475" lon="-1.32791">
        <ele>54</ele>
        <time>2021-01-10T14:14:36.000Z</time>
      </trkpt>
      <trkpt lat="47.31462" lon="-1.328">
        <ele>54</ele>
        <time>2021-01-10T14:14:38.000Z</time>
      </trkpt>
      <trkpt lat="47.31449" lon="-1.3281">
        <ele>54</ele>
        <time>2021-01-10T14:14:40.000Z</time>
      </trkpt>
      <trkpt lat="47.31436" lon="-1.32821">
        <ele>54</ele>
        <time>2021-01-10T14:14:42.000Z</time>
      </trkpt>
      <trkpt lat="47.31423" lon="-1.32832">
        <ele>54</ele>
        <time>2021-01-10T14:14:44.000Z</time>
      </trkpt>
      <trkpt lat="47.31412" lon="-1.32844">
        <ele>55</ele>
        <time>2021-01-10T14:14:46.000Z</time>
      </trkpt>
      <trkpt lat="47.31399" lon="-1.32854">
        <ele>55</ele>
        <time>2021-01-10T14:14:48.000Z</time>
      </trkpt>
      <trkpt lat="47.31387" lon="-1.32864">
        <ele>54</ele>
        <time>2021-01-10T14:14:50.000Z</time>
      </trkpt>
      <trkpt lat="47.31374" lon="-1.32874">
        <ele>54</ele>
        <time>2021-01-10T14:14:52.000Z</time>
      </trkpt>
      <trkpt lat="47.31361" lon="-1.32885">
        <ele>54</ele>
        <time>2021-01-10T14:14:54.000Z</time>
      </trkpt>
      <trkpt lat="47.31348" lon="-1.32896">
        <ele>54</ele>
        <time>2021-01-10T14:14:56.000Z</time>
      </trkpt>
      <trkpt lat="47.31336" lon="-1.32906">
        <ele>54</ele>
        <time>2021-01-10T14:14:58.000Z</time>
      </trkpt>
      <trkpt lat="47.31324" lon="-1.32917">
        <ele>54</ele>
        <time>2021-01-10T14:15:00.000Z</time>
      </trkpt>
      <trkpt lat="47.31312" lon="-1.32928">
        <ele>54</ele>
        <time>2021-01-10T14:15:02.000Z</time>
      </trkpt>
      <trkpt lat="47.31299" lon="-1.32938">
        <ele>54</ele>
        <time>2021-01-10T14:15:04.000Z</time>
      </trkpt>
      <trkpt lat="47.31287" lon="-1.32949">
        <ele>54</ele>
        <time>2021-01-10T14:15:06.000Z</time>
      </trkpt>
      <trkpt lat="47.31275" lon="-1.32959">
        <ele>54</ele>
        <time>2021-01-10T14:15:08.000Z</time>
      </trkpt>
      <trkpt lat="47.31263" lon="-1.32969">
        <ele>54</ele>
        <time>2021-01-10T14:15:10.000Z</time>
      </trkpt>
      <trkpt lat="47.31251" lon="-1.32979">
        <ele>54</ele>
        <time>2021-01-10T14:15:12.000Z</time>
      </trkpt>
      <trkpt lat="47.31238" lon="-1.32987">
        <ele>54</ele>
        <time>2021-01-10T14:15:14.000Z</time>
      </trkpt>
      <trkpt lat="47.31224" lon="-1.32994">
        <ele>54</ele>
        <time>2021-01-10T14:15:16.000Z</time>
      </trkpt>
      <trkpt lat="47.31212" lon="-1.33">
        <ele>55</ele>
        <time>2021-01-10T14:15:18.000Z</time>
      </trkpt>
      <trkpt lat="47.31198" lon="-1.33005">
        <ele>55</ele>
        <time>2021-01-10T14:15:20.000Z</time>
      </trkpt>
      <trkpt lat="47.31185" lon="-1.3301">
        <ele>55</ele>
        <time>2021-01-10T14:15:22.000Z</time>
      </trkpt>
      <trkpt lat="47.31171" lon="-1.33015">
        <ele>56</ele>
        <time>2021-01-10T14:15:24.000Z</time>
      </trkpt>
      <trkpt lat="47.31158" lon="-1.3302">
        <ele>56</ele>
        <time>2021-01-10T14:15:26.000Z</time>
      </trkpt>
      <trkpt lat="47.31144" lon="-1.33024">
        <ele>55</ele>
        <time>2021-01-10T14:15:28.000Z</time>
      </trkpt>
      <trkpt lat="47.31129" lon="-1.33029">
        <ele>54</ele>
        <time>2021-01-10T14:15:30.000Z</time>
      </trkpt>
      <trkpt lat="47.31116" lon="-1.33035">
        <ele>54</ele>
        <time>2021-01-10T14:15:32.000Z</time>
      </trkpt>
      <trkpt lat="47.31101" lon="-1.33041">
        <ele>55</ele>
        <time>2021-01-10T14:15:34.000Z</time>
      </trkpt>
      <trkpt lat="47.31087" lon="-1.33048">
        <ele>54</ele>
        <time>2021-01-10T14:15:36.000Z</time>
      </trkpt>
      <trkpt lat="47.31072" lon="-1.33054">
        <ele>54</ele>
        <time>2021-01-10T14:15:38.000Z</time>
      </trkpt>
      <trkpt lat="47.31057" lon="-1.3306">
        <ele>54</ele>
        <time>2021-01-10T14:15:40.000Z</time>
      </trkpt>
      <trkpt lat="47.31042" lon="-1.33067">
        <ele>54</ele>
        <time>2021-01-10T14:15:42.000Z</time>
      </trkpt>
      <trkpt lat="47.31027" lon="-1.33073">
        <ele>54</ele>
        <time>2021-01-10T14:15:44.000Z</time>
      </trkpt>
      <trkpt lat="47.31011" lon="-1.33079">
        <ele>54</ele>
        <time>2021-01-10T14:15:46.000Z</time>
      </trkpt>
      <trkpt lat="47.30996" lon="-1.33085">
        <ele>54</ele>
        <time>2021-01-10T14:15:48.000Z</time>
      </trkpt>
      <trkpt lat="47.30981" lon="-1.33092">
        <ele>54</ele>
        <time>2021-01-10T14:15:50.000Z</time>
      </trkpt>
      <trkpt lat="47.30965" lon="-1.33099">
        <ele>54</ele>
        <time>2021-01-10T14:15:52.000Z</time>
      </trkpt>
      <trkpt lat="47.3095" lon="-1.33106">
        <ele>54</ele>
        <time>2021-01-10T14:15:54.000Z</time>
      </trkpt>
      <trkpt lat="47.30934" lon="-1.33112">
        <ele>54</ele>
        <time>2021-01-10T14:15:56.000Z</time>
      </trkpt>
      <trkpt lat="47.30918" lon="-1.33118">
        <ele>54</ele>
        <time>2021-01-10T14:15:58.000Z</time>
      </trkpt>
      <trkpt lat="47.30903" lon="-1.33125">
        <ele>54</ele>
        <time>2021-01-10T14:16:00.000Z</time>
      </trkpt>
      <trkpt lat="47.30887" lon="-1.33131">
        <ele>53</ele>
        <time>2021-01-10T14:16:02.000Z</time>
      </trkpt>
      <trkpt lat="47.30872" lon="-1.33138">
        <ele>53</ele>
        <time>2021-01-10T14:16:04.000Z</time>
      </trkpt>
      <trkpt lat="47.30856" lon="-1.33144">
        <ele>53</ele>
        <time>2021-01-10T14:16:06.000Z</time>
      </trkpt>
      <trkpt lat="47.3084" lon="-1.33151">
        <ele>53</ele>
        <time>2021-01-10T14:16:08.000Z</time>
      </trkpt>
      <trkpt lat="47.30825" lon="-1.33158">
        <ele>53</ele>
        <time>2021-01-10T14:16:10.000Z</time>
      </trkpt>
      <trkpt lat="47.3081" lon="-1.33165">
        <ele>53</ele>
        <time>2021-01-10T14:16:12.000Z</time>
      </trkpt>
      <trkpt lat="47.30794" lon="-1.33171">
        <ele>53</ele>
        <time>2021-01-10T14:16:14.000Z</time>
      </trkpt>
      <trkpt lat="47.30779" lon="-1.33178">
        <ele>53</ele>
        <time>2021-01-10T14:16:16.000Z</time>
      </trkpt>
      <trkpt lat="47.30764" lon="-1.33183">
        <ele>52</ele>
        <time>2021-01-10T14:16:18.000Z</time>
      </trkpt>
      <trkpt lat="47.30749" lon="-1.3319">
        <ele>52</ele>
        <time>2021-01-10T14:16:20.000Z</time>
      </trkpt>
      <trkpt lat="47.30734" lon="-1.33196">
        <ele>52</ele>
        <time>2021-01-10T14:16:22.000Z</time>
      </trkpt>
      <trkpt lat="47.30719" lon="-1.33203">
        <ele>52</ele>
        <time>2021-01-10T14:16:24.000Z</time>
      </trkpt>
      <trkpt lat="47.30704" lon="-1.33209">
        <ele>52</ele>
        <time>2021-01-10T14:16:26.000Z</time>
      </trkpt>
      <trkpt lat="47.30688" lon="-1.33214">
        <ele>53</ele>
        <time>2021-01-10T14:16:28.000Z</time>
      </trkpt>
      <trkpt lat="47.30673" lon="-1.33219">
        <ele>52</ele>
        <time>2021-01-10T14:16:30.000Z</time>
      </trkpt>
      <trkpt lat="47.30657" lon="-1.33224">
        <ele>53</ele>
        <time>2021-01-10T14:16:32.000Z</time>
      </trkpt>
      <trkpt lat="47.30642" lon="-1.33229">
        <ele>52</ele>
        <time>2021-01-10T14:16:34.000Z</time>
      </trkpt>
      <trkpt lat="47.30629" lon="-1.3324">
        <ele>53</ele>
        <time>2021-01-10T14:16:36.000Z</time>
      </trkpt>
      <trkpt lat="47.30619" lon="-1.33257">
        <ele>53</ele>
        <time>2021-01-10T14:16:38.000Z</time>
      </trkpt>
      <trkpt lat="47.30614" lon="-1.33278">
        <ele>53</ele>
        <time>2021-01-10T14:16:40.000Z</time>
      </trkpt>
      <trkpt lat="47.30614" lon="-1.33301">
        <ele>54</ele>
        <time>2021-01-10T14:16:42.000Z</time>
      </trkpt>
      <trkpt lat="47.30619" lon="-1.33321">
        <ele>54</ele>
        <time>2021-01-10T14:16:44.000Z</time>
      </trkpt>
      <trkpt lat="47.30626" lon="-1.3334">
        <ele>54</ele>
        <time>2021-01-10T14:16:46.000Z</time>
      </trkpt>
      <trkpt lat="47.30634" lon="-1.33358">
        <ele>54</ele>
        <time>2021-01-10T14:16:48.000Z</time>
      </trkpt>
      <trkpt lat="47.3064" lon="-1.33376">
        <ele>54</ele>
        <time>2021-01-10T14:16:50.000Z</time>
      </trkpt>
      <trkpt lat="47.30647" lon="-1.33394">
        <ele>55</ele>
        <time>2021-01-10T14:16:52.000Z</time>
      </trkpt>
      <trkpt lat="47.30653" lon="-1.33411">
        <ele>55</ele>
        <time>2021-01-10T14:16:54.000Z</time>
      </trkpt>
      <trkpt lat="47.30659" lon="-1.33428">
        <ele>55</ele>
        <time>2021-01-10T14:16:56.000Z</time>
      </trkpt>
      <trkpt lat="47.30665" lon="-1.33445">
        <ele>55</ele>
        <time>2021-01-10T14:16:58.000Z</time>
      </trkpt>
      <trkpt lat="47.3067" lon="-1.33461">
        <ele>55</ele>
        <time>2021-01-10T14:17:00.000Z</time>
      </trkpt>
      <trkpt lat="47.30676" lon="-1.33479">
        <ele>55</ele>
        <time>2021-01-10T14:17:02.000Z</time>
      </trkpt>
      <trkpt lat="47.30682" lon="-1.33496">
        <ele>55</ele>
        <time>2021-01-10T14:17:04.000Z</time>
      </trkpt>
      <trkpt lat="47.30688" lon="-1.33514">
        <ele>55</ele>
        <time>2021-01-10T14:17:06.000Z</time>
      </trkpt>
      <trkpt lat="47.30693" lon="-1.33532">
        <ele>55</ele>
        <time>2021-01-10T14:17:08.000Z</time>
      </trkpt>
      <trkpt lat="47.30699" lon="-1.33549">
        <ele>55</ele>
        <time>2021-01-10T14:17:10.000Z</time>
      </trkpt>
      <trkpt lat="47.30705" lon="-1.33566">
        <ele>55</ele>
        <time>2021-01-10T14:17:12.000Z</time>
      </trkpt>
      <trkpt lat="47.30711" lon="-1.33584">
        <ele>55</ele>
        <time>2021-01-10T14:17:14.000Z</time>
      </trkpt>
      <trkpt lat="47.30717" lon="-1.33601">
        <ele>55</ele>
        <time>2021-01-10T14:17:16.000Z</time>
      </trkpt>
      <trkpt lat="47.30722" lon="-1.33619">
        <ele>55</ele>
        <time>2021-01-10T14:17:18.000Z</time>
      </trkpt>
      <trkpt lat="47.30725" lon="-1.33637">
        <ele>55</ele>
        <time>2021-01-10T14:17:20.000Z</time>
      </trkpt>
      <trkpt lat="47.30722" lon="-1.33656">
        <ele>55</ele>
        <time>2021-01-10T14:17:22.000Z</time>
      </trkpt>
      <trkpt lat="47.30717" lon="-1.33673">
        <ele>56</ele>
        <time>2021-01-10T14:17:24.000Z</time>
      </trkpt>
      <trkpt lat="47.3071" lon="-1.3369">
        <ele>56</ele>
        <time>2021-01-10T14:17:26.000Z</time>
      </trkpt>
      <trkpt lat="47.30704" lon="-1.33706">
        <ele>56</ele>
        <time>2021-01-10T14:17:28.000Z</time>
      </trkpt>
      <trkpt lat="47.30695" lon="-1.33721">
        <ele>56</ele>
        <time>2021-01-10T14:17:30.000Z</time>
      </trkpt>
      <trkpt lat="47.30684" lon="-1.33735">
        <ele>57</ele>
        <time>2021-01-10T14:17:32.000Z</time>
      </trkpt>
      <trkpt lat="47.30674" lon="-1.33744">
        <ele>58</ele>
        <time>2021-01-10T14:17:34.000Z</time>
      </trkpt>
      <trkpt lat="47.30661" lon="-1.33753">
        <ele>57</ele>
        <time>2021-01-10T14:17:36.000Z</time>
      </trkpt>
      <trkpt lat="47.30648" lon="-1.33759">
        <ele>57</ele>
        <time>2021-01-10T14:17:38.000Z</time>
      </trkpt>
      <trkpt lat="47.30635" lon="-1.33764">
        <ele>57</ele>
        <time>2021-01-10T14:17:40.000Z</time>
      </trkpt>
      <trkpt lat="47.30621" lon="-1.33769">
        <ele>56</ele>
        <time>2021-01-10T14:17:42.000Z</time>
      </trkpt>
      <trkpt lat="47.30607" lon="-1.33773">
        <ele>56</ele>
        <time>2021-01-10T14:17:44.000Z</time>
      </trkpt>
      <trkpt lat="47.30594" lon="-1.33777">
        <ele>56</ele>
        <time>2021-01-10T14:17:46.000Z</time>
      </trkpt>
      <trkpt lat="47.3058" lon="-1.33782">
        <ele>56</ele>
        <time>2021-01-10T14:17:48.000Z</time>
      </trkpt>
      <trkpt lat="47.30567" lon="-1.33788">
        <ele>55</ele>
        <time>2021-01-10T14:17:50.000Z</time>
      </trkpt>
      <trkpt lat="47.30554" lon="-1.33795">
        <ele>55</ele>
        <time>2021-01-10T14:17:52.000Z</time>
      </trkpt>
      <trkpt lat="47.30541" lon="-1.33802">
        <ele>55</ele>
        <time>2021-01-10T14:17:54.000Z</time>
      </trkpt>
      <trkpt lat="47.30529" lon="-1.33809">
        <ele>55</ele>
        <time>2021-01-10T14:17:56.000Z</time>
      </trkpt>
      <trkpt lat="47.30516" lon="-1.33816">
        <ele>54</ele>
        <time>2021-01-10T14:17:58.000Z</time>
      </trkpt>
      <trkpt lat="47.30504" lon="-1.33824">
        <ele>54</ele>
        <time>2021-01-10T14:18:00.000Z</time>
      </trkpt>
      <trkpt lat="47.30493" lon="-1.33833">
        <ele>54</ele>
        <time>2021-01-10T14:18:02.000Z</time>
      </trkpt>
      <trkpt lat="47.30481" lon="-1.33843">
        <ele>54</ele>
        <time>2021-01-10T14:18:04.000Z</time>
      </trkpt>
      <trkpt lat="47.3047" lon="-1.33854">
        <ele>53</ele>
        <time>2021-01-10T14:18:06.000Z</time>
      </trkpt>
      <trkpt lat="47.30458" lon="-1.33864">
        <ele>54</ele>
        <time>2021-01-10T14:18:08.000Z</time>
      </trkpt>
      <trkpt lat="47.30448" lon="-1.33875">
        <ele>54</ele>
        <time>2021-01-10T14:18:10.000Z</time>
      </trkpt>
      <trkpt lat="47.30437" lon="-1.33885">
        <ele>54</ele>
        <time>2021-01-10T14:18:12.000Z</time>
      </trkpt>
      <trkpt lat="47.30426" lon="-1.33898">
        <ele>55</ele>
        <time>2021-01-10T14:18:14.000Z</time>
      </trkpt>
      <trkpt lat="47.30416" lon="-1.3391">
        <ele>54</ele>
        <time>2021-01-10T14:18:16.000Z</time>
      </trkpt>
      <trkpt lat="47.30406" lon="-1.33924">
        <ele>54</ele>
        <time>2021-01-10T14:18:18.000Z</time>
      </trkpt>
      <trkpt lat="47.30397" lon="-1.33938">
        <ele>54</ele>
        <time>2021-01-10T14:18:20.000Z</time>
      </trkpt>
      <trkpt lat="47.30388" lon="-1.33951">
        <ele>54</ele>
        <time>2021-01-10T14:18:22.000Z</time>
      </trkpt>
      <trkpt lat="47.30376" lon="-1.33961">
        <ele>54</ele>
        <time>2021-01-10T14:18:24.000Z</time>
      </trkpt>
      <trkpt lat="47.30366" lon="-1.33959">
        <ele>54</ele>
        <time>2021-01-10T14:18:26.000Z</time>
      </trkpt>
      <trkpt lat="47.30356" lon="-1.33973">
        <ele>55</ele>
        <time>2021-01-10T14:18:29.000Z</time>
      </trkpt>
      <trkpt lat="47.30351" lon="-1.33986">
        <ele>55</ele>
        <time>2021-01-10T14:18:31.000Z</time>
      </trkpt>
      <trkpt lat="47.30346" lon="-1.33999">
        <ele>56</ele>
        <time>2021-01-10T14:18:33.000Z</time>
      </trkpt>
      <trkpt lat="47.30339" lon="-1.34012">
        <ele>56</ele>
        <time>2021-01-10T14:18:35.000Z</time>
      </trkpt>
      <trkpt lat="47.3033" lon="-1.34026">
        <ele>55</ele>
        <time>2021-01-10T14:18:37.000Z</time>
      </trkpt>
      <trkpt lat="47.30322" lon="-1.34042">
        <ele>55</ele>
        <time>2021-01-10T14:18:39.000Z</time>
      </trkpt>
      <trkpt lat="47.30312" lon="-1.34056">
        <ele>55</ele>
        <time>2021-01-10T14:18:41.000Z</time>
      </trkpt>
      <trkpt lat="47.30303" lon="-1.34064">
        <ele>54</ele>
        <time>2021-01-10T14:18:43.000Z</time>
      </trkpt>
      <trkpt lat="47.30293" lon="-1.34074">
        <ele>54</ele>
        <time>2021-01-10T14:18:46.000Z</time>
      </trkpt>
      <trkpt lat="47.30285" lon="-1.34082">
        <ele>54</ele>
        <time>2021-01-10T14:18:48.000Z</time>
      </trkpt>
      <trkpt lat="47.30276" lon="-1.34092">
        <ele>54</ele>
        <time>2021-01-10T14:18:50.000Z</time>
      </trkpt>
      <trkpt lat="47.30268" lon="-1.34101">
        <ele>54</ele>
        <time>2021-01-10T14:18:52.000Z</time>
      </trkpt>
      <trkpt lat="47.30256" lon="-1.341">
        <ele>54</ele>
        <time>2021-01-10T14:18:55.000Z</time>
      </trkpt>
      <trkpt lat="47.30248" lon="-1.34087">
        <ele>53</ele>
        <time>2021-01-10T14:18:57.000Z</time>
      </trkpt>
      <trkpt lat="47.30242" lon="-1.34071">
        <ele>53</ele>
        <time>2021-01-10T14:18:59.000Z</time>
      </trkpt>
      <trkpt lat="47.30237" lon="-1.34054">
        <ele>53</ele>
        <time>2021-01-10T14:19:01.000Z</time>
      </trkpt>
      <trkpt lat="47.30233" lon="-1.34038">
        <ele>53</ele>
        <time>2021-01-10T14:19:03.000Z</time>
      </trkpt>
      <trkpt lat="47.30229" lon="-1.34023">
        <ele>53</ele>
        <time>2021-01-10T14:19:05.000Z</time>
      </trkpt>
      <trkpt lat="47.30224" lon="-1.3401">
        <ele>53</ele>
        <time>2021-01-10T14:19:07.000Z</time>
      </trkpt>
      <trkpt lat="47.3022" lon="-1.33998">
        <ele>52</ele>
        <time>2021-01-10T14:19:09.000Z</time>
      </trkpt>
      <trkpt lat="47.30211" lon="-1.33989">
        <ele>52</ele>
        <time>2021-01-10T14:19:12.000Z</time>
      </trkpt>
      <trkpt lat="47.30201" lon="-1.34">
        <ele>52</ele>
        <time>2021-01-10T14:19:15.000Z</time>
      </trkpt>
      <trkpt lat="47.30191" lon="-1.3401">
        <ele>51</ele>
        <time>2021-01-10T14:19:17.000Z</time>
      </trkpt>
      <trkpt lat="47.30182" lon="-1.34019">
        <ele>51</ele>
        <time>2021-01-10T14:19:19.000Z</time>
      </trkpt>
      <trkpt lat="47.30173" lon="-1.34028">
        <ele>51</ele>
        <time>2021-01-10T14:19:21.000Z</time>
      </trkpt>
      <trkpt lat="47.30165" lon="-1.34039">
        <ele>51</ele>
        <time>2021-01-10T14:19:23.000Z</time>
      </trkpt>
      <trkpt lat="47.30156" lon="-1.3405">
        <ele>52</ele>
        <time>2021-01-10T14:19:25.000Z</time>
      </trkpt>
      <trkpt lat="47.30146" lon="-1.34059">
        <ele>53</ele>
        <time>2021-01-10T14:19:27.000Z</time>
      </trkpt>
      <trkpt lat="47.30135" lon="-1.34069">
        <ele>53</ele>
        <time>2021-01-10T14:19:29.000Z</time>
      </trkpt>
      <trkpt lat="47.30126" lon="-1.34079">
        <ele>53</ele>
        <time>2021-01-10T14:19:31.000Z</time>
      </trkpt>
      <trkpt lat="47.30119" lon="-1.34094">
        <ele>54</ele>
        <time>2021-01-10T14:19:33.000Z</time>
      </trkpt>
      <trkpt lat="47.30114" lon="-1.34111">
        <ele>53</ele>
        <time>2021-01-10T14:19:35.000Z</time>
      </trkpt>
      <trkpt lat="47.3011" lon="-1.34126">
        <ele>53</ele>
        <time>2021-01-10T14:19:37.000Z</time>
      </trkpt>
      <trkpt lat="47.30106" lon="-1.3414">
        <ele>53</ele>
        <time>2021-01-10T14:19:39.000Z</time>
      </trkpt>
      <trkpt lat="47.30094" lon="-1.3414">
        <ele>53</ele>
        <time>2021-01-10T14:19:42.000Z</time>
      </trkpt>
      <trkpt lat="47.30088" lon="-1.3413">
        <ele>53</ele>
        <time>2021-01-10T14:19:44.000Z</time>
      </trkpt>
      <trkpt lat="47.30079" lon="-1.34118">
        <ele>52</ele>
        <time>2021-01-10T14:19:46.000Z</time>
      </trkpt>
      <trkpt lat="47.3007" lon="-1.34108">
        <ele>52</ele>
        <time>2021-01-10T14:19:48.000Z</time>
      </trkpt>
      <trkpt lat="47.30058" lon="-1.34101">
        <ele>51</ele>
        <time>2021-01-10T14:19:50.000Z</time>
      </trkpt>
      <trkpt lat="47.30048" lon="-1.34102">
        <ele>51</ele>
        <time>2021-01-10T14:19:52.000Z</time>
      </trkpt>
      <trkpt lat="47.30037" lon="-1.34108">
        <ele>51</ele>
        <time>2021-01-10T14:19:54.000Z</time>
      </trkpt>
      <trkpt lat="47.30026" lon="-1.34115">
        <ele>50</ele>
        <time>2021-01-10T14:19:56.000Z</time>
      </trkpt>
      <trkpt lat="47.30017" lon="-1.34127">
        <ele>50</ele>
        <time>2021-01-10T14:19:58.000Z</time>
      </trkpt>
      <trkpt lat="47.30015" lon="-1.34144">
        <ele>50</ele>
        <time>2021-01-10T14:20:00.000Z</time>
      </trkpt>
      <trkpt lat="47.30019" lon="-1.34163">
        <ele>50</ele>
        <time>2021-01-10T14:20:02.000Z</time>
      </trkpt>
      <trkpt lat="47.30023" lon="-1.34184">
        <ele>51</ele>
        <time>2021-01-10T14:20:04.000Z</time>
      </trkpt>
      <trkpt lat="47.30026" lon="-1.34204">
        <ele>52</ele>
        <time>2021-01-10T14:20:06.000Z</time>
      </trkpt>
      <trkpt lat="47.3003" lon="-1.34222">
        <ele>53</ele>
        <time>2021-01-10T14:20:08.000Z</time>
      </trkpt>
      <trkpt lat="47.30034" lon="-1.34242">
        <ele>53</ele>
        <time>2021-01-10T14:20:10.000Z</time>
      </trkpt>
      <trkpt lat="47.30037" lon="-1.34261">
        <ele>53</ele>
        <time>2021-01-10T14:20:12.000Z</time>
      </trkpt>
      <trkpt lat="47.3004" lon="-1.3428">
        <ele>54</ele>
        <time>2021-01-10T14:20:14.000Z</time>
      </trkpt>
      <trkpt lat="47.30045" lon="-1.34298">
        <ele>55</ele>
        <time>2021-01-10T14:20:16.000Z</time>
      </trkpt>
      <trkpt lat="47.30049" lon="-1.34317">
        <ele>55</ele>
        <time>2021-01-10T14:20:18.000Z</time>
      </trkpt>
      <trkpt lat="47.30053" lon="-1.34335">
        <ele>56</ele>
        <time>2021-01-10T14:20:20.000Z</time>
      </trkpt>
      <trkpt lat="47.30057" lon="-1.34354">
        <ele>56</ele>
        <time>2021-01-10T14:20:22.000Z</time>
      </trkpt>
      <trkpt lat="47.3006" lon="-1.34372">
        <ele>55</ele>
        <time>2021-01-10T14:20:24.000Z</time>
      </trkpt>
      <trkpt lat="47.30065" lon="-1.34391">
        <ele>56</ele>
        <time>2021-01-10T14:20:26.000Z</time>
      </trkpt>
      <trkpt lat="47.30068" lon="-1.3441">
        <ele>56</ele>
        <time>2021-01-10T14:20:28.000Z</time>
      </trkpt>
      <trkpt lat="47.30071" lon="-1.34429">
        <ele>56</ele>
        <time>2021-01-10T14:20:30.000Z</time>
      </trkpt>
      <trkpt lat="47.30074" lon="-1.34447">
        <ele>56</ele>
        <time>2021-01-10T14:20:32.000Z</time>
      </trkpt>
      <trkpt lat="47.30077" lon="-1.34465">
        <ele>56</ele>
        <time>2021-01-10T14:20:34.000Z</time>
      </trkpt>
      <trkpt lat="47.3008" lon="-1.34482">
        <ele>56</ele>
        <time>2021-01-10T14:20:36.000Z</time>
      </trkpt>
      <trkpt lat="47.30083" lon="-1.34499">
        <ele>56</ele>
        <time>2021-01-10T14:20:38.000Z</time>
      </trkpt>
      <trkpt lat="47.30088" lon="-1.3451">
        <ele>57</ele>
        <time>2021-01-10T14:20:40.000Z</time>
      </trkpt>
      <trkpt lat="47.30096" lon="-1.34521">
        <ele>57</ele>
        <time>2021-01-10T14:20:42.000Z</time>
      </trkpt>
      <trkpt lat="47.30102" lon="-1.34532">
        <ele>57</ele>
        <time>2021-01-10T14:20:44.000Z</time>
      </trkpt>
      <trkpt lat="47.30107" lon="-1.34551">
        <ele>57</ele>
        <time>2021-01-10T14:20:47.000Z</time>
      </trkpt>
      <trkpt lat="47.30105" lon="-1.34566">
        <ele>57</ele>
        <time>2021-01-10T14:20:49.000Z</time>
      </trkpt>
      <trkpt lat="47.30102" lon="-1.3458">
        <ele>57</ele>
        <time>2021-01-10T14:20:51.000Z</time>
      </trkpt>
      <trkpt lat="47.30099" lon="-1.34599">
        <ele>57</ele>
        <time>2021-01-10T14:20:54.000Z</time>
      </trkpt>
      <trkpt lat="47.30097" lon="-1.34615">
        <ele>57</ele>
        <time>2021-01-10T14:20:57.000Z</time>
      </trkpt>
      <trkpt lat="47.30099" lon="-1.3463">
        <ele>57</ele>
        <time>2021-01-10T14:20:59.000Z</time>
      </trkpt>
      <trkpt lat="47.30102" lon="-1.34649">
        <ele>57</ele>
        <time>2021-01-10T14:21:01.000Z</time>
      </trkpt>
      <trkpt lat="47.30103" lon="-1.34666">
        <ele>57</ele>
        <time>2021-01-10T14:21:03.000Z</time>
      </trkpt>
      <trkpt lat="47.30105" lon="-1.34685">
        <ele>58</ele>
        <time>2021-01-10T14:21:05.000Z</time>
      </trkpt>
      <trkpt lat="47.30105" lon="-1.34704">
        <ele>58</ele>
        <time>2021-01-10T14:21:07.000Z</time>
      </trkpt>
      <trkpt lat="47.30106" lon="-1.34725">
        <ele>58</ele>
        <time>2021-01-10T14:21:09.000Z</time>
      </trkpt>
      <trkpt lat="47.30107" lon="-1.34745">
        <ele>57</ele>
        <time>2021-01-10T14:21:11.000Z</time>
      </trkpt>
      <trkpt lat="47.30107" lon="-1.34765">
        <ele>57</ele>
        <time>2021-01-10T14:21:13.000Z</time>
      </trkpt>
      <trkpt lat="47.30106" lon="-1.34785">
        <ele>57</ele>
        <time>2021-01-10T14:21:15.000Z</time>
      </trkpt>
      <trkpt lat="47.30104" lon="-1.34805">
        <ele>57</ele>
        <time>2021-01-10T14:21:17.000Z</time>
      </trkpt>
      <trkpt lat="47.30103" lon="-1.34825">
        <ele>57</ele>
        <time>2021-01-10T14:21:19.000Z</time>
      </trkpt>
      <trkpt lat="47.30101" lon="-1.34844">
        <ele>57</ele>
        <time>2021-01-10T14:21:21.000Z</time>
      </trkpt>
      <trkpt lat="47.301" lon="-1.34864">
        <ele>57</ele>
        <time>2021-01-10T14:21:23.000Z</time>
      </trkpt>
      <trkpt lat="47.30097" lon="-1.34883">
        <ele>57</ele>
        <time>2021-01-10T14:21:25.000Z</time>
      </trkpt>
      <trkpt lat="47.30093" lon="-1.34903">
        <ele>57</ele>
        <time>2021-01-10T14:21:27.000Z</time>
      </trkpt>
      <trkpt lat="47.30089" lon="-1.34922">
        <ele>57</ele>
        <time>2021-01-10T14:21:29.000Z</time>
      </trkpt>
      <trkpt lat="47.30085" lon="-1.34941">
        <ele>57</ele>
        <time>2021-01-10T14:21:31.000Z</time>
      </trkpt>
      <trkpt lat="47.30081" lon="-1.34961">
        <ele>57</ele>
        <time>2021-01-10T14:21:33.000Z</time>
      </trkpt>
      <trkpt lat="47.30076" lon="-1.3498">
        <ele>57</ele>
        <time>2021-01-10T14:21:35.000Z</time>
      </trkpt>
      <trkpt lat="47.30071" lon="-1.34999">
        <ele>57</ele>
        <time>2021-01-10T14:21:37.000Z</time>
      </trkpt>
      <trkpt lat="47.30065" lon="-1.35017">
        <ele>57</ele>
        <time>2021-01-10T14:21:39.000Z</time>
      </trkpt>
      <trkpt lat="47.30059" lon="-1.35036">
        <ele>57</ele>
        <time>2021-01-10T14:21:41.000Z</time>
      </trkpt>
      <trkpt lat="47.30052" lon="-1.35054">
        <ele>57</ele>
        <time>2021-01-10T14:21:43.000Z</time>
      </trkpt>
      <trkpt lat="47.30045" lon="-1.35072">
        <ele>57</ele>
        <time>2021-01-10T14:21:45.000Z</time>
      </trkpt>
      <trkpt lat="47.30038" lon="-1.35089">
        <ele>57</ele>
        <time>2021-01-10T14:21:47.000Z</time>
      </trkpt>
      <trkpt lat="47.3003" lon="-1.35106">
        <ele>57</ele>
        <time>2021-01-10T14:21:49.000Z</time>
      </trkpt>
      <trkpt lat="47.30022" lon="-1.35123">
        <ele>57</ele>
        <time>2021-01-10T14:21:51.000Z</time>
      </trkpt>
      <trkpt lat="47.30014" lon="-1.35139">
        <ele>57</ele>
        <time>2021-01-10T14:21:53.000Z</time>
      </trkpt>
      <trkpt lat="47.30005" lon="-1.35155">
        <ele>57</ele>
        <time>2021-01-10T14:21:55.000Z</time>
      </trkpt>
      <trkpt lat="47.29996" lon="-1.35173">
        <ele>57</ele>
        <time>2021-01-10T14:21:57.000Z</time>
      </trkpt>
      <trkpt lat="47.29988" lon="-1.3519">
        <ele>57</ele>
        <time>2021-01-10T14:21:59.000Z</time>
      </trkpt>
      <trkpt lat="47.29979" lon="-1.35206">
        <ele>56</ele>
        <time>2021-01-10T14:22:01.000Z</time>
      </trkpt>
      <trkpt lat="47.29971" lon="-1.35223">
        <ele>57</ele>
        <time>2021-01-10T14:22:03.000Z</time>
      </trkpt>
      <trkpt lat="47.29962" lon="-1.35241">
        <ele>57</ele>
        <time>2021-01-10T14:22:05.000Z</time>
      </trkpt>
      <trkpt lat="47.29953" lon="-1.35258">
        <ele>56</ele>
        <time>2021-01-10T14:22:07.000Z</time>
      </trkpt>
      <trkpt lat="47.29944" lon="-1.35276">
        <ele>56</ele>
        <time>2021-01-10T14:22:09.000Z</time>
      </trkpt>
      <trkpt lat="47.29934" lon="-1.35294">
        <ele>57</ele>
        <time>2021-01-10T14:22:11.000Z</time>
      </trkpt>
      <trkpt lat="47.29925" lon="-1.35313">
        <ele>57</ele>
        <time>2021-01-10T14:22:13.000Z</time>
      </trkpt>
      <trkpt lat="47.29915" lon="-1.35331">
        <ele>57</ele>
        <time>2021-01-10T14:22:15.000Z</time>
      </trkpt>
      <trkpt lat="47.29905" lon="-1.35349">
        <ele>57</ele>
        <time>2021-01-10T14:22:17.000Z</time>
      </trkpt>
      <trkpt lat="47.29896" lon="-1.35368">
        <ele>57</ele>
        <time>2021-01-10T14:22:19.000Z</time>
      </trkpt>
      <trkpt lat="47.29886" lon="-1.35386">
        <ele>57</ele>
        <time>2021-01-10T14:22:21.000Z</time>
      </trkpt>
      <trkpt lat="47.29877" lon="-1.35405">
        <ele>57</ele>
        <time>2021-01-10T14:22:23.000Z</time>
      </trkpt>
      <trkpt lat="47.29867" lon="-1.35423">
        <ele>57</ele>
        <time>2021-01-10T14:22:25.000Z</time>
      </trkpt>
      <trkpt lat="47.29858" lon="-1.35442">
        <ele>57</ele>
        <time>2021-01-10T14:22:27.000Z</time>
      </trkpt>
      <trkpt lat="47.29848" lon="-1.3546">
        <ele>57</ele>
        <time>2021-01-10T14:22:29.000Z</time>
      </trkpt>
      <trkpt lat="47.29838" lon="-1.35479">
        <ele>57</ele>
        <time>2021-01-10T14:22:31.000Z</time>
      </trkpt>
      <trkpt lat="47.29828" lon="-1.35498">
        <ele>57</ele>
        <time>2021-01-10T14:22:33.000Z</time>
      </trkpt>
      <trkpt lat="47.29819" lon="-1.35516">
        <ele>57</ele>
        <time>2021-01-10T14:22:35.000Z</time>
      </trkpt>
      <trkpt lat="47.29809" lon="-1.35535">
        <ele>57</ele>
        <time>2021-01-10T14:22:37.000Z</time>
      </trkpt>
      <trkpt lat="47.29799" lon="-1.35554">
        <ele>57</ele>
        <time>2021-01-10T14:22:39.000Z</time>
      </trkpt>
      <trkpt lat="47.29789" lon="-1.35573">
        <ele>57</ele>
        <time>2021-01-10T14:22:41.000Z</time>
      </trkpt>
      <trkpt lat="47.2978" lon="-1.35592">
        <ele>57</ele>
        <time>2021-01-10T14:22:43.000Z</time>
      </trkpt>
      <trkpt lat="47.2977" lon="-1.35611">
        <ele>57</ele>
        <time>2021-01-10T14:22:45.000Z</time>
      </trkpt>
      <trkpt lat="47.2976" lon="-1.3563">
        <ele>57</ele>
        <time>2021-01-10T14:22:47.000Z</time>
      </trkpt>
      <trkpt lat="47.29751" lon="-1.35649">
        <ele>57</ele>
        <time>2021-01-10T14:22:49.000Z</time>
      </trkpt>
      <trkpt lat="47.29741" lon="-1.35669">
        <ele>57</ele>
        <time>2021-01-10T14:22:51.000Z</time>
      </trkpt>
      <trkpt lat="47.29731" lon="-1.35688">
        <ele>57</ele>
        <time>2021-01-10T14:22:53.000Z</time>
      </trkpt>
      <trkpt lat="47.29721" lon="-1.35707">
        <ele>57</ele>
        <time>2021-01-10T14:22:55.000Z</time>
      </trkpt>
      <trkpt lat="47.29711" lon="-1.35726">
        <ele>57</ele>
        <time>2021-01-10T14:22:57.000Z</time>
      </trkpt>
      <trkpt lat="47.297" lon="-1.35745">
        <ele>57</ele>
        <time>2021-01-10T14:22:59.000Z</time>
      </trkpt>
      <trkpt lat="47.29691" lon="-1.35764">
        <ele>56</ele>
        <time>2021-01-10T14:23:01.000Z</time>
      </trkpt>
      <trkpt lat="47.29681" lon="-1.35783">
        <ele>57</ele>
        <time>2021-01-10T14:23:03.000Z</time>
      </trkpt>
      <trkpt lat="47.29671" lon="-1.35802">
        <ele>56</ele>
        <time>2021-01-10T14:23:05.000Z</time>
      </trkpt>
      <trkpt lat="47.29662" lon="-1.35821">
        <ele>56</ele>
        <time>2021-01-10T14:23:07.000Z</time>
      </trkpt>
      <trkpt lat="47.29652" lon="-1.35839">
        <ele>56</ele>
        <time>2021-01-10T14:23:09.000Z</time>
      </trkpt>
      <trkpt lat="47.29643" lon="-1.35857">
        <ele>56</ele>
        <time>2021-01-10T14:23:11.000Z</time>
      </trkpt>
      <trkpt lat="47.29633" lon="-1.35875">
        <ele>56</ele>
        <time>2021-01-10T14:23:13.000Z</time>
      </trkpt>
      <trkpt lat="47.29623" lon="-1.35894">
        <ele>56</ele>
        <time>2021-01-10T14:23:15.000Z</time>
      </trkpt>
      <trkpt lat="47.29614" lon="-1.35912">
        <ele>56</ele>
        <time>2021-01-10T14:23:17.000Z</time>
      </trkpt>
      <trkpt lat="47.29604" lon="-1.3593">
        <ele>55</ele>
        <time>2021-01-10T14:23:19.000Z</time>
      </trkpt>
      <trkpt lat="47.29594" lon="-1.35949">
        <ele>55</ele>
        <time>2021-01-10T14:23:21.000Z</time>
      </trkpt>
      <trkpt lat="47.29584" lon="-1.35968">
        <ele>55</ele>
        <time>2021-01-10T14:23:23.000Z</time>
      </trkpt>
      <trkpt lat="47.29575" lon="-1.35986">
        <ele>55</ele>
        <time>2021-01-10T14:23:25.000Z</time>
      </trkpt>
      <trkpt lat="47.29566" lon="-1.36004">
        <ele>55</ele>
        <time>2021-01-10T14:23:27.000Z</time>
      </trkpt>
      <trkpt lat="47.29556" lon="-1.36022">
        <ele>55</ele>
        <time>2021-01-10T14:23:29.000Z</time>
      </trkpt>
      <trkpt lat="47.29547" lon="-1.36041">
        <ele>55</ele>
        <time>2021-01-10T14:23:31.000Z</time>
      </trkpt>
      <trkpt lat="47.29538" lon="-1.36059">
        <ele>55</ele>
        <time>2021-01-10T14:23:33.000Z</time>
      </trkpt>
      <trkpt lat="47.29529" lon="-1.36077">
        <ele>55</ele>
        <time>2021-01-10T14:23:35.000Z</time>
      </trkpt>
      <trkpt lat="47.2952" lon="-1.36096">
        <ele>55</ele>
        <time>2021-01-10T14:23:37.000Z</time>
      </trkpt>
      <trkpt lat="47.2951" lon="-1.36114">
        <ele>55</ele>
        <time>2021-01-10T14:23:39.000Z</time>
      </trkpt>
      <trkpt lat="47.29501" lon="-1.36133">
        <ele>56</ele>
        <time>2021-01-10T14:23:41.000Z</time>
      </trkpt>
      <trkpt lat="47.29492" lon="-1.3615">
        <ele>56</ele>
        <time>2021-01-10T14:23:43.000Z</time>
      </trkpt>
      <trkpt lat="47.29482" lon="-1.36168">
        <ele>56</ele>
        <time>2021-01-10T14:23:45.000Z</time>
      </trkpt>
      <trkpt lat="47.29473" lon="-1.36185">
        <ele>56</ele>
        <time>2021-01-10T14:23:47.000Z</time>
      </trkpt>
      <trkpt lat="47.29464" lon="-1.36202">
        <ele>56</ele>
        <time>2021-01-10T14:23:49.000Z</time>
      </trkpt>
      <trkpt lat="47.29455" lon="-1.3622">
        <ele>56</ele>
        <time>2021-01-10T14:23:51.000Z</time>
      </trkpt>
      <trkpt lat="47.29447" lon="-1.36237">
        <ele>56</ele>
        <time>2021-01-10T14:23:53.000Z</time>
      </trkpt>
      <trkpt lat="47.29438" lon="-1.36255">
        <ele>56</ele>
        <time>2021-01-10T14:23:55.000Z</time>
      </trkpt>
      <trkpt lat="47.29429" lon="-1.36272">
        <ele>56</ele>
        <time>2021-01-10T14:23:57.000Z</time>
      </trkpt>
      <trkpt lat="47.2942" lon="-1.3629">
        <ele>56</ele>
        <time>2021-01-10T14:23:59.000Z</time>
      </trkpt>
      <trkpt lat="47.2941" lon="-1.36308">
        <ele>56</ele>
        <time>2021-01-10T14:24:01.000Z</time>
      </trkpt>
      <trkpt lat="47.29401" lon="-1.36325">
        <ele>56</ele>
        <time>2021-01-10T14:24:03.000Z</time>
      </trkpt>
      <trkpt lat="47.29392" lon="-1.36343">
        <ele>56</ele>
        <time>2021-01-10T14:24:05.000Z</time>
      </trkpt>
      <trkpt lat="47.29383" lon="-1.36361">
        <ele>56</ele>
        <time>2021-01-10T14:24:07.000Z</time>
      </trkpt>
      <trkpt lat="47.29373" lon="-1.36379">
        <ele>56</ele>
        <time>2021-01-10T14:24:09.000Z</time>
      </trkpt>
      <trkpt lat="47.29364" lon="-1.36397">
        <ele>55</ele>
        <time>2021-01-10T14:24:11.000Z</time>
      </trkpt>
      <trkpt lat="47.29355" lon="-1.36415">
        <ele>55</ele>
        <time>2021-01-10T14:24:13.000Z</time>
      </trkpt>
      <trkpt lat="47.29346" lon="-1.36432">
        <ele>55</ele>
        <time>2021-01-10T14:24:15.000Z</time>
      </trkpt>
      <trkpt lat="47.29337" lon="-1.36449">
        <ele>55</ele>
        <time>2021-01-10T14:24:17.000Z</time>
      </trkpt>
      <trkpt lat="47.29328" lon="-1.36467">
        <ele>55</ele>
        <time>2021-01-10T14:24:19.000Z</time>
      </trkpt>
      <trkpt lat="47.29319" lon="-1.36484">
        <ele>56</ele>
        <time>2021-01-10T14:24:21.000Z</time>
      </trkpt>
      <trkpt lat="47.2931" lon="-1.36501">
        <ele>55</ele>
        <time>2021-01-10T14:24:23.000Z</time>
      </trkpt>
      <trkpt lat="47.29302" lon="-1.36518">
        <ele>56</ele>
        <time>2021-01-10T14:24:25.000Z</time>
      </trkpt>
      <trkpt lat="47.29293" lon="-1.36535">
        <ele>56</ele>
        <time>2021-01-10T14:24:27.000Z</time>
      </trkpt>
      <trkpt lat="47.29284" lon="-1.36552">
        <ele>56</ele>
        <time>2021-01-10T14:24:29.000Z</time>
      </trkpt>
      <trkpt lat="47.29275" lon="-1.36569">
        <ele>55</ele>
        <time>2021-01-10T14:24:31.000Z</time>
      </trkpt>
      <trkpt lat="47.29266" lon="-1.36585">
        <ele>55</ele>
        <time>2021-01-10T14:24:33.000Z</time>
      </trkpt>
      <trkpt lat="47.29257" lon="-1.36602">
        <ele>55</ele>
        <time>2021-01-10T14:24:35.000Z</time>
      </trkpt>
      <trkpt lat="47.29249" lon="-1.3662">
        <ele>56</ele>
        <time>2021-01-10T14:24:37.000Z</time>
      </trkpt>
      <trkpt lat="47.2924" lon="-1.36636">
        <ele>55</ele>
        <time>2021-01-10T14:24:39.000Z</time>
      </trkpt>
      <trkpt lat="47.29231" lon="-1.36653">
        <ele>55</ele>
        <time>2021-01-10T14:24:41.000Z</time>
      </trkpt>
      <trkpt lat="47.29222" lon="-1.36671">
        <ele>55</ele>
        <time>2021-01-10T14:24:43.000Z</time>
      </trkpt>
      <trkpt lat="47.29213" lon="-1.36688">
        <ele>55</ele>
        <time>2021-01-10T14:24:45.000Z</time>
      </trkpt>
      <trkpt lat="47.29204" lon="-1.36705">
        <ele>55</ele>
        <time>2021-01-10T14:24:47.000Z</time>
      </trkpt>
      <trkpt lat="47.29195" lon="-1.36723">
        <ele>55</ele>
        <time>2021-01-10T14:24:49.000Z</time>
      </trkpt>
      <trkpt lat="47.29186" lon="-1.3674">
        <ele>55</ele>
        <time>2021-01-10T14:24:51.000Z</time>
      </trkpt>
      <trkpt lat="47.29177" lon="-1.36758">
        <ele>55</ele>
        <time>2021-01-10T14:24:53.000Z</time>
      </trkpt>
      <trkpt lat="47.29168" lon="-1.36775">
        <ele>55</ele>
        <time>2021-01-10T14:24:55.000Z</time>
      </trkpt>
      <trkpt lat="47.29159" lon="-1.36793">
        <ele>55</ele>
        <time>2021-01-10T14:24:57.000Z</time>
      </trkpt>
      <trkpt lat="47.2915" lon="-1.3681">
        <ele>55</ele>
        <time>2021-01-10T14:24:59.000Z</time>
      </trkpt>
      <trkpt lat="47.29141" lon="-1.36828">
        <ele>55</ele>
        <time>2021-01-10T14:25:01.000Z</time>
      </trkpt>
      <trkpt lat="47.29132" lon="-1.36844">
        <ele>54</ele>
        <time>2021-01-10T14:25:03.000Z</time>
      </trkpt>
      <trkpt lat="47.29123" lon="-1.36862">
        <ele>55</ele>
        <time>2021-01-10T14:25:05.000Z</time>
      </trkpt>
      <trkpt lat="47.29114" lon="-1.36879">
        <ele>55</ele>
        <time>2021-01-10T14:25:07.000Z</time>
      </trkpt>
      <trkpt lat="47.29105" lon="-1.36896">
        <ele>55</ele>
        <time>2021-01-10T14:25:09.000Z</time>
      </trkpt>
      <trkpt lat="47.29096" lon="-1.36914">
        <ele>55</ele>
        <time>2021-01-10T14:25:11.000Z</time>
      </trkpt>
      <trkpt lat="47.29087" lon="-1.36932">
        <ele>55</ele>
        <time>2021-01-10T14:25:13.000Z</time>
      </trkpt>
      <trkpt lat="47.29078" lon="-1.36949">
        <ele>55</ele>
        <time>2021-01-10T14:25:15.000Z</time>
      </trkpt>
      <trkpt lat="47.29069" lon="-1.36967">
        <ele>55</ele>
        <time>2021-01-10T14:25:17.000Z</time>
      </trkpt>
      <trkpt lat="47.29059" lon="-1.36986">
        <ele>55</ele>
        <time>2021-01-10T14:25:19.000Z</time>
      </trkpt>
      <trkpt lat="47.29049" lon="-1.37004">
        <ele>55</ele>
        <time>2021-01-10T14:25:21.000Z</time>
      </trkpt>
      <trkpt lat="47.2904" lon="-1.37023">
        <ele>55</ele>
        <time>2021-01-10T14:25:23.000Z</time>
      </trkpt>
      <trkpt lat="47.29031" lon="-1.37041">
        <ele>55</ele>
        <time>2021-01-10T14:25:25.000Z</time>
      </trkpt>
      <trkpt lat="47.29021" lon="-1.37059">
        <ele>54</ele>
        <time>2021-01-10T14:25:27.000Z</time>
      </trkpt>
      <trkpt lat="47.29012" lon="-1.37077">
        <ele>54</ele>
        <time>2021-01-10T14:25:29.000Z</time>
      </trkpt>
      <trkpt lat="47.29004" lon="-1.37095">
        <ele>54</ele>
        <time>2021-01-10T14:25:31.000Z</time>
      </trkpt>
      <trkpt lat="47.28995" lon="-1.37113">
        <ele>54</ele>
        <time>2021-01-10T14:25:33.000Z</time>
      </trkpt>
      <trkpt lat="47.28986" lon="-1.37132">
        <ele>54</ele>
        <time>2021-01-10T14:25:35.000Z</time>
      </trkpt>
      <trkpt lat="47.28978" lon="-1.3715">
        <ele>54</ele>
        <time>2021-01-10T14:25:37.000Z</time>
      </trkpt>
      <trkpt lat="47.2897" lon="-1.37169">
        <ele>54</ele>
        <time>2021-01-10T14:25:39.000Z</time>
      </trkpt>
      <trkpt lat="47.28963" lon="-1.37188">
        <ele>53</ele>
        <time>2021-01-10T14:25:41.000Z</time>
      </trkpt>
      <trkpt lat="47.28955" lon="-1.37207">
        <ele>53</ele>
        <time>2021-01-10T14:25:43.000Z</time>
      </trkpt>
      <trkpt lat="47.28947" lon="-1.37227">
        <ele>53</ele>
        <time>2021-01-10T14:25:45.000Z</time>
      </trkpt>
      <trkpt lat="47.28941" lon="-1.37248">
        <ele>54</ele>
        <time>2021-01-10T14:25:47.000Z</time>
      </trkpt>
      <trkpt lat="47.28934" lon="-1.37268">
        <ele>54</ele>
        <time>2021-01-10T14:25:49.000Z</time>
      </trkpt>
      <trkpt lat="47.28928" lon="-1.37289">
        <ele>54</ele>
        <time>2021-01-10T14:25:51.000Z</time>
      </trkpt>
      <trkpt lat="47.28921" lon="-1.37309">
        <ele>54</ele>
        <time>2021-01-10T14:25:53.000Z</time>
      </trkpt>
      <trkpt lat="47.28914" lon="-1.3733">
        <ele>53</ele>
        <time>2021-01-10T14:25:55.000Z</time>
      </trkpt>
      <trkpt lat="47.28908" lon="-1.3735">
        <ele>54</ele>
        <time>2021-01-10T14:25:57.000Z</time>
      </trkpt>
      <trkpt lat="47.28902" lon="-1.37371">
        <ele>53</ele>
        <time>2021-01-10T14:25:59.000Z</time>
      </trkpt>
      <trkpt lat="47.28896" lon="-1.37391">
        <ele>53</ele>
        <time>2021-01-10T14:26:01.000Z</time>
      </trkpt>
      <trkpt lat="47.2889" lon="-1.37411">
        <ele>54</ele>
        <time>2021-01-10T14:26:03.000Z</time>
      </trkpt>
      <trkpt lat="47.28883" lon="-1.3743">
        <ele>53</ele>
        <time>2021-01-10T14:26:05.000Z</time>
      </trkpt>
      <trkpt lat="47.28878" lon="-1.37449">
        <ele>53</ele>
        <time>2021-01-10T14:26:07.000Z</time>
      </trkpt>
      <trkpt lat="47.28871" lon="-1.3747">
        <ele>53</ele>
        <time>2021-01-10T14:26:09.000Z</time>
      </trkpt>
      <trkpt lat="47.28865" lon="-1.37489">
        <ele>53</ele>
        <time>2021-01-10T14:26:11.000Z</time>
      </trkpt>
      <trkpt lat="47.28858" lon="-1.37509">
        <ele>53</ele>
        <time>2021-01-10T14:26:13.000Z</time>
      </trkpt>
      <trkpt lat="47.28852" lon="-1.37529">
        <ele>53</ele>
        <time>2021-01-10T14:26:15.000Z</time>
      </trkpt>
      <trkpt lat="47.28846" lon="-1.37548">
        <ele>54</ele>
        <time>2021-01-10T14:26:17.000Z</time>
      </trkpt>
      <trkpt lat="47.2884" lon="-1.37567">
        <ele>54</ele>
        <time>2021-01-10T14:26:19.000Z</time>
      </trkpt>
      <trkpt lat="47.28837" lon="-1.37585">
        <ele>55</ele>
        <time>2021-01-10T14:26:21.000Z</time>
      </trkpt>
      <trkpt lat="47.28825" lon="-1.37597">
        <ele>54</ele>
        <time>2021-01-10T14:26:23.000Z</time>
      </trkpt>
      <trkpt lat="47.28811" lon="-1.3761">
        <ele>54</ele>
        <time>2021-01-10T14:26:25.000Z</time>
      </trkpt>
      <trkpt lat="47.28798" lon="-1.37626">
        <ele>53</ele>
        <time>2021-01-10T14:26:27.000Z</time>
      </trkpt>
      <trkpt lat="47.28785" lon="-1.37642">
        <ele>54</ele>
        <time>2021-01-10T14:26:29.000Z</time>
      </trkpt>
      <trkpt lat="47.28772" lon="-1.37657">
        <ele>54</ele>
        <time>2021-01-10T14:26:31.000Z</time>
      </trkpt>
      <trkpt lat="47.28759" lon="-1.37672">
        <ele>54</ele>
        <time>2021-01-10T14:26:33.000Z</time>
      </trkpt>
      <trkpt lat="47.28747" lon="-1.37687">
        <ele>53</ele>
        <time>2021-01-10T14:26:35.000Z</time>
      </trkpt>
      <trkpt lat="47.28735" lon="-1.37701">
        <ele>54</ele>
        <time>2021-01-10T14:26:37.000Z</time>
      </trkpt>
      <trkpt lat="47.28723" lon="-1.37716">
        <ele>53</ele>
        <time>2021-01-10T14:26:39.000Z</time>
      </trkpt>
      <trkpt lat="47.2871" lon="-1.3773">
        <ele>53</ele>
        <time>2021-01-10T14:26:41.000Z</time>
      </trkpt>
      <trkpt lat="47.28698" lon="-1.37745">
        <ele>54</ele>
        <time>2021-01-10T14:26:43.000Z</time>
      </trkpt>
      <trkpt lat="47.28685" lon="-1.3776">
        <ele>53</ele>
        <time>2021-01-10T14:26:45.000Z</time>
      </trkpt>
      <trkpt lat="47.28672" lon="-1.37774">
        <ele>53</ele>
        <time>2021-01-10T14:26:47.000Z</time>
      </trkpt>
      <trkpt lat="47.28659" lon="-1.3779">
        <ele>53</ele>
        <time>2021-01-10T14:26:49.000Z</time>
      </trkpt>
      <trkpt lat="47.28646" lon="-1.37804">
        <ele>53</ele>
        <time>2021-01-10T14:26:51.000Z</time>
      </trkpt>
      <trkpt lat="47.28634" lon="-1.37819">
        <ele>53</ele>
        <time>2021-01-10T14:26:53.000Z</time>
      </trkpt>
      <trkpt lat="47.28621" lon="-1.37834">
        <ele>53</ele>
        <time>2021-01-10T14:26:55.000Z</time>
      </trkpt>
      <trkpt lat="47.28609" lon="-1.37849">
        <ele>53</ele>
        <time>2021-01-10T14:26:57.000Z</time>
      </trkpt>
      <trkpt lat="47.28596" lon="-1.37863">
        <ele>53</ele>
        <time>2021-01-10T14:26:59.000Z</time>
      </trkpt>
      <trkpt lat="47.28583" lon="-1.37878">
        <ele>53</ele>
        <time>2021-01-10T14:27:01.000Z</time>
      </trkpt>
      <trkpt lat="47.2857" lon="-1.37892">
        <ele>53</ele>
        <time>2021-01-10T14:27:03.000Z</time>
      </trkpt>
      <trkpt lat="47.28557" lon="-1.37907">
        <ele>54</ele>
        <time>2021-01-10T14:27:05.000Z</time>
      </trkpt>
      <trkpt lat="47.28544" lon="-1.37922">
        <ele>54</ele>
        <time>2021-01-10T14:27:07.000Z</time>
      </trkpt>
      <trkpt lat="47.28532" lon="-1.37936">
        <ele>54</ele>
        <time>2021-01-10T14:27:09.000Z</time>
      </trkpt>
      <trkpt lat="47.28519" lon="-1.37951">
        <ele>54</ele>
        <time>2021-01-10T14:27:11.000Z</time>
      </trkpt>
      <trkpt lat="47.28507" lon="-1.37966">
        <ele>53</ele>
        <time>2021-01-10T14:27:13.000Z</time>
      </trkpt>
      <trkpt lat="47.28494" lon="-1.37981">
        <ele>53</ele>
        <time>2021-01-10T14:27:15.000Z</time>
      </trkpt>
      <trkpt lat="47.28481" lon="-1.37996">
        <ele>54</ele>
        <time>2021-01-10T14:27:17.000Z</time>
      </trkpt>
      <trkpt lat="47.28469" lon="-1.38011">
        <ele>54</ele>
        <time>2021-01-10T14:27:19.000Z</time>
      </trkpt>
      <trkpt lat="47.28456" lon="-1.38026">
        <ele>54</ele>
        <time>2021-01-10T14:27:21.000Z</time>
      </trkpt>
      <trkpt lat="47.28443" lon="-1.3804">
        <ele>53</ele>
        <time>2021-01-10T14:27:23.000Z</time>
      </trkpt>
      <trkpt lat="47.28431" lon="-1.38055">
        <ele>54</ele>
        <time>2021-01-10T14:27:25.000Z</time>
      </trkpt>
      <trkpt lat="47.28418" lon="-1.38069">
        <ele>54</ele>
        <time>2021-01-10T14:27:27.000Z</time>
      </trkpt>
      <trkpt lat="47.28406" lon="-1.38083">
        <ele>54</ele>
        <time>2021-01-10T14:27:29.000Z</time>
      </trkpt>
      <trkpt lat="47.28395" lon="-1.38098">
        <ele>54</ele>
        <time>2021-01-10T14:27:31.000Z</time>
      </trkpt>
      <trkpt lat="47.28383" lon="-1.38113">
        <ele>54</ele>
        <time>2021-01-10T14:27:33.000Z</time>
      </trkpt>
      <trkpt lat="47.28372" lon="-1.38131">
        <ele>54</ele>
        <time>2021-01-10T14:27:35.000Z</time>
      </trkpt>
      <trkpt lat="47.28363" lon="-1.3815">
        <ele>54</ele>
        <time>2021-01-10T14:27:37.000Z</time>
      </trkpt>
      <trkpt lat="47.28356" lon="-1.38171">
        <ele>53</ele>
        <time>2021-01-10T14:27:39.000Z</time>
      </trkpt>
      <trkpt lat="47.28349" lon="-1.38194">
        <ele>53</ele>
        <time>2021-01-10T14:27:41.000Z</time>
      </trkpt>
      <trkpt lat="47.28342" lon="-1.38217">
        <ele>54</ele>
        <time>2021-01-10T14:27:43.000Z</time>
      </trkpt>
      <trkpt lat="47.28333" lon="-1.3824">
        <ele>54</ele>
        <time>2021-01-10T14:27:45.000Z</time>
      </trkpt>
      <trkpt lat="47.28323" lon="-1.38258">
        <ele>55</ele>
        <time>2021-01-10T14:27:47.000Z</time>
      </trkpt>
      <trkpt lat="47.28311" lon="-1.38276">
        <ele>54</ele>
        <time>2021-01-10T14:27:49.000Z</time>
      </trkpt>
      <trkpt lat="47.28299" lon="-1.38293">
        <ele>54</ele>
        <time>2021-01-10T14:27:51.000Z</time>
      </trkpt>
      <trkpt lat="47.28288" lon="-1.38311">
        <ele>53</ele>
        <time>2021-01-10T14:27:53.000Z</time>
      </trkpt>
      <trkpt lat="47.28278" lon="-1.38332">
        <ele>53</ele>
        <time>2021-01-10T14:27:55.000Z</time>
      </trkpt>
      <trkpt lat="47.28269" lon="-1.38352">
        <ele>53</ele>
        <time>2021-01-10T14:27:57.000Z</time>
      </trkpt>
      <trkpt lat="47.2826" lon="-1.38372">
        <ele>53</ele>
        <time>2021-01-10T14:27:59.000Z</time>
      </trkpt>
      <trkpt lat="47.2825" lon="-1.38392">
        <ele>53</ele>
        <time>2021-01-10T14:28:01.000Z</time>
      </trkpt>
      <trkpt lat="47.28242" lon="-1.38412">
        <ele>53</ele>
        <time>2021-01-10T14:28:03.000Z</time>
      </trkpt>
      <trkpt lat="47.28233" lon="-1.38431">
        <ele>53</ele>
        <time>2021-01-10T14:28:05.000Z</time>
      </trkpt>
      <trkpt lat="47.28224" lon="-1.38451">
        <ele>53</ele>
        <time>2021-01-10T14:28:07.000Z</time>
      </trkpt>
      <trkpt lat="47.28216" lon="-1.3847">
        <ele>53</ele>
        <time>2021-01-10T14:28:09.000Z</time>
      </trkpt>
      <trkpt lat="47.28207" lon="-1.38489">
        <ele>53</ele>
        <time>2021-01-10T14:28:11.000Z</time>
      </trkpt>
      <trkpt lat="47.28199" lon="-1.38509">
        <ele>53</ele>
        <time>2021-01-10T14:28:13.000Z</time>
      </trkpt>
      <trkpt lat="47.28193" lon="-1.3853">
        <ele>53</ele>
        <time>2021-01-10T14:28:15.000Z</time>
      </trkpt>
      <trkpt lat="47.28189" lon="-1.38552">
        <ele>53</ele>
        <time>2021-01-10T14:28:17.000Z</time>
      </trkpt>
      <trkpt lat="47.28186" lon="-1.38575">
        <ele>54</ele>
        <time>2021-01-10T14:28:19.000Z</time>
      </trkpt>
      <trkpt lat="47.28183" lon="-1.38598">
        <ele>54</ele>
        <time>2021-01-10T14:28:21.000Z</time>
      </trkpt>
      <trkpt lat="47.28179" lon="-1.38621">
        <ele>54</ele>
        <time>2021-01-10T14:28:23.000Z</time>
      </trkpt>
      <trkpt lat="47.28176" lon="-1.38641">
        <ele>54</ele>
        <time>2021-01-10T14:28:25.000Z</time>
      </trkpt>
      <trkpt lat="47.28172" lon="-1.38662">
        <ele>54</ele>
        <time>2021-01-10T14:28:27.000Z</time>
      </trkpt>
      <trkpt lat="47.28163" lon="-1.38681">
        <ele>54</ele>
        <time>2021-01-10T14:28:29.000Z</time>
      </trkpt>
      <trkpt lat="47.28151" lon="-1.38695">
        <ele>54</ele>
        <time>2021-01-10T14:28:31.000Z</time>
      </trkpt>
      <trkpt lat="47.28139" lon="-1.38708">
        <ele>54</ele>
        <time>2021-01-10T14:28:33.000Z</time>
      </trkpt>
      <trkpt lat="47.28127" lon="-1.3872">
        <ele>54</ele>
        <time>2021-01-10T14:28:35.000Z</time>
      </trkpt>
      <trkpt lat="47.28113" lon="-1.38732">
        <ele>54</ele>
        <time>2021-01-10T14:28:37.000Z</time>
      </trkpt>
      <trkpt lat="47.28101" lon="-1.38744">
        <ele>53</ele>
        <time>2021-01-10T14:28:39.000Z</time>
      </trkpt>
      <trkpt lat="47.28088" lon="-1.38757">
        <ele>54</ele>
        <time>2021-01-10T14:28:41.000Z</time>
      </trkpt>
      <trkpt lat="47.28076" lon="-1.38769">
        <ele>54</ele>
        <time>2021-01-10T14:28:43.000Z</time>
      </trkpt>
      <trkpt lat="47.28063" lon="-1.38781">
        <ele>55</ele>
        <time>2021-01-10T14:28:45.000Z</time>
      </trkpt>
      <trkpt lat="47.28051" lon="-1.38794">
        <ele>55</ele>
        <time>2021-01-10T14:28:47.000Z</time>
      </trkpt>
      <trkpt lat="47.28039" lon="-1.38805">
        <ele>55</ele>
        <time>2021-01-10T14:28:49.000Z</time>
      </trkpt>
      <trkpt lat="47.28026" lon="-1.38816">
        <ele>55</ele>
        <time>2021-01-10T14:28:51.000Z</time>
      </trkpt>
      <trkpt lat="47.28014" lon="-1.38828">
        <ele>55</ele>
        <time>2021-01-10T14:28:53.000Z</time>
      </trkpt>
      <trkpt lat="47.28002" lon="-1.38841">
        <ele>55</ele>
        <time>2021-01-10T14:28:55.000Z</time>
      </trkpt>
      <trkpt lat="47.2799" lon="-1.38854">
        <ele>54</ele>
        <time>2021-01-10T14:28:57.000Z</time>
      </trkpt>
      <trkpt lat="47.27979" lon="-1.38869">
        <ele>54</ele>
        <time>2021-01-10T14:28:59.000Z</time>
      </trkpt>
      <trkpt lat="47.27968" lon="-1.38884">
        <ele>54</ele>
        <time>2021-01-10T14:29:01.000Z</time>
      </trkpt>
      <trkpt lat="47.27957" lon="-1.38899">
        <ele>54</ele>
        <time>2021-01-10T14:29:03.000Z</time>
      </trkpt>
      <trkpt lat="47.27946" lon="-1.38915">
        <ele>54</ele>
        <time>2021-01-10T14:29:05.000Z</time>
      </trkpt>
      <trkpt lat="47.27934" lon="-1.38932">
        <ele>54</ele>
        <time>2021-01-10T14:29:07.000Z</time>
      </trkpt>
      <trkpt lat="47.27923" lon="-1.38949">
        <ele>54</ele>
        <time>2021-01-10T14:29:09.000Z</time>
      </trkpt>
      <trkpt lat="47.27913" lon="-1.38967">
        <ele>54</ele>
        <time>2021-01-10T14:29:11.000Z</time>
      </trkpt>
      <trkpt lat="47.27902" lon="-1.38986">
        <ele>54</ele>
        <time>2021-01-10T14:29:13.000Z</time>
      </trkpt>
      <trkpt lat="47.27891" lon="-1.39003">
        <ele>54</ele>
        <time>2021-01-10T14:29:15.000Z</time>
      </trkpt>
      <trkpt lat="47.27881" lon="-1.39021">
        <ele>54</ele>
        <time>2021-01-10T14:29:17.000Z</time>
      </trkpt>
      <trkpt lat="47.2787" lon="-1.39038">
        <ele>54</ele>
        <time>2021-01-10T14:29:19.000Z</time>
      </trkpt>
      <trkpt lat="47.27859" lon="-1.39055">
        <ele>54</ele>
        <time>2021-01-10T14:29:21.000Z</time>
      </trkpt>
      <trkpt lat="47.27848" lon="-1.39073">
        <ele>54</ele>
        <time>2021-01-10T14:29:23.000Z</time>
      </trkpt>
      <trkpt lat="47.27838" lon="-1.39091">
        <ele>54</ele>
        <time>2021-01-10T14:29:25.000Z</time>
      </trkpt>
      <trkpt lat="47.27827" lon="-1.39108">
        <ele>54</ele>
        <time>2021-01-10T14:29:27.000Z</time>
      </trkpt>
      <trkpt lat="47.27816" lon="-1.39126">
        <ele>54</ele>
        <time>2021-01-10T14:29:29.000Z</time>
      </trkpt>
      <trkpt lat="47.27805" lon="-1.39145">
        <ele>54</ele>
        <time>2021-01-10T14:29:31.000Z</time>
      </trkpt>
      <trkpt lat="47.27794" lon="-1.39163">
        <ele>54</ele>
        <time>2021-01-10T14:29:33.000Z</time>
      </trkpt>
      <trkpt lat="47.27783" lon="-1.39181">
        <ele>54</ele>
        <time>2021-01-10T14:29:35.000Z</time>
      </trkpt>
      <trkpt lat="47.27773" lon="-1.392">
        <ele>54</ele>
        <time>2021-01-10T14:29:37.000Z</time>
      </trkpt>
      <trkpt lat="47.27764" lon="-1.39219">
        <ele>54</ele>
        <time>2021-01-10T14:29:39.000Z</time>
      </trkpt>
      <trkpt lat="47.27754" lon="-1.39239">
        <ele>54</ele>
        <time>2021-01-10T14:29:41.000Z</time>
      </trkpt>
      <trkpt lat="47.27744" lon="-1.39259">
        <ele>54</ele>
        <time>2021-01-10T14:29:43.000Z</time>
      </trkpt>
      <trkpt lat="47.27734" lon="-1.39279">
        <ele>54</ele>
        <time>2021-01-10T14:29:45.000Z</time>
      </trkpt>
      <trkpt lat="47.27725" lon="-1.39299">
        <ele>54</ele>
        <time>2021-01-10T14:29:47.000Z</time>
      </trkpt>
      <trkpt lat="47.27715" lon="-1.3932">
        <ele>54</ele>
        <time>2021-01-10T14:29:49.000Z</time>
      </trkpt>
      <trkpt lat="47.27706" lon="-1.3934">
        <ele>53</ele>
        <time>2021-01-10T14:29:51.000Z</time>
      </trkpt>
      <trkpt lat="47.27696" lon="-1.3936">
        <ele>53</ele>
        <time>2021-01-10T14:29:53.000Z</time>
      </trkpt>
      <trkpt lat="47.27687" lon="-1.3938">
        <ele>54</ele>
        <time>2021-01-10T14:29:55.000Z</time>
      </trkpt>
      <trkpt lat="47.27678" lon="-1.394">
        <ele>54</ele>
        <time>2021-01-10T14:29:57.000Z</time>
      </trkpt>
      <trkpt lat="47.27668" lon="-1.39419">
        <ele>54</ele>
        <time>2021-01-10T14:29:59.000Z</time>
      </trkpt>
      <trkpt lat="47.27658" lon="-1.39439">
        <ele>54</ele>
        <time>2021-01-10T14:30:01.000Z</time>
      </trkpt>
      <trkpt lat="47.27647" lon="-1.39457">
        <ele>54</ele>
        <time>2021-01-10T14:30:03.000Z</time>
      </trkpt>
      <trkpt lat="47.27636" lon="-1.39475">
        <ele>54</ele>
        <time>2021-01-10T14:30:05.000Z</time>
      </trkpt>
      <trkpt lat="47.27624" lon="-1.39493">
        <ele>54</ele>
        <time>2021-01-10T14:30:07.000Z</time>
      </trkpt>
      <trkpt lat="47.27613" lon="-1.39511">
        <ele>54</ele>
        <time>2021-01-10T14:30:09.000Z</time>
      </trkpt>
      <trkpt lat="47.27602" lon="-1.39528">
        <ele>54</ele>
        <time>2021-01-10T14:30:11.000Z</time>
      </trkpt>
      <trkpt lat="47.27591" lon="-1.39544">
        <ele>54</ele>
        <time>2021-01-10T14:30:13.000Z</time>
      </trkpt>
      <trkpt lat="47.2758" lon="-1.39562">
        <ele>54</ele>
        <time>2021-01-10T14:30:15.000Z</time>
      </trkpt>
      <trkpt lat="47.27568" lon="-1.3958">
        <ele>54</ele>
        <time>2021-01-10T14:30:17.000Z</time>
      </trkpt>
      <trkpt lat="47.27558" lon="-1.39598">
        <ele>54</ele>
        <time>2021-01-10T14:30:19.000Z</time>
      </trkpt>
      <trkpt lat="47.27547" lon="-1.39615">
        <ele>54</ele>
        <time>2021-01-10T14:30:21.000Z</time>
      </trkpt>
      <trkpt lat="47.27536" lon="-1.39633">
        <ele>55</ele>
        <time>2021-01-10T14:30:23.000Z</time>
      </trkpt>
      <trkpt lat="47.27524" lon="-1.39651">
        <ele>55</ele>
        <time>2021-01-10T14:30:25.000Z</time>
      </trkpt>
      <trkpt lat="47.27513" lon="-1.3967">
        <ele>55</ele>
        <time>2021-01-10T14:30:27.000Z</time>
      </trkpt>
      <trkpt lat="47.27502" lon="-1.39687">
        <ele>55</ele>
        <time>2021-01-10T14:30:29.000Z</time>
      </trkpt>
      <trkpt lat="47.27491" lon="-1.39704">
        <ele>55</ele>
        <time>2021-01-10T14:30:31.000Z</time>
      </trkpt>
      <trkpt lat="47.27479" lon="-1.39722">
        <ele>55</ele>
        <time>2021-01-10T14:30:33.000Z</time>
      </trkpt>
      <trkpt lat="47.27468" lon="-1.3974">
        <ele>55</ele>
        <time>2021-01-10T14:30:35.000Z</time>
      </trkpt>
      <trkpt lat="47.27457" lon="-1.39757">
        <ele>54</ele>
        <time>2021-01-10T14:30:37.000Z</time>
      </trkpt>
      <trkpt lat="47.27445" lon="-1.39774">
        <ele>55</ele>
        <time>2021-01-10T14:30:39.000Z</time>
      </trkpt>
      <trkpt lat="47.27434" lon="-1.39792">
        <ele>54</ele>
        <time>2021-01-10T14:30:41.000Z</time>
      </trkpt>
      <trkpt lat="47.27423" lon="-1.39809">
        <ele>54</ele>
        <time>2021-01-10T14:30:43.000Z</time>
      </trkpt>
      <trkpt lat="47.27413" lon="-1.39827">
        <ele>55</ele>
        <time>2021-01-10T14:30:45.000Z</time>
      </trkpt>
      <trkpt lat="47.27402" lon="-1.39844">
        <ele>55</ele>
        <time>2021-01-10T14:30:47.000Z</time>
      </trkpt>
      <trkpt lat="47.2739" lon="-1.39862">
        <ele>54</ele>
        <time>2021-01-10T14:30:49.000Z</time>
      </trkpt>
      <trkpt lat="47.2738" lon="-1.3988">
        <ele>54</ele>
        <time>2021-01-10T14:30:51.000Z</time>
      </trkpt>
      <trkpt lat="47.27369" lon="-1.39897">
        <ele>54</ele>
        <time>2021-01-10T14:30:53.000Z</time>
      </trkpt>
      <trkpt lat="47.27358" lon="-1.39914">
        <ele>54</ele>
        <time>2021-01-10T14:30:55.000Z</time>
      </trkpt>
      <trkpt lat="47.27348" lon="-1.39932">
        <ele>55</ele>
        <time>2021-01-10T14:30:57.000Z</time>
      </trkpt>
      <trkpt lat="47.27337" lon="-1.39948">
        <ele>55</ele>
        <time>2021-01-10T14:30:59.000Z</time>
      </trkpt>
      <trkpt lat="47.27326" lon="-1.39965">
        <ele>55</ele>
        <time>2021-01-10T14:31:01.000Z</time>
      </trkpt>
      <trkpt lat="47.27315" lon="-1.39982">
        <ele>55</ele>
        <time>2021-01-10T14:31:03.000Z</time>
      </trkpt>
      <trkpt lat="47.27304" lon="-1.39999">
        <ele>55</ele>
        <time>2021-01-10T14:31:05.000Z</time>
      </trkpt>
      <trkpt lat="47.27292" lon="-1.40016">
        <ele>55</ele>
        <time>2021-01-10T14:31:07.000Z</time>
      </trkpt>
      <trkpt lat="47.27281" lon="-1.40034">
        <ele>55</ele>
        <time>2021-01-10T14:31:09.000Z</time>
      </trkpt>
      <trkpt lat="47.2727" lon="-1.40052">
        <ele>55</ele>
        <time>2021-01-10T14:31:11.000Z</time>
      </trkpt>
      <trkpt lat="47.27258" lon="-1.40069">
        <ele>54</ele>
        <time>2021-01-10T14:31:13.000Z</time>
      </trkpt>
      <trkpt lat="47.27247" lon="-1.40087">
        <ele>54</ele>
        <time>2021-01-10T14:31:15.000Z</time>
      </trkpt>
      <trkpt lat="47.27235" lon="-1.40104">
        <ele>54</ele>
        <time>2021-01-10T14:31:17.000Z</time>
      </trkpt>
      <trkpt lat="47.27225" lon="-1.40123">
        <ele>54</ele>
        <time>2021-01-10T14:31:19.000Z</time>
      </trkpt>
      <trkpt lat="47.27214" lon="-1.4014">
        <ele>54</ele>
        <time>2021-01-10T14:31:21.000Z</time>
      </trkpt>
      <trkpt lat="47.27203" lon="-1.40157">
        <ele>55</ele>
        <time>2021-01-10T14:31:23.000Z</time>
      </trkpt>
      <trkpt lat="47.27192" lon="-1.40176">
        <ele>55</ele>
        <time>2021-01-10T14:31:25.000Z</time>
      </trkpt>
      <trkpt lat="47.2718" lon="-1.40195">
        <ele>55</ele>
        <time>2021-01-10T14:31:27.000Z</time>
      </trkpt>
      <trkpt lat="47.27168" lon="-1.40212">
        <ele>55</ele>
        <time>2021-01-10T14:31:29.000Z</time>
      </trkpt>
      <trkpt lat="47.27157" lon="-1.40231">
        <ele>55</ele>
        <time>2021-01-10T14:31:31.000Z</time>
      </trkpt>
      <trkpt lat="47.27145" lon="-1.40249">
        <ele>55</ele>
        <time>2021-01-10T14:31:33.000Z</time>
      </trkpt>
      <trkpt lat="47.27133" lon="-1.40267">
        <ele>55</ele>
        <time>2021-01-10T14:31:35.000Z</time>
      </trkpt>
      <trkpt lat="47.27122" lon="-1.40284">
        <ele>55</ele>
        <time>2021-01-10T14:31:37.000Z</time>
      </trkpt>
      <trkpt lat="47.27111" lon="-1.40302">
        <ele>55</ele>
        <time>2021-01-10T14:31:39.000Z</time>
      </trkpt>
      <trkpt lat="47.27099" lon="-1.4032">
        <ele>55</ele>
        <time>2021-01-10T14:31:41.000Z</time>
      </trkpt>
      <trkpt lat="47.27088" lon="-1.40338">
        <ele>54</ele>
        <time>2021-01-10T14:31:43.000Z</time>
      </trkpt>
      <trkpt lat="47.27076" lon="-1.40356">
        <ele>54</ele>
        <time>2021-01-10T14:31:45.000Z</time>
      </trkpt>
      <trkpt lat="47.27065" lon="-1.40373">
        <ele>55</ele>
        <time>2021-01-10T14:31:47.000Z</time>
      </trkpt>
      <trkpt lat="47.27054" lon="-1.40391">
        <ele>54</ele>
        <time>2021-01-10T14:31:49.000Z</time>
      </trkpt>
      <trkpt lat="47.27042" lon="-1.40408">
        <ele>54</ele>
        <time>2021-01-10T14:31:51.000Z</time>
      </trkpt>
      <trkpt lat="47.27031" lon="-1.40426">
        <ele>54</ele>
        <time>2021-01-10T14:31:53.000Z</time>
      </trkpt>
      <trkpt lat="47.2702" lon="-1.40443">
        <ele>55</ele>
        <time>2021-01-10T14:31:55.000Z</time>
      </trkpt>
      <trkpt lat="47.27009" lon="-1.40461">
        <ele>55</ele>
        <time>2021-01-10T14:31:57.000Z</time>
      </trkpt>
      <trkpt lat="47.26997" lon="-1.40479">
        <ele>54</ele>
        <time>2021-01-10T14:31:59.000Z</time>
      </trkpt>
      <trkpt lat="47.26986" lon="-1.40497">
        <ele>54</ele>
        <time>2021-01-10T14:32:01.000Z</time>
      </trkpt>
      <trkpt lat="47.26975" lon="-1.40516">
        <ele>54</ele>
        <time>2021-01-10T14:32:03.000Z</time>
      </trkpt>
      <trkpt lat="47.26965" lon="-1.40533">
        <ele>54</ele>
        <time>2021-01-10T14:32:05.000Z</time>
      </trkpt>
      <trkpt lat="47.26955" lon="-1.40553">
        <ele>54</ele>
        <time>2021-01-10T14:32:07.000Z</time>
      </trkpt>
      <trkpt lat="47.26946" lon="-1.40574">
        <ele>55</ele>
        <time>2021-01-10T14:32:09.000Z</time>
      </trkpt>
      <trkpt lat="47.2694" lon="-1.40597">
        <ele>55</ele>
        <time>2021-01-10T14:32:11.000Z</time>
      </trkpt>
      <trkpt lat="47.26935" lon="-1.40621">
        <ele>55</ele>
        <time>2021-01-10T14:32:13.000Z</time>
      </trkpt>
      <trkpt lat="47.26931" lon="-1.40644">
        <ele>55</ele>
        <time>2021-01-10T14:32:15.000Z</time>
      </trkpt>
      <trkpt lat="47.26926" lon="-1.40667">
        <ele>55</ele>
        <time>2021-01-10T14:32:17.000Z</time>
      </trkpt>
      <trkpt lat="47.26923" lon="-1.4069">
        <ele>55</ele>
        <time>2021-01-10T14:32:19.000Z</time>
      </trkpt>
      <trkpt lat="47.26922" lon="-1.40714">
        <ele>55</ele>
        <time>2021-01-10T14:32:21.000Z</time>
      </trkpt>
      <trkpt lat="47.26923" lon="-1.40738">
        <ele>55</ele>
        <time>2021-01-10T14:32:23.000Z</time>
      </trkpt>
      <trkpt lat="47.26924" lon="-1.40761">
        <ele>56</ele>
        <time>2021-01-10T14:32:25.000Z</time>
      </trkpt>
      <trkpt lat="47.26922" lon="-1.40783">
        <ele>57</ele>
        <time>2021-01-10T14:32:27.000Z</time>
      </trkpt>
      <trkpt lat="47.26915" lon="-1.40804">
        <ele>56</ele>
        <time>2021-01-10T14:32:29.000Z</time>
      </trkpt>
      <trkpt lat="47.26905" lon="-1.4082">
        <ele>56</ele>
        <time>2021-01-10T14:32:31.000Z</time>
      </trkpt>
      <trkpt lat="47.26894" lon="-1.40838">
        <ele>55</ele>
        <time>2021-01-10T14:32:33.000Z</time>
      </trkpt>
      <trkpt lat="47.26883" lon="-1.40856">
        <ele>55</ele>
        <time>2021-01-10T14:32:35.000Z</time>
      </trkpt>
      <trkpt lat="47.26872" lon="-1.40873">
        <ele>55</ele>
        <time>2021-01-10T14:32:37.000Z</time>
      </trkpt>
      <trkpt lat="47.26861" lon="-1.4089">
        <ele>55</ele>
        <time>2021-01-10T14:32:39.000Z</time>
      </trkpt>
      <trkpt lat="47.2685" lon="-1.40909">
        <ele>55</ele>
        <time>2021-01-10T14:32:41.000Z</time>
      </trkpt>
      <trkpt lat="47.26839" lon="-1.40927">
        <ele>56</ele>
        <time>2021-01-10T14:32:43.000Z</time>
      </trkpt>
      <trkpt lat="47.26827" lon="-1.40946">
        <ele>55</ele>
        <time>2021-01-10T14:32:45.000Z</time>
      </trkpt>
      <trkpt lat="47.26817" lon="-1.40965">
        <ele>55</ele>
        <time>2021-01-10T14:32:47.000Z</time>
      </trkpt>
      <trkpt lat="47.26807" lon="-1.40985">
        <ele>55</ele>
        <time>2021-01-10T14:32:49.000Z</time>
      </trkpt>
      <trkpt lat="47.26798" lon="-1.41007">
        <ele>55</ele>
        <time>2021-01-10T14:32:51.000Z</time>
      </trkpt>
      <trkpt lat="47.26791" lon="-1.41029">
        <ele>55</ele>
        <time>2021-01-10T14:32:53.000Z</time>
      </trkpt>
      <trkpt lat="47.26783" lon="-1.41051">
        <ele>55</ele>
        <time>2021-01-10T14:32:55.000Z</time>
      </trkpt>
      <trkpt lat="47.26775" lon="-1.41072">
        <ele>55</ele>
        <time>2021-01-10T14:32:57.000Z</time>
      </trkpt>
      <trkpt lat="47.26767" lon="-1.41093">
        <ele>55</ele>
        <time>2021-01-10T14:32:59.000Z</time>
      </trkpt>
      <trkpt lat="47.26759" lon="-1.41113">
        <ele>55</ele>
        <time>2021-01-10T14:33:01.000Z</time>
      </trkpt>
      <trkpt lat="47.26749" lon="-1.4113">
        <ele>55</ele>
        <time>2021-01-10T14:33:03.000Z</time>
      </trkpt>
      <trkpt lat="47.26737" lon="-1.41146">
        <ele>55</ele>
        <time>2021-01-10T14:33:05.000Z</time>
      </trkpt>
      <trkpt lat="47.26724" lon="-1.4116">
        <ele>55</ele>
        <time>2021-01-10T14:33:07.000Z</time>
      </trkpt>
      <trkpt lat="47.26711" lon="-1.41175">
        <ele>55</ele>
        <time>2021-01-10T14:33:09.000Z</time>
      </trkpt>
      <trkpt lat="47.26699" lon="-1.4119">
        <ele>55</ele>
        <time>2021-01-10T14:33:11.000Z</time>
      </trkpt>
      <trkpt lat="47.26687" lon="-1.41203">
        <ele>55</ele>
        <time>2021-01-10T14:33:13.000Z</time>
      </trkpt>
      <trkpt lat="47.26675" lon="-1.41218">
        <ele>54</ele>
        <time>2021-01-10T14:33:15.000Z</time>
      </trkpt>
      <trkpt lat="47.26663" lon="-1.41234">
        <ele>53</ele>
        <time>2021-01-10T14:33:17.000Z</time>
      </trkpt>
      <trkpt lat="47.26651" lon="-1.41252">
        <ele>53</ele>
        <time>2021-01-10T14:33:19.000Z</time>
      </trkpt>
      <trkpt lat="47.26639" lon="-1.4127">
        <ele>54</ele>
        <time>2021-01-10T14:33:21.000Z</time>
      </trkpt>
      <trkpt lat="47.26629" lon="-1.41288">
        <ele>54</ele>
        <time>2021-01-10T14:33:23.000Z</time>
      </trkpt>
      <trkpt lat="47.26618" lon="-1.41306">
        <ele>53</ele>
        <time>2021-01-10T14:33:25.000Z</time>
      </trkpt>
      <trkpt lat="47.26608" lon="-1.41325">
        <ele>54</ele>
        <time>2021-01-10T14:33:27.000Z</time>
      </trkpt>
      <trkpt lat="47.26598" lon="-1.41345">
        <ele>54</ele>
        <time>2021-01-10T14:33:29.000Z</time>
      </trkpt>
      <trkpt lat="47.2659" lon="-1.41367">
        <ele>54</ele>
        <time>2021-01-10T14:33:31.000Z</time>
      </trkpt>
      <trkpt lat="47.26582" lon="-1.41388">
        <ele>54</ele>
        <time>2021-01-10T14:33:33.000Z</time>
      </trkpt>
      <trkpt lat="47.26574" lon="-1.41409">
        <ele>54</ele>
        <time>2021-01-10T14:33:35.000Z</time>
      </trkpt>
      <trkpt lat="47.26564" lon="-1.41429">
        <ele>54</ele>
        <time>2021-01-10T14:33:37.000Z</time>
      </trkpt>
      <trkpt lat="47.26554" lon="-1.41448">
        <ele>55</ele>
        <time>2021-01-10T14:33:39.000Z</time>
      </trkpt>
      <trkpt lat="47.26543" lon="-1.41466">
        <ele>55</ele>
        <time>2021-01-10T14:33:41.000Z</time>
      </trkpt>
      <trkpt lat="47.26532" lon="-1.41484">
        <ele>54</ele>
        <time>2021-01-10T14:33:43.000Z</time>
      </trkpt>
      <trkpt lat="47.2652" lon="-1.41502">
        <ele>54</ele>
        <time>2021-01-10T14:33:45.000Z</time>
      </trkpt>
      <trkpt lat="47.26509" lon="-1.41522">
        <ele>54</ele>
        <time>2021-01-10T14:33:47.000Z</time>
      </trkpt>
      <trkpt lat="47.26497" lon="-1.41542">
        <ele>54</ele>
        <time>2021-01-10T14:33:49.000Z</time>
      </trkpt>
      <trkpt lat="47.26486" lon="-1.41562">
        <ele>54</ele>
        <time>2021-01-10T14:33:51.000Z</time>
      </trkpt>
      <trkpt lat="47.26475" lon="-1.41582">
        <ele>55</ele>
        <time>2021-01-10T14:33:53.000Z</time>
      </trkpt>
      <trkpt lat="47.26463" lon="-1.41601">
        <ele>55</ele>
        <time>2021-01-10T14:33:55.000Z</time>
      </trkpt>
      <trkpt lat="47.26452" lon="-1.4162">
        <ele>55</ele>
        <time>2021-01-10T14:33:57.000Z</time>
      </trkpt>
      <trkpt lat="47.26441" lon="-1.41639">
        <ele>55</ele>
        <time>2021-01-10T14:33:59.000Z</time>
      </trkpt>
      <trkpt lat="47.2643" lon="-1.41658">
        <ele>55</ele>
        <time>2021-01-10T14:34:01.000Z</time>
      </trkpt>
      <trkpt lat="47.2642" lon="-1.41677">
        <ele>55</ele>
        <time>2021-01-10T14:34:03.000Z</time>
      </trkpt>
      <trkpt lat="47.2641" lon="-1.41695">
        <ele>55</ele>
        <time>2021-01-10T14:34:05.000Z</time>
      </trkpt>
      <trkpt lat="47.26399" lon="-1.41714">
        <ele>55</ele>
        <time>2021-01-10T14:34:07.000Z</time>
      </trkpt>
      <trkpt lat="47.26388" lon="-1.41732">
        <ele>55</ele>
        <time>2021-01-10T14:34:09.000Z</time>
      </trkpt>
      <trkpt lat="47.26377" lon="-1.41751">
        <ele>55</ele>
        <time>2021-01-10T14:34:11.000Z</time>
      </trkpt>
      <trkpt lat="47.26366" lon="-1.41769">
        <ele>55</ele>
        <time>2021-01-10T14:34:13.000Z</time>
      </trkpt>
      <trkpt lat="47.26356" lon="-1.41787">
        <ele>55</ele>
        <time>2021-01-10T14:34:15.000Z</time>
      </trkpt>
      <trkpt lat="47.26345" lon="-1.41805">
        <ele>55</ele>
        <time>2021-01-10T14:34:17.000Z</time>
      </trkpt>
      <trkpt lat="47.26335" lon="-1.41823">
        <ele>56</ele>
        <time>2021-01-10T14:34:19.000Z</time>
      </trkpt>
      <trkpt lat="47.26324" lon="-1.41841">
        <ele>56</ele>
        <time>2021-01-10T14:34:21.000Z</time>
      </trkpt>
      <trkpt lat="47.26314" lon="-1.41858">
        <ele>56</ele>
        <time>2021-01-10T14:34:23.000Z</time>
      </trkpt>
      <trkpt lat="47.26304" lon="-1.41876">
        <ele>56</ele>
        <time>2021-01-10T14:34:25.000Z</time>
      </trkpt>
      <trkpt lat="47.26294" lon="-1.41893">
        <ele>56</ele>
        <time>2021-01-10T14:34:27.000Z</time>
      </trkpt>
      <trkpt lat="47.26284" lon="-1.4191">
        <ele>55</ele>
        <time>2021-01-10T14:34:29.000Z</time>
      </trkpt>
      <trkpt lat="47.26274" lon="-1.41928">
        <ele>56</ele>
        <time>2021-01-10T14:34:31.000Z</time>
      </trkpt>
      <trkpt lat="47.26264" lon="-1.41945">
        <ele>55</ele>
        <time>2021-01-10T14:34:33.000Z</time>
      </trkpt>
      <trkpt lat="47.26254" lon="-1.41963">
        <ele>55</ele>
        <time>2021-01-10T14:34:35.000Z</time>
      </trkpt>
      <trkpt lat="47.26244" lon="-1.4198">
        <ele>56</ele>
        <time>2021-01-10T14:34:37.000Z</time>
      </trkpt>
      <trkpt lat="47.26233" lon="-1.41997">
        <ele>55</ele>
        <time>2021-01-10T14:34:39.000Z</time>
      </trkpt>
      <trkpt lat="47.26223" lon="-1.42015">
        <ele>55</ele>
        <time>2021-01-10T14:34:41.000Z</time>
      </trkpt>
      <trkpt lat="47.26212" lon="-1.42033">
        <ele>55</ele>
        <time>2021-01-10T14:34:43.000Z</time>
      </trkpt>
      <trkpt lat="47.26202" lon="-1.42051">
        <ele>55</ele>
        <time>2021-01-10T14:34:45.000Z</time>
      </trkpt>
      <trkpt lat="47.26191" lon="-1.42069">
        <ele>55</ele>
        <time>2021-01-10T14:34:47.000Z</time>
      </trkpt>
      <trkpt lat="47.26181" lon="-1.42086">
        <ele>55</ele>
        <time>2021-01-10T14:34:49.000Z</time>
      </trkpt>
      <trkpt lat="47.26171" lon="-1.42104">
        <ele>55</ele>
        <time>2021-01-10T14:34:51.000Z</time>
      </trkpt>
      <trkpt lat="47.26161" lon="-1.42121">
        <ele>55</ele>
        <time>2021-01-10T14:34:53.000Z</time>
      </trkpt>
      <trkpt lat="47.26151" lon="-1.42139">
        <ele>55</ele>
        <time>2021-01-10T14:34:55.000Z</time>
      </trkpt>
      <trkpt lat="47.2614" lon="-1.42157">
        <ele>55</ele>
        <time>2021-01-10T14:34:57.000Z</time>
      </trkpt>
      <trkpt lat="47.26129" lon="-1.42174">
        <ele>55</ele>
        <time>2021-01-10T14:34:59.000Z</time>
      </trkpt>
      <trkpt lat="47.26117" lon="-1.4219">
        <ele>55</ele>
        <time>2021-01-10T14:35:01.000Z</time>
      </trkpt>
      <trkpt lat="47.26105" lon="-1.42206">
        <ele>55</ele>
        <time>2021-01-10T14:35:03.000Z</time>
      </trkpt>
      <trkpt lat="47.26093" lon="-1.42221">
        <ele>55</ele>
        <time>2021-01-10T14:35:05.000Z</time>
      </trkpt>
      <trkpt lat="47.26081" lon="-1.42237">
        <ele>55</ele>
        <time>2021-01-10T14:35:07.000Z</time>
      </trkpt>
      <trkpt lat="47.26069" lon="-1.42252">
        <ele>55</ele>
        <time>2021-01-10T14:35:09.000Z</time>
      </trkpt>
      <trkpt lat="47.26058" lon="-1.42267">
        <ele>55</ele>
        <time>2021-01-10T14:35:11.000Z</time>
      </trkpt>
      <trkpt lat="47.26046" lon="-1.42282">
        <ele>55</ele>
        <time>2021-01-10T14:35:13.000Z</time>
      </trkpt>
      <trkpt lat="47.26034" lon="-1.42298">
        <ele>55</ele>
        <time>2021-01-10T14:35:15.000Z</time>
      </trkpt>
      <trkpt lat="47.26021" lon="-1.42314">
        <ele>55</ele>
        <time>2021-01-10T14:35:17.000Z</time>
      </trkpt>
      <trkpt lat="47.2601" lon="-1.42329">
        <ele>55</ele>
        <time>2021-01-10T14:35:19.000Z</time>
      </trkpt>
      <trkpt lat="47.25998" lon="-1.42345">
        <ele>55</ele>
        <time>2021-01-10T14:35:21.000Z</time>
      </trkpt>
      <trkpt lat="47.25986" lon="-1.4236">
        <ele>55</ele>
        <time>2021-01-10T14:35:23.000Z</time>
      </trkpt>
      <trkpt lat="47.25975" lon="-1.42376">
        <ele>56</ele>
        <time>2021-01-10T14:35:25.000Z</time>
      </trkpt>
      <trkpt lat="47.25963" lon="-1.42391">
        <ele>56</ele>
        <time>2021-01-10T14:35:27.000Z</time>
      </trkpt>
      <trkpt lat="47.25951" lon="-1.42405">
        <ele>56</ele>
        <time>2021-01-10T14:35:29.000Z</time>
      </trkpt>
      <trkpt lat="47.25939" lon="-1.4242">
        <ele>56</ele>
        <time>2021-01-10T14:35:31.000Z</time>
      </trkpt>
      <trkpt lat="47.25928" lon="-1.42435">
        <ele>56</ele>
        <time>2021-01-10T14:35:33.000Z</time>
      </trkpt>
      <trkpt lat="47.25916" lon="-1.42449">
        <ele>56</ele>
        <time>2021-01-10T14:35:35.000Z</time>
      </trkpt>
      <trkpt lat="47.25903" lon="-1.42464">
        <ele>56</ele>
        <time>2021-01-10T14:35:37.000Z</time>
      </trkpt>
      <trkpt lat="47.2589" lon="-1.42478">
        <ele>56</ele>
        <time>2021-01-10T14:35:39.000Z</time>
      </trkpt>
      <trkpt lat="47.25877" lon="-1.42491">
        <ele>56</ele>
        <time>2021-01-10T14:35:41.000Z</time>
      </trkpt>
      <trkpt lat="47.25864" lon="-1.42502">
        <ele>56</ele>
        <time>2021-01-10T14:35:43.000Z</time>
      </trkpt>
      <trkpt lat="47.2585" lon="-1.42513">
        <ele>56</ele>
        <time>2021-01-10T14:35:45.000Z</time>
      </trkpt>
      <trkpt lat="47.25837" lon="-1.42524">
        <ele>56</ele>
        <time>2021-01-10T14:35:47.000Z</time>
      </trkpt>
      <trkpt lat="47.25823" lon="-1.42535">
        <ele>56</ele>
        <time>2021-01-10T14:35:49.000Z</time>
      </trkpt>
      <trkpt lat="47.2581" lon="-1.42546">
        <ele>56</ele>
        <time>2021-01-10T14:35:51.000Z</time>
      </trkpt>
      <trkpt lat="47.25796" lon="-1.42556">
        <ele>56</ele>
        <time>2021-01-10T14:35:53.000Z</time>
      </trkpt>
      <trkpt lat="47.25783" lon="-1.42567">
        <ele>56</ele>
        <time>2021-01-10T14:35:55.000Z</time>
      </trkpt>
      <trkpt lat="47.2577" lon="-1.42577">
        <ele>56</ele>
        <time>2021-01-10T14:35:57.000Z</time>
      </trkpt>
      <trkpt lat="47.25757" lon="-1.42589">
        <ele>56</ele>
        <time>2021-01-10T14:35:59.000Z</time>
      </trkpt>
      <trkpt lat="47.25745" lon="-1.426">
        <ele>56</ele>
        <time>2021-01-10T14:36:01.000Z</time>
      </trkpt>
      <trkpt lat="47.25736" lon="-1.42613">
        <ele>56</ele>
        <time>2021-01-10T14:36:03.000Z</time>
      </trkpt>
      <trkpt lat="47.25725" lon="-1.42627">
        <ele>57</ele>
        <time>2021-01-10T14:36:05.000Z</time>
      </trkpt>
      <trkpt lat="47.25711" lon="-1.42635">
        <ele>56</ele>
        <time>2021-01-10T14:36:07.000Z</time>
      </trkpt>
      <trkpt lat="47.25695" lon="-1.4264">
        <ele>56</ele>
        <time>2021-01-10T14:36:09.000Z</time>
      </trkpt>
      <trkpt lat="47.2568" lon="-1.42649">
        <ele>55</ele>
        <time>2021-01-10T14:36:11.000Z</time>
      </trkpt>
      <trkpt lat="47.25666" lon="-1.42661">
        <ele>55</ele>
        <time>2021-01-10T14:36:13.000Z</time>
      </trkpt>
      <trkpt lat="47.25652" lon="-1.42673">
        <ele>55</ele>
        <time>2021-01-10T14:36:15.000Z</time>
      </trkpt>
      <trkpt lat="47.25639" lon="-1.42684">
        <ele>55</ele>
        <time>2021-01-10T14:36:17.000Z</time>
      </trkpt>
      <trkpt lat="47.25625" lon="-1.42696">
        <ele>55</ele>
        <time>2021-01-10T14:36:19.000Z</time>
      </trkpt>
      <trkpt lat="47.25611" lon="-1.42707">
        <ele>55</ele>
        <time>2021-01-10T14:36:21.000Z</time>
      </trkpt>
      <trkpt lat="47.25597" lon="-1.42718">
        <ele>55</ele>
        <time>2021-01-10T14:36:23.000Z</time>
      </trkpt>
      <trkpt lat="47.25584" lon="-1.4273">
        <ele>55</ele>
        <time>2021-01-10T14:36:25.000Z</time>
      </trkpt>
      <trkpt lat="47.2557" lon="-1.4274">
        <ele>54</ele>
        <time>2021-01-10T14:36:27.000Z</time>
      </trkpt>
      <trkpt lat="47.25557" lon="-1.42751">
        <ele>54</ele>
        <time>2021-01-10T14:36:29.000Z</time>
      </trkpt>
      <trkpt lat="47.25544" lon="-1.42762">
        <ele>54</ele>
        <time>2021-01-10T14:36:31.000Z</time>
      </trkpt>
      <trkpt lat="47.2553" lon="-1.42773">
        <ele>54</ele>
        <time>2021-01-10T14:36:33.000Z</time>
      </trkpt>
      <trkpt lat="47.25517" lon="-1.42783">
        <ele>55</ele>
        <time>2021-01-10T14:36:35.000Z</time>
      </trkpt>
      <trkpt lat="47.25504" lon="-1.42795">
        <ele>55</ele>
        <time>2021-01-10T14:36:37.000Z</time>
      </trkpt>
      <trkpt lat="47.2549" lon="-1.42805">
        <ele>55</ele>
        <time>2021-01-10T14:36:39.000Z</time>
      </trkpt>
      <trkpt lat="47.25477" lon="-1.42816">
        <ele>55</ele>
        <time>2021-01-10T14:36:41.000Z</time>
      </trkpt>
      <trkpt lat="47.25464" lon="-1.42827">
        <ele>56</ele>
        <time>2021-01-10T14:36:43.000Z</time>
      </trkpt>
      <trkpt lat="47.2545" lon="-1.42837">
        <ele>55</ele>
        <time>2021-01-10T14:36:45.000Z</time>
      </trkpt>
      <trkpt lat="47.25436" lon="-1.42847">
        <ele>55</ele>
        <time>2021-01-10T14:36:47.000Z</time>
      </trkpt>
      <trkpt lat="47.25422" lon="-1.42856">
        <ele>55</ele>
        <time>2021-01-10T14:36:49.000Z</time>
      </trkpt>
      <trkpt lat="47.25408" lon="-1.42865">
        <ele>56</ele>
        <time>2021-01-10T14:36:51.000Z</time>
      </trkpt>
      <trkpt lat="47.25394" lon="-1.42874">
        <ele>56</ele>
        <time>2021-01-10T14:36:53.000Z</time>
      </trkpt>
      <trkpt lat="47.2538" lon="-1.42882">
        <ele>55</ele>
        <time>2021-01-10T14:36:55.000Z</time>
      </trkpt>
      <trkpt lat="47.25365" lon="-1.4289">
        <ele>55</ele>
        <time>2021-01-10T14:36:57.000Z</time>
      </trkpt>
      <trkpt lat="47.2535" lon="-1.42899">
        <ele>55</ele>
        <time>2021-01-10T14:36:59.000Z</time>
      </trkpt>
      <trkpt lat="47.25335" lon="-1.42907">
        <ele>55</ele>
        <time>2021-01-10T14:37:01.000Z</time>
      </trkpt>
      <trkpt lat="47.25319" lon="-1.42916">
        <ele>55</ele>
        <time>2021-01-10T14:37:03.000Z</time>
      </trkpt>
      <trkpt lat="47.25304" lon="-1.42925">
        <ele>54</ele>
        <time>2021-01-10T14:37:05.000Z</time>
      </trkpt>
      <trkpt lat="47.2529" lon="-1.42934">
        <ele>55</ele>
        <time>2021-01-10T14:37:07.000Z</time>
      </trkpt>
      <trkpt lat="47.25275" lon="-1.42943">
        <ele>55</ele>
        <time>2021-01-10T14:37:09.000Z</time>
      </trkpt>
      <trkpt lat="47.25261" lon="-1.42951">
        <ele>55</ele>
        <time>2021-01-10T14:37:11.000Z</time>
      </trkpt>
      <trkpt lat="47.25246" lon="-1.4296">
        <ele>55</ele>
        <time>2021-01-10T14:37:13.000Z</time>
      </trkpt>
      <trkpt lat="47.25232" lon="-1.42969">
        <ele>55</ele>
        <time>2021-01-10T14:37:15.000Z</time>
      </trkpt>
      <trkpt lat="47.25218" lon="-1.42979">
        <ele>55</ele>
        <time>2021-01-10T14:37:17.000Z</time>
      </trkpt>
      <trkpt lat="47.25205" lon="-1.4299">
        <ele>55</ele>
        <time>2021-01-10T14:37:19.000Z</time>
      </trkpt>
      <trkpt lat="47.25193" lon="-1.43003">
        <ele>55</ele>
        <time>2021-01-10T14:37:21.000Z</time>
      </trkpt>
      <trkpt lat="47.2518" lon="-1.43016">
        <ele>54</ele>
        <time>2021-01-10T14:37:23.000Z</time>
      </trkpt>
      <trkpt lat="47.25169" lon="-1.43031">
        <ele>55</ele>
        <time>2021-01-10T14:37:25.000Z</time>
      </trkpt>
      <trkpt lat="47.25157" lon="-1.43047">
        <ele>55</ele>
        <time>2021-01-10T14:37:27.000Z</time>
      </trkpt>
      <trkpt lat="47.25146" lon="-1.43062">
        <ele>55</ele>
        <time>2021-01-10T14:37:29.000Z</time>
      </trkpt>
      <trkpt lat="47.25134" lon="-1.43077">
        <ele>55</ele>
        <time>2021-01-10T14:37:31.000Z</time>
      </trkpt>
      <trkpt lat="47.25122" lon="-1.43091">
        <ele>55</ele>
        <time>2021-01-10T14:37:33.000Z</time>
      </trkpt>
      <trkpt lat="47.2511" lon="-1.43107">
        <ele>55</ele>
        <time>2021-01-10T14:37:35.000Z</time>
      </trkpt>
      <trkpt lat="47.25099" lon="-1.43121">
        <ele>55</ele>
        <time>2021-01-10T14:37:37.000Z</time>
      </trkpt>
      <trkpt lat="47.25087" lon="-1.43135">
        <ele>55</ele>
        <time>2021-01-10T14:37:39.000Z</time>
      </trkpt>
      <trkpt lat="47.25075" lon="-1.4315">
        <ele>55</ele>
        <time>2021-01-10T14:37:41.000Z</time>
      </trkpt>
      <trkpt lat="47.25063" lon="-1.43164">
        <ele>55</ele>
        <time>2021-01-10T14:37:43.000Z</time>
      </trkpt>
      <trkpt lat="47.25051" lon="-1.43177">
        <ele>55</ele>
        <time>2021-01-10T14:37:45.000Z</time>
      </trkpt>
      <trkpt lat="47.25038" lon="-1.4319">
        <ele>55</ele>
        <time>2021-01-10T14:37:47.000Z</time>
      </trkpt>
      <trkpt lat="47.25025" lon="-1.43201">
        <ele>55</ele>
        <time>2021-01-10T14:37:49.000Z</time>
      </trkpt>
      <trkpt lat="47.25012" lon="-1.43211">
        <ele>55</ele>
        <time>2021-01-10T14:37:51.000Z</time>
      </trkpt>
      <trkpt lat="47.24998" lon="-1.43221">
        <ele>55</ele>
        <time>2021-01-10T14:37:53.000Z</time>
      </trkpt>
      <trkpt lat="47.24984" lon="-1.4323">
        <ele>55</ele>
        <time>2021-01-10T14:37:55.000Z</time>
      </trkpt>
      <trkpt lat="47.24971" lon="-1.43239">
        <ele>55</ele>
        <time>2021-01-10T14:37:57.000Z</time>
      </trkpt>
      <trkpt lat="47.24957" lon="-1.43249">
        <ele>55</ele>
        <time>2021-01-10T14:37:59.000Z</time>
      </trkpt>
      <trkpt lat="47.24944" lon="-1.43258">
        <ele>55</ele>
        <time>2021-01-10T14:38:01.000Z</time>
      </trkpt>
      <trkpt lat="47.24931" lon="-1.43267">
        <ele>55</ele>
        <time>2021-01-10T14:38:03.000Z</time>
      </trkpt>
      <trkpt lat="47.24918" lon="-1.43277">
        <ele>55</ele>
        <time>2021-01-10T14:38:05.000Z</time>
      </trkpt>
      <trkpt lat="47.24904" lon="-1.43286">
        <ele>55</ele>
        <time>2021-01-10T14:38:07.000Z</time>
      </trkpt>
      <trkpt lat="47.24891" lon="-1.43295">
        <ele>55</ele>
        <time>2021-01-10T14:38:09.000Z</time>
      </trkpt>
      <trkpt lat="47.24878" lon="-1.43305">
        <ele>55</ele>
        <time>2021-01-10T14:38:11.000Z</time>
      </trkpt>
      <trkpt lat="47.24865" lon="-1.43314">
        <ele>55</ele>
        <time>2021-01-10T14:38:13.000Z</time>
      </trkpt>
      <trkpt lat="47.24851" lon="-1.43323">
        <ele>54</ele>
        <time>2021-01-10T14:38:15.000Z</time>
      </trkpt>
      <trkpt lat="47.24838" lon="-1.43333">
        <ele>55</ele>
        <time>2021-01-10T14:38:17.000Z</time>
      </trkpt>
      <trkpt lat="47.24825" lon="-1.43342">
        <ele>55</ele>
        <time>2021-01-10T14:38:19.000Z</time>
      </trkpt>
      <trkpt lat="47.24811" lon="-1.43351">
        <ele>55</ele>
        <time>2021-01-10T14:38:21.000Z</time>
      </trkpt>
      <trkpt lat="47.24798" lon="-1.4336">
        <ele>56</ele>
        <time>2021-01-10T14:38:23.000Z</time>
      </trkpt>
      <trkpt lat="47.24785" lon="-1.4337">
        <ele>55</ele>
        <time>2021-01-10T14:38:25.000Z</time>
      </trkpt>
      <trkpt lat="47.24772" lon="-1.43382">
        <ele>56</ele>
        <time>2021-01-10T14:38:27.000Z</time>
      </trkpt>
      <trkpt lat="47.24759" lon="-1.43395">
        <ele>56</ele>
        <time>2021-01-10T14:38:29.000Z</time>
      </trkpt>
      <trkpt lat="47.24747" lon="-1.4341">
        <ele>55</ele>
        <time>2021-01-10T14:38:31.000Z</time>
      </trkpt>
      <trkpt lat="47.24736" lon="-1.43426">
        <ele>56</ele>
        <time>2021-01-10T14:38:33.000Z</time>
      </trkpt>
      <trkpt lat="47.24726" lon="-1.43443">
        <ele>55</ele>
        <time>2021-01-10T14:38:35.000Z</time>
      </trkpt>
      <trkpt lat="47.24716" lon="-1.43461">
        <ele>55</ele>
        <time>2021-01-10T14:38:37.000Z</time>
      </trkpt>
      <trkpt lat="47.24707" lon="-1.4348">
        <ele>55</ele>
        <time>2021-01-10T14:38:39.000Z</time>
      </trkpt>
      <trkpt lat="47.24699" lon="-1.43499">
        <ele>55</ele>
        <time>2021-01-10T14:38:41.000Z</time>
      </trkpt>
      <trkpt lat="47.24691" lon="-1.43519">
        <ele>55</ele>
        <time>2021-01-10T14:38:43.000Z</time>
      </trkpt>
      <trkpt lat="47.24682" lon="-1.4354">
        <ele>55</ele>
        <time>2021-01-10T14:38:45.000Z</time>
      </trkpt>
      <trkpt lat="47.24672" lon="-1.4356">
        <ele>55</ele>
        <time>2021-01-10T14:38:47.000Z</time>
      </trkpt>
      <trkpt lat="47.24661" lon="-1.43576">
        <ele>56</ele>
        <time>2021-01-10T14:38:49.000Z</time>
      </trkpt>
      <trkpt lat="47.24647" lon="-1.4359">
        <ele>55</ele>
        <time>2021-01-10T14:38:51.000Z</time>
      </trkpt>
      <trkpt lat="47.24634" lon="-1.43604">
        <ele>55</ele>
        <time>2021-01-10T14:38:53.000Z</time>
      </trkpt>
      <trkpt lat="47.2462" lon="-1.43617">
        <ele>55</ele>
        <time>2021-01-10T14:38:55.000Z</time>
      </trkpt>
      <trkpt lat="47.24607" lon="-1.43629">
        <ele>55</ele>
        <time>2021-01-10T14:38:57.000Z</time>
      </trkpt>
      <trkpt lat="47.24593" lon="-1.43642">
        <ele>55</ele>
        <time>2021-01-10T14:38:59.000Z</time>
      </trkpt>
      <trkpt lat="47.2458" lon="-1.43654">
        <ele>55</ele>
        <time>2021-01-10T14:39:01.000Z</time>
      </trkpt>
      <trkpt lat="47.24567" lon="-1.43666">
        <ele>55</ele>
        <time>2021-01-10T14:39:03.000Z</time>
      </trkpt>
      <trkpt lat="47.24555" lon="-1.43679">
        <ele>55</ele>
        <time>2021-01-10T14:39:05.000Z</time>
      </trkpt>
      <trkpt lat="47.24544" lon="-1.43694">
        <ele>55</ele>
        <time>2021-01-10T14:39:07.000Z</time>
      </trkpt>
      <trkpt lat="47.24534" lon="-1.43713">
        <ele>54</ele>
        <time>2021-01-10T14:39:09.000Z</time>
      </trkpt>
      <trkpt lat="47.24526" lon="-1.43733">
        <ele>54</ele>
        <time>2021-01-10T14:39:11.000Z</time>
      </trkpt>
      <trkpt lat="47.24519" lon="-1.43755">
        <ele>54</ele>
        <time>2021-01-10T14:39:13.000Z</time>
      </trkpt>
      <trkpt lat="47.24512" lon="-1.43778">
        <ele>54</ele>
        <time>2021-01-10T14:39:15.000Z</time>
      </trkpt>
      <trkpt lat="47.24506" lon="-1.438">
        <ele>55</ele>
        <time>2021-01-10T14:39:17.000Z</time>
      </trkpt>
      <trkpt lat="47.24499" lon="-1.43822">
        <ele>55</ele>
        <time>2021-01-10T14:39:19.000Z</time>
      </trkpt>
      <trkpt lat="47.24492" lon="-1.43844">
        <ele>54</ele>
        <time>2021-01-10T14:39:21.000Z</time>
      </trkpt>
      <trkpt lat="47.24485" lon="-1.43865">
        <ele>54</ele>
        <time>2021-01-10T14:39:23.000Z</time>
      </trkpt>
      <trkpt lat="47.24478" lon="-1.43886">
        <ele>54</ele>
        <time>2021-01-10T14:39:25.000Z</time>
      </trkpt>
      <trkpt lat="47.24471" lon="-1.43907">
        <ele>54</ele>
        <time>2021-01-10T14:39:27.000Z</time>
      </trkpt>
      <trkpt lat="47.24463" lon="-1.43927">
        <ele>54</ele>
        <time>2021-01-10T14:39:29.000Z</time>
      </trkpt>
      <trkpt lat="47.24455" lon="-1.43945">
        <ele>54</ele>
        <time>2021-01-10T14:39:31.000Z</time>
      </trkpt>
      <trkpt lat="47.24446" lon="-1.43963">
        <ele>55</ele>
        <time>2021-01-10T14:39:33.000Z</time>
      </trkpt>
      <trkpt lat="47.24437" lon="-1.43982">
        <ele>55</ele>
        <time>2021-01-10T14:39:35.000Z</time>
      </trkpt>
      <trkpt lat="47.24428" lon="-1.44001">
        <ele>55</ele>
        <time>2021-01-10T14:39:37.000Z</time>
      </trkpt>
      <trkpt lat="47.24419" lon="-1.44019">
        <ele>54</ele>
        <time>2021-01-10T14:39:39.000Z</time>
      </trkpt>
      <trkpt lat="47.24409" lon="-1.44038">
        <ele>54</ele>
        <time>2021-01-10T14:39:41.000Z</time>
      </trkpt>
      <trkpt lat="47.244" lon="-1.44056">
        <ele>54</ele>
        <time>2021-01-10T14:39:43.000Z</time>
      </trkpt>
      <trkpt lat="47.24391" lon="-1.44073">
        <ele>53</ele>
        <time>2021-01-10T14:39:45.000Z</time>
      </trkpt>
      <trkpt lat="47.24382" lon="-1.44092">
        <ele>54</ele>
        <time>2021-01-10T14:39:47.000Z</time>
      </trkpt>
      <trkpt lat="47.24372" lon="-1.4411">
        <ele>54</ele>
        <time>2021-01-10T14:39:49.000Z</time>
      </trkpt>
      <trkpt lat="47.24363" lon="-1.44129">
        <ele>54</ele>
        <time>2021-01-10T14:39:51.000Z</time>
      </trkpt>
      <trkpt lat="47.24355" lon="-1.44148">
        <ele>54</ele>
        <time>2021-01-10T14:39:53.000Z</time>
      </trkpt>
      <trkpt lat="47.24347" lon="-1.44168">
        <ele>54</ele>
        <time>2021-01-10T14:39:55.000Z</time>
      </trkpt>
      <trkpt lat="47.24341" lon="-1.44188">
        <ele>54</ele>
        <time>2021-01-10T14:39:57.000Z</time>
      </trkpt>
      <trkpt lat="47.24337" lon="-1.4421">
        <ele>54</ele>
        <time>2021-01-10T14:39:59.000Z</time>
      </trkpt>
      <trkpt lat="47.24333" lon="-1.44232">
        <ele>54</ele>
        <time>2021-01-10T14:40:01.000Z</time>
      </trkpt>
      <trkpt lat="47.24332" lon="-1.44256">
        <ele>55</ele>
        <time>2021-01-10T14:40:03.000Z</time>
      </trkpt>
      <trkpt lat="47.2433" lon="-1.44279">
        <ele>55</ele>
        <time>2021-01-10T14:40:05.000Z</time>
      </trkpt>
      <trkpt lat="47.24328" lon="-1.44302">
        <ele>55</ele>
        <time>2021-01-10T14:40:07.000Z</time>
      </trkpt>
      <trkpt lat="47.24327" lon="-1.44324">
        <ele>55</ele>
        <time>2021-01-10T14:40:09.000Z</time>
      </trkpt>
      <trkpt lat="47.24325" lon="-1.44346">
        <ele>55</ele>
        <time>2021-01-10T14:40:11.000Z</time>
      </trkpt>
      <trkpt lat="47.24323" lon="-1.44368">
        <ele>55</ele>
        <time>2021-01-10T14:40:13.000Z</time>
      </trkpt>
      <trkpt lat="47.24321" lon="-1.44391">
        <ele>55</ele>
        <time>2021-01-10T14:40:15.000Z</time>
      </trkpt>
      <trkpt lat="47.2432" lon="-1.44413">
        <ele>55</ele>
        <time>2021-01-10T14:40:17.000Z</time>
      </trkpt>
      <trkpt lat="47.24318" lon="-1.44435">
        <ele>55</ele>
        <time>2021-01-10T14:40:19.000Z</time>
      </trkpt>
      <trkpt lat="47.24316" lon="-1.44457">
        <ele>55</ele>
        <time>2021-01-10T14:40:21.000Z</time>
      </trkpt>
      <trkpt lat="47.24314" lon="-1.4448">
        <ele>55</ele>
        <time>2021-01-10T14:40:23.000Z</time>
      </trkpt>
      <trkpt lat="47.24313" lon="-1.44502">
        <ele>55</ele>
        <time>2021-01-10T14:40:25.000Z</time>
      </trkpt>
      <trkpt lat="47.24311" lon="-1.44523">
        <ele>55</ele>
        <time>2021-01-10T14:40:27.000Z</time>
      </trkpt>
      <trkpt lat="47.24309" lon="-1.44544">
        <ele>55</ele>
        <time>2021-01-10T14:40:29.000Z</time>
      </trkpt>
      <trkpt lat="47.24307" lon="-1.44566">
        <ele>55</ele>
        <time>2021-01-10T14:40:31.000Z</time>
      </trkpt>
      <trkpt lat="47.24305" lon="-1.44587">
        <ele>55</ele>
        <time>2021-01-10T14:40:33.000Z</time>
      </trkpt>
      <trkpt lat="47.24304" lon="-1.44608">
        <ele>55</ele>
        <time>2021-01-10T14:40:35.000Z</time>
      </trkpt>
      <trkpt lat="47.24302" lon="-1.4463">
        <ele>55</ele>
        <time>2021-01-10T14:40:37.000Z</time>
      </trkpt>
      <trkpt lat="47.24301" lon="-1.44652">
        <ele>55</ele>
        <time>2021-01-10T14:40:39.000Z</time>
      </trkpt>
      <trkpt lat="47.24299" lon="-1.44674">
        <ele>55</ele>
        <time>2021-01-10T14:40:41.000Z</time>
      </trkpt>
      <trkpt lat="47.24297" lon="-1.44695">
        <ele>55</ele>
        <time>2021-01-10T14:40:43.000Z</time>
      </trkpt>
      <trkpt lat="47.24295" lon="-1.44717">
        <ele>55</ele>
        <time>2021-01-10T14:40:45.000Z</time>
      </trkpt>
      <trkpt lat="47.24293" lon="-1.44739">
        <ele>54</ele>
        <time>2021-01-10T14:40:47.000Z</time>
      </trkpt>
      <trkpt lat="47.24292" lon="-1.4476">
        <ele>54</ele>
        <time>2021-01-10T14:40:49.000Z</time>
      </trkpt>
      <trkpt lat="47.2429" lon="-1.44782">
        <ele>55</ele>
        <time>2021-01-10T14:40:51.000Z</time>
      </trkpt>
      <trkpt lat="47.24288" lon="-1.44804">
        <ele>55</ele>
        <time>2021-01-10T14:40:53.000Z</time>
      </trkpt>
      <trkpt lat="47.24287" lon="-1.44825">
        <ele>55</ele>
        <time>2021-01-10T14:40:55.000Z</time>
      </trkpt>
      <trkpt lat="47.24285" lon="-1.44847">
        <ele>55</ele>
        <time>2021-01-10T14:40:57.000Z</time>
      </trkpt>
      <trkpt lat="47.24283" lon="-1.44868">
        <ele>55</ele>
        <time>2021-01-10T14:40:59.000Z</time>
      </trkpt>
      <trkpt lat="47.24282" lon="-1.44889">
        <ele>55</ele>
        <time>2021-01-10T14:41:01.000Z</time>
      </trkpt>
      <trkpt lat="47.2428" lon="-1.4491">
        <ele>55</ele>
        <time>2021-01-10T14:41:03.000Z</time>
      </trkpt>
      <trkpt lat="47.24278" lon="-1.44932">
        <ele>55</ele>
        <time>2021-01-10T14:41:05.000Z</time>
      </trkpt>
      <trkpt lat="47.24276" lon="-1.44954">
        <ele>55</ele>
        <time>2021-01-10T14:41:07.000Z</time>
      </trkpt>
      <trkpt lat="47.24275" lon="-1.44975">
        <ele>54</ele>
        <time>2021-01-10T14:41:09.000Z</time>
      </trkpt>
      <trkpt lat="47.24274" lon="-1.44996">
        <ele>55</ele>
        <time>2021-01-10T14:41:11.000Z</time>
      </trkpt>
      <trkpt lat="47.24272" lon="-1.45017">
        <ele>55</ele>
        <time>2021-01-10T14:41:13.000Z</time>
      </trkpt>
      <trkpt lat="47.2427" lon="-1.45038">
        <ele>55</ele>
        <time>2021-01-10T14:41:15.000Z</time>
      </trkpt>
      <trkpt lat="47.24269" lon="-1.4506">
        <ele>55</ele>
        <time>2021-01-10T14:41:17.000Z</time>
      </trkpt>
      <trkpt lat="47.24267" lon="-1.45081">
        <ele>55</ele>
        <time>2021-01-10T14:41:19.000Z</time>
      </trkpt>
      <trkpt lat="47.24266" lon="-1.45103">
        <ele>56</ele>
        <time>2021-01-10T14:41:21.000Z</time>
      </trkpt>
      <trkpt lat="47.24264" lon="-1.45124">
        <ele>56</ele>
        <time>2021-01-10T14:41:23.000Z</time>
      </trkpt>
      <trkpt lat="47.24262" lon="-1.45146">
        <ele>55</ele>
        <time>2021-01-10T14:41:25.000Z</time>
      </trkpt>
      <trkpt lat="47.2426" lon="-1.45168">
        <ele>55</ele>
        <time>2021-01-10T14:41:27.000Z</time>
      </trkpt>
      <trkpt lat="47.24258" lon="-1.4519">
        <ele>55</ele>
        <time>2021-01-10T14:41:29.000Z</time>
      </trkpt>
      <trkpt lat="47.24255" lon="-1.45211">
        <ele>55</ele>
        <time>2021-01-10T14:41:31.000Z</time>
      </trkpt>
      <trkpt lat="47.24251" lon="-1.45233">
        <ele>56</ele>
        <time>2021-01-10T14:41:33.000Z</time>
      </trkpt>
      <trkpt lat="47.24246" lon="-1.45253">
        <ele>56</ele>
        <time>2021-01-10T14:41:35.000Z</time>
      </trkpt>
      <trkpt lat="47.2424" lon="-1.45273">
        <ele>56</ele>
        <time>2021-01-10T14:41:37.000Z</time>
      </trkpt>
      <trkpt lat="47.24234" lon="-1.45292">
        <ele>56</ele>
        <time>2021-01-10T14:41:39.000Z</time>
      </trkpt>
      <trkpt lat="47.24228" lon="-1.45311">
        <ele>56</ele>
        <time>2021-01-10T14:41:41.000Z</time>
      </trkpt>
      <trkpt lat="47.24222" lon="-1.45331">
        <ele>57</ele>
        <time>2021-01-10T14:41:43.000Z</time>
      </trkpt>
      <trkpt lat="47.24216" lon="-1.4535">
        <ele>57</ele>
        <time>2021-01-10T14:41:45.000Z</time>
      </trkpt>
      <trkpt lat="47.2421" lon="-1.4537">
        <ele>57</ele>
        <time>2021-01-10T14:41:47.000Z</time>
      </trkpt>
      <trkpt lat="47.24204" lon="-1.4539">
        <ele>57</ele>
        <time>2021-01-10T14:41:49.000Z</time>
      </trkpt>
      <trkpt lat="47.24197" lon="-1.45409">
        <ele>57</ele>
        <time>2021-01-10T14:41:51.000Z</time>
      </trkpt>
      <trkpt lat="47.24191" lon="-1.45429">
        <ele>57</ele>
        <time>2021-01-10T14:41:53.000Z</time>
      </trkpt>
      <trkpt lat="47.24185" lon="-1.45448">
        <ele>57</ele>
        <time>2021-01-10T14:41:55.000Z</time>
      </trkpt>
      <trkpt lat="47.24178" lon="-1.45468">
        <ele>57</ele>
        <time>2021-01-10T14:41:57.000Z</time>
      </trkpt>
      <trkpt lat="47.24172" lon="-1.45487">
        <ele>57</ele>
        <time>2021-01-10T14:41:59.000Z</time>
      </trkpt>
      <trkpt lat="47.24166" lon="-1.45507">
        <ele>57</ele>
        <time>2021-01-10T14:42:01.000Z</time>
      </trkpt>
      <trkpt lat="47.24159" lon="-1.45526">
        <ele>56</ele>
        <time>2021-01-10T14:42:03.000Z</time>
      </trkpt>
      <trkpt lat="47.24153" lon="-1.45547">
        <ele>56</ele>
        <time>2021-01-10T14:42:05.000Z</time>
      </trkpt>
      <trkpt lat="47.24146" lon="-1.45567">
        <ele>56</ele>
        <time>2021-01-10T14:42:07.000Z</time>
      </trkpt>
      <trkpt lat="47.24139" lon="-1.45587">
        <ele>56</ele>
        <time>2021-01-10T14:42:09.000Z</time>
      </trkpt>
      <trkpt lat="47.24132" lon="-1.45607">
        <ele>56</ele>
        <time>2021-01-10T14:42:11.000Z</time>
      </trkpt>
      <trkpt lat="47.24125" lon="-1.45627">
        <ele>56</ele>
        <time>2021-01-10T14:42:13.000Z</time>
      </trkpt>
      <trkpt lat="47.24117" lon="-1.45646">
        <ele>56</ele>
        <time>2021-01-10T14:42:15.000Z</time>
      </trkpt>
      <trkpt lat="47.24108" lon="-1.45664">
        <ele>56</ele>
        <time>2021-01-10T14:42:17.000Z</time>
      </trkpt>
      <trkpt lat="47.24099" lon="-1.45682">
        <ele>56</ele>
        <time>2021-01-10T14:42:19.000Z</time>
      </trkpt>
      <trkpt lat="47.24089" lon="-1.45699">
        <ele>56</ele>
        <time>2021-01-10T14:42:21.000Z</time>
      </trkpt>
      <trkpt lat="47.24078" lon="-1.45716">
        <ele>56</ele>
        <time>2021-01-10T14:42:23.000Z</time>
      </trkpt>
      <trkpt lat="47.24068" lon="-1.45733">
        <ele>56</ele>
        <time>2021-01-10T14:42:25.000Z</time>
      </trkpt>
      <trkpt lat="47.24058" lon="-1.45749">
        <ele>55</ele>
        <time>2021-01-10T14:42:27.000Z</time>
      </trkpt>
      <trkpt lat="47.24048" lon="-1.45765">
        <ele>55</ele>
        <time>2021-01-10T14:42:29.000Z</time>
      </trkpt>
      <trkpt lat="47.24037" lon="-1.45781">
        <ele>55</ele>
        <time>2021-01-10T14:42:31.000Z</time>
      </trkpt>
      <trkpt lat="47.24027" lon="-1.45799">
        <ele>55</ele>
        <time>2021-01-10T14:42:33.000Z</time>
      </trkpt>
      <trkpt lat="47.24016" lon="-1.45816">
        <ele>55</ele>
        <time>2021-01-10T14:42:35.000Z</time>
      </trkpt>
      <trkpt lat="47.24006" lon="-1.45832">
        <ele>55</ele>
        <time>2021-01-10T14:42:37.000Z</time>
      </trkpt>
      <trkpt lat="47.23996" lon="-1.45848">
        <ele>55</ele>
        <time>2021-01-10T14:42:39.000Z</time>
      </trkpt>
      <trkpt lat="47.23986" lon="-1.45864">
        <ele>55</ele>
        <time>2021-01-10T14:42:41.000Z</time>
      </trkpt>
      <trkpt lat="47.23976" lon="-1.45879">
        <ele>55</ele>
        <time>2021-01-10T14:42:43.000Z</time>
      </trkpt>
      <trkpt lat="47.23965" lon="-1.45894">
        <ele>55</ele>
        <time>2021-01-10T14:42:45.000Z</time>
      </trkpt>
      <trkpt lat="47.23954" lon="-1.45908">
        <ele>55</ele>
        <time>2021-01-10T14:42:47.000Z</time>
      </trkpt>
      <trkpt lat="47.23941" lon="-1.45918">
        <ele>55</ele>
        <time>2021-01-10T14:42:49.000Z</time>
      </trkpt>
      <trkpt lat="47.23927" lon="-1.45926">
        <ele>56</ele>
        <time>2021-01-10T14:42:51.000Z</time>
      </trkpt>
      <trkpt lat="47.23913" lon="-1.45932">
        <ele>56</ele>
        <time>2021-01-10T14:42:53.000Z</time>
      </trkpt>
      <trkpt lat="47.23899" lon="-1.45935">
        <ele>56</ele>
        <time>2021-01-10T14:42:55.000Z</time>
      </trkpt>
      <trkpt lat="47.23884" lon="-1.45938">
        <ele>56</ele>
        <time>2021-01-10T14:42:57.000Z</time>
      </trkpt>
      <trkpt lat="47.2387" lon="-1.45942">
        <ele>56</ele>
        <time>2021-01-10T14:42:59.000Z</time>
      </trkpt>
      <trkpt lat="47.23854" lon="-1.45945">
        <ele>55</ele>
        <time>2021-01-10T14:43:01.000Z</time>
      </trkpt>
      <trkpt lat="47.2384" lon="-1.45949">
        <ele>55</ele>
        <time>2021-01-10T14:43:03.000Z</time>
      </trkpt>
      <trkpt lat="47.23825" lon="-1.45952">
        <ele>54</ele>
        <time>2021-01-10T14:43:05.000Z</time>
      </trkpt>
      <trkpt lat="47.2381" lon="-1.45955">
        <ele>54</ele>
        <time>2021-01-10T14:43:07.000Z</time>
      </trkpt>
      <trkpt lat="47.23795" lon="-1.45959">
        <ele>54</ele>
        <time>2021-01-10T14:43:09.000Z</time>
      </trkpt>
      <trkpt lat="47.2378" lon="-1.45963">
        <ele>54</ele>
        <time>2021-01-10T14:43:11.000Z</time>
      </trkpt>
      <trkpt lat="47.23765" lon="-1.45967">
        <ele>53</ele>
        <time>2021-01-10T14:43:13.000Z</time>
      </trkpt>
      <trkpt lat="47.23751" lon="-1.45971">
        <ele>53</ele>
        <time>2021-01-10T14:43:15.000Z</time>
      </trkpt>
      <trkpt lat="47.23737" lon="-1.45974">
        <ele>53</ele>
        <time>2021-01-10T14:43:17.000Z</time>
      </trkpt>
      <trkpt lat="47.23723" lon="-1.45977">
        <ele>53</ele>
        <time>2021-01-10T14:43:19.000Z</time>
      </trkpt>
      <trkpt lat="47.23708" lon="-1.4598">
        <ele>52</ele>
        <time>2021-01-10T14:43:21.000Z</time>
      </trkpt>
      <trkpt lat="47.23694" lon="-1.45983">
        <ele>53</ele>
        <time>2021-01-10T14:43:23.000Z</time>
      </trkpt>
      <trkpt lat="47.23679" lon="-1.45987">
        <ele>53</ele>
        <time>2021-01-10T14:43:25.000Z</time>
      </trkpt>
      <trkpt lat="47.23664" lon="-1.45991">
        <ele>52</ele>
        <time>2021-01-10T14:43:27.000Z</time>
      </trkpt>
      <trkpt lat="47.2365" lon="-1.45994">
        <ele>52</ele>
        <time>2021-01-10T14:43:29.000Z</time>
      </trkpt>
      <trkpt lat="47.23636" lon="-1.45999">
        <ele>52</ele>
        <time>2021-01-10T14:43:31.000Z</time>
      </trkpt>
      <trkpt lat="47.23621" lon="-1.46004">
        <ele>52</ele>
        <time>2021-01-10T14:43:33.000Z</time>
      </trkpt>
      <trkpt lat="47.23607" lon="-1.46012">
        <ele>52</ele>
        <time>2021-01-10T14:43:35.000Z</time>
      </trkpt>
      <trkpt lat="47.23593" lon="-1.46022">
        <ele>53</ele>
        <time>2021-01-10T14:43:37.000Z</time>
      </trkpt>
      <trkpt lat="47.2358" lon="-1.46034">
        <ele>53</ele>
        <time>2021-01-10T14:43:39.000Z</time>
      </trkpt>
      <trkpt lat="47.23566" lon="-1.46046">
        <ele>53</ele>
        <time>2021-01-10T14:43:41.000Z</time>
      </trkpt>
      <trkpt lat="47.23553" lon="-1.4606">
        <ele>54</ele>
        <time>2021-01-10T14:43:43.000Z</time>
      </trkpt>
      <trkpt lat="47.2354" lon="-1.46073">
        <ele>54</ele>
        <time>2021-01-10T14:43:45.000Z</time>
      </trkpt>
      <trkpt lat="47.23527" lon="-1.46085">
        <ele>54</ele>
        <time>2021-01-10T14:43:47.000Z</time>
      </trkpt>
      <trkpt lat="47.23514" lon="-1.46097">
        <ele>54</ele>
        <time>2021-01-10T14:43:49.000Z</time>
      </trkpt>
      <trkpt lat="47.23501" lon="-1.46109">
        <ele>54</ele>
        <time>2021-01-10T14:43:51.000Z</time>
      </trkpt>
      <trkpt lat="47.23488" lon="-1.46121">
        <ele>54</ele>
        <time>2021-01-10T14:43:53.000Z</time>
      </trkpt>
      <trkpt lat="47.23475" lon="-1.46134">
        <ele>54</ele>
        <time>2021-01-10T14:43:55.000Z</time>
      </trkpt>
      <trkpt lat="47.23461" lon="-1.46147">
        <ele>54</ele>
        <time>2021-01-10T14:43:57.000Z</time>
      </trkpt>
      <trkpt lat="47.23448" lon="-1.4616">
        <ele>55</ele>
        <time>2021-01-10T14:43:59.000Z</time>
      </trkpt>
      <trkpt lat="47.23435" lon="-1.46173">
        <ele>55</ele>
        <time>2021-01-10T14:44:01.000Z</time>
      </trkpt>
      <trkpt lat="47.23423" lon="-1.46187">
        <ele>55</ele>
        <time>2021-01-10T14:44:03.000Z</time>
      </trkpt>
      <trkpt lat="47.23411" lon="-1.46201">
        <ele>55</ele>
        <time>2021-01-10T14:44:05.000Z</time>
      </trkpt>
      <trkpt lat="47.23399" lon="-1.46215">
        <ele>55</ele>
        <time>2021-01-10T14:44:07.000Z</time>
      </trkpt>
      <trkpt lat="47.23388" lon="-1.4623">
        <ele>55</ele>
        <time>2021-01-10T14:44:09.000Z</time>
      </trkpt>
      <trkpt lat="47.23377" lon="-1.46245">
        <ele>55</ele>
        <time>2021-01-10T14:44:11.000Z</time>
      </trkpt>
      <trkpt lat="47.23365" lon="-1.4626">
        <ele>56</ele>
        <time>2021-01-10T14:44:13.000Z</time>
      </trkpt>
      <trkpt lat="47.23354" lon="-1.46275">
        <ele>56</ele>
        <time>2021-01-10T14:44:15.000Z</time>
      </trkpt>
      <trkpt lat="47.23342" lon="-1.4629">
        <ele>56</ele>
        <time>2021-01-10T14:44:17.000Z</time>
      </trkpt>
      <trkpt lat="47.23331" lon="-1.46305">
        <ele>56</ele>
        <time>2021-01-10T14:44:19.000Z</time>
      </trkpt>
      <trkpt lat="47.2332" lon="-1.4632">
        <ele>56</ele>
        <time>2021-01-10T14:44:21.000Z</time>
      </trkpt>
      <trkpt lat="47.23308" lon="-1.46334">
        <ele>56</ele>
        <time>2021-01-10T14:44:23.000Z</time>
      </trkpt>
      <trkpt lat="47.23297" lon="-1.46349">
        <ele>57</ele>
        <time>2021-01-10T14:44:25.000Z</time>
      </trkpt>
      <trkpt lat="47.23286" lon="-1.46364">
        <ele>57</ele>
        <time>2021-01-10T14:44:27.000Z</time>
      </trkpt>
      <trkpt lat="47.23274" lon="-1.46379">
        <ele>57</ele>
        <time>2021-01-10T14:44:29.000Z</time>
      </trkpt>
      <trkpt lat="47.23263" lon="-1.46394">
        <ele>57</ele>
        <time>2021-01-10T14:44:31.000Z</time>
      </trkpt>
      <trkpt lat="47.23252" lon="-1.46408">
        <ele>57</ele>
        <time>2021-01-10T14:44:33.000Z</time>
      </trkpt>
      <trkpt lat="47.23242" lon="-1.46422">
        <ele>57</ele>
        <time>2021-01-10T14:44:35.000Z</time>
      </trkpt>
      <trkpt lat="47.2323" lon="-1.46436">
        <ele>56</ele>
        <time>2021-01-10T14:44:37.000Z</time>
      </trkpt>
      <trkpt lat="47.2322" lon="-1.46451">
        <ele>56</ele>
        <time>2021-01-10T14:44:39.000Z</time>
      </trkpt>
      <trkpt lat="47.23208" lon="-1.46465">
        <ele>56</ele>
        <time>2021-01-10T14:44:41.000Z</time>
      </trkpt>
      <trkpt lat="47.23197" lon="-1.46478">
        <ele>56</ele>
        <time>2021-01-10T14:44:43.000Z</time>
      </trkpt>
      <trkpt lat="47.23186" lon="-1.46493">
        <ele>56</ele>
        <time>2021-01-10T14:44:45.000Z</time>
      </trkpt>
      <trkpt lat="47.23175" lon="-1.46507">
        <ele>56</ele>
        <time>2021-01-10T14:44:47.000Z</time>
      </trkpt>
      <trkpt lat="47.23163" lon="-1.46522">
        <ele>56</ele>
        <time>2021-01-10T14:44:49.000Z</time>
      </trkpt>
      <trkpt lat="47.23152" lon="-1.46536">
        <ele>56</ele>
        <time>2021-01-10T14:44:51.000Z</time>
      </trkpt>
      <trkpt lat="47.2314" lon="-1.46549">
        <ele>56</ele>
        <time>2021-01-10T14:44:53.000Z</time>
      </trkpt>
      <trkpt lat="47.23127" lon="-1.46562">
        <ele>56</ele>
        <time>2021-01-10T14:44:55.000Z</time>
      </trkpt>
      <trkpt lat="47.23115" lon="-1.46576">
        <ele>57</ele>
        <time>2021-01-10T14:44:57.000Z</time>
      </trkpt>
      <trkpt lat="47.23103" lon="-1.4659">
        <ele>57</ele>
        <time>2021-01-10T14:44:59.000Z</time>
      </trkpt>
      <trkpt lat="47.23091" lon="-1.46602">
        <ele>57</ele>
        <time>2021-01-10T14:45:01.000Z</time>
      </trkpt>
      <trkpt lat="47.23077" lon="-1.46614">
        <ele>58</ele>
        <time>2021-01-10T14:45:03.000Z</time>
      </trkpt>
      <trkpt lat="47.23065" lon="-1.46625">
        <ele>58</ele>
        <time>2021-01-10T14:45:05.000Z</time>
      </trkpt>
      <trkpt lat="47.23053" lon="-1.46634">
        <ele>58</ele>
        <time>2021-01-10T14:45:07.000Z</time>
      </trkpt>
      <trkpt lat="47.23042" lon="-1.46643">
        <ele>58</ele>
        <time>2021-01-10T14:45:09.000Z</time>
      </trkpt>
      <trkpt lat="47.2303" lon="-1.4665">
        <ele>58</ele>
        <time>2021-01-10T14:45:11.000Z</time>
      </trkpt>
      <trkpt lat="47.2302" lon="-1.46658">
        <ele>59</ele>
        <time>2021-01-10T14:45:13.000Z</time>
      </trkpt>
      <trkpt lat="47.23013" lon="-1.46671">
        <ele>59</ele>
        <time>2021-01-10T14:45:15.000Z</time>
      </trkpt>
      <trkpt lat="47.23011" lon="-1.46689">
        <ele>58</ele>
        <time>2021-01-10T14:45:17.000Z</time>
      </trkpt>
      <trkpt lat="47.2301" lon="-1.46709">
        <ele>58</ele>
        <time>2021-01-10T14:45:19.000Z</time>
      </trkpt>
      <trkpt lat="47.23009" lon="-1.46729">
        <ele>58</ele>
        <time>2021-01-10T14:45:21.000Z</time>
      </trkpt>
      <trkpt lat="47.23" lon="-1.46745">
        <ele>58</ele>
        <time>2021-01-10T14:45:23.000Z</time>
      </trkpt>
      <trkpt lat="47.22988" lon="-1.46755">
        <ele>58</ele>
        <time>2021-01-10T14:45:25.000Z</time>
      </trkpt>
      <trkpt lat="47.22976" lon="-1.46769">
        <ele>56</ele>
        <time>2021-01-10T14:45:27.000Z</time>
      </trkpt>
      <trkpt lat="47.22967" lon="-1.46788">
        <ele>56</ele>
        <time>2021-01-10T14:45:29.000Z</time>
      </trkpt>
      <trkpt lat="47.22958" lon="-1.46807">
        <ele>55</ele>
        <time>2021-01-10T14:45:31.000Z</time>
      </trkpt>
      <trkpt lat="47.22951" lon="-1.46828">
        <ele>53</ele>
        <time>2021-01-10T14:45:33.000Z</time>
      </trkpt>
      <trkpt lat="47.22944" lon="-1.46853">
        <ele>52</ele>
        <time>2021-01-10T14:45:35.000Z</time>
      </trkpt>
      <trkpt lat="47.22941" lon="-1.46865">
        <ele>52</ele>
        <time>2021-01-10T14:45:36.000Z</time>
      </trkpt>
      <trkpt lat="47.22936" lon="-1.46889">
        <ele>51</ele>
        <time>2021-01-10T14:45:38.000Z</time>
      </trkpt>
      <trkpt lat="47.2293" lon="-1.46912">
        <ele>51</ele>
        <time>2021-01-10T14:45:40.000Z</time>
      </trkpt>
      <trkpt lat="47.22925" lon="-1.46935">
        <ele>51</ele>
        <time>2021-01-10T14:45:42.000Z</time>
      </trkpt>
      <trkpt lat="47.2292" lon="-1.46957">
        <ele>51</ele>
        <time>2021-01-10T14:45:44.000Z</time>
      </trkpt>
      <trkpt lat="47.22915" lon="-1.46978">
        <ele>51</ele>
        <time>2021-01-10T14:45:46.000Z</time>
      </trkpt>
      <trkpt lat="47.22908" lon="-1.46999">
        <ele>51</ele>
        <time>2021-01-10T14:45:48.000Z</time>
      </trkpt>
      <trkpt lat="47.22895" lon="-1.47009">
        <ele>52</ele>
        <time>2021-01-10T14:45:50.000Z</time>
      </trkpt>
      <trkpt lat="47.22879" lon="-1.47006">
        <ele>52</ele>
        <time>2021-01-10T14:45:52.000Z</time>
      </trkpt>
      <trkpt lat="47.22866" lon="-1.46998">
        <ele>53</ele>
        <time>2021-01-10T14:45:54.000Z</time>
      </trkpt>
      <trkpt lat="47.22852" lon="-1.4699">
        <ele>53</ele>
        <time>2021-01-10T14:45:56.000Z</time>
      </trkpt>
      <trkpt lat="47.22838" lon="-1.46981">
        <ele>53</ele>
        <time>2021-01-10T14:45:58.000Z</time>
      </trkpt>
      <trkpt lat="47.22824" lon="-1.46975">
        <ele>53</ele>
        <time>2021-01-10T14:46:00.000Z</time>
      </trkpt>
      <trkpt lat="47.22809" lon="-1.46969">
        <ele>54</ele>
        <time>2021-01-10T14:46:02.000Z</time>
      </trkpt>
      <trkpt lat="47.22794" lon="-1.46965">
        <ele>54</ele>
        <time>2021-01-10T14:46:04.000Z</time>
      </trkpt>
      <trkpt lat="47.22779" lon="-1.46962">
        <ele>54</ele>
        <time>2021-01-10T14:46:06.000Z</time>
      </trkpt>
      <trkpt lat="47.22764" lon="-1.46961">
        <ele>54</ele>
        <time>2021-01-10T14:46:08.000Z</time>
      </trkpt>
      <trkpt lat="47.22748" lon="-1.46961">
        <ele>54</ele>
        <time>2021-01-10T14:46:10.000Z</time>
      </trkpt>
      <trkpt lat="47.22732" lon="-1.46963">
        <ele>54</ele>
        <time>2021-01-10T14:46:12.000Z</time>
      </trkpt>
      <trkpt lat="47.22717" lon="-1.46968">
        <ele>55</ele>
        <time>2021-01-10T14:46:14.000Z</time>
      </trkpt>
      <trkpt lat="47.22702" lon="-1.46975">
        <ele>55</ele>
        <time>2021-01-10T14:46:16.000Z</time>
      </trkpt>
      <trkpt lat="47.22686" lon="-1.46982">
        <ele>54</ele>
        <time>2021-01-10T14:46:18.000Z</time>
      </trkpt>
      <trkpt lat="47.22671" lon="-1.4699">
        <ele>54</ele>
        <time>2021-01-10T14:46:20.000Z</time>
      </trkpt>
      <trkpt lat="47.22658" lon="-1.47003">
        <ele>54</ele>
        <time>2021-01-10T14:46:22.000Z</time>
      </trkpt>
      <trkpt lat="47.22644" lon="-1.47021">
        <ele>54</ele>
        <time>2021-01-10T14:46:24.000Z</time>
      </trkpt>
      <trkpt lat="47.22638" lon="-1.47031">
        <ele>54</ele>
        <time>2021-01-10T14:46:25.000Z</time>
      </trkpt>
      <trkpt lat="47.22632" lon="-1.47041">
        <ele>54</ele>
        <time>2021-01-10T14:46:26.000Z</time>
      </trkpt>
      <trkpt lat="47.22626" lon="-1.47051">
        <ele>54</ele>
        <time>2021-01-10T14:46:27.000Z</time>
      </trkpt>
      <trkpt lat="47.22615" lon="-1.47072">
        <ele>54</ele>
        <time>2021-01-10T14:46:29.000Z</time>
      </trkpt>
      <trkpt lat="47.22609" lon="-1.47083">
        <ele>54</ele>
        <time>2021-01-10T14:46:30.000Z</time>
      </trkpt>
      <trkpt lat="47.22598" lon="-1.47102">
        <ele>54</ele>
        <time>2021-01-10T14:46:32.000Z</time>
      </trkpt>
      <trkpt lat="47.2259" lon="-1.47111">
        <ele>54</ele>
        <time>2021-01-10T14:46:33.000Z</time>
      </trkpt>
      <trkpt lat="47.22575" lon="-1.47122">
        <ele>55</ele>
        <time>2021-01-10T14:46:35.000Z</time>
      </trkpt>
      <trkpt lat="47.22558" lon="-1.47127">
        <ele>55</ele>
        <time>2021-01-10T14:46:37.000Z</time>
      </trkpt>
      <trkpt lat="47.22541" lon="-1.4713">
        <ele>56</ele>
        <time>2021-01-10T14:46:39.000Z</time>
      </trkpt>
      <trkpt lat="47.22524" lon="-1.47134">
        <ele>56</ele>
        <time>2021-01-10T14:46:41.000Z</time>
      </trkpt>
      <trkpt lat="47.22508" lon="-1.47137">
        <ele>56</ele>
        <time>2021-01-10T14:46:43.000Z</time>
      </trkpt>
      <trkpt lat="47.22491" lon="-1.47143">
        <ele>56</ele>
        <time>2021-01-10T14:46:45.000Z</time>
      </trkpt>
      <trkpt lat="47.22475" lon="-1.47151">
        <ele>56</ele>
        <time>2021-01-10T14:46:47.000Z</time>
      </trkpt>
      <trkpt lat="47.2246" lon="-1.47162">
        <ele>56</ele>
        <time>2021-01-10T14:46:49.000Z</time>
      </trkpt>
      <trkpt lat="47.22445" lon="-1.47175">
        <ele>55</ele>
        <time>2021-01-10T14:46:51.000Z</time>
      </trkpt>
      <trkpt lat="47.22431" lon="-1.47189">
        <ele>55</ele>
        <time>2021-01-10T14:46:53.000Z</time>
      </trkpt>
      <trkpt lat="47.22417" lon="-1.47205">
        <ele>55</ele>
        <time>2021-01-10T14:46:55.000Z</time>
      </trkpt>
      <trkpt lat="47.22403" lon="-1.47222">
        <ele>54</ele>
        <time>2021-01-10T14:46:57.000Z</time>
      </trkpt>
      <trkpt lat="47.22396" lon="-1.4723">
        <ele>54</ele>
        <time>2021-01-10T14:46:58.000Z</time>
      </trkpt>
      <trkpt lat="47.22388" lon="-1.47239">
        <ele>54</ele>
        <time>2021-01-10T14:46:59.000Z</time>
      </trkpt>
      <trkpt lat="47.2238" lon="-1.47247">
        <ele>54</ele>
        <time>2021-01-10T14:47:00.000Z</time>
      </trkpt>
      <trkpt lat="47.22372" lon="-1.47254">
        <ele>54</ele>
        <time>2021-01-10T14:47:01.000Z</time>
      </trkpt>
      <trkpt lat="47.22364" lon="-1.47262">
        <ele>54</ele>
        <time>2021-01-10T14:47:02.000Z</time>
      </trkpt>
      <trkpt lat="47.22356" lon="-1.47269">
        <ele>54</ele>
        <time>2021-01-10T14:47:03.000Z</time>
      </trkpt>
      <trkpt lat="47.22348" lon="-1.47276">
        <ele>54</ele>
        <time>2021-01-10T14:47:04.000Z</time>
      </trkpt>
      <trkpt lat="47.22332" lon="-1.47288">
        <ele>54</ele>
        <time>2021-01-10T14:47:06.000Z</time>
      </trkpt>
      <trkpt lat="47.22324" lon="-1.47295">
        <ele>53</ele>
        <time>2021-01-10T14:47:07.000Z</time>
      </trkpt>
      <trkpt lat="47.22315" lon="-1.47302">
        <ele>53</ele>
        <time>2021-01-10T14:47:08.000Z</time>
      </trkpt>
      <trkpt lat="47.22307" lon="-1.47308">
        <ele>52</ele>
        <time>2021-01-10T14:47:09.000Z</time>
      </trkpt>
      <trkpt lat="47.22298" lon="-1.47315">
        <ele>52</ele>
        <time>2021-01-10T14:47:10.000Z</time>
      </trkpt>
      <trkpt lat="47.2229" lon="-1.47321">
        <ele>52</ele>
        <time>2021-01-10T14:47:11.000Z</time>
      </trkpt>
      <trkpt lat="47.22283" lon="-1.47328">
        <ele>52</ele>
        <time>2021-01-10T14:47:12.000Z</time>
      </trkpt>
      <trkpt lat="47.22267" lon="-1.47341">
        <ele>52</ele>
        <time>2021-01-10T14:47:14.000Z</time>
      </trkpt>
      <trkpt lat="47.22253" lon="-1.47354">
        <ele>52</ele>
        <time>2021-01-10T14:47:16.000Z</time>
      </trkpt>
      <trkpt lat="47.22236" lon="-1.47365">
        <ele>52</ele>
        <time>2021-01-10T14:47:18.000Z</time>
      </trkpt>
      <trkpt lat="47.22227" lon="-1.47369">
        <ele>53</ele>
        <time>2021-01-10T14:47:19.000Z</time>
      </trkpt>
      <trkpt lat="47.22212" lon="-1.4738">
        <ele>52</ele>
        <time>2021-01-10T14:47:21.000Z</time>
      </trkpt>
      <trkpt lat="47.22196" lon="-1.47391">
        <ele>52</ele>
        <time>2021-01-10T14:47:23.000Z</time>
      </trkpt>
      <trkpt lat="47.22181" lon="-1.47404">
        <ele>52</ele>
        <time>2021-01-10T14:47:25.000Z</time>
      </trkpt>
      <trkpt lat="47.22166" lon="-1.47417">
        <ele>52</ele>
        <time>2021-01-10T14:47:27.000Z</time>
      </trkpt>
      <trkpt lat="47.22151" lon="-1.4743">
        <ele>53</ele>
        <time>2021-01-10T14:47:29.000Z</time>
      </trkpt>
      <trkpt lat="47.22136" lon="-1.47443">
        <ele>53</ele>
        <time>2021-01-10T14:47:31.000Z</time>
      </trkpt>
      <trkpt lat="47.22121" lon="-1.47456">
        <ele>53</ele>
        <time>2021-01-10T14:47:33.000Z</time>
      </trkpt>
      <trkpt lat="47.22106" lon="-1.47468">
        <ele>54</ele>
        <time>2021-01-10T14:47:35.000Z</time>
      </trkpt>
      <trkpt lat="47.22092" lon="-1.47481">
        <ele>55</ele>
        <time>2021-01-10T14:47:37.000Z</time>
      </trkpt>
      <trkpt lat="47.22078" lon="-1.47494">
        <ele>55</ele>
        <time>2021-01-10T14:47:39.000Z</time>
      </trkpt>
      <trkpt lat="47.22064" lon="-1.47507">
        <ele>55</ele>
        <time>2021-01-10T14:47:41.000Z</time>
      </trkpt>
      <trkpt lat="47.22049" lon="-1.4752">
        <ele>55</ele>
        <time>2021-01-10T14:47:43.000Z</time>
      </trkpt>
      <trkpt lat="47.22036" lon="-1.47533">
        <ele>55</ele>
        <time>2021-01-10T14:47:45.000Z</time>
      </trkpt>
      <trkpt lat="47.22022" lon="-1.47546">
        <ele>56</ele>
        <time>2021-01-10T14:47:47.000Z</time>
      </trkpt>
      <trkpt lat="47.22008" lon="-1.47558">
        <ele>56</ele>
        <time>2021-01-10T14:47:49.000Z</time>
      </trkpt>
      <trkpt lat="47.21994" lon="-1.47571">
        <ele>55</ele>
        <time>2021-01-10T14:47:51.000Z</time>
      </trkpt>
      <trkpt lat="47.21981" lon="-1.47583">
        <ele>55</ele>
        <time>2021-01-10T14:47:53.000Z</time>
      </trkpt>
      <trkpt lat="47.21967" lon="-1.47596">
        <ele>55</ele>
        <time>2021-01-10T14:47:55.000Z</time>
      </trkpt>
      <trkpt lat="47.21954" lon="-1.47608">
        <ele>55</ele>
        <time>2021-01-10T14:47:57.000Z</time>
      </trkpt>
      <trkpt lat="47.21941" lon="-1.4762">
        <ele>55</ele>
        <time>2021-01-10T14:47:59.000Z</time>
      </trkpt>
      <trkpt lat="47.21928" lon="-1.47632">
        <ele>56</ele>
        <time>2021-01-10T14:48:01.000Z</time>
      </trkpt>
      <trkpt lat="47.21914" lon="-1.47643">
        <ele>55</ele>
        <time>2021-01-10T14:48:03.000Z</time>
      </trkpt>
      <trkpt lat="47.21901" lon="-1.47655">
        <ele>55</ele>
        <time>2021-01-10T14:48:05.000Z</time>
      </trkpt>
      <trkpt lat="47.21887" lon="-1.47666">
        <ele>55</ele>
        <time>2021-01-10T14:48:07.000Z</time>
      </trkpt>
      <trkpt lat="47.21873" lon="-1.47678">
        <ele>56</ele>
        <time>2021-01-10T14:48:09.000Z</time>
      </trkpt>
      <trkpt lat="47.21854" lon="-1.47695">
        <ele>56</ele>
        <time>2021-01-10T14:48:12.000Z</time>
      </trkpt>
      <trkpt lat="47.21843" lon="-1.47708">
        <ele>56</ele>
        <time>2021-01-10T14:48:14.000Z</time>
      </trkpt>
      <trkpt lat="47.2183" lon="-1.4772">
        <ele>57</ele>
        <time>2021-01-10T14:48:16.000Z</time>
      </trkpt>
      <trkpt lat="47.21817" lon="-1.4773">
        <ele>58</ele>
        <time>2021-01-10T14:48:18.000Z</time>
      </trkpt>
      <trkpt lat="47.21804" lon="-1.47741">
        <ele>58</ele>
        <time>2021-01-10T14:48:20.000Z</time>
      </trkpt>
      <trkpt lat="47.2179" lon="-1.47752">
        <ele>57</ele>
        <time>2021-01-10T14:48:22.000Z</time>
      </trkpt>
      <trkpt lat="47.21777" lon="-1.47762">
        <ele>56</ele>
        <time>2021-01-10T14:48:24.000Z</time>
      </trkpt>
      <trkpt lat="47.21764" lon="-1.47772">
        <ele>56</ele>
        <time>2021-01-10T14:48:26.000Z</time>
      </trkpt>
      <trkpt lat="47.21752" lon="-1.47782">
        <ele>56</ele>
        <time>2021-01-10T14:48:28.000Z</time>
      </trkpt>
      <trkpt lat="47.21741" lon="-1.47793">
        <ele>56</ele>
        <time>2021-01-10T14:48:30.000Z</time>
      </trkpt>
      <trkpt lat="47.21729" lon="-1.47804">
        <ele>55</ele>
        <time>2021-01-10T14:48:32.000Z</time>
      </trkpt>
      <trkpt lat="47.21716" lon="-1.47816">
        <ele>55</ele>
        <time>2021-01-10T14:48:34.000Z</time>
      </trkpt>
      <trkpt lat="47.21703" lon="-1.47825">
        <ele>55</ele>
        <time>2021-01-10T14:48:36.000Z</time>
      </trkpt>
      <trkpt lat="47.2169" lon="-1.47837">
        <ele>54</ele>
        <time>2021-01-10T14:48:38.000Z</time>
      </trkpt>
      <trkpt lat="47.21678" lon="-1.4785">
        <ele>54</ele>
        <time>2021-01-10T14:48:40.000Z</time>
      </trkpt>
      <trkpt lat="47.21665" lon="-1.47861">
        <ele>54</ele>
        <time>2021-01-10T14:48:42.000Z</time>
      </trkpt>
      <trkpt lat="47.21652" lon="-1.47873">
        <ele>54</ele>
        <time>2021-01-10T14:48:44.000Z</time>
      </trkpt>
      <trkpt lat="47.2164" lon="-1.47885">
        <ele>55</ele>
        <time>2021-01-10T14:48:46.000Z</time>
      </trkpt>
      <trkpt lat="47.21628" lon="-1.47897">
        <ele>57</ele>
        <time>2021-01-10T14:48:48.000Z</time>
      </trkpt>
      <trkpt lat="47.21615" lon="-1.47908">
        <ele>57</ele>
        <time>2021-01-10T14:48:50.000Z</time>
      </trkpt>
      <trkpt lat="47.21603" lon="-1.4792">
        <ele>58</ele>
        <time>2021-01-10T14:48:52.000Z</time>
      </trkpt>
      <trkpt lat="47.21591" lon="-1.47932">
        <ele>58</ele>
        <time>2021-01-10T14:48:54.000Z</time>
      </trkpt>
      <trkpt lat="47.21573" lon="-1.47949">
        <ele>58</ele>
        <time>2021-01-10T14:48:57.000Z</time>
      </trkpt>
      <trkpt lat="47.2156" lon="-1.47962">
        <ele>58</ele>
        <time>2021-01-10T14:48:59.000Z</time>
      </trkpt>
      <trkpt lat="47.21548" lon="-1.47973">
        <ele>58</ele>
        <time>2021-01-10T14:49:01.000Z</time>
      </trkpt>
      <trkpt lat="47.21535" lon="-1.47982">
        <ele>58</ele>
        <time>2021-01-10T14:49:03.000Z</time>
      </trkpt>
      <trkpt lat="47.21524" lon="-1.47995">
        <ele>57</ele>
        <time>2021-01-10T14:49:05.000Z</time>
      </trkpt>
      <trkpt lat="47.21512" lon="-1.48012">
        <ele>56</ele>
        <time>2021-01-10T14:49:07.000Z</time>
      </trkpt>
      <trkpt lat="47.21498" lon="-1.48028">
        <ele>57</ele>
        <time>2021-01-10T14:49:09.000Z</time>
      </trkpt>
      <trkpt lat="47.21484" lon="-1.48042">
        <ele>57</ele>
        <time>2021-01-10T14:49:11.000Z</time>
      </trkpt>
      <trkpt lat="47.21472" lon="-1.48061">
        <ele>57</ele>
        <time>2021-01-10T14:49:13.000Z</time>
      </trkpt>
      <trkpt lat="47.21458" lon="-1.4808">
        <ele>57</ele>
        <time>2021-01-10T14:49:15.000Z</time>
      </trkpt>
      <trkpt lat="47.21447" lon="-1.481">
        <ele>58</ele>
        <time>2021-01-10T14:49:17.000Z</time>
      </trkpt>
      <trkpt lat="47.21441" lon="-1.4811">
        <ele>58</ele>
        <time>2021-01-10T14:49:18.000Z</time>
      </trkpt>
      <trkpt lat="47.2143" lon="-1.4813">
        <ele>57</ele>
        <time>2021-01-10T14:49:20.000Z</time>
      </trkpt>
      <trkpt lat="47.21424" lon="-1.48141">
        <ele>57</ele>
        <time>2021-01-10T14:49:21.000Z</time>
      </trkpt>
      <trkpt lat="47.21414" lon="-1.4816">
        <ele>57</ele>
        <time>2021-01-10T14:49:23.000Z</time>
      </trkpt>
      <trkpt lat="47.21402" lon="-1.48181">
        <ele>58</ele>
        <time>2021-01-10T14:49:25.000Z</time>
      </trkpt>
      <trkpt lat="47.21393" lon="-1.48201">
        <ele>57</ele>
        <time>2021-01-10T14:49:27.000Z</time>
      </trkpt>
      <trkpt lat="47.21384" lon="-1.48221">
        <ele>57</ele>
        <time>2021-01-10T14:49:29.000Z</time>
      </trkpt>
      <trkpt lat="47.21376" lon="-1.48242">
        <ele>57</ele>
        <time>2021-01-10T14:49:31.000Z</time>
      </trkpt>
      <trkpt lat="47.21369" lon="-1.48262">
        <ele>56</ele>
        <time>2021-01-10T14:49:33.000Z</time>
      </trkpt>
      <trkpt lat="47.21362" lon="-1.48283">
        <ele>57</ele>
        <time>2021-01-10T14:49:35.000Z</time>
      </trkpt>
      <trkpt lat="47.21356" lon="-1.48303">
        <ele>57</ele>
        <time>2021-01-10T14:49:37.000Z</time>
      </trkpt>
      <trkpt lat="47.21349" lon="-1.48322">
        <ele>57</ele>
        <time>2021-01-10T14:49:39.000Z</time>
      </trkpt>
      <trkpt lat="47.21342" lon="-1.48342">
        <ele>57</ele>
        <time>2021-01-10T14:49:41.000Z</time>
      </trkpt>
      <trkpt lat="47.21334" lon="-1.48362">
        <ele>57</ele>
        <time>2021-01-10T14:49:43.000Z</time>
      </trkpt>
      <trkpt lat="47.21328" lon="-1.48384">
        <ele>57</ele>
        <time>2021-01-10T14:49:45.000Z</time>
      </trkpt>
      <trkpt lat="47.21319" lon="-1.48416">
        <ele>57</ele>
        <time>2021-01-10T14:49:48.000Z</time>
      </trkpt>
      <trkpt lat="47.21313" lon="-1.48437">
        <ele>56</ele>
        <time>2021-01-10T14:49:50.000Z</time>
      </trkpt>
      <trkpt lat="47.21307" lon="-1.48458">
        <ele>56</ele>
        <time>2021-01-10T14:49:52.000Z</time>
      </trkpt>
      <trkpt lat="47.21304" lon="-1.48479">
        <ele>56</ele>
        <time>2021-01-10T14:49:54.000Z</time>
      </trkpt>
      <trkpt lat="47.213" lon="-1.48501">
        <ele>56</ele>
        <time>2021-01-10T14:49:56.000Z</time>
      </trkpt>
      <trkpt lat="47.21292" lon="-1.48518">
        <ele>56</ele>
        <time>2021-01-10T14:49:58.000Z</time>
      </trkpt>
      <trkpt lat="47.21278" lon="-1.48523">
        <ele>56</ele>
        <time>2021-01-10T14:50:00.000Z</time>
      </trkpt>
      <trkpt lat="47.21268" lon="-1.48533">
        <ele>55</ele>
        <time>2021-01-10T14:50:02.000Z</time>
      </trkpt>
      <trkpt lat="47.21263" lon="-1.48552">
        <ele>55</ele>
        <time>2021-01-10T14:50:04.000Z</time>
      </trkpt>
      <trkpt lat="47.21257" lon="-1.48573">
        <ele>55</ele>
        <time>2021-01-10T14:50:06.000Z</time>
      </trkpt>
      <trkpt lat="47.21253" lon="-1.48593">
        <ele>55</ele>
        <time>2021-01-10T14:50:08.000Z</time>
      </trkpt>
      <trkpt lat="47.21248" lon="-1.48613">
        <ele>55</ele>
        <time>2021-01-10T14:50:10.000Z</time>
      </trkpt>
      <trkpt lat="47.21242" lon="-1.48633">
        <ele>55</ele>
        <time>2021-01-10T14:50:12.000Z</time>
      </trkpt>
      <trkpt lat="47.21236" lon="-1.48653">
        <ele>55</ele>
        <time>2021-01-10T14:50:14.000Z</time>
      </trkpt>
      <trkpt lat="47.21231" lon="-1.48673">
        <ele>55</ele>
        <time>2021-01-10T14:50:16.000Z</time>
      </trkpt>
      <trkpt lat="47.21225" lon="-1.48693">
        <ele>55</ele>
        <time>2021-01-10T14:50:18.000Z</time>
      </trkpt>
      <trkpt lat="47.2122" lon="-1.48712">
        <ele>55</ele>
        <time>2021-01-10T14:50:20.000Z</time>
      </trkpt>
      <trkpt lat="47.21215" lon="-1.48732">
        <ele>57</ele>
        <time>2021-01-10T14:50:22.000Z</time>
      </trkpt>
      <trkpt lat="47.21211" lon="-1.48752">
        <ele>57</ele>
        <time>2021-01-10T14:50:24.000Z</time>
      </trkpt>
      <trkpt lat="47.21204" lon="-1.48782">
        <ele>58</ele>
        <time>2021-01-10T14:50:27.000Z</time>
      </trkpt>
      <trkpt lat="47.21201" lon="-1.48802">
        <ele>58</ele>
        <time>2021-01-10T14:50:29.000Z</time>
      </trkpt>
      <trkpt lat="47.21198" lon="-1.4882">
        <ele>58</ele>
        <time>2021-01-10T14:50:31.000Z</time>
      </trkpt>
      <trkpt lat="47.21193" lon="-1.48838">
        <ele>58</ele>
        <time>2021-01-10T14:50:33.000Z</time>
      </trkpt>
      <trkpt lat="47.21189" lon="-1.48855">
        <ele>58</ele>
        <time>2021-01-10T14:50:35.000Z</time>
      </trkpt>
      <trkpt lat="47.21189" lon="-1.48875">
        <ele>57</ele>
        <time>2021-01-10T14:50:37.000Z</time>
      </trkpt>
      <trkpt lat="47.21184" lon="-1.48901">
        <ele>56</ele>
        <time>2021-01-10T14:50:40.000Z</time>
      </trkpt>
      <trkpt lat="47.21175" lon="-1.48924">
        <ele>56</ele>
        <time>2021-01-10T14:50:43.000Z</time>
      </trkpt>
      <trkpt lat="47.2117" lon="-1.48944">
        <ele>57</ele>
        <time>2021-01-10T14:50:45.000Z</time>
      </trkpt>
      <trkpt lat="47.21166" lon="-1.48963">
        <ele>57</ele>
        <time>2021-01-10T14:50:47.000Z</time>
      </trkpt>
      <trkpt lat="47.21163" lon="-1.48982">
        <ele>57</ele>
        <time>2021-01-10T14:50:49.000Z</time>
      </trkpt>
      <trkpt lat="47.2116" lon="-1.49002">
        <ele>57</ele>
        <time>2021-01-10T14:50:51.000Z</time>
      </trkpt>
      <trkpt lat="47.21157" lon="-1.49022">
        <ele>56</ele>
        <time>2021-01-10T14:50:53.000Z</time>
      </trkpt>
      <trkpt lat="47.21155" lon="-1.49041">
        <ele>55</ele>
        <time>2021-01-10T14:50:55.000Z</time>
      </trkpt>
      <trkpt lat="47.21156" lon="-1.49059">
        <ele>55</ele>
        <time>2021-01-10T14:50:57.000Z</time>
      </trkpt>
      <trkpt lat="47.21161" lon="-1.49077">
        <ele>55</ele>
        <time>2021-01-10T14:50:59.000Z</time>
      </trkpt>
      <trkpt lat="47.2116" lon="-1.49097">
        <ele>55</ele>
        <time>2021-01-10T14:51:01.000Z</time>
      </trkpt>
      <trkpt lat="47.21154" lon="-1.49113">
        <ele>56</ele>
        <time>2021-01-10T14:51:03.000Z</time>
      </trkpt>
      <trkpt lat="47.2115" lon="-1.49129">
        <ele>56</ele>
        <time>2021-01-10T14:51:05.000Z</time>
      </trkpt>
      <trkpt lat="47.21148" lon="-1.49149">
        <ele>56</ele>
        <time>2021-01-10T14:51:07.000Z</time>
      </trkpt>
      <trkpt lat="47.21146" lon="-1.49168">
        <ele>56</ele>
        <time>2021-01-10T14:51:09.000Z</time>
      </trkpt>
      <trkpt lat="47.21143" lon="-1.49188">
        <ele>55</ele>
        <time>2021-01-10T14:51:11.000Z</time>
      </trkpt>
      <trkpt lat="47.21141" lon="-1.49208">
        <ele>56</ele>
        <time>2021-01-10T14:51:13.000Z</time>
      </trkpt>
      <trkpt lat="47.21139" lon="-1.49237">
        <ele>55</ele>
        <time>2021-01-10T14:51:16.000Z</time>
      </trkpt>
      <trkpt lat="47.21137" lon="-1.49257">
        <ele>55</ele>
        <time>2021-01-10T14:51:18.000Z</time>
      </trkpt>
      <trkpt lat="47.21136" lon="-1.49277">
        <ele>55</ele>
        <time>2021-01-10T14:51:20.000Z</time>
      </trkpt>
      <trkpt lat="47.21135" lon="-1.49297">
        <ele>55</ele>
        <time>2021-01-10T14:51:22.000Z</time>
      </trkpt>
      <trkpt lat="47.21135" lon="-1.49317">
        <ele>55</ele>
        <time>2021-01-10T14:51:24.000Z</time>
      </trkpt>
      <trkpt lat="47.21133" lon="-1.49337">
        <ele>55</ele>
        <time>2021-01-10T14:51:26.000Z</time>
      </trkpt>
      <trkpt lat="47.21132" lon="-1.49366">
        <ele>55</ele>
        <time>2021-01-10T14:51:29.000Z</time>
      </trkpt>
      <trkpt lat="47.21131" lon="-1.49385">
        <ele>55</ele>
        <time>2021-01-10T14:51:31.000Z</time>
      </trkpt>
      <trkpt lat="47.21131" lon="-1.49406">
        <ele>55</ele>
        <time>2021-01-10T14:51:33.000Z</time>
      </trkpt>
      <trkpt lat="47.21131" lon="-1.49426">
        <ele>55</ele>
        <time>2021-01-10T14:51:35.000Z</time>
      </trkpt>
      <trkpt lat="47.2113" lon="-1.49445">
        <ele>56</ele>
        <time>2021-01-10T14:51:37.000Z</time>
      </trkpt>
      <trkpt lat="47.21129" lon="-1.49464">
        <ele>57</ele>
        <time>2021-01-10T14:51:39.000Z</time>
      </trkpt>
      <trkpt lat="47.21128" lon="-1.49492">
        <ele>57</ele>
        <time>2021-01-10T14:51:42.000Z</time>
      </trkpt>
      <trkpt lat="47.21127" lon="-1.49509">
        <ele>57</ele>
        <time>2021-01-10T14:51:44.000Z</time>
      </trkpt>
      <trkpt lat="47.21128" lon="-1.49527">
        <ele>56</ele>
        <time>2021-01-10T14:51:46.000Z</time>
      </trkpt>
      <trkpt lat="47.2113" lon="-1.49545">
        <ele>55</ele>
        <time>2021-01-10T14:51:48.000Z</time>
      </trkpt>
      <trkpt lat="47.21134" lon="-1.49561">
        <ele>54</ele>
        <time>2021-01-10T14:51:50.000Z</time>
      </trkpt>
      <trkpt lat="47.21138" lon="-1.49579">
        <ele>54</ele>
        <time>2021-01-10T14:51:52.000Z</time>
      </trkpt>
      <trkpt lat="47.21134" lon="-1.49596">
        <ele>54</ele>
        <time>2021-01-10T14:51:54.000Z</time>
      </trkpt>
      <trkpt lat="47.21125" lon="-1.49611">
        <ele>54</ele>
        <time>2021-01-10T14:51:56.000Z</time>
      </trkpt>
      <trkpt lat="47.21122" lon="-1.49631">
        <ele>54</ele>
        <time>2021-01-10T14:51:58.000Z</time>
      </trkpt>
      <trkpt lat="47.21122" lon="-1.49649">
        <ele>54</ele>
        <time>2021-01-10T14:52:00.000Z</time>
      </trkpt>
      <trkpt lat="47.21121" lon="-1.49671">
        <ele>54</ele>
        <time>2021-01-10T14:52:02.000Z</time>
      </trkpt>
      <trkpt lat="47.21119" lon="-1.49692">
        <ele>54</ele>
        <time>2021-01-10T14:52:04.000Z</time>
      </trkpt>
      <trkpt lat="47.21118" lon="-1.49712">
        <ele>54</ele>
        <time>2021-01-10T14:52:06.000Z</time>
      </trkpt>
      <trkpt lat="47.21116" lon="-1.49732">
        <ele>54</ele>
        <time>2021-01-10T14:52:08.000Z</time>
      </trkpt>
      <trkpt lat="47.21114" lon="-1.49752">
        <ele>54</ele>
        <time>2021-01-10T14:52:10.000Z</time>
      </trkpt>
      <trkpt lat="47.21112" lon="-1.49774">
        <ele>54</ele>
        <time>2021-01-10T14:52:12.000Z</time>
      </trkpt>
      <trkpt lat="47.2111" lon="-1.49796">
        <ele>54</ele>
        <time>2021-01-10T14:52:14.000Z</time>
      </trkpt>
      <trkpt lat="47.21107" lon="-1.49817">
        <ele>54</ele>
        <time>2021-01-10T14:52:16.000Z</time>
      </trkpt>
      <trkpt lat="47.21104" lon="-1.49837">
        <ele>55</ele>
        <time>2021-01-10T14:52:18.000Z</time>
      </trkpt>
      <trkpt lat="47.211" lon="-1.49855">
        <ele>55</ele>
        <time>2021-01-10T14:52:20.000Z</time>
      </trkpt>
      <trkpt lat="47.21098" lon="-1.49872">
        <ele>54</ele>
        <time>2021-01-10T14:52:22.000Z</time>
      </trkpt>
      <trkpt lat="47.21094" lon="-1.4989">
        <ele>55</ele>
        <time>2021-01-10T14:52:24.000Z</time>
      </trkpt>
      <trkpt lat="47.21089" lon="-1.49907">
        <ele>55</ele>
        <time>2021-01-10T14:52:26.000Z</time>
      </trkpt>
      <trkpt lat="47.21083" lon="-1.49926">
        <ele>55</ele>
        <time>2021-01-10T14:52:28.000Z</time>
      </trkpt>
      <trkpt lat="47.21078" lon="-1.49946">
        <ele>56</ele>
        <time>2021-01-10T14:52:30.000Z</time>
      </trkpt>
      <trkpt lat="47.21073" lon="-1.49966">
        <ele>55</ele>
        <time>2021-01-10T14:52:32.000Z</time>
      </trkpt>
      <trkpt lat="47.21067" lon="-1.49985">
        <ele>56</ele>
        <time>2021-01-10T14:52:34.000Z</time>
      </trkpt>
      <trkpt lat="47.21063" lon="-1.50005">
        <ele>56</ele>
        <time>2021-01-10T14:52:36.000Z</time>
      </trkpt>
      <trkpt lat="47.21058" lon="-1.50023">
        <ele>56</ele>
        <time>2021-01-10T14:52:38.000Z</time>
      </trkpt>
      <trkpt lat="47.21054" lon="-1.50043">
        <ele>57</ele>
        <time>2021-01-10T14:52:40.000Z</time>
      </trkpt>
      <trkpt lat="47.21049" lon="-1.50061">
        <ele>57</ele>
        <time>2021-01-10T14:52:42.000Z</time>
      </trkpt>
      <trkpt lat="47.21044" lon="-1.50079">
        <ele>57</ele>
        <time>2021-01-10T14:52:44.000Z</time>
      </trkpt>
      <trkpt lat="47.2104" lon="-1.50098">
        <ele>57</ele>
        <time>2021-01-10T14:52:46.000Z</time>
      </trkpt>
      <trkpt lat="47.21036" lon="-1.50116">
        <ele>57</ele>
        <time>2021-01-10T14:52:48.000Z</time>
      </trkpt>
      <trkpt lat="47.21031" lon="-1.50135">
        <ele>57</ele>
        <time>2021-01-10T14:52:50.000Z</time>
      </trkpt>
      <trkpt lat="47.21026" lon="-1.50154">
        <ele>56</ele>
        <time>2021-01-10T14:52:52.000Z</time>
      </trkpt>
      <trkpt lat="47.21021" lon="-1.50173">
        <ele>56</ele>
        <time>2021-01-10T14:52:54.000Z</time>
      </trkpt>
      <trkpt lat="47.21018" lon="-1.50191">
        <ele>55</ele>
        <time>2021-01-10T14:52:56.000Z</time>
      </trkpt>
      <trkpt lat="47.21015" lon="-1.50208">
        <ele>55</ele>
        <time>2021-01-10T14:52:58.000Z</time>
      </trkpt>
      <trkpt lat="47.21018" lon="-1.50225">
        <ele>54</ele>
        <time>2021-01-10T14:53:00.000Z</time>
      </trkpt>
      <trkpt lat="47.21018" lon="-1.50242">
        <ele>54</ele>
        <time>2021-01-10T14:53:02.000Z</time>
      </trkpt>
      <trkpt lat="47.2101" lon="-1.50256">
        <ele>54</ele>
        <time>2021-01-10T14:53:04.000Z</time>
      </trkpt>
      <trkpt lat="47.21005" lon="-1.50271">
        <ele>54</ele>
        <time>2021-01-10T14:53:06.000Z</time>
      </trkpt>
      <trkpt lat="47.21003" lon="-1.5029">
        <ele>54</ele>
        <time>2021-01-10T14:53:08.000Z</time>
      </trkpt>
      <trkpt lat="47.21001" lon="-1.50311">
        <ele>54</ele>
        <time>2021-01-10T14:53:10.000Z</time>
      </trkpt>
      <trkpt lat="47.21" lon="-1.50333">
        <ele>53</ele>
        <time>2021-01-10T14:53:12.000Z</time>
      </trkpt>
      <trkpt lat="47.21" lon="-1.50355">
        <ele>53</ele>
        <time>2021-01-10T14:53:14.000Z</time>
      </trkpt>
      <trkpt lat="47.20999" lon="-1.50377">
        <ele>52</ele>
        <time>2021-01-10T14:53:16.000Z</time>
      </trkpt>
      <trkpt lat="47.21" lon="-1.50397">
        <ele>52</ele>
        <time>2021-01-10T14:53:18.000Z</time>
      </trkpt>
      <trkpt lat="47.21" lon="-1.50417">
        <ele>52</ele>
        <time>2021-01-10T14:53:20.000Z</time>
      </trkpt>
      <trkpt lat="47.21001" lon="-1.50437">
        <ele>52</ele>
        <time>2021-01-10T14:53:22.000Z</time>
      </trkpt>
      <trkpt lat="47.21001" lon="-1.50458">
        <ele>52</ele>
        <time>2021-01-10T14:53:24.000Z</time>
      </trkpt>
      <trkpt lat="47.21001" lon="-1.50478">
        <ele>52</ele>
        <time>2021-01-10T14:53:26.000Z</time>
      </trkpt>
      <trkpt lat="47.21002" lon="-1.50498">
        <ele>52</ele>
        <time>2021-01-10T14:53:28.000Z</time>
      </trkpt>
      <trkpt lat="47.21002" lon="-1.50518">
        <ele>52</ele>
        <time>2021-01-10T14:53:30.000Z</time>
      </trkpt>
      <trkpt lat="47.21002" lon="-1.50539">
        <ele>52</ele>
        <time>2021-01-10T14:53:32.000Z</time>
      </trkpt>
      <trkpt lat="47.21003" lon="-1.50559">
        <ele>52</ele>
        <time>2021-01-10T14:53:34.000Z</time>
      </trkpt>
      <trkpt lat="47.21003" lon="-1.50579">
        <ele>52</ele>
        <time>2021-01-10T14:53:36.000Z</time>
      </trkpt>
      <trkpt lat="47.21002" lon="-1.506">
        <ele>51</ele>
        <time>2021-01-10T14:53:38.000Z</time>
      </trkpt>
      <trkpt lat="47.21002" lon="-1.50621">
        <ele>51</ele>
        <time>2021-01-10T14:53:40.000Z</time>
      </trkpt>
      <trkpt lat="47.21002" lon="-1.50641">
        <ele>51</ele>
        <time>2021-01-10T14:53:42.000Z</time>
      </trkpt>
      <trkpt lat="47.20999" lon="-1.50661">
        <ele>51</ele>
        <time>2021-01-10T14:53:44.000Z</time>
      </trkpt>
      <trkpt lat="47.20998" lon="-1.50681">
        <ele>51</ele>
        <time>2021-01-10T14:53:46.000Z</time>
      </trkpt>
      <trkpt lat="47.20997" lon="-1.50702">
        <ele>52</ele>
        <time>2021-01-10T14:53:48.000Z</time>
      </trkpt>
      <trkpt lat="47.20996" lon="-1.50722">
        <ele>52</ele>
        <time>2021-01-10T14:53:50.000Z</time>
      </trkpt>
      <trkpt lat="47.20995" lon="-1.50742">
        <ele>52</ele>
        <time>2021-01-10T14:53:52.000Z</time>
      </trkpt>
      <trkpt lat="47.20992" lon="-1.50761">
        <ele>52</ele>
        <time>2021-01-10T14:53:54.000Z</time>
      </trkpt>
      <trkpt lat="47.2099" lon="-1.5078">
        <ele>52</ele>
        <time>2021-01-10T14:53:56.000Z</time>
      </trkpt>
      <trkpt lat="47.20988" lon="-1.508">
        <ele>52</ele>
        <time>2021-01-10T14:53:58.000Z</time>
      </trkpt>
      <trkpt lat="47.20985" lon="-1.5082">
        <ele>52</ele>
        <time>2021-01-10T14:54:00.000Z</time>
      </trkpt>
      <trkpt lat="47.20983" lon="-1.5084">
        <ele>52</ele>
        <time>2021-01-10T14:54:02.000Z</time>
      </trkpt>
      <trkpt lat="47.20981" lon="-1.50859">
        <ele>53</ele>
        <time>2021-01-10T14:54:04.000Z</time>
      </trkpt>
      <trkpt lat="47.20979" lon="-1.50876">
        <ele>53</ele>
        <time>2021-01-10T14:54:06.000Z</time>
      </trkpt>
      <trkpt lat="47.20978" lon="-1.50892">
        <ele>54</ele>
        <time>2021-01-10T14:54:08.000Z</time>
      </trkpt>
      <trkpt lat="47.20976" lon="-1.50909">
        <ele>54</ele>
        <time>2021-01-10T14:54:11.000Z</time>
      </trkpt>
      <trkpt lat="47.20974" lon="-1.50924">
        <ele>55</ele>
        <time>2021-01-10T14:54:14.000Z</time>
      </trkpt>
      <trkpt lat="47.20972" lon="-1.5094">
        <ele>55</ele>
        <time>2021-01-10T14:54:17.000Z</time>
      </trkpt>
      <trkpt lat="47.20971" lon="-1.50954">
        <ele>55</ele>
        <time>2021-01-10T14:54:19.000Z</time>
      </trkpt>
      <trkpt lat="47.20969" lon="-1.50969">
        <ele>55</ele>
        <time>2021-01-10T14:54:21.000Z</time>
      </trkpt>
      <trkpt lat="47.20967" lon="-1.50985">
        <ele>55</ele>
        <time>2021-01-10T14:54:23.000Z</time>
      </trkpt>
      <trkpt lat="47.20963" lon="-1.51002">
        <ele>55</ele>
        <time>2021-01-10T14:54:25.000Z</time>
      </trkpt>
      <trkpt lat="47.20958" lon="-1.51019">
        <ele>56</ele>
        <time>2021-01-10T14:54:27.000Z</time>
      </trkpt>
      <trkpt lat="47.20954" lon="-1.51038">
        <ele>56</ele>
        <time>2021-01-10T14:54:29.000Z</time>
      </trkpt>
      <trkpt lat="47.20952" lon="-1.51058">
        <ele>56</ele>
        <time>2021-01-10T14:54:31.000Z</time>
      </trkpt>
      <trkpt lat="47.20948" lon="-1.51078">
        <ele>55</ele>
        <time>2021-01-10T14:54:33.000Z</time>
      </trkpt>
      <trkpt lat="47.20942" lon="-1.51097">
        <ele>55</ele>
        <time>2021-01-10T14:54:35.000Z</time>
      </trkpt>
      <trkpt lat="47.20937" lon="-1.51116">
        <ele>55</ele>
        <time>2021-01-10T14:54:37.000Z</time>
      </trkpt>
      <trkpt lat="47.20933" lon="-1.51131">
        <ele>55</ele>
        <time>2021-01-10T14:54:39.000Z</time>
      </trkpt>
      <trkpt lat="47.20931" lon="-1.51147">
        <ele>55</ele>
        <time>2021-01-10T14:54:42.000Z</time>
      </trkpt>
      <trkpt lat="47.20925" lon="-1.51164">
        <ele>56</ele>
        <time>2021-01-10T14:54:45.000Z</time>
      </trkpt>
      <trkpt lat="47.20922" lon="-1.51176">
        <ele>56</ele>
        <time>2021-01-10T14:54:47.000Z</time>
      </trkpt>
      <trkpt lat="47.20916" lon="-1.51192">
        <ele>56</ele>
        <time>2021-01-10T14:54:50.000Z</time>
      </trkpt>
      <trkpt lat="47.20909" lon="-1.51208">
        <ele>55</ele>
        <time>2021-01-10T14:54:53.000Z</time>
      </trkpt>
      <trkpt lat="47.20903" lon="-1.51225">
        <ele>55</ele>
        <time>2021-01-10T14:54:56.000Z</time>
      </trkpt>
      <trkpt lat="47.20899" lon="-1.51237">
        <ele>54</ele>
        <time>2021-01-10T14:54:58.000Z</time>
      </trkpt>
      <trkpt lat="47.20894" lon="-1.5125">
        <ele>55</ele>
        <time>2021-01-10T14:55:00.000Z</time>
      </trkpt>
      <trkpt lat="47.20888" lon="-1.51265">
        <ele>55</ele>
        <time>2021-01-10T14:55:02.000Z</time>
      </trkpt>
      <trkpt lat="47.20881" lon="-1.51281">
        <ele>54</ele>
        <time>2021-01-10T14:55:04.000Z</time>
      </trkpt>
      <trkpt lat="47.20873" lon="-1.51298">
        <ele>53</ele>
        <time>2021-01-10T14:55:06.000Z</time>
      </trkpt>
      <trkpt lat="47.20864" lon="-1.51314">
        <ele>53</ele>
        <time>2021-01-10T14:55:08.000Z</time>
      </trkpt>
      <trkpt lat="47.20858" lon="-1.51331">
        <ele>53</ele>
        <time>2021-01-10T14:55:10.000Z</time>
      </trkpt>
      <trkpt lat="47.20852" lon="-1.51343">
        <ele>53</ele>
        <time>2021-01-10T14:55:12.000Z</time>
      </trkpt>
      <trkpt lat="47.20845" lon="-1.5135">
        <ele>53</ele>
        <time>2021-01-10T14:55:16.000Z</time>
      </trkpt>
      <trkpt lat="47.20841" lon="-1.51369">
        <ele>53</ele>
        <time>2021-01-10T14:55:19.000Z</time>
      </trkpt>
      <trkpt lat="47.20836" lon="-1.51386">
        <ele>54</ele>
        <time>2021-01-10T14:55:21.000Z</time>
      </trkpt>
      <trkpt lat="47.20832" lon="-1.51406">
        <ele>54</ele>
        <time>2021-01-10T14:55:23.000Z</time>
      </trkpt>
      <trkpt lat="47.20828" lon="-1.51427">
        <ele>54</ele>
        <time>2021-01-10T14:55:25.000Z</time>
      </trkpt>
      <trkpt lat="47.20825" lon="-1.51448">
        <ele>54</ele>
        <time>2021-01-10T14:55:27.000Z</time>
      </trkpt>
      <trkpt lat="47.20822" lon="-1.5147">
        <ele>55</ele>
        <time>2021-01-10T14:55:29.000Z</time>
      </trkpt>
      <trkpt lat="47.20818" lon="-1.51492">
        <ele>55</ele>
        <time>2021-01-10T14:55:31.000Z</time>
      </trkpt>
      <trkpt lat="47.20813" lon="-1.51513">
        <ele>55</ele>
        <time>2021-01-10T14:55:33.000Z</time>
      </trkpt>
      <trkpt lat="47.20809" lon="-1.51534">
        <ele>55</ele>
        <time>2021-01-10T14:55:35.000Z</time>
      </trkpt>
      <trkpt lat="47.20807" lon="-1.51555">
        <ele>55</ele>
        <time>2021-01-10T14:55:37.000Z</time>
      </trkpt>
      <trkpt lat="47.20806" lon="-1.51576">
        <ele>55</ele>
        <time>2021-01-10T14:55:39.000Z</time>
      </trkpt>
      <trkpt lat="47.20804" lon="-1.51599">
        <ele>55</ele>
        <time>2021-01-10T14:55:41.000Z</time>
      </trkpt>
      <trkpt lat="47.20803" lon="-1.5162">
        <ele>56</ele>
        <time>2021-01-10T14:55:43.000Z</time>
      </trkpt>
      <trkpt lat="47.20799" lon="-1.51641">
        <ele>56</ele>
        <time>2021-01-10T14:55:45.000Z</time>
      </trkpt>
      <trkpt lat="47.20795" lon="-1.51662">
        <ele>55</ele>
        <time>2021-01-10T14:55:47.000Z</time>
      </trkpt>
      <trkpt lat="47.2079" lon="-1.51684">
        <ele>55</ele>
        <time>2021-01-10T14:55:49.000Z</time>
      </trkpt>
      <trkpt lat="47.20786" lon="-1.51706">
        <ele>55</ele>
        <time>2021-01-10T14:55:51.000Z</time>
      </trkpt>
      <trkpt lat="47.20782" lon="-1.51727">
        <ele>55</ele>
        <time>2021-01-10T14:55:53.000Z</time>
      </trkpt>
      <trkpt lat="47.20776" lon="-1.51747">
        <ele>55</ele>
        <time>2021-01-10T14:55:55.000Z</time>
      </trkpt>
      <trkpt lat="47.2077" lon="-1.51767">
        <ele>55</ele>
        <time>2021-01-10T14:55:57.000Z</time>
      </trkpt>
      <trkpt lat="47.20763" lon="-1.51787">
        <ele>55</ele>
        <time>2021-01-10T14:55:59.000Z</time>
      </trkpt>
      <trkpt lat="47.20758" lon="-1.51807">
        <ele>55</ele>
        <time>2021-01-10T14:56:01.000Z</time>
      </trkpt>
      <trkpt lat="47.20755" lon="-1.51826">
        <ele>55</ele>
        <time>2021-01-10T14:56:03.000Z</time>
      </trkpt>
      <trkpt lat="47.20749" lon="-1.51845">
        <ele>55</ele>
        <time>2021-01-10T14:56:05.000Z</time>
      </trkpt>
      <trkpt lat="47.20742" lon="-1.51865">
        <ele>55</ele>
        <time>2021-01-10T14:56:07.000Z</time>
      </trkpt>
      <trkpt lat="47.20735" lon="-1.51885">
        <ele>55</ele>
        <time>2021-01-10T14:56:09.000Z</time>
      </trkpt>
      <trkpt lat="47.20727" lon="-1.51905">
        <ele>55</ele>
        <time>2021-01-10T14:56:11.000Z</time>
      </trkpt>
      <trkpt lat="47.20718" lon="-1.51925">
        <ele>55</ele>
        <time>2021-01-10T14:56:13.000Z</time>
      </trkpt>
      <trkpt lat="47.20708" lon="-1.51943">
        <ele>55</ele>
        <time>2021-01-10T14:56:15.000Z</time>
      </trkpt>
      <trkpt lat="47.20699" lon="-1.51961">
        <ele>55</ele>
        <time>2021-01-10T14:56:17.000Z</time>
      </trkpt>
      <trkpt lat="47.20689" lon="-1.51978">
        <ele>56</ele>
        <time>2021-01-10T14:56:19.000Z</time>
      </trkpt>
      <trkpt lat="47.20679" lon="-1.51995">
        <ele>55</ele>
        <time>2021-01-10T14:56:21.000Z</time>
      </trkpt>
      <trkpt lat="47.2067" lon="-1.52012">
        <ele>55</ele>
        <time>2021-01-10T14:56:23.000Z</time>
      </trkpt>
      <trkpt lat="47.20661" lon="-1.5203">
        <ele>55</ele>
        <time>2021-01-10T14:56:25.000Z</time>
      </trkpt>
      <trkpt lat="47.20651" lon="-1.52045">
        <ele>55</ele>
        <time>2021-01-10T14:56:27.000Z</time>
      </trkpt>
      <trkpt lat="47.20639" lon="-1.5206">
        <ele>55</ele>
        <time>2021-01-10T14:56:29.000Z</time>
      </trkpt>
      <trkpt lat="47.20629" lon="-1.52076">
        <ele>54</ele>
        <time>2021-01-10T14:56:31.000Z</time>
      </trkpt>
      <trkpt lat="47.20619" lon="-1.52094">
        <ele>54</ele>
        <time>2021-01-10T14:56:33.000Z</time>
      </trkpt>
      <trkpt lat="47.20609" lon="-1.52112">
        <ele>53</ele>
        <time>2021-01-10T14:56:35.000Z</time>
      </trkpt>
      <trkpt lat="47.20598" lon="-1.5213">
        <ele>53</ele>
        <time>2021-01-10T14:56:37.000Z</time>
      </trkpt>
      <trkpt lat="47.20588" lon="-1.5215">
        <ele>53</ele>
        <time>2021-01-10T14:56:39.000Z</time>
      </trkpt>
      <trkpt lat="47.20577" lon="-1.52168">
        <ele>53</ele>
        <time>2021-01-10T14:56:41.000Z</time>
      </trkpt>
      <trkpt lat="47.20568" lon="-1.52186">
        <ele>53</ele>
        <time>2021-01-10T14:56:43.000Z</time>
      </trkpt>
      <trkpt lat="47.20557" lon="-1.52205">
        <ele>54</ele>
        <time>2021-01-10T14:56:45.000Z</time>
      </trkpt>
      <trkpt lat="47.20547" lon="-1.52222">
        <ele>54</ele>
        <time>2021-01-10T14:56:47.000Z</time>
      </trkpt>
      <trkpt lat="47.20537" lon="-1.52241">
        <ele>54</ele>
        <time>2021-01-10T14:56:49.000Z</time>
      </trkpt>
      <trkpt lat="47.20526" lon="-1.52259">
        <ele>54</ele>
        <time>2021-01-10T14:56:51.000Z</time>
      </trkpt>
      <trkpt lat="47.20517" lon="-1.52276">
        <ele>54</ele>
        <time>2021-01-10T14:56:53.000Z</time>
      </trkpt>
      <trkpt lat="47.20509" lon="-1.52294">
        <ele>54</ele>
        <time>2021-01-10T14:56:55.000Z</time>
      </trkpt>
      <trkpt lat="47.20503" lon="-1.52314">
        <ele>54</ele>
        <time>2021-01-10T14:56:57.000Z</time>
      </trkpt>
      <trkpt lat="47.20499" lon="-1.52334">
        <ele>55</ele>
        <time>2021-01-10T14:56:59.000Z</time>
      </trkpt>
      <trkpt lat="47.20497" lon="-1.52349">
        <ele>55</ele>
        <time>2021-01-10T14:57:01.000Z</time>
      </trkpt>
      <trkpt lat="47.20495" lon="-1.52362">
        <ele>56</ele>
        <time>2021-01-10T14:57:05.000Z</time>
      </trkpt>
      <trkpt lat="47.20489" lon="-1.52375">
        <ele>56</ele>
        <time>2021-01-10T14:57:09.000Z</time>
      </trkpt>
      <trkpt lat="47.20482" lon="-1.5239">
        <ele>56</ele>
        <time>2021-01-10T14:57:12.000Z</time>
      </trkpt>
      <trkpt lat="47.20476" lon="-1.52407">
        <ele>55</ele>
        <time>2021-01-10T14:57:14.000Z</time>
      </trkpt>
      <trkpt lat="47.20471" lon="-1.52424">
        <ele>54</ele>
        <time>2021-01-10T14:57:16.000Z</time>
      </trkpt>
      <trkpt lat="47.20467" lon="-1.52444">
        <ele>54</ele>
        <time>2021-01-10T14:57:18.000Z</time>
      </trkpt>
      <trkpt lat="47.20462" lon="-1.52465">
        <ele>54</ele>
        <time>2021-01-10T14:57:20.000Z</time>
      </trkpt>
      <trkpt lat="47.20455" lon="-1.52486">
        <ele>53</ele>
        <time>2021-01-10T14:57:22.000Z</time>
      </trkpt>
      <trkpt lat="47.20447" lon="-1.52507">
        <ele>53</ele>
        <time>2021-01-10T14:57:24.000Z</time>
      </trkpt>
      <trkpt lat="47.20438" lon="-1.52528">
        <ele>52</ele>
        <time>2021-01-10T14:57:26.000Z</time>
      </trkpt>
      <trkpt lat="47.2043" lon="-1.52551">
        <ele>52</ele>
        <time>2021-01-10T14:57:28.000Z</time>
      </trkpt>
      <trkpt lat="47.20423" lon="-1.52573">
        <ele>51</ele>
        <time>2021-01-10T14:57:30.000Z</time>
      </trkpt>
      <trkpt lat="47.20417" lon="-1.52596">
        <ele>51</ele>
        <time>2021-01-10T14:57:32.000Z</time>
      </trkpt>
      <trkpt lat="47.2041" lon="-1.52619">
        <ele>51</ele>
        <time>2021-01-10T14:57:34.000Z</time>
      </trkpt>
      <trkpt lat="47.20403" lon="-1.52641">
        <ele>51</ele>
        <time>2021-01-10T14:57:36.000Z</time>
      </trkpt>
      <trkpt lat="47.20394" lon="-1.52662">
        <ele>51</ele>
        <time>2021-01-10T14:57:38.000Z</time>
      </trkpt>
      <trkpt lat="47.20385" lon="-1.52683">
        <ele>51</ele>
        <time>2021-01-10T14:57:40.000Z</time>
      </trkpt>
      <trkpt lat="47.20374" lon="-1.52703">
        <ele>52</ele>
        <time>2021-01-10T14:57:42.000Z</time>
      </trkpt>
      <trkpt lat="47.20363" lon="-1.5272">
        <ele>52</ele>
        <time>2021-01-10T14:57:44.000Z</time>
      </trkpt>
      <trkpt lat="47.20354" lon="-1.52739">
        <ele>52</ele>
        <time>2021-01-10T14:57:46.000Z</time>
      </trkpt>
      <trkpt lat="47.20344" lon="-1.52758">
        <ele>52</ele>
        <time>2021-01-10T14:57:48.000Z</time>
      </trkpt>
      <trkpt lat="47.20335" lon="-1.52777">
        <ele>52</ele>
        <time>2021-01-10T14:57:50.000Z</time>
      </trkpt>
      <trkpt lat="47.20326" lon="-1.52796">
        <ele>52</ele>
        <time>2021-01-10T14:57:52.000Z</time>
      </trkpt>
      <trkpt lat="47.20317" lon="-1.52815">
        <ele>52</ele>
        <time>2021-01-10T14:57:54.000Z</time>
      </trkpt>
      <trkpt lat="47.20307" lon="-1.52833">
        <ele>52</ele>
        <time>2021-01-10T14:57:56.000Z</time>
      </trkpt>
      <trkpt lat="47.20299" lon="-1.5285">
        <ele>52</ele>
        <time>2021-01-10T14:57:58.000Z</time>
      </trkpt>
      <trkpt lat="47.2029" lon="-1.52868">
        <ele>51</ele>
        <time>2021-01-10T14:58:00.000Z</time>
      </trkpt>
      <trkpt lat="47.20284" lon="-1.52886">
        <ele>52</ele>
        <time>2021-01-10T14:58:02.000Z</time>
      </trkpt>
      <trkpt lat="47.20277" lon="-1.52905">
        <ele>52</ele>
        <time>2021-01-10T14:58:04.000Z</time>
      </trkpt>
      <trkpt lat="47.2027" lon="-1.52923">
        <ele>52</ele>
        <time>2021-01-10T14:58:06.000Z</time>
      </trkpt>
      <trkpt lat="47.20261" lon="-1.52941">
        <ele>53</ele>
        <time>2021-01-10T14:58:08.000Z</time>
      </trkpt>
      <trkpt lat="47.2025" lon="-1.52957">
        <ele>53</ele>
        <time>2021-01-10T14:58:10.000Z</time>
      </trkpt>
      <trkpt lat="47.20238" lon="-1.52973">
        <ele>52</ele>
        <time>2021-01-10T14:58:12.000Z</time>
      </trkpt>
      <trkpt lat="47.20227" lon="-1.5299">
        <ele>52</ele>
        <time>2021-01-10T14:58:14.000Z</time>
      </trkpt>
      <trkpt lat="47.20216" lon="-1.53007">
        <ele>52</ele>
        <time>2021-01-10T14:58:16.000Z</time>
      </trkpt>
      <trkpt lat="47.20205" lon="-1.53024">
        <ele>52</ele>
        <time>2021-01-10T14:58:18.000Z</time>
      </trkpt>
      <trkpt lat="47.20193" lon="-1.53039">
        <ele>52</ele>
        <time>2021-01-10T14:58:20.000Z</time>
      </trkpt>
      <trkpt lat="47.20183" lon="-1.53055">
        <ele>52</ele>
        <time>2021-01-10T14:58:22.000Z</time>
      </trkpt>
      <trkpt lat="47.20174" lon="-1.53073">
        <ele>52</ele>
        <time>2021-01-10T14:58:24.000Z</time>
      </trkpt>
      <trkpt lat="47.20164" lon="-1.53089">
        <ele>52</ele>
        <time>2021-01-10T14:58:26.000Z</time>
      </trkpt>
      <trkpt lat="47.20153" lon="-1.53105">
        <ele>52</ele>
        <time>2021-01-10T14:58:28.000Z</time>
      </trkpt>
      <trkpt lat="47.20144" lon="-1.53123">
        <ele>52</ele>
        <time>2021-01-10T14:58:30.000Z</time>
      </trkpt>
      <trkpt lat="47.20137" lon="-1.53141">
        <ele>52</ele>
        <time>2021-01-10T14:58:32.000Z</time>
      </trkpt>
      <trkpt lat="47.2013" lon="-1.5316">
        <ele>52</ele>
        <time>2021-01-10T14:58:34.000Z</time>
      </trkpt>
      <trkpt lat="47.20124" lon="-1.53178">
        <ele>52</ele>
        <time>2021-01-10T14:58:36.000Z</time>
      </trkpt>
      <trkpt lat="47.20118" lon="-1.53198">
        <ele>52</ele>
        <time>2021-01-10T14:58:38.000Z</time>
      </trkpt>
      <trkpt lat="47.20114" lon="-1.53218">
        <ele>52</ele>
        <time>2021-01-10T14:58:40.000Z</time>
      </trkpt>
      <trkpt lat="47.20111" lon="-1.53238">
        <ele>52</ele>
        <time>2021-01-10T14:58:42.000Z</time>
      </trkpt>
      <trkpt lat="47.20107" lon="-1.53259">
        <ele>52</ele>
        <time>2021-01-10T14:58:44.000Z</time>
      </trkpt>
      <trkpt lat="47.20102" lon="-1.53278">
        <ele>52</ele>
        <time>2021-01-10T14:58:46.000Z</time>
      </trkpt>
      <trkpt lat="47.20096" lon="-1.53299">
        <ele>53</ele>
        <time>2021-01-10T14:58:48.000Z</time>
      </trkpt>
      <trkpt lat="47.20088" lon="-1.53319">
        <ele>53</ele>
        <time>2021-01-10T14:58:50.000Z</time>
      </trkpt>
      <trkpt lat="47.20078" lon="-1.5334">
        <ele>53</ele>
        <time>2021-01-10T14:58:52.000Z</time>
      </trkpt>
      <trkpt lat="47.20068" lon="-1.5336">
        <ele>53</ele>
        <time>2021-01-10T14:58:54.000Z</time>
      </trkpt>
      <trkpt lat="47.2006" lon="-1.5338">
        <ele>53</ele>
        <time>2021-01-10T14:58:56.000Z</time>
      </trkpt>
      <trkpt lat="47.20052" lon="-1.53401">
        <ele>52</ele>
        <time>2021-01-10T14:58:58.000Z</time>
      </trkpt>
      <trkpt lat="47.20043" lon="-1.53421">
        <ele>51</ele>
        <time>2021-01-10T14:59:00.000Z</time>
      </trkpt>
      <trkpt lat="47.20035" lon="-1.5344">
        <ele>51</ele>
        <time>2021-01-10T14:59:02.000Z</time>
      </trkpt>
      <trkpt lat="47.2003" lon="-1.53459">
        <ele>52</ele>
        <time>2021-01-10T14:59:04.000Z</time>
      </trkpt>
      <trkpt lat="47.20023" lon="-1.53475">
        <ele>51</ele>
        <time>2021-01-10T14:59:06.000Z</time>
      </trkpt>
      <trkpt lat="47.20013" lon="-1.53488">
        <ele>52</ele>
        <time>2021-01-10T14:59:08.000Z</time>
      </trkpt>
      <trkpt lat="47.20002" lon="-1.535">
        <ele>52</ele>
        <time>2021-01-10T14:59:10.000Z</time>
      </trkpt>
      <trkpt lat="47.19993" lon="-1.53511">
        <ele>52</ele>
        <time>2021-01-10T14:59:12.000Z</time>
      </trkpt>
      <trkpt lat="47.19986" lon="-1.53528">
        <ele>52</ele>
        <time>2021-01-10T14:59:14.000Z</time>
      </trkpt>
      <trkpt lat="47.19981" lon="-1.53549">
        <ele>52</ele>
        <time>2021-01-10T14:59:16.000Z</time>
      </trkpt>
      <trkpt lat="47.19976" lon="-1.53569">
        <ele>52</ele>
        <time>2021-01-10T14:59:18.000Z</time>
      </trkpt>
      <trkpt lat="47.19971" lon="-1.5359">
        <ele>52</ele>
        <time>2021-01-10T14:59:20.000Z</time>
      </trkpt>
      <trkpt lat="47.19966" lon="-1.53611">
        <ele>53</ele>
        <time>2021-01-10T14:59:22.000Z</time>
      </trkpt>
      <trkpt lat="47.19962" lon="-1.53631">
        <ele>52</ele>
        <time>2021-01-10T14:59:24.000Z</time>
      </trkpt>
      <trkpt lat="47.19958" lon="-1.53651">
        <ele>52</ele>
        <time>2021-01-10T14:59:26.000Z</time>
      </trkpt>
      <trkpt lat="47.19954" lon="-1.53672">
        <ele>52</ele>
        <time>2021-01-10T14:59:28.000Z</time>
      </trkpt>
      <trkpt lat="47.1995" lon="-1.53694">
        <ele>51</ele>
        <time>2021-01-10T14:59:30.000Z</time>
      </trkpt>
      <trkpt lat="47.19945" lon="-1.53713">
        <ele>51</ele>
        <time>2021-01-10T14:59:32.000Z</time>
      </trkpt>
      <trkpt lat="47.19941" lon="-1.53734">
        <ele>51</ele>
        <time>2021-01-10T14:59:34.000Z</time>
      </trkpt>
      <trkpt lat="47.19937" lon="-1.53754">
        <ele>52</ele>
        <time>2021-01-10T14:59:36.000Z</time>
      </trkpt>
      <trkpt lat="47.19933" lon="-1.53773">
        <ele>52</ele>
        <time>2021-01-10T14:59:38.000Z</time>
      </trkpt>
      <trkpt lat="47.19929" lon="-1.53792">
        <ele>52</ele>
        <time>2021-01-10T14:59:40.000Z</time>
      </trkpt>
      <trkpt lat="47.19925" lon="-1.5381">
        <ele>53</ele>
        <time>2021-01-10T14:59:42.000Z</time>
      </trkpt>
      <trkpt lat="47.19922" lon="-1.53829">
        <ele>53</ele>
        <time>2021-01-10T14:59:44.000Z</time>
      </trkpt>
      <trkpt lat="47.19918" lon="-1.53847">
        <ele>53</ele>
        <time>2021-01-10T14:59:46.000Z</time>
      </trkpt>
      <trkpt lat="47.19914" lon="-1.53863">
        <ele>53</ele>
        <time>2021-01-10T14:59:48.000Z</time>
      </trkpt>
      <trkpt lat="47.19909" lon="-1.53881">
        <ele>52</ele>
        <time>2021-01-10T14:59:50.000Z</time>
      </trkpt>
      <trkpt lat="47.19906" lon="-1.53897">
        <ele>53</ele>
        <time>2021-01-10T14:59:52.000Z</time>
      </trkpt>
      <trkpt lat="47.19902" lon="-1.53915">
        <ele>52</ele>
        <time>2021-01-10T14:59:54.000Z</time>
      </trkpt>
      <trkpt lat="47.19897" lon="-1.53933">
        <ele>53</ele>
        <time>2021-01-10T14:59:56.000Z</time>
      </trkpt>
      <trkpt lat="47.19892" lon="-1.5395">
        <ele>53</ele>
        <time>2021-01-10T14:59:58.000Z</time>
      </trkpt>
      <trkpt lat="47.19886" lon="-1.53967">
        <ele>51</ele>
        <time>2021-01-10T15:00:00.000Z</time>
      </trkpt>
      <trkpt lat="47.19879" lon="-1.53986">
        <ele>51</ele>
        <time>2021-01-10T15:00:02.000Z</time>
      </trkpt>
      <trkpt lat="47.19873" lon="-1.54005">
        <ele>50</ele>
        <time>2021-01-10T15:00:04.000Z</time>
      </trkpt>
      <trkpt lat="47.19867" lon="-1.54022">
        <ele>49</ele>
        <time>2021-01-10T15:00:06.000Z</time>
      </trkpt>
      <trkpt lat="47.19863" lon="-1.54039">
        <ele>49</ele>
        <time>2021-01-10T15:00:08.000Z</time>
      </trkpt>
      <trkpt lat="47.19859" lon="-1.54056">
        <ele>50</ele>
        <time>2021-01-10T15:00:10.000Z</time>
      </trkpt>
      <trkpt lat="47.19854" lon="-1.54074">
        <ele>50</ele>
        <time>2021-01-10T15:00:12.000Z</time>
      </trkpt>
      <trkpt lat="47.19846" lon="-1.54094">
        <ele>50</ele>
        <time>2021-01-10T15:00:14.000Z</time>
      </trkpt>
      <trkpt lat="47.19838" lon="-1.54109">
        <ele>50</ele>
        <time>2021-01-10T15:00:16.000Z</time>
      </trkpt>
      <trkpt lat="47.19832" lon="-1.54124">
        <ele>51</ele>
        <time>2021-01-10T15:00:18.000Z</time>
      </trkpt>
      <trkpt lat="47.19828" lon="-1.5414">
        <ele>52</ele>
        <time>2021-01-10T15:00:20.000Z</time>
      </trkpt>
      <trkpt lat="47.19821" lon="-1.54156">
        <ele>53</ele>
        <time>2021-01-10T15:00:22.000Z</time>
      </trkpt>
      <trkpt lat="47.19812" lon="-1.54168">
        <ele>54</ele>
        <time>2021-01-10T15:00:24.000Z</time>
      </trkpt>
      <trkpt lat="47.19805" lon="-1.54183">
        <ele>55</ele>
        <time>2021-01-10T15:00:27.000Z</time>
      </trkpt>
      <trkpt lat="47.198" lon="-1.54196">
        <ele>54</ele>
        <time>2021-01-10T15:00:30.000Z</time>
      </trkpt>
      <trkpt lat="47.19795" lon="-1.54213">
        <ele>55</ele>
        <time>2021-01-10T15:00:33.000Z</time>
      </trkpt>
      <trkpt lat="47.19791" lon="-1.54226">
        <ele>55</ele>
        <time>2021-01-10T15:00:35.000Z</time>
      </trkpt>
      <trkpt lat="47.19785" lon="-1.54239">
        <ele>55</ele>
        <time>2021-01-10T15:00:37.000Z</time>
      </trkpt>
      <trkpt lat="47.19778" lon="-1.54252">
        <ele>55</ele>
        <time>2021-01-10T15:00:39.000Z</time>
      </trkpt>
      <trkpt lat="47.19769" lon="-1.54265">
        <ele>55</ele>
        <time>2021-01-10T15:00:41.000Z</time>
      </trkpt>
      <trkpt lat="47.19758" lon="-1.54277">
        <ele>55</ele>
        <time>2021-01-10T15:00:43.000Z</time>
      </trkpt>
      <trkpt lat="47.19748" lon="-1.54292">
        <ele>54</ele>
        <time>2021-01-10T15:00:45.000Z</time>
      </trkpt>
      <trkpt lat="47.19735" lon="-1.54304">
        <ele>54</ele>
        <time>2021-01-10T15:00:47.000Z</time>
      </trkpt>
      <trkpt lat="47.19722" lon="-1.54315">
        <ele>54</ele>
        <time>2021-01-10T15:00:49.000Z</time>
      </trkpt>
      <trkpt lat="47.19708" lon="-1.54325">
        <ele>54</ele>
        <time>2021-01-10T15:00:51.000Z</time>
      </trkpt>
      <trkpt lat="47.19693" lon="-1.54335">
        <ele>54</ele>
        <time>2021-01-10T15:00:53.000Z</time>
      </trkpt>
      <trkpt lat="47.1968" lon="-1.54345">
        <ele>54</ele>
        <time>2021-01-10T15:00:55.000Z</time>
      </trkpt>
      <trkpt lat="47.19666" lon="-1.54356">
        <ele>54</ele>
        <time>2021-01-10T15:00:57.000Z</time>
      </trkpt>
      <trkpt lat="47.19652" lon="-1.54367">
        <ele>54</ele>
        <time>2021-01-10T15:00:59.000Z</time>
      </trkpt>
      <trkpt lat="47.1964" lon="-1.54377">
        <ele>53</ele>
        <time>2021-01-10T15:01:01.000Z</time>
      </trkpt>
      <trkpt lat="47.19627" lon="-1.54389">
        <ele>54</ele>
        <time>2021-01-10T15:01:03.000Z</time>
      </trkpt>
      <trkpt lat="47.19616" lon="-1.544">
        <ele>54</ele>
        <time>2021-01-10T15:01:05.000Z</time>
      </trkpt>
      <trkpt lat="47.19605" lon="-1.54411">
        <ele>54</ele>
        <time>2021-01-10T15:01:07.000Z</time>
      </trkpt>
      <trkpt lat="47.19593" lon="-1.54424">
        <ele>55</ele>
        <time>2021-01-10T15:01:09.000Z</time>
      </trkpt>
      <trkpt lat="47.19581" lon="-1.54436">
        <ele>55</ele>
        <time>2021-01-10T15:01:11.000Z</time>
      </trkpt>
      <trkpt lat="47.19568" lon="-1.54448">
        <ele>56</ele>
        <time>2021-01-10T15:01:13.000Z</time>
      </trkpt>
      <trkpt lat="47.19556" lon="-1.5446">
        <ele>55</ele>
        <time>2021-01-10T15:01:15.000Z</time>
      </trkpt>
      <trkpt lat="47.19544" lon="-1.54472">
        <ele>55</ele>
        <time>2021-01-10T15:01:17.000Z</time>
      </trkpt>
      <trkpt lat="47.19533" lon="-1.54484">
        <ele>55</ele>
        <time>2021-01-10T15:01:19.000Z</time>
      </trkpt>
      <trkpt lat="47.19521" lon="-1.54495">
        <ele>55</ele>
        <time>2021-01-10T15:01:21.000Z</time>
      </trkpt>
      <trkpt lat="47.19509" lon="-1.54504">
        <ele>55</ele>
        <time>2021-01-10T15:01:23.000Z</time>
      </trkpt>
      <trkpt lat="47.19497" lon="-1.54514">
        <ele>55</ele>
        <time>2021-01-10T15:01:25.000Z</time>
      </trkpt>
      <trkpt lat="47.19486" lon="-1.54524">
        <ele>55</ele>
        <time>2021-01-10T15:01:27.000Z</time>
      </trkpt>
      <trkpt lat="47.19476" lon="-1.54538">
        <ele>55</ele>
        <time>2021-01-10T15:01:29.000Z</time>
      </trkpt>
      <trkpt lat="47.1947" lon="-1.54556">
        <ele>54</ele>
        <time>2021-01-10T15:01:31.000Z</time>
      </trkpt>
      <trkpt lat="47.19469" lon="-1.54575">
        <ele>54</ele>
        <time>2021-01-10T15:01:33.000Z</time>
      </trkpt>
      <trkpt lat="47.19474" lon="-1.54593">
        <ele>54</ele>
        <time>2021-01-10T15:01:35.000Z</time>
      </trkpt>
      <trkpt lat="47.19469" lon="-1.54612">
        <ele>54</ele>
        <time>2021-01-10T15:01:37.000Z</time>
      </trkpt>
      <trkpt lat="47.1946" lon="-1.54628">
        <ele>54</ele>
        <time>2021-01-10T15:01:39.000Z</time>
      </trkpt>
      <trkpt lat="47.19448" lon="-1.54638">
        <ele>54</ele>
        <time>2021-01-10T15:01:41.000Z</time>
      </trkpt>
      <trkpt lat="47.19439" lon="-1.54651">
        <ele>54</ele>
        <time>2021-01-10T15:01:43.000Z</time>
      </trkpt>
      <trkpt lat="47.19436" lon="-1.54672">
        <ele>55</ele>
        <time>2021-01-10T15:01:45.000Z</time>
      </trkpt>
      <trkpt lat="47.19435" lon="-1.54694">
        <ele>56</ele>
        <time>2021-01-10T15:01:47.000Z</time>
      </trkpt>
      <trkpt lat="47.19427" lon="-1.54714">
        <ele>57</ele>
        <time>2021-01-10T15:01:49.000Z</time>
      </trkpt>
      <trkpt lat="47.19421" lon="-1.54734">
        <ele>58</ele>
        <time>2021-01-10T15:01:51.000Z</time>
      </trkpt>
      <trkpt lat="47.19415" lon="-1.54753">
        <ele>58</ele>
        <time>2021-01-10T15:01:53.000Z</time>
      </trkpt>
      <trkpt lat="47.19411" lon="-1.54772">
        <ele>57</ele>
        <time>2021-01-10T15:01:55.000Z</time>
      </trkpt>
      <trkpt lat="47.19406" lon="-1.54792">
        <ele>58</ele>
        <time>2021-01-10T15:01:57.000Z</time>
      </trkpt>
      <trkpt lat="47.19401" lon="-1.54813">
        <ele>59</ele>
        <time>2021-01-10T15:01:59.000Z</time>
      </trkpt>
      <trkpt lat="47.19396" lon="-1.54833">
        <ele>61</ele>
        <time>2021-01-10T15:02:01.000Z</time>
      </trkpt>
      <trkpt lat="47.19391" lon="-1.54853">
        <ele>62</ele>
        <time>2021-01-10T15:02:03.000Z</time>
      </trkpt>
      <trkpt lat="47.19386" lon="-1.54872">
        <ele>62</ele>
        <time>2021-01-10T15:02:05.000Z</time>
      </trkpt>
      <trkpt lat="47.19381" lon="-1.54889">
        <ele>62</ele>
        <time>2021-01-10T15:02:07.000Z</time>
      </trkpt>
      <trkpt lat="47.19376" lon="-1.54907">
        <ele>62</ele>
        <time>2021-01-10T15:02:09.000Z</time>
      </trkpt>
      <trkpt lat="47.19372" lon="-1.54925">
        <ele>61</ele>
        <time>2021-01-10T15:02:11.000Z</time>
      </trkpt>
      <trkpt lat="47.19367" lon="-1.54944">
        <ele>61</ele>
        <time>2021-01-10T15:02:13.000Z</time>
      </trkpt>
      <trkpt lat="47.19363" lon="-1.54963">
        <ele>60</ele>
        <time>2021-01-10T15:02:15.000Z</time>
      </trkpt>
      <trkpt lat="47.19358" lon="-1.54982">
        <ele>60</ele>
        <time>2021-01-10T15:02:17.000Z</time>
      </trkpt>
      <trkpt lat="47.19354" lon="-1.55001">
        <ele>60</ele>
        <time>2021-01-10T15:02:19.000Z</time>
      </trkpt>
      <trkpt lat="47.19349" lon="-1.55021">
        <ele>60</ele>
        <time>2021-01-10T15:02:21.000Z</time>
      </trkpt>
      <trkpt lat="47.19346" lon="-1.5504">
        <ele>60</ele>
        <time>2021-01-10T15:02:23.000Z</time>
      </trkpt>
      <trkpt lat="47.19341" lon="-1.55059">
        <ele>59</ele>
        <time>2021-01-10T15:02:25.000Z</time>
      </trkpt>
      <trkpt lat="47.19335" lon="-1.55078">
        <ele>59</ele>
        <time>2021-01-10T15:02:27.000Z</time>
      </trkpt>
      <trkpt lat="47.1933" lon="-1.55098">
        <ele>58</ele>
        <time>2021-01-10T15:02:29.000Z</time>
      </trkpt>
      <trkpt lat="47.19325" lon="-1.55119">
        <ele>57</ele>
        <time>2021-01-10T15:02:31.000Z</time>
      </trkpt>
      <trkpt lat="47.19319" lon="-1.55141">
        <ele>56</ele>
        <time>2021-01-10T15:02:33.000Z</time>
      </trkpt>
      <trkpt lat="47.19314" lon="-1.55163">
        <ele>56</ele>
        <time>2021-01-10T15:02:35.000Z</time>
      </trkpt>
      <trkpt lat="47.19309" lon="-1.55184">
        <ele>56</ele>
        <time>2021-01-10T15:02:37.000Z</time>
      </trkpt>
      <trkpt lat="47.19303" lon="-1.55207">
        <ele>55</ele>
        <time>2021-01-10T15:02:39.000Z</time>
      </trkpt>
      <trkpt lat="47.19298" lon="-1.55229">
        <ele>55</ele>
        <time>2021-01-10T15:02:41.000Z</time>
      </trkpt>
      <trkpt lat="47.19292" lon="-1.55251">
        <ele>55</ele>
        <time>2021-01-10T15:02:43.000Z</time>
      </trkpt>
      <trkpt lat="47.19287" lon="-1.55273">
        <ele>55</ele>
        <time>2021-01-10T15:02:45.000Z</time>
      </trkpt>
      <trkpt lat="47.19282" lon="-1.55296">
        <ele>55</ele>
        <time>2021-01-10T15:02:47.000Z</time>
      </trkpt>
      <trkpt lat="47.19278" lon="-1.55318">
        <ele>55</ele>
        <time>2021-01-10T15:02:49.000Z</time>
      </trkpt>
      <trkpt lat="47.19273" lon="-1.5534">
        <ele>55</ele>
        <time>2021-01-10T15:02:51.000Z</time>
      </trkpt>
      <trkpt lat="47.19268" lon="-1.5536">
        <ele>55</ele>
        <time>2021-01-10T15:02:53.000Z</time>
      </trkpt>
      <trkpt lat="47.19261" lon="-1.55381">
        <ele>55</ele>
        <time>2021-01-10T15:02:55.000Z</time>
      </trkpt>
      <trkpt lat="47.19255" lon="-1.554">
        <ele>55</ele>
        <time>2021-01-10T15:02:57.000Z</time>
      </trkpt>
      <trkpt lat="47.19254" lon="-1.55421">
        <ele>55</ele>
        <time>2021-01-10T15:02:59.000Z</time>
      </trkpt>
      <trkpt lat="47.19256" lon="-1.55442">
        <ele>55</ele>
        <time>2021-01-10T15:03:01.000Z</time>
      </trkpt>
      <trkpt lat="47.19251" lon="-1.55462">
        <ele>55</ele>
        <time>2021-01-10T15:03:03.000Z</time>
      </trkpt>
      <trkpt lat="47.19248" lon="-1.55483">
        <ele>54</ele>
        <time>2021-01-10T15:03:05.000Z</time>
      </trkpt>
      <trkpt lat="47.19247" lon="-1.55506">
        <ele>54</ele>
        <time>2021-01-10T15:03:07.000Z</time>
      </trkpt>
      <trkpt lat="47.19247" lon="-1.55528">
        <ele>55</ele>
        <time>2021-01-10T15:03:09.000Z</time>
      </trkpt>
      <trkpt lat="47.19247" lon="-1.55551">
        <ele>55</ele>
        <time>2021-01-10T15:03:11.000Z</time>
      </trkpt>
      <trkpt lat="47.19246" lon="-1.55573">
        <ele>56</ele>
        <time>2021-01-10T15:03:13.000Z</time>
      </trkpt>
      <trkpt lat="47.19244" lon="-1.55595">
        <ele>56</ele>
        <time>2021-01-10T15:03:15.000Z</time>
      </trkpt>
      <trkpt lat="47.19244" lon="-1.55617">
        <ele>56</ele>
        <time>2021-01-10T15:03:17.000Z</time>
      </trkpt>
      <trkpt lat="47.19243" lon="-1.55639">
        <ele>57</ele>
        <time>2021-01-10T15:03:19.000Z</time>
      </trkpt>
      <trkpt lat="47.19241" lon="-1.55662">
        <ele>57</ele>
        <time>2021-01-10T15:03:21.000Z</time>
      </trkpt>
      <trkpt lat="47.1924" lon="-1.55685">
        <ele>57</ele>
        <time>2021-01-10T15:03:23.000Z</time>
      </trkpt>
      <trkpt lat="47.19239" lon="-1.55707">
        <ele>57</ele>
        <time>2021-01-10T15:03:25.000Z</time>
      </trkpt>
      <trkpt lat="47.19239" lon="-1.55729">
        <ele>56</ele>
        <time>2021-01-10T15:03:27.000Z</time>
      </trkpt>
      <trkpt lat="47.1924" lon="-1.5575">
        <ele>56</ele>
        <time>2021-01-10T15:03:29.000Z</time>
      </trkpt>
      <trkpt lat="47.1924" lon="-1.55771">
        <ele>56</ele>
        <time>2021-01-10T15:03:31.000Z</time>
      </trkpt>
      <trkpt lat="47.1924" lon="-1.55792">
        <ele>57</ele>
        <time>2021-01-10T15:03:33.000Z</time>
      </trkpt>
      <trkpt lat="47.1924" lon="-1.55813">
        <ele>57</ele>
        <time>2021-01-10T15:03:35.000Z</time>
      </trkpt>
      <trkpt lat="47.19241" lon="-1.55834">
        <ele>57</ele>
        <time>2021-01-10T15:03:37.000Z</time>
      </trkpt>
      <trkpt lat="47.19242" lon="-1.55855">
        <ele>57</ele>
        <time>2021-01-10T15:03:39.000Z</time>
      </trkpt>
      <trkpt lat="47.19243" lon="-1.55876">
        <ele>57</ele>
        <time>2021-01-10T15:03:41.000Z</time>
      </trkpt>
      <trkpt lat="47.19244" lon="-1.55898">
        <ele>57</ele>
        <time>2021-01-10T15:03:43.000Z</time>
      </trkpt>
      <trkpt lat="47.19245" lon="-1.55919">
        <ele>57</ele>
        <time>2021-01-10T15:03:45.000Z</time>
      </trkpt>
      <trkpt lat="47.19247" lon="-1.55939">
        <ele>57</ele>
        <time>2021-01-10T15:03:47.000Z</time>
      </trkpt>
      <trkpt lat="47.19248" lon="-1.55959">
        <ele>57</ele>
        <time>2021-01-10T15:03:49.000Z</time>
      </trkpt>
      <trkpt lat="47.1925" lon="-1.5598">
        <ele>57</ele>
        <time>2021-01-10T15:03:51.000Z</time>
      </trkpt>
      <trkpt lat="47.19252" lon="-1.56">
        <ele>56</ele>
        <time>2021-01-10T15:03:53.000Z</time>
      </trkpt>
      <trkpt lat="47.19254" lon="-1.56021">
        <ele>56</ele>
        <time>2021-01-10T15:03:55.000Z</time>
      </trkpt>
      <trkpt lat="47.19255" lon="-1.56042">
        <ele>55</ele>
        <time>2021-01-10T15:03:57.000Z</time>
      </trkpt>
      <trkpt lat="47.19257" lon="-1.56063">
        <ele>55</ele>
        <time>2021-01-10T15:03:59.000Z</time>
      </trkpt>
      <trkpt lat="47.19259" lon="-1.56083">
        <ele>55</ele>
        <time>2021-01-10T15:04:01.000Z</time>
      </trkpt>
      <trkpt lat="47.19261" lon="-1.56103">
        <ele>55</ele>
        <time>2021-01-10T15:04:03.000Z</time>
      </trkpt>
      <trkpt lat="47.19262" lon="-1.56124">
        <ele>55</ele>
        <time>2021-01-10T15:04:05.000Z</time>
      </trkpt>
      <trkpt lat="47.19262" lon="-1.56144">
        <ele>55</ele>
        <time>2021-01-10T15:04:07.000Z</time>
      </trkpt>
      <trkpt lat="47.19264" lon="-1.56164">
        <ele>55</ele>
        <time>2021-01-10T15:04:09.000Z</time>
      </trkpt>
      <trkpt lat="47.19264" lon="-1.56184">
        <ele>55</ele>
        <time>2021-01-10T15:04:11.000Z</time>
      </trkpt>
      <trkpt lat="47.19265" lon="-1.56202">
        <ele>55</ele>
        <time>2021-01-10T15:04:13.000Z</time>
      </trkpt>
      <trkpt lat="47.19267" lon="-1.56221">
        <ele>54</ele>
        <time>2021-01-10T15:04:15.000Z</time>
      </trkpt>
      <trkpt lat="47.1927" lon="-1.5624">
        <ele>54</ele>
        <time>2021-01-10T15:04:17.000Z</time>
      </trkpt>
      <trkpt lat="47.19278" lon="-1.56255">
        <ele>53</ele>
        <time>2021-01-10T15:04:19.000Z</time>
      </trkpt>
      <trkpt lat="47.19287" lon="-1.56272">
        <ele>53</ele>
        <time>2021-01-10T15:04:21.000Z</time>
      </trkpt>
      <trkpt lat="47.1929" lon="-1.56292">
        <ele>54</ele>
        <time>2021-01-10T15:04:23.000Z</time>
      </trkpt>
      <trkpt lat="47.19286" lon="-1.56311">
        <ele>54</ele>
        <time>2021-01-10T15:04:25.000Z</time>
      </trkpt>
      <trkpt lat="47.1928" lon="-1.5633">
        <ele>54</ele>
        <time>2021-01-10T15:04:27.000Z</time>
      </trkpt>
      <trkpt lat="47.1928" lon="-1.56351">
        <ele>53</ele>
        <time>2021-01-10T15:04:29.000Z</time>
      </trkpt>
      <trkpt lat="47.19283" lon="-1.56371">
        <ele>53</ele>
        <time>2021-01-10T15:04:31.000Z</time>
      </trkpt>
      <trkpt lat="47.19285" lon="-1.56392">
        <ele>52</ele>
        <time>2021-01-10T15:04:33.000Z</time>
      </trkpt>
      <trkpt lat="47.19288" lon="-1.56411">
        <ele>52</ele>
        <time>2021-01-10T15:04:35.000Z</time>
      </trkpt>
      <trkpt lat="47.1929" lon="-1.56431">
        <ele>53</ele>
        <time>2021-01-10T15:04:37.000Z</time>
      </trkpt>
      <trkpt lat="47.19292" lon="-1.56451">
        <ele>53</ele>
        <time>2021-01-10T15:04:39.000Z</time>
      </trkpt>
      <trkpt lat="47.19294" lon="-1.56471">
        <ele>53</ele>
        <time>2021-01-10T15:04:41.000Z</time>
      </trkpt>
      <trkpt lat="47.19296" lon="-1.5649">
        <ele>53</ele>
        <time>2021-01-10T15:04:43.000Z</time>
      </trkpt>
      <trkpt lat="47.19298" lon="-1.5651">
        <ele>53</ele>
        <time>2021-01-10T15:04:45.000Z</time>
      </trkpt>
      <trkpt lat="47.19299" lon="-1.5653">
        <ele>53</ele>
        <time>2021-01-10T15:04:47.000Z</time>
      </trkpt>
      <trkpt lat="47.19302" lon="-1.5655">
        <ele>53</ele>
        <time>2021-01-10T15:04:49.000Z</time>
      </trkpt>
      <trkpt lat="47.19304" lon="-1.5657">
        <ele>54</ele>
        <time>2021-01-10T15:04:51.000Z</time>
      </trkpt>
      <trkpt lat="47.19305" lon="-1.56589">
        <ele>54</ele>
        <time>2021-01-10T15:04:53.000Z</time>
      </trkpt>
      <trkpt lat="47.19308" lon="-1.56608">
        <ele>54</ele>
        <time>2021-01-10T15:04:55.000Z</time>
      </trkpt>
      <trkpt lat="47.19309" lon="-1.56627">
        <ele>53</ele>
        <time>2021-01-10T15:04:57.000Z</time>
      </trkpt>
      <trkpt lat="47.19311" lon="-1.56647">
        <ele>53</ele>
        <time>2021-01-10T15:04:59.000Z</time>
      </trkpt>
      <trkpt lat="47.19312" lon="-1.56667">
        <ele>53</ele>
        <time>2021-01-10T15:05:01.000Z</time>
      </trkpt>
      <trkpt lat="47.19313" lon="-1.56686">
        <ele>53</ele>
        <time>2021-01-10T15:05:03.000Z</time>
      </trkpt>
      <trkpt lat="47.19315" lon="-1.56705">
        <ele>53</ele>
        <time>2021-01-10T15:05:05.000Z</time>
      </trkpt>
      <trkpt lat="47.19318" lon="-1.56725">
        <ele>53</ele>
        <time>2021-01-10T15:05:07.000Z</time>
      </trkpt>
      <trkpt lat="47.1932" lon="-1.56744">
        <ele>53</ele>
        <time>2021-01-10T15:05:09.000Z</time>
      </trkpt>
      <trkpt lat="47.19322" lon="-1.56763">
        <ele>54</ele>
        <time>2021-01-10T15:05:11.000Z</time>
      </trkpt>
      <trkpt lat="47.19324" lon="-1.56782">
        <ele>54</ele>
        <time>2021-01-10T15:05:13.000Z</time>
      </trkpt>
      <trkpt lat="47.19327" lon="-1.568">
        <ele>54</ele>
        <time>2021-01-10T15:05:15.000Z</time>
      </trkpt>
      <trkpt lat="47.19328" lon="-1.56819">
        <ele>55</ele>
        <time>2021-01-10T15:05:17.000Z</time>
      </trkpt>
      <trkpt lat="47.19329" lon="-1.56839">
        <ele>55</ele>
        <time>2021-01-10T15:05:19.000Z</time>
      </trkpt>
      <trkpt lat="47.19329" lon="-1.56858">
        <ele>54</ele>
        <time>2021-01-10T15:05:21.000Z</time>
      </trkpt>
      <trkpt lat="47.1933" lon="-1.56877">
        <ele>55</ele>
        <time>2021-01-10T15:05:23.000Z</time>
      </trkpt>
      <trkpt lat="47.1933" lon="-1.56897">
        <ele>54</ele>
        <time>2021-01-10T15:05:25.000Z</time>
      </trkpt>
      <trkpt lat="47.1933" lon="-1.56916">
        <ele>54</ele>
        <time>2021-01-10T15:05:27.000Z</time>
      </trkpt>
      <trkpt lat="47.1933" lon="-1.56936">
        <ele>54</ele>
        <time>2021-01-10T15:05:29.000Z</time>
      </trkpt>
      <trkpt lat="47.19329" lon="-1.56956">
        <ele>55</ele>
        <time>2021-01-10T15:05:31.000Z</time>
      </trkpt>
      <trkpt lat="47.19327" lon="-1.56974">
        <ele>55</ele>
        <time>2021-01-10T15:05:33.000Z</time>
      </trkpt>
      <trkpt lat="47.19325" lon="-1.56993">
        <ele>55</ele>
        <time>2021-01-10T15:05:35.000Z</time>
      </trkpt>
      <trkpt lat="47.19324" lon="-1.57012">
        <ele>56</ele>
        <time>2021-01-10T15:05:37.000Z</time>
      </trkpt>
      <trkpt lat="47.19325" lon="-1.57029">
        <ele>56</ele>
        <time>2021-01-10T15:05:39.000Z</time>
      </trkpt>
      <trkpt lat="47.19332" lon="-1.57041">
        <ele>56</ele>
        <time>2021-01-10T15:05:41.000Z</time>
      </trkpt>
      <trkpt lat="47.19339" lon="-1.57052">
        <ele>57</ele>
        <time>2021-01-10T15:05:43.000Z</time>
      </trkpt>
      <trkpt lat="47.19338" lon="-1.5707">
        <ele>57</ele>
        <time>2021-01-10T15:05:45.000Z</time>
      </trkpt>
      <trkpt lat="47.19327" lon="-1.57082">
        <ele>57</ele>
        <time>2021-01-10T15:05:47.000Z</time>
      </trkpt>
      <trkpt lat="47.19314" lon="-1.57076">
        <ele>55</ele>
        <time>2021-01-10T15:05:49.000Z</time>
      </trkpt>
      <trkpt lat="47.19304" lon="-1.57067">
        <ele>55</ele>
        <time>2021-01-10T15:05:51.000Z</time>
      </trkpt>
      <trkpt lat="47.19292" lon="-1.57063">
        <ele>55</ele>
        <time>2021-01-10T15:05:53.000Z</time>
      </trkpt>
      <trkpt lat="47.19279" lon="-1.57062">
        <ele>55</ele>
        <time>2021-01-10T15:05:55.000Z</time>
      </trkpt>
      <trkpt lat="47.19265" lon="-1.57063">
        <ele>55</ele>
        <time>2021-01-10T15:05:57.000Z</time>
      </trkpt>
      <trkpt lat="47.1925" lon="-1.57056">
        <ele>55</ele>
        <time>2021-01-10T15:05:59.000Z</time>
      </trkpt>
      <trkpt lat="47.19237" lon="-1.57048">
        <ele>54</ele>
        <time>2021-01-10T15:06:01.000Z</time>
      </trkpt>
      <trkpt lat="47.19224" lon="-1.57043">
        <ele>54</ele>
        <time>2021-01-10T15:06:03.000Z</time>
      </trkpt>
      <trkpt lat="47.1921" lon="-1.5704">
        <ele>54</ele>
        <time>2021-01-10T15:06:05.000Z</time>
      </trkpt>
      <trkpt lat="47.19197" lon="-1.57038">
        <ele>54</ele>
        <time>2021-01-10T15:06:07.000Z</time>
      </trkpt>
      <trkpt lat="47.19184" lon="-1.57033">
        <ele>56</ele>
        <time>2021-01-10T15:06:09.000Z</time>
      </trkpt>
      <trkpt lat="47.19172" lon="-1.57029">
        <ele>58</ele>
        <time>2021-01-10T15:06:11.000Z</time>
      </trkpt>
      <trkpt lat="47.1916" lon="-1.57025">
        <ele>58</ele>
        <time>2021-01-10T15:06:13.000Z</time>
      </trkpt>
      <trkpt lat="47.19148" lon="-1.57024">
        <ele>58</ele>
        <time>2021-01-10T15:06:15.000Z</time>
      </trkpt>
      <trkpt lat="47.19138" lon="-1.57025">
        <ele>59</ele>
        <time>2021-01-10T15:06:17.000Z</time>
      </trkpt>
      <trkpt lat="47.19127" lon="-1.57027">
        <ele>58</ele>
        <time>2021-01-10T15:06:19.000Z</time>
      </trkpt>
      <trkpt lat="47.19123" lon="-1.5704">
        <ele>57</ele>
        <time>2021-01-10T15:06:21.000Z</time>
      </trkpt>
      <trkpt lat="47.19118" lon="-1.57057">
        <ele>57</ele>
        <time>2021-01-10T15:06:23.000Z</time>
      </trkpt>
      <trkpt lat="47.19114" lon="-1.57074">
        <ele>57</ele>
        <time>2021-01-10T15:06:25.000Z</time>
      </trkpt>
      <trkpt lat="47.19109" lon="-1.57089">
        <ele>56</ele>
        <time>2021-01-10T15:06:27.000Z</time>
      </trkpt>
      <trkpt lat="47.19106" lon="-1.57105">
        <ele>56</ele>
        <time>2021-01-10T15:06:29.000Z</time>
      </trkpt>
      <trkpt lat="47.191" lon="-1.5712">
        <ele>55</ele>
        <time>2021-01-10T15:06:31.000Z</time>
      </trkpt>
      <trkpt lat="47.19092" lon="-1.57134">
        <ele>56</ele>
        <time>2021-01-10T15:06:33.000Z</time>
      </trkpt>
      <trkpt lat="47.19086" lon="-1.5715">
        <ele>56</ele>
        <time>2021-01-10T15:06:35.000Z</time>
      </trkpt>
      <trkpt lat="47.19081" lon="-1.57167">
        <ele>55</ele>
        <time>2021-01-10T15:06:37.000Z</time>
      </trkpt>
      <trkpt lat="47.19074" lon="-1.57183">
        <ele>54</ele>
        <time>2021-01-10T15:06:39.000Z</time>
      </trkpt>
      <trkpt lat="47.19067" lon="-1.57199">
        <ele>54</ele>
        <time>2021-01-10T15:06:41.000Z</time>
      </trkpt>
      <trkpt lat="47.19059" lon="-1.57212">
        <ele>55</ele>
        <time>2021-01-10T15:06:43.000Z</time>
      </trkpt>
      <trkpt lat="47.19049" lon="-1.57222">
        <ele>55</ele>
        <time>2021-01-10T15:06:45.000Z</time>
      </trkpt>
      <trkpt lat="47.19038" lon="-1.5723">
        <ele>56</ele>
        <time>2021-01-10T15:06:47.000Z</time>
      </trkpt>
      <trkpt lat="47.19027" lon="-1.57236">
        <ele>56</ele>
        <time>2021-01-10T15:06:49.000Z</time>
      </trkpt>
      <trkpt lat="47.19017" lon="-1.57244">
        <ele>57</ele>
        <time>2021-01-10T15:06:51.000Z</time>
      </trkpt>
      <trkpt lat="47.19008" lon="-1.57251">
        <ele>58</ele>
        <time>2021-01-10T15:06:53.000Z</time>
      </trkpt>
      <trkpt lat="47.18998" lon="-1.57258">
        <ele>58</ele>
        <time>2021-01-10T15:06:55.000Z</time>
      </trkpt>
      <trkpt lat="47.18986" lon="-1.57262">
        <ele>58</ele>
        <time>2021-01-10T15:06:57.000Z</time>
      </trkpt>
      <trkpt lat="47.18974" lon="-1.57263">
        <ele>59</ele>
        <time>2021-01-10T15:06:59.000Z</time>
      </trkpt>
      <trkpt lat="47.18963" lon="-1.57265">
        <ele>60</ele>
        <time>2021-01-10T15:07:01.000Z</time>
      </trkpt>
      <trkpt lat="47.18951" lon="-1.57267">
        <ele>60</ele>
        <time>2021-01-10T15:07:03.000Z</time>
      </trkpt>
      <trkpt lat="47.1894" lon="-1.57269">
        <ele>61</ele>
        <time>2021-01-10T15:07:05.000Z</time>
      </trkpt>
      <trkpt lat="47.18928" lon="-1.57271">
        <ele>61</ele>
        <time>2021-01-10T15:07:07.000Z</time>
      </trkpt>
      <trkpt lat="47.18916" lon="-1.57272">
        <ele>61</ele>
        <time>2021-01-10T15:07:09.000Z</time>
      </trkpt>
      <trkpt lat="47.18904" lon="-1.57273">
        <ele>60</ele>
        <time>2021-01-10T15:07:11.000Z</time>
      </trkpt>
      <trkpt lat="47.18893" lon="-1.57274">
        <ele>61</ele>
        <time>2021-01-10T15:07:13.000Z</time>
      </trkpt>
      <trkpt lat="47.18882" lon="-1.57276">
        <ele>61</ele>
        <time>2021-01-10T15:07:15.000Z</time>
      </trkpt>
      <trkpt lat="47.18871" lon="-1.57279">
        <ele>61</ele>
        <time>2021-01-10T15:07:17.000Z</time>
      </trkpt>
      <trkpt lat="47.18861" lon="-1.57283">
        <ele>61</ele>
        <time>2021-01-10T15:07:19.000Z</time>
      </trkpt>
      <trkpt lat="47.18851" lon="-1.57288">
        <ele>61</ele>
        <time>2021-01-10T15:07:21.000Z</time>
      </trkpt>
      <trkpt lat="47.18843" lon="-1.573">
        <ele>60</ele>
        <time>2021-01-10T15:07:23.000Z</time>
      </trkpt>
      <trkpt lat="47.18836" lon="-1.57314">
        <ele>59</ele>
        <time>2021-01-10T15:07:25.000Z</time>
      </trkpt>
      <trkpt lat="47.1883" lon="-1.57331">
        <ele>58</ele>
        <time>2021-01-10T15:07:27.000Z</time>
      </trkpt>
      <trkpt lat="47.18824" lon="-1.5735">
        <ele>58</ele>
        <time>2021-01-10T15:07:29.000Z</time>
      </trkpt>
      <trkpt lat="47.18819" lon="-1.57368">
        <ele>57</ele>
        <time>2021-01-10T15:07:31.000Z</time>
      </trkpt>
      <trkpt lat="47.18812" lon="-1.57386">
        <ele>57</ele>
        <time>2021-01-10T15:07:33.000Z</time>
      </trkpt>
      <trkpt lat="47.18801" lon="-1.57402">
        <ele>56</ele>
        <time>2021-01-10T15:07:35.000Z</time>
      </trkpt>
      <trkpt lat="47.18788" lon="-1.57413">
        <ele>56</ele>
        <time>2021-01-10T15:07:37.000Z</time>
      </trkpt>
      <trkpt lat="47.18772" lon="-1.57421">
        <ele>56</ele>
        <time>2021-01-10T15:07:39.000Z</time>
      </trkpt>
      <trkpt lat="47.18757" lon="-1.57429">
        <ele>56</ele>
        <time>2021-01-10T15:07:41.000Z</time>
      </trkpt>
      <trkpt lat="47.18743" lon="-1.57437">
        <ele>56</ele>
        <time>2021-01-10T15:07:43.000Z</time>
      </trkpt>
      <trkpt lat="47.18728" lon="-1.57445">
        <ele>56</ele>
        <time>2021-01-10T15:07:45.000Z</time>
      </trkpt>
      <trkpt lat="47.18714" lon="-1.57453">
        <ele>56</ele>
        <time>2021-01-10T15:07:47.000Z</time>
      </trkpt>
      <trkpt lat="47.18701" lon="-1.5746">
        <ele>57</ele>
        <time>2021-01-10T15:07:49.000Z</time>
      </trkpt>
      <trkpt lat="47.18689" lon="-1.57468">
        <ele>58</ele>
        <time>2021-01-10T15:07:51.000Z</time>
      </trkpt>
      <trkpt lat="47.18677" lon="-1.57476">
        <ele>59</ele>
        <time>2021-01-10T15:07:53.000Z</time>
      </trkpt>
      <trkpt lat="47.18667" lon="-1.57486">
        <ele>60</ele>
        <time>2021-01-10T15:07:55.000Z</time>
      </trkpt>
      <trkpt lat="47.18659" lon="-1.57497">
        <ele>60</ele>
        <time>2021-01-10T15:07:57.000Z</time>
      </trkpt>
      <trkpt lat="47.18651" lon="-1.57509">
        <ele>61</ele>
        <time>2021-01-10T15:07:59.000Z</time>
      </trkpt>
      <trkpt lat="47.18644" lon="-1.57523">
        <ele>61</ele>
        <time>2021-01-10T15:08:01.000Z</time>
      </trkpt>
      <trkpt lat="47.18639" lon="-1.57537">
        <ele>61</ele>
        <time>2021-01-10T15:08:03.000Z</time>
      </trkpt>
      <trkpt lat="47.18635" lon="-1.57551">
        <ele>61</ele>
        <time>2021-01-10T15:08:05.000Z</time>
      </trkpt>
      <trkpt lat="47.18631" lon="-1.57567">
        <ele>62</ele>
        <time>2021-01-10T15:08:07.000Z</time>
      </trkpt>
      <trkpt lat="47.18628" lon="-1.57582">
        <ele>61</ele>
        <time>2021-01-10T15:08:09.000Z</time>
      </trkpt>
      <trkpt lat="47.18627" lon="-1.57598">
        <ele>62</ele>
        <time>2021-01-10T15:08:11.000Z</time>
      </trkpt>
      <trkpt lat="47.18627" lon="-1.57614">
        <ele>62</ele>
        <time>2021-01-10T15:08:13.000Z</time>
      </trkpt>
      <trkpt lat="47.18628" lon="-1.5763">
        <ele>62</ele>
        <time>2021-01-10T15:08:15.000Z</time>
      </trkpt>
      <trkpt lat="47.18628" lon="-1.57647">
        <ele>63</ele>
        <time>2021-01-10T15:08:17.000Z</time>
      </trkpt>
      <trkpt lat="47.1863" lon="-1.57664">
        <ele>63</ele>
        <time>2021-01-10T15:08:19.000Z</time>
      </trkpt>
      <trkpt lat="47.18631" lon="-1.57681">
        <ele>64</ele>
        <time>2021-01-10T15:08:21.000Z</time>
      </trkpt>
      <trkpt lat="47.18632" lon="-1.57698">
        <ele>64</ele>
        <time>2021-01-10T15:08:23.000Z</time>
      </trkpt>
      <trkpt lat="47.18634" lon="-1.57714">
        <ele>64</ele>
        <time>2021-01-10T15:08:25.000Z</time>
      </trkpt>
      <trkpt lat="47.18635" lon="-1.5773">
        <ele>65</ele>
        <time>2021-01-10T15:08:27.000Z</time>
      </trkpt>
      <trkpt lat="47.18636" lon="-1.57746">
        <ele>65</ele>
        <time>2021-01-10T15:08:29.000Z</time>
      </trkpt>
      <trkpt lat="47.18637" lon="-1.57761">
        <ele>65</ele>
        <time>2021-01-10T15:08:31.000Z</time>
      </trkpt>
      <trkpt lat="47.18638" lon="-1.57776">
        <ele>65</ele>
        <time>2021-01-10T15:08:33.000Z</time>
      </trkpt>
      <trkpt lat="47.18638" lon="-1.57793">
        <ele>65</ele>
        <time>2021-01-10T15:08:35.000Z</time>
      </trkpt>
      <trkpt lat="47.1864" lon="-1.5781">
        <ele>65</ele>
        <time>2021-01-10T15:08:37.000Z</time>
      </trkpt>
      <trkpt lat="47.18641" lon="-1.57827">
        <ele>65</ele>
        <time>2021-01-10T15:08:39.000Z</time>
      </trkpt>
      <trkpt lat="47.18641" lon="-1.57845">
        <ele>65</ele>
        <time>2021-01-10T15:08:41.000Z</time>
      </trkpt>
      <trkpt lat="47.18641" lon="-1.57861">
        <ele>65</ele>
        <time>2021-01-10T15:08:43.000Z</time>
      </trkpt>
      <trkpt lat="47.1864" lon="-1.57877">
        <ele>65</ele>
        <time>2021-01-10T15:08:45.000Z</time>
      </trkpt>
      <trkpt lat="47.18638" lon="-1.57893">
        <ele>65</ele>
        <time>2021-01-10T15:08:47.000Z</time>
      </trkpt>
      <trkpt lat="47.18636" lon="-1.5791">
        <ele>65</ele>
        <time>2021-01-10T15:08:49.000Z</time>
      </trkpt>
      <trkpt lat="47.18633" lon="-1.57927">
        <ele>65</ele>
        <time>2021-01-10T15:08:51.000Z</time>
      </trkpt>
      <trkpt lat="47.18631" lon="-1.57945">
        <ele>66</ele>
        <time>2021-01-10T15:08:53.000Z</time>
      </trkpt>
      <trkpt lat="47.18627" lon="-1.57962">
        <ele>66</ele>
        <time>2021-01-10T15:08:55.000Z</time>
      </trkpt>
      <trkpt lat="47.18625" lon="-1.5798">
        <ele>66</ele>
        <time>2021-01-10T15:08:57.000Z</time>
      </trkpt>
      <trkpt lat="47.18622" lon="-1.57998">
        <ele>65</ele>
        <time>2021-01-10T15:08:59.000Z</time>
      </trkpt>
      <trkpt lat="47.18619" lon="-1.58017">
        <ele>65</ele>
        <time>2021-01-10T15:09:01.000Z</time>
      </trkpt>
      <trkpt lat="47.18616" lon="-1.58034">
        <ele>65</ele>
        <time>2021-01-10T15:09:03.000Z</time>
      </trkpt>
      <trkpt lat="47.18613" lon="-1.58052">
        <ele>64</ele>
        <time>2021-01-10T15:09:05.000Z</time>
      </trkpt>
      <trkpt lat="47.18611" lon="-1.5807">
        <ele>64</ele>
        <time>2021-01-10T15:09:07.000Z</time>
      </trkpt>
      <trkpt lat="47.18608" lon="-1.58088">
        <ele>64</ele>
        <time>2021-01-10T15:09:09.000Z</time>
      </trkpt>
      <trkpt lat="47.18604" lon="-1.58106">
        <ele>64</ele>
        <time>2021-01-10T15:09:11.000Z</time>
      </trkpt>
      <trkpt lat="47.18601" lon="-1.58124">
        <ele>64</ele>
        <time>2021-01-10T15:09:13.000Z</time>
      </trkpt>
      <trkpt lat="47.18598" lon="-1.58142">
        <ele>64</ele>
        <time>2021-01-10T15:09:15.000Z</time>
      </trkpt>
      <trkpt lat="47.18596" lon="-1.58161">
        <ele>64</ele>
        <time>2021-01-10T15:09:17.000Z</time>
      </trkpt>
      <trkpt lat="47.18593" lon="-1.5818">
        <ele>64</ele>
        <time>2021-01-10T15:09:19.000Z</time>
      </trkpt>
      <trkpt lat="47.1859" lon="-1.58201">
        <ele>63</ele>
        <time>2021-01-10T15:09:21.000Z</time>
      </trkpt>
      <trkpt lat="47.18586" lon="-1.58222">
        <ele>63</ele>
        <time>2021-01-10T15:09:23.000Z</time>
      </trkpt>
      <trkpt lat="47.18582" lon="-1.58243">
        <ele>62</ele>
        <time>2021-01-10T15:09:25.000Z</time>
      </trkpt>
      <trkpt lat="47.18579" lon="-1.58264">
        <ele>61</ele>
        <time>2021-01-10T15:09:27.000Z</time>
      </trkpt>
      <trkpt lat="47.18575" lon="-1.58285">
        <ele>61</ele>
        <time>2021-01-10T15:09:29.000Z</time>
      </trkpt>
      <trkpt lat="47.18572" lon="-1.58308">
        <ele>60</ele>
        <time>2021-01-10T15:09:31.000Z</time>
      </trkpt>
      <trkpt lat="47.18569" lon="-1.58331">
        <ele>58</ele>
        <time>2021-01-10T15:09:33.000Z</time>
      </trkpt>
      <trkpt lat="47.18566" lon="-1.58355">
        <ele>58</ele>
        <time>2021-01-10T15:09:35.000Z</time>
      </trkpt>
      <trkpt lat="47.18562" lon="-1.58379">
        <ele>58</ele>
        <time>2021-01-10T15:09:37.000Z</time>
      </trkpt>
      <trkpt lat="47.1856" lon="-1.58403">
        <ele>58</ele>
        <time>2021-01-10T15:09:39.000Z</time>
      </trkpt>
      <trkpt lat="47.18556" lon="-1.58424">
        <ele>58</ele>
        <time>2021-01-10T15:09:41.000Z</time>
      </trkpt>
      <trkpt lat="47.18553" lon="-1.58445">
        <ele>58</ele>
        <time>2021-01-10T15:09:43.000Z</time>
      </trkpt>
      <trkpt lat="47.1855" lon="-1.58464">
        <ele>59</ele>
        <time>2021-01-10T15:09:45.000Z</time>
      </trkpt>
      <trkpt lat="47.18547" lon="-1.58482">
        <ele>60</ele>
        <time>2021-01-10T15:09:47.000Z</time>
      </trkpt>
      <trkpt lat="47.18543" lon="-1.58499">
        <ele>60</ele>
        <time>2021-01-10T15:09:49.000Z</time>
      </trkpt>
      <trkpt lat="47.18539" lon="-1.58515">
        <ele>60</ele>
        <time>2021-01-10T15:09:51.000Z</time>
      </trkpt>
      <trkpt lat="47.18532" lon="-1.58531">
        <ele>60</ele>
        <time>2021-01-10T15:09:53.000Z</time>
      </trkpt>
      <trkpt lat="47.18527" lon="-1.58547">
        <ele>60</ele>
        <time>2021-01-10T15:09:55.000Z</time>
      </trkpt>
      <trkpt lat="47.18521" lon="-1.58561">
        <ele>60</ele>
        <time>2021-01-10T15:09:57.000Z</time>
      </trkpt>
      <trkpt lat="47.18515" lon="-1.58575">
        <ele>61</ele>
        <time>2021-01-10T15:09:59.000Z</time>
      </trkpt>
      <trkpt lat="47.1851" lon="-1.5859">
        <ele>62</ele>
        <time>2021-01-10T15:10:01.000Z</time>
      </trkpt>
      <trkpt lat="47.18507" lon="-1.58606">
        <ele>63</ele>
        <time>2021-01-10T15:10:03.000Z</time>
      </trkpt>
      <trkpt lat="47.18505" lon="-1.58622">
        <ele>63</ele>
        <time>2021-01-10T15:10:05.000Z</time>
      </trkpt>
      <trkpt lat="47.18504" lon="-1.58637">
        <ele>64</ele>
        <time>2021-01-10T15:10:07.000Z</time>
      </trkpt>
      <trkpt lat="47.18503" lon="-1.58653">
        <ele>64</ele>
        <time>2021-01-10T15:10:09.000Z</time>
      </trkpt>
      <trkpt lat="47.18505" lon="-1.58671">
        <ele>64</ele>
        <time>2021-01-10T15:10:11.000Z</time>
      </trkpt>
      <trkpt lat="47.18508" lon="-1.58688">
        <ele>64</ele>
        <time>2021-01-10T15:10:13.000Z</time>
      </trkpt>
      <trkpt lat="47.18509" lon="-1.58705">
        <ele>65</ele>
        <time>2021-01-10T15:10:15.000Z</time>
      </trkpt>
      <trkpt lat="47.18508" lon="-1.58722">
        <ele>64</ele>
        <time>2021-01-10T15:10:17.000Z</time>
      </trkpt>
      <trkpt lat="47.18507" lon="-1.58738">
        <ele>65</ele>
        <time>2021-01-10T15:10:19.000Z</time>
      </trkpt>
      <trkpt lat="47.18504" lon="-1.58755">
        <ele>65</ele>
        <time>2021-01-10T15:10:21.000Z</time>
      </trkpt>
      <trkpt lat="47.18498" lon="-1.58769">
        <ele>65</ele>
        <time>2021-01-10T15:10:23.000Z</time>
      </trkpt>
      <trkpt lat="47.1849" lon="-1.58782">
        <ele>65</ele>
        <time>2021-01-10T15:10:25.000Z</time>
      </trkpt>
      <trkpt lat="47.18483" lon="-1.58793">
        <ele>65</ele>
        <time>2021-01-10T15:10:27.000Z</time>
      </trkpt>
      <trkpt lat="47.18476" lon="-1.58806">
        <ele>65</ele>
        <time>2021-01-10T15:10:29.000Z</time>
      </trkpt>
      <trkpt lat="47.18469" lon="-1.58817">
        <ele>65</ele>
        <time>2021-01-10T15:10:31.000Z</time>
      </trkpt>
      <trkpt lat="47.1846" lon="-1.58831">
        <ele>65</ele>
        <time>2021-01-10T15:10:33.000Z</time>
      </trkpt>
      <trkpt lat="47.18453" lon="-1.58844">
        <ele>67</ele>
        <time>2021-01-10T15:10:35.000Z</time>
      </trkpt>
      <trkpt lat="47.18445" lon="-1.58857">
        <ele>67</ele>
        <time>2021-01-10T15:10:37.000Z</time>
      </trkpt>
      <trkpt lat="47.18438" lon="-1.58869">
        <ele>68</ele>
        <time>2021-01-10T15:10:39.000Z</time>
      </trkpt>
      <trkpt lat="47.18429" lon="-1.58878">
        <ele>69</ele>
        <time>2021-01-10T15:10:41.000Z</time>
      </trkpt>
      <trkpt lat="47.18421" lon="-1.58888">
        <ele>69</ele>
        <time>2021-01-10T15:10:43.000Z</time>
      </trkpt>
      <trkpt lat="47.18411" lon="-1.58897">
        <ele>69</ele>
        <time>2021-01-10T15:10:45.000Z</time>
      </trkpt>
      <trkpt lat="47.18401" lon="-1.58903">
        <ele>70</ele>
        <time>2021-01-10T15:10:47.000Z</time>
      </trkpt>
      <trkpt lat="47.18391" lon="-1.58909">
        <ele>70</ele>
        <time>2021-01-10T15:10:49.000Z</time>
      </trkpt>
      <trkpt lat="47.18381" lon="-1.58915">
        <ele>71</ele>
        <time>2021-01-10T15:10:51.000Z</time>
      </trkpt>
      <trkpt lat="47.1837" lon="-1.58921">
        <ele>71</ele>
        <time>2021-01-10T15:10:53.000Z</time>
      </trkpt>
      <trkpt lat="47.1836" lon="-1.58925">
        <ele>71</ele>
        <time>2021-01-10T15:10:55.000Z</time>
      </trkpt>
      <trkpt lat="47.18351" lon="-1.5893">
        <ele>71</ele>
        <time>2021-01-10T15:10:57.000Z</time>
      </trkpt>
      <trkpt lat="47.18338" lon="-1.58935">
        <ele>71</ele>
        <time>2021-01-10T15:11:00.000Z</time>
      </trkpt>
      <trkpt lat="47.18329" lon="-1.58942">
        <ele>71</ele>
        <time>2021-01-10T15:11:03.000Z</time>
      </trkpt>
      <trkpt lat="47.18322" lon="-1.58929">
        <ele>71</ele>
        <time>2021-01-10T15:11:06.000Z</time>
      </trkpt>
      <trkpt lat="47.18321" lon="-1.58914">
        <ele>71</ele>
        <time>2021-01-10T15:11:09.000Z</time>
      </trkpt>
      <trkpt lat="47.1832" lon="-1.58899">
        <ele>71</ele>
        <time>2021-01-10T15:11:13.000Z</time>
      </trkpt>
      <trkpt lat="47.18312" lon="-1.58906">
        <ele>67</ele>
        <time>2021-01-10T15:12:45.000Z</time>
      </trkpt>
      <trkpt lat="47.18305" lon="-1.58899">
        <ele>69</ele>
        <time>2021-01-10T15:13:35.000Z</time>
      </trkpt>
      <trkpt lat="47.1831" lon="-1.5891">
        <ele>60</ele>
        <time>2021-01-10T15:14:36.000Z</time>
      </trkpt>
      <trkpt lat="47.18306" lon="-1.58923">
        <ele>57</ele>
        <time>2021-01-10T15:15:12.000Z</time>
      </trkpt>
      <trkpt lat="47.18305" lon="-1.58909">
        <ele>57</ele>
        <time>2021-01-10T15:15:43.000Z</time>
      </trkpt>
      <trkpt lat="47.18311" lon="-1.58901">
        <ele>61</ele>
        <time>2021-01-10T15:17:18.000Z</time>
      </trkpt>
      <trkpt lat="47.18317" lon="-1.58911">
        <ele>63</ele>
        <time>2021-01-10T15:19:06.000Z</time>
      </trkpt>
      <trkpt lat="47.18308" lon="-1.58906">
        <ele>62</ele>
        <time>2021-01-10T15:19:57.000Z</time>
      </trkpt>
      <trkpt lat="47.18317" lon="-1.58902">
        <ele>61</ele>
        <time>2021-01-10T15:21:00.000Z</time>
      </trkpt>
      <trkpt lat="47.18312" lon="-1.58914">
        <ele>62</ele>
        <time>2021-01-10T15:21:56.000Z</time>
      </trkpt>
      <trkpt lat="47.18307" lon="-1.58902">
        <ele>63</ele>
        <time>2021-01-10T15:23:01.000Z</time>
      </trkpt>
      <trkpt lat="47.18315" lon="-1.58909">
        <ele>64</ele>
        <time>2021-01-10T15:26:36.000Z</time>
      </trkpt>
      <trkpt lat="47.18317" lon="-1.58894">
        <ele>67</ele>
        <time>2021-01-10T15:40:42.000Z</time>
      </trkpt>
      <trkpt lat="47.1832" lon="-1.58909">
        <ele>68</ele>
        <time>2021-01-10T15:40:48.000Z</time>
      </trkpt>
      <trkpt lat="47.18321" lon="-1.58922">
        <ele>68</ele>
        <time>2021-01-10T15:40:51.000Z</time>
      </trkpt>
      <trkpt lat="47.18323" lon="-1.58935">
        <ele>69</ele>
        <time>2021-01-10T15:40:54.000Z</time>
      </trkpt>
      <trkpt lat="47.18328" lon="-1.58947">
        <ele>69</ele>
        <time>2021-01-10T15:40:57.000Z</time>
      </trkpt>
      <trkpt lat="47.18336" lon="-1.58959">
        <ele>70</ele>
        <time>2021-01-10T15:41:00.000Z</time>
      </trkpt>
      <trkpt lat="47.18345" lon="-1.58969">
        <ele>70</ele>
        <time>2021-01-10T15:41:03.000Z</time>
      </trkpt>
      <trkpt lat="47.18353" lon="-1.58981">
        <ele>69</ele>
        <time>2021-01-10T15:41:06.000Z</time>
      </trkpt>
      <trkpt lat="47.18356" lon="-1.58998">
        <ele>69</ele>
        <time>2021-01-10T15:41:09.000Z</time>
      </trkpt>
      <trkpt lat="47.18349" lon="-1.5901">
        <ele>69</ele>
        <time>2021-01-10T15:41:11.000Z</time>
      </trkpt>
      <trkpt lat="47.18341" lon="-1.59022">
        <ele>68</ele>
        <time>2021-01-10T15:41:13.000Z</time>
      </trkpt>
      <trkpt lat="47.18333" lon="-1.59037">
        <ele>67</ele>
        <time>2021-01-10T15:41:15.000Z</time>
      </trkpt>
      <trkpt lat="47.18326" lon="-1.59054">
        <ele>68</ele>
        <time>2021-01-10T15:41:17.000Z</time>
      </trkpt>
      <trkpt lat="47.18321" lon="-1.59071">
        <ele>68</ele>
        <time>2021-01-10T15:41:19.000Z</time>
      </trkpt>
      <trkpt lat="47.18315" lon="-1.59089">
        <ele>69</ele>
        <time>2021-01-10T15:41:21.000Z</time>
      </trkpt>
      <trkpt lat="47.18308" lon="-1.59107">
        <ele>69</ele>
        <time>2021-01-10T15:41:23.000Z</time>
      </trkpt>
      <trkpt lat="47.18302" lon="-1.59124">
        <ele>69</ele>
        <time>2021-01-10T15:41:25.000Z</time>
      </trkpt>
      <trkpt lat="47.18296" lon="-1.59141">
        <ele>69</ele>
        <time>2021-01-10T15:41:27.000Z</time>
      </trkpt>
      <trkpt lat="47.1829" lon="-1.59159">
        <ele>70</ele>
        <time>2021-01-10T15:41:29.000Z</time>
      </trkpt>
      <trkpt lat="47.18284" lon="-1.59176">
        <ele>70</ele>
        <time>2021-01-10T15:41:31.000Z</time>
      </trkpt>
      <trkpt lat="47.1828" lon="-1.59191">
        <ele>70</ele>
        <time>2021-01-10T15:41:33.000Z</time>
      </trkpt>
      <trkpt lat="47.18276" lon="-1.59207">
        <ele>69</ele>
        <time>2021-01-10T15:41:35.000Z</time>
      </trkpt>
      <trkpt lat="47.18265" lon="-1.59218">
        <ele>69</ele>
        <time>2021-01-10T15:41:37.000Z</time>
      </trkpt>
      <trkpt lat="47.18253" lon="-1.59227">
        <ele>70</ele>
        <time>2021-01-10T15:41:39.000Z</time>
      </trkpt>
      <trkpt lat="47.18243" lon="-1.59242">
        <ele>70</ele>
        <time>2021-01-10T15:41:41.000Z</time>
      </trkpt>
      <trkpt lat="47.18232" lon="-1.59254">
        <ele>70</ele>
        <time>2021-01-10T15:41:43.000Z</time>
      </trkpt>
      <trkpt lat="47.1822" lon="-1.59266">
        <ele>70</ele>
        <time>2021-01-10T15:41:45.000Z</time>
      </trkpt>
      <trkpt lat="47.18208" lon="-1.59277">
        <ele>71</ele>
        <time>2021-01-10T15:41:47.000Z</time>
      </trkpt>
      <trkpt lat="47.18196" lon="-1.59289">
        <ele>71</ele>
        <time>2021-01-10T15:41:49.000Z</time>
      </trkpt>
      <trkpt lat="47.18185" lon="-1.59301">
        <ele>71</ele>
        <time>2021-01-10T15:41:51.000Z</time>
      </trkpt>
      <trkpt lat="47.18173" lon="-1.59313">
        <ele>71</ele>
        <time>2021-01-10T15:41:53.000Z</time>
      </trkpt>
      <trkpt lat="47.18161" lon="-1.59326">
        <ele>72</ele>
        <time>2021-01-10T15:41:55.000Z</time>
      </trkpt>
      <trkpt lat="47.18149" lon="-1.59337">
        <ele>72</ele>
        <time>2021-01-10T15:41:57.000Z</time>
      </trkpt>
      <trkpt lat="47.18137" lon="-1.59349">
        <ele>72</ele>
        <time>2021-01-10T15:41:59.000Z</time>
      </trkpt>
      <trkpt lat="47.18125" lon="-1.59361">
        <ele>71</ele>
        <time>2021-01-10T15:42:01.000Z</time>
      </trkpt>
      <trkpt lat="47.18114" lon="-1.59372">
        <ele>71</ele>
        <time>2021-01-10T15:42:03.000Z</time>
      </trkpt>
      <trkpt lat="47.18103" lon="-1.59384">
        <ele>72</ele>
        <time>2021-01-10T15:42:05.000Z</time>
      </trkpt>
      <trkpt lat="47.18091" lon="-1.59394">
        <ele>72</ele>
        <time>2021-01-10T15:42:07.000Z</time>
      </trkpt>
      <trkpt lat="47.1808" lon="-1.59405">
        <ele>72</ele>
        <time>2021-01-10T15:42:09.000Z</time>
      </trkpt>
      <trkpt lat="47.18069" lon="-1.59418">
        <ele>72</ele>
        <time>2021-01-10T15:42:11.000Z</time>
      </trkpt>
      <trkpt lat="47.18059" lon="-1.59432">
        <ele>72</ele>
        <time>2021-01-10T15:42:13.000Z</time>
      </trkpt>
      <trkpt lat="47.18049" lon="-1.59445">
        <ele>73</ele>
        <time>2021-01-10T15:42:15.000Z</time>
      </trkpt>
      <trkpt lat="47.18041" lon="-1.59462">
        <ele>72</ele>
        <time>2021-01-10T15:42:17.000Z</time>
      </trkpt>
      <trkpt lat="47.18035" lon="-1.5948">
        <ele>72</ele>
        <time>2021-01-10T15:42:19.000Z</time>
      </trkpt>
      <trkpt lat="47.1803" lon="-1.595">
        <ele>72</ele>
        <time>2021-01-10T15:42:21.000Z</time>
      </trkpt>
      <trkpt lat="47.18026" lon="-1.59519">
        <ele>71</ele>
        <time>2021-01-10T15:42:23.000Z</time>
      </trkpt>
      <trkpt lat="47.18022" lon="-1.59538">
        <ele>72</ele>
        <time>2021-01-10T15:42:25.000Z</time>
      </trkpt>
      <trkpt lat="47.18017" lon="-1.59557">
        <ele>71</ele>
        <time>2021-01-10T15:42:27.000Z</time>
      </trkpt>
      <trkpt lat="47.18012" lon="-1.59577">
        <ele>71</ele>
        <time>2021-01-10T15:42:29.000Z</time>
      </trkpt>
      <trkpt lat="47.18007" lon="-1.59595">
        <ele>70</ele>
        <time>2021-01-10T15:42:31.000Z</time>
      </trkpt>
      <trkpt lat="47.18002" lon="-1.59613">
        <ele>70</ele>
        <time>2021-01-10T15:42:33.000Z</time>
      </trkpt>
      <trkpt lat="47.17997" lon="-1.59632">
        <ele>70</ele>
        <time>2021-01-10T15:42:35.000Z</time>
      </trkpt>
      <trkpt lat="47.17992" lon="-1.59651">
        <ele>70</ele>
        <time>2021-01-10T15:42:37.000Z</time>
      </trkpt>
      <trkpt lat="47.17987" lon="-1.5967">
        <ele>69</ele>
        <time>2021-01-10T15:42:39.000Z</time>
      </trkpt>
      <trkpt lat="47.17983" lon="-1.5969">
        <ele>68</ele>
        <time>2021-01-10T15:42:41.000Z</time>
      </trkpt>
      <trkpt lat="47.17978" lon="-1.59709">
        <ele>68</ele>
        <time>2021-01-10T15:42:43.000Z</time>
      </trkpt>
      <trkpt lat="47.17971" lon="-1.59729">
        <ele>67</ele>
        <time>2021-01-10T15:42:45.000Z</time>
      </trkpt>
      <trkpt lat="47.17965" lon="-1.5975">
        <ele>67</ele>
        <time>2021-01-10T15:42:47.000Z</time>
      </trkpt>
      <trkpt lat="47.17959" lon="-1.59771">
        <ele>66</ele>
        <time>2021-01-10T15:42:49.000Z</time>
      </trkpt>
      <trkpt lat="47.17954" lon="-1.59793">
        <ele>65</ele>
        <time>2021-01-10T15:42:51.000Z</time>
      </trkpt>
      <trkpt lat="47.1795" lon="-1.59818">
        <ele>63</ele>
        <time>2021-01-10T15:42:53.000Z</time>
      </trkpt>
      <trkpt lat="47.17946" lon="-1.59843">
        <ele>62</ele>
        <time>2021-01-10T15:42:55.000Z</time>
      </trkpt>
      <trkpt lat="47.17944" lon="-1.59856">
        <ele>62</ele>
        <time>2021-01-10T15:42:56.000Z</time>
      </trkpt>
      <trkpt lat="47.17942" lon="-1.59869">
        <ele>61</ele>
        <time>2021-01-10T15:42:57.000Z</time>
      </trkpt>
      <trkpt lat="47.17939" lon="-1.59882">
        <ele>60</ele>
        <time>2021-01-10T15:42:58.000Z</time>
      </trkpt>
      <trkpt lat="47.17935" lon="-1.59895">
        <ele>60</ele>
        <time>2021-01-10T15:42:59.000Z</time>
      </trkpt>
      <trkpt lat="47.17932" lon="-1.59909">
        <ele>59</ele>
        <time>2021-01-10T15:43:00.000Z</time>
      </trkpt>
      <trkpt lat="47.17929" lon="-1.59923">
        <ele>59</ele>
        <time>2021-01-10T15:43:01.000Z</time>
      </trkpt>
      <trkpt lat="47.1792" lon="-1.59943">
        <ele>58</ele>
        <time>2021-01-10T15:43:03.000Z</time>
      </trkpt>
      <trkpt lat="47.1791" lon="-1.59945">
        <ele>58</ele>
        <time>2021-01-10T15:43:04.000Z</time>
      </trkpt>
      <trkpt lat="47.179" lon="-1.59945">
        <ele>58</ele>
        <time>2021-01-10T15:43:05.000Z</time>
      </trkpt>
      <trkpt lat="47.17884" lon="-1.59954">
        <ele>58</ele>
        <time>2021-01-10T15:43:07.000Z</time>
      </trkpt>
      <trkpt lat="47.17872" lon="-1.59973">
        <ele>58</ele>
        <time>2021-01-10T15:43:09.000Z</time>
      </trkpt>
      <trkpt lat="47.17862" lon="-1.5999">
        <ele>57</ele>
        <time>2021-01-10T15:43:11.000Z</time>
      </trkpt>
      <trkpt lat="47.17852" lon="-1.60008">
        <ele>58</ele>
        <time>2021-01-10T15:43:13.000Z</time>
      </trkpt>
      <trkpt lat="47.17842" lon="-1.60025">
        <ele>59</ele>
        <time>2021-01-10T15:43:15.000Z</time>
      </trkpt>
      <trkpt lat="47.17832" lon="-1.60043">
        <ele>60</ele>
        <time>2021-01-10T15:43:17.000Z</time>
      </trkpt>
      <trkpt lat="47.17823" lon="-1.60059">
        <ele>61</ele>
        <time>2021-01-10T15:43:19.000Z</time>
      </trkpt>
      <trkpt lat="47.17813" lon="-1.60075">
        <ele>62</ele>
        <time>2021-01-10T15:43:21.000Z</time>
      </trkpt>
      <trkpt lat="47.17804" lon="-1.6009">
        <ele>62</ele>
        <time>2021-01-10T15:43:23.000Z</time>
      </trkpt>
      <trkpt lat="47.17796" lon="-1.60105">
        <ele>63</ele>
        <time>2021-01-10T15:43:25.000Z</time>
      </trkpt>
      <trkpt lat="47.17788" lon="-1.6012">
        <ele>63</ele>
        <time>2021-01-10T15:43:27.000Z</time>
      </trkpt>
      <trkpt lat="47.1778" lon="-1.60134">
        <ele>64</ele>
        <time>2021-01-10T15:43:29.000Z</time>
      </trkpt>
      <trkpt lat="47.17772" lon="-1.60148">
        <ele>64</ele>
        <time>2021-01-10T15:43:31.000Z</time>
      </trkpt>
      <trkpt lat="47.17765" lon="-1.60162">
        <ele>65</ele>
        <time>2021-01-10T15:43:33.000Z</time>
      </trkpt>
      <trkpt lat="47.17758" lon="-1.60177">
        <ele>65</ele>
        <time>2021-01-10T15:43:35.000Z</time>
      </trkpt>
      <trkpt lat="47.17753" lon="-1.60193">
        <ele>66</ele>
        <time>2021-01-10T15:43:37.000Z</time>
      </trkpt>
      <trkpt lat="47.1775" lon="-1.60209">
        <ele>66</ele>
        <time>2021-01-10T15:43:39.000Z</time>
      </trkpt>
      <trkpt lat="47.17746" lon="-1.60225">
        <ele>66</ele>
        <time>2021-01-10T15:43:41.000Z</time>
      </trkpt>
      <trkpt lat="47.17742" lon="-1.60241">
        <ele>67</ele>
        <time>2021-01-10T15:43:43.000Z</time>
      </trkpt>
      <trkpt lat="47.17738" lon="-1.60257">
        <ele>66</ele>
        <time>2021-01-10T15:43:45.000Z</time>
      </trkpt>
      <trkpt lat="47.17732" lon="-1.60272">
        <ele>67</ele>
        <time>2021-01-10T15:43:47.000Z</time>
      </trkpt>
      <trkpt lat="47.17723" lon="-1.60286">
        <ele>67</ele>
        <time>2021-01-10T15:43:49.000Z</time>
      </trkpt>
      <trkpt lat="47.17715" lon="-1.60297">
        <ele>68</ele>
        <time>2021-01-10T15:43:51.000Z</time>
      </trkpt>
      <trkpt lat="47.17706" lon="-1.60309">
        <ele>69</ele>
        <time>2021-01-10T15:43:53.000Z</time>
      </trkpt>
      <trkpt lat="47.17697" lon="-1.60321">
        <ele>69</ele>
        <time>2021-01-10T15:43:55.000Z</time>
      </trkpt>
      <trkpt lat="47.17688" lon="-1.60333">
        <ele>69</ele>
        <time>2021-01-10T15:43:57.000Z</time>
      </trkpt>
      <trkpt lat="47.1768" lon="-1.60344">
        <ele>68</ele>
        <time>2021-01-10T15:43:59.000Z</time>
      </trkpt>
      <trkpt lat="47.17672" lon="-1.60356">
        <ele>68</ele>
        <time>2021-01-10T15:44:01.000Z</time>
      </trkpt>
      <trkpt lat="47.17663" lon="-1.60368">
        <ele>68</ele>
        <time>2021-01-10T15:44:03.000Z</time>
      </trkpt>
      <trkpt lat="47.17655" lon="-1.60381">
        <ele>68</ele>
        <time>2021-01-10T15:44:05.000Z</time>
      </trkpt>
      <trkpt lat="47.17647" lon="-1.60394">
        <ele>67</ele>
        <time>2021-01-10T15:44:07.000Z</time>
      </trkpt>
      <trkpt lat="47.17638" lon="-1.60408">
        <ele>67</ele>
        <time>2021-01-10T15:44:09.000Z</time>
      </trkpt>
      <trkpt lat="47.17629" lon="-1.60424">
        <ele>67</ele>
        <time>2021-01-10T15:44:11.000Z</time>
      </trkpt>
      <trkpt lat="47.17619" lon="-1.60439">
        <ele>67</ele>
        <time>2021-01-10T15:44:13.000Z</time>
      </trkpt>
      <trkpt lat="47.17609" lon="-1.60455">
        <ele>67</ele>
        <time>2021-01-10T15:44:15.000Z</time>
      </trkpt>
      <trkpt lat="47.176" lon="-1.60471">
        <ele>67</ele>
        <time>2021-01-10T15:44:17.000Z</time>
      </trkpt>
      <trkpt lat="47.1759" lon="-1.60485">
        <ele>67</ele>
        <time>2021-01-10T15:44:19.000Z</time>
      </trkpt>
      <trkpt lat="47.17581" lon="-1.60501">
        <ele>67</ele>
        <time>2021-01-10T15:44:21.000Z</time>
      </trkpt>
      <trkpt lat="47.17571" lon="-1.60516">
        <ele>66</ele>
        <time>2021-01-10T15:44:23.000Z</time>
      </trkpt>
      <trkpt lat="47.17562" lon="-1.6053">
        <ele>66</ele>
        <time>2021-01-10T15:44:25.000Z</time>
      </trkpt>
      <trkpt lat="47.17552" lon="-1.60545">
        <ele>66</ele>
        <time>2021-01-10T15:44:27.000Z</time>
      </trkpt>
      <trkpt lat="47.17543" lon="-1.6056">
        <ele>65</ele>
        <time>2021-01-10T15:44:29.000Z</time>
      </trkpt>
      <trkpt lat="47.17533" lon="-1.60576">
        <ele>65</ele>
        <time>2021-01-10T15:44:31.000Z</time>
      </trkpt>
      <trkpt lat="47.17524" lon="-1.60591">
        <ele>65</ele>
        <time>2021-01-10T15:44:33.000Z</time>
      </trkpt>
      <trkpt lat="47.17515" lon="-1.60606">
        <ele>64</ele>
        <time>2021-01-10T15:44:35.000Z</time>
      </trkpt>
      <trkpt lat="47.17505" lon="-1.60622">
        <ele>64</ele>
        <time>2021-01-10T15:44:37.000Z</time>
      </trkpt>
      <trkpt lat="47.17496" lon="-1.60637">
        <ele>64</ele>
        <time>2021-01-10T15:44:39.000Z</time>
      </trkpt>
      <trkpt lat="47.17486" lon="-1.60652">
        <ele>63</ele>
        <time>2021-01-10T15:44:41.000Z</time>
      </trkpt>
      <trkpt lat="47.17477" lon="-1.60667">
        <ele>63</ele>
        <time>2021-01-10T15:44:43.000Z</time>
      </trkpt>
      <trkpt lat="47.17468" lon="-1.60683">
        <ele>62</ele>
        <time>2021-01-10T15:44:45.000Z</time>
      </trkpt>
      <trkpt lat="47.17458" lon="-1.60699">
        <ele>61</ele>
        <time>2021-01-10T15:44:47.000Z</time>
      </trkpt>
      <trkpt lat="47.17449" lon="-1.60715">
        <ele>61</ele>
        <time>2021-01-10T15:44:49.000Z</time>
      </trkpt>
      <trkpt lat="47.17439" lon="-1.60732">
        <ele>61</ele>
        <time>2021-01-10T15:44:51.000Z</time>
      </trkpt>
      <trkpt lat="47.1743" lon="-1.60749">
        <ele>61</ele>
        <time>2021-01-10T15:44:53.000Z</time>
      </trkpt>
      <trkpt lat="47.17422" lon="-1.60769">
        <ele>60</ele>
        <time>2021-01-10T15:44:55.000Z</time>
      </trkpt>
      <trkpt lat="47.17414" lon="-1.60789">
        <ele>59</ele>
        <time>2021-01-10T15:44:57.000Z</time>
      </trkpt>
      <trkpt lat="47.17408" lon="-1.60811">
        <ele>58</ele>
        <time>2021-01-10T15:44:59.000Z</time>
      </trkpt>
      <trkpt lat="47.17403" lon="-1.60834">
        <ele>57</ele>
        <time>2021-01-10T15:45:01.000Z</time>
      </trkpt>
      <trkpt lat="47.174" lon="-1.60857">
        <ele>57</ele>
        <time>2021-01-10T15:45:03.000Z</time>
      </trkpt>
      <trkpt lat="47.17397" lon="-1.6088">
        <ele>57</ele>
        <time>2021-01-10T15:45:05.000Z</time>
      </trkpt>
      <trkpt lat="47.17396" lon="-1.60904">
        <ele>57</ele>
        <time>2021-01-10T15:45:07.000Z</time>
      </trkpt>
      <trkpt lat="47.17398" lon="-1.60927">
        <ele>56</ele>
        <time>2021-01-10T15:45:09.000Z</time>
      </trkpt>
      <trkpt lat="47.17401" lon="-1.6095">
        <ele>56</ele>
        <time>2021-01-10T15:45:11.000Z</time>
      </trkpt>
      <trkpt lat="47.17407" lon="-1.60972">
        <ele>56</ele>
        <time>2021-01-10T15:45:13.000Z</time>
      </trkpt>
      <trkpt lat="47.17414" lon="-1.60991">
        <ele>55</ele>
        <time>2021-01-10T15:45:15.000Z</time>
      </trkpt>
      <trkpt lat="47.17418" lon="-1.6101">
        <ele>55</ele>
        <time>2021-01-10T15:45:17.000Z</time>
      </trkpt>
      <trkpt lat="47.17419" lon="-1.61031">
        <ele>55</ele>
        <time>2021-01-10T15:45:19.000Z</time>
      </trkpt>
      <trkpt lat="47.17422" lon="-1.61049">
        <ele>55</ele>
        <time>2021-01-10T15:45:21.000Z</time>
      </trkpt>
      <trkpt lat="47.17429" lon="-1.61064">
        <ele>56</ele>
        <time>2021-01-10T15:45:23.000Z</time>
      </trkpt>
      <trkpt lat="47.17436" lon="-1.6108">
        <ele>57</ele>
        <time>2021-01-10T15:45:25.000Z</time>
      </trkpt>
      <trkpt lat="47.17442" lon="-1.61095">
        <ele>57</ele>
        <time>2021-01-10T15:45:27.000Z</time>
      </trkpt>
      <trkpt lat="47.17449" lon="-1.61109">
        <ele>57</ele>
        <time>2021-01-10T15:45:29.000Z</time>
      </trkpt>
      <trkpt lat="47.17455" lon="-1.61123">
        <ele>58</ele>
        <time>2021-01-10T15:45:31.000Z</time>
      </trkpt>
      <trkpt lat="47.1746" lon="-1.61138">
        <ele>58</ele>
        <time>2021-01-10T15:45:33.000Z</time>
      </trkpt>
      <trkpt lat="47.17467" lon="-1.61153">
        <ele>58</ele>
        <time>2021-01-10T15:45:35.000Z</time>
      </trkpt>
      <trkpt lat="47.17473" lon="-1.61168">
        <ele>59</ele>
        <time>2021-01-10T15:45:37.000Z</time>
      </trkpt>
      <trkpt lat="47.17479" lon="-1.61184">
        <ele>59</ele>
        <time>2021-01-10T15:45:39.000Z</time>
      </trkpt>
      <trkpt lat="47.17485" lon="-1.61199">
        <ele>60</ele>
        <time>2021-01-10T15:45:41.000Z</time>
      </trkpt>
      <trkpt lat="47.17491" lon="-1.61213">
        <ele>60</ele>
        <time>2021-01-10T15:45:43.000Z</time>
      </trkpt>
      <trkpt lat="47.17497" lon="-1.61228">
        <ele>60</ele>
        <time>2021-01-10T15:45:45.000Z</time>
      </trkpt>
      <trkpt lat="47.17503" lon="-1.61241">
        <ele>61</ele>
        <time>2021-01-10T15:45:47.000Z</time>
      </trkpt>
      <trkpt lat="47.1751" lon="-1.61255">
        <ele>62</ele>
        <time>2021-01-10T15:45:49.000Z</time>
      </trkpt>
      <trkpt lat="47.17519" lon="-1.61268">
        <ele>62</ele>
        <time>2021-01-10T15:45:51.000Z</time>
      </trkpt>
      <trkpt lat="47.17528" lon="-1.6128">
        <ele>62</ele>
        <time>2021-01-10T15:45:53.000Z</time>
      </trkpt>
      <trkpt lat="47.17539" lon="-1.61287">
        <ele>62</ele>
        <time>2021-01-10T15:45:55.000Z</time>
      </trkpt>
      <trkpt lat="47.1755" lon="-1.61294">
        <ele>62</ele>
        <time>2021-01-10T15:45:57.000Z</time>
      </trkpt>
      <trkpt lat="47.17558" lon="-1.61306">
        <ele>62</ele>
        <time>2021-01-10T15:45:59.000Z</time>
      </trkpt>
      <trkpt lat="47.17562" lon="-1.61323">
        <ele>62</ele>
        <time>2021-01-10T15:46:01.000Z</time>
      </trkpt>
      <trkpt lat="47.17558" lon="-1.61342">
        <ele>62</ele>
        <time>2021-01-10T15:46:03.000Z</time>
      </trkpt>
      <trkpt lat="47.17548" lon="-1.61355">
        <ele>62</ele>
        <time>2021-01-10T15:46:05.000Z</time>
      </trkpt>
      <trkpt lat="47.17537" lon="-1.61366">
        <ele>62</ele>
        <time>2021-01-10T15:46:07.000Z</time>
      </trkpt>
      <trkpt lat="47.17531" lon="-1.61381">
        <ele>62</ele>
        <time>2021-01-10T15:46:09.000Z</time>
      </trkpt>
      <trkpt lat="47.17526" lon="-1.61397">
        <ele>62</ele>
        <time>2021-01-10T15:46:11.000Z</time>
      </trkpt>
      <trkpt lat="47.17523" lon="-1.61415">
        <ele>62</ele>
        <time>2021-01-10T15:46:13.000Z</time>
      </trkpt>
      <trkpt lat="47.17518" lon="-1.61432">
        <ele>63</ele>
        <time>2021-01-10T15:46:15.000Z</time>
      </trkpt>
      <trkpt lat="47.17515" lon="-1.61448">
        <ele>64</ele>
        <time>2021-01-10T15:46:17.000Z</time>
      </trkpt>
      <trkpt lat="47.17508" lon="-1.6146">
        <ele>64</ele>
        <time>2021-01-10T15:46:19.000Z</time>
      </trkpt>
      <trkpt lat="47.17497" lon="-1.61467">
        <ele>65</ele>
        <time>2021-01-10T15:46:21.000Z</time>
      </trkpt>
      <trkpt lat="47.17487" lon="-1.61471">
        <ele>66</ele>
        <time>2021-01-10T15:46:23.000Z</time>
      </trkpt>
      <trkpt lat="47.17476" lon="-1.61475">
        <ele>66</ele>
        <time>2021-01-10T15:46:25.000Z</time>
      </trkpt>
      <trkpt lat="47.17464" lon="-1.6148">
        <ele>66</ele>
        <time>2021-01-10T15:46:27.000Z</time>
      </trkpt>
      <trkpt lat="47.17453" lon="-1.61485">
        <ele>67</ele>
        <time>2021-01-10T15:46:29.000Z</time>
      </trkpt>
      <trkpt lat="47.17442" lon="-1.61491">
        <ele>67</ele>
        <time>2021-01-10T15:46:31.000Z</time>
      </trkpt>
      <trkpt lat="47.17432" lon="-1.61498">
        <ele>67</ele>
        <time>2021-01-10T15:46:33.000Z</time>
      </trkpt>
      <trkpt lat="47.17422" lon="-1.61504">
        <ele>68</ele>
        <time>2021-01-10T15:46:35.000Z</time>
      </trkpt>
      <trkpt lat="47.17412" lon="-1.61511">
        <ele>68</ele>
        <time>2021-01-10T15:46:37.000Z</time>
      </trkpt>
      <trkpt lat="47.17402" lon="-1.61519">
        <ele>68</ele>
        <time>2021-01-10T15:46:39.000Z</time>
      </trkpt>
      <trkpt lat="47.17393" lon="-1.61527">
        <ele>69</ele>
        <time>2021-01-10T15:46:41.000Z</time>
      </trkpt>
      <trkpt lat="47.17384" lon="-1.61534">
        <ele>70</ele>
        <time>2021-01-10T15:46:43.000Z</time>
      </trkpt>
      <trkpt lat="47.17376" lon="-1.61544">
        <ele>71</ele>
        <time>2021-01-10T15:46:45.000Z</time>
      </trkpt>
      <trkpt lat="47.17368" lon="-1.61554">
        <ele>72</ele>
        <time>2021-01-10T15:46:47.000Z</time>
      </trkpt>
      <trkpt lat="47.17359" lon="-1.61562">
        <ele>73</ele>
        <time>2021-01-10T15:46:49.000Z</time>
      </trkpt>
      <trkpt lat="47.17353" lon="-1.61573">
        <ele>74</ele>
        <time>2021-01-10T15:46:51.000Z</time>
      </trkpt>
      <trkpt lat="47.17344" lon="-1.61583">
        <ele>74</ele>
        <time>2021-01-10T15:46:53.000Z</time>
      </trkpt>
      <trkpt lat="47.17335" lon="-1.61592">
        <ele>74</ele>
        <time>2021-01-10T15:46:55.000Z</time>
      </trkpt>
      <trkpt lat="47.17326" lon="-1.61602">
        <ele>73</ele>
        <time>2021-01-10T15:46:57.000Z</time>
      </trkpt>
      <trkpt lat="47.17318" lon="-1.61613">
        <ele>74</ele>
        <time>2021-01-10T15:46:59.000Z</time>
      </trkpt>
      <trkpt lat="47.1731" lon="-1.61624">
        <ele>74</ele>
        <time>2021-01-10T15:47:01.000Z</time>
      </trkpt>
      <trkpt lat="47.17302" lon="-1.61636">
        <ele>74</ele>
        <time>2021-01-10T15:47:03.000Z</time>
      </trkpt>
      <trkpt lat="47.17296" lon="-1.61647">
        <ele>74</ele>
        <time>2021-01-10T15:47:05.000Z</time>
      </trkpt>
      <trkpt lat="47.1729" lon="-1.6166">
        <ele>74</ele>
        <time>2021-01-10T15:47:07.000Z</time>
      </trkpt>
      <trkpt lat="47.17283" lon="-1.61673">
        <ele>74</ele>
        <time>2021-01-10T15:47:09.000Z</time>
      </trkpt>
      <trkpt lat="47.17277" lon="-1.61686">
        <ele>74</ele>
        <time>2021-01-10T15:47:11.000Z</time>
      </trkpt>
      <trkpt lat="47.1727" lon="-1.617">
        <ele>74</ele>
        <time>2021-01-10T15:47:13.000Z</time>
      </trkpt>
      <trkpt lat="47.17264" lon="-1.61712">
        <ele>73</ele>
        <time>2021-01-10T15:47:15.000Z</time>
      </trkpt>
      <trkpt lat="47.17257" lon="-1.61726">
        <ele>73</ele>
        <time>2021-01-10T15:47:17.000Z</time>
      </trkpt>
      <trkpt lat="47.17251" lon="-1.6174">
        <ele>72</ele>
        <time>2021-01-10T15:47:19.000Z</time>
      </trkpt>
      <trkpt lat="47.17247" lon="-1.61755">
        <ele>72</ele>
        <time>2021-01-10T15:47:21.000Z</time>
      </trkpt>
      <trkpt lat="47.17244" lon="-1.61772">
        <ele>72</ele>
        <time>2021-01-10T15:47:23.000Z</time>
      </trkpt>
      <trkpt lat="47.17236" lon="-1.61785">
        <ele>71</ele>
        <time>2021-01-10T15:47:25.000Z</time>
      </trkpt>
      <trkpt lat="47.17225" lon="-1.61794">
        <ele>70</ele>
        <time>2021-01-10T15:47:27.000Z</time>
      </trkpt>
      <trkpt lat="47.17216" lon="-1.61803">
        <ele>70</ele>
        <time>2021-01-10T15:47:29.000Z</time>
      </trkpt>
      <trkpt lat="47.17205" lon="-1.61812">
        <ele>70</ele>
        <time>2021-01-10T15:47:31.000Z</time>
      </trkpt>
      <trkpt lat="47.17196" lon="-1.6182">
        <ele>71</ele>
        <time>2021-01-10T15:47:33.000Z</time>
      </trkpt>
      <trkpt lat="47.17187" lon="-1.61829">
        <ele>71</ele>
        <time>2021-01-10T15:47:35.000Z</time>
      </trkpt>
      <trkpt lat="47.17178" lon="-1.61838">
        <ele>70</ele>
        <time>2021-01-10T15:47:37.000Z</time>
      </trkpt>
      <trkpt lat="47.17168" lon="-1.61847">
        <ele>70</ele>
        <time>2021-01-10T15:47:39.000Z</time>
      </trkpt>
      <trkpt lat="47.17158" lon="-1.61855">
        <ele>69</ele>
        <time>2021-01-10T15:47:41.000Z</time>
      </trkpt>
      <trkpt lat="47.17149" lon="-1.61864">
        <ele>70</ele>
        <time>2021-01-10T15:47:43.000Z</time>
      </trkpt>
      <trkpt lat="47.1714" lon="-1.61872">
        <ele>70</ele>
        <time>2021-01-10T15:47:45.000Z</time>
      </trkpt>
      <trkpt lat="47.17131" lon="-1.61881">
        <ele>70</ele>
        <time>2021-01-10T15:47:47.000Z</time>
      </trkpt>
      <trkpt lat="47.17121" lon="-1.6189">
        <ele>70</ele>
        <time>2021-01-10T15:47:49.000Z</time>
      </trkpt>
      <trkpt lat="47.17111" lon="-1.619">
        <ele>70</ele>
        <time>2021-01-10T15:47:51.000Z</time>
      </trkpt>
      <trkpt lat="47.17101" lon="-1.61909">
        <ele>71</ele>
        <time>2021-01-10T15:47:53.000Z</time>
      </trkpt>
      <trkpt lat="47.17091" lon="-1.61919">
        <ele>70</ele>
        <time>2021-01-10T15:47:55.000Z</time>
      </trkpt>
      <trkpt lat="47.17081" lon="-1.61929">
        <ele>71</ele>
        <time>2021-01-10T15:47:57.000Z</time>
      </trkpt>
      <trkpt lat="47.17072" lon="-1.61939">
        <ele>71</ele>
        <time>2021-01-10T15:47:59.000Z</time>
      </trkpt>
      <trkpt lat="47.17062" lon="-1.61949">
        <ele>71</ele>
        <time>2021-01-10T15:48:01.000Z</time>
      </trkpt>
      <trkpt lat="47.17054" lon="-1.6196">
        <ele>72</ele>
        <time>2021-01-10T15:48:03.000Z</time>
      </trkpt>
      <trkpt lat="47.17045" lon="-1.61973">
        <ele>72</ele>
        <time>2021-01-10T15:48:05.000Z</time>
      </trkpt>
      <trkpt lat="47.17037" lon="-1.61986">
        <ele>72</ele>
        <time>2021-01-10T15:48:07.000Z</time>
      </trkpt>
      <trkpt lat="47.17029" lon="-1.61999">
        <ele>72</ele>
        <time>2021-01-10T15:48:09.000Z</time>
      </trkpt>
      <trkpt lat="47.1702" lon="-1.62012">
        <ele>72</ele>
        <time>2021-01-10T15:48:11.000Z</time>
      </trkpt>
      <trkpt lat="47.17012" lon="-1.62025">
        <ele>72</ele>
        <time>2021-01-10T15:48:13.000Z</time>
      </trkpt>
      <trkpt lat="47.17004" lon="-1.62039">
        <ele>71</ele>
        <time>2021-01-10T15:48:15.000Z</time>
      </trkpt>
      <trkpt lat="47.16996" lon="-1.62052">
        <ele>72</ele>
        <time>2021-01-10T15:48:17.000Z</time>
      </trkpt>
      <trkpt lat="47.16988" lon="-1.62067">
        <ele>71</ele>
        <time>2021-01-10T15:48:19.000Z</time>
      </trkpt>
      <trkpt lat="47.16981" lon="-1.62081">
        <ele>70</ele>
        <time>2021-01-10T15:48:21.000Z</time>
      </trkpt>
      <trkpt lat="47.16973" lon="-1.62094">
        <ele>70</ele>
        <time>2021-01-10T15:48:23.000Z</time>
      </trkpt>
      <trkpt lat="47.16965" lon="-1.62108">
        <ele>70</ele>
        <time>2021-01-10T15:48:25.000Z</time>
      </trkpt>
      <trkpt lat="47.16957" lon="-1.62122">
        <ele>70</ele>
        <time>2021-01-10T15:48:27.000Z</time>
      </trkpt>
      <trkpt lat="47.1695" lon="-1.62136">
        <ele>70</ele>
        <time>2021-01-10T15:48:29.000Z</time>
      </trkpt>
      <trkpt lat="47.16942" lon="-1.6215">
        <ele>70</ele>
        <time>2021-01-10T15:48:31.000Z</time>
      </trkpt>
      <trkpt lat="47.16936" lon="-1.62165">
        <ele>71</ele>
        <time>2021-01-10T15:48:33.000Z</time>
      </trkpt>
      <trkpt lat="47.1693" lon="-1.62179">
        <ele>71</ele>
        <time>2021-01-10T15:48:35.000Z</time>
      </trkpt>
      <trkpt lat="47.16923" lon="-1.62193">
        <ele>70</ele>
        <time>2021-01-10T15:48:37.000Z</time>
      </trkpt>
      <trkpt lat="47.16915" lon="-1.62205">
        <ele>71</ele>
        <time>2021-01-10T15:48:39.000Z</time>
      </trkpt>
      <trkpt lat="47.16907" lon="-1.62217">
        <ele>71</ele>
        <time>2021-01-10T15:48:41.000Z</time>
      </trkpt>
      <trkpt lat="47.16898" lon="-1.62229">
        <ele>71</ele>
        <time>2021-01-10T15:48:43.000Z</time>
      </trkpt>
      <trkpt lat="47.16888" lon="-1.6224">
        <ele>71</ele>
        <time>2021-01-10T15:48:45.000Z</time>
      </trkpt>
      <trkpt lat="47.16879" lon="-1.62251">
        <ele>71</ele>
        <time>2021-01-10T15:48:47.000Z</time>
      </trkpt>
      <trkpt lat="47.1687" lon="-1.62262">
        <ele>71</ele>
        <time>2021-01-10T15:48:49.000Z</time>
      </trkpt>
      <trkpt lat="47.16861" lon="-1.62274">
        <ele>72</ele>
        <time>2021-01-10T15:48:51.000Z</time>
      </trkpt>
      <trkpt lat="47.16852" lon="-1.62286">
        <ele>72</ele>
        <time>2021-01-10T15:48:53.000Z</time>
      </trkpt>
      <trkpt lat="47.16843" lon="-1.62297">
        <ele>72</ele>
        <time>2021-01-10T15:48:55.000Z</time>
      </trkpt>
      <trkpt lat="47.16834" lon="-1.62307">
        <ele>72</ele>
        <time>2021-01-10T15:48:57.000Z</time>
      </trkpt>
      <trkpt lat="47.16824" lon="-1.62316">
        <ele>73</ele>
        <time>2021-01-10T15:48:59.000Z</time>
      </trkpt>
      <trkpt lat="47.16813" lon="-1.62323">
        <ele>73</ele>
        <time>2021-01-10T15:49:01.000Z</time>
      </trkpt>
      <trkpt lat="47.16803" lon="-1.62331">
        <ele>73</ele>
        <time>2021-01-10T15:49:03.000Z</time>
      </trkpt>
      <trkpt lat="47.16791" lon="-1.62336">
        <ele>72</ele>
        <time>2021-01-10T15:49:05.000Z</time>
      </trkpt>
      <trkpt lat="47.16779" lon="-1.62344">
        <ele>72</ele>
        <time>2021-01-10T15:49:07.000Z</time>
      </trkpt>
      <trkpt lat="47.16767" lon="-1.6235">
        <ele>72</ele>
        <time>2021-01-10T15:49:09.000Z</time>
      </trkpt>
      <trkpt lat="47.16756" lon="-1.6236">
        <ele>72</ele>
        <time>2021-01-10T15:49:11.000Z</time>
      </trkpt>
      <trkpt lat="47.16746" lon="-1.6237">
        <ele>71</ele>
        <time>2021-01-10T15:49:13.000Z</time>
      </trkpt>
      <trkpt lat="47.16738" lon="-1.62384">
        <ele>71</ele>
        <time>2021-01-10T15:49:15.000Z</time>
      </trkpt>
      <trkpt lat="47.16733" lon="-1.62401">
        <ele>71</ele>
        <time>2021-01-10T15:49:17.000Z</time>
      </trkpt>
      <trkpt lat="47.16731" lon="-1.62419">
        <ele>70</ele>
        <time>2021-01-10T15:49:19.000Z</time>
      </trkpt>
      <trkpt lat="47.16728" lon="-1.62435">
        <ele>70</ele>
        <time>2021-01-10T15:49:21.000Z</time>
      </trkpt>
      <trkpt lat="47.16724" lon="-1.62451">
        <ele>70</ele>
        <time>2021-01-10T15:49:23.000Z</time>
      </trkpt>
      <trkpt lat="47.1672" lon="-1.62468">
        <ele>70</ele>
        <time>2021-01-10T15:49:25.000Z</time>
      </trkpt>
      <trkpt lat="47.16715" lon="-1.62484">
        <ele>70</ele>
        <time>2021-01-10T15:49:27.000Z</time>
      </trkpt>
      <trkpt lat="47.16721" lon="-1.62496">
        <ele>69</ele>
        <time>2021-01-10T15:49:29.000Z</time>
      </trkpt>
      <trkpt lat="47.16733" lon="-1.625">
        <ele>69</ele>
        <time>2021-01-10T15:49:31.000Z</time>
      </trkpt>
      <trkpt lat="47.16744" lon="-1.62504">
        <ele>69</ele>
        <time>2021-01-10T15:49:33.000Z</time>
      </trkpt>
      <trkpt lat="47.16755" lon="-1.62508">
        <ele>69</ele>
        <time>2021-01-10T15:49:35.000Z</time>
      </trkpt>
      <trkpt lat="47.16765" lon="-1.62514">
        <ele>69</ele>
        <time>2021-01-10T15:49:37.000Z</time>
      </trkpt>
      <trkpt lat="47.16775" lon="-1.6252">
        <ele>69</ele>
        <time>2021-01-10T15:49:39.000Z</time>
      </trkpt>
      <trkpt lat="47.16784" lon="-1.62527">
        <ele>70</ele>
        <time>2021-01-10T15:49:41.000Z</time>
      </trkpt>
      <trkpt lat="47.16794" lon="-1.62532">
        <ele>69</ele>
        <time>2021-01-10T15:49:43.000Z</time>
      </trkpt>
      <trkpt lat="47.16802" lon="-1.62539">
        <ele>69</ele>
        <time>2021-01-10T15:49:45.000Z</time>
      </trkpt>
      <trkpt lat="47.1681" lon="-1.62545">
        <ele>69</ele>
        <time>2021-01-10T15:49:47.000Z</time>
      </trkpt>
      <trkpt lat="47.16818" lon="-1.62552">
        <ele>70</ele>
        <time>2021-01-10T15:49:49.000Z</time>
      </trkpt>
      <trkpt lat="47.16826" lon="-1.6256">
        <ele>71</ele>
        <time>2021-01-10T15:49:51.000Z</time>
      </trkpt>
      <trkpt lat="47.16832" lon="-1.62573">
        <ele>71</ele>
        <time>2021-01-10T15:49:55.000Z</time>
      </trkpt>
      <trkpt lat="47.16832" lon="-1.62588">
        <ele>71</ele>
        <time>2021-01-10T15:49:58.000Z</time>
      </trkpt>
      <trkpt lat="47.16825" lon="-1.626">
        <ele>71</ele>
        <time>2021-01-10T15:50:00.000Z</time>
      </trkpt>
      <trkpt lat="47.16819" lon="-1.62611">
        <ele>71</ele>
        <time>2021-01-10T15:50:02.000Z</time>
      </trkpt>
      <trkpt lat="47.16813" lon="-1.62622">
        <ele>72</ele>
        <time>2021-01-10T15:50:04.000Z</time>
      </trkpt>
      <trkpt lat="47.16806" lon="-1.62632">
        <ele>72</ele>
        <time>2021-01-10T15:50:06.000Z</time>
      </trkpt>
      <trkpt lat="47.16799" lon="-1.62643">
        <ele>72</ele>
        <time>2021-01-10T15:50:08.000Z</time>
      </trkpt>
      <trkpt lat="47.16792" lon="-1.62657">
        <ele>72</ele>
        <time>2021-01-10T15:50:11.000Z</time>
      </trkpt>
      <trkpt lat="47.16782" lon="-1.62658">
        <ele>72</ele>
        <time>2021-01-10T15:50:15.000Z</time>
      </trkpt>
    </trkseg>
  </trk>
</gpx>